<?xml version="1.0" encoding="UTF-8" standalone="no" ?>
<gpx xmlns="http://www.topografix.com/GPX/1/1" xmlns:xsi="http://www.w3.org/2001/XMLSchema-instance" xsi:schemaLocation="http://www.topografix.com/GPX/1/1 http://www.topografix.com/GPX/1/1/gpx.xsd" version="1.1" creator="VisuGPX - https://www.visugpx.com">
  <metadata>
    <name>Bruxelles-Kaliningrad 9: Bad Nieuweschans -&amp;gt; Bad Zwischenahn</name>
  </metadata>
  <trk>
    <name><![CDATA[Day 9: Bad Nieuweschans -> Bad Zwischenahn]]></name>
    <extensions>
      <line xmlns="http://www.topografix.com/GPX/gpx_style/0/2">
        <color>0000FF</color>
        <width>4</width>
      </line>
    </extensions>
    <trkseg>
      <trkpt lat="53.17846" lon="7.20797">
        <ele>46.125136</ele>
        <time>2024-07-12T06:48:28.825Z</time>
      </trkpt>
      <trkpt lat="53.17853" lon="7.2081">
        <ele>46.125136</ele>
        <time>2024-07-12T06:48:34.826Z</time>
      </trkpt>
      <trkpt lat="53.1786" lon="7.20819">
        <ele>46.125136</ele>
        <time>2024-07-12T06:48:38.846Z</time>
      </trkpt>
      <trkpt lat="53.1787" lon="7.20822">
        <ele>46.125136</ele>
        <time>2024-07-12T06:48:42.836Z</time>
      </trkpt>
      <trkpt lat="53.17881" lon="7.20827">
        <ele>46.125136</ele>
        <time>2024-07-12T06:48:46.824Z</time>
      </trkpt>
      <trkpt lat="53.17891" lon="7.20835">
        <ele>46.125136</ele>
        <time>2024-07-12T06:48:49.858Z</time>
      </trkpt>
      <trkpt lat="53.17898" lon="7.20846">
        <ele>46.125136</ele>
        <time>2024-07-12T06:48:52.837Z</time>
      </trkpt>
      <trkpt lat="53.17907" lon="7.20857">
        <ele>46.125136</ele>
        <time>2024-07-12T06:48:55.840Z</time>
      </trkpt>
      <trkpt lat="53.17916" lon="7.20866">
        <ele>46.125136</ele>
        <time>2024-07-12T06:48:58.851Z</time>
      </trkpt>
      <trkpt lat="53.17924" lon="7.20877">
        <ele>46.114301</ele>
        <time>2024-07-12T06:49:01.844Z</time>
      </trkpt>
      <trkpt lat="53.17932" lon="7.20891">
        <ele>46.079777</ele>
        <time>2024-07-12T06:49:04.855Z</time>
      </trkpt>
      <trkpt lat="53.17939" lon="7.20904">
        <ele>46.045936</ele>
        <time>2024-07-12T06:49:07.832Z</time>
      </trkpt>
      <trkpt lat="53.17948" lon="7.20914">
        <ele>46.012389</ele>
        <time>2024-07-12T06:49:10.841Z</time>
      </trkpt>
      <trkpt lat="53.17957" lon="7.20925">
        <ele>45.977418</ele>
        <time>2024-07-12T06:49:13.833Z</time>
      </trkpt>
      <trkpt lat="53.17966" lon="7.20937">
        <ele>45.941136</ele>
        <time>2024-07-12T06:49:16.842Z</time>
      </trkpt>
      <trkpt lat="53.17976" lon="7.20946">
        <ele>45.906724</ele>
        <time>2024-07-12T06:49:19.824Z</time>
      </trkpt>
      <trkpt lat="53.17987" lon="7.20951">
        <ele>45.872189</ele>
        <time>2024-07-12T06:49:22.825Z</time>
      </trkpt>
      <trkpt lat="53.17998" lon="7.20954">
        <ele>45.836496</ele>
        <time>2024-07-12T06:49:25.826Z</time>
      </trkpt>
      <trkpt lat="53.18006" lon="7.20965">
        <ele>45.802722</ele>
        <time>2024-07-12T06:49:28.841Z</time>
      </trkpt>
      <trkpt lat="53.18018" lon="7.20974">
        <ele>45.764217</ele>
        <time>2024-07-12T06:49:31.826Z</time>
      </trkpt>
      <trkpt lat="53.1803" lon="7.20982">
        <ele>45.724435</ele>
        <time>2024-07-12T06:49:34.826Z</time>
      </trkpt>
      <trkpt lat="53.18041" lon="7.2099">
        <ele>45.686086</ele>
        <time>2024-07-12T06:49:37.824Z</time>
      </trkpt>
      <trkpt lat="53.18052" lon="7.21">
        <ele>45.646648</ele>
        <time>2024-07-12T06:49:40.844Z</time>
      </trkpt>
      <trkpt lat="53.18063" lon="7.21012">
        <ele>45.606554</ele>
        <time>2024-07-12T06:49:43.837Z</time>
      </trkpt>
      <trkpt lat="53.18073" lon="7.21024">
        <ele>45.567077</ele>
        <time>2024-07-12T06:49:46.855Z</time>
      </trkpt>
      <trkpt lat="53.18082" lon="7.21038">
        <ele>45.456576</ele>
        <time>2024-07-12T06:49:49.841Z</time>
      </trkpt>
      <trkpt lat="53.18092" lon="7.21054">
        <ele>45.329573</ele>
        <time>2024-07-12T06:49:52.851Z</time>
      </trkpt>
      <trkpt lat="53.18101" lon="7.21069">
        <ele>45.21172</ele>
        <time>2024-07-12T06:49:55.867Z</time>
      </trkpt>
      <trkpt lat="53.18109" lon="7.21085">
        <ele>45.091545</ele>
        <time>2024-07-12T06:49:58.834Z</time>
      </trkpt>
      <trkpt lat="53.18116" lon="7.21102">
        <ele>44.973532</ele>
        <time>2024-07-12T06:50:01.836Z</time>
      </trkpt>
      <trkpt lat="53.18123" lon="7.2112">
        <ele>44.852141</ele>
        <time>2024-07-12T06:50:04.848Z</time>
      </trkpt>
      <trkpt lat="53.18131" lon="7.21138">
        <ele>44.729445</ele>
        <time>2024-07-12T06:50:07.815Z</time>
      </trkpt>
      <trkpt lat="53.18136" lon="7.2115">
        <ele>44.644909</ele>
        <time>2024-07-12T06:50:09.855Z</time>
      </trkpt>
      <trkpt lat="53.18142" lon="7.21171">
        <ele>44.519102</ele>
        <time>2024-07-12T06:50:12.843Z</time>
      </trkpt>
      <trkpt lat="53.18147" lon="7.21191">
        <ele>44.39242</ele>
        <time>2024-07-12T06:50:15.856Z</time>
      </trkpt>
      <trkpt lat="53.18153" lon="7.21211">
        <ele>44.269354</ele>
        <time>2024-07-12T06:50:18.840Z</time>
      </trkpt>
      <trkpt lat="53.18158" lon="7.21231">
        <ele>44.14476</ele>
        <time>2024-07-12T06:50:21.833Z</time>
      </trkpt>
      <trkpt lat="53.18163" lon="7.2125">
        <ele>44.029501</ele>
        <time>2024-07-12T06:50:24.847Z</time>
      </trkpt>
      <trkpt lat="53.18169" lon="7.21268">
        <ele>43.913329</ele>
        <time>2024-07-12T06:50:27.828Z</time>
      </trkpt>
      <trkpt lat="53.18174" lon="7.21288">
        <ele>43.888806</ele>
        <time>2024-07-12T06:50:30.817Z</time>
      </trkpt>
      <trkpt lat="53.1818" lon="7.21308">
        <ele>43.904871</ele>
        <time>2024-07-12T06:50:33.825Z</time>
      </trkpt>
      <trkpt lat="53.18188" lon="7.21327">
        <ele>43.921608</ele>
        <time>2024-07-12T06:50:36.842Z</time>
      </trkpt>
      <trkpt lat="53.18196" lon="7.21344">
        <ele>43.937649</ele>
        <time>2024-07-12T06:50:39.857Z</time>
      </trkpt>
      <trkpt lat="53.18205" lon="7.21356">
        <ele>43.951799</ele>
        <time>2024-07-12T06:50:42.830Z</time>
      </trkpt>
      <trkpt lat="53.18217" lon="7.21362">
        <ele>43.966487</ele>
        <time>2024-07-12T06:50:45.832Z</time>
      </trkpt>
      <trkpt lat="53.18227" lon="7.21365">
        <ele>43.978487</ele>
        <time>2024-07-12T06:50:48.857Z</time>
      </trkpt>
      <trkpt lat="53.18235" lon="7.21377">
        <ele>43.991481</ele>
        <time>2024-07-12T06:50:52.840Z</time>
      </trkpt>
      <trkpt lat="53.18237" lon="7.21395">
        <ele>44.005006</ele>
        <time>2024-07-12T06:50:57.839Z</time>
      </trkpt>
      <trkpt lat="53.18239" lon="7.21412">
        <ele>44.017569</ele>
        <time>2024-07-12T06:51:01.834Z</time>
      </trkpt>
      <trkpt lat="53.18241" lon="7.21427">
        <ele>44.028714</ele>
        <time>2024-07-12T06:51:04.837Z</time>
      </trkpt>
      <trkpt lat="53.18245" lon="7.21443">
        <ele>44.041734</ele>
        <time>2024-07-12T06:51:07.854Z</time>
      </trkpt>
      <trkpt lat="53.18251" lon="7.21459">
        <ele>44.054752</ele>
        <time>2024-07-12T06:51:10.832Z</time>
      </trkpt>
      <trkpt lat="53.18256" lon="7.21475">
        <ele>44.068382</ele>
        <time>2024-07-12T06:51:13.842Z</time>
      </trkpt>
      <trkpt lat="53.18263" lon="7.21489">
        <ele>44.081689</ele>
        <time>2024-07-12T06:51:16.853Z</time>
      </trkpt>
      <trkpt lat="53.18271" lon="7.21504">
        <ele>44.095892</ele>
        <time>2024-07-12T06:51:19.841Z</time>
      </trkpt>
      <trkpt lat="53.18278" lon="7.21519">
        <ele>44.067511</ele>
        <time>2024-07-12T06:51:22.840Z</time>
      </trkpt>
      <trkpt lat="53.18284" lon="7.21534">
        <ele>44.03846</ele>
        <time>2024-07-12T06:51:25.868Z</time>
      </trkpt>
      <trkpt lat="53.1829" lon="7.21548">
        <ele>44.010571</ele>
        <time>2024-07-12T06:51:28.834Z</time>
      </trkpt>
      <trkpt lat="53.18296" lon="7.21563">
        <ele>43.981834</ele>
        <time>2024-07-12T06:51:31.862Z</time>
      </trkpt>
      <trkpt lat="53.18303" lon="7.21577">
        <ele>43.952877</ele>
        <time>2024-07-12T06:51:34.856Z</time>
      </trkpt>
      <trkpt lat="53.1831" lon="7.21591">
        <ele>43.923939</ele>
        <time>2024-07-12T06:51:37.853Z</time>
      </trkpt>
      <trkpt lat="53.18317" lon="7.21606">
        <ele>43.894253</ele>
        <time>2024-07-12T06:51:40.845Z</time>
      </trkpt>
      <trkpt lat="53.18324" lon="7.2162">
        <ele>43.865462</ele>
        <time>2024-07-12T06:51:43.855Z</time>
      </trkpt>
      <trkpt lat="53.1833" lon="7.21634">
        <ele>43.837291</ele>
        <time>2024-07-12T06:51:46.847Z</time>
      </trkpt>
      <trkpt lat="53.18337" lon="7.21649">
        <ele>43.808144</ele>
        <time>2024-07-12T06:51:49.826Z</time>
      </trkpt>
      <trkpt lat="53.18344" lon="7.21662">
        <ele>43.780084</ele>
        <time>2024-07-12T06:51:52.846Z</time>
      </trkpt>
      <trkpt lat="53.1835" lon="7.21674">
        <ele>43.755264</ele>
        <time>2024-07-12T06:51:55.814Z</time>
      </trkpt>
      <trkpt lat="53.18357" lon="7.21687">
        <ele>43.727203</ele>
        <time>2024-07-12T06:51:59.839Z</time>
      </trkpt>
      <trkpt lat="53.18364" lon="7.21701">
        <ele>43.700679</ele>
        <time>2024-07-12T06:52:04.836Z</time>
      </trkpt>
      <trkpt lat="53.1837" lon="7.21713">
        <ele>43.674853</ele>
        <time>2024-07-12T06:52:08.837Z</time>
      </trkpt>
      <trkpt lat="53.18375" lon="7.21728">
        <ele>43.647312</ele>
        <time>2024-07-12T06:52:12.847Z</time>
      </trkpt>
      <trkpt lat="53.18381" lon="7.21742">
        <ele>43.622635</ele>
        <time>2024-07-12T06:52:15.840Z</time>
      </trkpt>
      <trkpt lat="53.18389" lon="7.21756">
        <ele>43.642851</ele>
        <time>2024-07-12T06:52:18.842Z</time>
      </trkpt>
      <trkpt lat="53.18398" lon="7.2177">
        <ele>43.665058</ele>
        <time>2024-07-12T06:52:21.832Z</time>
      </trkpt>
      <trkpt lat="53.18405" lon="7.21785">
        <ele>43.687013</ele>
        <time>2024-07-12T06:52:24.822Z</time>
      </trkpt>
      <trkpt lat="53.18414" lon="7.21795">
        <ele>43.70588</ele>
        <time>2024-07-12T06:52:27.843Z</time>
      </trkpt>
      <trkpt lat="53.18425" lon="7.21799">
        <ele>43.726174</ele>
        <time>2024-07-12T06:52:31.836Z</time>
      </trkpt>
      <trkpt lat="53.18434" lon="7.21791">
        <ele>43.745029</ele>
        <time>2024-07-12T06:52:36.840Z</time>
      </trkpt>
      <trkpt lat="53.18443" lon="7.21783">
        <ele>43.763632</ele>
        <time>2024-07-12T06:52:40.847Z</time>
      </trkpt>
      <trkpt lat="53.18449" lon="7.21771">
        <ele>43.780193</ele>
        <time>2024-07-12T06:52:43.846Z</time>
      </trkpt>
      <trkpt lat="53.18454" lon="7.21758">
        <ele>43.796978</ele>
        <time>2024-07-12T06:52:46.851Z</time>
      </trkpt>
      <trkpt lat="53.18461" lon="7.21744">
        <ele>43.816586</ele>
        <time>2024-07-12T06:52:50.842Z</time>
      </trkpt>
      <trkpt lat="53.18468" lon="7.21733">
        <ele>43.834236</ele>
        <time>2024-07-12T06:52:54.832Z</time>
      </trkpt>
      <trkpt lat="53.18478" lon="7.2174">
        <ele>43.853285</ele>
        <time>2024-07-12T06:52:59.831Z</time>
      </trkpt>
      <trkpt lat="53.18486" lon="7.21749">
        <ele>43.871183</ele>
        <time>2024-07-12T06:53:03.858Z</time>
      </trkpt>
      <trkpt lat="53.18496" lon="7.21755">
        <ele>43.89137</ele>
        <time>2024-07-12T06:53:07.827Z</time>
      </trkpt>
      <trkpt lat="53.18509" lon="7.21753">
        <ele>43.915234</ele>
        <time>2024-07-12T06:53:10.866Z</time>
      </trkpt>
      <trkpt lat="53.18523" lon="7.2175">
        <ele>43.939373</ele>
        <time>2024-07-12T06:53:13.863Z</time>
      </trkpt>
      <trkpt lat="53.18535" lon="7.21749">
        <ele>43.906621</ele>
        <time>2024-07-12T06:53:16.857Z</time>
      </trkpt>
      <trkpt lat="53.18548" lon="7.21746">
        <ele>43.837809</ele>
        <time>2024-07-12T06:53:19.851Z</time>
      </trkpt>
      <trkpt lat="53.18561" lon="7.21744">
        <ele>43.769695</ele>
        <time>2024-07-12T06:53:22.860Z</time>
      </trkpt>
      <trkpt lat="53.18571" lon="7.21743">
        <ele>43.714053</ele>
        <time>2024-07-12T06:53:25.823Z</time>
      </trkpt>
      <trkpt lat="53.18583" lon="7.21741">
        <ele>43.64972</ele>
        <time>2024-07-12T06:53:28.844Z</time>
      </trkpt>
      <trkpt lat="53.18594" lon="7.21739">
        <ele>43.589466</ele>
        <time>2024-07-12T06:53:31.853Z</time>
      </trkpt>
      <trkpt lat="53.18606" lon="7.21737">
        <ele>43.524147</ele>
        <time>2024-07-12T06:53:34.849Z</time>
      </trkpt>
      <trkpt lat="53.18618" lon="7.21735">
        <ele>43.459084</ele>
        <time>2024-07-12T06:53:37.859Z</time>
      </trkpt>
      <trkpt lat="53.18631" lon="7.21733">
        <ele>43.394094</ele>
        <time>2024-07-12T06:53:40.839Z</time>
      </trkpt>
      <trkpt lat="53.18642" lon="7.21731">
        <ele>43.330853</ele>
        <time>2024-07-12T06:53:43.843Z</time>
      </trkpt>
      <trkpt lat="53.18654" lon="7.21729">
        <ele>43.268516</ele>
        <time>2024-07-12T06:53:46.844Z</time>
      </trkpt>
      <trkpt lat="53.18667" lon="7.21728">
        <ele>43.200576</ele>
        <time>2024-07-12T06:53:49.860Z</time>
      </trkpt>
      <trkpt lat="53.18679" lon="7.21726">
        <ele>43.133169</ele>
        <time>2024-07-12T06:53:52.858Z</time>
      </trkpt>
      <trkpt lat="53.18692" lon="7.21724">
        <ele>43.064993</ele>
        <time>2024-07-12T06:53:55.831Z</time>
      </trkpt>
      <trkpt lat="53.18704" lon="7.21722">
        <ele>42.999597</ele>
        <time>2024-07-12T06:53:58.829Z</time>
      </trkpt>
      <trkpt lat="53.18716" lon="7.21721">
        <ele>43.113668</ele>
        <time>2024-07-12T06:54:01.848Z</time>
      </trkpt>
      <trkpt lat="53.18727" lon="7.21719">
        <ele>43.253274</ele>
        <time>2024-07-12T06:54:04.852Z</time>
      </trkpt>
      <trkpt lat="53.1874" lon="7.21718">
        <ele>43.412096</ele>
        <time>2024-07-12T06:54:07.854Z</time>
      </trkpt>
      <trkpt lat="53.18751" lon="7.21717">
        <ele>43.555288</ele>
        <time>2024-07-12T06:54:10.842Z</time>
      </trkpt>
      <trkpt lat="53.18761" lon="7.21716">
        <ele>43.686929</ele>
        <time>2024-07-12T06:54:13.856Z</time>
      </trkpt>
      <trkpt lat="53.18773" lon="7.21713">
        <ele>43.835026</ele>
        <time>2024-07-12T06:54:17.833Z</time>
      </trkpt>
      <trkpt lat="53.18782" lon="7.21713">
        <ele>43.951257</ele>
        <time>2024-07-12T06:54:22.860Z</time>
      </trkpt>
      <trkpt lat="53.18791" lon="7.2171">
        <ele>44.070512</ele>
        <time>2024-07-12T06:54:43.857Z</time>
      </trkpt>
      <trkpt lat="53.188" lon="7.21709">
        <ele>44.185535</ele>
        <time>2024-07-12T06:54:49.827Z</time>
      </trkpt>
      <trkpt lat="53.18809" lon="7.21713">
        <ele>44.310002</ele>
        <time>2024-07-12T06:55:05.826Z</time>
      </trkpt>
      <trkpt lat="53.18811" lon="7.21732">
        <ele>44.454366</ele>
        <time>2024-07-12T06:55:10.854Z</time>
      </trkpt>
      <trkpt lat="53.18813" lon="7.2175">
        <ele>44.59248</ele>
        <time>2024-07-12T06:55:14.850Z</time>
      </trkpt>
      <trkpt lat="53.18815" lon="7.21766">
        <ele>44.716064</ele>
        <time>2024-07-12T06:55:18.862Z</time>
      </trkpt>
      <trkpt lat="53.18821" lon="7.21779">
        <ele>44.848201</ele>
        <time>2024-07-12T06:55:26.848Z</time>
      </trkpt>
      <trkpt lat="53.18823" lon="7.21796">
        <ele>44.9807</ele>
        <time>2024-07-12T06:55:31.837Z</time>
      </trkpt>
      <trkpt lat="53.18824" lon="7.21811">
        <ele>45.097818</ele>
        <time>2024-07-12T06:55:34.851Z</time>
      </trkpt>
      <trkpt lat="53.18825" lon="7.21829">
        <ele>45.233404</ele>
        <time>2024-07-12T06:55:37.848Z</time>
      </trkpt>
      <trkpt lat="53.18825" lon="7.21848">
        <ele>45.272296</ele>
        <time>2024-07-12T06:55:40.856Z</time>
      </trkpt>
      <trkpt lat="53.18826" lon="7.21867">
        <ele>45.253509</ele>
        <time>2024-07-12T06:55:43.857Z</time>
      </trkpt>
      <trkpt lat="53.18827" lon="7.21886">
        <ele>45.234487</ele>
        <time>2024-07-12T06:55:46.873Z</time>
      </trkpt>
      <trkpt lat="53.18828" lon="7.21906">
        <ele>45.215437</ele>
        <time>2024-07-12T06:55:49.843Z</time>
      </trkpt>
      <trkpt lat="53.18829" lon="7.21925">
        <ele>45.196512</ele>
        <time>2024-07-12T06:55:52.863Z</time>
      </trkpt>
      <trkpt lat="53.1883" lon="7.21944">
        <ele>45.177964</ele>
        <time>2024-07-12T06:55:55.861Z</time>
      </trkpt>
      <trkpt lat="53.18831" lon="7.21963">
        <ele>45.158916</ele>
        <time>2024-07-12T06:55:58.857Z</time>
      </trkpt>
      <trkpt lat="53.18832" lon="7.21983">
        <ele>45.139321</ele>
        <time>2024-07-12T06:56:01.861Z</time>
      </trkpt>
      <trkpt lat="53.18833" lon="7.22003">
        <ele>45.119963</ele>
        <time>2024-07-12T06:56:04.855Z</time>
      </trkpt>
      <trkpt lat="53.18834" lon="7.22023">
        <ele>45.100051</ele>
        <time>2024-07-12T06:56:07.855Z</time>
      </trkpt>
      <trkpt lat="53.18836" lon="7.22042">
        <ele>45.081198</ele>
        <time>2024-07-12T06:56:10.851Z</time>
      </trkpt>
      <trkpt lat="53.18836" lon="7.22062">
        <ele>45.062519</ele>
        <time>2024-07-12T06:56:13.837Z</time>
      </trkpt>
      <trkpt lat="53.18837" lon="7.22081">
        <ele>45.043732</ele>
        <time>2024-07-12T06:56:16.859Z</time>
      </trkpt>
      <trkpt lat="53.18837" lon="7.221">
        <ele>45.024553</ele>
        <time>2024-07-12T06:56:19.848Z</time>
      </trkpt>
      <trkpt lat="53.18838" lon="7.22118">
        <ele>45.006927</ele>
        <time>2024-07-12T06:56:22.855Z</time>
      </trkpt>
      <trkpt lat="53.1884" lon="7.22136">
        <ele>44.99418</ele>
        <time>2024-07-12T06:56:25.844Z</time>
      </trkpt>
      <trkpt lat="53.18841" lon="7.22155">
        <ele>45.031821</ele>
        <time>2024-07-12T06:56:28.852Z</time>
      </trkpt>
      <trkpt lat="53.18841" lon="7.22175">
        <ele>45.072886</ele>
        <time>2024-07-12T06:56:31.860Z</time>
      </trkpt>
      <trkpt lat="53.18842" lon="7.22195">
        <ele>45.113729</ele>
        <time>2024-07-12T06:56:34.843Z</time>
      </trkpt>
      <trkpt lat="53.18843" lon="7.22216">
        <ele>45.156654</ele>
        <time>2024-07-12T06:56:37.839Z</time>
      </trkpt>
      <trkpt lat="53.18845" lon="7.22237">
        <ele>45.198493</ele>
        <time>2024-07-12T06:56:40.844Z</time>
      </trkpt>
      <trkpt lat="53.18846" lon="7.22257">
        <ele>45.24001</ele>
        <time>2024-07-12T06:56:43.863Z</time>
      </trkpt>
      <trkpt lat="53.18848" lon="7.22278">
        <ele>45.28219</ele>
        <time>2024-07-12T06:56:46.851Z</time>
      </trkpt>
      <trkpt lat="53.18849" lon="7.22298">
        <ele>45.323198</ele>
        <time>2024-07-12T06:56:49.846Z</time>
      </trkpt>
      <trkpt lat="53.18849" lon="7.22319">
        <ele>45.364627</ele>
        <time>2024-07-12T06:56:52.851Z</time>
      </trkpt>
      <trkpt lat="53.18851" lon="7.22338">
        <ele>45.404156</ele>
        <time>2024-07-12T06:56:55.834Z</time>
      </trkpt>
      <trkpt lat="53.18852" lon="7.22358">
        <ele>45.444729</ele>
        <time>2024-07-12T06:56:58.868Z</time>
      </trkpt>
      <trkpt lat="53.18853" lon="7.22379">
        <ele>45.486707</ele>
        <time>2024-07-12T06:57:01.852Z</time>
      </trkpt>
      <trkpt lat="53.18855" lon="7.22399">
        <ele>45.527247</ele>
        <time>2024-07-12T06:57:04.852Z</time>
      </trkpt>
      <trkpt lat="53.18855" lon="7.22419">
        <ele>45.568273</ele>
        <time>2024-07-12T06:57:07.843Z</time>
      </trkpt>
      <trkpt lat="53.18856" lon="7.22438">
        <ele>45.551445</ele>
        <time>2024-07-12T06:57:10.850Z</time>
      </trkpt>
      <trkpt lat="53.18857" lon="7.22458">
        <ele>45.381396</ele>
        <time>2024-07-12T06:57:13.853Z</time>
      </trkpt>
      <trkpt lat="53.18858" lon="7.22477">
        <ele>45.211306</ele>
        <time>2024-07-12T06:57:16.851Z</time>
      </trkpt>
      <trkpt lat="53.18859" lon="7.22498">
        <ele>45.0307</ele>
        <time>2024-07-12T06:57:19.852Z</time>
      </trkpt>
      <trkpt lat="53.1886" lon="7.22518">
        <ele>44.858184</ele>
        <time>2024-07-12T06:57:22.858Z</time>
      </trkpt>
      <trkpt lat="53.18861" lon="7.22538">
        <ele>44.682603</ele>
        <time>2024-07-12T06:57:25.847Z</time>
      </trkpt>
      <trkpt lat="53.18862" lon="7.22556">
        <ele>44.521523</ele>
        <time>2024-07-12T06:57:28.860Z</time>
      </trkpt>
      <trkpt lat="53.18864" lon="7.22577">
        <ele>44.338761</ele>
        <time>2024-07-12T06:57:31.830Z</time>
      </trkpt>
      <trkpt lat="53.18865" lon="7.22598">
        <ele>44.157297</ele>
        <time>2024-07-12T06:57:34.853Z</time>
      </trkpt>
      <trkpt lat="53.18866" lon="7.22617">
        <ele>43.989533</ele>
        <time>2024-07-12T06:57:37.859Z</time>
      </trkpt>
      <trkpt lat="53.18867" lon="7.22638">
        <ele>43.807639</ele>
        <time>2024-07-12T06:57:40.860Z</time>
      </trkpt>
      <trkpt lat="53.18868" lon="7.22657">
        <ele>43.641492</ele>
        <time>2024-07-12T06:57:43.846Z</time>
      </trkpt>
      <trkpt lat="53.1887" lon="7.22675">
        <ele>43.482977</ele>
        <time>2024-07-12T06:57:46.850Z</time>
      </trkpt>
      <trkpt lat="53.1887" lon="7.2269">
        <ele>43.352181</ele>
        <time>2024-07-12T06:57:49.847Z</time>
      </trkpt>
      <trkpt lat="53.1887" lon="7.22706">
        <ele>43.211032</ele>
        <time>2024-07-12T06:57:53.850Z</time>
      </trkpt>
      <trkpt lat="53.18871" lon="7.22688">
        <ele>43.054065</ele>
        <time>2024-07-12T06:58:46.854Z</time>
      </trkpt>
      <trkpt lat="53.1887" lon="7.22672">
        <ele>42.90108</ele>
        <time>2024-07-12T06:58:50.871Z</time>
      </trkpt>
      <trkpt lat="53.18868" lon="7.22655">
        <ele>42.738241</ele>
        <time>2024-07-12T06:58:55.852Z</time>
      </trkpt>
      <trkpt lat="53.18862" lon="7.22668">
        <ele>42.566839</ele>
        <time>2024-07-12T06:59:09.841Z</time>
      </trkpt>
      <trkpt lat="53.18861" lon="7.22689">
        <ele>42.361006</ele>
        <time>2024-07-12T06:59:13.854Z</time>
      </trkpt>
      <trkpt lat="53.18856" lon="7.22705">
        <ele>42.184682</ele>
        <time>2024-07-12T06:59:16.863Z</time>
      </trkpt>
      <trkpt lat="53.18851" lon="7.2272">
        <ele>42.004975</ele>
        <time>2024-07-12T06:59:19.848Z</time>
      </trkpt>
      <trkpt lat="53.18844" lon="7.22735">
        <ele>41.817876</ele>
        <time>2024-07-12T06:59:22.860Z</time>
      </trkpt>
      <trkpt lat="53.18835" lon="7.22745">
        <ele>41.639494</ele>
        <time>2024-07-12T06:59:25.847Z</time>
      </trkpt>
      <trkpt lat="53.18824" lon="7.22755">
        <ele>41.434824</ele>
        <time>2024-07-12T06:59:28.853Z</time>
      </trkpt>
      <trkpt lat="53.18812" lon="7.2276">
        <ele>41.233494</ele>
        <time>2024-07-12T06:59:31.857Z</time>
      </trkpt>
      <trkpt lat="53.18801" lon="7.22762">
        <ele>41.034464</ele>
        <time>2024-07-12T06:59:34.868Z</time>
      </trkpt>
      <trkpt lat="53.18789" lon="7.22763">
        <ele>40.839237</ele>
        <time>2024-07-12T06:59:37.849Z</time>
      </trkpt>
      <trkpt lat="53.18776" lon="7.22764">
        <ele>40.629057</ele>
        <time>2024-07-12T06:59:40.852Z</time>
      </trkpt>
      <trkpt lat="53.18764" lon="7.22767">
        <ele>40.416371</ele>
        <time>2024-07-12T06:59:43.811Z</time>
      </trkpt>
      <trkpt lat="53.18751" lon="7.22769">
        <ele>40.203685</ele>
        <time>2024-07-12T06:59:46.836Z</time>
      </trkpt>
      <trkpt lat="53.18738" lon="7.22771">
        <ele>39.991572</ele>
        <time>2024-07-12T06:59:49.862Z</time>
      </trkpt>
      <trkpt lat="53.18724" lon="7.22773">
        <ele>40.148398</ele>
        <time>2024-07-12T06:59:52.844Z</time>
      </trkpt>
      <trkpt lat="53.18715" lon="7.22774">
        <ele>40.253885</ele>
        <time>2024-07-12T06:59:54.841Z</time>
      </trkpt>
      <trkpt lat="53.18706" lon="7.22776">
        <ele>40.362213</ele>
        <time>2024-07-12T06:59:56.845Z</time>
      </trkpt>
      <trkpt lat="53.18696" lon="7.22778">
        <ele>40.469231</ele>
        <time>2024-07-12T06:59:58.853Z</time>
      </trkpt>
      <trkpt lat="53.18687" lon="7.22779">
        <ele>40.574718</ele>
        <time>2024-07-12T07:00:00.847Z</time>
      </trkpt>
      <trkpt lat="53.18674" lon="7.22781">
        <ele>40.730042</ele>
        <time>2024-07-12T07:00:03.858Z</time>
      </trkpt>
      <trkpt lat="53.18665" lon="7.22783">
        <ele>40.838456</ele>
        <time>2024-07-12T07:00:05.848Z</time>
      </trkpt>
      <trkpt lat="53.18656" lon="7.22784">
        <ele>40.942843</ele>
        <time>2024-07-12T07:00:07.854Z</time>
      </trkpt>
      <trkpt lat="53.18647" lon="7.22785">
        <ele>41.048201</ele>
        <time>2024-07-12T07:00:09.860Z</time>
      </trkpt>
      <trkpt lat="53.18637" lon="7.22787">
        <ele>41.158908</ele>
        <time>2024-07-12T07:00:11.846Z</time>
      </trkpt>
      <trkpt lat="53.18624" lon="7.22788">
        <ele>41.31313</ele>
        <time>2024-07-12T07:00:14.830Z</time>
      </trkpt>
      <trkpt lat="53.18611" lon="7.22791">
        <ele>41.464136</ele>
        <time>2024-07-12T07:00:17.858Z</time>
      </trkpt>
      <trkpt lat="53.18602" lon="7.22792">
        <ele>41.56993</ele>
        <time>2024-07-12T07:00:19.829Z</time>
      </trkpt>
      <trkpt lat="53.18588" lon="7.22793">
        <ele>41.723926</ele>
        <time>2024-07-12T07:00:22.849Z</time>
      </trkpt>
      <trkpt lat="53.18579" lon="7.22795">
        <ele>41.833102</ele>
        <time>2024-07-12T07:00:24.844Z</time>
      </trkpt>
      <trkpt lat="53.18565" lon="7.22798">
        <ele>41.991451</ele>
        <time>2024-07-12T07:00:27.860Z</time>
      </trkpt>
      <trkpt lat="53.18556" lon="7.22799">
        <ele>42.056671</ele>
        <time>2024-07-12T07:00:29.833Z</time>
      </trkpt>
      <trkpt lat="53.18547" lon="7.22802">
        <ele>42.025013</ele>
        <time>2024-07-12T07:00:31.842Z</time>
      </trkpt>
      <trkpt lat="53.18533" lon="7.22803">
        <ele>41.978016</ele>
        <time>2024-07-12T07:00:34.844Z</time>
      </trkpt>
      <trkpt lat="53.18524" lon="7.22805">
        <ele>41.944214</ele>
        <time>2024-07-12T07:00:36.845Z</time>
      </trkpt>
      <trkpt lat="53.18515" lon="7.22806">
        <ele>41.912536</ele>
        <time>2024-07-12T07:00:38.847Z</time>
      </trkpt>
      <trkpt lat="53.18505" lon="7.22807">
        <ele>41.879442</ele>
        <time>2024-07-12T07:00:40.832Z</time>
      </trkpt>
      <trkpt lat="53.18496" lon="7.22808">
        <ele>41.846621</ele>
        <time>2024-07-12T07:00:42.835Z</time>
      </trkpt>
      <trkpt lat="53.18486" lon="7.22811">
        <ele>41.811872</ele>
        <time>2024-07-12T07:00:44.827Z</time>
      </trkpt>
      <trkpt lat="53.18476" lon="7.22812">
        <ele>41.778808</ele>
        <time>2024-07-12T07:00:46.854Z</time>
      </trkpt>
      <trkpt lat="53.18467" lon="7.22813">
        <ele>41.744624</ele>
        <time>2024-07-12T07:00:48.853Z</time>
      </trkpt>
      <trkpt lat="53.18457" lon="7.22815">
        <ele>41.711413</ele>
        <time>2024-07-12T07:00:50.847Z</time>
      </trkpt>
      <trkpt lat="53.18448" lon="7.22816">
        <ele>41.679748</ele>
        <time>2024-07-12T07:00:52.844Z</time>
      </trkpt>
      <trkpt lat="53.18439" lon="7.22817">
        <ele>41.647313</ele>
        <time>2024-07-12T07:00:54.844Z</time>
      </trkpt>
      <trkpt lat="53.18429" lon="7.22819">
        <ele>41.613088</ele>
        <time>2024-07-12T07:00:56.842Z</time>
      </trkpt>
      <trkpt lat="53.18419" lon="7.22821">
        <ele>41.578904</ele>
        <time>2024-07-12T07:00:58.855Z</time>
      </trkpt>
      <trkpt lat="53.18409" lon="7.22822">
        <ele>41.545371</ele>
        <time>2024-07-12T07:01:00.855Z</time>
      </trkpt>
      <trkpt lat="53.18399" lon="7.22824">
        <ele>41.509721</ele>
        <time>2024-07-12T07:01:02.837Z</time>
      </trkpt>
      <trkpt lat="53.18389" lon="7.22826">
        <ele>41.474093</ele>
        <time>2024-07-12T07:01:04.841Z</time>
      </trkpt>
      <trkpt lat="53.18379" lon="7.22828">
        <ele>41.4482</ele>
        <time>2024-07-12T07:01:06.857Z</time>
      </trkpt>
      <trkpt lat="53.18369" lon="7.22829">
        <ele>41.531242</ele>
        <time>2024-07-12T07:01:08.862Z</time>
      </trkpt>
      <trkpt lat="53.18359" lon="7.2283">
        <ele>41.614749</ele>
        <time>2024-07-12T07:01:10.859Z</time>
      </trkpt>
      <trkpt lat="53.18349" lon="7.22832">
        <ele>41.693577</ele>
        <time>2024-07-12T07:01:12.848Z</time>
      </trkpt>
      <trkpt lat="53.18339" lon="7.22833">
        <ele>41.774805</ele>
        <time>2024-07-12T07:01:14.847Z</time>
      </trkpt>
      <trkpt lat="53.18329" lon="7.22835">
        <ele>41.859581</ele>
        <time>2024-07-12T07:01:16.842Z</time>
      </trkpt>
      <trkpt lat="53.18319" lon="7.22837">
        <ele>41.938456</ele>
        <time>2024-07-12T07:01:18.862Z</time>
      </trkpt>
      <trkpt lat="53.18309" lon="7.22838">
        <ele>42.023028</ele>
        <time>2024-07-12T07:01:20.850Z</time>
      </trkpt>
      <trkpt lat="53.18299" lon="7.2284">
        <ele>42.107697</ele>
        <time>2024-07-12T07:01:22.843Z</time>
      </trkpt>
      <trkpt lat="53.18289" lon="7.22842">
        <ele>42.190159</ele>
        <time>2024-07-12T07:01:24.856Z</time>
      </trkpt>
      <trkpt lat="53.18279" lon="7.22844">
        <ele>42.274731</ele>
        <time>2024-07-12T07:01:26.854Z</time>
      </trkpt>
      <trkpt lat="53.18269" lon="7.22845">
        <ele>42.355882</ele>
        <time>2024-07-12T07:01:28.861Z</time>
      </trkpt>
      <trkpt lat="53.18259" lon="7.22847">
        <ele>42.437247</ele>
        <time>2024-07-12T07:01:30.852Z</time>
      </trkpt>
      <trkpt lat="53.18249" lon="7.22849">
        <ele>42.516986</ele>
        <time>2024-07-12T07:01:32.843Z</time>
      </trkpt>
      <trkpt lat="53.1824" lon="7.2285">
        <ele>42.593962</ele>
        <time>2024-07-12T07:01:34.848Z</time>
      </trkpt>
      <trkpt lat="53.1823" lon="7.22851">
        <ele>42.671163</ele>
        <time>2024-07-12T07:01:36.845Z</time>
      </trkpt>
      <trkpt lat="53.1822" lon="7.22852">
        <ele>42.753205</ele>
        <time>2024-07-12T07:01:38.853Z</time>
      </trkpt>
      <trkpt lat="53.18211" lon="7.22854">
        <ele>42.832241</ele>
        <time>2024-07-12T07:01:40.842Z</time>
      </trkpt>
      <trkpt lat="53.18202" lon="7.22855">
        <ele>42.906799</ele>
        <time>2024-07-12T07:01:42.852Z</time>
      </trkpt>
      <trkpt lat="53.18192" lon="7.22857">
        <ele>42.960132</ele>
        <time>2024-07-12T07:01:44.857Z</time>
      </trkpt>
      <trkpt lat="53.18183" lon="7.22859">
        <ele>43.011293</ele>
        <time>2024-07-12T07:01:46.846Z</time>
      </trkpt>
      <trkpt lat="53.18174" lon="7.2286">
        <ele>43.067161</ele>
        <time>2024-07-12T07:01:48.849Z</time>
      </trkpt>
      <trkpt lat="53.18165" lon="7.22862">
        <ele>43.118416</ele>
        <time>2024-07-12T07:01:50.865Z</time>
      </trkpt>
      <trkpt lat="53.18154" lon="7.22866">
        <ele>43.181647</ele>
        <time>2024-07-12T07:01:53.848Z</time>
      </trkpt>
      <trkpt lat="53.18145" lon="7.22877">
        <ele>43.241583</ele>
        <time>2024-07-12T07:01:59.845Z</time>
      </trkpt>
      <trkpt lat="53.18143" lon="7.22892">
        <ele>43.293929</ele>
        <time>2024-07-12T07:02:02.842Z</time>
      </trkpt>
      <trkpt lat="53.18146" lon="7.22908">
        <ele>43.351035</ele>
        <time>2024-07-12T07:02:05.828Z</time>
      </trkpt>
      <trkpt lat="53.1815" lon="7.22926">
        <ele>43.4148</ele>
        <time>2024-07-12T07:02:08.854Z</time>
      </trkpt>
      <trkpt lat="53.18155" lon="7.22944">
        <ele>43.481699</ele>
        <time>2024-07-12T07:02:11.840Z</time>
      </trkpt>
      <trkpt lat="53.18158" lon="7.22964">
        <ele>43.550761</ele>
        <time>2024-07-12T07:02:14.851Z</time>
      </trkpt>
      <trkpt lat="53.18162" lon="7.22982">
        <ele>43.617566</ele>
        <time>2024-07-12T07:02:17.847Z</time>
      </trkpt>
      <trkpt lat="53.18167" lon="7.23001">
        <ele>43.684173</ele>
        <time>2024-07-12T07:02:20.854Z</time>
      </trkpt>
      <trkpt lat="53.1817" lon="7.2302">
        <ele>43.753726</ele>
        <time>2024-07-12T07:02:23.863Z</time>
      </trkpt>
      <trkpt lat="53.18171" lon="7.23042">
        <ele>43.827825</ele>
        <time>2024-07-12T07:02:26.844Z</time>
      </trkpt>
      <trkpt lat="53.18174" lon="7.23064">
        <ele>43.903477</ele>
        <time>2024-07-12T07:02:29.850Z</time>
      </trkpt>
      <trkpt lat="53.18177" lon="7.23084">
        <ele>43.974527</ele>
        <time>2024-07-12T07:02:32.852Z</time>
      </trkpt>
      <trkpt lat="53.18178" lon="7.23105">
        <ele>44.047061</ele>
        <time>2024-07-12T07:02:35.855Z</time>
      </trkpt>
      <trkpt lat="53.1818" lon="7.23127">
        <ele>44.122549</ele>
        <time>2024-07-12T07:02:38.863Z</time>
      </trkpt>
      <trkpt lat="53.18182" lon="7.23148">
        <ele>44.196578</ele>
        <time>2024-07-12T07:02:41.853Z</time>
      </trkpt>
      <trkpt lat="53.18184" lon="7.23169">
        <ele>44.270606</ele>
        <time>2024-07-12T07:02:44.844Z</time>
      </trkpt>
      <trkpt lat="53.18186" lon="7.2319">
        <ele>44.345071</ele>
        <time>2024-07-12T07:02:47.847Z</time>
      </trkpt>
      <trkpt lat="53.18188" lon="7.23212">
        <ele>44.423348</ele>
        <time>2024-07-12T07:02:50.855Z</time>
      </trkpt>
      <trkpt lat="53.1819" lon="7.23233">
        <ele>44.495833</ele>
        <time>2024-07-12T07:02:53.850Z</time>
      </trkpt>
      <trkpt lat="53.18191" lon="7.23248">
        <ele>44.548479</ele>
        <time>2024-07-12T07:02:55.841Z</time>
      </trkpt>
      <trkpt lat="53.18193" lon="7.2327">
        <ele>44.625678</ele>
        <time>2024-07-12T07:02:58.857Z</time>
      </trkpt>
      <trkpt lat="53.18195" lon="7.23292">
        <ele>44.70102</ele>
        <time>2024-07-12T07:03:01.855Z</time>
      </trkpt>
      <trkpt lat="53.18198" lon="7.23312">
        <ele>44.773976</ele>
        <time>2024-07-12T07:03:04.843Z</time>
      </trkpt>
      <trkpt lat="53.182" lon="7.23333">
        <ele>44.847661</ele>
        <time>2024-07-12T07:03:07.838Z</time>
      </trkpt>
      <trkpt lat="53.182" lon="7.23349">
        <ele>44.901141</ele>
        <time>2024-07-12T07:03:09.846Z</time>
      </trkpt>
      <trkpt lat="53.18202" lon="7.23369">
        <ele>44.978202</ele>
        <time>2024-07-12T07:03:12.861Z</time>
      </trkpt>
      <trkpt lat="53.18204" lon="7.23388">
        <ele>45.109399</ele>
        <time>2024-07-12T07:03:15.848Z</time>
      </trkpt>
      <trkpt lat="53.18206" lon="7.23407">
        <ele>45.240084</ele>
        <time>2024-07-12T07:03:18.859Z</time>
      </trkpt>
      <trkpt lat="53.18208" lon="7.23427">
        <ele>45.374263</ele>
        <time>2024-07-12T07:03:21.847Z</time>
      </trkpt>
      <trkpt lat="53.1821" lon="7.23447">
        <ele>45.518477</ele>
        <time>2024-07-12T07:03:24.861Z</time>
      </trkpt>
      <trkpt lat="53.18213" lon="7.23468">
        <ele>45.662788</ele>
        <time>2024-07-12T07:03:27.830Z</time>
      </trkpt>
      <trkpt lat="53.18217" lon="7.23488">
        <ele>45.803329</ele>
        <time>2024-07-12T07:03:30.856Z</time>
      </trkpt>
      <trkpt lat="53.18221" lon="7.23508">
        <ele>45.945922</ele>
        <time>2024-07-12T07:03:33.855Z</time>
      </trkpt>
      <trkpt lat="53.18227" lon="7.23528">
        <ele>46.094566</ele>
        <time>2024-07-12T07:03:36.840Z</time>
      </trkpt>
      <trkpt lat="53.18231" lon="7.23548">
        <ele>46.242119</ele>
        <time>2024-07-12T07:03:39.851Z</time>
      </trkpt>
      <trkpt lat="53.18236" lon="7.23569">
        <ele>46.393785</ele>
        <time>2024-07-12T07:03:42.862Z</time>
      </trkpt>
      <trkpt lat="53.18241" lon="7.23589">
        <ele>46.539493</ele>
        <time>2024-07-12T07:03:45.831Z</time>
      </trkpt>
      <trkpt lat="53.18246" lon="7.23609">
        <ele>46.684025</ele>
        <time>2024-07-12T07:03:48.862Z</time>
      </trkpt>
      <trkpt lat="53.18251" lon="7.23628">
        <ele>46.829733</ele>
        <time>2024-07-12T07:03:51.853Z</time>
      </trkpt>
      <trkpt lat="53.18256" lon="7.23648">
        <ele>46.973413</ele>
        <time>2024-07-12T07:03:54.850Z</time>
      </trkpt>
      <trkpt lat="53.18261" lon="7.23669">
        <ele>46.98055</ele>
        <time>2024-07-12T07:03:57.856Z</time>
      </trkpt>
      <trkpt lat="53.18264" lon="7.23683">
        <ele>46.964617</ele>
        <time>2024-07-12T07:03:59.836Z</time>
      </trkpt>
      <trkpt lat="53.18267" lon="7.23698">
        <ele>46.948407</ele>
        <time>2024-07-12T07:04:01.840Z</time>
      </trkpt>
      <trkpt lat="53.18272" lon="7.23718">
        <ele>46.92597</ele>
        <time>2024-07-12T07:04:04.840Z</time>
      </trkpt>
      <trkpt lat="53.18275" lon="7.23731">
        <ele>46.910066</ele>
        <time>2024-07-12T07:04:06.846Z</time>
      </trkpt>
      <trkpt lat="53.1828" lon="7.23751">
        <ele>46.887601</ele>
        <time>2024-07-12T07:04:09.841Z</time>
      </trkpt>
      <trkpt lat="53.18284" lon="7.23771">
        <ele>46.865557</ele>
        <time>2024-07-12T07:04:12.860Z</time>
      </trkpt>
      <trkpt lat="53.1829" lon="7.23791">
        <ele>46.842563</ele>
        <time>2024-07-12T07:04:15.842Z</time>
      </trkpt>
      <trkpt lat="53.18294" lon="7.23812">
        <ele>46.819041</ele>
        <time>2024-07-12T07:04:18.858Z</time>
      </trkpt>
      <trkpt lat="53.18299" lon="7.23831">
        <ele>46.797682</ele>
        <time>2024-07-12T07:04:21.857Z</time>
      </trkpt>
      <trkpt lat="53.18304" lon="7.23851">
        <ele>46.774467</ele>
        <time>2024-07-12T07:04:24.849Z</time>
      </trkpt>
      <trkpt lat="53.18308" lon="7.23872">
        <ele>46.751156</ele>
        <time>2024-07-12T07:04:27.847Z</time>
      </trkpt>
      <trkpt lat="53.18314" lon="7.23892">
        <ele>46.728381</ele>
        <time>2024-07-12T07:04:30.866Z</time>
      </trkpt>
      <trkpt lat="53.18318" lon="7.23912">
        <ele>46.705649</ele>
        <time>2024-07-12T07:04:33.853Z</time>
      </trkpt>
      <trkpt lat="53.18323" lon="7.23932">
        <ele>46.681919</ele>
        <time>2024-07-12T07:04:36.848Z</time>
      </trkpt>
      <trkpt lat="53.18328" lon="7.23952">
        <ele>46.635329</ele>
        <time>2024-07-12T07:04:39.850Z</time>
      </trkpt>
      <trkpt lat="53.18333" lon="7.23972">
        <ele>46.588138</ele>
        <time>2024-07-12T07:04:42.845Z</time>
      </trkpt>
      <trkpt lat="53.18338" lon="7.23992">
        <ele>46.539277</ele>
        <time>2024-07-12T07:04:45.826Z</time>
      </trkpt>
      <trkpt lat="53.18343" lon="7.24013">
        <ele>46.491908</ele>
        <time>2024-07-12T07:04:48.840Z</time>
      </trkpt>
      <trkpt lat="53.18346" lon="7.24027">
        <ele>46.458457</ele>
        <time>2024-07-12T07:04:50.849Z</time>
      </trkpt>
      <trkpt lat="53.18351" lon="7.24048">
        <ele>46.4098</ele>
        <time>2024-07-12T07:04:53.853Z</time>
      </trkpt>
      <trkpt lat="53.18354" lon="7.24062">
        <ele>46.375782</ele>
        <time>2024-07-12T07:04:55.842Z</time>
      </trkpt>
      <trkpt lat="53.18359" lon="7.24083">
        <ele>46.328008</ele>
        <time>2024-07-12T07:04:58.862Z</time>
      </trkpt>
      <trkpt lat="53.18363" lon="7.24102">
        <ele>46.281787</ele>
        <time>2024-07-12T07:05:01.842Z</time>
      </trkpt>
      <trkpt lat="53.18368" lon="7.24123">
        <ele>46.234493</ele>
        <time>2024-07-12T07:05:04.854Z</time>
      </trkpt>
      <trkpt lat="53.18371" lon="7.24137">
        <ele>46.201036</ele>
        <time>2024-07-12T07:05:06.847Z</time>
      </trkpt>
      <trkpt lat="53.18376" lon="7.24158">
        <ele>46.151911</ele>
        <time>2024-07-12T07:05:09.841Z</time>
      </trkpt>
      <trkpt lat="53.1838" lon="7.24172">
        <ele>46.118663</ele>
        <time>2024-07-12T07:05:11.850Z</time>
      </trkpt>
      <trkpt lat="53.18383" lon="7.24186">
        <ele>46.084932</ele>
        <time>2024-07-12T07:05:13.853Z</time>
      </trkpt>
      <trkpt lat="53.18386" lon="7.24201">
        <ele>46.051033</ele>
        <time>2024-07-12T07:05:15.848Z</time>
      </trkpt>
      <trkpt lat="53.1839" lon="7.24223">
        <ele>46.037596</ele>
        <time>2024-07-12T07:05:18.846Z</time>
      </trkpt>
      <trkpt lat="53.18395" lon="7.24243">
        <ele>46.051243</ele>
        <time>2024-07-12T07:05:21.863Z</time>
      </trkpt>
      <trkpt lat="53.18399" lon="7.24264">
        <ele>46.065255</ele>
        <time>2024-07-12T07:05:24.854Z</time>
      </trkpt>
      <trkpt lat="53.18402" lon="7.24278">
        <ele>46.074667</ele>
        <time>2024-07-12T07:05:26.819Z</time>
      </trkpt>
      <trkpt lat="53.18407" lon="7.24299">
        <ele>46.088457</ele>
        <time>2024-07-12T07:05:29.839Z</time>
      </trkpt>
      <trkpt lat="53.18411" lon="7.24313">
        <ele>46.097947</ele>
        <time>2024-07-12T07:05:31.857Z</time>
      </trkpt>
      <trkpt lat="53.18414" lon="7.24327">
        <ele>46.10772</ele>
        <time>2024-07-12T07:05:33.847Z</time>
      </trkpt>
      <trkpt lat="53.18418" lon="7.24342">
        <ele>46.117446</ele>
        <time>2024-07-12T07:05:35.856Z</time>
      </trkpt>
      <trkpt lat="53.18421" lon="7.24356">
        <ele>46.127323</ele>
        <time>2024-07-12T07:05:37.841Z</time>
      </trkpt>
      <trkpt lat="53.18425" lon="7.2437">
        <ele>46.136911</ele>
        <time>2024-07-12T07:05:39.859Z</time>
      </trkpt>
      <trkpt lat="53.18428" lon="7.24385">
        <ele>46.146652</ele>
        <time>2024-07-12T07:05:41.842Z</time>
      </trkpt>
      <trkpt lat="53.18434" lon="7.24405">
        <ele>46.160779</ele>
        <time>2024-07-12T07:05:44.863Z</time>
      </trkpt>
      <trkpt lat="53.18439" lon="7.24425">
        <ele>46.174533</ele>
        <time>2024-07-12T07:05:47.844Z</time>
      </trkpt>
      <trkpt lat="53.18444" lon="7.24446">
        <ele>46.188323</ele>
        <time>2024-07-12T07:05:50.847Z</time>
      </trkpt>
      <trkpt lat="53.18449" lon="7.24466">
        <ele>46.20179</ele>
        <time>2024-07-12T07:05:53.866Z</time>
      </trkpt>
      <trkpt lat="53.18454" lon="7.24485">
        <ele>46.214773</ele>
        <time>2024-07-12T07:05:56.818Z</time>
      </trkpt>
      <trkpt lat="53.18458" lon="7.24503">
        <ele>46.204715</ele>
        <time>2024-07-12T07:05:59.845Z</time>
      </trkpt>
      <trkpt lat="53.18459" lon="7.2452">
        <ele>46.191709</ele>
        <time>2024-07-12T07:06:02.834Z</time>
      </trkpt>
      <trkpt lat="53.18447" lon="7.24542">
        <ele>46.167714</ele>
        <time>2024-07-12T07:06:29.843Z</time>
      </trkpt>
      <trkpt lat="53.18439" lon="7.24553">
        <ele>46.153557</ele>
        <time>2024-07-12T07:06:32.852Z</time>
      </trkpt>
      <trkpt lat="53.18429" lon="7.24565">
        <ele>46.137271</ele>
        <time>2024-07-12T07:06:35.857Z</time>
      </trkpt>
      <trkpt lat="53.18418" lon="7.24577">
        <ele>46.120555</ele>
        <time>2024-07-12T07:06:38.856Z</time>
      </trkpt>
      <trkpt lat="53.1841" lon="7.24584">
        <ele>46.107875</ele>
        <time>2024-07-12T07:06:40.829Z</time>
      </trkpt>
      <trkpt lat="53.18401" lon="7.24594">
        <ele>46.093744</ele>
        <time>2024-07-12T07:06:42.868Z</time>
      </trkpt>
      <trkpt lat="53.18392" lon="7.24602">
        <ele>46.07998</ele>
        <time>2024-07-12T07:06:44.836Z</time>
      </trkpt>
      <trkpt lat="53.18382" lon="7.24611">
        <ele>46.06575</ele>
        <time>2024-07-12T07:06:46.849Z</time>
      </trkpt>
      <trkpt lat="53.18373" lon="7.24621">
        <ele>46.050927</ele>
        <time>2024-07-12T07:06:48.851Z</time>
      </trkpt>
      <trkpt lat="53.18362" lon="7.2463">
        <ele>46.03503</ele>
        <time>2024-07-12T07:06:50.867Z</time>
      </trkpt>
      <trkpt lat="53.18352" lon="7.24639">
        <ele>46.019938</ele>
        <time>2024-07-12T07:06:52.856Z</time>
      </trkpt>
      <trkpt lat="53.18342" lon="7.24649">
        <ele>46.004503</ele>
        <time>2024-07-12T07:06:54.834Z</time>
      </trkpt>
      <trkpt lat="53.18333" lon="7.24658">
        <ele>45.989884</ele>
        <time>2024-07-12T07:06:56.834Z</time>
      </trkpt>
      <trkpt lat="53.18323" lon="7.24667">
        <ele>45.961232</ele>
        <time>2024-07-12T07:06:58.846Z</time>
      </trkpt>
      <trkpt lat="53.18314" lon="7.24677">
        <ele>45.877499</ele>
        <time>2024-07-12T07:07:00.831Z</time>
      </trkpt>
      <trkpt lat="53.18305" lon="7.24686">
        <ele>45.791316</ele>
        <time>2024-07-12T07:07:02.858Z</time>
      </trkpt>
      <trkpt lat="53.18297" lon="7.24696">
        <ele>45.711077</ele>
        <time>2024-07-12T07:07:04.847Z</time>
      </trkpt>
      <trkpt lat="53.18288" lon="7.24703">
        <ele>45.631688</ele>
        <time>2024-07-12T07:07:06.832Z</time>
      </trkpt>
      <trkpt lat="53.18279" lon="7.24712">
        <ele>45.546869</ele>
        <time>2024-07-12T07:07:08.849Z</time>
      </trkpt>
      <trkpt lat="53.1827" lon="7.24721">
        <ele>45.468854</ele>
        <time>2024-07-12T07:07:10.831Z</time>
      </trkpt>
      <trkpt lat="53.18262" lon="7.2473">
        <ele>45.386107</ele>
        <time>2024-07-12T07:07:12.834Z</time>
      </trkpt>
      <trkpt lat="53.18254" lon="7.2474">
        <ele>45.309566</ele>
        <time>2024-07-12T07:07:14.832Z</time>
      </trkpt>
      <trkpt lat="53.18247" lon="7.24752">
        <ele>45.233311</ele>
        <time>2024-07-12T07:07:16.847Z</time>
      </trkpt>
      <trkpt lat="53.18241" lon="7.24765">
        <ele>45.151784</ele>
        <time>2024-07-12T07:07:18.836Z</time>
      </trkpt>
      <trkpt lat="53.18236" lon="7.2478">
        <ele>45.068585</ele>
        <time>2024-07-12T07:07:20.842Z</time>
      </trkpt>
      <trkpt lat="53.1823" lon="7.24795">
        <ele>44.98906</ele>
        <time>2024-07-12T07:07:22.849Z</time>
      </trkpt>
      <trkpt lat="53.18227" lon="7.2481">
        <ele>44.913091</ele>
        <time>2024-07-12T07:07:24.842Z</time>
      </trkpt>
      <trkpt lat="53.18226" lon="7.24826">
        <ele>44.834633</ele>
        <time>2024-07-12T07:07:26.845Z</time>
      </trkpt>
      <trkpt lat="53.18226" lon="7.24842">
        <ele>44.757597</ele>
        <time>2024-07-12T07:07:28.846Z</time>
      </trkpt>
      <trkpt lat="53.18227" lon="7.24859">
        <ele>44.678575</ele>
        <time>2024-07-12T07:07:30.861Z</time>
      </trkpt>
      <trkpt lat="53.18229" lon="7.24875">
        <ele>44.601272</ele>
        <time>2024-07-12T07:07:32.856Z</time>
      </trkpt>
      <trkpt lat="53.18232" lon="7.2489">
        <ele>44.562915</ele>
        <time>2024-07-12T07:07:34.873Z</time>
      </trkpt>
      <trkpt lat="53.18236" lon="7.24905">
        <ele>44.59442</ele>
        <time>2024-07-12T07:07:36.854Z</time>
      </trkpt>
      <trkpt lat="53.1824" lon="7.2492">
        <ele>44.627089</ele>
        <time>2024-07-12T07:07:38.868Z</time>
      </trkpt>
      <trkpt lat="53.18244" lon="7.24935">
        <ele>44.658836</ele>
        <time>2024-07-12T07:07:40.851Z</time>
      </trkpt>
      <trkpt lat="53.18247" lon="7.24949">
        <ele>44.689549</ele>
        <time>2024-07-12T07:07:42.839Z</time>
      </trkpt>
      <trkpt lat="53.18253" lon="7.2497">
        <ele>44.734434</ele>
        <time>2024-07-12T07:07:45.845Z</time>
      </trkpt>
      <trkpt lat="53.18256" lon="7.24985">
        <ele>44.765517</ele>
        <time>2024-07-12T07:07:47.845Z</time>
      </trkpt>
      <trkpt lat="53.18259" lon="7.25">
        <ele>44.797044</ele>
        <time>2024-07-12T07:07:49.832Z</time>
      </trkpt>
      <trkpt lat="53.18262" lon="7.25014">
        <ele>44.8275</ele>
        <time>2024-07-12T07:07:51.839Z</time>
      </trkpt>
      <trkpt lat="53.18265" lon="7.25029">
        <ele>44.858332</ele>
        <time>2024-07-12T07:07:53.833Z</time>
      </trkpt>
      <trkpt lat="53.18269" lon="7.25043">
        <ele>44.889401</ele>
        <time>2024-07-12T07:07:55.863Z</time>
      </trkpt>
      <trkpt lat="53.18272" lon="7.25058">
        <ele>44.920819</ele>
        <time>2024-07-12T07:07:57.850Z</time>
      </trkpt>
      <trkpt lat="53.18276" lon="7.25072">
        <ele>44.951251</ele>
        <time>2024-07-12T07:07:59.836Z</time>
      </trkpt>
      <trkpt lat="53.1828" lon="7.25087">
        <ele>44.983399</ele>
        <time>2024-07-12T07:08:01.832Z</time>
      </trkpt>
      <trkpt lat="53.18283" lon="7.25101">
        <ele>45.013212</ele>
        <time>2024-07-12T07:08:03.841Z</time>
      </trkpt>
      <trkpt lat="53.18288" lon="7.25122">
        <ele>45.056186</ele>
        <time>2024-07-12T07:08:06.867Z</time>
      </trkpt>
      <trkpt lat="53.18292" lon="7.25141">
        <ele>45.097007</ele>
        <time>2024-07-12T07:08:09.838Z</time>
      </trkpt>
      <trkpt lat="53.18296" lon="7.25159">
        <ele>45.135193</ele>
        <time>2024-07-12T07:08:12.839Z</time>
      </trkpt>
      <trkpt lat="53.18301" lon="7.25178">
        <ele>45.128966</ele>
        <time>2024-07-12T07:08:15.840Z</time>
      </trkpt>
      <trkpt lat="53.18305" lon="7.25198">
        <ele>45.107969</ele>
        <time>2024-07-12T07:08:18.879Z</time>
      </trkpt>
      <trkpt lat="53.18309" lon="7.25216">
        <ele>45.08825</ele>
        <time>2024-07-12T07:08:21.854Z</time>
      </trkpt>
      <trkpt lat="53.18313" lon="7.25235">
        <ele>45.067364</ele>
        <time>2024-07-12T07:08:24.841Z</time>
      </trkpt>
      <trkpt lat="53.18317" lon="7.25255">
        <ele>45.046097</ele>
        <time>2024-07-12T07:08:27.832Z</time>
      </trkpt>
      <trkpt lat="53.18321" lon="7.25275">
        <ele>45.02521</ele>
        <time>2024-07-12T07:08:30.842Z</time>
      </trkpt>
      <trkpt lat="53.18327" lon="7.25293">
        <ele>45.004423</ele>
        <time>2024-07-12T07:08:33.841Z</time>
      </trkpt>
      <trkpt lat="53.18331" lon="7.25311">
        <ele>44.984151</ele>
        <time>2024-07-12T07:08:36.843Z</time>
      </trkpt>
      <trkpt lat="53.18336" lon="7.25329">
        <ele>44.964082</ele>
        <time>2024-07-12T07:08:39.856Z</time>
      </trkpt>
      <trkpt lat="53.18341" lon="7.25348">
        <ele>44.943132</ele>
        <time>2024-07-12T07:08:42.867Z</time>
      </trkpt>
      <trkpt lat="53.18346" lon="7.25367">
        <ele>44.923022</ele>
        <time>2024-07-12T07:08:45.854Z</time>
      </trkpt>
      <trkpt lat="53.18349" lon="7.25386">
        <ele>44.901995</ele>
        <time>2024-07-12T07:08:48.831Z</time>
      </trkpt>
      <trkpt lat="53.18355" lon="7.25405">
        <ele>44.880935</ele>
        <time>2024-07-12T07:08:51.837Z</time>
      </trkpt>
      <trkpt lat="53.18358" lon="7.25423">
        <ele>44.861804</ele>
        <time>2024-07-12T07:08:54.842Z</time>
      </trkpt>
      <trkpt lat="53.18361" lon="7.25438">
        <ele>44.846326</ele>
        <time>2024-07-12T07:08:58.841Z</time>
      </trkpt>
      <trkpt lat="53.18367" lon="7.25453">
        <ele>44.732321</ele>
        <time>2024-07-12T07:09:18.850Z</time>
      </trkpt>
      <trkpt lat="53.1837" lon="7.25467">
        <ele>44.603868</ele>
        <time>2024-07-12T07:09:21.834Z</time>
      </trkpt>
      <trkpt lat="53.18373" lon="7.25482">
        <ele>44.468807</ele>
        <time>2024-07-12T07:09:24.834Z</time>
      </trkpt>
      <trkpt lat="53.18376" lon="7.25496">
        <ele>44.338159</ele>
        <time>2024-07-12T07:09:27.844Z</time>
      </trkpt>
      <trkpt lat="53.1838" lon="7.25511">
        <ele>44.199893</ele>
        <time>2024-07-12T07:09:30.860Z</time>
      </trkpt>
      <trkpt lat="53.18383" lon="7.2553">
        <ele>44.038798</ele>
        <time>2024-07-12T07:09:34.861Z</time>
      </trkpt>
      <trkpt lat="53.18375" lon="7.2554">
        <ele>43.89436</ele>
        <time>2024-07-12T07:09:37.833Z</time>
      </trkpt>
      <trkpt lat="53.18364" lon="7.25551">
        <ele>43.717841</ele>
        <time>2024-07-12T07:09:40.843Z</time>
      </trkpt>
      <trkpt lat="53.18354" lon="7.25563">
        <ele>43.534556</ele>
        <time>2024-07-12T07:09:43.842Z</time>
      </trkpt>
      <trkpt lat="53.18347" lon="7.25574">
        <ele>43.404845</ele>
        <time>2024-07-12T07:09:45.844Z</time>
      </trkpt>
      <trkpt lat="53.18339" lon="7.25583">
        <ele>43.269117</ele>
        <time>2024-07-12T07:09:47.842Z</time>
      </trkpt>
      <trkpt lat="53.18332" lon="7.25593">
        <ele>43.136486</ele>
        <time>2024-07-12T07:09:49.828Z</time>
      </trkpt>
      <trkpt lat="53.18324" lon="7.25602">
        <ele>43.000042</ele>
        <time>2024-07-12T07:09:51.856Z</time>
      </trkpt>
      <trkpt lat="53.18317" lon="7.25611">
        <ele>42.870568</ele>
        <time>2024-07-12T07:09:53.846Z</time>
      </trkpt>
      <trkpt lat="53.18309" lon="7.25621">
        <ele>42.734235</ele>
        <time>2024-07-12T07:09:55.835Z</time>
      </trkpt>
      <trkpt lat="53.18302" lon="7.2563">
        <ele>42.602608</ele>
        <time>2024-07-12T07:09:57.845Z</time>
      </trkpt>
      <trkpt lat="53.18294" lon="7.25639">
        <ele>42.46688</ele>
        <time>2024-07-12T07:09:59.845Z</time>
      </trkpt>
      <trkpt lat="53.18286" lon="7.2565">
        <ele>42.325731</ele>
        <time>2024-07-12T07:10:01.841Z</time>
      </trkpt>
      <trkpt lat="53.18279" lon="7.25659">
        <ele>42.286301</ele>
        <time>2024-07-12T07:10:03.852Z</time>
      </trkpt>
      <trkpt lat="53.18271" lon="7.25669">
        <ele>42.30111</ele>
        <time>2024-07-12T07:10:05.857Z</time>
      </trkpt>
      <trkpt lat="53.18263" lon="7.25678">
        <ele>42.315961</ele>
        <time>2024-07-12T07:10:07.841Z</time>
      </trkpt>
      <trkpt lat="53.18255" lon="7.25688">
        <ele>42.331196</ele>
        <time>2024-07-12T07:10:09.845Z</time>
      </trkpt>
      <trkpt lat="53.18247" lon="7.25699">
        <ele>42.346342</ele>
        <time>2024-07-12T07:10:11.840Z</time>
      </trkpt>
      <trkpt lat="53.18239" lon="7.25709">
        <ele>42.362169</ele>
        <time>2024-07-12T07:10:13.849Z</time>
      </trkpt>
      <trkpt lat="53.1823" lon="7.25719">
        <ele>42.377647</ele>
        <time>2024-07-12T07:10:15.844Z</time>
      </trkpt>
      <trkpt lat="53.18222" lon="7.2573">
        <ele>42.393151</ele>
        <time>2024-07-12T07:10:17.841Z</time>
      </trkpt>
      <trkpt lat="53.18213" lon="7.2574">
        <ele>42.408909</ele>
        <time>2024-07-12T07:10:19.851Z</time>
      </trkpt>
      <trkpt lat="53.18206" lon="7.25753">
        <ele>42.424792</ele>
        <time>2024-07-12T07:10:21.834Z</time>
      </trkpt>
      <trkpt lat="53.18203" lon="7.2577">
        <ele>42.44077</ele>
        <time>2024-07-12T07:10:23.834Z</time>
      </trkpt>
      <trkpt lat="53.18201" lon="7.25787">
        <ele>42.456668</ele>
        <time>2024-07-12T07:10:25.840Z</time>
      </trkpt>
      <trkpt lat="53.18195" lon="7.25802">
        <ele>42.472012</ele>
        <time>2024-07-12T07:10:27.831Z</time>
      </trkpt>
      <trkpt lat="53.1819" lon="7.25815">
        <ele>42.486146</ele>
        <time>2024-07-12T07:10:29.825Z</time>
      </trkpt>
      <trkpt lat="53.18185" lon="7.25834">
        <ele>42.505456</ele>
        <time>2024-07-12T07:10:32.833Z</time>
      </trkpt>
      <trkpt lat="53.18182" lon="7.25852">
        <ele>42.521682</ele>
        <time>2024-07-12T07:10:35.854Z</time>
      </trkpt>
      <trkpt lat="53.1818" lon="7.2587">
        <ele>42.538029</ele>
        <time>2024-07-12T07:10:38.850Z</time>
      </trkpt>
      <trkpt lat="53.18178" lon="7.25889">
        <ele>42.655603</ele>
        <time>2024-07-12T07:10:41.873Z</time>
      </trkpt>
      <trkpt lat="53.18176" lon="7.25908">
        <ele>42.885511</ele>
        <time>2024-07-12T07:10:44.833Z</time>
      </trkpt>
      <trkpt lat="53.18176" lon="7.25928">
        <ele>43.116356</ele>
        <time>2024-07-12T07:10:47.830Z</time>
      </trkpt>
      <trkpt lat="53.18178" lon="7.25948">
        <ele>43.355218</ele>
        <time>2024-07-12T07:10:50.834Z</time>
      </trkpt>
      <trkpt lat="53.18182" lon="7.25967">
        <ele>43.592786</ele>
        <time>2024-07-12T07:10:53.859Z</time>
      </trkpt>
      <trkpt lat="53.18185" lon="7.25985">
        <ele>43.821852</ele>
        <time>2024-07-12T07:10:56.822Z</time>
      </trkpt>
      <trkpt lat="53.18189" lon="7.26003">
        <ele>44.046206</ele>
        <time>2024-07-12T07:10:59.847Z</time>
      </trkpt>
      <trkpt lat="53.18193" lon="7.26021">
        <ele>44.269448</ele>
        <time>2024-07-12T07:11:02.851Z</time>
      </trkpt>
      <trkpt lat="53.18197" lon="7.26038">
        <ele>44.486375</ele>
        <time>2024-07-12T07:11:05.845Z</time>
      </trkpt>
      <trkpt lat="53.18202" lon="7.26053">
        <ele>44.694872</ele>
        <time>2024-07-12T07:11:08.846Z</time>
      </trkpt>
      <trkpt lat="53.18207" lon="7.26069">
        <ele>44.901088</ele>
        <time>2024-07-12T07:11:11.831Z</time>
      </trkpt>
      <trkpt lat="53.18211" lon="7.26085">
        <ele>45.108665</ele>
        <time>2024-07-12T07:11:14.837Z</time>
      </trkpt>
      <trkpt lat="53.18216" lon="7.26101">
        <ele>45.321206</ele>
        <time>2024-07-12T07:11:17.837Z</time>
      </trkpt>
      <trkpt lat="53.1822" lon="7.26118">
        <ele>45.533113</ele>
        <time>2024-07-12T07:11:20.853Z</time>
      </trkpt>
      <trkpt lat="53.18223" lon="7.26135">
        <ele>45.746306</ele>
        <time>2024-07-12T07:11:23.824Z</time>
      </trkpt>
      <trkpt lat="53.18226" lon="7.26151">
        <ele>45.953971</ele>
        <time>2024-07-12T07:11:26.826Z</time>
      </trkpt>
      <trkpt lat="53.18229" lon="7.26168">
        <ele>46.119625</ele>
        <time>2024-07-12T07:11:29.834Z</time>
      </trkpt>
      <trkpt lat="53.18233" lon="7.26184">
        <ele>46.190044</ele>
        <time>2024-07-12T07:11:32.839Z</time>
      </trkpt>
      <trkpt lat="53.18239" lon="7.26199">
        <ele>46.26226</ele>
        <time>2024-07-12T07:11:35.881Z</time>
      </trkpt>
      <trkpt lat="53.18243" lon="7.26216">
        <ele>46.340257</ele>
        <time>2024-07-12T07:11:38.842Z</time>
      </trkpt>
      <trkpt lat="53.18247" lon="7.26233">
        <ele>46.411302</ele>
        <time>2024-07-12T07:11:41.839Z</time>
      </trkpt>
      <trkpt lat="53.18251" lon="7.2625">
        <ele>46.487198</ele>
        <time>2024-07-12T07:11:44.844Z</time>
      </trkpt>
      <trkpt lat="53.18256" lon="7.26267">
        <ele>46.564061</ele>
        <time>2024-07-12T07:11:47.842Z</time>
      </trkpt>
      <trkpt lat="53.1826" lon="7.26284">
        <ele>46.637914</ele>
        <time>2024-07-12T07:11:50.857Z</time>
      </trkpt>
      <trkpt lat="53.18264" lon="7.26301">
        <ele>46.714402</ele>
        <time>2024-07-12T07:11:53.842Z</time>
      </trkpt>
      <trkpt lat="53.18268" lon="7.26317">
        <ele>46.786077</ele>
        <time>2024-07-12T07:11:56.843Z</time>
      </trkpt>
      <trkpt lat="53.18272" lon="7.26332">
        <ele>46.850523</ele>
        <time>2024-07-12T07:11:59.837Z</time>
      </trkpt>
      <trkpt lat="53.18272" lon="7.26347">
        <ele>46.914671</ele>
        <time>2024-07-12T07:12:03.835Z</time>
      </trkpt>
      <trkpt lat="53.18263" lon="7.26358">
        <ele>46.987689</ele>
        <time>2024-07-12T07:12:08.841Z</time>
      </trkpt>
      <trkpt lat="53.18274" lon="7.26355">
        <ele>47.064907</ele>
        <time>2024-07-12T07:12:17.832Z</time>
      </trkpt>
      <trkpt lat="53.1828" lon="7.26368">
        <ele>47.129957</ele>
        <time>2024-07-12T07:12:21.813Z</time>
      </trkpt>
      <trkpt lat="53.18279" lon="7.26383">
        <ele>47.193163</ele>
        <time>2024-07-12T07:12:25.837Z</time>
      </trkpt>
      <trkpt lat="53.18274" lon="7.26397">
        <ele>47.2615</ele>
        <time>2024-07-12T07:12:28.842Z</time>
      </trkpt>
      <trkpt lat="53.18269" lon="7.26416">
        <ele>47.331716</ele>
        <time>2024-07-12T07:12:31.842Z</time>
      </trkpt>
      <trkpt lat="53.18263" lon="7.26435">
        <ele>47.367083</ele>
        <time>2024-07-12T07:12:34.831Z</time>
      </trkpt>
      <trkpt lat="53.18257" lon="7.26448">
        <ele>47.390714</ele>
        <time>2024-07-12T07:12:36.832Z</time>
      </trkpt>
      <trkpt lat="53.1825" lon="7.26465">
        <ele>47.423241</ele>
        <time>2024-07-12T07:12:39.856Z</time>
      </trkpt>
      <trkpt lat="53.18243" lon="7.26482">
        <ele>47.456079</ele>
        <time>2024-07-12T07:12:42.859Z</time>
      </trkpt>
      <trkpt lat="53.18237" lon="7.265">
        <ele>47.489031</ele>
        <time>2024-07-12T07:12:45.847Z</time>
      </trkpt>
      <trkpt lat="53.1823" lon="7.26518">
        <ele>47.521739</ele>
        <time>2024-07-12T07:12:48.830Z</time>
      </trkpt>
      <trkpt lat="53.18224" lon="7.26536">
        <ele>47.554598</ele>
        <time>2024-07-12T07:12:51.837Z</time>
      </trkpt>
      <trkpt lat="53.18217" lon="7.26555">
        <ele>47.588081</ele>
        <time>2024-07-12T07:12:54.865Z</time>
      </trkpt>
      <trkpt lat="53.18212" lon="7.26574">
        <ele>47.620808</ele>
        <time>2024-07-12T07:12:57.845Z</time>
      </trkpt>
      <trkpt lat="53.18208" lon="7.26593">
        <ele>47.652614</ele>
        <time>2024-07-12T07:13:00.850Z</time>
      </trkpt>
      <trkpt lat="53.18201" lon="7.26611">
        <ele>47.686249</ele>
        <time>2024-07-12T07:13:03.837Z</time>
      </trkpt>
      <trkpt lat="53.18195" lon="7.26631">
        <ele>47.720607</ele>
        <time>2024-07-12T07:13:06.857Z</time>
      </trkpt>
      <trkpt lat="53.18191" lon="7.26651">
        <ele>47.753637</ele>
        <time>2024-07-12T07:13:09.860Z</time>
      </trkpt>
      <trkpt lat="53.18188" lon="7.26665">
        <ele>47.777494</ele>
        <time>2024-07-12T07:13:11.850Z</time>
      </trkpt>
      <trkpt lat="53.18183" lon="7.26686">
        <ele>47.830497</ele>
        <time>2024-07-12T07:13:14.845Z</time>
      </trkpt>
      <trkpt lat="53.18177" lon="7.26704">
        <ele>47.896869</ele>
        <time>2024-07-12T07:13:17.848Z</time>
      </trkpt>
      <trkpt lat="53.18172" lon="7.26717">
        <ele>47.944989</ele>
        <time>2024-07-12T07:13:19.845Z</time>
      </trkpt>
      <trkpt lat="53.18169" lon="7.26731">
        <ele>47.993206</ele>
        <time>2024-07-12T07:13:21.860Z</time>
      </trkpt>
      <trkpt lat="53.18164" lon="7.2675">
        <ele>48.058627</ele>
        <time>2024-07-12T07:13:24.857Z</time>
      </trkpt>
      <trkpt lat="53.18159" lon="7.26768">
        <ele>48.123785</ele>
        <time>2024-07-12T07:13:27.854Z</time>
      </trkpt>
      <trkpt lat="53.18153" lon="7.26789">
        <ele>48.194144</ele>
        <time>2024-07-12T07:13:30.855Z</time>
      </trkpt>
      <trkpt lat="53.18148" lon="7.26809">
        <ele>48.265303</ele>
        <time>2024-07-12T07:13:33.847Z</time>
      </trkpt>
      <trkpt lat="53.18144" lon="7.26828">
        <ele>48.331107</ele>
        <time>2024-07-12T07:13:36.838Z</time>
      </trkpt>
      <trkpt lat="53.18138" lon="7.26847">
        <ele>48.398964</ele>
        <time>2024-07-12T07:13:39.841Z</time>
      </trkpt>
      <trkpt lat="53.18133" lon="7.26867">
        <ele>48.467765</ele>
        <time>2024-07-12T07:13:42.821Z</time>
      </trkpt>
      <trkpt lat="53.18128" lon="7.26887">
        <ele>48.536567</ele>
        <time>2024-07-12T07:13:45.838Z</time>
      </trkpt>
      <trkpt lat="53.18123" lon="7.26906">
        <ele>48.602644</ele>
        <time>2024-07-12T07:13:48.825Z</time>
      </trkpt>
      <trkpt lat="53.18117" lon="7.26923">
        <ele>48.664933</ele>
        <time>2024-07-12T07:13:51.849Z</time>
      </trkpt>
      <trkpt lat="53.18113" lon="7.26941">
        <ele>48.725364</ele>
        <time>2024-07-12T07:13:54.842Z</time>
      </trkpt>
      <trkpt lat="53.18109" lon="7.2696">
        <ele>48.714951</ele>
        <time>2024-07-12T07:13:57.827Z</time>
      </trkpt>
      <trkpt lat="53.18103" lon="7.2698">
        <ele>48.653666</ele>
        <time>2024-07-12T07:14:00.860Z</time>
      </trkpt>
      <trkpt lat="53.18098" lon="7.26999">
        <ele>48.594488</ele>
        <time>2024-07-12T07:14:03.856Z</time>
      </trkpt>
      <trkpt lat="53.18094" lon="7.27013">
        <ele>48.55138</ele>
        <time>2024-07-12T07:14:05.861Z</time>
      </trkpt>
      <trkpt lat="53.18089" lon="7.27033">
        <ele>48.488228</ele>
        <time>2024-07-12T07:14:08.874Z</time>
      </trkpt>
      <trkpt lat="53.18085" lon="7.27047">
        <ele>48.445572</ele>
        <time>2024-07-12T07:14:10.841Z</time>
      </trkpt>
      <trkpt lat="53.18081" lon="7.27061">
        <ele>48.403041</ele>
        <time>2024-07-12T07:14:12.867Z</time>
      </trkpt>
      <trkpt lat="53.18077" lon="7.27075">
        <ele>48.36049</ele>
        <time>2024-07-12T07:14:14.858Z</time>
      </trkpt>
      <trkpt lat="53.1807" lon="7.27091">
        <ele>48.301816</ele>
        <time>2024-07-12T07:14:17.846Z</time>
      </trkpt>
      <trkpt lat="53.18067" lon="7.27113">
        <ele>48.240666</ele>
        <time>2024-07-12T07:14:20.834Z</time>
      </trkpt>
      <trkpt lat="53.18063" lon="7.27127">
        <ele>48.196143</ele>
        <time>2024-07-12T07:14:22.841Z</time>
      </trkpt>
      <trkpt lat="53.18059" lon="7.27141">
        <ele>48.152486</ele>
        <time>2024-07-12T07:14:24.839Z</time>
      </trkpt>
      <trkpt lat="53.18056" lon="7.27155">
        <ele>48.109446</ele>
        <time>2024-07-12T07:14:26.857Z</time>
      </trkpt>
      <trkpt lat="53.18051" lon="7.27175">
        <ele>48.048839</ele>
        <time>2024-07-12T07:14:29.853Z</time>
      </trkpt>
      <trkpt lat="53.18044" lon="7.2719">
        <ele>47.996067</ele>
        <time>2024-07-12T07:14:32.837Z</time>
      </trkpt>
      <trkpt lat="53.18032" lon="7.27192">
        <ele>47.93809</ele>
        <time>2024-07-12T07:14:35.844Z</time>
      </trkpt>
      <trkpt lat="53.18026" lon="7.27208">
        <ele>47.90532</ele>
        <time>2024-07-12T07:14:38.849Z</time>
      </trkpt>
      <trkpt lat="53.18018" lon="7.27218">
        <ele>47.901485</ele>
        <time>2024-07-12T07:14:44.846Z</time>
      </trkpt>
      <trkpt lat="53.18015" lon="7.27235">
        <ele>47.897028</ele>
        <time>2024-07-12T07:14:48.831Z</time>
      </trkpt>
      <trkpt lat="53.18017" lon="7.27255">
        <ele>47.892216</ele>
        <time>2024-07-12T07:14:52.861Z</time>
      </trkpt>
      <trkpt lat="53.18025" lon="7.27269">
        <ele>47.887708</ele>
        <time>2024-07-12T07:14:55.846Z</time>
      </trkpt>
      <trkpt lat="53.18034" lon="7.27277">
        <ele>47.883468</ele>
        <time>2024-07-12T07:14:58.834Z</time>
      </trkpt>
      <trkpt lat="53.18043" lon="7.27284">
        <ele>47.879465</ele>
        <time>2024-07-12T07:15:01.854Z</time>
      </trkpt>
      <trkpt lat="53.18053" lon="7.27292">
        <ele>47.874719</ele>
        <time>2024-07-12T07:15:05.853Z</time>
      </trkpt>
      <trkpt lat="53.18064" lon="7.27299">
        <ele>47.870108</ele>
        <time>2024-07-12T07:15:09.844Z</time>
      </trkpt>
      <trkpt lat="53.18074" lon="7.27307">
        <ele>47.86571</ele>
        <time>2024-07-12T07:15:13.844Z</time>
      </trkpt>
      <trkpt lat="53.18083" lon="7.27315">
        <ele>47.861565</ele>
        <time>2024-07-12T07:15:16.841Z</time>
      </trkpt>
      <trkpt lat="53.1809" lon="7.27326">
        <ele>47.857456</ele>
        <time>2024-07-12T07:15:19.842Z</time>
      </trkpt>
      <trkpt lat="53.18097" lon="7.2734">
        <ele>47.852977</ele>
        <time>2024-07-12T07:15:22.849Z</time>
      </trkpt>
      <trkpt lat="53.18104" lon="7.27356">
        <ele>47.848378</ele>
        <time>2024-07-12T07:15:25.852Z</time>
      </trkpt>
      <trkpt lat="53.1811" lon="7.27372">
        <ele>47.843769</ele>
        <time>2024-07-12T07:15:28.836Z</time>
      </trkpt>
      <trkpt lat="53.18116" lon="7.27387">
        <ele>47.83922</ele>
        <time>2024-07-12T07:15:31.837Z</time>
      </trkpt>
      <trkpt lat="53.18122" lon="7.27403">
        <ele>47.834865</ele>
        <time>2024-07-12T07:15:34.835Z</time>
      </trkpt>
      <trkpt lat="53.18128" lon="7.27417">
        <ele>47.880188</ele>
        <time>2024-07-12T07:15:37.838Z</time>
      </trkpt>
      <trkpt lat="53.18135" lon="7.27432">
        <ele>47.935537</ele>
        <time>2024-07-12T07:15:40.843Z</time>
      </trkpt>
      <trkpt lat="53.18142" lon="7.27448">
        <ele>47.992091</ele>
        <time>2024-07-12T07:15:43.842Z</time>
      </trkpt>
      <trkpt lat="53.1815" lon="7.27462">
        <ele>48.047876</ele>
        <time>2024-07-12T07:15:46.837Z</time>
      </trkpt>
      <trkpt lat="53.18158" lon="7.27476">
        <ele>48.104389</ele>
        <time>2024-07-12T07:15:49.841Z</time>
      </trkpt>
      <trkpt lat="53.18167" lon="7.2749">
        <ele>48.163444</ele>
        <time>2024-07-12T07:15:52.851Z</time>
      </trkpt>
      <trkpt lat="53.18175" lon="7.27505">
        <ele>48.218883</ele>
        <time>2024-07-12T07:15:55.845Z</time>
      </trkpt>
      <trkpt lat="53.18184" lon="7.27518">
        <ele>48.277476</ele>
        <time>2024-07-12T07:15:58.831Z</time>
      </trkpt>
      <trkpt lat="53.18193" lon="7.27533">
        <ele>48.336176</ele>
        <time>2024-07-12T07:16:01.842Z</time>
      </trkpt>
      <trkpt lat="53.18201" lon="7.27546">
        <ele>48.392248</ele>
        <time>2024-07-12T07:16:04.844Z</time>
      </trkpt>
      <trkpt lat="53.1821" lon="7.2756">
        <ele>48.451653</ele>
        <time>2024-07-12T07:16:07.843Z</time>
      </trkpt>
      <trkpt lat="53.18218" lon="7.27573">
        <ele>48.507026</ele>
        <time>2024-07-12T07:16:10.837Z</time>
      </trkpt>
      <trkpt lat="53.18227" lon="7.27585">
        <ele>48.560239</ele>
        <time>2024-07-12T07:16:13.839Z</time>
      </trkpt>
      <trkpt lat="53.18235" lon="7.27597">
        <ele>48.611186</ele>
        <time>2024-07-12T07:16:16.845Z</time>
      </trkpt>
      <trkpt lat="53.18234" lon="7.27615">
        <ele>48.661949</ele>
        <time>2024-07-12T07:16:19.845Z</time>
      </trkpt>
      <trkpt lat="53.18232" lon="7.27632">
        <ele>48.709697</ele>
        <time>2024-07-12T07:16:22.852Z</time>
      </trkpt>
      <trkpt lat="53.18231" lon="7.27653">
        <ele>48.751099</ele>
        <time>2024-07-12T07:16:25.838Z</time>
      </trkpt>
      <trkpt lat="53.1823" lon="7.27674">
        <ele>48.791657</ele>
        <time>2024-07-12T07:16:28.881Z</time>
      </trkpt>
      <trkpt lat="53.1823" lon="7.27694">
        <ele>48.83229</ele>
        <time>2024-07-12T07:16:31.828Z</time>
      </trkpt>
      <trkpt lat="53.18229" lon="7.27716">
        <ele>48.874338</ele>
        <time>2024-07-12T07:16:34.841Z</time>
      </trkpt>
      <trkpt lat="53.18229" lon="7.27738">
        <ele>48.917918</ele>
        <time>2024-07-12T07:16:37.844Z</time>
      </trkpt>
      <trkpt lat="53.18228" lon="7.2776">
        <ele>48.961818</ele>
        <time>2024-07-12T07:16:40.835Z</time>
      </trkpt>
      <trkpt lat="53.18229" lon="7.27782">
        <ele>49.005605</ele>
        <time>2024-07-12T07:16:43.872Z</time>
      </trkpt>
      <trkpt lat="53.18228" lon="7.27798">
        <ele>49.035791</ele>
        <time>2024-07-12T07:16:45.854Z</time>
      </trkpt>
      <trkpt lat="53.18227" lon="7.27813">
        <ele>49.066752</ele>
        <time>2024-07-12T07:16:47.842Z</time>
      </trkpt>
      <trkpt lat="53.18225" lon="7.2783">
        <ele>49.099855</ele>
        <time>2024-07-12T07:16:49.875Z</time>
      </trkpt>
      <trkpt lat="53.18224" lon="7.27845">
        <ele>49.13087</ele>
        <time>2024-07-12T07:16:51.878Z</time>
      </trkpt>
      <trkpt lat="53.18222" lon="7.27861">
        <ele>49.163495</ele>
        <time>2024-07-12T07:16:53.860Z</time>
      </trkpt>
      <trkpt lat="53.1822" lon="7.27878">
        <ele>49.197077</ele>
        <time>2024-07-12T07:16:55.841Z</time>
      </trkpt>
      <trkpt lat="53.18217" lon="7.27894">
        <ele>49.229386</ele>
        <time>2024-07-12T07:16:58.121Z</time>
      </trkpt>
      <trkpt lat="53.18215" lon="7.2791">
        <ele>49.262726</ele>
        <time>2024-07-12T07:16:59.951Z</time>
      </trkpt>
      <trkpt lat="53.18211" lon="7.27925">
        <ele>49.289782</ele>
        <time>2024-07-12T07:17:01.857Z</time>
      </trkpt>
      <trkpt lat="53.18208" lon="7.2794">
        <ele>49.26856</ele>
        <time>2024-07-12T07:17:03.853Z</time>
      </trkpt>
      <trkpt lat="53.18202" lon="7.2796">
        <ele>49.237678</ele>
        <time>2024-07-12T07:17:06.866Z</time>
      </trkpt>
      <trkpt lat="53.18195" lon="7.27979">
        <ele>49.207514</ele>
        <time>2024-07-12T07:17:09.829Z</time>
      </trkpt>
      <trkpt lat="53.1819" lon="7.27998">
        <ele>49.178044</ele>
        <time>2024-07-12T07:17:12.855Z</time>
      </trkpt>
      <trkpt lat="53.18185" lon="7.28018">
        <ele>49.148989</ele>
        <time>2024-07-12T07:17:15.863Z</time>
      </trkpt>
      <trkpt lat="53.18184" lon="7.28039">
        <ele>49.12102</ele>
        <time>2024-07-12T07:17:18.847Z</time>
      </trkpt>
      <trkpt lat="53.18182" lon="7.28054">
        <ele>49.100145</ele>
        <time>2024-07-12T07:17:20.880Z</time>
      </trkpt>
      <trkpt lat="53.18178" lon="7.28075">
        <ele>49.069057</ele>
        <time>2024-07-12T07:17:23.865Z</time>
      </trkpt>
      <trkpt lat="53.18173" lon="7.2809">
        <ele>49.046912</ele>
        <time>2024-07-12T07:17:25.845Z</time>
      </trkpt>
      <trkpt lat="53.1817" lon="7.28105">
        <ele>49.024857</ele>
        <time>2024-07-12T07:17:27.841Z</time>
      </trkpt>
      <trkpt lat="53.18166" lon="7.2812">
        <ele>49.00208</ele>
        <time>2024-07-12T07:17:29.846Z</time>
      </trkpt>
      <trkpt lat="53.18162" lon="7.28136">
        <ele>48.978926</ele>
        <time>2024-07-12T07:17:31.838Z</time>
      </trkpt>
      <trkpt lat="53.18159" lon="7.28152">
        <ele>48.955434</ele>
        <time>2024-07-12T07:17:33.858Z</time>
      </trkpt>
      <trkpt lat="53.18155" lon="7.28167">
        <ele>48.932784</ele>
        <time>2024-07-12T07:17:35.839Z</time>
      </trkpt>
      <trkpt lat="53.18151" lon="7.28183">
        <ele>48.909291</ele>
        <time>2024-07-12T07:17:37.846Z</time>
      </trkpt>
      <trkpt lat="53.18147" lon="7.282">
        <ele>48.884866</ele>
        <time>2024-07-12T07:17:39.843Z</time>
      </trkpt>
      <trkpt lat="53.18143" lon="7.28216">
        <ele>48.796442</ele>
        <time>2024-07-12T07:17:41.837Z</time>
      </trkpt>
      <trkpt lat="53.1814" lon="7.28232">
        <ele>48.698212</ele>
        <time>2024-07-12T07:17:43.833Z</time>
      </trkpt>
      <trkpt lat="53.18136" lon="7.28248">
        <ele>48.600497</ele>
        <time>2024-07-12T07:17:45.844Z</time>
      </trkpt>
      <trkpt lat="53.18131" lon="7.28264">
        <ele>48.5003</ele>
        <time>2024-07-12T07:17:47.842Z</time>
      </trkpt>
      <trkpt lat="53.18128" lon="7.28279">
        <ele>48.404203</ele>
        <time>2024-07-12T07:17:49.843Z</time>
      </trkpt>
      <trkpt lat="53.18124" lon="7.28295">
        <ele>48.308906</ele>
        <time>2024-07-12T07:17:51.847Z</time>
      </trkpt>
      <trkpt lat="53.18121" lon="7.28312">
        <ele>48.202501</ele>
        <time>2024-07-12T07:17:53.837Z</time>
      </trkpt>
      <trkpt lat="53.18117" lon="7.28329">
        <ele>48.098906</ele>
        <time>2024-07-12T07:17:55.849Z</time>
      </trkpt>
      <trkpt lat="53.18113" lon="7.28346">
        <ele>47.995536</ele>
        <time>2024-07-12T07:17:57.841Z</time>
      </trkpt>
      <trkpt lat="53.18109" lon="7.28363">
        <ele>47.891494</ele>
        <time>2024-07-12T07:17:59.826Z</time>
      </trkpt>
      <trkpt lat="53.18105" lon="7.2838">
        <ele>47.78723</ele>
        <time>2024-07-12T07:18:01.855Z</time>
      </trkpt>
      <trkpt lat="53.18102" lon="7.28397">
        <ele>47.686976</ele>
        <time>2024-07-12T07:18:03.855Z</time>
      </trkpt>
      <trkpt lat="53.18097" lon="7.28413">
        <ele>47.583606</ele>
        <time>2024-07-12T07:18:05.857Z</time>
      </trkpt>
      <trkpt lat="53.18093" lon="7.2843">
        <ele>47.481209</ele>
        <time>2024-07-12T07:18:07.835Z</time>
      </trkpt>
      <trkpt lat="53.18089" lon="7.28446">
        <ele>47.376778</ele>
        <time>2024-07-12T07:18:09.937Z</time>
      </trkpt>
      <trkpt lat="53.18085" lon="7.28464">
        <ele>47.271284</ele>
        <time>2024-07-12T07:18:11.870Z</time>
      </trkpt>
      <trkpt lat="53.18081" lon="7.2848">
        <ele>47.16909</ele>
        <time>2024-07-12T07:18:13.950Z</time>
      </trkpt>
      <trkpt lat="53.18077" lon="7.28497">
        <ele>47.104187</ele>
        <time>2024-07-12T07:18:15.887Z</time>
      </trkpt>
      <trkpt lat="53.18073" lon="7.28513">
        <ele>47.043046</ele>
        <time>2024-07-12T07:18:17.879Z</time>
      </trkpt>
      <trkpt lat="53.18069" lon="7.2853">
        <ele>46.981572</ele>
        <time>2024-07-12T07:18:19.895Z</time>
      </trkpt>
      <trkpt lat="53.18066" lon="7.28548">
        <ele>46.918337</ele>
        <time>2024-07-12T07:18:21.891Z</time>
      </trkpt>
      <trkpt lat="53.18061" lon="7.28565">
        <ele>46.85433</ele>
        <time>2024-07-12T07:18:23.858Z</time>
      </trkpt>
      <trkpt lat="53.18057" lon="7.28582">
        <ele>46.792127</ele>
        <time>2024-07-12T07:18:25.886Z</time>
      </trkpt>
      <trkpt lat="53.18053" lon="7.28599">
        <ele>46.727268</ele>
        <time>2024-07-12T07:18:27.853Z</time>
      </trkpt>
      <trkpt lat="53.18049" lon="7.28616">
        <ele>46.664406</ele>
        <time>2024-07-12T07:18:29.835Z</time>
      </trkpt>
      <trkpt lat="53.18045" lon="7.28633">
        <ele>46.601617</ele>
        <time>2024-07-12T07:18:31.836Z</time>
      </trkpt>
      <trkpt lat="53.18039" lon="7.28649">
        <ele>46.538648</ele>
        <time>2024-07-12T07:18:33.836Z</time>
      </trkpt>
      <trkpt lat="53.18034" lon="7.28664">
        <ele>46.478638</ele>
        <time>2024-07-12T07:18:35.934Z</time>
      </trkpt>
      <trkpt lat="53.18031" lon="7.28679">
        <ele>46.424108</ele>
        <time>2024-07-12T07:18:37.827Z</time>
      </trkpt>
      <trkpt lat="53.18027" lon="7.28696">
        <ele>46.362792</ele>
        <time>2024-07-12T07:18:39.855Z</time>
      </trkpt>
      <trkpt lat="53.18024" lon="7.28712">
        <ele>46.306936</ele>
        <time>2024-07-12T07:18:41.863Z</time>
      </trkpt>
      <trkpt lat="53.18021" lon="7.28729">
        <ele>46.244074</ele>
        <time>2024-07-12T07:18:43.847Z</time>
      </trkpt>
      <trkpt lat="53.18016" lon="7.28744">
        <ele>46.186189</ele>
        <time>2024-07-12T07:18:45.846Z</time>
      </trkpt>
      <trkpt lat="53.18012" lon="7.28761">
        <ele>46.139005</ele>
        <time>2024-07-12T07:18:47.845Z</time>
      </trkpt>
      <trkpt lat="53.18008" lon="7.28776">
        <ele>46.178949</ele>
        <time>2024-07-12T07:18:49.848Z</time>
      </trkpt>
      <trkpt lat="53.18005" lon="7.28792">
        <ele>46.22115</ele>
        <time>2024-07-12T07:18:51.848Z</time>
      </trkpt>
      <trkpt lat="53.18001" lon="7.28808">
        <ele>46.262813</ele>
        <time>2024-07-12T07:18:53.853Z</time>
      </trkpt>
      <trkpt lat="53.17998" lon="7.28824">
        <ele>46.303423</ele>
        <time>2024-07-12T07:18:55.824Z</time>
      </trkpt>
      <trkpt lat="53.17993" lon="7.2884">
        <ele>46.345413</ele>
        <time>2024-07-12T07:18:57.838Z</time>
      </trkpt>
      <trkpt lat="53.1799" lon="7.28856">
        <ele>46.387188</ele>
        <time>2024-07-12T07:18:59.831Z</time>
      </trkpt>
      <trkpt lat="53.17987" lon="7.28873">
        <ele>46.429938</ele>
        <time>2024-07-12T07:19:01.845Z</time>
      </trkpt>
      <trkpt lat="53.17983" lon="7.28889">
        <ele>46.473177</ele>
        <time>2024-07-12T07:19:03.843Z</time>
      </trkpt>
      <trkpt lat="53.17979" lon="7.28906">
        <ele>46.518146</ele>
        <time>2024-07-12T07:19:05.846Z</time>
      </trkpt>
      <trkpt lat="53.17974" lon="7.28924">
        <ele>46.566007</ele>
        <time>2024-07-12T07:19:07.836Z</time>
      </trkpt>
      <trkpt lat="53.1797" lon="7.28941">
        <ele>46.610456</ele>
        <time>2024-07-12T07:19:09.850Z</time>
      </trkpt>
      <trkpt lat="53.17966" lon="7.28958">
        <ele>46.653624</ele>
        <time>2024-07-12T07:19:11.835Z</time>
      </trkpt>
      <trkpt lat="53.17962" lon="7.28973">
        <ele>46.694758</ele>
        <time>2024-07-12T07:19:13.839Z</time>
      </trkpt>
      <trkpt lat="53.17958" lon="7.28989">
        <ele>46.736874</ele>
        <time>2024-07-12T07:19:15.840Z</time>
      </trkpt>
      <trkpt lat="53.17954" lon="7.29005">
        <ele>46.776981</ele>
        <time>2024-07-12T07:19:17.856Z</time>
      </trkpt>
      <trkpt lat="53.1795" lon="7.29019">
        <ele>46.816719</ele>
        <time>2024-07-12T07:19:19.842Z</time>
      </trkpt>
      <trkpt lat="53.17946" lon="7.29034">
        <ele>46.856329</ele>
        <time>2024-07-12T07:19:21.859Z</time>
      </trkpt>
      <trkpt lat="53.17942" lon="7.29048">
        <ele>46.997552</ele>
        <time>2024-07-12T07:19:23.857Z</time>
      </trkpt>
      <trkpt lat="53.17938" lon="7.29068">
        <ele>47.224408</ele>
        <time>2024-07-12T07:19:26.857Z</time>
      </trkpt>
      <trkpt lat="53.17933" lon="7.29086">
        <ele>47.427156</ele>
        <time>2024-07-12T07:19:29.841Z</time>
      </trkpt>
      <trkpt lat="53.17929" lon="7.29105">
        <ele>47.641013</ele>
        <time>2024-07-12T07:19:32.867Z</time>
      </trkpt>
      <trkpt lat="53.17925" lon="7.29125">
        <ele>47.859609</ele>
        <time>2024-07-12T07:19:35.842Z</time>
      </trkpt>
      <trkpt lat="53.17921" lon="7.29142">
        <ele>48.054615</ele>
        <time>2024-07-12T07:19:38.847Z</time>
      </trkpt>
      <trkpt lat="53.17916" lon="7.2916">
        <ele>48.260665</ele>
        <time>2024-07-12T07:19:41.854Z</time>
      </trkpt>
      <trkpt lat="53.17912" lon="7.29178">
        <ele>48.461884</ele>
        <time>2024-07-12T07:19:44.853Z</time>
      </trkpt>
      <trkpt lat="53.17908" lon="7.29196">
        <ele>48.664254</ele>
        <time>2024-07-12T07:19:47.849Z</time>
      </trkpt>
      <trkpt lat="53.17904" lon="7.29214">
        <ele>48.86671</ele>
        <time>2024-07-12T07:19:50.844Z</time>
      </trkpt>
      <trkpt lat="53.17899" lon="7.29231">
        <ele>49.071793</ele>
        <time>2024-07-12T07:19:53.835Z</time>
      </trkpt>
      <trkpt lat="53.17895" lon="7.2925">
        <ele>49.278157</ele>
        <time>2024-07-12T07:19:56.840Z</time>
      </trkpt>
      <trkpt lat="53.1789" lon="7.29268">
        <ele>49.487292</ele>
        <time>2024-07-12T07:19:59.858Z</time>
      </trkpt>
      <trkpt lat="53.17886" lon="7.29287">
        <ele>49.705681</ele>
        <time>2024-07-12T07:20:02.844Z</time>
      </trkpt>
      <trkpt lat="53.17882" lon="7.29305">
        <ele>49.901576</ele>
        <time>2024-07-12T07:20:05.869Z</time>
      </trkpt>
      <trkpt lat="53.17878" lon="7.29321">
        <ele>50.006846</ele>
        <time>2024-07-12T07:20:08.842Z</time>
      </trkpt>
      <trkpt lat="53.17874" lon="7.29338">
        <ele>49.963451</ele>
        <time>2024-07-12T07:20:11.847Z</time>
      </trkpt>
      <trkpt lat="53.17869" lon="7.29354">
        <ele>49.917449</ele>
        <time>2024-07-12T07:20:14.834Z</time>
      </trkpt>
      <trkpt lat="53.17865" lon="7.29372">
        <ele>49.870017</ele>
        <time>2024-07-12T07:20:17.846Z</time>
      </trkpt>
      <trkpt lat="53.17861" lon="7.29392">
        <ele>49.818124</ele>
        <time>2024-07-12T07:20:20.846Z</time>
      </trkpt>
      <trkpt lat="53.17856" lon="7.29412">
        <ele>49.764912</ele>
        <time>2024-07-12T07:20:23.840Z</time>
      </trkpt>
      <trkpt lat="53.17853" lon="7.29426">
        <ele>49.7275</ele>
        <time>2024-07-12T07:20:25.843Z</time>
      </trkpt>
      <trkpt lat="53.1785" lon="7.29441">
        <ele>49.689336</ele>
        <time>2024-07-12T07:20:27.841Z</time>
      </trkpt>
      <trkpt lat="53.17847" lon="7.29456">
        <ele>49.650304</ele>
        <time>2024-07-12T07:20:29.831Z</time>
      </trkpt>
      <trkpt lat="53.17843" lon="7.2947">
        <ele>49.611907</ele>
        <time>2024-07-12T07:20:31.847Z</time>
      </trkpt>
      <trkpt lat="53.1784" lon="7.29486">
        <ele>49.572128</ele>
        <time>2024-07-12T07:20:33.846Z</time>
      </trkpt>
      <trkpt lat="53.17836" lon="7.295">
        <ele>49.53335</ele>
        <time>2024-07-12T07:20:35.852Z</time>
      </trkpt>
      <trkpt lat="53.17832" lon="7.29517">
        <ele>49.489529</ele>
        <time>2024-07-12T07:20:37.849Z</time>
      </trkpt>
      <trkpt lat="53.17828" lon="7.29534">
        <ele>49.444184</ele>
        <time>2024-07-12T07:20:39.852Z</time>
      </trkpt>
      <trkpt lat="53.17824" lon="7.29551">
        <ele>49.398687</ele>
        <time>2024-07-12T07:20:41.843Z</time>
      </trkpt>
      <trkpt lat="53.1782" lon="7.29568">
        <ele>49.354548</ele>
        <time>2024-07-12T07:20:43.854Z</time>
      </trkpt>
      <trkpt lat="53.17817" lon="7.29585">
        <ele>49.308183</ele>
        <time>2024-07-12T07:20:45.847Z</time>
      </trkpt>
      <trkpt lat="53.17813" lon="7.29605">
        <ele>49.228875</ele>
        <time>2024-07-12T07:20:47.847Z</time>
      </trkpt>
      <trkpt lat="53.17808" lon="7.29625">
        <ele>49.116059</ele>
        <time>2024-07-12T07:20:49.821Z</time>
      </trkpt>
      <trkpt lat="53.17804" lon="7.29645">
        <ele>48.999318</ele>
        <time>2024-07-12T07:20:51.834Z</time>
      </trkpt>
      <trkpt lat="53.17799" lon="7.29665">
        <ele>48.885245</ele>
        <time>2024-07-12T07:20:53.862Z</time>
      </trkpt>
      <trkpt lat="53.17795" lon="7.29685">
        <ele>48.773123</ele>
        <time>2024-07-12T07:20:55.842Z</time>
      </trkpt>
      <trkpt lat="53.1779" lon="7.29704">
        <ele>48.660847</ele>
        <time>2024-07-12T07:20:57.866Z</time>
      </trkpt>
      <trkpt lat="53.17785" lon="7.29722">
        <ele>48.553466</ele>
        <time>2024-07-12T07:20:59.878Z</time>
      </trkpt>
      <trkpt lat="53.17781" lon="7.29741">
        <ele>48.445463</ele>
        <time>2024-07-12T07:21:01.836Z</time>
      </trkpt>
      <trkpt lat="53.17776" lon="7.29762">
        <ele>48.331032</ele>
        <time>2024-07-12T07:21:03.832Z</time>
      </trkpt>
      <trkpt lat="53.17772" lon="7.29781">
        <ele>48.221675</ele>
        <time>2024-07-12T07:21:05.865Z</time>
      </trkpt>
      <trkpt lat="53.17768" lon="7.29799">
        <ele>48.119763</ele>
        <time>2024-07-12T07:21:07.864Z</time>
      </trkpt>
      <trkpt lat="53.17764" lon="7.29816">
        <ele>48.021998</ele>
        <time>2024-07-12T07:21:09.842Z</time>
      </trkpt>
      <trkpt lat="53.1776" lon="7.29832">
        <ele>47.925751</ele>
        <time>2024-07-12T07:21:11.856Z</time>
      </trkpt>
      <trkpt lat="53.17756" lon="7.29849">
        <ele>47.831795</ele>
        <time>2024-07-12T07:21:13.848Z</time>
      </trkpt>
      <trkpt lat="53.17752" lon="7.29864">
        <ele>47.741925</ele>
        <time>2024-07-12T07:21:15.827Z</time>
      </trkpt>
      <trkpt lat="53.17748" lon="7.2988">
        <ele>47.701421</ele>
        <time>2024-07-12T07:21:17.830Z</time>
      </trkpt>
      <trkpt lat="53.17745" lon="7.29895">
        <ele>47.760329</ele>
        <time>2024-07-12T07:21:19.822Z</time>
      </trkpt>
      <trkpt lat="53.17741" lon="7.2991">
        <ele>47.815135</ele>
        <time>2024-07-12T07:21:21.849Z</time>
      </trkpt>
      <trkpt lat="53.17738" lon="7.29924">
        <ele>47.868831</ele>
        <time>2024-07-12T07:21:23.853Z</time>
      </trkpt>
      <trkpt lat="53.17733" lon="7.29944">
        <ele>47.947436</ele>
        <time>2024-07-12T07:21:26.849Z</time>
      </trkpt>
      <trkpt lat="53.17729" lon="7.29963">
        <ele>48.018739</ele>
        <time>2024-07-12T07:21:29.846Z</time>
      </trkpt>
      <trkpt lat="53.17724" lon="7.29982">
        <ele>48.092475</ele>
        <time>2024-07-12T07:21:32.858Z</time>
      </trkpt>
      <trkpt lat="53.1772" lon="7.30001">
        <ele>48.165038</ele>
        <time>2024-07-12T07:21:35.851Z</time>
      </trkpt>
      <trkpt lat="53.17715" lon="7.30019">
        <ele>48.236971</ele>
        <time>2024-07-12T07:21:38.846Z</time>
      </trkpt>
      <trkpt lat="53.17711" lon="7.30038">
        <ele>48.309067</ele>
        <time>2024-07-12T07:21:41.841Z</time>
      </trkpt>
      <trkpt lat="53.17706" lon="7.30058">
        <ele>48.386149</ele>
        <time>2024-07-12T07:21:44.834Z</time>
      </trkpt>
      <trkpt lat="53.17701" lon="7.30078">
        <ele>48.465641</ele>
        <time>2024-07-12T07:21:47.856Z</time>
      </trkpt>
      <trkpt lat="53.17696" lon="7.30098">
        <ele>48.54126</ele>
        <time>2024-07-12T07:21:50.852Z</time>
      </trkpt>
      <trkpt lat="53.17691" lon="7.30117">
        <ele>48.615241</ele>
        <time>2024-07-12T07:21:53.864Z</time>
      </trkpt>
      <trkpt lat="53.17686" lon="7.30137">
        <ele>48.691079</ele>
        <time>2024-07-12T07:21:56.845Z</time>
      </trkpt>
      <trkpt lat="53.17681" lon="7.30156">
        <ele>48.752369</ele>
        <time>2024-07-12T07:21:59.847Z</time>
      </trkpt>
      <trkpt lat="53.17676" lon="7.30176">
        <ele>48.736561</ele>
        <time>2024-07-12T07:22:02.853Z</time>
      </trkpt>
      <trkpt lat="53.17671" lon="7.30195">
        <ele>48.720646</ele>
        <time>2024-07-12T07:22:05.840Z</time>
      </trkpt>
      <trkpt lat="53.17665" lon="7.30212">
        <ele>48.705687</ele>
        <time>2024-07-12T07:22:08.856Z</time>
      </trkpt>
      <trkpt lat="53.1766" lon="7.30227">
        <ele>48.693125</ele>
        <time>2024-07-12T07:22:11.822Z</time>
      </trkpt>
      <trkpt lat="53.17652" lon="7.30235">
        <ele>48.681012</ele>
        <time>2024-07-12T07:22:16.849Z</time>
      </trkpt>
      <trkpt lat="53.17642" lon="7.30247">
        <ele>48.66626</ele>
        <time>2024-07-12T07:22:37.861Z</time>
      </trkpt>
      <trkpt lat="53.17641" lon="7.30264">
        <ele>48.653068</ele>
        <time>2024-07-12T07:22:41.827Z</time>
      </trkpt>
      <trkpt lat="53.17643" lon="7.30285">
        <ele>48.637648</ele>
        <time>2024-07-12T07:22:45.830Z</time>
      </trkpt>
      <trkpt lat="53.17643" lon="7.30302">
        <ele>48.624579</ele>
        <time>2024-07-12T07:22:48.861Z</time>
      </trkpt>
      <trkpt lat="53.17641" lon="7.30322">
        <ele>48.608965</ele>
        <time>2024-07-12T07:22:51.839Z</time>
      </trkpt>
      <trkpt lat="53.17638" lon="7.30342">
        <ele>48.593423</ele>
        <time>2024-07-12T07:22:54.846Z</time>
      </trkpt>
      <trkpt lat="53.17634" lon="7.30362">
        <ele>48.577761</ele>
        <time>2024-07-12T07:22:57.846Z</time>
      </trkpt>
      <trkpt lat="53.17631" lon="7.30376">
        <ele>48.566422</ele>
        <time>2024-07-12T07:22:59.857Z</time>
      </trkpt>
      <trkpt lat="53.17627" lon="7.30391">
        <ele>48.554655</ele>
        <time>2024-07-12T07:23:01.846Z</time>
      </trkpt>
      <trkpt lat="53.17623" lon="7.30405">
        <ele>48.542914</ele>
        <time>2024-07-12T07:23:03.836Z</time>
      </trkpt>
      <trkpt lat="53.1762" lon="7.3042">
        <ele>48.530799</ele>
        <time>2024-07-12T07:23:05.846Z</time>
      </trkpt>
      <trkpt lat="53.17616" lon="7.30436">
        <ele>48.519389</ele>
        <time>2024-07-12T07:23:07.845Z</time>
      </trkpt>
      <trkpt lat="53.17613" lon="7.3045">
        <ele>48.508451</ele>
        <time>2024-07-12T07:23:09.861Z</time>
      </trkpt>
      <trkpt lat="53.17609" lon="7.30465">
        <ele>48.497386</ele>
        <time>2024-07-12T07:23:11.838Z</time>
      </trkpt>
      <trkpt lat="53.17604" lon="7.3048">
        <ele>48.485962</ele>
        <time>2024-07-12T07:23:13.837Z</time>
      </trkpt>
      <trkpt lat="53.176" lon="7.30494">
        <ele>48.475057</ele>
        <time>2024-07-12T07:23:15.839Z</time>
      </trkpt>
      <trkpt lat="53.17597" lon="7.3051">
        <ele>48.463319</ele>
        <time>2024-07-12T07:23:17.852Z</time>
      </trkpt>
      <trkpt lat="53.17594" lon="7.30526">
        <ele>48.452071</ele>
        <time>2024-07-12T07:23:19.836Z</time>
      </trkpt>
      <trkpt lat="53.17592" lon="7.30542">
        <ele>48.440632</ele>
        <time>2024-07-12T07:23:21.839Z</time>
      </trkpt>
      <trkpt lat="53.17588" lon="7.30558">
        <ele>48.429116</ele>
        <time>2024-07-12T07:23:23.838Z</time>
      </trkpt>
      <trkpt lat="53.17585" lon="7.30573">
        <ele>48.418031</ele>
        <time>2024-07-12T07:23:25.852Z</time>
      </trkpt>
      <trkpt lat="53.17581" lon="7.30588">
        <ele>48.406706</ele>
        <time>2024-07-12T07:23:27.843Z</time>
      </trkpt>
      <trkpt lat="53.17577" lon="7.30604">
        <ele>48.395388</ele>
        <time>2024-07-12T07:23:29.840Z</time>
      </trkpt>
      <trkpt lat="53.17574" lon="7.30618">
        <ele>48.384601</ele>
        <time>2024-07-12T07:23:31.841Z</time>
      </trkpt>
      <trkpt lat="53.1757" lon="7.30634">
        <ele>48.372581</ele>
        <time>2024-07-12T07:23:33.831Z</time>
      </trkpt>
      <trkpt lat="53.17566" lon="7.3065">
        <ele>48.361049</ele>
        <time>2024-07-12T07:23:35.847Z</time>
      </trkpt>
      <trkpt lat="53.17562" lon="7.30665">
        <ele>48.349622</ele>
        <time>2024-07-12T07:23:37.841Z</time>
      </trkpt>
      <trkpt lat="53.17558" lon="7.30682">
        <ele>48.337729</ele>
        <time>2024-07-12T07:23:39.819Z</time>
      </trkpt>
      <trkpt lat="53.17555" lon="7.30699">
        <ele>48.325535</ele>
        <time>2024-07-12T07:23:41.852Z</time>
      </trkpt>
      <trkpt lat="53.17551" lon="7.30714">
        <ele>48.257362</ele>
        <time>2024-07-12T07:23:43.845Z</time>
      </trkpt>
      <trkpt lat="53.17548" lon="7.30729">
        <ele>48.17976</ele>
        <time>2024-07-12T07:23:45.839Z</time>
      </trkpt>
      <trkpt lat="53.17544" lon="7.30746">
        <ele>48.097205</ele>
        <time>2024-07-12T07:23:47.861Z</time>
      </trkpt>
      <trkpt lat="53.1754" lon="7.30762">
        <ele>48.015682</ele>
        <time>2024-07-12T07:23:49.845Z</time>
      </trkpt>
      <trkpt lat="53.17536" lon="7.30778">
        <ele>47.935029</ele>
        <time>2024-07-12T07:23:51.819Z</time>
      </trkpt>
      <trkpt lat="53.17532" lon="7.30793">
        <ele>47.855244</ele>
        <time>2024-07-12T07:23:53.861Z</time>
      </trkpt>
      <trkpt lat="53.17529" lon="7.30809">
        <ele>47.775608</ele>
        <time>2024-07-12T07:23:55.842Z</time>
      </trkpt>
      <trkpt lat="53.17526" lon="7.30824">
        <ele>47.703595</ele>
        <time>2024-07-12T07:23:57.859Z</time>
      </trkpt>
      <trkpt lat="53.17521" lon="7.30844">
        <ele>47.60289</ele>
        <time>2024-07-12T07:24:00.852Z</time>
      </trkpt>
      <trkpt lat="53.17517" lon="7.30861">
        <ele>47.515949</ele>
        <time>2024-07-12T07:24:03.841Z</time>
      </trkpt>
      <trkpt lat="53.17513" lon="7.30875">
        <ele>47.43965</ele>
        <time>2024-07-12T07:24:06.855Z</time>
      </trkpt>
      <trkpt lat="53.17502" lon="7.3088">
        <ele>47.354966</ele>
        <time>2024-07-12T07:24:09.839Z</time>
      </trkpt>
      <trkpt lat="53.17491" lon="7.30868">
        <ele>47.250049</ele>
        <time>2024-07-12T07:24:12.849Z</time>
      </trkpt>
      <trkpt lat="53.17479" lon="7.30858">
        <ele>47.146311</ele>
        <time>2024-07-12T07:24:15.857Z</time>
      </trkpt>
      <trkpt lat="53.17467" lon="7.30849">
        <ele>47.040344</ele>
        <time>2024-07-12T07:24:18.847Z</time>
      </trkpt>
      <trkpt lat="53.17458" lon="7.30842">
        <ele>46.965339</ele>
        <time>2024-07-12T07:24:20.861Z</time>
      </trkpt>
      <trkpt lat="53.17449" lon="7.30835">
        <ele>46.908914</ele>
        <time>2024-07-12T07:24:22.855Z</time>
      </trkpt>
      <trkpt lat="53.17441" lon="7.30829">
        <ele>46.889982</ele>
        <time>2024-07-12T07:24:24.876Z</time>
      </trkpt>
      <trkpt lat="53.17433" lon="7.30822">
        <ele>46.870678</ele>
        <time>2024-07-12T07:24:26.843Z</time>
      </trkpt>
      <trkpt lat="53.17424" lon="7.30816">
        <ele>46.850818</ele>
        <time>2024-07-12T07:24:28.881Z</time>
      </trkpt>
      <trkpt lat="53.17415" lon="7.3081">
        <ele>46.831247</ele>
        <time>2024-07-12T07:24:30.865Z</time>
      </trkpt>
      <trkpt lat="53.17407" lon="7.30803">
        <ele>46.811943</ele>
        <time>2024-07-12T07:24:32.856Z</time>
      </trkpt>
      <trkpt lat="53.17398" lon="7.30796">
        <ele>46.792662</ele>
        <time>2024-07-12T07:24:34.862Z</time>
      </trkpt>
      <trkpt lat="53.17386" lon="7.30787">
        <ele>46.765224</ele>
        <time>2024-07-12T07:24:37.861Z</time>
      </trkpt>
      <trkpt lat="53.17374" lon="7.30777">
        <ele>46.73792</ele>
        <time>2024-07-12T07:24:40.867Z</time>
      </trkpt>
      <trkpt lat="53.17366" lon="7.30771">
        <ele>46.718929</ele>
        <time>2024-07-12T07:24:42.863Z</time>
      </trkpt>
      <trkpt lat="53.17358" lon="7.30764">
        <ele>46.699515</ele>
        <time>2024-07-12T07:24:44.859Z</time>
      </trkpt>
      <trkpt lat="53.17349" lon="7.30758">
        <ele>46.679907</ele>
        <time>2024-07-12T07:24:46.866Z</time>
      </trkpt>
      <trkpt lat="53.1734" lon="7.30751">
        <ele>46.659936</ele>
        <time>2024-07-12T07:24:48.850Z</time>
      </trkpt>
      <trkpt lat="53.17332" lon="7.30744">
        <ele>46.640926</ele>
        <time>2024-07-12T07:24:50.861Z</time>
      </trkpt>
      <trkpt lat="53.17323" lon="7.30739">
        <ele>46.622269</ele>
        <time>2024-07-12T07:24:52.853Z</time>
      </trkpt>
      <trkpt lat="53.17312" lon="7.30729">
        <ele>46.595627</ele>
        <time>2024-07-12T07:24:55.860Z</time>
      </trkpt>
      <trkpt lat="53.173" lon="7.3072">
        <ele>46.567415</ele>
        <time>2024-07-12T07:24:58.851Z</time>
      </trkpt>
      <trkpt lat="53.17287" lon="7.30711">
        <ele>46.529956</ele>
        <time>2024-07-12T07:25:01.853Z</time>
      </trkpt>
      <trkpt lat="53.17276" lon="7.30702">
        <ele>46.417287</ele>
        <time>2024-07-12T07:25:04.866Z</time>
      </trkpt>
      <trkpt lat="53.17268" lon="7.30695">
        <ele>46.33631</ele>
        <time>2024-07-12T07:25:06.863Z</time>
      </trkpt>
      <trkpt lat="53.17256" lon="7.30686">
        <ele>46.223986</ele>
        <time>2024-07-12T07:25:09.850Z</time>
      </trkpt>
      <trkpt lat="53.17244" lon="7.30677">
        <ele>46.10905</ele>
        <time>2024-07-12T07:25:12.856Z</time>
      </trkpt>
      <trkpt lat="53.17232" lon="7.30668">
        <ele>45.991568</ele>
        <time>2024-07-12T07:25:15.851Z</time>
      </trkpt>
      <trkpt lat="53.17219" lon="7.30659">
        <ele>45.87147</ele>
        <time>2024-07-12T07:25:18.866Z</time>
      </trkpt>
      <trkpt lat="53.17211" lon="7.30653">
        <ele>45.789555</ele>
        <time>2024-07-12T07:25:20.861Z</time>
      </trkpt>
      <trkpt lat="53.17199" lon="7.30643">
        <ele>45.673466</ele>
        <time>2024-07-12T07:25:23.860Z</time>
      </trkpt>
      <trkpt lat="53.17187" lon="7.30635">
        <ele>45.559259</ele>
        <time>2024-07-12T07:25:26.844Z</time>
      </trkpt>
      <trkpt lat="53.17176" lon="7.30627">
        <ele>45.453576</ele>
        <time>2024-07-12T07:25:29.866Z</time>
      </trkpt>
      <trkpt lat="53.17165" lon="7.30621">
        <ele>45.354969</ele>
        <time>2024-07-12T07:25:32.856Z</time>
      </trkpt>
      <trkpt lat="53.17156" lon="7.30625">
        <ele>45.267565</ele>
        <time>2024-07-12T07:25:35.840Z</time>
      </trkpt>
      <trkpt lat="53.17146" lon="7.30638">
        <ele>45.155298</ele>
        <time>2024-07-12T07:25:38.849Z</time>
      </trkpt>
      <trkpt lat="53.17138" lon="7.30647">
        <ele>45.069878</ele>
        <time>2024-07-12T07:25:40.880Z</time>
      </trkpt>
      <trkpt lat="53.1713" lon="7.30656">
        <ele>44.983828</ele>
        <time>2024-07-12T07:25:42.860Z</time>
      </trkpt>
      <trkpt lat="53.1712" lon="7.30665">
        <ele>44.856452</ele>
        <time>2024-07-12T07:25:44.865Z</time>
      </trkpt>
      <trkpt lat="53.17112" lon="7.30673">
        <ele>44.728559</ele>
        <time>2024-07-12T07:25:46.852Z</time>
      </trkpt>
      <trkpt lat="53.17104" lon="7.30682">
        <ele>44.598156</ele>
        <time>2024-07-12T07:25:48.861Z</time>
      </trkpt>
      <trkpt lat="53.17094" lon="7.3069">
        <ele>44.461099</ele>
        <time>2024-07-12T07:25:50.850Z</time>
      </trkpt>
      <trkpt lat="53.17086" lon="7.30698">
        <ele>44.330917</ele>
        <time>2024-07-12T07:25:52.862Z</time>
      </trkpt>
      <trkpt lat="53.17078" lon="7.30706">
        <ele>44.206433</ele>
        <time>2024-07-12T07:25:54.862Z</time>
      </trkpt>
      <trkpt lat="53.17068" lon="7.30715">
        <ele>44.067459</ele>
        <time>2024-07-12T07:25:56.851Z</time>
      </trkpt>
      <trkpt lat="53.1706" lon="7.30724">
        <ele>43.936363</ele>
        <time>2024-07-12T07:25:58.853Z</time>
      </trkpt>
      <trkpt lat="53.17051" lon="7.30733">
        <ele>43.802057</ele>
        <time>2024-07-12T07:26:00.866Z</time>
      </trkpt>
      <trkpt lat="53.17043" lon="7.30743">
        <ele>43.66689</ele>
        <time>2024-07-12T07:26:02.862Z</time>
      </trkpt>
      <trkpt lat="53.17034" lon="7.30752">
        <ele>43.532739</ele>
        <time>2024-07-12T07:26:04.867Z</time>
      </trkpt>
      <trkpt lat="53.17025" lon="7.30761">
        <ele>43.396226</ele>
        <time>2024-07-12T07:26:06.862Z</time>
      </trkpt>
      <trkpt lat="53.17016" lon="7.3077">
        <ele>43.261047</ele>
        <time>2024-07-12T07:26:08.868Z</time>
      </trkpt>
      <trkpt lat="53.17008" lon="7.30779">
        <ele>43.12648</ele>
        <time>2024-07-12T07:26:10.853Z</time>
      </trkpt>
      <trkpt lat="53.17001" lon="7.30793">
        <ele>42.988412</ele>
        <time>2024-07-12T07:26:12.867Z</time>
      </trkpt>
      <trkpt lat="53.16997" lon="7.3081">
        <ele>42.842485</ele>
        <time>2024-07-12T07:26:14.843Z</time>
      </trkpt>
      <trkpt lat="53.16993" lon="7.30827">
        <ele>42.697012</ele>
        <time>2024-07-12T07:26:16.835Z</time>
      </trkpt>
      <trkpt lat="53.16989" lon="7.30844">
        <ele>42.599497</ele>
        <time>2024-07-12T07:26:18.847Z</time>
      </trkpt>
      <trkpt lat="53.16985" lon="7.30861">
        <ele>42.592166</ele>
        <time>2024-07-12T07:26:20.860Z</time>
      </trkpt>
      <trkpt lat="53.16982" lon="7.30878">
        <ele>42.585085</ele>
        <time>2024-07-12T07:26:22.865Z</time>
      </trkpt>
      <trkpt lat="53.16978" lon="7.30893">
        <ele>42.578405</ele>
        <time>2024-07-12T07:26:24.857Z</time>
      </trkpt>
      <trkpt lat="53.16974" lon="7.30909">
        <ele>42.571713</ele>
        <time>2024-07-12T07:26:26.860Z</time>
      </trkpt>
      <trkpt lat="53.16971" lon="7.30923">
        <ele>42.56559</ele>
        <time>2024-07-12T07:26:28.872Z</time>
      </trkpt>
      <trkpt lat="53.16967" lon="7.30943">
        <ele>42.556836</ele>
        <time>2024-07-12T07:26:31.858Z</time>
      </trkpt>
      <trkpt lat="53.16963" lon="7.30964">
        <ele>42.548127</ele>
        <time>2024-07-12T07:26:34.876Z</time>
      </trkpt>
      <trkpt lat="53.16958" lon="7.30983">
        <ele>42.539646</ele>
        <time>2024-07-12T07:26:37.869Z</time>
      </trkpt>
      <trkpt lat="53.16953" lon="7.31002">
        <ele>42.531095</ele>
        <time>2024-07-12T07:26:40.859Z</time>
      </trkpt>
      <trkpt lat="53.16949" lon="7.3102">
        <ele>42.5233</ele>
        <time>2024-07-12T07:26:43.872Z</time>
      </trkpt>
      <trkpt lat="53.16945" lon="7.31038">
        <ele>42.515626</ele>
        <time>2024-07-12T07:26:46.867Z</time>
      </trkpt>
      <trkpt lat="53.1694" lon="7.31057">
        <ele>42.507419</ele>
        <time>2024-07-12T07:26:49.856Z</time>
      </trkpt>
      <trkpt lat="53.16935" lon="7.31077">
        <ele>42.498774</ele>
        <time>2024-07-12T07:26:52.876Z</time>
      </trkpt>
      <trkpt lat="53.16931" lon="7.31097">
        <ele>42.490287</ele>
        <time>2024-07-12T07:26:55.868Z</time>
      </trkpt>
      <trkpt lat="53.16928" lon="7.31117">
        <ele>42.48179</ele>
        <time>2024-07-12T07:26:58.856Z</time>
      </trkpt>
      <trkpt lat="53.16923" lon="7.31135">
        <ele>42.485299</ele>
        <time>2024-07-12T07:27:01.859Z</time>
      </trkpt>
      <trkpt lat="53.16918" lon="7.31154">
        <ele>42.490681</ele>
        <time>2024-07-12T07:27:04.864Z</time>
      </trkpt>
      <trkpt lat="53.16914" lon="7.31175">
        <ele>42.49634</ele>
        <time>2024-07-12T07:27:07.860Z</time>
      </trkpt>
      <trkpt lat="53.16909" lon="7.31195">
        <ele>42.501892</ele>
        <time>2024-07-12T07:27:10.863Z</time>
      </trkpt>
      <trkpt lat="53.16905" lon="7.31215">
        <ele>42.507555</ele>
        <time>2024-07-12T07:27:13.864Z</time>
      </trkpt>
      <trkpt lat="53.169" lon="7.31236">
        <ele>42.513386</ele>
        <time>2024-07-12T07:27:16.850Z</time>
      </trkpt>
      <trkpt lat="53.16895" lon="7.31257">
        <ele>42.518957</ele>
        <time>2024-07-12T07:27:19.852Z</time>
      </trkpt>
      <trkpt lat="53.16892" lon="7.31271">
        <ele>42.522897</ele>
        <time>2024-07-12T07:27:21.865Z</time>
      </trkpt>
      <trkpt lat="53.16887" lon="7.31291">
        <ele>42.528465</ele>
        <time>2024-07-12T07:27:24.867Z</time>
      </trkpt>
      <trkpt lat="53.16883" lon="7.31312">
        <ele>42.534191</ele>
        <time>2024-07-12T07:27:27.842Z</time>
      </trkpt>
      <trkpt lat="53.16879" lon="7.31332">
        <ele>42.539693</ele>
        <time>2024-07-12T07:27:30.868Z</time>
      </trkpt>
      <trkpt lat="53.16873" lon="7.31352">
        <ele>42.545382</ele>
        <time>2024-07-12T07:27:33.862Z</time>
      </trkpt>
      <trkpt lat="53.16868" lon="7.31372">
        <ele>42.551085</ele>
        <time>2024-07-12T07:27:36.864Z</time>
      </trkpt>
      <trkpt lat="53.16864" lon="7.31393">
        <ele>42.556701</ele>
        <time>2024-07-12T07:27:39.856Z</time>
      </trkpt>
      <trkpt lat="53.16868" lon="7.31413">
        <ele>42.660449</ele>
        <time>2024-07-12T07:27:42.849Z</time>
      </trkpt>
      <trkpt lat="53.16872" lon="7.31432">
        <ele>42.80511</ele>
        <time>2024-07-12T07:27:45.857Z</time>
      </trkpt>
      <trkpt lat="53.16876" lon="7.31452">
        <ele>42.956494</ele>
        <time>2024-07-12T07:27:48.863Z</time>
      </trkpt>
      <trkpt lat="53.16879" lon="7.31472">
        <ele>43.103093</ele>
        <time>2024-07-12T07:27:51.863Z</time>
      </trkpt>
      <trkpt lat="53.16881" lon="7.31492">
        <ele>43.247762</ele>
        <time>2024-07-12T07:27:54.854Z</time>
      </trkpt>
      <trkpt lat="53.16883" lon="7.31512">
        <ele>43.394245</ele>
        <time>2024-07-12T07:27:57.854Z</time>
      </trkpt>
      <trkpt lat="53.16885" lon="7.31534">
        <ele>43.547558</ele>
        <time>2024-07-12T07:28:00.861Z</time>
      </trkpt>
      <trkpt lat="53.16891" lon="7.31551">
        <ele>43.692591</ele>
        <time>2024-07-12T07:28:03.843Z</time>
      </trkpt>
      <trkpt lat="53.16901" lon="7.31563">
        <ele>43.832845</ele>
        <time>2024-07-12T07:28:06.839Z</time>
      </trkpt>
      <trkpt lat="53.16911" lon="7.31573">
        <ele>43.978551</ele>
        <time>2024-07-12T07:28:09.870Z</time>
      </trkpt>
      <trkpt lat="53.16923" lon="7.31581">
        <ele>44.128251</ele>
        <time>2024-07-12T07:28:12.876Z</time>
      </trkpt>
      <trkpt lat="53.16934" lon="7.3159">
        <ele>44.270557</ele>
        <time>2024-07-12T07:28:15.869Z</time>
      </trkpt>
      <trkpt lat="53.16935" lon="7.31608">
        <ele>44.405117</ele>
        <time>2024-07-12T07:28:18.857Z</time>
      </trkpt>
      <trkpt lat="53.16931" lon="7.31626">
        <ele>44.536518</ele>
        <time>2024-07-12T07:28:21.840Z</time>
      </trkpt>
      <trkpt lat="53.16926" lon="7.31644">
        <ele>44.674569</ele>
        <time>2024-07-12T07:28:24.876Z</time>
      </trkpt>
      <trkpt lat="53.16922" lon="7.31662">
        <ele>44.713995</ele>
        <time>2024-07-12T07:28:27.945Z</time>
      </trkpt>
      <trkpt lat="53.16919" lon="7.31678">
        <ele>44.729764</ele>
        <time>2024-07-12T07:28:30.853Z</time>
      </trkpt>
      <trkpt lat="53.16916" lon="7.31693">
        <ele>44.744917</ele>
        <time>2024-07-12T07:28:33.868Z</time>
      </trkpt>
      <trkpt lat="53.16911" lon="7.31709">
        <ele>44.762173</ele>
        <time>2024-07-12T07:28:36.872Z</time>
      </trkpt>
      <trkpt lat="53.16907" lon="7.31728">
        <ele>44.781131</ele>
        <time>2024-07-12T07:28:39.861Z</time>
      </trkpt>
      <trkpt lat="53.16902" lon="7.31748">
        <ele>44.801421</ele>
        <time>2024-07-12T07:28:42.862Z</time>
      </trkpt>
      <trkpt lat="53.16898" lon="7.31768">
        <ele>44.820712</ele>
        <time>2024-07-12T07:28:45.869Z</time>
      </trkpt>
      <trkpt lat="53.16893" lon="7.31788">
        <ele>44.841295</ele>
        <time>2024-07-12T07:28:48.878Z</time>
      </trkpt>
      <trkpt lat="53.1689" lon="7.31802">
        <ele>44.855433</ele>
        <time>2024-07-12T07:28:50.861Z</time>
      </trkpt>
      <trkpt lat="53.16885" lon="7.31823">
        <ele>44.876161</ele>
        <time>2024-07-12T07:28:53.858Z</time>
      </trkpt>
      <trkpt lat="53.1688" lon="7.31843">
        <ele>44.896337</ele>
        <time>2024-07-12T07:28:56.851Z</time>
      </trkpt>
      <trkpt lat="53.16877" lon="7.31857">
        <ele>44.910509</ele>
        <time>2024-07-12T07:28:58.861Z</time>
      </trkpt>
      <trkpt lat="53.16872" lon="7.31877">
        <ele>44.930861</ele>
        <time>2024-07-12T07:29:01.859Z</time>
      </trkpt>
      <trkpt lat="53.16868" lon="7.31898">
        <ele>44.951533</ele>
        <time>2024-07-12T07:29:04.857Z</time>
      </trkpt>
      <trkpt lat="53.16863" lon="7.31918">
        <ele>44.971736</ele>
        <time>2024-07-12T07:29:07.858Z</time>
      </trkpt>
      <trkpt lat="53.16859" lon="7.31939">
        <ele>44.987303</ele>
        <time>2024-07-12T07:29:10.862Z</time>
      </trkpt>
      <trkpt lat="53.16854" lon="7.31961">
        <ele>44.999163</ele>
        <time>2024-07-12T07:29:13.868Z</time>
      </trkpt>
      <trkpt lat="53.16851" lon="7.31975">
        <ele>45.007058</ele>
        <time>2024-07-12T07:29:15.865Z</time>
      </trkpt>
      <trkpt lat="53.16846" lon="7.31995">
        <ele>45.018663</ele>
        <time>2024-07-12T07:29:18.873Z</time>
      </trkpt>
      <trkpt lat="53.16841" lon="7.32016">
        <ele>45.030213</ele>
        <time>2024-07-12T07:29:21.859Z</time>
      </trkpt>
      <trkpt lat="53.16838" lon="7.32031">
        <ele>45.038121</ele>
        <time>2024-07-12T07:29:23.876Z</time>
      </trkpt>
      <trkpt lat="53.16834" lon="7.32051">
        <ele>45.04931</ele>
        <time>2024-07-12T07:29:26.872Z</time>
      </trkpt>
      <trkpt lat="53.16829" lon="7.32071">
        <ele>45.060801</ele>
        <time>2024-07-12T07:29:29.864Z</time>
      </trkpt>
      <trkpt lat="53.16826" lon="7.32086">
        <ele>45.068836</ele>
        <time>2024-07-12T07:29:31.849Z</time>
      </trkpt>
      <trkpt lat="53.16821" lon="7.32107">
        <ele>45.080262</ele>
        <time>2024-07-12T07:29:34.884Z</time>
      </trkpt>
      <trkpt lat="53.16816" lon="7.32126">
        <ele>45.091207</ele>
        <time>2024-07-12T07:29:37.859Z</time>
      </trkpt>
      <trkpt lat="53.16812" lon="7.32146">
        <ele>45.102386</ele>
        <time>2024-07-12T07:29:40.877Z</time>
      </trkpt>
      <trkpt lat="53.16807" lon="7.32167">
        <ele>45.113545</ele>
        <time>2024-07-12T07:29:43.862Z</time>
      </trkpt>
      <trkpt lat="53.16803" lon="7.32185">
        <ele>45.124136</ele>
        <time>2024-07-12T07:29:46.880Z</time>
      </trkpt>
      <trkpt lat="53.16795" lon="7.32195">
        <ele>45.132671</ele>
        <time>2024-07-12T07:29:49.846Z</time>
      </trkpt>
      <trkpt lat="53.16794" lon="7.32214">
        <ele>45.130119</ele>
        <time>2024-07-12T07:29:54.871Z</time>
      </trkpt>
      <trkpt lat="53.16789" lon="7.32228">
        <ele>45.121484</ele>
        <time>2024-07-12T07:29:58.856Z</time>
      </trkpt>
      <trkpt lat="53.1678" lon="7.32228">
        <ele>45.113352</ele>
        <time>2024-07-12T07:30:01.854Z</time>
      </trkpt>
      <trkpt lat="53.1677" lon="7.32227">
        <ele>45.104671</ele>
        <time>2024-07-12T07:30:28.856Z</time>
      </trkpt>
      <trkpt lat="53.16759" lon="7.32229">
        <ele>45.09518</ele>
        <time>2024-07-12T07:30:34.876Z</time>
      </trkpt>
      <trkpt lat="53.16748" lon="7.32228">
        <ele>45.085012</ele>
        <time>2024-07-12T07:30:39.855Z</time>
      </trkpt>
      <trkpt lat="53.16739" lon="7.32229">
        <ele>45.076683</ele>
        <time>2024-07-12T07:30:42.866Z</time>
      </trkpt>
      <trkpt lat="53.16731" lon="7.32239">
        <ele>45.068026</ele>
        <time>2024-07-12T07:30:45.857Z</time>
      </trkpt>
      <trkpt lat="53.16727" lon="7.32256">
        <ele>45.058642</ele>
        <time>2024-07-12T07:30:48.852Z</time>
      </trkpt>
      <trkpt lat="53.16722" lon="7.32274">
        <ele>45.048236</ele>
        <time>2024-07-12T07:30:51.853Z</time>
      </trkpt>
      <trkpt lat="53.16718" lon="7.32291">
        <ele>45.038019</ele>
        <time>2024-07-12T07:30:54.856Z</time>
      </trkpt>
      <trkpt lat="53.16714" lon="7.32311">
        <ele>45.026976</ele>
        <time>2024-07-12T07:30:57.865Z</time>
      </trkpt>
      <trkpt lat="53.16709" lon="7.32331">
        <ele>45.015643</ele>
        <time>2024-07-12T07:31:00.870Z</time>
      </trkpt>
      <trkpt lat="53.16704" lon="7.32351">
        <ele>45.00398</ele>
        <time>2024-07-12T07:31:03.855Z</time>
      </trkpt>
      <trkpt lat="53.16701" lon="7.32366">
        <ele>44.995881</ele>
        <time>2024-07-12T07:31:05.866Z</time>
      </trkpt>
      <trkpt lat="53.16697" lon="7.32387">
        <ele>44.984194</ele>
        <time>2024-07-12T07:31:08.851Z</time>
      </trkpt>
      <trkpt lat="53.16693" lon="7.32401">
        <ele>44.984808</ele>
        <time>2024-07-12T07:31:10.861Z</time>
      </trkpt>
      <trkpt lat="53.1669" lon="7.32416">
        <ele>45.025672</ele>
        <time>2024-07-12T07:31:12.878Z</time>
      </trkpt>
      <trkpt lat="53.16687" lon="7.3243">
        <ele>45.065783</ele>
        <time>2024-07-12T07:31:14.876Z</time>
      </trkpt>
      <trkpt lat="53.16684" lon="7.32444">
        <ele>45.106957</ele>
        <time>2024-07-12T07:31:16.853Z</time>
      </trkpt>
      <trkpt lat="53.16681" lon="7.32459">
        <ele>45.148178</ele>
        <time>2024-07-12T07:31:18.871Z</time>
      </trkpt>
      <trkpt lat="53.16677" lon="7.32473">
        <ele>45.190443</ele>
        <time>2024-07-12T07:31:20.868Z</time>
      </trkpt>
      <trkpt lat="53.16674" lon="7.32488">
        <ele>45.231711</ele>
        <time>2024-07-12T07:31:22.856Z</time>
      </trkpt>
      <trkpt lat="53.16671" lon="7.32502">
        <ele>45.272679</ele>
        <time>2024-07-12T07:31:24.854Z</time>
      </trkpt>
      <trkpt lat="53.16668" lon="7.32517">
        <ele>45.313795</ele>
        <time>2024-07-12T07:31:26.877Z</time>
      </trkpt>
      <trkpt lat="53.16664" lon="7.32532">
        <ele>45.356039</ele>
        <time>2024-07-12T07:31:28.857Z</time>
      </trkpt>
      <trkpt lat="53.16661" lon="7.32546">
        <ele>45.397463</ele>
        <time>2024-07-12T07:31:30.854Z</time>
      </trkpt>
      <trkpt lat="53.16657" lon="7.32561">
        <ele>45.439552</ele>
        <time>2024-07-12T07:31:32.852Z</time>
      </trkpt>
      <trkpt lat="53.16654" lon="7.32575">
        <ele>45.480884</ele>
        <time>2024-07-12T07:31:34.867Z</time>
      </trkpt>
      <trkpt lat="53.16651" lon="7.3259">
        <ele>45.521601</ele>
        <time>2024-07-12T07:31:36.864Z</time>
      </trkpt>
      <trkpt lat="53.16648" lon="7.32604">
        <ele>45.561867</ele>
        <time>2024-07-12T07:31:38.848Z</time>
      </trkpt>
      <trkpt lat="53.16643" lon="7.32623">
        <ele>45.618415</ele>
        <time>2024-07-12T07:31:41.869Z</time>
      </trkpt>
      <trkpt lat="53.16639" lon="7.32642">
        <ele>45.672097</ele>
        <time>2024-07-12T07:31:44.870Z</time>
      </trkpt>
      <trkpt lat="53.16634" lon="7.3266">
        <ele>45.72484</ele>
        <time>2024-07-12T07:31:47.857Z</time>
      </trkpt>
      <trkpt lat="53.1663" lon="7.32678">
        <ele>45.775107</ele>
        <time>2024-07-12T07:31:50.870Z</time>
      </trkpt>
      <trkpt lat="53.16626" lon="7.32699">
        <ele>45.761124</ele>
        <time>2024-07-12T07:31:53.842Z</time>
      </trkpt>
      <trkpt lat="53.16621" lon="7.32718">
        <ele>45.744125</ele>
        <time>2024-07-12T07:31:56.861Z</time>
      </trkpt>
      <trkpt lat="53.16617" lon="7.32737">
        <ele>45.727346</ele>
        <time>2024-07-12T07:31:59.852Z</time>
      </trkpt>
      <trkpt lat="53.16613" lon="7.32757">
        <ele>45.710239</ele>
        <time>2024-07-12T07:32:02.856Z</time>
      </trkpt>
      <trkpt lat="53.16608" lon="7.32773">
        <ele>45.694979</ele>
        <time>2024-07-12T07:32:05.861Z</time>
      </trkpt>
      <trkpt lat="53.16606" lon="7.32791">
        <ele>45.679462</ele>
        <time>2024-07-12T07:32:08.851Z</time>
      </trkpt>
      <trkpt lat="53.16602" lon="7.32808">
        <ele>45.664484</ele>
        <time>2024-07-12T07:32:11.831Z</time>
      </trkpt>
      <trkpt lat="53.16598" lon="7.32829">
        <ele>45.646385</ele>
        <time>2024-07-12T07:32:14.862Z</time>
      </trkpt>
      <trkpt lat="53.16593" lon="7.32847">
        <ele>45.629644</ele>
        <time>2024-07-12T07:32:17.863Z</time>
      </trkpt>
      <trkpt lat="53.16588" lon="7.32865">
        <ele>45.613506</ele>
        <time>2024-07-12T07:32:20.856Z</time>
      </trkpt>
      <trkpt lat="53.16583" lon="7.32883">
        <ele>45.596819</ele>
        <time>2024-07-12T07:32:23.859Z</time>
      </trkpt>
      <trkpt lat="53.16579" lon="7.32903">
        <ele>45.579538</ele>
        <time>2024-07-12T07:32:26.860Z</time>
      </trkpt>
      <trkpt lat="53.16575" lon="7.32923">
        <ele>45.561884</ele>
        <time>2024-07-12T07:32:29.857Z</time>
      </trkpt>
      <trkpt lat="53.1657" lon="7.32942">
        <ele>45.545172</ele>
        <time>2024-07-12T07:32:32.859Z</time>
      </trkpt>
      <trkpt lat="53.16567" lon="7.32958">
        <ele>45.530858</ele>
        <time>2024-07-12T07:32:35.860Z</time>
      </trkpt>
      <trkpt lat="53.16563" lon="7.32976">
        <ele>45.570335</ele>
        <time>2024-07-12T07:32:38.838Z</time>
      </trkpt>
      <trkpt lat="53.16559" lon="7.32994">
        <ele>45.613827</ele>
        <time>2024-07-12T07:32:41.856Z</time>
      </trkpt>
      <trkpt lat="53.16555" lon="7.33009">
        <ele>45.653058</ele>
        <time>2024-07-12T07:32:44.853Z</time>
      </trkpt>
      <trkpt lat="53.16551" lon="7.33026">
        <ele>45.693117</ele>
        <time>2024-07-12T07:32:47.853Z</time>
      </trkpt>
      <trkpt lat="53.16547" lon="7.33045">
        <ele>45.739699</ele>
        <time>2024-07-12T07:32:50.871Z</time>
      </trkpt>
      <trkpt lat="53.16543" lon="7.33059">
        <ele>45.775394</ele>
        <time>2024-07-12T07:32:52.865Z</time>
      </trkpt>
      <trkpt lat="53.1654" lon="7.33074">
        <ele>45.811505</ele>
        <time>2024-07-12T07:32:54.866Z</time>
      </trkpt>
      <trkpt lat="53.16535" lon="7.33094">
        <ele>45.86021</ele>
        <time>2024-07-12T07:32:57.863Z</time>
      </trkpt>
      <trkpt lat="53.16532" lon="7.33112">
        <ele>45.903448</ele>
        <time>2024-07-12T07:33:00.878Z</time>
      </trkpt>
      <trkpt lat="53.16528" lon="7.33129">
        <ele>45.944575</ele>
        <time>2024-07-12T07:33:03.858Z</time>
      </trkpt>
      <trkpt lat="53.16524" lon="7.33146">
        <ele>45.986279</ele>
        <time>2024-07-12T07:33:06.875Z</time>
      </trkpt>
      <trkpt lat="53.1652" lon="7.33163">
        <ele>46.028926</ele>
        <time>2024-07-12T07:33:09.870Z</time>
      </trkpt>
      <trkpt lat="53.16517" lon="7.33182">
        <ele>46.072347</ele>
        <time>2024-07-12T07:33:12.837Z</time>
      </trkpt>
      <trkpt lat="53.16512" lon="7.33199">
        <ele>46.114336</ele>
        <time>2024-07-12T07:33:15.841Z</time>
      </trkpt>
      <trkpt lat="53.16509" lon="7.33214">
        <ele>46.15152</ele>
        <time>2024-07-12T07:33:18.848Z</time>
      </trkpt>
      <trkpt lat="53.16504" lon="7.3323">
        <ele>46.192086</ele>
        <time>2024-07-12T07:33:22.844Z</time>
      </trkpt>
      <trkpt lat="53.16518" lon="7.33237">
        <ele>46.16587</ele>
        <time>2024-07-12T07:34:25.850Z</time>
      </trkpt>
      <trkpt lat="53.16527" lon="7.33244">
        <ele>46.104691</ele>
        <time>2024-07-12T07:34:28.863Z</time>
      </trkpt>
      <trkpt lat="53.16537" lon="7.3325">
        <ele>46.043635</ele>
        <time>2024-07-12T07:34:31.855Z</time>
      </trkpt>
      <trkpt lat="53.16549" lon="7.33258">
        <ele>45.967495</ele>
        <time>2024-07-12T07:34:34.853Z</time>
      </trkpt>
      <trkpt lat="53.1656" lon="7.33264">
        <ele>45.892876</ele>
        <time>2024-07-12T07:34:37.853Z</time>
      </trkpt>
      <trkpt lat="53.1657" lon="7.33271">
        <ele>45.827068</ele>
        <time>2024-07-12T07:34:40.857Z</time>
      </trkpt>
      <trkpt lat="53.16579" lon="7.33277">
        <ele>45.768768</ele>
        <time>2024-07-12T07:34:43.854Z</time>
      </trkpt>
      <trkpt lat="53.1659" lon="7.33283">
        <ele>45.702509</ele>
        <time>2024-07-12T07:34:46.854Z</time>
      </trkpt>
      <trkpt lat="53.16602" lon="7.33289">
        <ele>45.624737</ele>
        <time>2024-07-12T07:34:49.861Z</time>
      </trkpt>
      <trkpt lat="53.16611" lon="7.33295">
        <ele>45.567814</ele>
        <time>2024-07-12T07:34:51.846Z</time>
      </trkpt>
      <trkpt lat="53.16623" lon="7.33303">
        <ele>45.491812</ele>
        <time>2024-07-12T07:34:54.864Z</time>
      </trkpt>
      <trkpt lat="53.16634" lon="7.33309">
        <ele>45.42225</ele>
        <time>2024-07-12T07:34:57.865Z</time>
      </trkpt>
      <trkpt lat="53.16644" lon="7.33314">
        <ele>45.357356</ele>
        <time>2024-07-12T07:35:00.868Z</time>
      </trkpt>
      <trkpt lat="53.16654" lon="7.33321">
        <ele>45.294389</ele>
        <time>2024-07-12T07:35:03.850Z</time>
      </trkpt>
      <trkpt lat="53.16669" lon="7.33328">
        <ele>45.198437</ele>
        <time>2024-07-12T07:36:15.837Z</time>
      </trkpt>
      <trkpt lat="53.16678" lon="7.33335">
        <ele>45.139992</ele>
        <time>2024-07-12T07:36:19.872Z</time>
      </trkpt>
      <trkpt lat="53.16687" lon="7.33343">
        <ele>45.169176</ele>
        <time>2024-07-12T07:36:23.845Z</time>
      </trkpt>
      <trkpt lat="53.16687" lon="7.33361">
        <ele>45.209093</ele>
        <time>2024-07-12T07:36:28.875Z</time>
      </trkpt>
      <trkpt lat="53.16684" lon="7.33377">
        <ele>45.245013</ele>
        <time>2024-07-12T07:36:31.838Z</time>
      </trkpt>
      <trkpt lat="53.16681" lon="7.33393">
        <ele>45.284118</ele>
        <time>2024-07-12T07:36:34.861Z</time>
      </trkpt>
      <trkpt lat="53.16678" lon="7.3341">
        <ele>45.322783</ele>
        <time>2024-07-12T07:36:37.850Z</time>
      </trkpt>
      <trkpt lat="53.16674" lon="7.33427">
        <ele>45.362309</ele>
        <time>2024-07-12T07:36:40.861Z</time>
      </trkpt>
      <trkpt lat="53.16671" lon="7.33442">
        <ele>45.399</ele>
        <time>2024-07-12T07:36:43.856Z</time>
      </trkpt>
      <trkpt lat="53.16667" lon="7.3346">
        <ele>45.440549</ele>
        <time>2024-07-12T07:36:46.868Z</time>
      </trkpt>
      <trkpt lat="53.16663" lon="7.33478">
        <ele>45.482843</ele>
        <time>2024-07-12T07:36:49.838Z</time>
      </trkpt>
      <trkpt lat="53.16659" lon="7.33498">
        <ele>45.528794</ele>
        <time>2024-07-12T07:36:52.857Z</time>
      </trkpt>
      <trkpt lat="53.16654" lon="7.33518">
        <ele>45.576068</ele>
        <time>2024-07-12T07:36:55.861Z</time>
      </trkpt>
      <trkpt lat="53.1665" lon="7.33538">
        <ele>45.622973</ele>
        <time>2024-07-12T07:36:58.860Z</time>
      </trkpt>
      <trkpt lat="53.16646" lon="7.33559">
        <ele>45.671617</ele>
        <time>2024-07-12T07:37:01.870Z</time>
      </trkpt>
      <trkpt lat="53.16641" lon="7.33578">
        <ele>45.717355</ele>
        <time>2024-07-12T07:37:04.850Z</time>
      </trkpt>
      <trkpt lat="53.16637" lon="7.33598">
        <ele>45.763592</ele>
        <time>2024-07-12T07:37:07.865Z</time>
      </trkpt>
      <trkpt lat="53.16632" lon="7.33618">
        <ele>45.82886</ele>
        <time>2024-07-12T07:37:10.863Z</time>
      </trkpt>
      <trkpt lat="53.16628" lon="7.33632">
        <ele>45.90031</ele>
        <time>2024-07-12T07:37:12.867Z</time>
      </trkpt>
      <trkpt lat="53.16624" lon="7.33652">
        <ele>46.002906</ele>
        <time>2024-07-12T07:37:15.854Z</time>
      </trkpt>
      <trkpt lat="53.1662" lon="7.33672">
        <ele>46.100931</ele>
        <time>2024-07-12T07:37:18.862Z</time>
      </trkpt>
      <trkpt lat="53.16615" lon="7.33693">
        <ele>46.205343</ele>
        <time>2024-07-12T07:37:21.865Z</time>
      </trkpt>
      <trkpt lat="53.16614" lon="7.33708">
        <ele>46.276805</ele>
        <time>2024-07-12T07:37:23.857Z</time>
      </trkpt>
      <trkpt lat="53.16611" lon="7.3373">
        <ele>46.379868</ele>
        <time>2024-07-12T07:37:26.862Z</time>
      </trkpt>
      <trkpt lat="53.16609" lon="7.33751">
        <ele>46.483456</ele>
        <time>2024-07-12T07:37:29.864Z</time>
      </trkpt>
      <trkpt lat="53.16608" lon="7.33772">
        <ele>46.579514</ele>
        <time>2024-07-12T07:37:32.837Z</time>
      </trkpt>
      <trkpt lat="53.16607" lon="7.33793">
        <ele>46.677477</ele>
        <time>2024-07-12T07:37:35.861Z</time>
      </trkpt>
      <trkpt lat="53.16606" lon="7.33814">
        <ele>46.776666</ele>
        <time>2024-07-12T07:37:38.870Z</time>
      </trkpt>
      <trkpt lat="53.16604" lon="7.33835">
        <ele>46.875516</ele>
        <time>2024-07-12T07:37:41.875Z</time>
      </trkpt>
      <trkpt lat="53.16603" lon="7.33855">
        <ele>46.970364</ele>
        <time>2024-07-12T07:37:44.850Z</time>
      </trkpt>
      <trkpt lat="53.16602" lon="7.33877">
        <ele>47.074236</ele>
        <time>2024-07-12T07:37:47.861Z</time>
      </trkpt>
      <trkpt lat="53.166" lon="7.33898">
        <ele>47.176897</ele>
        <time>2024-07-12T07:37:50.869Z</time>
      </trkpt>
      <trkpt lat="53.16599" lon="7.33919">
        <ele>47.233017</ele>
        <time>2024-07-12T07:37:53.869Z</time>
      </trkpt>
      <trkpt lat="53.16598" lon="7.33939">
        <ele>47.272917</ele>
        <time>2024-07-12T07:37:56.861Z</time>
      </trkpt>
      <trkpt lat="53.16597" lon="7.33959">
        <ele>47.311989</ele>
        <time>2024-07-12T07:37:59.862Z</time>
      </trkpt>
      <trkpt lat="53.16596" lon="7.33979">
        <ele>47.350948</ele>
        <time>2024-07-12T07:38:02.830Z</time>
      </trkpt>
      <trkpt lat="53.16595" lon="7.33998">
        <ele>47.389102</ele>
        <time>2024-07-12T07:38:05.875Z</time>
      </trkpt>
      <trkpt lat="53.16594" lon="7.34017">
        <ele>47.425958</ele>
        <time>2024-07-12T07:38:08.866Z</time>
      </trkpt>
      <trkpt lat="53.16593" lon="7.34036">
        <ele>47.463236</ele>
        <time>2024-07-12T07:38:11.847Z</time>
      </trkpt>
      <trkpt lat="53.16592" lon="7.34054">
        <ele>47.499341</ele>
        <time>2024-07-12T07:38:14.857Z</time>
      </trkpt>
      <trkpt lat="53.1659" lon="7.34072">
        <ele>47.534779</ele>
        <time>2024-07-12T07:38:17.873Z</time>
      </trkpt>
      <trkpt lat="53.16589" lon="7.34091">
        <ele>47.571736</ele>
        <time>2024-07-12T07:38:20.847Z</time>
      </trkpt>
      <trkpt lat="53.16588" lon="7.34108">
        <ele>47.605826</ele>
        <time>2024-07-12T07:38:23.857Z</time>
      </trkpt>
      <trkpt lat="53.16587" lon="7.34124">
        <ele>47.637179</ele>
        <time>2024-07-12T07:38:26.861Z</time>
      </trkpt>
      <trkpt lat="53.16588" lon="7.34142">
        <ele>47.673503</ele>
        <time>2024-07-12T07:38:30.843Z</time>
      </trkpt>
      <trkpt lat="53.16595" lon="7.34158">
        <ele>47.713577</ele>
        <time>2024-07-12T07:38:34.880Z</time>
      </trkpt>
      <trkpt lat="53.16603" lon="7.34168">
        <ele>47.746764</ele>
        <time>2024-07-12T07:38:37.842Z</time>
      </trkpt>
      <trkpt lat="53.16613" lon="7.34178">
        <ele>47.782341</ele>
        <time>2024-07-12T07:38:40.863Z</time>
      </trkpt>
      <trkpt lat="53.16621" lon="7.34188">
        <ele>47.71705</ele>
        <time>2024-07-12T07:38:43.855Z</time>
      </trkpt>
      <trkpt lat="53.16629" lon="7.34198">
        <ele>47.613613</ele>
        <time>2024-07-12T07:38:46.859Z</time>
      </trkpt>
      <trkpt lat="53.16638" lon="7.34208">
        <ele>47.508028</ele>
        <time>2024-07-12T07:38:49.866Z</time>
      </trkpt>
      <trkpt lat="53.16647" lon="7.34218">
        <ele>47.392562</ele>
        <time>2024-07-12T07:38:52.847Z</time>
      </trkpt>
      <trkpt lat="53.16656" lon="7.34226">
        <ele>47.287131</ele>
        <time>2024-07-12T07:38:55.854Z</time>
      </trkpt>
      <trkpt lat="53.16666" lon="7.34231">
        <ele>47.185083</ele>
        <time>2024-07-12T07:38:58.854Z</time>
      </trkpt>
      <trkpt lat="53.16676" lon="7.34236">
        <ele>47.077378</ele>
        <time>2024-07-12T07:39:01.856Z</time>
      </trkpt>
      <trkpt lat="53.16686" lon="7.3424">
        <ele>46.968714</ele>
        <time>2024-07-12T07:39:04.847Z</time>
      </trkpt>
      <trkpt lat="53.16696" lon="7.34242">
        <ele>46.864904</ele>
        <time>2024-07-12T07:39:07.825Z</time>
      </trkpt>
      <trkpt lat="53.16706" lon="7.34244">
        <ele>46.768107</ele>
        <time>2024-07-12T07:39:10.852Z</time>
      </trkpt>
      <trkpt lat="53.16717" lon="7.34248">
        <ele>46.655698</ele>
        <time>2024-07-12T07:39:14.853Z</time>
      </trkpt>
      <trkpt lat="53.16718" lon="7.34263">
        <ele>46.561147</ele>
        <time>2024-07-12T07:39:18.834Z</time>
      </trkpt>
      <trkpt lat="53.16715" lon="7.34279">
        <ele>46.462077</ele>
        <time>2024-07-12T07:39:21.846Z</time>
      </trkpt>
      <trkpt lat="53.16712" lon="7.34295">
        <ele>46.358334</ele>
        <time>2024-07-12T07:39:24.843Z</time>
      </trkpt>
      <trkpt lat="53.16709" lon="7.34312">
        <ele>46.246966</ele>
        <time>2024-07-12T07:39:27.843Z</time>
      </trkpt>
      <trkpt lat="53.16707" lon="7.34329">
        <ele>46.14189</ele>
        <time>2024-07-12T07:39:30.865Z</time>
      </trkpt>
      <trkpt lat="53.16705" lon="7.34345">
        <ele>46.042046</ele>
        <time>2024-07-12T07:39:33.868Z</time>
      </trkpt>
      <trkpt lat="53.16702" lon="7.34361">
        <ele>45.962996</ele>
        <time>2024-07-12T07:39:36.868Z</time>
      </trkpt>
      <trkpt lat="53.16699" lon="7.34379">
        <ele>46.021512</ele>
        <time>2024-07-12T07:39:39.841Z</time>
      </trkpt>
      <trkpt lat="53.16697" lon="7.34397">
        <ele>46.077114</ele>
        <time>2024-07-12T07:39:42.864Z</time>
      </trkpt>
      <trkpt lat="53.16694" lon="7.34417">
        <ele>46.136863</ele>
        <time>2024-07-12T07:39:45.863Z</time>
      </trkpt>
      <trkpt lat="53.16692" lon="7.34436">
        <ele>46.195945</ele>
        <time>2024-07-12T07:39:48.848Z</time>
      </trkpt>
      <trkpt lat="53.1669" lon="7.34456">
        <ele>46.256468</ele>
        <time>2024-07-12T07:39:51.841Z</time>
      </trkpt>
      <trkpt lat="53.16687" lon="7.34476">
        <ele>46.319154</ele>
        <time>2024-07-12T07:39:54.849Z</time>
      </trkpt>
      <trkpt lat="53.16686" lon="7.34497">
        <ele>46.382471</ele>
        <time>2024-07-12T07:39:57.858Z</time>
      </trkpt>
      <trkpt lat="53.16684" lon="7.34518">
        <ele>46.445658</ele>
        <time>2024-07-12T07:40:00.863Z</time>
      </trkpt>
      <trkpt lat="53.16682" lon="7.3454">
        <ele>46.512615</ele>
        <time>2024-07-12T07:40:03.836Z</time>
      </trkpt>
      <trkpt lat="53.16681" lon="7.34561">
        <ele>46.574331</ele>
        <time>2024-07-12T07:40:06.840Z</time>
      </trkpt>
      <trkpt lat="53.16679" lon="7.34582">
        <ele>46.639354</ele>
        <time>2024-07-12T07:40:09.854Z</time>
      </trkpt>
      <trkpt lat="53.16679" lon="7.34604">
        <ele>46.705246</ele>
        <time>2024-07-12T07:40:12.856Z</time>
      </trkpt>
      <trkpt lat="53.16679" lon="7.34624">
        <ele>46.766263</ele>
        <time>2024-07-12T07:40:15.848Z</time>
      </trkpt>
      <trkpt lat="53.16677" lon="7.34646">
        <ele>46.831955</ele>
        <time>2024-07-12T07:40:18.847Z</time>
      </trkpt>
      <trkpt lat="53.16677" lon="7.34667">
        <ele>46.849867</ele>
        <time>2024-07-12T07:40:21.838Z</time>
      </trkpt>
      <trkpt lat="53.16676" lon="7.34687">
        <ele>46.835486</ele>
        <time>2024-07-12T07:40:24.839Z</time>
      </trkpt>
      <trkpt lat="53.16676" lon="7.34703">
        <ele>46.824735</ele>
        <time>2024-07-12T07:40:26.823Z</time>
      </trkpt>
      <trkpt lat="53.16676" lon="7.34725">
        <ele>46.809776</ele>
        <time>2024-07-12T07:40:29.850Z</time>
      </trkpt>
      <trkpt lat="53.16675" lon="7.34747">
        <ele>46.794235</ele>
        <time>2024-07-12T07:40:32.864Z</time>
      </trkpt>
      <trkpt lat="53.16676" lon="7.34769">
        <ele>46.778989</ele>
        <time>2024-07-12T07:40:35.853Z</time>
      </trkpt>
      <trkpt lat="53.16676" lon="7.34791">
        <ele>46.763689</ele>
        <time>2024-07-12T07:40:38.852Z</time>
      </trkpt>
      <trkpt lat="53.16678" lon="7.34813">
        <ele>46.748336</ele>
        <time>2024-07-12T07:40:41.855Z</time>
      </trkpt>
      <trkpt lat="53.1668" lon="7.34828">
        <ele>46.738019</ele>
        <time>2024-07-12T07:40:43.850Z</time>
      </trkpt>
      <trkpt lat="53.16683" lon="7.3485">
        <ele>46.722457</ele>
        <time>2024-07-12T07:40:46.858Z</time>
      </trkpt>
      <trkpt lat="53.16686" lon="7.34864">
        <ele>46.712016</ele>
        <time>2024-07-12T07:40:48.848Z</time>
      </trkpt>
      <trkpt lat="53.16689" lon="7.34879">
        <ele>46.701354</ele>
        <time>2024-07-12T07:40:50.845Z</time>
      </trkpt>
      <trkpt lat="53.16693" lon="7.34901">
        <ele>46.68566</ele>
        <time>2024-07-12T07:40:53.843Z</time>
      </trkpt>
      <trkpt lat="53.16697" lon="7.34922">
        <ele>46.670669</ele>
        <time>2024-07-12T07:40:56.842Z</time>
      </trkpt>
      <trkpt lat="53.16702" lon="7.34942">
        <ele>46.655536</ele>
        <time>2024-07-12T07:40:59.843Z</time>
      </trkpt>
      <trkpt lat="53.16708" lon="7.34958">
        <ele>46.699847</ele>
        <time>2024-07-12T07:41:02.870Z</time>
      </trkpt>
      <trkpt lat="53.16708" lon="7.34976">
        <ele>46.766991</ele>
        <time>2024-07-12T07:41:05.835Z</time>
      </trkpt>
      <trkpt lat="53.16705" lon="7.34993">
        <ele>46.830395</ele>
        <time>2024-07-12T07:41:10.841Z</time>
      </trkpt>
      <trkpt lat="53.16708" lon="7.35007">
        <ele>46.886028</ele>
        <time>2024-07-12T07:41:15.855Z</time>
      </trkpt>
      <trkpt lat="53.16714" lon="7.35019">
        <ele>46.944152</ele>
        <time>2024-07-12T07:41:18.843Z</time>
      </trkpt>
      <trkpt lat="53.16723" lon="7.35025">
        <ele>47.007603</ele>
        <time>2024-07-12T07:41:21.834Z</time>
      </trkpt>
      <trkpt lat="53.16735" lon="7.35032">
        <ele>47.084563</ele>
        <time>2024-07-12T07:41:24.840Z</time>
      </trkpt>
      <trkpt lat="53.16744" lon="7.35048">
        <ele>47.163099</ele>
        <time>2024-07-12T07:41:27.841Z</time>
      </trkpt>
      <trkpt lat="53.1675" lon="7.35059">
        <ele>47.220966</ele>
        <time>2024-07-12T07:41:29.878Z</time>
      </trkpt>
      <trkpt lat="53.16759" lon="7.35076">
        <ele>47.303919</ele>
        <time>2024-07-12T07:41:32.850Z</time>
      </trkpt>
      <trkpt lat="53.16768" lon="7.35091">
        <ele>47.386135</ele>
        <time>2024-07-12T07:41:35.868Z</time>
      </trkpt>
      <trkpt lat="53.16775" lon="7.35101">
        <ele>47.442625</ele>
        <time>2024-07-12T07:41:37.863Z</time>
      </trkpt>
      <trkpt lat="53.16785" lon="7.35115">
        <ele>47.520062</ele>
        <time>2024-07-12T07:41:40.815Z</time>
      </trkpt>
      <trkpt lat="53.16793" lon="7.35129">
        <ele>47.59294</ele>
        <time>2024-07-12T07:41:43.850Z</time>
      </trkpt>
      <trkpt lat="53.16803" lon="7.3514">
        <ele>47.669042</ele>
        <time>2024-07-12T07:41:46.848Z</time>
      </trkpt>
      <trkpt lat="53.16811" lon="7.3515">
        <ele>47.726809</ele>
        <time>2024-07-12T07:41:48.853Z</time>
      </trkpt>
      <trkpt lat="53.16818" lon="7.3516">
        <ele>47.752915</ele>
        <time>2024-07-12T07:41:50.848Z</time>
      </trkpt>
      <trkpt lat="53.16828" lon="7.35174">
        <ele>47.712246</ele>
        <time>2024-07-12T07:41:53.839Z</time>
      </trkpt>
      <trkpt lat="53.16836" lon="7.35185">
        <ele>47.681612</ele>
        <time>2024-07-12T07:41:55.856Z</time>
      </trkpt>
      <trkpt lat="53.16845" lon="7.35196">
        <ele>47.649221</ele>
        <time>2024-07-12T07:41:57.843Z</time>
      </trkpt>
      <trkpt lat="53.16853" lon="7.35208">
        <ele>47.616408</ele>
        <time>2024-07-12T07:41:59.828Z</time>
      </trkpt>
      <trkpt lat="53.1686" lon="7.35218">
        <ele>47.587638</ele>
        <time>2024-07-12T07:42:01.849Z</time>
      </trkpt>
      <trkpt lat="53.16868" lon="7.35229">
        <ele>47.558382</ele>
        <time>2024-07-12T07:42:03.823Z</time>
      </trkpt>
      <trkpt lat="53.16875" lon="7.35238">
        <ele>47.530719</ele>
        <time>2024-07-12T07:42:05.853Z</time>
      </trkpt>
      <trkpt lat="53.16883" lon="7.35247">
        <ele>47.501659</ele>
        <time>2024-07-12T07:42:07.838Z</time>
      </trkpt>
      <trkpt lat="53.1689" lon="7.35257">
        <ele>47.473121</ele>
        <time>2024-07-12T07:42:09.842Z</time>
      </trkpt>
      <trkpt lat="53.16898" lon="7.35267">
        <ele>47.445215</ele>
        <time>2024-07-12T07:42:11.837Z</time>
      </trkpt>
      <trkpt lat="53.16905" lon="7.35277">
        <ele>47.416445</ele>
        <time>2024-07-12T07:42:13.862Z</time>
      </trkpt>
      <trkpt lat="53.16912" lon="7.35287">
        <ele>47.387213</ele>
        <time>2024-07-12T07:42:15.842Z</time>
      </trkpt>
      <trkpt lat="53.1692" lon="7.35297">
        <ele>47.357264</ele>
        <time>2024-07-12T07:42:17.838Z</time>
      </trkpt>
      <trkpt lat="53.16928" lon="7.35307">
        <ele>47.32823</ele>
        <time>2024-07-12T07:42:19.851Z</time>
      </trkpt>
      <trkpt lat="53.16935" lon="7.35317">
        <ele>47.299808</ele>
        <time>2024-07-12T07:42:21.849Z</time>
      </trkpt>
      <trkpt lat="53.16943" lon="7.35327">
        <ele>47.271123</ele>
        <time>2024-07-12T07:42:23.839Z</time>
      </trkpt>
      <trkpt lat="53.16951" lon="7.35336">
        <ele>47.242089</ele>
        <time>2024-07-12T07:42:25.847Z</time>
      </trkpt>
      <trkpt lat="53.16958" lon="7.35348">
        <ele>47.200102</ele>
        <time>2024-07-12T07:42:27.843Z</time>
      </trkpt>
      <trkpt lat="53.16965" lon="7.35357">
        <ele>47.138796</ele>
        <time>2024-07-12T07:42:29.862Z</time>
      </trkpt>
      <trkpt lat="53.16973" lon="7.35367">
        <ele>47.079984</ele>
        <time>2024-07-12T07:42:31.852Z</time>
      </trkpt>
      <trkpt lat="53.1698" lon="7.35378">
        <ele>47.019149</ele>
        <time>2024-07-12T07:42:33.851Z</time>
      </trkpt>
      <trkpt lat="53.16987" lon="7.35388">
        <ele>46.95886</ele>
        <time>2024-07-12T07:42:35.844Z</time>
      </trkpt>
      <trkpt lat="53.16994" lon="7.35399">
        <ele>46.898175</ele>
        <time>2024-07-12T07:42:37.849Z</time>
      </trkpt>
      <trkpt lat="53.17" lon="7.3541">
        <ele>46.837411</ele>
        <time>2024-07-12T07:42:39.844Z</time>
      </trkpt>
      <trkpt lat="53.17007" lon="7.35421">
        <ele>46.775728</ele>
        <time>2024-07-12T07:42:41.855Z</time>
      </trkpt>
      <trkpt lat="53.17014" lon="7.35432">
        <ele>46.715235</ele>
        <time>2024-07-12T07:42:43.862Z</time>
      </trkpt>
      <trkpt lat="53.1702" lon="7.35444">
        <ele>46.654281</ele>
        <time>2024-07-12T07:42:45.850Z</time>
      </trkpt>
      <trkpt lat="53.17026" lon="7.35456">
        <ele>46.593294</ele>
        <time>2024-07-12T07:42:47.848Z</time>
      </trkpt>
      <trkpt lat="53.17032" lon="7.35468">
        <ele>46.534718</ele>
        <time>2024-07-12T07:42:49.854Z</time>
      </trkpt>
      <trkpt lat="53.17038" lon="7.3548">
        <ele>46.47365</ele>
        <time>2024-07-12T07:42:51.831Z</time>
      </trkpt>
      <trkpt lat="53.17044" lon="7.35493">
        <ele>46.409663</ele>
        <time>2024-07-12T07:42:53.845Z</time>
      </trkpt>
      <trkpt lat="53.17049" lon="7.35506">
        <ele>46.348847</ele>
        <time>2024-07-12T07:42:55.839Z</time>
      </trkpt>
      <trkpt lat="53.17054" lon="7.35519">
        <ele>46.287293</ele>
        <time>2024-07-12T07:42:57.846Z</time>
      </trkpt>
      <trkpt lat="53.1706" lon="7.35533">
        <ele>46.224046</ele>
        <time>2024-07-12T07:42:59.841Z</time>
      </trkpt>
      <trkpt lat="53.17065" lon="7.35548">
        <ele>46.159199</ele>
        <time>2024-07-12T07:43:01.851Z</time>
      </trkpt>
      <trkpt lat="53.1707" lon="7.35562">
        <ele>46.096005</ele>
        <time>2024-07-12T07:43:03.862Z</time>
      </trkpt>
      <trkpt lat="53.17075" lon="7.35576">
        <ele>46.054406</ele>
        <time>2024-07-12T07:43:05.836Z</time>
      </trkpt>
      <trkpt lat="53.17079" lon="7.3559">
        <ele>46.033579</ele>
        <time>2024-07-12T07:43:07.855Z</time>
      </trkpt>
      <trkpt lat="53.17084" lon="7.35604">
        <ele>46.014148</ele>
        <time>2024-07-12T07:43:09.850Z</time>
      </trkpt>
      <trkpt lat="53.17088" lon="7.35618">
        <ele>45.994199</ele>
        <time>2024-07-12T07:43:11.861Z</time>
      </trkpt>
      <trkpt lat="53.17093" lon="7.35632">
        <ele>45.974126</ele>
        <time>2024-07-12T07:43:13.854Z</time>
      </trkpt>
      <trkpt lat="53.17097" lon="7.35646">
        <ele>45.953753</ele>
        <time>2024-07-12T07:43:15.840Z</time>
      </trkpt>
      <trkpt lat="53.17101" lon="7.3566">
        <ele>45.93385</ele>
        <time>2024-07-12T07:43:17.859Z</time>
      </trkpt>
      <trkpt lat="53.17106" lon="7.35675">
        <ele>45.913082</ele>
        <time>2024-07-12T07:43:19.841Z</time>
      </trkpt>
      <trkpt lat="53.1711" lon="7.35689">
        <ele>45.892606</ele>
        <time>2024-07-12T07:43:21.835Z</time>
      </trkpt>
      <trkpt lat="53.17115" lon="7.35704">
        <ele>45.872084</ele>
        <time>2024-07-12T07:43:23.835Z</time>
      </trkpt>
      <trkpt lat="53.17119" lon="7.35718">
        <ele>45.851924</ele>
        <time>2024-07-12T07:43:25.858Z</time>
      </trkpt>
      <trkpt lat="53.17124" lon="7.35731">
        <ele>45.832095</ele>
        <time>2024-07-12T07:43:27.860Z</time>
      </trkpt>
      <trkpt lat="53.17129" lon="7.35745">
        <ele>45.811943</ele>
        <time>2024-07-12T07:43:29.868Z</time>
      </trkpt>
      <trkpt lat="53.17133" lon="7.35761">
        <ele>45.790981</ele>
        <time>2024-07-12T07:43:31.860Z</time>
      </trkpt>
      <trkpt lat="53.17138" lon="7.35775">
        <ele>45.770285</ele>
        <time>2024-07-12T07:43:33.855Z</time>
      </trkpt>
      <trkpt lat="53.17142" lon="7.35789">
        <ele>45.749359</ele>
        <time>2024-07-12T07:43:35.854Z</time>
      </trkpt>
      <trkpt lat="53.17147" lon="7.35804">
        <ele>45.728419</ele>
        <time>2024-07-12T07:43:37.845Z</time>
      </trkpt>
      <trkpt lat="53.17151" lon="7.35818">
        <ele>45.708403</ele>
        <time>2024-07-12T07:43:39.842Z</time>
      </trkpt>
      <trkpt lat="53.17155" lon="7.35832">
        <ele>45.688763</ele>
        <time>2024-07-12T07:43:41.845Z</time>
      </trkpt>
      <trkpt lat="53.1716" lon="7.35847">
        <ele>45.682799</ele>
        <time>2024-07-12T07:43:43.867Z</time>
      </trkpt>
      <trkpt lat="53.17164" lon="7.35861">
        <ele>45.679463</ele>
        <time>2024-07-12T07:43:45.866Z</time>
      </trkpt>
      <trkpt lat="53.17168" lon="7.35875">
        <ele>45.676168</ele>
        <time>2024-07-12T07:43:47.841Z</time>
      </trkpt>
      <trkpt lat="53.17173" lon="7.35889">
        <ele>45.672754</ele>
        <time>2024-07-12T07:43:49.846Z</time>
      </trkpt>
      <trkpt lat="53.17177" lon="7.35902">
        <ele>45.669566</ele>
        <time>2024-07-12T07:43:51.842Z</time>
      </trkpt>
      <trkpt lat="53.17183" lon="7.35922">
        <ele>45.664748</ele>
        <time>2024-07-12T07:43:54.850Z</time>
      </trkpt>
      <trkpt lat="53.17188" lon="7.35936">
        <ele>45.661522</ele>
        <time>2024-07-12T07:43:56.841Z</time>
      </trkpt>
      <trkpt lat="53.17194" lon="7.35956">
        <ele>45.656771</ele>
        <time>2024-07-12T07:43:59.843Z</time>
      </trkpt>
      <trkpt lat="53.17199" lon="7.3597">
        <ele>45.653376</ele>
        <time>2024-07-12T07:44:01.848Z</time>
      </trkpt>
      <trkpt lat="53.17203" lon="7.35983">
        <ele>45.650116</ele>
        <time>2024-07-12T07:44:03.844Z</time>
      </trkpt>
      <trkpt lat="53.17208" lon="7.35997">
        <ele>45.64685</ele>
        <time>2024-07-12T07:44:05.846Z</time>
      </trkpt>
      <trkpt lat="53.17211" lon="7.36011">
        <ele>45.643623</ele>
        <time>2024-07-12T07:44:07.848Z</time>
      </trkpt>
      <trkpt lat="53.17216" lon="7.36024">
        <ele>45.640357</ele>
        <time>2024-07-12T07:44:09.844Z</time>
      </trkpt>
      <trkpt lat="53.17221" lon="7.36038">
        <ele>45.63706</ele>
        <time>2024-07-12T07:44:11.852Z</time>
      </trkpt>
      <trkpt lat="53.17225" lon="7.36052">
        <ele>45.633719</ele>
        <time>2024-07-12T07:44:13.848Z</time>
      </trkpt>
      <trkpt lat="53.1723" lon="7.36066">
        <ele>45.630331</ele>
        <time>2024-07-12T07:44:15.838Z</time>
      </trkpt>
      <trkpt lat="53.17234" lon="7.3608">
        <ele>45.626959</ele>
        <time>2024-07-12T07:44:17.842Z</time>
      </trkpt>
      <trkpt lat="53.17238" lon="7.36094">
        <ele>45.623668</ele>
        <time>2024-07-12T07:44:19.832Z</time>
      </trkpt>
      <trkpt lat="53.17243" lon="7.36108">
        <ele>45.616561</ele>
        <time>2024-07-12T07:44:21.852Z</time>
      </trkpt>
      <trkpt lat="53.17248" lon="7.36122">
        <ele>45.606923</ele>
        <time>2024-07-12T07:44:23.853Z</time>
      </trkpt>
      <trkpt lat="53.17253" lon="7.36136">
        <ele>45.597031</ele>
        <time>2024-07-12T07:44:25.850Z</time>
      </trkpt>
      <trkpt lat="53.17257" lon="7.36151">
        <ele>45.587033</ele>
        <time>2024-07-12T07:44:27.853Z</time>
      </trkpt>
      <trkpt lat="53.17262" lon="7.36166">
        <ele>45.576899</ele>
        <time>2024-07-12T07:44:29.855Z</time>
      </trkpt>
      <trkpt lat="53.17266" lon="7.3618">
        <ele>45.567208</ele>
        <time>2024-07-12T07:44:31.857Z</time>
      </trkpt>
      <trkpt lat="53.1727" lon="7.36194">
        <ele>45.558006</ele>
        <time>2024-07-12T07:44:33.853Z</time>
      </trkpt>
      <trkpt lat="53.17276" lon="7.36213">
        <ele>45.545357</ele>
        <time>2024-07-12T07:44:36.842Z</time>
      </trkpt>
      <trkpt lat="53.17282" lon="7.36231">
        <ele>45.532834</ele>
        <time>2024-07-12T07:44:39.854Z</time>
      </trkpt>
      <trkpt lat="53.17289" lon="7.3625">
        <ele>45.51965</ele>
        <time>2024-07-12T07:44:42.863Z</time>
      </trkpt>
      <trkpt lat="53.17293" lon="7.36264">
        <ele>45.510456</ele>
        <time>2024-07-12T07:44:44.850Z</time>
      </trkpt>
      <trkpt lat="53.17297" lon="7.36278">
        <ele>45.501057</ele>
        <time>2024-07-12T07:44:46.855Z</time>
      </trkpt>
      <trkpt lat="53.17301" lon="7.36292">
        <ele>45.49183</ele>
        <time>2024-07-12T07:44:48.855Z</time>
      </trkpt>
      <trkpt lat="53.17305" lon="7.36306">
        <ele>45.482278</ele>
        <time>2024-07-12T07:44:50.847Z</time>
      </trkpt>
      <trkpt lat="53.17311" lon="7.36325">
        <ele>45.468925</ele>
        <time>2024-07-12T07:44:53.842Z</time>
      </trkpt>
      <trkpt lat="53.17318" lon="7.36345">
        <ele>45.455472</ele>
        <time>2024-07-12T07:44:56.843Z</time>
      </trkpt>
      <trkpt lat="53.17324" lon="7.36365">
        <ele>45.440036</ele>
        <time>2024-07-12T07:44:59.836Z</time>
      </trkpt>
      <trkpt lat="53.17329" lon="7.36378">
        <ele>45.299023</ele>
        <time>2024-07-12T07:45:01.842Z</time>
      </trkpt>
      <trkpt lat="53.17334" lon="7.36397">
        <ele>45.097311</ele>
        <time>2024-07-12T07:45:04.841Z</time>
      </trkpt>
      <trkpt lat="53.1734" lon="7.36417">
        <ele>44.893236</ele>
        <time>2024-07-12T07:45:07.854Z</time>
      </trkpt>
      <trkpt lat="53.17344" lon="7.36437">
        <ele>44.6929</ele>
        <time>2024-07-12T07:45:10.838Z</time>
      </trkpt>
      <trkpt lat="53.17347" lon="7.36456">
        <ele>44.508947</ele>
        <time>2024-07-12T07:45:13.851Z</time>
      </trkpt>
      <trkpt lat="53.17349" lon="7.36475">
        <ele>44.329808</ele>
        <time>2024-07-12T07:45:16.849Z</time>
      </trkpt>
      <trkpt lat="53.17346" lon="7.36492">
        <ele>44.1612</ele>
        <time>2024-07-12T07:45:19.830Z</time>
      </trkpt>
      <trkpt lat="53.17339" lon="7.36509">
        <ele>43.973992</ele>
        <time>2024-07-12T07:45:22.848Z</time>
      </trkpt>
      <trkpt lat="53.17334" lon="7.36529">
        <ele>43.773121</ele>
        <time>2024-07-12T07:45:25.856Z</time>
      </trkpt>
      <trkpt lat="53.17331" lon="7.36549">
        <ele>43.572788</ele>
        <time>2024-07-12T07:45:28.869Z</time>
      </trkpt>
      <trkpt lat="53.17326" lon="7.3657">
        <ele>43.362955</ele>
        <time>2024-07-12T07:45:31.853Z</time>
      </trkpt>
      <trkpt lat="53.17321" lon="7.36591">
        <ele>43.155171</ele>
        <time>2024-07-12T07:45:34.838Z</time>
      </trkpt>
      <trkpt lat="53.17316" lon="7.36612">
        <ele>42.945875</ele>
        <time>2024-07-12T07:45:37.866Z</time>
      </trkpt>
      <trkpt lat="53.17312" lon="7.36626">
        <ele>42.804555</ele>
        <time>2024-07-12T07:45:39.843Z</time>
      </trkpt>
      <trkpt lat="53.17307" lon="7.36646">
        <ele>42.686274</ele>
        <time>2024-07-12T07:45:42.849Z</time>
      </trkpt>
      <trkpt lat="53.17304" lon="7.3666">
        <ele>42.843312</ele>
        <time>2024-07-12T07:45:44.847Z</time>
      </trkpt>
      <trkpt lat="53.17301" lon="7.36675">
        <ele>43.006785</ele>
        <time>2024-07-12T07:45:46.861Z</time>
      </trkpt>
      <trkpt lat="53.17297" lon="7.36688">
        <ele>43.162878</ele>
        <time>2024-07-12T07:45:48.846Z</time>
      </trkpt>
      <trkpt lat="53.17293" lon="7.36706">
        <ele>43.358128</ele>
        <time>2024-07-12T07:45:51.846Z</time>
      </trkpt>
      <trkpt lat="53.17289" lon="7.36724">
        <ele>43.553958</ele>
        <time>2024-07-12T07:45:55.850Z</time>
      </trkpt>
      <trkpt lat="53.17285" lon="7.36739">
        <ele>43.726174</ele>
        <time>2024-07-12T07:45:59.850Z</time>
      </trkpt>
      <trkpt lat="53.17278" lon="7.36752">
        <ele>43.916326</ele>
        <time>2024-07-12T07:46:04.834Z</time>
      </trkpt>
      <trkpt lat="53.17271" lon="7.36761">
        <ele>44.076261</ele>
        <time>2024-07-12T07:46:08.840Z</time>
      </trkpt>
      <trkpt lat="53.1726" lon="7.36767">
        <ele>44.265501</ele>
        <time>2024-07-12T07:46:12.837Z</time>
      </trkpt>
      <trkpt lat="53.17251" lon="7.36767">
        <ele>44.423718</ele>
        <time>2024-07-12T07:46:15.858Z</time>
      </trkpt>
      <trkpt lat="53.17241" lon="7.3676">
        <ele>44.613455</ele>
        <time>2024-07-12T07:46:18.832Z</time>
      </trkpt>
      <trkpt lat="53.17231" lon="7.36749">
        <ele>44.820459</ele>
        <time>2024-07-12T07:46:21.856Z</time>
      </trkpt>
      <trkpt lat="53.17221" lon="7.36739">
        <ele>45.032784</ele>
        <time>2024-07-12T07:46:24.873Z</time>
      </trkpt>
      <trkpt lat="53.17209" lon="7.36733">
        <ele>45.237195</ele>
        <time>2024-07-12T07:46:27.836Z</time>
      </trkpt>
      <trkpt lat="53.17198" lon="7.36728">
        <ele>45.447304</ele>
        <time>2024-07-12T07:46:30.856Z</time>
      </trkpt>
      <trkpt lat="53.17188" lon="7.36734">
        <ele>45.631622</ele>
        <time>2024-07-12T07:46:33.828Z</time>
      </trkpt>
      <trkpt lat="53.17182" lon="7.3675">
        <ele>45.777909</ele>
        <time>2024-07-12T07:46:36.858Z</time>
      </trkpt>
      <trkpt lat="53.1718" lon="7.3677">
        <ele>45.815625</ele>
        <time>2024-07-12T07:46:39.826Z</time>
      </trkpt>
      <trkpt lat="53.1718" lon="7.36789">
        <ele>45.85204</ele>
        <time>2024-07-12T07:46:42.841Z</time>
      </trkpt>
      <trkpt lat="53.17175" lon="7.36804">
        <ele>45.88463</ele>
        <time>2024-07-12T07:46:45.832Z</time>
      </trkpt>
      <trkpt lat="53.17168" lon="7.36815">
        <ele>45.915211</ele>
        <time>2024-07-12T07:46:48.842Z</time>
      </trkpt>
      <trkpt lat="53.17163" lon="7.36831">
        <ele>45.950532</ele>
        <time>2024-07-12T07:46:51.847Z</time>
      </trkpt>
      <trkpt lat="53.17159" lon="7.36847">
        <ele>45.983888</ele>
        <time>2024-07-12T07:46:54.824Z</time>
      </trkpt>
      <trkpt lat="53.17156" lon="7.36862">
        <ele>46.014598</ele>
        <time>2024-07-12T07:46:57.841Z</time>
      </trkpt>
      <trkpt lat="53.17151" lon="7.36876">
        <ele>46.044633</ele>
        <time>2024-07-12T07:47:00.840Z</time>
      </trkpt>
      <trkpt lat="53.17152" lon="7.36891">
        <ele>46.073703</ele>
        <time>2024-07-12T07:47:04.831Z</time>
      </trkpt>
      <trkpt lat="53.17162" lon="7.36894">
        <ele>46.107405</ele>
        <time>2024-07-12T07:47:10.836Z</time>
      </trkpt>
      <trkpt lat="53.17171" lon="7.36899">
        <ele>46.138524</ele>
        <time>2024-07-12T07:47:15.866Z</time>
      </trkpt>
      <trkpt lat="53.17181" lon="7.36904">
        <ele>46.170499</ele>
        <time>2024-07-12T07:47:21.833Z</time>
      </trkpt>
      <trkpt lat="53.17191" lon="7.36909">
        <ele>46.2039</ele>
        <time>2024-07-12T07:47:28.857Z</time>
      </trkpt>
      <trkpt lat="53.17202" lon="7.36916">
        <ele>46.24179</ele>
        <time>2024-07-12T07:47:33.838Z</time>
      </trkpt>
      <trkpt lat="53.17211" lon="7.36921">
        <ele>46.272908</ele>
        <time>2024-07-12T07:47:36.844Z</time>
      </trkpt>
      <trkpt lat="53.1722" lon="7.36926">
        <ele>46.304696</ele>
        <time>2024-07-12T07:47:39.837Z</time>
      </trkpt>
      <trkpt lat="53.17229" lon="7.36933">
        <ele>46.336331</ele>
        <time>2024-07-12T07:47:42.855Z</time>
      </trkpt>
      <trkpt lat="53.1724" lon="7.36938">
        <ele>46.386377</ele>
        <time>2024-07-12T07:47:45.835Z</time>
      </trkpt>
      <trkpt lat="53.17248" lon="7.36946">
        <ele>46.435717</ele>
        <time>2024-07-12T07:47:48.847Z</time>
      </trkpt>
      <trkpt lat="53.17259" lon="7.36952">
        <ele>46.491095</ele>
        <time>2024-07-12T07:47:51.827Z</time>
      </trkpt>
      <trkpt lat="53.17268" lon="7.36962">
        <ele>46.546592</ele>
        <time>2024-07-12T07:47:54.854Z</time>
      </trkpt>
      <trkpt lat="53.17278" lon="7.36971">
        <ele>46.602223</ele>
        <time>2024-07-12T07:47:57.838Z</time>
      </trkpt>
      <trkpt lat="53.17287" lon="7.3698">
        <ele>46.659635</ele>
        <time>2024-07-12T07:48:00.839Z</time>
      </trkpt>
      <trkpt lat="53.17298" lon="7.36989">
        <ele>46.717185</ele>
        <time>2024-07-12T07:48:03.865Z</time>
      </trkpt>
      <trkpt lat="53.17307" lon="7.37">
        <ele>46.775811</ele>
        <time>2024-07-12T07:48:06.854Z</time>
      </trkpt>
      <trkpt lat="53.17318" lon="7.3701">
        <ele>46.837645</ele>
        <time>2024-07-12T07:48:09.857Z</time>
      </trkpt>
      <trkpt lat="53.17328" lon="7.3702">
        <ele>46.898149</ele>
        <time>2024-07-12T07:48:12.862Z</time>
      </trkpt>
      <trkpt lat="53.17339" lon="7.3703">
        <ele>46.959503</ele>
        <time>2024-07-12T07:48:15.840Z</time>
      </trkpt>
      <trkpt lat="53.17349" lon="7.37041">
        <ele>47.02075</ele>
        <time>2024-07-12T07:48:18.844Z</time>
      </trkpt>
      <trkpt lat="53.17359" lon="7.37051">
        <ele>47.080392</ele>
        <time>2024-07-12T07:48:21.841Z</time>
      </trkpt>
      <trkpt lat="53.1737" lon="7.37062">
        <ele>47.142197</ele>
        <time>2024-07-12T07:48:24.864Z</time>
      </trkpt>
      <trkpt lat="53.1738" lon="7.37072">
        <ele>47.20224</ele>
        <time>2024-07-12T07:48:27.855Z</time>
      </trkpt>
      <trkpt lat="53.1739" lon="7.37081">
        <ele>47.211321</ele>
        <time>2024-07-12T07:48:30.844Z</time>
      </trkpt>
      <trkpt lat="53.174" lon="7.3709">
        <ele>47.033505</ele>
        <time>2024-07-12T07:48:33.844Z</time>
      </trkpt>
      <trkpt lat="53.17409" lon="7.37099">
        <ele>46.862185</ele>
        <time>2024-07-12T07:48:36.845Z</time>
      </trkpt>
      <trkpt lat="53.17416" lon="7.37108">
        <ele>46.711792</ele>
        <time>2024-07-12T07:48:41.842Z</time>
      </trkpt>
      <trkpt lat="53.17425" lon="7.37112">
        <ele>46.561819</ele>
        <time>2024-07-12T07:48:55.840Z</time>
      </trkpt>
      <trkpt lat="53.1743" lon="7.37125">
        <ele>46.410748</ele>
        <time>2024-07-12T07:53:38.825Z</time>
      </trkpt>
      <trkpt lat="53.17438" lon="7.37134">
        <ele>46.246057</ele>
        <time>2024-07-12T07:53:44.835Z</time>
      </trkpt>
      <trkpt lat="53.17445" lon="7.37147">
        <ele>46.084655</ele>
        <time>2024-07-12T07:53:48.847Z</time>
      </trkpt>
      <trkpt lat="53.1745" lon="7.37159">
        <ele>45.927774</ele>
        <time>2024-07-12T07:53:52.867Z</time>
      </trkpt>
      <trkpt lat="53.17456" lon="7.37175">
        <ele>45.7436</ele>
        <time>2024-07-12T07:53:56.853Z</time>
      </trkpt>
      <trkpt lat="53.17461" lon="7.37189">
        <ele>45.589042</ele>
        <time>2024-07-12T07:53:59.837Z</time>
      </trkpt>
      <trkpt lat="53.17465" lon="7.37204">
        <ele>45.426707</ele>
        <time>2024-07-12T07:54:02.863Z</time>
      </trkpt>
      <trkpt lat="53.17469" lon="7.3722">
        <ele>45.255291</ele>
        <time>2024-07-12T07:54:05.859Z</time>
      </trkpt>
      <trkpt lat="53.17472" lon="7.37238">
        <ele>45.070456</ele>
        <time>2024-07-12T07:54:08.842Z</time>
      </trkpt>
      <trkpt lat="53.17476" lon="7.37255">
        <ele>44.88375</ele>
        <time>2024-07-12T07:54:11.838Z</time>
      </trkpt>
      <trkpt lat="53.17482" lon="7.37273">
        <ele>44.685603</ele>
        <time>2024-07-12T07:54:14.844Z</time>
      </trkpt>
      <trkpt lat="53.17487" lon="7.37291">
        <ele>44.489079</ele>
        <time>2024-07-12T07:54:17.842Z</time>
      </trkpt>
      <trkpt lat="53.17492" lon="7.37309">
        <ele>44.28983</ele>
        <time>2024-07-12T07:54:20.840Z</time>
      </trkpt>
      <trkpt lat="53.17497" lon="7.37328">
        <ele>44.374361</ele>
        <time>2024-07-12T07:54:23.844Z</time>
      </trkpt>
      <trkpt lat="53.17503" lon="7.37348">
        <ele>44.477628</ele>
        <time>2024-07-12T07:54:26.854Z</time>
      </trkpt>
      <trkpt lat="53.17507" lon="7.37366">
        <ele>44.570112</ele>
        <time>2024-07-12T07:54:29.859Z</time>
      </trkpt>
      <trkpt lat="53.17512" lon="7.37382">
        <ele>44.653266</ele>
        <time>2024-07-12T07:54:32.857Z</time>
      </trkpt>
      <trkpt lat="53.17517" lon="7.37399">
        <ele>44.739699</ele>
        <time>2024-07-12T07:54:35.833Z</time>
      </trkpt>
      <trkpt lat="53.17522" lon="7.37416">
        <ele>44.830509</ele>
        <time>2024-07-12T07:54:38.853Z</time>
      </trkpt>
      <trkpt lat="53.17527" lon="7.37433">
        <ele>44.918882</ele>
        <time>2024-07-12T07:54:41.838Z</time>
      </trkpt>
      <trkpt lat="53.17532" lon="7.37451">
        <ele>45.010292</ele>
        <time>2024-07-12T07:54:44.851Z</time>
      </trkpt>
      <trkpt lat="53.17536" lon="7.37467">
        <ele>45.094145</ele>
        <time>2024-07-12T07:54:47.843Z</time>
      </trkpt>
      <trkpt lat="53.1754" lon="7.37482">
        <ele>45.16991</ele>
        <time>2024-07-12T07:54:50.867Z</time>
      </trkpt>
      <trkpt lat="53.17546" lon="7.37495">
        <ele>45.246958</ele>
        <time>2024-07-12T07:54:55.846Z</time>
      </trkpt>
      <trkpt lat="53.17549" lon="7.3751">
        <ele>45.320955</ele>
        <time>2024-07-12T07:54:59.831Z</time>
      </trkpt>
      <trkpt lat="53.17554" lon="7.37528">
        <ele>45.411518</ele>
        <time>2024-07-12T07:55:03.830Z</time>
      </trkpt>
      <trkpt lat="53.17558" lon="7.37541">
        <ele>45.481876</ele>
        <time>2024-07-12T07:55:06.846Z</time>
      </trkpt>
      <trkpt lat="53.17562" lon="7.37559">
        <ele>45.572303</ele>
        <time>2024-07-12T07:55:10.856Z</time>
      </trkpt>
      <trkpt lat="53.17567" lon="7.37573">
        <ele>45.644115</ele>
        <time>2024-07-12T07:55:13.837Z</time>
      </trkpt>
      <trkpt lat="53.17571" lon="7.37587">
        <ele>45.729791</ele>
        <time>2024-07-12T07:55:16.845Z</time>
      </trkpt>
      <trkpt lat="53.17575" lon="7.37602">
        <ele>45.82876</ele>
        <time>2024-07-12T07:55:19.840Z</time>
      </trkpt>
      <trkpt lat="53.1758" lon="7.37617">
        <ele>45.92898</ele>
        <time>2024-07-12T07:55:22.845Z</time>
      </trkpt>
      <trkpt lat="53.17585" lon="7.37632">
        <ele>46.030277</ele>
        <time>2024-07-12T07:55:25.850Z</time>
      </trkpt>
      <trkpt lat="53.1759" lon="7.37647">
        <ele>46.132213</ele>
        <time>2024-07-12T07:55:28.849Z</time>
      </trkpt>
      <trkpt lat="53.17594" lon="7.37662">
        <ele>46.235899</ele>
        <time>2024-07-12T07:55:31.854Z</time>
      </trkpt>
      <trkpt lat="53.17599" lon="7.37679">
        <ele>46.343482</ele>
        <time>2024-07-12T07:55:34.866Z</time>
      </trkpt>
      <trkpt lat="53.17603" lon="7.37697">
        <ele>46.462616</ele>
        <time>2024-07-12T07:55:37.861Z</time>
      </trkpt>
      <trkpt lat="53.17608" lon="7.37713">
        <ele>46.571726</ele>
        <time>2024-07-12T07:55:40.849Z</time>
      </trkpt>
      <trkpt lat="53.17614" lon="7.37729">
        <ele>46.6839</ele>
        <time>2024-07-12T07:55:43.838Z</time>
      </trkpt>
      <trkpt lat="53.17619" lon="7.37746">
        <ele>46.793066</ele>
        <time>2024-07-12T07:55:46.845Z</time>
      </trkpt>
      <trkpt lat="53.17624" lon="7.37762">
        <ele>46.905202</ele>
        <time>2024-07-12T07:55:49.839Z</time>
      </trkpt>
      <trkpt lat="53.17631" lon="7.37778">
        <ele>47.02144</ele>
        <time>2024-07-12T07:55:52.842Z</time>
      </trkpt>
      <trkpt lat="53.17636" lon="7.37795">
        <ele>47.136647</ele>
        <time>2024-07-12T07:55:55.854Z</time>
      </trkpt>
      <trkpt lat="53.17641" lon="7.37812">
        <ele>47.249629</ele>
        <time>2024-07-12T07:55:58.838Z</time>
      </trkpt>
      <trkpt lat="53.17648" lon="7.37828">
        <ele>47.365899</ele>
        <time>2024-07-12T07:56:01.833Z</time>
      </trkpt>
      <trkpt lat="53.17653" lon="7.37845">
        <ele>47.483732</ele>
        <time>2024-07-12T07:56:04.850Z</time>
      </trkpt>
      <trkpt lat="53.17659" lon="7.37861">
        <ele>47.555708</ele>
        <time>2024-07-12T07:56:07.832Z</time>
      </trkpt>
      <trkpt lat="53.17664" lon="7.37878">
        <ele>47.629774</ele>
        <time>2024-07-12T07:56:10.849Z</time>
      </trkpt>
      <trkpt lat="53.17671" lon="7.37894">
        <ele>47.704215</ele>
        <time>2024-07-12T07:56:13.846Z</time>
      </trkpt>
      <trkpt lat="53.17677" lon="7.3791">
        <ele>47.780594</ele>
        <time>2024-07-12T07:56:16.862Z</time>
      </trkpt>
      <trkpt lat="53.17684" lon="7.37926">
        <ele>47.857012</ele>
        <time>2024-07-12T07:56:19.844Z</time>
      </trkpt>
      <trkpt lat="53.17691" lon="7.37944">
        <ele>47.938376</ele>
        <time>2024-07-12T07:56:22.865Z</time>
      </trkpt>
      <trkpt lat="53.17698" lon="7.3796">
        <ele>48.016922</ele>
        <time>2024-07-12T07:56:25.852Z</time>
      </trkpt>
      <trkpt lat="53.17705" lon="7.37977">
        <ele>48.096423</ele>
        <time>2024-07-12T07:56:28.843Z</time>
      </trkpt>
      <trkpt lat="53.17712" lon="7.37993">
        <ele>48.174652</ele>
        <time>2024-07-12T07:56:31.841Z</time>
      </trkpt>
      <trkpt lat="53.17719" lon="7.3801">
        <ele>48.253331</ele>
        <time>2024-07-12T07:56:34.843Z</time>
      </trkpt>
      <trkpt lat="53.17726" lon="7.38026">
        <ele>48.331182</ele>
        <time>2024-07-12T07:56:37.844Z</time>
      </trkpt>
      <trkpt lat="53.17733" lon="7.38042">
        <ele>48.408925</ele>
        <time>2024-07-12T07:56:40.853Z</time>
      </trkpt>
      <trkpt lat="53.17739" lon="7.38058">
        <ele>48.485989</ele>
        <time>2024-07-12T07:56:43.842Z</time>
      </trkpt>
      <trkpt lat="53.17746" lon="7.38073">
        <ele>48.559213</ele>
        <time>2024-07-12T07:56:46.853Z</time>
      </trkpt>
      <trkpt lat="53.17753" lon="7.38089">
        <ele>48.636731</ele>
        <time>2024-07-12T07:56:49.845Z</time>
      </trkpt>
      <trkpt lat="53.17761" lon="7.38105">
        <ele>48.613738</ele>
        <time>2024-07-12T07:56:52.847Z</time>
      </trkpt>
      <trkpt lat="53.17768" lon="7.38121">
        <ele>48.566716</ele>
        <time>2024-07-12T07:56:55.840Z</time>
      </trkpt>
      <trkpt lat="53.17775" lon="7.38137">
        <ele>48.518258</ele>
        <time>2024-07-12T07:56:58.856Z</time>
      </trkpt>
      <trkpt lat="53.17783" lon="7.38152">
        <ele>48.470353</ele>
        <time>2024-07-12T07:57:01.854Z</time>
      </trkpt>
      <trkpt lat="53.17791" lon="7.38167">
        <ele>48.422743</ele>
        <time>2024-07-12T07:57:04.858Z</time>
      </trkpt>
      <trkpt lat="53.17799" lon="7.38182">
        <ele>48.374598</ele>
        <time>2024-07-12T07:57:07.821Z</time>
      </trkpt>
      <trkpt lat="53.17808" lon="7.38196">
        <ele>48.324997</ele>
        <time>2024-07-12T07:57:10.843Z</time>
      </trkpt>
      <trkpt lat="53.17815" lon="7.38212">
        <ele>48.277786</ele>
        <time>2024-07-12T07:57:13.862Z</time>
      </trkpt>
      <trkpt lat="53.17823" lon="7.38226">
        <ele>48.230226</ele>
        <time>2024-07-12T07:57:16.842Z</time>
      </trkpt>
      <trkpt lat="53.17831" lon="7.38241">
        <ele>48.183234</ele>
        <time>2024-07-12T07:57:19.838Z</time>
      </trkpt>
      <trkpt lat="53.17839" lon="7.38256">
        <ele>48.133929</ele>
        <time>2024-07-12T07:57:22.848Z</time>
      </trkpt>
      <trkpt lat="53.17848" lon="7.38271">
        <ele>48.086025</ele>
        <time>2024-07-12T07:57:25.853Z</time>
      </trkpt>
      <trkpt lat="53.17856" lon="7.38287">
        <ele>48.034843</ele>
        <time>2024-07-12T07:57:28.854Z</time>
      </trkpt>
      <trkpt lat="53.17864" lon="7.38301">
        <ele>47.986592</ele>
        <time>2024-07-12T07:57:31.834Z</time>
      </trkpt>
      <trkpt lat="53.17872" lon="7.38315">
        <ele>47.940789</ele>
        <time>2024-07-12T07:57:34.845Z</time>
      </trkpt>
      <trkpt lat="53.17881" lon="7.38329">
        <ele>47.794611</ele>
        <time>2024-07-12T07:57:37.854Z</time>
      </trkpt>
      <trkpt lat="53.17889" lon="7.38342">
        <ele>47.632893</ele>
        <time>2024-07-12T07:57:40.849Z</time>
      </trkpt>
      <trkpt lat="53.17898" lon="7.38356">
        <ele>47.469073</ele>
        <time>2024-07-12T07:57:43.849Z</time>
      </trkpt>
      <trkpt lat="53.17906" lon="7.38371">
        <ele>47.30354</ele>
        <time>2024-07-12T07:57:46.856Z</time>
      </trkpt>
      <trkpt lat="53.17915" lon="7.38385">
        <ele>47.137229</ele>
        <time>2024-07-12T07:57:49.845Z</time>
      </trkpt>
      <trkpt lat="53.17924" lon="7.38399">
        <ele>46.969236</ele>
        <time>2024-07-12T07:57:52.858Z</time>
      </trkpt>
      <trkpt lat="53.17933" lon="7.38412">
        <ele>46.797239</ele>
        <time>2024-07-12T07:57:55.853Z</time>
      </trkpt>
      <trkpt lat="53.17942" lon="7.38426">
        <ele>46.634169</ele>
        <time>2024-07-12T07:57:58.842Z</time>
      </trkpt>
      <trkpt lat="53.17949" lon="7.38438">
        <ele>46.490402</ele>
        <time>2024-07-12T07:58:01.860Z</time>
      </trkpt>
      <trkpt lat="53.17958" lon="7.38451">
        <ele>46.332061</ele>
        <time>2024-07-12T07:58:05.845Z</time>
      </trkpt>
      <trkpt lat="53.17965" lon="7.3846">
        <ele>46.20508</ele>
        <time>2024-07-12T07:58:09.844Z</time>
      </trkpt>
      <trkpt lat="53.17975" lon="7.38469">
        <ele>46.055313</ele>
        <time>2024-07-12T07:58:15.845Z</time>
      </trkpt>
      <trkpt lat="53.1798" lon="7.38483">
        <ele>45.922836</ele>
        <time>2024-07-12T07:58:20.840Z</time>
      </trkpt>
      <trkpt lat="53.17989" lon="7.38488">
        <ele>45.782684</ele>
        <time>2024-07-12T07:58:25.856Z</time>
      </trkpt>
      <trkpt lat="53.17995" lon="7.385">
        <ele>45.649772</ele>
        <time>2024-07-12T07:58:30.850Z</time>
      </trkpt>
      <trkpt lat="53.18003" lon="7.38513">
        <ele>45.495031</ele>
        <time>2024-07-12T07:58:35.852Z</time>
      </trkpt>
      <trkpt lat="53.18012" lon="7.38525">
        <ele>45.565665</ele>
        <time>2024-07-12T07:58:40.847Z</time>
      </trkpt>
      <trkpt lat="53.1802" lon="7.38535">
        <ele>45.69604</ele>
        <time>2024-07-12T07:58:44.846Z</time>
      </trkpt>
      <trkpt lat="53.18028" lon="7.38546">
        <ele>45.834025</ele>
        <time>2024-07-12T07:58:48.868Z</time>
      </trkpt>
      <trkpt lat="53.18037" lon="7.38558">
        <ele>45.981763</ele>
        <time>2024-07-12T07:58:52.854Z</time>
      </trkpt>
      <trkpt lat="53.18044" lon="7.38567">
        <ele>46.104979</ele>
        <time>2024-07-12T07:58:55.850Z</time>
      </trkpt>
      <trkpt lat="53.18052" lon="7.38577">
        <ele>46.23552</ele>
        <time>2024-07-12T07:58:58.854Z</time>
      </trkpt>
      <trkpt lat="53.1806" lon="7.38587">
        <ele>46.368552</ele>
        <time>2024-07-12T07:59:01.857Z</time>
      </trkpt>
      <trkpt lat="53.18068" lon="7.38597">
        <ele>46.50647</ele>
        <time>2024-07-12T07:59:04.857Z</time>
      </trkpt>
      <trkpt lat="53.18077" lon="7.38609">
        <ele>46.648524</ele>
        <time>2024-07-12T07:59:07.850Z</time>
      </trkpt>
      <trkpt lat="53.18086" lon="7.38619">
        <ele>46.798779</ele>
        <time>2024-07-12T07:59:10.874Z</time>
      </trkpt>
      <trkpt lat="53.18095" lon="7.38631">
        <ele>46.953818</ele>
        <time>2024-07-12T07:59:13.850Z</time>
      </trkpt>
      <trkpt lat="53.18105" lon="7.38642">
        <ele>47.105811</ele>
        <time>2024-07-12T07:59:16.863Z</time>
      </trkpt>
      <trkpt lat="53.18114" lon="7.38653">
        <ele>47.254597</ele>
        <time>2024-07-12T07:59:19.837Z</time>
      </trkpt>
      <trkpt lat="53.18123" lon="7.38664">
        <ele>47.402537</ele>
        <time>2024-07-12T07:59:22.839Z</time>
      </trkpt>
      <trkpt lat="53.18132" lon="7.38676">
        <ele>47.559716</ele>
        <time>2024-07-12T07:59:25.853Z</time>
      </trkpt>
      <trkpt lat="53.18142" lon="7.38687">
        <ele>47.717509</ele>
        <time>2024-07-12T07:59:28.853Z</time>
      </trkpt>
      <trkpt lat="53.18151" lon="7.38698">
        <ele>47.828977</ele>
        <time>2024-07-12T07:59:31.841Z</time>
      </trkpt>
      <trkpt lat="53.18161" lon="7.3871">
        <ele>47.768708</ele>
        <time>2024-07-12T07:59:34.841Z</time>
      </trkpt>
      <trkpt lat="53.18171" lon="7.38721">
        <ele>47.706363</ele>
        <time>2024-07-12T07:59:37.850Z</time>
      </trkpt>
      <trkpt lat="53.18182" lon="7.38732">
        <ele>47.640439</ele>
        <time>2024-07-12T07:59:40.855Z</time>
      </trkpt>
      <trkpt lat="53.18192" lon="7.38744">
        <ele>47.574859</ele>
        <time>2024-07-12T07:59:43.855Z</time>
      </trkpt>
      <trkpt lat="53.18204" lon="7.38756">
        <ele>47.507413</ele>
        <time>2024-07-12T07:59:46.852Z</time>
      </trkpt>
      <trkpt lat="53.18215" lon="7.38767">
        <ele>47.440843</ele>
        <time>2024-07-12T07:59:49.855Z</time>
      </trkpt>
      <trkpt lat="53.18226" lon="7.38778">
        <ele>47.376382</ele>
        <time>2024-07-12T07:59:52.842Z</time>
      </trkpt>
      <trkpt lat="53.18237" lon="7.38789">
        <ele>47.307742</ele>
        <time>2024-07-12T07:59:55.844Z</time>
      </trkpt>
      <trkpt lat="53.18248" lon="7.388">
        <ele>47.243437</ele>
        <time>2024-07-12T07:59:58.857Z</time>
      </trkpt>
      <trkpt lat="53.18259" lon="7.38811">
        <ele>47.178976</ele>
        <time>2024-07-12T08:00:01.842Z</time>
      </trkpt>
      <trkpt lat="53.18269" lon="7.38822">
        <ele>47.115503</ele>
        <time>2024-07-12T08:00:04.861Z</time>
      </trkpt>
      <trkpt lat="53.18281" lon="7.38832">
        <ele>47.049132</ele>
        <time>2024-07-12T08:00:07.847Z</time>
      </trkpt>
      <trkpt lat="53.18291" lon="7.38842">
        <ele>46.986929</ele>
        <time>2024-07-12T08:00:10.848Z</time>
      </trkpt>
      <trkpt lat="53.18302" lon="7.38853">
        <ele>46.924377</ele>
        <time>2024-07-12T08:00:13.861Z</time>
      </trkpt>
      <trkpt lat="53.18312" lon="7.38864">
        <ele>46.851234</ele>
        <time>2024-07-12T08:00:16.856Z</time>
      </trkpt>
      <trkpt lat="53.18323" lon="7.38874">
        <ele>46.775801</ele>
        <time>2024-07-12T08:00:19.842Z</time>
      </trkpt>
      <trkpt lat="53.18333" lon="7.38885">
        <ele>46.701748</ele>
        <time>2024-07-12T08:00:22.838Z</time>
      </trkpt>
      <trkpt lat="53.18344" lon="7.38896">
        <ele>46.624337</ele>
        <time>2024-07-12T08:00:25.865Z</time>
      </trkpt>
      <trkpt lat="53.18354" lon="7.3891">
        <ele>46.542238</ele>
        <time>2024-07-12T08:00:28.841Z</time>
      </trkpt>
      <trkpt lat="53.18364" lon="7.38923">
        <ele>46.463671</ele>
        <time>2024-07-12T08:00:31.849Z</time>
      </trkpt>
      <trkpt lat="53.18374" lon="7.38937">
        <ele>46.387917</ele>
        <time>2024-07-12T08:00:34.846Z</time>
      </trkpt>
      <trkpt lat="53.18384" lon="7.38951">
        <ele>46.306556</ele>
        <time>2024-07-12T08:00:37.845Z</time>
      </trkpt>
      <trkpt lat="53.18391" lon="7.38961">
        <ele>46.250759</ele>
        <time>2024-07-12T08:00:39.841Z</time>
      </trkpt>
      <trkpt lat="53.184" lon="7.38974">
        <ele>46.175488</ele>
        <time>2024-07-12T08:00:42.854Z</time>
      </trkpt>
      <trkpt lat="53.1841" lon="7.38988">
        <ele>46.098122</ele>
        <time>2024-07-12T08:00:45.839Z</time>
      </trkpt>
      <trkpt lat="53.18419" lon="7.39003">
        <ele>46.018257</ele>
        <time>2024-07-12T08:00:48.860Z</time>
      </trkpt>
      <trkpt lat="53.18426" lon="7.39013">
        <ele>45.962449</ele>
        <time>2024-07-12T08:00:50.843Z</time>
      </trkpt>
      <trkpt lat="53.18434" lon="7.39023">
        <ele>45.90407</ele>
        <time>2024-07-12T08:00:52.833Z</time>
      </trkpt>
      <trkpt lat="53.18443" lon="7.39038">
        <ele>45.822368</ele>
        <time>2024-07-12T08:00:55.830Z</time>
      </trkpt>
      <trkpt lat="53.18454" lon="7.39053">
        <ele>45.897722</ele>
        <time>2024-07-12T08:00:58.849Z</time>
      </trkpt>
      <trkpt lat="53.18461" lon="7.39063">
        <ele>45.952215</ele>
        <time>2024-07-12T08:01:00.860Z</time>
      </trkpt>
      <trkpt lat="53.18468" lon="7.39074">
        <ele>46.008659</ele>
        <time>2024-07-12T08:01:02.856Z</time>
      </trkpt>
      <trkpt lat="53.18475" lon="7.39084">
        <ele>46.062465</ele>
        <time>2024-07-12T08:01:04.850Z</time>
      </trkpt>
      <trkpt lat="53.18484" lon="7.39099">
        <ele>46.139044</ele>
        <time>2024-07-12T08:01:07.851Z</time>
      </trkpt>
      <trkpt lat="53.1849" lon="7.39111">
        <ele>46.19314</ele>
        <time>2024-07-12T08:01:09.840Z</time>
      </trkpt>
      <trkpt lat="53.18498" lon="7.39128">
        <ele>46.269458</ele>
        <time>2024-07-12T08:01:12.847Z</time>
      </trkpt>
      <trkpt lat="53.18507" lon="7.39143">
        <ele>46.341978</ele>
        <time>2024-07-12T08:01:15.846Z</time>
      </trkpt>
      <trkpt lat="53.18515" lon="7.39158">
        <ele>46.415152</ele>
        <time>2024-07-12T08:01:18.844Z</time>
      </trkpt>
      <trkpt lat="53.18523" lon="7.39174">
        <ele>46.484823</ele>
        <time>2024-07-12T08:01:21.844Z</time>
      </trkpt>
      <trkpt lat="53.18531" lon="7.39188">
        <ele>46.554371</ele>
        <time>2024-07-12T08:01:24.871Z</time>
      </trkpt>
      <trkpt lat="53.18539" lon="7.39202">
        <ele>46.623232</ele>
        <time>2024-07-12T08:01:27.830Z</time>
      </trkpt>
      <trkpt lat="53.18546" lon="7.39218">
        <ele>46.691787</ele>
        <time>2024-07-12T08:01:30.843Z</time>
      </trkpt>
      <trkpt lat="53.18553" lon="7.39233">
        <ele>46.762433</ele>
        <time>2024-07-12T08:01:33.843Z</time>
      </trkpt>
      <trkpt lat="53.18561" lon="7.39248">
        <ele>46.829726</ele>
        <time>2024-07-12T08:01:36.846Z</time>
      </trkpt>
      <trkpt lat="53.18569" lon="7.39262">
        <ele>46.900161</ele>
        <time>2024-07-12T08:01:39.841Z</time>
      </trkpt>
      <trkpt lat="53.18576" lon="7.39278">
        <ele>46.972005</ele>
        <time>2024-07-12T08:01:42.858Z</time>
      </trkpt>
      <trkpt lat="53.18584" lon="7.39293">
        <ele>47.048955</ele>
        <time>2024-07-12T08:01:45.861Z</time>
      </trkpt>
      <trkpt lat="53.18591" lon="7.39309">
        <ele>47.125676</ele>
        <time>2024-07-12T08:01:48.849Z</time>
      </trkpt>
      <trkpt lat="53.18599" lon="7.39325">
        <ele>47.202976</ele>
        <time>2024-07-12T08:01:51.848Z</time>
      </trkpt>
      <trkpt lat="53.18606" lon="7.39342">
        <ele>47.280993</ele>
        <time>2024-07-12T08:01:54.856Z</time>
      </trkpt>
      <trkpt lat="53.18614" lon="7.3936">
        <ele>47.360903</ele>
        <time>2024-07-12T08:01:57.848Z</time>
      </trkpt>
      <trkpt lat="53.18621" lon="7.39377">
        <ele>47.43892</ele>
        <time>2024-07-12T08:02:00.849Z</time>
      </trkpt>
      <trkpt lat="53.18628" lon="7.39395">
        <ele>47.518783</ele>
        <time>2024-07-12T08:02:03.859Z</time>
      </trkpt>
      <trkpt lat="53.18635" lon="7.39409">
        <ele>47.586223</ele>
        <time>2024-07-12T08:02:06.859Z</time>
      </trkpt>
      <trkpt lat="53.1864" lon="7.39422">
        <ele>47.646834</ele>
        <time>2024-07-12T08:02:09.846Z</time>
      </trkpt>
      <trkpt lat="53.18647" lon="7.39436">
        <ele>47.716134</ele>
        <time>2024-07-12T08:02:12.858Z</time>
      </trkpt>
      <trkpt lat="53.18654" lon="7.39452">
        <ele>47.787916</ele>
        <time>2024-07-12T08:02:15.834Z</time>
      </trkpt>
      <trkpt lat="53.18661" lon="7.39469">
        <ele>47.865754</ele>
        <time>2024-07-12T08:02:18.865Z</time>
      </trkpt>
      <trkpt lat="53.18668" lon="7.39486">
        <ele>47.943674</ele>
        <time>2024-07-12T08:02:21.830Z</time>
      </trkpt>
      <trkpt lat="53.18674" lon="7.39505">
        <ele>47.987536</ele>
        <time>2024-07-12T08:02:24.860Z</time>
      </trkpt>
      <trkpt lat="53.18681" lon="7.39525">
        <ele>47.948022</ele>
        <time>2024-07-12T08:02:27.853Z</time>
      </trkpt>
      <trkpt lat="53.18687" lon="7.39545">
        <ele>47.908121</ele>
        <time>2024-07-12T08:02:30.840Z</time>
      </trkpt>
      <trkpt lat="53.18692" lon="7.39564">
        <ele>47.869713</ele>
        <time>2024-07-12T08:02:33.842Z</time>
      </trkpt>
      <trkpt lat="53.18697" lon="7.39583">
        <ele>47.83127</ele>
        <time>2024-07-12T08:02:36.854Z</time>
      </trkpt>
      <trkpt lat="53.18703" lon="7.39602">
        <ele>47.793568</ele>
        <time>2024-07-12T08:02:39.849Z</time>
      </trkpt>
      <trkpt lat="53.18708" lon="7.39623">
        <ele>47.754571</ele>
        <time>2024-07-12T08:02:42.849Z</time>
      </trkpt>
      <trkpt lat="53.18712" lon="7.39643">
        <ele>47.716679</ele>
        <time>2024-07-12T08:02:45.838Z</time>
      </trkpt>
      <trkpt lat="53.18716" lon="7.39663">
        <ele>47.678083</ele>
        <time>2024-07-12T08:02:48.845Z</time>
      </trkpt>
      <trkpt lat="53.1872" lon="7.39683">
        <ele>47.639348</ele>
        <time>2024-07-12T08:02:51.853Z</time>
      </trkpt>
      <trkpt lat="53.18723" lon="7.39705">
        <ele>47.599581</ele>
        <time>2024-07-12T08:02:54.831Z</time>
      </trkpt>
      <trkpt lat="53.18726" lon="7.39725">
        <ele>47.561236</ele>
        <time>2024-07-12T08:02:57.856Z</time>
      </trkpt>
      <trkpt lat="53.18729" lon="7.39746">
        <ele>47.522699</ele>
        <time>2024-07-12T08:03:00.853Z</time>
      </trkpt>
      <trkpt lat="53.18731" lon="7.39761">
        <ele>47.495673</ele>
        <time>2024-07-12T08:03:02.827Z</time>
      </trkpt>
      <trkpt lat="53.18732" lon="7.39776">
        <ele>47.467989</ele>
        <time>2024-07-12T08:03:04.846Z</time>
      </trkpt>
      <trkpt lat="53.18733" lon="7.39791">
        <ele>47.44757</ele>
        <time>2024-07-12T08:03:06.847Z</time>
      </trkpt>
      <trkpt lat="53.18735" lon="7.39806">
        <ele>47.429462</ele>
        <time>2024-07-12T08:03:08.839Z</time>
      </trkpt>
      <trkpt lat="53.18736" lon="7.39828">
        <ele>47.403576</ele>
        <time>2024-07-12T08:03:11.858Z</time>
      </trkpt>
      <trkpt lat="53.18738" lon="7.39848">
        <ele>47.379792</ele>
        <time>2024-07-12T08:03:14.849Z</time>
      </trkpt>
      <trkpt lat="53.18739" lon="7.39863">
        <ele>47.361919</ele>
        <time>2024-07-12T08:03:16.873Z</time>
      </trkpt>
      <trkpt lat="53.18741" lon="7.39885">
        <ele>47.335401</ele>
        <time>2024-07-12T08:03:19.847Z</time>
      </trkpt>
      <trkpt lat="53.18741" lon="7.399">
        <ele>47.317306</ele>
        <time>2024-07-12T08:03:21.846Z</time>
      </trkpt>
      <trkpt lat="53.18743" lon="7.39915">
        <ele>47.299343</ele>
        <time>2024-07-12T08:03:23.854Z</time>
      </trkpt>
      <trkpt lat="53.18744" lon="7.39931">
        <ele>47.280294</ele>
        <time>2024-07-12T08:03:25.848Z</time>
      </trkpt>
      <trkpt lat="53.18745" lon="7.39946">
        <ele>47.262214</ele>
        <time>2024-07-12T08:03:27.860Z</time>
      </trkpt>
      <trkpt lat="53.18746" lon="7.39962">
        <ele>47.24349</ele>
        <time>2024-07-12T08:03:29.853Z</time>
      </trkpt>
      <trkpt lat="53.18748" lon="7.39978">
        <ele>47.224491</ele>
        <time>2024-07-12T08:03:31.843Z</time>
      </trkpt>
      <trkpt lat="53.18749" lon="7.39993">
        <ele>47.205587</ele>
        <time>2024-07-12T08:03:33.846Z</time>
      </trkpt>
      <trkpt lat="53.1875" lon="7.40009">
        <ele>47.18663</ele>
        <time>2024-07-12T08:03:35.855Z</time>
      </trkpt>
      <trkpt lat="53.18751" lon="7.40026">
        <ele>47.166993</ele>
        <time>2024-07-12T08:03:37.849Z</time>
      </trkpt>
      <trkpt lat="53.18753" lon="7.40042">
        <ele>47.147786</ele>
        <time>2024-07-12T08:03:39.869Z</time>
      </trkpt>
      <trkpt lat="53.18754" lon="7.40059">
        <ele>47.127663</ele>
        <time>2024-07-12T08:03:41.841Z</time>
      </trkpt>
      <trkpt lat="53.18755" lon="7.40075">
        <ele>47.107909</ele>
        <time>2024-07-12T08:03:43.845Z</time>
      </trkpt>
      <trkpt lat="53.18756" lon="7.40092">
        <ele>47.101189</ele>
        <time>2024-07-12T08:03:45.846Z</time>
      </trkpt>
      <trkpt lat="53.18757" lon="7.40108">
        <ele>47.097663</ele>
        <time>2024-07-12T08:03:47.861Z</time>
      </trkpt>
      <trkpt lat="53.18758" lon="7.40124">
        <ele>47.093974</ele>
        <time>2024-07-12T08:03:49.842Z</time>
      </trkpt>
      <trkpt lat="53.18759" lon="7.4014">
        <ele>47.09035</ele>
        <time>2024-07-12T08:03:51.832Z</time>
      </trkpt>
      <trkpt lat="53.18761" lon="7.40156">
        <ele>47.086817</ele>
        <time>2024-07-12T08:03:53.854Z</time>
      </trkpt>
      <trkpt lat="53.18764" lon="7.40171">
        <ele>47.083203</ele>
        <time>2024-07-12T08:03:55.848Z</time>
      </trkpt>
      <trkpt lat="53.18767" lon="7.40187">
        <ele>47.079611</ele>
        <time>2024-07-12T08:03:57.848Z</time>
      </trkpt>
      <trkpt lat="53.1877" lon="7.40202">
        <ele>47.076031</ele>
        <time>2024-07-12T08:03:59.836Z</time>
      </trkpt>
      <trkpt lat="53.18774" lon="7.40217">
        <ele>47.072388</ele>
        <time>2024-07-12T08:04:01.838Z</time>
      </trkpt>
      <trkpt lat="53.18779" lon="7.4023">
        <ele>47.068876</ele>
        <time>2024-07-12T08:04:03.866Z</time>
      </trkpt>
      <trkpt lat="53.18785" lon="7.40243">
        <ele>47.065445</ele>
        <time>2024-07-12T08:04:05.854Z</time>
      </trkpt>
      <trkpt lat="53.18793" lon="7.4026">
        <ele>47.060521</ele>
        <time>2024-07-12T08:04:08.830Z</time>
      </trkpt>
      <trkpt lat="53.18799" lon="7.40271">
        <ele>47.057187</ele>
        <time>2024-07-12T08:04:10.823Z</time>
      </trkpt>
      <trkpt lat="53.18809" lon="7.40286">
        <ele>47.052221</ele>
        <time>2024-07-12T08:04:13.839Z</time>
      </trkpt>
      <trkpt lat="53.18818" lon="7.40301">
        <ele>47.047581</ele>
        <time>2024-07-12T08:04:16.838Z</time>
      </trkpt>
      <trkpt lat="53.18826" lon="7.4031">
        <ele>47.043809</ele>
        <time>2024-07-12T08:04:19.862Z</time>
      </trkpt>
      <trkpt lat="53.18834" lon="7.40318">
        <ele>47.040401</ele>
        <time>2024-07-12T08:04:22.859Z</time>
      </trkpt>
      <trkpt lat="53.18843" lon="7.40324">
        <ele>47.035838</ele>
        <time>2024-07-12T08:04:26.841Z</time>
      </trkpt>
      <trkpt lat="53.18858" lon="7.40314">
        <ele>47.018031</ele>
        <time>2024-07-12T08:05:17.841Z</time>
      </trkpt>
      <trkpt lat="53.1887" lon="7.40309">
        <ele>47.005031</ele>
        <time>2024-07-12T08:05:20.868Z</time>
      </trkpt>
      <trkpt lat="53.18884" lon="7.40304">
        <ele>46.990449</ele>
        <time>2024-07-12T08:05:23.833Z</time>
      </trkpt>
      <trkpt lat="53.18893" lon="7.403">
        <ele>46.980503</ele>
        <time>2024-07-12T08:05:25.829Z</time>
      </trkpt>
      <trkpt lat="53.18901" lon="7.40294">
        <ele>46.970877</ele>
        <time>2024-07-12T08:05:27.910Z</time>
      </trkpt>
      <trkpt lat="53.18913" lon="7.40285">
        <ele>46.956537</ele>
        <time>2024-07-12T08:05:30.852Z</time>
      </trkpt>
      <trkpt lat="53.18922" lon="7.40279">
        <ele>46.946665</ele>
        <time>2024-07-12T08:05:32.843Z</time>
      </trkpt>
      <trkpt lat="53.1893" lon="7.40272">
        <ele>46.936744</ele>
        <time>2024-07-12T08:05:34.848Z</time>
      </trkpt>
      <trkpt lat="53.18938" lon="7.40264">
        <ele>46.927011</ele>
        <time>2024-07-12T08:05:36.850Z</time>
      </trkpt>
      <trkpt lat="53.18946" lon="7.40255">
        <ele>46.916933</ele>
        <time>2024-07-12T08:05:38.836Z</time>
      </trkpt>
      <trkpt lat="53.18953" lon="7.40245">
        <ele>46.906962</ele>
        <time>2024-07-12T08:05:40.846Z</time>
      </trkpt>
      <trkpt lat="53.1896" lon="7.40235">
        <ele>46.896739</ele>
        <time>2024-07-12T08:05:42.855Z</time>
      </trkpt>
      <trkpt lat="53.18967" lon="7.40225">
        <ele>46.886852</ele>
        <time>2024-07-12T08:05:44.828Z</time>
      </trkpt>
      <trkpt lat="53.18975" lon="7.40214">
        <ele>46.876064</ele>
        <time>2024-07-12T08:05:46.869Z</time>
      </trkpt>
      <trkpt lat="53.18983" lon="7.40204">
        <ele>46.865551</ele>
        <time>2024-07-12T08:05:48.842Z</time>
      </trkpt>
      <trkpt lat="53.18991" lon="7.40194">
        <ele>46.854798</ele>
        <time>2024-07-12T08:05:50.842Z</time>
      </trkpt>
      <trkpt lat="53.19" lon="7.40184">
        <ele>46.84712</ele>
        <time>2024-07-12T08:05:52.858Z</time>
      </trkpt>
      <trkpt lat="53.19009" lon="7.40177">
        <ele>46.851847</ele>
        <time>2024-07-12T08:05:54.840Z</time>
      </trkpt>
      <trkpt lat="53.19018" lon="7.40171">
        <ele>46.856336</ele>
        <time>2024-07-12T08:05:56.859Z</time>
      </trkpt>
      <trkpt lat="53.19027" lon="7.40166">
        <ele>46.860683</ele>
        <time>2024-07-12T08:05:58.840Z</time>
      </trkpt>
      <trkpt lat="53.19036" lon="7.40163">
        <ele>46.864878</ele>
        <time>2024-07-12T08:06:00.843Z</time>
      </trkpt>
      <trkpt lat="53.19045" lon="7.40162">
        <ele>46.869019</ele>
        <time>2024-07-12T08:06:02.850Z</time>
      </trkpt>
      <trkpt lat="53.19058" lon="7.40161">
        <ele>46.875083</ele>
        <time>2024-07-12T08:06:05.835Z</time>
      </trkpt>
      <trkpt lat="53.19071" lon="7.40163">
        <ele>46.881035</ele>
        <time>2024-07-12T08:06:08.870Z</time>
      </trkpt>
      <trkpt lat="53.19084" lon="7.40167">
        <ele>46.88696</ele>
        <time>2024-07-12T08:06:11.856Z</time>
      </trkpt>
      <trkpt lat="53.19096" lon="7.40173">
        <ele>46.892736</ele>
        <time>2024-07-12T08:06:14.846Z</time>
      </trkpt>
      <trkpt lat="53.19108" lon="7.40177">
        <ele>46.898302</ele>
        <time>2024-07-12T08:06:17.844Z</time>
      </trkpt>
      <trkpt lat="53.19119" lon="7.40179">
        <ele>46.903362</ele>
        <time>2024-07-12T08:06:20.839Z</time>
      </trkpt>
      <trkpt lat="53.1913" lon="7.40176">
        <ele>46.908467</ele>
        <time>2024-07-12T08:06:23.835Z</time>
      </trkpt>
      <trkpt lat="53.19141" lon="7.40169">
        <ele>46.914059</ele>
        <time>2024-07-12T08:06:26.881Z</time>
      </trkpt>
      <trkpt lat="53.19154" lon="7.40163">
        <ele>46.919924</ele>
        <time>2024-07-12T08:06:29.848Z</time>
      </trkpt>
      <trkpt lat="53.19165" lon="7.40156">
        <ele>46.925559</ele>
        <time>2024-07-12T08:06:32.862Z</time>
      </trkpt>
      <trkpt lat="53.19177" lon="7.40148">
        <ele>46.877567</ele>
        <time>2024-07-12T08:06:35.830Z</time>
      </trkpt>
      <trkpt lat="53.1919" lon="7.4014">
        <ele>46.776669</ele>
        <time>2024-07-12T08:06:38.861Z</time>
      </trkpt>
      <trkpt lat="53.19202" lon="7.40134">
        <ele>46.679016</ele>
        <time>2024-07-12T08:06:41.838Z</time>
      </trkpt>
      <trkpt lat="53.19214" lon="7.40126">
        <ele>46.578118</ele>
        <time>2024-07-12T08:06:44.838Z</time>
      </trkpt>
      <trkpt lat="53.19223" lon="7.40121">
        <ele>46.506214</ele>
        <time>2024-07-12T08:06:46.846Z</time>
      </trkpt>
      <trkpt lat="53.19236" lon="7.40115">
        <ele>46.402199</ele>
        <time>2024-07-12T08:06:49.839Z</time>
      </trkpt>
      <trkpt lat="53.19248" lon="7.4011">
        <ele>46.305427</ele>
        <time>2024-07-12T08:06:52.843Z</time>
      </trkpt>
      <trkpt lat="53.19261" lon="7.40106">
        <ele>46.202125</ele>
        <time>2024-07-12T08:06:55.843Z</time>
      </trkpt>
      <trkpt lat="53.19274" lon="7.40101">
        <ele>46.099872</ele>
        <time>2024-07-12T08:06:58.860Z</time>
      </trkpt>
      <trkpt lat="53.19287" lon="7.40097">
        <ele>45.99933</ele>
        <time>2024-07-12T08:07:01.886Z</time>
      </trkpt>
      <trkpt lat="53.19299" lon="7.40091">
        <ele>45.901286</ele>
        <time>2024-07-12T08:07:04.854Z</time>
      </trkpt>
      <trkpt lat="53.19311" lon="7.40086">
        <ele>45.805804</ele>
        <time>2024-07-12T08:07:07.838Z</time>
      </trkpt>
      <trkpt lat="53.19323" lon="7.40082">
        <ele>45.71189</ele>
        <time>2024-07-12T08:07:10.855Z</time>
      </trkpt>
      <trkpt lat="53.19336" lon="7.40079">
        <ele>45.610951</ele>
        <time>2024-07-12T08:07:13.843Z</time>
      </trkpt>
      <trkpt lat="53.19348" lon="7.40077">
        <ele>45.554745</ele>
        <time>2024-07-12T08:07:16.859Z</time>
      </trkpt>
      <trkpt lat="53.19359" lon="7.40077">
        <ele>45.604117</ele>
        <time>2024-07-12T08:07:19.858Z</time>
      </trkpt>
      <trkpt lat="53.19356" lon="7.40082">
        <ele>45.623152</ele>
        <time>2024-07-12T08:07:36.613Z</time>
      </trkpt>
      <trkpt lat="53.19366" lon="7.40077">
        <ele>45.671732</ele>
        <time>2024-07-12T08:28:03.830Z</time>
      </trkpt>
      <trkpt lat="53.19375" lon="7.40078">
        <ele>45.716358</ele>
        <time>2024-07-12T08:28:07.849Z</time>
      </trkpt>
      <trkpt lat="53.19385" lon="7.40082">
        <ele>45.763922</ele>
        <time>2024-07-12T08:28:10.835Z</time>
      </trkpt>
      <trkpt lat="53.19395" lon="7.40083">
        <ele>45.814799</ele>
        <time>2024-07-12T08:28:13.848Z</time>
      </trkpt>
      <trkpt lat="53.19406" lon="7.40085">
        <ele>45.86878</ele>
        <time>2024-07-12T08:28:16.833Z</time>
      </trkpt>
      <trkpt lat="53.19418" lon="7.40087">
        <ele>45.92529</ele>
        <time>2024-07-12T08:28:19.844Z</time>
      </trkpt>
      <trkpt lat="53.19429" lon="7.40088">
        <ele>45.979615</ele>
        <time>2024-07-12T08:28:22.835Z</time>
      </trkpt>
      <trkpt lat="53.1944" lon="7.4009">
        <ele>46.032662</ele>
        <time>2024-07-12T08:28:25.842Z</time>
      </trkpt>
      <trkpt lat="53.19451" lon="7.40092">
        <ele>46.086877</ele>
        <time>2024-07-12T08:28:28.861Z</time>
      </trkpt>
      <trkpt lat="53.19462" lon="7.40096">
        <ele>46.13989</ele>
        <time>2024-07-12T08:28:31.844Z</time>
      </trkpt>
      <trkpt lat="53.19472" lon="7.40102">
        <ele>46.189754</ele>
        <time>2024-07-12T08:28:34.841Z</time>
      </trkpt>
      <trkpt lat="53.19481" lon="7.40108">
        <ele>46.239475</ele>
        <time>2024-07-12T08:28:37.861Z</time>
      </trkpt>
      <trkpt lat="53.19491" lon="7.40115">
        <ele>46.289977</ele>
        <time>2024-07-12T08:28:40.858Z</time>
      </trkpt>
      <trkpt lat="53.195" lon="7.40121">
        <ele>46.340358</ele>
        <time>2024-07-12T08:28:43.845Z</time>
      </trkpt>
      <trkpt lat="53.1951" lon="7.40128">
        <ele>46.391402</ele>
        <time>2024-07-12T08:28:46.849Z</time>
      </trkpt>
      <trkpt lat="53.19521" lon="7.40135">
        <ele>46.419115</ele>
        <time>2024-07-12T08:28:49.836Z</time>
      </trkpt>
      <trkpt lat="53.19531" lon="7.40141">
        <ele>46.433629</ele>
        <time>2024-07-12T08:28:52.840Z</time>
      </trkpt>
      <trkpt lat="53.19541" lon="7.40149">
        <ele>46.448817</ele>
        <time>2024-07-12T08:28:55.855Z</time>
      </trkpt>
      <trkpt lat="53.19553" lon="7.40158">
        <ele>46.464946</ele>
        <time>2024-07-12T08:28:58.861Z</time>
      </trkpt>
      <trkpt lat="53.19564" lon="7.40167">
        <ele>46.481763</ele>
        <time>2024-07-12T08:29:01.844Z</time>
      </trkpt>
      <trkpt lat="53.19576" lon="7.40176">
        <ele>46.4987</ele>
        <time>2024-07-12T08:29:04.842Z</time>
      </trkpt>
      <trkpt lat="53.19587" lon="7.40185">
        <ele>46.515331</ele>
        <time>2024-07-12T08:29:07.839Z</time>
      </trkpt>
      <trkpt lat="53.19599" lon="7.40195">
        <ele>46.532629</ele>
        <time>2024-07-12T08:29:10.831Z</time>
      </trkpt>
      <trkpt lat="53.19611" lon="7.40205">
        <ele>46.550331</ele>
        <time>2024-07-12T08:29:13.844Z</time>
      </trkpt>
      <trkpt lat="53.19622" lon="7.40216">
        <ele>46.568083</ele>
        <time>2024-07-12T08:29:16.836Z</time>
      </trkpt>
      <trkpt lat="53.19633" lon="7.40229">
        <ele>46.585659</ele>
        <time>2024-07-12T08:29:19.827Z</time>
      </trkpt>
      <trkpt lat="53.19644" lon="7.40241">
        <ele>46.603035</ele>
        <time>2024-07-12T08:29:22.821Z</time>
      </trkpt>
      <trkpt lat="53.19654" lon="7.40254">
        <ele>46.620064</ele>
        <time>2024-07-12T08:29:25.843Z</time>
      </trkpt>
      <trkpt lat="53.19664" lon="7.40268">
        <ele>46.637226</ele>
        <time>2024-07-12T08:29:28.828Z</time>
      </trkpt>
      <trkpt lat="53.19675" lon="7.40281">
        <ele>46.655365</ele>
        <time>2024-07-12T08:29:31.830Z</time>
      </trkpt>
      <trkpt lat="53.19686" lon="7.4029">
        <ele>46.674767</ele>
        <time>2024-07-12T08:29:34.839Z</time>
      </trkpt>
      <trkpt lat="53.19697" lon="7.40297">
        <ele>46.694044</ele>
        <time>2024-07-12T08:29:37.837Z</time>
      </trkpt>
      <trkpt lat="53.19709" lon="7.40303">
        <ele>46.713707</ele>
        <time>2024-07-12T08:29:40.859Z</time>
      </trkpt>
      <trkpt lat="53.19722" lon="7.40309">
        <ele>46.734238</ele>
        <time>2024-07-12T08:29:43.838Z</time>
      </trkpt>
      <trkpt lat="53.19735" lon="7.40316">
        <ele>46.755027</ele>
        <time>2024-07-12T08:29:46.852Z</time>
      </trkpt>
      <trkpt lat="53.19744" lon="7.4032">
        <ele>46.769169</ele>
        <time>2024-07-12T08:29:48.845Z</time>
      </trkpt>
      <trkpt lat="53.19752" lon="7.40324">
        <ele>46.783265</ele>
        <time>2024-07-12T08:29:50.850Z</time>
      </trkpt>
      <trkpt lat="53.19761" lon="7.40329">
        <ele>46.797727</ele>
        <time>2024-07-12T08:29:52.848Z</time>
      </trkpt>
      <trkpt lat="53.19774" lon="7.40335">
        <ele>46.818638</ele>
        <time>2024-07-12T08:29:55.843Z</time>
      </trkpt>
      <trkpt lat="53.19786" lon="7.40341">
        <ele>46.839064</ele>
        <time>2024-07-12T08:29:58.863Z</time>
      </trkpt>
      <trkpt lat="53.19795" lon="7.40345">
        <ele>46.853475</ele>
        <time>2024-07-12T08:30:00.843Z</time>
      </trkpt>
      <trkpt lat="53.19804" lon="7.40349">
        <ele>46.867943</ele>
        <time>2024-07-12T08:30:02.827Z</time>
      </trkpt>
      <trkpt lat="53.19817" lon="7.40354">
        <ele>46.888574</ele>
        <time>2024-07-12T08:30:05.850Z</time>
      </trkpt>
      <trkpt lat="53.1983" lon="7.4036">
        <ele>46.9086</ele>
        <time>2024-07-12T08:30:08.846Z</time>
      </trkpt>
      <trkpt lat="53.19842" lon="7.40365">
        <ele>46.924684</ele>
        <time>2024-07-12T08:30:11.846Z</time>
      </trkpt>
      <trkpt lat="53.19854" lon="7.40371">
        <ele>46.876591</ele>
        <time>2024-07-12T08:30:14.840Z</time>
      </trkpt>
      <trkpt lat="53.19866" lon="7.40376">
        <ele>46.830992</ele>
        <time>2024-07-12T08:30:17.845Z</time>
      </trkpt>
      <trkpt lat="53.19879" lon="7.4038">
        <ele>46.782852</ele>
        <time>2024-07-12T08:30:20.841Z</time>
      </trkpt>
      <trkpt lat="53.19892" lon="7.40385">
        <ele>46.733289</ele>
        <time>2024-07-12T08:30:23.846Z</time>
      </trkpt>
      <trkpt lat="53.19904" lon="7.40391">
        <ele>46.685367</ele>
        <time>2024-07-12T08:30:26.826Z</time>
      </trkpt>
      <trkpt lat="53.19917" lon="7.40394">
        <ele>46.63825</ele>
        <time>2024-07-12T08:30:29.849Z</time>
      </trkpt>
      <trkpt lat="53.19929" lon="7.40398">
        <ele>46.590843</ele>
        <time>2024-07-12T08:30:32.999Z</time>
      </trkpt>
      <trkpt lat="53.19942" lon="7.40401">
        <ele>46.542806</ele>
        <time>2024-07-12T08:30:35.844Z</time>
      </trkpt>
      <trkpt lat="53.19951" lon="7.40404">
        <ele>46.50898</ele>
        <time>2024-07-12T08:30:37.817Z</time>
      </trkpt>
      <trkpt lat="53.19964" lon="7.40405">
        <ele>46.462522</ele>
        <time>2024-07-12T08:30:40.856Z</time>
      </trkpt>
      <trkpt lat="53.19977" lon="7.40406">
        <ele>46.414125</ele>
        <time>2024-07-12T08:30:43.832Z</time>
      </trkpt>
      <trkpt lat="53.19989" lon="7.40408">
        <ele>46.369494</ele>
        <time>2024-07-12T08:30:46.844Z</time>
      </trkpt>
      <trkpt lat="53.2" lon="7.40407">
        <ele>46.32755</ele>
        <time>2024-07-12T08:30:49.836Z</time>
      </trkpt>
      <trkpt lat="53.20013" lon="7.40402">
        <ele>46.278296</ele>
        <time>2024-07-12T08:30:52.827Z</time>
      </trkpt>
      <trkpt lat="53.20021" lon="7.40397">
        <ele>46.238414</ele>
        <time>2024-07-12T08:30:54.827Z</time>
      </trkpt>
      <trkpt lat="53.2003" lon="7.40392">
        <ele>46.186485</ele>
        <time>2024-07-12T08:30:56.854Z</time>
      </trkpt>
      <trkpt lat="53.2004" lon="7.4039">
        <ele>46.137172</ele>
        <time>2024-07-12T08:30:58.833Z</time>
      </trkpt>
      <trkpt lat="53.20049" lon="7.40389">
        <ele>46.087227</ele>
        <time>2024-07-12T08:31:00.831Z</time>
      </trkpt>
      <trkpt lat="53.20062" lon="7.40388">
        <ele>46.017343</ele>
        <time>2024-07-12T08:31:03.839Z</time>
      </trkpt>
      <trkpt lat="53.20075" lon="7.40387">
        <ele>45.950463</ele>
        <time>2024-07-12T08:31:06.849Z</time>
      </trkpt>
      <trkpt lat="53.20085" lon="7.40386">
        <ele>45.892302</ele>
        <time>2024-07-12T08:31:09.843Z</time>
      </trkpt>
      <trkpt lat="53.20094" lon="7.40387">
        <ele>45.845339</ele>
        <time>2024-07-12T08:31:17.908Z</time>
      </trkpt>
      <trkpt lat="53.20104" lon="7.40384">
        <ele>45.794982</ele>
        <time>2024-07-12T08:32:10.826Z</time>
      </trkpt>
      <trkpt lat="53.20118" lon="7.40383">
        <ele>45.717002</ele>
        <time>2024-07-12T08:32:52.840Z</time>
      </trkpt>
      <trkpt lat="53.20129" lon="7.40383">
        <ele>45.659913</ele>
        <time>2024-07-12T08:32:56.846Z</time>
      </trkpt>
      <trkpt lat="53.20138" lon="7.40384">
        <ele>45.6086</ele>
        <time>2024-07-12T08:33:00.858Z</time>
      </trkpt>
      <trkpt lat="53.20149" lon="7.40386">
        <ele>45.553556</ele>
        <time>2024-07-12T08:33:04.834Z</time>
      </trkpt>
      <trkpt lat="53.2016" lon="7.40386">
        <ele>45.493766</ele>
        <time>2024-07-12T08:33:08.840Z</time>
      </trkpt>
      <trkpt lat="53.2017" lon="7.40382">
        <ele>45.436451</ele>
        <time>2024-07-12T08:33:12.837Z</time>
      </trkpt>
      <trkpt lat="53.2018" lon="7.40379">
        <ele>45.381668</ele>
        <time>2024-07-12T08:33:16.848Z</time>
      </trkpt>
      <trkpt lat="53.2019" lon="7.40374">
        <ele>45.331127</ele>
        <time>2024-07-12T08:33:19.816Z</time>
      </trkpt>
      <trkpt lat="53.20198" lon="7.40367">
        <ele>45.328967</ele>
        <time>2024-07-12T08:33:22.845Z</time>
      </trkpt>
      <trkpt lat="53.20207" lon="7.40357">
        <ele>45.415725</ele>
        <time>2024-07-12T08:33:25.837Z</time>
      </trkpt>
      <trkpt lat="53.20218" lon="7.40347">
        <ele>45.514725</ele>
        <time>2024-07-12T08:33:28.851Z</time>
      </trkpt>
      <trkpt lat="53.2023" lon="7.40339">
        <ele>45.622571</ele>
        <time>2024-07-12T08:33:31.840Z</time>
      </trkpt>
      <trkpt lat="53.20243" lon="7.40336">
        <ele>45.73039</ele>
        <time>2024-07-12T08:33:34.851Z</time>
      </trkpt>
      <trkpt lat="53.20253" lon="7.40335">
        <ele>45.806397</ele>
        <time>2024-07-12T08:33:36.860Z</time>
      </trkpt>
      <trkpt lat="53.20262" lon="7.40337">
        <ele>45.88309</ele>
        <time>2024-07-12T08:33:38.840Z</time>
      </trkpt>
      <trkpt lat="53.20271" lon="7.40341">
        <ele>45.956066</ele>
        <time>2024-07-12T08:33:40.827Z</time>
      </trkpt>
      <trkpt lat="53.2028" lon="7.40346">
        <ele>46.032484</ele>
        <time>2024-07-12T08:33:42.850Z</time>
      </trkpt>
      <trkpt lat="53.20288" lon="7.40352">
        <ele>46.10793</ele>
        <time>2024-07-12T08:33:44.858Z</time>
      </trkpt>
      <trkpt lat="53.20298" lon="7.40358">
        <ele>46.190345</ele>
        <time>2024-07-12T08:33:46.846Z</time>
      </trkpt>
      <trkpt lat="53.20308" lon="7.40366">
        <ele>46.279133</ele>
        <time>2024-07-12T08:33:48.843Z</time>
      </trkpt>
      <trkpt lat="53.20315" lon="7.40379">
        <ele>46.364018</ele>
        <time>2024-07-12T08:33:50.841Z</time>
      </trkpt>
      <trkpt lat="53.20319" lon="7.40394">
        <ele>46.444081</ele>
        <time>2024-07-12T08:33:52.823Z</time>
      </trkpt>
      <trkpt lat="53.20323" lon="7.40408">
        <ele>46.518999</ele>
        <time>2024-07-12T08:33:54.831Z</time>
      </trkpt>
      <trkpt lat="53.2033" lon="7.40423">
        <ele>46.611604</ele>
        <time>2024-07-12T08:33:57.834Z</time>
      </trkpt>
      <trkpt lat="53.20342" lon="7.40426">
        <ele>46.705263</ele>
        <time>2024-07-12T08:34:00.836Z</time>
      </trkpt>
      <trkpt lat="53.20354" lon="7.40427">
        <ele>46.76839</ele>
        <time>2024-07-12T08:34:03.863Z</time>
      </trkpt>
      <trkpt lat="53.20366" lon="7.40426">
        <ele>46.798833</ele>
        <time>2024-07-12T08:34:06.841Z</time>
      </trkpt>
      <trkpt lat="53.20379" lon="7.40427">
        <ele>46.829277</ele>
        <time>2024-07-12T08:34:09.862Z</time>
      </trkpt>
      <trkpt lat="53.20391" lon="7.40426">
        <ele>46.858261</ele>
        <time>2024-07-12T08:34:12.862Z</time>
      </trkpt>
      <trkpt lat="53.204" lon="7.40427">
        <ele>46.88062</ele>
        <time>2024-07-12T08:34:14.856Z</time>
      </trkpt>
      <trkpt lat="53.20409" lon="7.40427">
        <ele>46.902717</ele>
        <time>2024-07-12T08:34:16.842Z</time>
      </trkpt>
      <trkpt lat="53.20421" lon="7.40427">
        <ele>46.933919</ele>
        <time>2024-07-12T08:34:19.839Z</time>
      </trkpt>
      <trkpt lat="53.20434" lon="7.40427">
        <ele>46.963649</ele>
        <time>2024-07-12T08:34:22.842Z</time>
      </trkpt>
      <trkpt lat="53.20446" lon="7.40424">
        <ele>46.99439</ele>
        <time>2024-07-12T08:34:25.854Z</time>
      </trkpt>
      <trkpt lat="53.20459" lon="7.4042">
        <ele>47.026093</ele>
        <time>2024-07-12T08:34:28.848Z</time>
      </trkpt>
      <trkpt lat="53.20468" lon="7.40417">
        <ele>47.048711</ele>
        <time>2024-07-12T08:34:30.865Z</time>
      </trkpt>
      <trkpt lat="53.2048" lon="7.40416">
        <ele>47.079714</ele>
        <time>2024-07-12T08:34:33.844Z</time>
      </trkpt>
      <trkpt lat="53.20493" lon="7.40416">
        <ele>47.111632</ele>
        <time>2024-07-12T08:34:36.827Z</time>
      </trkpt>
      <trkpt lat="53.20507" lon="7.40416">
        <ele>47.145267</ele>
        <time>2024-07-12T08:34:39.858Z</time>
      </trkpt>
      <trkpt lat="53.20516" lon="7.40416">
        <ele>47.167856</ele>
        <time>2024-07-12T08:34:41.846Z</time>
      </trkpt>
      <trkpt lat="53.20526" lon="7.40416">
        <ele>47.191672</ele>
        <time>2024-07-12T08:34:43.851Z</time>
      </trkpt>
      <trkpt lat="53.20536" lon="7.40415">
        <ele>47.172872</ele>
        <time>2024-07-12T08:34:45.856Z</time>
      </trkpt>
      <trkpt lat="53.20545" lon="7.40415">
        <ele>47.150115</ele>
        <time>2024-07-12T08:34:47.868Z</time>
      </trkpt>
      <trkpt lat="53.20555" lon="7.40413">
        <ele>47.127537</ele>
        <time>2024-07-12T08:34:49.867Z</time>
      </trkpt>
      <trkpt lat="53.20564" lon="7.40413">
        <ele>47.105957</ele>
        <time>2024-07-12T08:34:51.838Z</time>
      </trkpt>
      <trkpt lat="53.20574" lon="7.40412">
        <ele>47.084364</ele>
        <time>2024-07-12T08:34:53.850Z</time>
      </trkpt>
      <trkpt lat="53.20583" lon="7.40413">
        <ele>47.062091</ele>
        <time>2024-07-12T08:34:55.846Z</time>
      </trkpt>
      <trkpt lat="53.20593" lon="7.40413">
        <ele>47.040498</ele>
        <time>2024-07-12T08:34:57.848Z</time>
      </trkpt>
      <trkpt lat="53.20602" lon="7.40414">
        <ele>47.018682</ele>
        <time>2024-07-12T08:34:59.854Z</time>
      </trkpt>
      <trkpt lat="53.20611" lon="7.40415">
        <ele>46.997061</ele>
        <time>2024-07-12T08:35:01.848Z</time>
      </trkpt>
      <trkpt lat="53.2062" lon="7.40418">
        <ele>46.97554</ele>
        <time>2024-07-12T08:35:03.855Z</time>
      </trkpt>
      <trkpt lat="53.2063" lon="7.40419">
        <ele>46.953437</ele>
        <time>2024-07-12T08:35:05.843Z</time>
      </trkpt>
      <trkpt lat="53.20639" lon="7.40421">
        <ele>46.932062</ele>
        <time>2024-07-12T08:35:07.843Z</time>
      </trkpt>
      <trkpt lat="53.20653" lon="7.40424">
        <ele>46.900103</ele>
        <time>2024-07-12T08:35:10.838Z</time>
      </trkpt>
      <trkpt lat="53.20666" lon="7.40429">
        <ele>46.868669</ele>
        <time>2024-07-12T08:35:13.852Z</time>
      </trkpt>
      <trkpt lat="53.20675" lon="7.40432">
        <ele>46.847614</ele>
        <time>2024-07-12T08:35:15.849Z</time>
      </trkpt>
      <trkpt lat="53.20687" lon="7.40439">
        <ele>46.816322</ele>
        <time>2024-07-12T08:35:18.857Z</time>
      </trkpt>
      <trkpt lat="53.20696" lon="7.40445">
        <ele>46.795285</ele>
        <time>2024-07-12T08:35:20.842Z</time>
      </trkpt>
      <trkpt lat="53.20708" lon="7.40454">
        <ele>46.81569</ele>
        <time>2024-07-12T08:35:23.843Z</time>
      </trkpt>
      <trkpt lat="53.2072" lon="7.40462">
        <ele>46.91449</ele>
        <time>2024-07-12T08:35:26.850Z</time>
      </trkpt>
      <trkpt lat="53.20732" lon="7.40472">
        <ele>47.014437</ele>
        <time>2024-07-12T08:35:29.835Z</time>
      </trkpt>
      <trkpt lat="53.2074" lon="7.40479">
        <ele>47.085236</ele>
        <time>2024-07-12T08:35:31.848Z</time>
      </trkpt>
      <trkpt lat="53.20748" lon="7.40488">
        <ele>47.155826</ele>
        <time>2024-07-12T08:35:33.848Z</time>
      </trkpt>
      <trkpt lat="53.20756" lon="7.40496">
        <ele>47.225105</ele>
        <time>2024-07-12T08:35:35.847Z</time>
      </trkpt>
      <trkpt lat="53.20764" lon="7.40503">
        <ele>47.296925</ele>
        <time>2024-07-12T08:35:37.843Z</time>
      </trkpt>
      <trkpt lat="53.20776" lon="7.40512">
        <ele>47.398373</ele>
        <time>2024-07-12T08:35:40.849Z</time>
      </trkpt>
      <trkpt lat="53.20785" lon="7.40518">
        <ele>47.467474</ele>
        <time>2024-07-12T08:35:42.847Z</time>
      </trkpt>
      <trkpt lat="53.20797" lon="7.40526">
        <ele>47.566102</ele>
        <time>2024-07-12T08:35:45.844Z</time>
      </trkpt>
      <trkpt lat="53.20808" lon="7.40534">
        <ele>47.658271</ele>
        <time>2024-07-12T08:35:48.865Z</time>
      </trkpt>
      <trkpt lat="53.20819" lon="7.40543">
        <ele>47.75568</ele>
        <time>2024-07-12T08:35:51.851Z</time>
      </trkpt>
      <trkpt lat="53.20828" lon="7.4055">
        <ele>47.830644</ele>
        <time>2024-07-12T08:35:53.848Z</time>
      </trkpt>
      <trkpt lat="53.2084" lon="7.40557">
        <ele>47.928524</ele>
        <time>2024-07-12T08:35:56.859Z</time>
      </trkpt>
      <trkpt lat="53.20853" lon="7.40562">
        <ele>48.026901</ele>
        <time>2024-07-12T08:35:59.858Z</time>
      </trkpt>
      <trkpt lat="53.20865" lon="7.40566">
        <ele>48.119446</ele>
        <time>2024-07-12T08:36:02.825Z</time>
      </trkpt>
      <trkpt lat="53.20877" lon="7.40572">
        <ele>48.093878</ele>
        <time>2024-07-12T08:36:05.853Z</time>
      </trkpt>
      <trkpt lat="53.20889" lon="7.40576">
        <ele>48.020055</ele>
        <time>2024-07-12T08:36:08.847Z</time>
      </trkpt>
      <trkpt lat="53.20901" lon="7.4058">
        <ele>47.947629</ele>
        <time>2024-07-12T08:36:11.853Z</time>
      </trkpt>
      <trkpt lat="53.20912" lon="7.40585">
        <ele>47.877516</ele>
        <time>2024-07-12T08:36:14.843Z</time>
      </trkpt>
      <trkpt lat="53.20923" lon="7.40589">
        <ele>47.810385</ele>
        <time>2024-07-12T08:36:17.841Z</time>
      </trkpt>
      <trkpt lat="53.20934" lon="7.40587">
        <ele>47.748152</ele>
        <time>2024-07-12T08:36:20.853Z</time>
      </trkpt>
      <trkpt lat="53.20943" lon="7.40576">
        <ele>47.680679</ele>
        <time>2024-07-12T08:36:24.836Z</time>
      </trkpt>
      <trkpt lat="53.20954" lon="7.40583">
        <ele>47.612702</ele>
        <time>2024-07-12T08:36:29.831Z</time>
      </trkpt>
      <trkpt lat="53.2096" lon="7.40594">
        <ele>47.556369</ele>
        <time>2024-07-12T08:36:32.857Z</time>
      </trkpt>
      <trkpt lat="53.20966" lon="7.40605">
        <ele>47.502815</ele>
        <time>2024-07-12T08:36:35.870Z</time>
      </trkpt>
      <trkpt lat="53.20974" lon="7.40618">
        <ele>47.439608</ele>
        <time>2024-07-12T08:36:39.842Z</time>
      </trkpt>
      <trkpt lat="53.2098" lon="7.40631">
        <ele>47.378237</ele>
        <time>2024-07-12T08:36:42.856Z</time>
      </trkpt>
      <trkpt lat="53.20986" lon="7.40644">
        <ele>47.322273</ele>
        <time>2024-07-12T08:36:44.843Z</time>
      </trkpt>
      <trkpt lat="53.20992" lon="7.40656">
        <ele>47.266304</ele>
        <time>2024-07-12T08:36:46.863Z</time>
      </trkpt>
      <trkpt lat="53.20997" lon="7.40668">
        <ele>47.211333</ele>
        <time>2024-07-12T08:36:48.846Z</time>
      </trkpt>
      <trkpt lat="53.21004" lon="7.40681">
        <ele>47.150619</ele>
        <time>2024-07-12T08:36:50.854Z</time>
      </trkpt>
      <trkpt lat="53.21011" lon="7.40694">
        <ele>47.089346</ele>
        <time>2024-07-12T08:36:52.842Z</time>
      </trkpt>
      <trkpt lat="53.21019" lon="7.40706">
        <ele>47.039258</ele>
        <time>2024-07-12T08:36:54.839Z</time>
      </trkpt>
      <trkpt lat="53.21025" lon="7.40718">
        <ele>46.992929</ele>
        <time>2024-07-12T08:36:56.844Z</time>
      </trkpt>
      <trkpt lat="53.21032" lon="7.4073">
        <ele>46.945676</ele>
        <time>2024-07-12T08:36:58.830Z</time>
      </trkpt>
      <trkpt lat="53.21039" lon="7.40743">
        <ele>46.89986</ele>
        <time>2024-07-12T08:37:00.865Z</time>
      </trkpt>
      <trkpt lat="53.21046" lon="7.40756">
        <ele>46.851784</ele>
        <time>2024-07-12T08:37:02.849Z</time>
      </trkpt>
      <trkpt lat="53.21053" lon="7.40768">
        <ele>46.80586</ele>
        <time>2024-07-12T08:37:04.847Z</time>
      </trkpt>
      <trkpt lat="53.2106" lon="7.40781">
        <ele>46.756854</ele>
        <time>2024-07-12T08:37:06.860Z</time>
      </trkpt>
      <trkpt lat="53.21067" lon="7.40794">
        <ele>46.708363</ele>
        <time>2024-07-12T08:37:08.861Z</time>
      </trkpt>
      <trkpt lat="53.21074" lon="7.40807">
        <ele>46.659197</ele>
        <time>2024-07-12T08:37:10.855Z</time>
      </trkpt>
      <trkpt lat="53.21081" lon="7.4082">
        <ele>46.611428</ele>
        <time>2024-07-12T08:37:12.827Z</time>
      </trkpt>
      <trkpt lat="53.21088" lon="7.40832">
        <ele>46.563866</ele>
        <time>2024-07-12T08:37:14.854Z</time>
      </trkpt>
      <trkpt lat="53.21095" lon="7.40845">
        <ele>46.51579</ele>
        <time>2024-07-12T08:37:16.849Z</time>
      </trkpt>
      <trkpt lat="53.21103" lon="7.40858">
        <ele>46.465251</ele>
        <time>2024-07-12T08:37:18.840Z</time>
      </trkpt>
      <trkpt lat="53.2111" lon="7.4087">
        <ele>46.417716</ele>
        <time>2024-07-12T08:37:20.847Z</time>
      </trkpt>
      <trkpt lat="53.21117" lon="7.40883">
        <ele>46.370875</ele>
        <time>2024-07-12T08:37:22.833Z</time>
      </trkpt>
      <trkpt lat="53.21124" lon="7.40896">
        <ele>46.322698</ele>
        <time>2024-07-12T08:37:24.849Z</time>
      </trkpt>
      <trkpt lat="53.2113" lon="7.40908">
        <ele>46.277606</ele>
        <time>2024-07-12T08:37:26.854Z</time>
      </trkpt>
      <trkpt lat="53.21137" lon="7.4092">
        <ele>46.257417</ele>
        <time>2024-07-12T08:37:28.837Z</time>
      </trkpt>
      <trkpt lat="53.21144" lon="7.40933">
        <ele>46.294061</ele>
        <time>2024-07-12T08:37:30.849Z</time>
      </trkpt>
      <trkpt lat="53.21151" lon="7.40946">
        <ele>46.331767</ele>
        <time>2024-07-12T08:37:32.843Z</time>
      </trkpt>
      <trkpt lat="53.21158" lon="7.40958">
        <ele>46.369068</ele>
        <time>2024-07-12T08:37:34.851Z</time>
      </trkpt>
      <trkpt lat="53.21165" lon="7.4097">
        <ele>46.403697</ele>
        <time>2024-07-12T08:37:36.874Z</time>
      </trkpt>
      <trkpt lat="53.21172" lon="7.40981">
        <ele>46.438789</ele>
        <time>2024-07-12T08:37:38.845Z</time>
      </trkpt>
      <trkpt lat="53.21178" lon="7.40994">
        <ele>46.473667</ele>
        <time>2024-07-12T08:37:40.839Z</time>
      </trkpt>
      <trkpt lat="53.21185" lon="7.41005">
        <ele>46.508715</ele>
        <time>2024-07-12T08:37:42.841Z</time>
      </trkpt>
      <trkpt lat="53.21191" lon="7.41017">
        <ele>46.542952</ele>
        <time>2024-07-12T08:37:44.860Z</time>
      </trkpt>
      <trkpt lat="53.21198" lon="7.41029">
        <ele>46.578631</ele>
        <time>2024-07-12T08:37:46.855Z</time>
      </trkpt>
      <trkpt lat="53.21204" lon="7.41041">
        <ele>46.614337</ele>
        <time>2024-07-12T08:37:48.864Z</time>
      </trkpt>
      <trkpt lat="53.21211" lon="7.41053">
        <ele>46.648888</ele>
        <time>2024-07-12T08:37:50.855Z</time>
      </trkpt>
      <trkpt lat="53.21217" lon="7.41064">
        <ele>46.681909</ele>
        <time>2024-07-12T08:37:52.843Z</time>
      </trkpt>
      <trkpt lat="53.21226" lon="7.4108">
        <ele>46.728467</ele>
        <time>2024-07-12T08:37:55.845Z</time>
      </trkpt>
      <trkpt lat="53.21232" lon="7.41092">
        <ele>46.763109</ele>
        <time>2024-07-12T08:37:57.848Z</time>
      </trkpt>
      <trkpt lat="53.21239" lon="7.41103">
        <ele>46.795813</ele>
        <time>2024-07-12T08:37:59.853Z</time>
      </trkpt>
      <trkpt lat="53.21248" lon="7.41119">
        <ele>46.845258</ele>
        <time>2024-07-12T08:38:02.835Z</time>
      </trkpt>
      <trkpt lat="53.21255" lon="7.4113">
        <ele>46.879726</ele>
        <time>2024-07-12T08:38:04.853Z</time>
      </trkpt>
      <trkpt lat="53.21261" lon="7.41142">
        <ele>46.888124</ele>
        <time>2024-07-12T08:38:06.853Z</time>
      </trkpt>
      <trkpt lat="53.21269" lon="7.41159">
        <ele>46.865313</ele>
        <time>2024-07-12T08:38:09.845Z</time>
      </trkpt>
      <trkpt lat="53.21276" lon="7.41171">
        <ele>46.849381</ele>
        <time>2024-07-12T08:38:11.859Z</time>
      </trkpt>
      <trkpt lat="53.21285" lon="7.41188">
        <ele>46.826989</ele>
        <time>2024-07-12T08:38:14.847Z</time>
      </trkpt>
      <trkpt lat="53.21294" lon="7.41204">
        <ele>46.804896</ele>
        <time>2024-07-12T08:38:17.844Z</time>
      </trkpt>
      <trkpt lat="53.213" lon="7.41215">
        <ele>46.789784</ele>
        <time>2024-07-12T08:38:19.827Z</time>
      </trkpt>
      <trkpt lat="53.21306" lon="7.41226">
        <ele>46.774445</ele>
        <time>2024-07-12T08:38:21.861Z</time>
      </trkpt>
      <trkpt lat="53.21313" lon="7.41238">
        <ele>46.758738</ele>
        <time>2024-07-12T08:38:23.830Z</time>
      </trkpt>
      <trkpt lat="53.21322" lon="7.41255">
        <ele>46.736311</ele>
        <time>2024-07-12T08:38:26.846Z</time>
      </trkpt>
      <trkpt lat="53.21328" lon="7.41266">
        <ele>46.721232</ele>
        <time>2024-07-12T08:38:28.856Z</time>
      </trkpt>
      <trkpt lat="53.21334" lon="7.41277">
        <ele>46.70582</ele>
        <time>2024-07-12T08:38:30.858Z</time>
      </trkpt>
      <trkpt lat="53.2134" lon="7.41288">
        <ele>46.690554</ele>
        <time>2024-07-12T08:38:32.841Z</time>
      </trkpt>
      <trkpt lat="53.21347" lon="7.413">
        <ele>46.674955</ele>
        <time>2024-07-12T08:38:34.853Z</time>
      </trkpt>
      <trkpt lat="53.21353" lon="7.41311">
        <ele>46.659242</ele>
        <time>2024-07-12T08:38:36.862Z</time>
      </trkpt>
      <trkpt lat="53.2136" lon="7.41322">
        <ele>46.644163</ele>
        <time>2024-07-12T08:38:38.862Z</time>
      </trkpt>
      <trkpt lat="53.21368" lon="7.41339">
        <ele>46.621882</ele>
        <time>2024-07-12T08:38:41.854Z</time>
      </trkpt>
      <trkpt lat="53.21375" lon="7.4135">
        <ele>46.606126</ele>
        <time>2024-07-12T08:38:43.843Z</time>
      </trkpt>
      <trkpt lat="53.21381" lon="7.41361">
        <ele>46.594695</ele>
        <time>2024-07-12T08:38:45.843Z</time>
      </trkpt>
      <trkpt lat="53.21387" lon="7.41373">
        <ele>46.590946</ele>
        <time>2024-07-12T08:38:47.855Z</time>
      </trkpt>
      <trkpt lat="53.21394" lon="7.41384">
        <ele>46.587231</ele>
        <time>2024-07-12T08:38:49.849Z</time>
      </trkpt>
      <trkpt lat="53.214" lon="7.41395">
        <ele>46.583402</ele>
        <time>2024-07-12T08:38:51.853Z</time>
      </trkpt>
      <trkpt lat="53.21407" lon="7.41407">
        <ele>46.579553</ele>
        <time>2024-07-12T08:38:53.856Z</time>
      </trkpt>
      <trkpt lat="53.21413" lon="7.41418">
        <ele>46.575885</ele>
        <time>2024-07-12T08:38:55.856Z</time>
      </trkpt>
      <trkpt lat="53.21419" lon="7.41429">
        <ele>46.572163</ele>
        <time>2024-07-12T08:38:57.837Z</time>
      </trkpt>
      <trkpt lat="53.21425" lon="7.4144">
        <ele>46.568494</ele>
        <time>2024-07-12T08:38:59.835Z</time>
      </trkpt>
      <trkpt lat="53.21434" lon="7.41457">
        <ele>46.56292</ele>
        <time>2024-07-12T08:39:02.817Z</time>
      </trkpt>
      <trkpt lat="53.21443" lon="7.41473">
        <ele>46.557559</ele>
        <time>2024-07-12T08:39:05.852Z</time>
      </trkpt>
      <trkpt lat="53.21453" lon="7.41489">
        <ele>46.552141</ele>
        <time>2024-07-12T08:39:08.844Z</time>
      </trkpt>
      <trkpt lat="53.21461" lon="7.41504">
        <ele>46.546948</ele>
        <time>2024-07-12T08:39:11.855Z</time>
      </trkpt>
      <trkpt lat="53.21468" lon="7.41515">
        <ele>46.543233</ele>
        <time>2024-07-12T08:39:13.860Z</time>
      </trkpt>
      <trkpt lat="53.21477" lon="7.41531">
        <ele>46.537838</ele>
        <time>2024-07-12T08:39:16.861Z</time>
      </trkpt>
      <trkpt lat="53.21487" lon="7.41547">
        <ele>46.532327</ele>
        <time>2024-07-12T08:39:19.843Z</time>
      </trkpt>
      <trkpt lat="53.21494" lon="7.41557">
        <ele>46.52849</ele>
        <time>2024-07-12T08:39:21.872Z</time>
      </trkpt>
      <trkpt lat="53.21504" lon="7.41572">
        <ele>46.523</ele>
        <time>2024-07-12T08:39:24.854Z</time>
      </trkpt>
      <trkpt lat="53.21514" lon="7.41587">
        <ele>46.575684</ele>
        <time>2024-07-12T08:39:27.859Z</time>
      </trkpt>
      <trkpt lat="53.21523" lon="7.416">
        <ele>46.627193</ele>
        <time>2024-07-12T08:39:30.825Z</time>
      </trkpt>
      <trkpt lat="53.21532" lon="7.41614">
        <ele>46.677897</ele>
        <time>2024-07-12T08:39:33.853Z</time>
      </trkpt>
      <trkpt lat="53.21542" lon="7.41626">
        <ele>46.72844</ele>
        <time>2024-07-12T08:39:36.860Z</time>
      </trkpt>
      <trkpt lat="53.21552" lon="7.41639">
        <ele>46.780269</ele>
        <time>2024-07-12T08:39:39.866Z</time>
      </trkpt>
      <trkpt lat="53.21562" lon="7.41652">
        <ele>46.831791</ele>
        <time>2024-07-12T08:39:42.853Z</time>
      </trkpt>
      <trkpt lat="53.21572" lon="7.41666">
        <ele>46.886472</ele>
        <time>2024-07-12T08:39:45.848Z</time>
      </trkpt>
      <trkpt lat="53.21582" lon="7.4168">
        <ele>46.94149</ele>
        <time>2024-07-12T08:39:48.847Z</time>
      </trkpt>
      <trkpt lat="53.21589" lon="7.41689">
        <ele>46.979122</ele>
        <time>2024-07-12T08:39:50.843Z</time>
      </trkpt>
      <trkpt lat="53.21599" lon="7.41702">
        <ele>47.031524</ele>
        <time>2024-07-12T08:39:53.856Z</time>
      </trkpt>
      <trkpt lat="53.21609" lon="7.41715">
        <ele>47.081744</ele>
        <time>2024-07-12T08:39:56.845Z</time>
      </trkpt>
      <trkpt lat="53.21619" lon="7.41728">
        <ele>47.135013</ele>
        <time>2024-07-12T08:39:59.838Z</time>
      </trkpt>
      <trkpt lat="53.21626" lon="7.41738">
        <ele>47.173909</ele>
        <time>2024-07-12T08:40:01.859Z</time>
      </trkpt>
      <trkpt lat="53.21636" lon="7.41751">
        <ele>47.226832</ele>
        <time>2024-07-12T08:40:04.859Z</time>
      </trkpt>
      <trkpt lat="53.21645" lon="7.41765">
        <ele>47.312047</ele>
        <time>2024-07-12T08:40:07.860Z</time>
      </trkpt>
      <trkpt lat="53.21655" lon="7.41777">
        <ele>47.555561</ele>
        <time>2024-07-12T08:40:10.854Z</time>
      </trkpt>
      <trkpt lat="53.21662" lon="7.41791">
        <ele>47.778034</ele>
        <time>2024-07-12T08:40:13.859Z</time>
      </trkpt>
      <trkpt lat="53.21671" lon="7.41806">
        <ele>48.017119</ele>
        <time>2024-07-12T08:40:16.857Z</time>
      </trkpt>
      <trkpt lat="53.21678" lon="7.41818">
        <ele>48.229617</ele>
        <time>2024-07-12T08:40:19.848Z</time>
      </trkpt>
      <trkpt lat="53.21688" lon="7.41828">
        <ele>48.441649</ele>
        <time>2024-07-12T08:40:22.855Z</time>
      </trkpt>
      <trkpt lat="53.21697" lon="7.41837">
        <ele>48.658153</ele>
        <time>2024-07-12T08:40:25.850Z</time>
      </trkpt>
      <trkpt lat="53.21706" lon="7.41848">
        <ele>48.87756</ele>
        <time>2024-07-12T08:40:28.845Z</time>
      </trkpt>
      <trkpt lat="53.21715" lon="7.4186">
        <ele>49.104196</ele>
        <time>2024-07-12T08:40:31.843Z</time>
      </trkpt>
      <trkpt lat="53.21724" lon="7.41873">
        <ele>49.340102</ele>
        <time>2024-07-12T08:40:34.835Z</time>
      </trkpt>
      <trkpt lat="53.21733" lon="7.41885">
        <ele>49.562936</ele>
        <time>2024-07-12T08:40:37.859Z</time>
      </trkpt>
      <trkpt lat="53.21742" lon="7.41896">
        <ele>49.785923</ele>
        <time>2024-07-12T08:40:40.842Z</time>
      </trkpt>
      <trkpt lat="53.2175" lon="7.41907">
        <ele>49.995891</ele>
        <time>2024-07-12T08:40:43.856Z</time>
      </trkpt>
      <trkpt lat="53.21758" lon="7.41918">
        <ele>50.206558</ele>
        <time>2024-07-12T08:40:46.855Z</time>
      </trkpt>
      <trkpt lat="53.21765" lon="7.41931">
        <ele>50.413216</ele>
        <time>2024-07-12T08:40:49.846Z</time>
      </trkpt>
      <trkpt lat="53.21773" lon="7.41942">
        <ele>50.62464</ele>
        <time>2024-07-12T08:40:52.842Z</time>
      </trkpt>
      <trkpt lat="53.21782" lon="7.41956">
        <ele>50.852386</ele>
        <time>2024-07-12T08:40:55.839Z</time>
      </trkpt>
      <trkpt lat="53.21789" lon="7.4197">
        <ele>51.046335</ele>
        <time>2024-07-12T08:40:58.840Z</time>
      </trkpt>
      <trkpt lat="53.21796" lon="7.41982">
        <ele>51.226298</ele>
        <time>2024-07-12T08:41:01.854Z</time>
      </trkpt>
      <trkpt lat="53.21803" lon="7.41996">
        <ele>51.409801</ele>
        <time>2024-07-12T08:41:04.850Z</time>
      </trkpt>
      <trkpt lat="53.21809" lon="7.42011">
        <ele>51.594055</ele>
        <time>2024-07-12T08:41:07.853Z</time>
      </trkpt>
      <trkpt lat="53.21815" lon="7.42027">
        <ele>51.793225</ele>
        <time>2024-07-12T08:41:10.863Z</time>
      </trkpt>
      <trkpt lat="53.21821" lon="7.42043">
        <ele>51.980825</ele>
        <time>2024-07-12T08:41:13.848Z</time>
      </trkpt>
      <trkpt lat="53.21826" lon="7.42058">
        <ele>52.164428</ele>
        <time>2024-07-12T08:41:16.858Z</time>
      </trkpt>
      <trkpt lat="53.21829" lon="7.42075">
        <ele>52.346329</ele>
        <time>2024-07-12T08:41:19.845Z</time>
      </trkpt>
      <trkpt lat="53.21834" lon="7.42092">
        <ele>52.544932</ele>
        <time>2024-07-12T08:41:22.827Z</time>
      </trkpt>
      <trkpt lat="53.21837" lon="7.4211">
        <ele>52.735148</ele>
        <time>2024-07-12T08:41:25.840Z</time>
      </trkpt>
      <trkpt lat="53.21841" lon="7.42128">
        <ele>52.930406</ele>
        <time>2024-07-12T08:41:28.829Z</time>
      </trkpt>
      <trkpt lat="53.21844" lon="7.42144">
        <ele>53.109602</ele>
        <time>2024-07-12T08:41:31.851Z</time>
      </trkpt>
      <trkpt lat="53.21847" lon="7.42162">
        <ele>53.297879</ele>
        <time>2024-07-12T08:41:34.862Z</time>
      </trkpt>
      <trkpt lat="53.21849" lon="7.4218">
        <ele>53.484225</ele>
        <time>2024-07-12T08:41:37.858Z</time>
      </trkpt>
      <trkpt lat="53.2185" lon="7.42198">
        <ele>53.676224</ele>
        <time>2024-07-12T08:41:40.859Z</time>
      </trkpt>
      <trkpt lat="53.21851" lon="7.42216">
        <ele>53.867194</ele>
        <time>2024-07-12T08:41:43.859Z</time>
      </trkpt>
      <trkpt lat="53.21852" lon="7.42234">
        <ele>54.038496</ele>
        <time>2024-07-12T08:41:46.840Z</time>
      </trkpt>
      <trkpt lat="53.21852" lon="7.42253">
        <ele>54.197969</ele>
        <time>2024-07-12T08:41:49.847Z</time>
      </trkpt>
      <trkpt lat="53.21852" lon="7.42272">
        <ele>54.364347</ele>
        <time>2024-07-12T08:41:52.851Z</time>
      </trkpt>
      <trkpt lat="53.21852" lon="7.4229">
        <ele>54.52212</ele>
        <time>2024-07-12T08:41:55.840Z</time>
      </trkpt>
      <trkpt lat="53.21852" lon="7.42306">
        <ele>54.656631</ele>
        <time>2024-07-12T08:41:58.832Z</time>
      </trkpt>
      <trkpt lat="53.2185" lon="7.42324">
        <ele>54.816893</ele>
        <time>2024-07-12T08:42:02.840Z</time>
      </trkpt>
      <trkpt lat="53.21849" lon="7.42334">
        <ele>54.90346</ele>
        <time>2024-07-12T08:42:12.891Z</time>
      </trkpt>
      <trkpt lat="53.21848" lon="7.42352">
        <ele>55.062699</ele>
        <time>2024-07-12T08:45:35.836Z</time>
      </trkpt>
      <trkpt lat="53.21846" lon="7.42371">
        <ele>55.226143</ele>
        <time>2024-07-12T08:45:39.834Z</time>
      </trkpt>
      <trkpt lat="53.21844" lon="7.42386">
        <ele>55.358642</ele>
        <time>2024-07-12T08:45:42.830Z</time>
      </trkpt>
      <trkpt lat="53.21841" lon="7.42401">
        <ele>55.493187</ele>
        <time>2024-07-12T08:45:45.856Z</time>
      </trkpt>
      <trkpt lat="53.21839" lon="7.42416">
        <ele>55.636805</ele>
        <time>2024-07-12T08:45:48.846Z</time>
      </trkpt>
      <trkpt lat="53.21836" lon="7.42433">
        <ele>55.788757</ele>
        <time>2024-07-12T08:45:51.837Z</time>
      </trkpt>
      <trkpt lat="53.21833" lon="7.4245">
        <ele>55.94318</ele>
        <time>2024-07-12T08:45:54.852Z</time>
      </trkpt>
      <trkpt lat="53.2183" lon="7.42467">
        <ele>56.093546</ele>
        <time>2024-07-12T08:45:57.826Z</time>
      </trkpt>
      <trkpt lat="53.21826" lon="7.42484">
        <ele>56.245236</ele>
        <time>2024-07-12T08:46:00.829Z</time>
      </trkpt>
      <trkpt lat="53.21824" lon="7.425">
        <ele>56.395247</ele>
        <time>2024-07-12T08:46:03.861Z</time>
      </trkpt>
      <trkpt lat="53.21821" lon="7.42517">
        <ele>56.543431</ele>
        <time>2024-07-12T08:46:06.829Z</time>
      </trkpt>
      <trkpt lat="53.21818" lon="7.42534">
        <ele>56.664667</ele>
        <time>2024-07-12T08:46:09.840Z</time>
      </trkpt>
      <trkpt lat="53.21815" lon="7.4255">
        <ele>56.781596</ele>
        <time>2024-07-12T08:46:12.835Z</time>
      </trkpt>
      <trkpt lat="53.21812" lon="7.42567">
        <ele>56.899951</ele>
        <time>2024-07-12T08:46:15.855Z</time>
      </trkpt>
      <trkpt lat="53.21809" lon="7.42584">
        <ele>57.025062</ele>
        <time>2024-07-12T08:46:18.861Z</time>
      </trkpt>
      <trkpt lat="53.21806" lon="7.426">
        <ele>57.137535</ele>
        <time>2024-07-12T08:46:21.859Z</time>
      </trkpt>
      <trkpt lat="53.21802" lon="7.42619">
        <ele>57.277089</ele>
        <time>2024-07-12T08:46:24.825Z</time>
      </trkpt>
      <trkpt lat="53.21799" lon="7.42638">
        <ele>57.410111</ele>
        <time>2024-07-12T08:46:27.830Z</time>
      </trkpt>
      <trkpt lat="53.21797" lon="7.42658">
        <ele>57.54913</ele>
        <time>2024-07-12T08:46:30.853Z</time>
      </trkpt>
      <trkpt lat="53.21794" lon="7.42679">
        <ele>57.693555</ele>
        <time>2024-07-12T08:46:33.841Z</time>
      </trkpt>
      <trkpt lat="53.21791" lon="7.42699">
        <ele>57.838332</ele>
        <time>2024-07-12T08:46:36.842Z</time>
      </trkpt>
      <trkpt lat="53.21787" lon="7.4272">
        <ele>57.988656</ele>
        <time>2024-07-12T08:46:39.850Z</time>
      </trkpt>
      <trkpt lat="53.21782" lon="7.42742">
        <ele>58.144284</ele>
        <time>2024-07-12T08:46:42.814Z</time>
      </trkpt>
      <trkpt lat="53.2178" lon="7.42756">
        <ele>58.249737</ele>
        <time>2024-07-12T08:46:44.838Z</time>
      </trkpt>
      <trkpt lat="53.21777" lon="7.42771">
        <ele>58.355533</ele>
        <time>2024-07-12T08:46:46.853Z</time>
      </trkpt>
      <trkpt lat="53.21775" lon="7.42788">
        <ele>58.47446</ele>
        <time>2024-07-12T08:46:48.823Z</time>
      </trkpt>
      <trkpt lat="53.21772" lon="7.42804">
        <ele>58.587786</ele>
        <time>2024-07-12T08:46:50.839Z</time>
      </trkpt>
      <trkpt lat="53.21769" lon="7.42819">
        <ele>58.374701</ele>
        <time>2024-07-12T08:46:52.824Z</time>
      </trkpt>
      <trkpt lat="53.21766" lon="7.42836">
        <ele>58.099172</ele>
        <time>2024-07-12T08:46:54.846Z</time>
      </trkpt>
      <trkpt lat="53.21762" lon="7.42852">
        <ele>57.818154</ele>
        <time>2024-07-12T08:46:56.846Z</time>
      </trkpt>
      <trkpt lat="53.21759" lon="7.42868">
        <ele>57.539686</ele>
        <time>2024-07-12T08:46:58.844Z</time>
      </trkpt>
      <trkpt lat="53.21755" lon="7.42884">
        <ele>57.261548</ele>
        <time>2024-07-12T08:47:00.850Z</time>
      </trkpt>
      <trkpt lat="53.21751" lon="7.42901">
        <ele>56.955743</ele>
        <time>2024-07-12T08:47:02.847Z</time>
      </trkpt>
      <trkpt lat="53.21747" lon="7.42918">
        <ele>56.661073</ele>
        <time>2024-07-12T08:47:04.842Z</time>
      </trkpt>
      <trkpt lat="53.21742" lon="7.42935">
        <ele>56.356332</ele>
        <time>2024-07-12T08:47:06.820Z</time>
      </trkpt>
      <trkpt lat="53.21737" lon="7.42952">
        <ele>56.048606</ele>
        <time>2024-07-12T08:47:08.850Z</time>
      </trkpt>
      <trkpt lat="53.21733" lon="7.4297">
        <ele>55.736128</ele>
        <time>2024-07-12T08:47:10.855Z</time>
      </trkpt>
      <trkpt lat="53.21728" lon="7.42987">
        <ele>55.425135</ele>
        <time>2024-07-12T08:47:12.827Z</time>
      </trkpt>
      <trkpt lat="53.21723" lon="7.43004">
        <ele>55.121549</ele>
        <time>2024-07-12T08:47:14.833Z</time>
      </trkpt>
      <trkpt lat="53.21718" lon="7.43021">
        <ele>54.814674</ele>
        <time>2024-07-12T08:47:16.854Z</time>
      </trkpt>
      <trkpt lat="53.21714" lon="7.43038">
        <ele>54.517008</ele>
        <time>2024-07-12T08:47:18.844Z</time>
      </trkpt>
      <trkpt lat="53.21707" lon="7.43053">
        <ele>54.212697</ele>
        <time>2024-07-12T08:47:20.839Z</time>
      </trkpt>
      <trkpt lat="53.21699" lon="7.43064">
        <ele>53.906648</ele>
        <time>2024-07-12T08:47:22.836Z</time>
      </trkpt>
      <trkpt lat="53.21691" lon="7.4308">
        <ele>53.601444</ele>
        <time>2024-07-12T08:47:24.861Z</time>
      </trkpt>
      <trkpt lat="53.21687" lon="7.43098">
        <ele>53.332538</ele>
        <time>2024-07-12T08:47:26.831Z</time>
      </trkpt>
      <trkpt lat="53.21684" lon="7.43115">
        <ele>53.081759</ele>
        <time>2024-07-12T08:47:28.854Z</time>
      </trkpt>
      <trkpt lat="53.21683" lon="7.43133">
        <ele>52.817625</ele>
        <time>2024-07-12T08:47:30.833Z</time>
      </trkpt>
      <trkpt lat="53.21682" lon="7.43151">
        <ele>52.559953</ele>
        <time>2024-07-12T08:47:32.831Z</time>
      </trkpt>
      <trkpt lat="53.21682" lon="7.43169">
        <ele>52.305992</ele>
        <time>2024-07-12T08:47:34.839Z</time>
      </trkpt>
      <trkpt lat="53.21682" lon="7.43187">
        <ele>52.047741</ele>
        <time>2024-07-12T08:47:36.845Z</time>
      </trkpt>
      <trkpt lat="53.21683" lon="7.43205">
        <ele>51.789634</ele>
        <time>2024-07-12T08:47:38.841Z</time>
      </trkpt>
      <trkpt lat="53.21685" lon="7.43225">
        <ele>51.513149</ele>
        <time>2024-07-12T08:47:40.834Z</time>
      </trkpt>
      <trkpt lat="53.21686" lon="7.43245">
        <ele>51.219016</ele>
        <time>2024-07-12T08:47:42.831Z</time>
      </trkpt>
      <trkpt lat="53.21688" lon="7.43266">
        <ele>50.927519</ele>
        <time>2024-07-12T08:47:44.863Z</time>
      </trkpt>
      <trkpt lat="53.2169" lon="7.43284">
        <ele>50.656011</ele>
        <time>2024-07-12T08:47:46.842Z</time>
      </trkpt>
      <trkpt lat="53.21692" lon="7.43303">
        <ele>50.385035</ele>
        <time>2024-07-12T08:47:48.842Z</time>
      </trkpt>
      <trkpt lat="53.21695" lon="7.43321">
        <ele>50.116267</ele>
        <time>2024-07-12T08:47:50.849Z</time>
      </trkpt>
      <trkpt lat="53.21698" lon="7.43339">
        <ele>49.861434</ele>
        <time>2024-07-12T08:47:52.838Z</time>
      </trkpt>
      <trkpt lat="53.21697" lon="7.43356">
        <ele>49.617982</ele>
        <time>2024-07-12T08:47:54.837Z</time>
      </trkpt>
      <trkpt lat="53.2169" lon="7.4337">
        <ele>49.390033</ele>
        <time>2024-07-12T08:47:56.839Z</time>
      </trkpt>
      <trkpt lat="53.21682" lon="7.43382">
        <ele>49.207425</ele>
        <time>2024-07-12T08:47:58.837Z</time>
      </trkpt>
      <trkpt lat="53.21675" lon="7.43396">
        <ele>49.025993</ele>
        <time>2024-07-12T08:48:00.860Z</time>
      </trkpt>
      <trkpt lat="53.21669" lon="7.43409">
        <ele>48.851522</ele>
        <time>2024-07-12T08:48:02.835Z</time>
      </trkpt>
      <trkpt lat="53.21662" lon="7.43422">
        <ele>48.68461</ele>
        <time>2024-07-12T08:48:04.853Z</time>
      </trkpt>
      <trkpt lat="53.21655" lon="7.43434">
        <ele>48.515862</ele>
        <time>2024-07-12T08:48:06.845Z</time>
      </trkpt>
      <trkpt lat="53.21648" lon="7.43448">
        <ele>48.330334</ele>
        <time>2024-07-12T08:48:08.861Z</time>
      </trkpt>
      <trkpt lat="53.21641" lon="7.43463">
        <ele>48.139365</ele>
        <time>2024-07-12T08:48:10.860Z</time>
      </trkpt>
      <trkpt lat="53.21634" lon="7.43478">
        <ele>47.944216</ele>
        <time>2024-07-12T08:48:12.818Z</time>
      </trkpt>
      <trkpt lat="53.21627" lon="7.43492">
        <ele>47.757648</ele>
        <time>2024-07-12T08:48:14.833Z</time>
      </trkpt>
      <trkpt lat="53.2162" lon="7.43508">
        <ele>47.563931</ele>
        <time>2024-07-12T08:48:16.836Z</time>
      </trkpt>
      <trkpt lat="53.21614" lon="7.43524">
        <ele>47.375433</ele>
        <time>2024-07-12T08:48:18.843Z</time>
      </trkpt>
      <trkpt lat="53.21608" lon="7.43539">
        <ele>47.195978</ele>
        <time>2024-07-12T08:48:20.835Z</time>
      </trkpt>
      <trkpt lat="53.21603" lon="7.43554">
        <ele>47.014736</ele>
        <time>2024-07-12T08:48:22.816Z</time>
      </trkpt>
      <trkpt lat="53.21597" lon="7.43567">
        <ele>46.854686</ele>
        <time>2024-07-12T08:48:24.840Z</time>
      </trkpt>
      <trkpt lat="53.21591" lon="7.4358">
        <ele>46.684995</ele>
        <time>2024-07-12T08:48:27.816Z</time>
      </trkpt>
      <trkpt lat="53.21589" lon="7.43598">
        <ele>46.508968</ele>
        <time>2024-07-12T08:48:30.828Z</time>
      </trkpt>
      <trkpt lat="53.21587" lon="7.43617">
        <ele>46.414516</ele>
        <time>2024-07-12T08:48:33.824Z</time>
      </trkpt>
      <trkpt lat="53.21585" lon="7.43637">
        <ele>46.391723</ele>
        <time>2024-07-12T08:48:36.848Z</time>
      </trkpt>
      <trkpt lat="53.21583" lon="7.43656">
        <ele>46.369459</ele>
        <time>2024-07-12T08:48:39.851Z</time>
      </trkpt>
      <trkpt lat="53.2158" lon="7.43677">
        <ele>46.344773</ele>
        <time>2024-07-12T08:48:42.832Z</time>
      </trkpt>
      <trkpt lat="53.21577" lon="7.43696">
        <ele>46.32167</ele>
        <time>2024-07-12T08:48:45.849Z</time>
      </trkpt>
      <trkpt lat="53.21574" lon="7.43716">
        <ele>46.297553</ele>
        <time>2024-07-12T08:48:48.839Z</time>
      </trkpt>
      <trkpt lat="53.21571" lon="7.43737">
        <ele>46.273557</ele>
        <time>2024-07-12T08:48:51.844Z</time>
      </trkpt>
      <trkpt lat="53.21566" lon="7.43755">
        <ele>46.250697</ele>
        <time>2024-07-12T08:48:54.868Z</time>
      </trkpt>
      <trkpt lat="53.21565" lon="7.43775">
        <ele>46.228358</ele>
        <time>2024-07-12T08:48:57.842Z</time>
      </trkpt>
      <trkpt lat="53.21562" lon="7.4379">
        <ele>46.210381</ele>
        <time>2024-07-12T08:48:59.851Z</time>
      </trkpt>
      <trkpt lat="53.21559" lon="7.43809">
        <ele>46.187853</ele>
        <time>2024-07-12T08:49:02.823Z</time>
      </trkpt>
      <trkpt lat="53.21555" lon="7.43829">
        <ele>46.162915</ele>
        <time>2024-07-12T08:49:05.836Z</time>
      </trkpt>
      <trkpt lat="53.21552" lon="7.43848">
        <ele>46.141382</ele>
        <time>2024-07-12T08:49:08.835Z</time>
      </trkpt>
      <trkpt lat="53.21549" lon="7.43866">
        <ele>46.119799</ele>
        <time>2024-07-12T08:49:11.860Z</time>
      </trkpt>
      <trkpt lat="53.21544" lon="7.4388">
        <ele>46.10071</ele>
        <time>2024-07-12T08:49:14.841Z</time>
      </trkpt>
      <trkpt lat="53.21545" lon="7.43895">
        <ele>46.084374</ele>
        <time>2024-07-12T08:49:56.847Z</time>
      </trkpt>
      <trkpt lat="53.21543" lon="7.43914">
        <ele>46.185339</ele>
        <time>2024-07-12T08:50:00.817Z</time>
      </trkpt>
      <trkpt lat="53.2154" lon="7.43933">
        <ele>46.291846</ele>
        <time>2024-07-12T08:50:03.859Z</time>
      </trkpt>
      <trkpt lat="53.21537" lon="7.43954">
        <ele>46.404976</ele>
        <time>2024-07-12T08:50:06.852Z</time>
      </trkpt>
      <trkpt lat="53.21534" lon="7.43975">
        <ele>46.520187</ele>
        <time>2024-07-12T08:50:09.838Z</time>
      </trkpt>
      <trkpt lat="53.21531" lon="7.43996">
        <ele>46.637632</ele>
        <time>2024-07-12T08:50:12.836Z</time>
      </trkpt>
      <trkpt lat="53.21527" lon="7.44017">
        <ele>46.752794</ele>
        <time>2024-07-12T08:50:15.845Z</time>
      </trkpt>
      <trkpt lat="53.21525" lon="7.44032">
        <ele>46.833135</ele>
        <time>2024-07-12T08:50:17.853Z</time>
      </trkpt>
      <trkpt lat="53.21521" lon="7.44053">
        <ele>46.9504</ele>
        <time>2024-07-12T08:50:20.841Z</time>
      </trkpt>
      <trkpt lat="53.21518" lon="7.44074">
        <ele>47.062499</ele>
        <time>2024-07-12T08:50:23.854Z</time>
      </trkpt>
      <trkpt lat="53.21514" lon="7.44094">
        <ele>47.177904</ele>
        <time>2024-07-12T08:50:26.838Z</time>
      </trkpt>
      <trkpt lat="53.2151" lon="7.44115">
        <ele>47.294071</ele>
        <time>2024-07-12T08:50:29.826Z</time>
      </trkpt>
      <trkpt lat="53.21508" lon="7.4413">
        <ele>47.374266</ele>
        <time>2024-07-12T08:50:31.835Z</time>
      </trkpt>
      <trkpt lat="53.21505" lon="7.44152">
        <ele>47.494322</ele>
        <time>2024-07-12T08:50:34.840Z</time>
      </trkpt>
      <trkpt lat="53.21501" lon="7.44174">
        <ele>47.615859</ele>
        <time>2024-07-12T08:50:37.822Z</time>
      </trkpt>
      <trkpt lat="53.21499" lon="7.4419">
        <ele>47.676806</ele>
        <time>2024-07-12T08:50:39.817Z</time>
      </trkpt>
      <trkpt lat="53.21496" lon="7.44205">
        <ele>47.674875</ele>
        <time>2024-07-12T08:50:41.841Z</time>
      </trkpt>
      <trkpt lat="53.21494" lon="7.4422">
        <ele>47.673027</ele>
        <time>2024-07-12T08:50:43.857Z</time>
      </trkpt>
      <trkpt lat="53.21491" lon="7.44236">
        <ele>47.671165</ele>
        <time>2024-07-12T08:50:45.854Z</time>
      </trkpt>
      <trkpt lat="53.21489" lon="7.44252">
        <ele>47.669226</ele>
        <time>2024-07-12T08:50:47.848Z</time>
      </trkpt>
      <trkpt lat="53.21487" lon="7.44268">
        <ele>47.667308</ele>
        <time>2024-07-12T08:50:49.845Z</time>
      </trkpt>
      <trkpt lat="53.21486" lon="7.44284">
        <ele>47.665354</ele>
        <time>2024-07-12T08:50:51.851Z</time>
      </trkpt>
      <trkpt lat="53.21485" lon="7.44302">
        <ele>47.663309</ele>
        <time>2024-07-12T08:50:53.833Z</time>
      </trkpt>
      <trkpt lat="53.21484" lon="7.44319">
        <ele>47.661302</ele>
        <time>2024-07-12T08:50:55.834Z</time>
      </trkpt>
      <trkpt lat="53.21484" lon="7.44336">
        <ele>47.659268</ele>
        <time>2024-07-12T08:50:57.835Z</time>
      </trkpt>
      <trkpt lat="53.21484" lon="7.44353">
        <ele>47.657304</ele>
        <time>2024-07-12T08:50:59.814Z</time>
      </trkpt>
      <trkpt lat="53.21485" lon="7.4437">
        <ele>47.655285</ele>
        <time>2024-07-12T08:51:01.863Z</time>
      </trkpt>
      <trkpt lat="53.21486" lon="7.44386">
        <ele>47.653401</ele>
        <time>2024-07-12T08:51:03.837Z</time>
      </trkpt>
      <trkpt lat="53.21487" lon="7.44402">
        <ele>47.651447</ele>
        <time>2024-07-12T08:51:05.828Z</time>
      </trkpt>
      <trkpt lat="53.21489" lon="7.44418">
        <ele>47.649599</ele>
        <time>2024-07-12T08:51:07.852Z</time>
      </trkpt>
      <trkpt lat="53.21491" lon="7.44433">
        <ele>47.647772</ele>
        <time>2024-07-12T08:51:09.845Z</time>
      </trkpt>
      <trkpt lat="53.21494" lon="7.44448">
        <ele>47.645873</ele>
        <time>2024-07-12T08:51:11.832Z</time>
      </trkpt>
      <trkpt lat="53.21497" lon="7.44469">
        <ele>47.6433</ele>
        <time>2024-07-12T08:51:14.844Z</time>
      </trkpt>
      <trkpt lat="53.21502" lon="7.4449">
        <ele>47.753644</ele>
        <time>2024-07-12T08:51:17.842Z</time>
      </trkpt>
      <trkpt lat="53.21508" lon="7.4451">
        <ele>47.975725</ele>
        <time>2024-07-12T08:51:20.840Z</time>
      </trkpt>
      <trkpt lat="53.21513" lon="7.44528">
        <ele>48.187526</ele>
        <time>2024-07-12T08:51:23.831Z</time>
      </trkpt>
      <trkpt lat="53.21519" lon="7.44548">
        <ele>48.408217</ele>
        <time>2024-07-12T08:51:26.854Z</time>
      </trkpt>
      <trkpt lat="53.21525" lon="7.44567">
        <ele>48.622853</ele>
        <time>2024-07-12T08:51:29.827Z</time>
      </trkpt>
      <trkpt lat="53.21531" lon="7.44586">
        <ele>48.841617</ele>
        <time>2024-07-12T08:51:32.826Z</time>
      </trkpt>
      <trkpt lat="53.21537" lon="7.44604">
        <ele>49.053418</ele>
        <time>2024-07-12T08:51:35.843Z</time>
      </trkpt>
      <trkpt lat="53.21542" lon="7.44624">
        <ele>49.27605</ele>
        <time>2024-07-12T08:51:38.826Z</time>
      </trkpt>
      <trkpt lat="53.21546" lon="7.44644">
        <ele>49.493351</ele>
        <time>2024-07-12T08:51:41.855Z</time>
      </trkpt>
      <trkpt lat="53.2155" lon="7.44665">
        <ele>49.71345</ele>
        <time>2024-07-12T08:51:44.844Z</time>
      </trkpt>
      <trkpt lat="53.21553" lon="7.44686">
        <ele>49.926343</ele>
        <time>2024-07-12T08:51:47.838Z</time>
      </trkpt>
      <trkpt lat="53.21554" lon="7.44706">
        <ele>50.131059</ele>
        <time>2024-07-12T08:51:50.823Z</time>
      </trkpt>
      <trkpt lat="53.21553" lon="7.44726">
        <ele>50.332139</ele>
        <time>2024-07-12T08:51:53.858Z</time>
      </trkpt>
      <trkpt lat="53.21551" lon="7.44744">
        <ele>50.523118</ele>
        <time>2024-07-12T08:51:56.847Z</time>
      </trkpt>
      <trkpt lat="53.21547" lon="7.4476">
        <ele>50.687391</ele>
        <time>2024-07-12T08:51:59.843Z</time>
      </trkpt>
      <trkpt lat="53.21543" lon="7.44776">
        <ele>50.672022</ele>
        <time>2024-07-12T08:52:03.839Z</time>
      </trkpt>
      <trkpt lat="53.21536" lon="7.44799">
        <ele>50.649156</ele>
        <time>2024-07-12T08:52:27.837Z</time>
      </trkpt>
      <trkpt lat="53.2153" lon="7.44811">
        <ele>50.635723</ele>
        <time>2024-07-12T08:52:32.848Z</time>
      </trkpt>
      <trkpt lat="53.21524" lon="7.44825">
        <ele>50.62022</ele>
        <time>2024-07-12T08:52:37.849Z</time>
      </trkpt>
      <trkpt lat="53.21518" lon="7.44838">
        <ele>50.606296</ele>
        <time>2024-07-12T08:52:41.827Z</time>
      </trkpt>
      <trkpt lat="53.21512" lon="7.44852">
        <ele>50.590429</ele>
        <time>2024-07-12T08:52:45.837Z</time>
      </trkpt>
      <trkpt lat="53.21506" lon="7.44864">
        <ele>50.576807</ele>
        <time>2024-07-12T08:52:49.836Z</time>
      </trkpt>
      <trkpt lat="53.21499" lon="7.44878">
        <ele>50.561763</ele>
        <time>2024-07-12T08:52:54.846Z</time>
      </trkpt>
      <trkpt lat="53.21502" lon="7.44892">
        <ele>50.548374</ele>
        <time>2024-07-12T08:53:03.838Z</time>
      </trkpt>
      <trkpt lat="53.215" lon="7.44909">
        <ele>50.533525</ele>
        <time>2024-07-12T08:53:08.835Z</time>
      </trkpt>
      <trkpt lat="53.21497" lon="7.44925">
        <ele>50.518826</ele>
        <time>2024-07-12T08:53:11.856Z</time>
      </trkpt>
      <trkpt lat="53.21496" lon="7.44946">
        <ele>50.500034</ele>
        <time>2024-07-12T08:53:14.832Z</time>
      </trkpt>
      <trkpt lat="53.21494" lon="7.44968">
        <ele>50.4803</ele>
        <time>2024-07-12T08:53:17.823Z</time>
      </trkpt>
      <trkpt lat="53.21494" lon="7.44984">
        <ele>50.466454</ele>
        <time>2024-07-12T08:53:19.832Z</time>
      </trkpt>
      <trkpt lat="53.21494" lon="7.44999">
        <ele>50.452787</ele>
        <time>2024-07-12T08:53:21.837Z</time>
      </trkpt>
      <trkpt lat="53.21494" lon="7.45015">
        <ele>50.4385</ele>
        <time>2024-07-12T08:53:23.824Z</time>
      </trkpt>
      <trkpt lat="53.21494" lon="7.45032">
        <ele>50.423552</ele>
        <time>2024-07-12T08:53:25.839Z</time>
      </trkpt>
      <trkpt lat="53.21495" lon="7.4505">
        <ele>50.333944</ele>
        <time>2024-07-12T08:53:27.836Z</time>
      </trkpt>
      <trkpt lat="53.21495" lon="7.45068">
        <ele>50.244369</ele>
        <time>2024-07-12T08:53:29.813Z</time>
      </trkpt>
      <trkpt lat="53.21495" lon="7.45087">
        <ele>50.152329</ele>
        <time>2024-07-12T08:53:31.847Z</time>
      </trkpt>
      <trkpt lat="53.21494" lon="7.45105">
        <ele>50.063152</ele>
        <time>2024-07-12T08:53:33.810Z</time>
      </trkpt>
      <trkpt lat="53.21494" lon="7.45124">
        <ele>49.973081</ele>
        <time>2024-07-12T08:53:35.836Z</time>
      </trkpt>
      <trkpt lat="53.21494" lon="7.45143">
        <ele>49.87902</ele>
        <time>2024-07-12T08:53:37.824Z</time>
      </trkpt>
      <trkpt lat="53.21493" lon="7.45162">
        <ele>49.783804</ele>
        <time>2024-07-12T08:53:39.841Z</time>
      </trkpt>
      <trkpt lat="53.21493" lon="7.45182">
        <ele>49.68328</ele>
        <time>2024-07-12T08:53:41.845Z</time>
      </trkpt>
      <trkpt lat="53.21491" lon="7.45204">
        <ele>49.577409</ele>
        <time>2024-07-12T08:53:43.853Z</time>
      </trkpt>
      <trkpt lat="53.2149" lon="7.45224">
        <ele>49.475461</ele>
        <time>2024-07-12T08:53:45.830Z</time>
      </trkpt>
      <trkpt lat="53.21488" lon="7.45245">
        <ele>49.371636</ele>
        <time>2024-07-12T08:53:47.834Z</time>
      </trkpt>
      <trkpt lat="53.21487" lon="7.45266">
        <ele>49.26657</ele>
        <time>2024-07-12T08:53:49.827Z</time>
      </trkpt>
      <trkpt lat="53.21485" lon="7.45287">
        <ele>49.164924</ele>
        <time>2024-07-12T08:53:51.838Z</time>
      </trkpt>
      <trkpt lat="53.21483" lon="7.45308">
        <ele>49.058252</ele>
        <time>2024-07-12T08:53:53.837Z</time>
      </trkpt>
      <trkpt lat="53.21481" lon="7.4533">
        <ele>48.951872</ele>
        <time>2024-07-12T08:53:55.837Z</time>
      </trkpt>
      <trkpt lat="53.21479" lon="7.4535">
        <ele>48.844562</ele>
        <time>2024-07-12T08:53:57.837Z</time>
      </trkpt>
      <trkpt lat="53.21476" lon="7.45369">
        <ele>48.741341</ele>
        <time>2024-07-12T08:53:59.842Z</time>
      </trkpt>
      <trkpt lat="53.21473" lon="7.45387">
        <ele>48.643178</ele>
        <time>2024-07-12T08:54:01.838Z</time>
      </trkpt>
      <trkpt lat="53.21471" lon="7.45405">
        <ele>48.549088</ele>
        <time>2024-07-12T08:54:03.852Z</time>
      </trkpt>
      <trkpt lat="53.21468" lon="7.45421">
        <ele>48.46186</ele>
        <time>2024-07-12T08:54:05.837Z</time>
      </trkpt>
      <trkpt lat="53.21465" lon="7.45436">
        <ele>48.377025</ele>
        <time>2024-07-12T08:54:07.835Z</time>
      </trkpt>
      <trkpt lat="53.21463" lon="7.45452">
        <ele>48.290851</ele>
        <time>2024-07-12T08:54:09.853Z</time>
      </trkpt>
      <trkpt lat="53.2146" lon="7.45469">
        <ele>48.200644</ele>
        <time>2024-07-12T08:54:11.838Z</time>
      </trkpt>
      <trkpt lat="53.21457" lon="7.45485">
        <ele>48.112697</ele>
        <time>2024-07-12T08:54:13.828Z</time>
      </trkpt>
      <trkpt lat="53.21454" lon="7.45501">
        <ele>48.026767</ele>
        <time>2024-07-12T08:54:15.842Z</time>
      </trkpt>
      <trkpt lat="53.21451" lon="7.45516">
        <ele>47.939659</ele>
        <time>2024-07-12T08:54:17.832Z</time>
      </trkpt>
      <trkpt lat="53.21447" lon="7.45532">
        <ele>47.851249</ele>
        <time>2024-07-12T08:54:19.819Z</time>
      </trkpt>
      <trkpt lat="53.21443" lon="7.45546">
        <ele>47.771424</ele>
        <time>2024-07-12T08:54:21.824Z</time>
      </trkpt>
      <trkpt lat="53.21441" lon="7.45562">
        <ele>47.685997</ele>
        <time>2024-07-12T08:54:23.836Z</time>
      </trkpt>
      <trkpt lat="53.21437" lon="7.45576">
        <ele>47.605966</ele>
        <time>2024-07-12T08:54:25.837Z</time>
      </trkpt>
      <trkpt lat="53.21432" lon="7.45597">
        <ele>47.487777</ele>
        <time>2024-07-12T08:54:28.843Z</time>
      </trkpt>
      <trkpt lat="53.21428" lon="7.45611">
        <ele>47.404234</ele>
        <time>2024-07-12T08:54:30.837Z</time>
      </trkpt>
      <trkpt lat="53.21425" lon="7.45626">
        <ele>47.347033</ele>
        <time>2024-07-12T08:54:32.822Z</time>
      </trkpt>
      <trkpt lat="53.2142" lon="7.4564">
        <ele>47.302658</ele>
        <time>2024-07-12T08:54:34.838Z</time>
      </trkpt>
      <trkpt lat="53.21416" lon="7.45655">
        <ele>47.257028</ele>
        <time>2024-07-12T08:54:36.841Z</time>
      </trkpt>
      <trkpt lat="53.21413" lon="7.45669">
        <ele>47.214648</ele>
        <time>2024-07-12T08:54:38.841Z</time>
      </trkpt>
      <trkpt lat="53.21408" lon="7.45683">
        <ele>47.16952</ele>
        <time>2024-07-12T08:54:40.849Z</time>
      </trkpt>
      <trkpt lat="53.21404" lon="7.45698">
        <ele>47.123027</ele>
        <time>2024-07-12T08:54:42.810Z</time>
      </trkpt>
      <trkpt lat="53.21399" lon="7.45712">
        <ele>47.078482</ele>
        <time>2024-07-12T08:54:44.844Z</time>
      </trkpt>
      <trkpt lat="53.21395" lon="7.45726">
        <ele>47.034677</ele>
        <time>2024-07-12T08:54:46.861Z</time>
      </trkpt>
      <trkpt lat="53.2139" lon="7.4574">
        <ele>46.990186</ele>
        <time>2024-07-12T08:54:48.835Z</time>
      </trkpt>
      <trkpt lat="53.21386" lon="7.45754">
        <ele>46.946204</ele>
        <time>2024-07-12T08:54:50.834Z</time>
      </trkpt>
      <trkpt lat="53.21381" lon="7.45768">
        <ele>46.903109</ele>
        <time>2024-07-12T08:54:52.825Z</time>
      </trkpt>
      <trkpt lat="53.21376" lon="7.45782">
        <ele>46.856491</ele>
        <time>2024-07-12T08:54:54.835Z</time>
      </trkpt>
      <trkpt lat="53.21371" lon="7.45796">
        <ele>46.809374</ele>
        <time>2024-07-12T08:54:56.820Z</time>
      </trkpt>
      <trkpt lat="53.21365" lon="7.4581">
        <ele>46.76391</ele>
        <time>2024-07-12T08:54:58.837Z</time>
      </trkpt>
      <trkpt lat="53.21361" lon="7.45824">
        <ele>46.719436</ele>
        <time>2024-07-12T08:55:00.849Z</time>
      </trkpt>
      <trkpt lat="53.21356" lon="7.45837">
        <ele>46.676369</ele>
        <time>2024-07-12T08:55:02.832Z</time>
      </trkpt>
      <trkpt lat="53.21351" lon="7.4585">
        <ele>46.633069</ele>
        <time>2024-07-12T08:55:04.842Z</time>
      </trkpt>
      <trkpt lat="53.21346" lon="7.45863">
        <ele>46.589565</ele>
        <time>2024-07-12T08:55:06.843Z</time>
      </trkpt>
      <trkpt lat="53.21341" lon="7.45876">
        <ele>46.546768</ele>
        <time>2024-07-12T08:55:08.846Z</time>
      </trkpt>
      <trkpt lat="53.21336" lon="7.4589">
        <ele>46.593673</ele>
        <time>2024-07-12T08:55:10.839Z</time>
      </trkpt>
      <trkpt lat="53.2133" lon="7.45908">
        <ele>46.690201</ele>
        <time>2024-07-12T08:55:13.859Z</time>
      </trkpt>
      <trkpt lat="53.21324" lon="7.45928">
        <ele>46.788778</ele>
        <time>2024-07-12T08:55:16.857Z</time>
      </trkpt>
      <trkpt lat="53.21318" lon="7.45947">
        <ele>46.888456</ele>
        <time>2024-07-12T08:55:19.834Z</time>
      </trkpt>
      <trkpt lat="53.21314" lon="7.45961">
        <ele>46.958565</ele>
        <time>2024-07-12T08:55:21.833Z</time>
      </trkpt>
      <trkpt lat="53.21311" lon="7.45975">
        <ele>47.030187</ele>
        <time>2024-07-12T08:55:23.844Z</time>
      </trkpt>
      <trkpt lat="53.21307" lon="7.4599">
        <ele>47.10181</ele>
        <time>2024-07-12T08:55:25.844Z</time>
      </trkpt>
      <trkpt lat="53.21304" lon="7.46005">
        <ele>47.174758</ele>
        <time>2024-07-12T08:55:27.836Z</time>
      </trkpt>
      <trkpt lat="53.21301" lon="7.4602">
        <ele>47.244784</ele>
        <time>2024-07-12T08:55:29.836Z</time>
      </trkpt>
      <trkpt lat="53.21299" lon="7.46035">
        <ele>47.315117</ele>
        <time>2024-07-12T08:55:31.834Z</time>
      </trkpt>
      <trkpt lat="53.21297" lon="7.46051">
        <ele>47.388511</ele>
        <time>2024-07-12T08:55:33.860Z</time>
      </trkpt>
      <trkpt lat="53.21296" lon="7.46065">
        <ele>47.457322</ele>
        <time>2024-07-12T08:55:35.860Z</time>
      </trkpt>
      <trkpt lat="53.21295" lon="7.46081">
        <ele>47.530307</ele>
        <time>2024-07-12T08:55:37.839Z</time>
      </trkpt>
      <trkpt lat="53.21294" lon="7.46097">
        <ele>47.600091</ele>
        <time>2024-07-12T08:55:39.852Z</time>
      </trkpt>
      <trkpt lat="53.21294" lon="7.46113">
        <ele>47.672504</ele>
        <time>2024-07-12T08:55:41.842Z</time>
      </trkpt>
      <trkpt lat="53.21295" lon="7.46128">
        <ele>47.741425</ele>
        <time>2024-07-12T08:55:43.837Z</time>
      </trkpt>
      <trkpt lat="53.21295" lon="7.46143">
        <ele>47.811709</ele>
        <time>2024-07-12T08:55:45.836Z</time>
      </trkpt>
      <trkpt lat="53.21297" lon="7.46158">
        <ele>47.881636</ele>
        <time>2024-07-12T08:55:47.836Z</time>
      </trkpt>
      <trkpt lat="53.21299" lon="7.46174">
        <ele>47.873768</ele>
        <time>2024-07-12T08:55:49.834Z</time>
      </trkpt>
      <trkpt lat="53.21301" lon="7.46189">
        <ele>47.82414</ele>
        <time>2024-07-12T08:55:51.832Z</time>
      </trkpt>
      <trkpt lat="53.21304" lon="7.46204">
        <ele>47.77628</ele>
        <time>2024-07-12T08:55:53.837Z</time>
      </trkpt>
      <trkpt lat="53.21307" lon="7.46219">
        <ele>47.728086</ele>
        <time>2024-07-12T08:55:55.837Z</time>
      </trkpt>
      <trkpt lat="53.21311" lon="7.46234">
        <ele>47.680206</ele>
        <time>2024-07-12T08:55:57.835Z</time>
      </trkpt>
      <trkpt lat="53.21317" lon="7.46254">
        <ele>47.612413</ele>
        <time>2024-07-12T08:56:00.843Z</time>
      </trkpt>
      <trkpt lat="53.21324" lon="7.46272">
        <ele>47.543637</ele>
        <time>2024-07-12T08:56:03.826Z</time>
      </trkpt>
      <trkpt lat="53.2133" lon="7.46285">
        <ele>47.497749</ele>
        <time>2024-07-12T08:56:05.830Z</time>
      </trkpt>
      <trkpt lat="53.21339" lon="7.46301">
        <ele>47.42923</ele>
        <time>2024-07-12T08:56:08.858Z</time>
      </trkpt>
      <trkpt lat="53.21345" lon="7.46312">
        <ele>47.38297</ele>
        <time>2024-07-12T08:56:10.848Z</time>
      </trkpt>
      <trkpt lat="53.21352" lon="7.46322">
        <ele>47.33672</ele>
        <time>2024-07-12T08:56:12.837Z</time>
      </trkpt>
      <trkpt lat="53.21359" lon="7.46331">
        <ele>47.290811</ele>
        <time>2024-07-12T08:56:14.840Z</time>
      </trkpt>
      <trkpt lat="53.21369" lon="7.46345">
        <ele>47.225811</ele>
        <time>2024-07-12T08:56:17.836Z</time>
      </trkpt>
      <trkpt lat="53.2138" lon="7.46355">
        <ele>47.161989</ele>
        <time>2024-07-12T08:56:20.834Z</time>
      </trkpt>
      <trkpt lat="53.21391" lon="7.46366">
        <ele>47.094761</ele>
        <time>2024-07-12T08:56:23.839Z</time>
      </trkpt>
      <trkpt lat="53.214" lon="7.46373">
        <ele>47.048213</ele>
        <time>2024-07-12T08:56:25.858Z</time>
      </trkpt>
      <trkpt lat="53.21408" lon="7.46378">
        <ele>47.00153</ele>
        <time>2024-07-12T08:56:27.837Z</time>
      </trkpt>
      <trkpt lat="53.21417" lon="7.46384">
        <ele>46.996694</ele>
        <time>2024-07-12T08:56:29.832Z</time>
      </trkpt>
      <trkpt lat="53.21426" lon="7.46388">
        <ele>47.003851</ele>
        <time>2024-07-12T08:56:31.834Z</time>
      </trkpt>
      <trkpt lat="53.21435" lon="7.46391">
        <ele>47.011209</ele>
        <time>2024-07-12T08:56:33.849Z</time>
      </trkpt>
      <trkpt lat="53.21445" lon="7.46395">
        <ele>47.018795</ele>
        <time>2024-07-12T08:56:35.841Z</time>
      </trkpt>
      <trkpt lat="53.21456" lon="7.46398">
        <ele>47.026794</ele>
        <time>2024-07-12T08:56:37.837Z</time>
      </trkpt>
      <trkpt lat="53.21466" lon="7.46401">
        <ele>47.034717</ele>
        <time>2024-07-12T08:56:39.842Z</time>
      </trkpt>
      <trkpt lat="53.21476" lon="7.46403">
        <ele>47.042476</ele>
        <time>2024-07-12T08:56:41.835Z</time>
      </trkpt>
      <trkpt lat="53.21486" lon="7.46405">
        <ele>47.050204</ele>
        <time>2024-07-12T08:56:43.834Z</time>
      </trkpt>
      <trkpt lat="53.21496" lon="7.46406">
        <ele>47.057665</ele>
        <time>2024-07-12T08:56:45.834Z</time>
      </trkpt>
      <trkpt lat="53.21506" lon="7.46407">
        <ele>47.065108</ele>
        <time>2024-07-12T08:56:47.835Z</time>
      </trkpt>
      <trkpt lat="53.21515" lon="7.46407">
        <ele>47.072474</ele>
        <time>2024-07-12T08:56:49.836Z</time>
      </trkpt>
      <trkpt lat="53.21525" lon="7.46407">
        <ele>47.079763</ele>
        <time>2024-07-12T08:56:51.854Z</time>
      </trkpt>
      <trkpt lat="53.21534" lon="7.46408">
        <ele>47.08699</ele>
        <time>2024-07-12T08:56:53.860Z</time>
      </trkpt>
      <trkpt lat="53.21544" lon="7.46406">
        <ele>47.094341</ele>
        <time>2024-07-12T08:56:55.856Z</time>
      </trkpt>
      <trkpt lat="53.21554" lon="7.46406">
        <ele>47.101938</ele>
        <time>2024-07-12T08:56:57.841Z</time>
      </trkpt>
      <trkpt lat="53.21563" lon="7.46407">
        <ele>47.108924</ele>
        <time>2024-07-12T08:56:59.831Z</time>
      </trkpt>
      <trkpt lat="53.21572" lon="7.46407">
        <ele>47.115834</ele>
        <time>2024-07-12T08:57:01.839Z</time>
      </trkpt>
      <trkpt lat="53.21581" lon="7.46407">
        <ele>47.122743</ele>
        <time>2024-07-12T08:57:03.836Z</time>
      </trkpt>
      <trkpt lat="53.21591" lon="7.46406">
        <ele>47.133923</ele>
        <time>2024-07-12T08:57:05.839Z</time>
      </trkpt>
      <trkpt lat="53.216" lon="7.46406">
        <ele>47.157067</ele>
        <time>2024-07-12T08:57:07.847Z</time>
      </trkpt>
      <trkpt lat="53.21609" lon="7.46407">
        <ele>47.179072</ele>
        <time>2024-07-12T08:57:09.838Z</time>
      </trkpt>
      <trkpt lat="53.21619" lon="7.46408">
        <ele>47.202225</ele>
        <time>2024-07-12T08:57:11.851Z</time>
      </trkpt>
      <trkpt lat="53.21628" lon="7.46407">
        <ele>47.225146</ele>
        <time>2024-07-12T08:57:13.854Z</time>
      </trkpt>
      <trkpt lat="53.21637" lon="7.46407">
        <ele>47.247318</ele>
        <time>2024-07-12T08:57:15.835Z</time>
      </trkpt>
      <trkpt lat="53.21646" lon="7.46408">
        <ele>47.269974</ele>
        <time>2024-07-12T08:57:17.832Z</time>
      </trkpt>
      <trkpt lat="53.21656" lon="7.46407">
        <ele>47.292895</ele>
        <time>2024-07-12T08:57:19.838Z</time>
      </trkpt>
      <trkpt lat="53.21669" lon="7.46406">
        <ele>47.324584</ele>
        <time>2024-07-12T08:57:22.840Z</time>
      </trkpt>
      <trkpt lat="53.21682" lon="7.46408">
        <ele>47.355863</ele>
        <time>2024-07-12T08:57:25.842Z</time>
      </trkpt>
      <trkpt lat="53.21695" lon="7.46407">
        <ele>47.388526</ele>
        <time>2024-07-12T08:57:28.853Z</time>
      </trkpt>
      <trkpt lat="53.21708" lon="7.46407">
        <ele>47.421171</ele>
        <time>2024-07-12T08:57:31.864Z</time>
      </trkpt>
      <trkpt lat="53.21718" lon="7.46409">
        <ele>47.443931</ele>
        <time>2024-07-12T08:57:33.839Z</time>
      </trkpt>
      <trkpt lat="53.21727" lon="7.46408">
        <ele>47.465867</ele>
        <time>2024-07-12T08:57:35.836Z</time>
      </trkpt>
      <trkpt lat="53.2174" lon="7.46407">
        <ele>47.498592</ele>
        <time>2024-07-12T08:57:38.839Z</time>
      </trkpt>
      <trkpt lat="53.21749" lon="7.46406">
        <ele>47.520767</ele>
        <time>2024-07-12T08:57:40.856Z</time>
      </trkpt>
      <trkpt lat="53.21762" lon="7.46406">
        <ele>47.55195</ele>
        <time>2024-07-12T08:57:43.840Z</time>
      </trkpt>
      <trkpt lat="53.21775" lon="7.46407">
        <ele>47.617938</ele>
        <time>2024-07-12T08:57:46.839Z</time>
      </trkpt>
      <trkpt lat="53.21788" lon="7.46407">
        <ele>47.708184</ele>
        <time>2024-07-12T08:57:49.836Z</time>
      </trkpt>
      <trkpt lat="53.21801" lon="7.46406">
        <ele>47.800536</ele>
        <time>2024-07-12T08:57:52.840Z</time>
      </trkpt>
      <trkpt lat="53.21811" lon="7.46406">
        <ele>47.864403</ele>
        <time>2024-07-12T08:57:54.848Z</time>
      </trkpt>
      <trkpt lat="53.21824" lon="7.46406">
        <ele>47.955343</ele>
        <time>2024-07-12T08:57:57.843Z</time>
      </trkpt>
      <trkpt lat="53.21837" lon="7.46407">
        <ele>48.044297</ele>
        <time>2024-07-12T08:58:00.841Z</time>
      </trkpt>
      <trkpt lat="53.2185" lon="7.46407">
        <ele>48.135238</ele>
        <time>2024-07-12T08:58:03.832Z</time>
      </trkpt>
      <trkpt lat="53.21862" lon="7.46406">
        <ele>48.223542</ele>
        <time>2024-07-12T08:58:06.839Z</time>
      </trkpt>
      <trkpt lat="53.21874" lon="7.46407">
        <ele>48.304199</ele>
        <time>2024-07-12T08:58:09.840Z</time>
      </trkpt>
      <trkpt lat="53.21886" lon="7.46408">
        <ele>48.386818</ele>
        <time>2024-07-12T08:58:12.837Z</time>
      </trkpt>
      <trkpt lat="53.21897" lon="7.46405">
        <ele>48.468012</ele>
        <time>2024-07-12T08:58:15.844Z</time>
      </trkpt>
      <trkpt lat="53.21908" lon="7.46404">
        <ele>48.542487</ele>
        <time>2024-07-12T08:58:18.837Z</time>
      </trkpt>
      <trkpt lat="53.21919" lon="7.46401">
        <ele>48.615428</ele>
        <time>2024-07-12T08:58:21.838Z</time>
      </trkpt>
      <trkpt lat="53.21929" lon="7.46397">
        <ele>48.69033</ele>
        <time>2024-07-12T08:58:24.837Z</time>
      </trkpt>
      <trkpt lat="53.21939" lon="7.46391">
        <ele>48.762758</ele>
        <time>2024-07-12T08:58:27.840Z</time>
      </trkpt>
      <trkpt lat="53.21949" lon="7.46383">
        <ele>48.887074</ele>
        <time>2024-07-12T08:58:30.853Z</time>
      </trkpt>
      <trkpt lat="53.21958" lon="7.46375">
        <ele>49.103061</ele>
        <time>2024-07-12T08:58:33.834Z</time>
      </trkpt>
      <trkpt lat="53.21967" lon="7.46364">
        <ele>49.3231</ele>
        <time>2024-07-12T08:58:36.822Z</time>
      </trkpt>
      <trkpt lat="53.21975" lon="7.46353">
        <ele>49.535935</ele>
        <time>2024-07-12T08:58:39.850Z</time>
      </trkpt>
      <trkpt lat="53.21982" lon="7.46339">
        <ele>49.757649</ele>
        <time>2024-07-12T08:58:43.846Z</time>
      </trkpt>
      <trkpt lat="53.2199" lon="7.46331">
        <ele>49.943451</ele>
        <time>2024-07-12T08:58:51.829Z</time>
      </trkpt>
      <trkpt lat="53.21999" lon="7.46337">
        <ele>50.142185</ele>
        <time>2024-07-12T08:58:55.841Z</time>
      </trkpt>
      <trkpt lat="53.22007" lon="7.46325">
        <ele>50.359467</ele>
        <time>2024-07-12T08:58:59.833Z</time>
      </trkpt>
      <trkpt lat="53.22013" lon="7.4631">
        <ele>50.576176</ele>
        <time>2024-07-12T08:59:02.813Z</time>
      </trkpt>
      <trkpt lat="53.22021" lon="7.46297">
        <ele>50.799156</ele>
        <time>2024-07-12T08:59:05.842Z</time>
      </trkpt>
      <trkpt lat="53.22028" lon="7.46284">
        <ele>51.021883</ele>
        <time>2024-07-12T08:59:08.838Z</time>
      </trkpt>
      <trkpt lat="53.22035" lon="7.46265">
        <ele>51.298452</ele>
        <time>2024-07-12T08:59:11.827Z</time>
      </trkpt>
      <trkpt lat="53.22044" lon="7.46247">
        <ele>51.571341</ele>
        <time>2024-07-12T08:59:14.833Z</time>
      </trkpt>
      <trkpt lat="53.2205" lon="7.46228">
        <ele>51.830149</ele>
        <time>2024-07-12T08:59:17.836Z</time>
      </trkpt>
      <trkpt lat="53.22056" lon="7.4621">
        <ele>52.093132</ele>
        <time>2024-07-12T08:59:20.833Z</time>
      </trkpt>
      <trkpt lat="53.22063" lon="7.46192">
        <ele>52.344687</ele>
        <time>2024-07-12T08:59:23.833Z</time>
      </trkpt>
      <trkpt lat="53.22069" lon="7.46174">
        <ele>52.473951</ele>
        <time>2024-07-12T08:59:26.838Z</time>
      </trkpt>
      <trkpt lat="53.22076" lon="7.46157">
        <ele>52.485253</ele>
        <time>2024-07-12T08:59:29.838Z</time>
      </trkpt>
      <trkpt lat="53.22082" lon="7.4614">
        <ele>52.49636</ele>
        <time>2024-07-12T08:59:32.831Z</time>
      </trkpt>
      <trkpt lat="53.2209" lon="7.46124">
        <ele>52.507847</ele>
        <time>2024-07-12T08:59:35.854Z</time>
      </trkpt>
      <trkpt lat="53.22097" lon="7.46109">
        <ele>52.518548</ele>
        <time>2024-07-12T08:59:38.833Z</time>
      </trkpt>
      <trkpt lat="53.22105" lon="7.46094">
        <ele>52.529347</ele>
        <time>2024-07-12T08:59:41.831Z</time>
      </trkpt>
      <trkpt lat="53.22114" lon="7.46084">
        <ele>52.539481</ele>
        <time>2024-07-12T08:59:44.842Z</time>
      </trkpt>
      <trkpt lat="53.22124" lon="7.46075">
        <ele>52.550489</ele>
        <time>2024-07-12T08:59:47.835Z</time>
      </trkpt>
      <trkpt lat="53.22137" lon="7.46071">
        <ele>52.562513</ele>
        <time>2024-07-12T08:59:50.830Z</time>
      </trkpt>
      <trkpt lat="53.22149" lon="7.46071">
        <ele>52.573082</ele>
        <time>2024-07-12T08:59:53.836Z</time>
      </trkpt>
      <trkpt lat="53.22161" lon="7.46073">
        <ele>52.5843</ele>
        <time>2024-07-12T08:59:56.834Z</time>
      </trkpt>
      <trkpt lat="53.22172" lon="7.46081">
        <ele>52.59613</ele>
        <time>2024-07-12T08:59:59.837Z</time>
      </trkpt>
      <trkpt lat="53.22183" lon="7.46088">
        <ele>52.606985</ele>
        <time>2024-07-12T09:00:02.838Z</time>
      </trkpt>
      <trkpt lat="53.22195" lon="7.46096">
        <ele>52.618833</ele>
        <time>2024-07-12T09:00:05.828Z</time>
      </trkpt>
      <trkpt lat="53.22207" lon="7.46105">
        <ele>52.630621</ele>
        <time>2024-07-12T09:00:08.839Z</time>
      </trkpt>
      <trkpt lat="53.22218" lon="7.46114">
        <ele>52.675337</ele>
        <time>2024-07-12T09:00:11.842Z</time>
      </trkpt>
      <trkpt lat="53.2223" lon="7.46121">
        <ele>52.738431</ele>
        <time>2024-07-12T09:00:14.856Z</time>
      </trkpt>
      <trkpt lat="53.22241" lon="7.46129">
        <ele>52.798128</ele>
        <time>2024-07-12T09:00:17.849Z</time>
      </trkpt>
      <trkpt lat="53.22252" lon="7.46136">
        <ele>52.858986</ele>
        <time>2024-07-12T09:00:20.840Z</time>
      </trkpt>
      <trkpt lat="53.22264" lon="7.46145">
        <ele>52.922664</ele>
        <time>2024-07-12T09:00:23.839Z</time>
      </trkpt>
      <trkpt lat="53.22275" lon="7.46155">
        <ele>52.985961</ele>
        <time>2024-07-12T09:00:26.826Z</time>
      </trkpt>
      <trkpt lat="53.22286" lon="7.46165">
        <ele>53.047732</ele>
        <time>2024-07-12T09:00:29.835Z</time>
      </trkpt>
      <trkpt lat="53.22297" lon="7.46172">
        <ele>53.108124</ele>
        <time>2024-07-12T09:00:32.827Z</time>
      </trkpt>
      <trkpt lat="53.22307" lon="7.46181">
        <ele>53.163616</ele>
        <time>2024-07-12T09:00:35.846Z</time>
      </trkpt>
      <trkpt lat="53.22318" lon="7.46191">
        <ele>53.229243</ele>
        <time>2024-07-12T09:00:38.852Z</time>
      </trkpt>
      <trkpt lat="53.22329" lon="7.46201">
        <ele>53.290284</ele>
        <time>2024-07-12T09:00:41.836Z</time>
      </trkpt>
      <trkpt lat="53.2234" lon="7.4621">
        <ele>53.350744</ele>
        <time>2024-07-12T09:00:44.839Z</time>
      </trkpt>
      <trkpt lat="53.22347" lon="7.46224">
        <ele>53.405591</ele>
        <time>2024-07-12T09:00:47.835Z</time>
      </trkpt>
      <trkpt lat="53.22351" lon="7.46243">
        <ele>53.467916</ele>
        <time>2024-07-12T09:00:50.831Z</time>
      </trkpt>
      <trkpt lat="53.22353" lon="7.46264">
        <ele>53.529678</ele>
        <time>2024-07-12T09:00:53.838Z</time>
      </trkpt>
      <trkpt lat="53.22351" lon="7.46281">
        <ele>53.72566</ele>
        <time>2024-07-12T09:00:56.833Z</time>
      </trkpt>
      <trkpt lat="53.22348" lon="7.46297">
        <ele>53.929512</ele>
        <time>2024-07-12T09:00:59.837Z</time>
      </trkpt>
      <trkpt lat="53.22344" lon="7.46311">
        <ele>54.127346</ele>
        <time>2024-07-12T09:01:02.841Z</time>
      </trkpt>
      <trkpt lat="53.22339" lon="7.46328">
        <ele>54.358519</ele>
        <time>2024-07-12T09:01:06.839Z</time>
      </trkpt>
      <trkpt lat="53.22335" lon="7.46346">
        <ele>54.594449</ele>
        <time>2024-07-12T09:01:10.835Z</time>
      </trkpt>
      <trkpt lat="53.22331" lon="7.4636">
        <ele>54.791823</ele>
        <time>2024-07-12T09:01:13.836Z</time>
      </trkpt>
      <trkpt lat="53.22326" lon="7.46375">
        <ele>55.004171</ele>
        <time>2024-07-12T09:01:16.846Z</time>
      </trkpt>
      <trkpt lat="53.22322" lon="7.46389">
        <ele>55.195513</ele>
        <time>2024-07-12T09:01:19.838Z</time>
      </trkpt>
      <trkpt lat="53.22319" lon="7.46403">
        <ele>55.384321</ele>
        <time>2024-07-12T09:01:22.833Z</time>
      </trkpt>
      <trkpt lat="53.22315" lon="7.46419">
        <ele>55.590725</ele>
        <time>2024-07-12T09:01:25.854Z</time>
      </trkpt>
      <trkpt lat="53.22311" lon="7.46433">
        <ele>55.786573</ele>
        <time>2024-07-12T09:01:28.840Z</time>
      </trkpt>
      <trkpt lat="53.22307" lon="7.46452">
        <ele>56.036388</ele>
        <time>2024-07-12T09:01:32.846Z</time>
      </trkpt>
      <trkpt lat="53.22303" lon="7.46471">
        <ele>56.2806</ele>
        <time>2024-07-12T09:01:36.843Z</time>
      </trkpt>
      <trkpt lat="53.22299" lon="7.46488">
        <ele>56.502419</ele>
        <time>2024-07-12T09:01:40.840Z</time>
      </trkpt>
      <trkpt lat="53.22295" lon="7.46505">
        <ele>56.737079</ele>
        <time>2024-07-12T09:01:45.843Z</time>
      </trkpt>
      <trkpt lat="53.22292" lon="7.4652">
        <ele>56.933717</ele>
        <time>2024-07-12T09:01:49.843Z</time>
      </trkpt>
      <trkpt lat="53.2229" lon="7.46536">
        <ele>57.135528</ele>
        <time>2024-07-12T09:01:53.853Z</time>
      </trkpt>
      <trkpt lat="53.22286" lon="7.46553">
        <ele>57.234292</ele>
        <time>2024-07-12T09:01:57.840Z</time>
      </trkpt>
      <trkpt lat="53.22283" lon="7.46573">
        <ele>57.169041</ele>
        <time>2024-07-12T09:02:01.836Z</time>
      </trkpt>
      <trkpt lat="53.2228" lon="7.46592">
        <ele>57.109556</ele>
        <time>2024-07-12T09:02:04.847Z</time>
      </trkpt>
      <trkpt lat="53.22277" lon="7.46611">
        <ele>57.046661</ele>
        <time>2024-07-12T09:02:07.848Z</time>
      </trkpt>
      <trkpt lat="53.22274" lon="7.46631">
        <ele>56.982554</ele>
        <time>2024-07-12T09:02:10.842Z</time>
      </trkpt>
      <trkpt lat="53.22271" lon="7.46653">
        <ele>56.912808</ele>
        <time>2024-07-12T09:02:13.837Z</time>
      </trkpt>
      <trkpt lat="53.22269" lon="7.46668">
        <ele>56.865218</ele>
        <time>2024-07-12T09:02:15.855Z</time>
      </trkpt>
      <trkpt lat="53.22267" lon="7.46684">
        <ele>56.81538</ele>
        <time>2024-07-12T09:02:17.833Z</time>
      </trkpt>
      <trkpt lat="53.22266" lon="7.467">
        <ele>56.763693</ele>
        <time>2024-07-12T09:02:19.850Z</time>
      </trkpt>
      <trkpt lat="53.22264" lon="7.46717">
        <ele>56.71007</ele>
        <time>2024-07-12T09:02:21.842Z</time>
      </trkpt>
      <trkpt lat="53.22262" lon="7.46735">
        <ele>56.652988</ele>
        <time>2024-07-12T09:02:23.860Z</time>
      </trkpt>
      <trkpt lat="53.2226" lon="7.46753">
        <ele>56.595393</ele>
        <time>2024-07-12T09:02:25.847Z</time>
      </trkpt>
      <trkpt lat="53.22259" lon="7.46772">
        <ele>56.536743</ele>
        <time>2024-07-12T09:02:27.843Z</time>
      </trkpt>
      <trkpt lat="53.22258" lon="7.46789">
        <ele>56.481515</ele>
        <time>2024-07-12T09:02:29.841Z</time>
      </trkpt>
      <trkpt lat="53.22257" lon="7.46807">
        <ele>56.42636</ele>
        <time>2024-07-12T09:02:31.841Z</time>
      </trkpt>
      <trkpt lat="53.22256" lon="7.46824">
        <ele>56.370586</ele>
        <time>2024-07-12T09:02:33.851Z</time>
      </trkpt>
      <trkpt lat="53.22254" lon="7.46841">
        <ele>56.308014</ele>
        <time>2024-07-12T09:02:35.852Z</time>
      </trkpt>
      <trkpt lat="53.22251" lon="7.46859">
        <ele>56.083086</ele>
        <time>2024-07-12T09:02:37.833Z</time>
      </trkpt>
      <trkpt lat="53.2225" lon="7.46877">
        <ele>55.85631</ele>
        <time>2024-07-12T09:02:39.843Z</time>
      </trkpt>
      <trkpt lat="53.22248" lon="7.46895">
        <ele>55.641032</ele>
        <time>2024-07-12T09:02:41.844Z</time>
      </trkpt>
      <trkpt lat="53.22247" lon="7.46912">
        <ele>55.426564</ele>
        <time>2024-07-12T09:02:43.849Z</time>
      </trkpt>
      <trkpt lat="53.22245" lon="7.46929">
        <ele>55.212458</ele>
        <time>2024-07-12T09:02:45.841Z</time>
      </trkpt>
      <trkpt lat="53.22243" lon="7.46948">
        <ele>54.979527</ele>
        <time>2024-07-12T09:02:47.854Z</time>
      </trkpt>
      <trkpt lat="53.22241" lon="7.46967">
        <ele>54.745738</ele>
        <time>2024-07-12T09:02:49.848Z</time>
      </trkpt>
      <trkpt lat="53.22239" lon="7.46985">
        <ele>54.514049</ele>
        <time>2024-07-12T09:02:51.831Z</time>
      </trkpt>
      <trkpt lat="53.22236" lon="7.47004">
        <ele>54.272748</ele>
        <time>2024-07-12T09:02:53.843Z</time>
      </trkpt>
      <trkpt lat="53.22234" lon="7.47023">
        <ele>54.037036</ele>
        <time>2024-07-12T09:02:55.837Z</time>
      </trkpt>
      <trkpt lat="53.22231" lon="7.47042">
        <ele>53.806615</ele>
        <time>2024-07-12T09:02:57.847Z</time>
      </trkpt>
      <trkpt lat="53.22229" lon="7.47059">
        <ele>53.590054</ele>
        <time>2024-07-12T09:02:59.856Z</time>
      </trkpt>
      <trkpt lat="53.22227" lon="7.47076">
        <ele>53.375145</ele>
        <time>2024-07-12T09:03:01.836Z</time>
      </trkpt>
      <trkpt lat="53.22224" lon="7.47092">
        <ele>53.1683</ele>
        <time>2024-07-12T09:03:03.841Z</time>
      </trkpt>
      <trkpt lat="53.22221" lon="7.47109">
        <ele>52.95626</ele>
        <time>2024-07-12T09:03:05.831Z</time>
      </trkpt>
      <trkpt lat="53.22218" lon="7.47127">
        <ele>52.728366</ele>
        <time>2024-07-12T09:03:07.846Z</time>
      </trkpt>
      <trkpt lat="53.22214" lon="7.47145">
        <ele>52.446073</ele>
        <time>2024-07-12T09:03:09.856Z</time>
      </trkpt>
      <trkpt lat="53.22209" lon="7.47162">
        <ele>52.136148</ele>
        <time>2024-07-12T09:03:11.875Z</time>
      </trkpt>
      <trkpt lat="53.22206" lon="7.4718">
        <ele>51.83703</ele>
        <time>2024-07-12T09:03:13.853Z</time>
      </trkpt>
      <trkpt lat="53.22202" lon="7.47196">
        <ele>51.558606</ele>
        <time>2024-07-12T09:03:15.843Z</time>
      </trkpt>
      <trkpt lat="53.22198" lon="7.47211">
        <ele>51.289912</ele>
        <time>2024-07-12T09:03:17.841Z</time>
      </trkpt>
      <trkpt lat="53.22194" lon="7.47229">
        <ele>50.990794</ele>
        <time>2024-07-12T09:03:23.829Z</time>
      </trkpt>
      <trkpt lat="53.22189" lon="7.47245">
        <ele>50.689607</ele>
        <time>2024-07-12T09:03:25.841Z</time>
      </trkpt>
      <trkpt lat="53.22183" lon="7.47269">
        <ele>50.279461</ele>
        <time>2024-07-12T09:03:27.835Z</time>
      </trkpt>
      <trkpt lat="53.22179" lon="7.47287">
        <ele>49.963705</ele>
        <time>2024-07-12T09:03:29.847Z</time>
      </trkpt>
      <trkpt lat="53.22173" lon="7.47304">
        <ele>49.646583</ele>
        <time>2024-07-12T09:03:31.838Z</time>
      </trkpt>
      <trkpt lat="53.22169" lon="7.4732">
        <ele>49.371253</ele>
        <time>2024-07-12T09:03:33.848Z</time>
      </trkpt>
      <trkpt lat="53.22163" lon="7.47336">
        <ele>49.057341</ele>
        <time>2024-07-12T09:03:36.866Z</time>
      </trkpt>
      <trkpt lat="53.22154" lon="7.47363">
        <ele>48.564705</ele>
        <time>2024-07-12T09:05:08.847Z</time>
      </trkpt>
      <trkpt lat="53.22152" lon="7.47379">
        <ele>48.310144</ele>
        <time>2024-07-12T09:05:12.837Z</time>
      </trkpt>
      <trkpt lat="53.22169" lon="7.47383">
        <ele>47.849462</ele>
        <time>2024-07-12T09:05:54.851Z</time>
      </trkpt>
      <trkpt lat="53.22172" lon="7.474">
        <ele>47.775663</ele>
        <time>2024-07-12T09:06:00.838Z</time>
      </trkpt>
      <trkpt lat="53.22167" lon="7.47417">
        <ele>47.749466</ele>
        <time>2024-07-12T09:06:03.847Z</time>
      </trkpt>
      <trkpt lat="53.22163" lon="7.47431">
        <ele>47.727354</ele>
        <time>2024-07-12T09:06:05.859Z</time>
      </trkpt>
      <trkpt lat="53.2216" lon="7.47446">
        <ele>47.705816</ele>
        <time>2024-07-12T09:06:07.844Z</time>
      </trkpt>
      <trkpt lat="53.22157" lon="7.47461">
        <ele>47.683714</ele>
        <time>2024-07-12T09:06:09.850Z</time>
      </trkpt>
      <trkpt lat="53.22153" lon="7.47476">
        <ele>47.661491</ele>
        <time>2024-07-12T09:06:11.834Z</time>
      </trkpt>
      <trkpt lat="53.2215" lon="7.47491">
        <ele>47.639495</ele>
        <time>2024-07-12T09:06:13.846Z</time>
      </trkpt>
      <trkpt lat="53.22147" lon="7.47506">
        <ele>47.617298</ele>
        <time>2024-07-12T09:06:15.859Z</time>
      </trkpt>
      <trkpt lat="53.22146" lon="7.47522">
        <ele>47.595651</ele>
        <time>2024-07-12T09:06:17.860Z</time>
      </trkpt>
      <trkpt lat="53.22145" lon="7.47539">
        <ele>47.571231</ele>
        <time>2024-07-12T09:06:19.846Z</time>
      </trkpt>
      <trkpt lat="53.22143" lon="7.47556">
        <ele>47.547269</ele>
        <time>2024-07-12T09:06:21.837Z</time>
      </trkpt>
      <trkpt lat="53.22142" lon="7.47572">
        <ele>47.525614</ele>
        <time>2024-07-12T09:06:23.838Z</time>
      </trkpt>
      <trkpt lat="53.22142" lon="7.47589">
        <ele>47.5021</ele>
        <time>2024-07-12T09:06:25.855Z</time>
      </trkpt>
      <trkpt lat="53.22142" lon="7.47605">
        <ele>47.479827</ele>
        <time>2024-07-12T09:06:27.843Z</time>
      </trkpt>
      <trkpt lat="53.22142" lon="7.47621">
        <ele>47.457263</ele>
        <time>2024-07-12T09:06:29.850Z</time>
      </trkpt>
      <trkpt lat="53.22143" lon="7.47637">
        <ele>47.435103</ele>
        <time>2024-07-12T09:06:31.838Z</time>
      </trkpt>
      <trkpt lat="53.22143" lon="7.47653">
        <ele>47.413467</ele>
        <time>2024-07-12T09:06:33.843Z</time>
      </trkpt>
      <trkpt lat="53.22144" lon="7.47668">
        <ele>47.391878</ele>
        <time>2024-07-12T09:06:35.854Z</time>
      </trkpt>
      <trkpt lat="53.22146" lon="7.47685">
        <ele>47.401262</ele>
        <time>2024-07-12T09:06:37.839Z</time>
      </trkpt>
      <trkpt lat="53.22147" lon="7.47701">
        <ele>47.443376</ele>
        <time>2024-07-12T09:06:39.843Z</time>
      </trkpt>
      <trkpt lat="53.22148" lon="7.47717">
        <ele>47.486405</ele>
        <time>2024-07-12T09:06:41.838Z</time>
      </trkpt>
      <trkpt lat="53.2215" lon="7.47733">
        <ele>47.528242</ele>
        <time>2024-07-12T09:06:43.846Z</time>
      </trkpt>
      <trkpt lat="53.22152" lon="7.47748">
        <ele>47.569855</ele>
        <time>2024-07-12T09:06:45.838Z</time>
      </trkpt>
      <trkpt lat="53.22154" lon="7.47763">
        <ele>47.610409</ele>
        <time>2024-07-12T09:06:47.841Z</time>
      </trkpt>
      <trkpt lat="53.22157" lon="7.47785">
        <ele>47.66884</ele>
        <time>2024-07-12T09:06:50.855Z</time>
      </trkpt>
      <trkpt lat="53.2216" lon="7.47799">
        <ele>47.709585</ele>
        <time>2024-07-12T09:06:52.842Z</time>
      </trkpt>
      <trkpt lat="53.22163" lon="7.47813">
        <ele>47.749455</ele>
        <time>2024-07-12T09:06:54.824Z</time>
      </trkpt>
      <trkpt lat="53.22166" lon="7.47828">
        <ele>47.790315</ele>
        <time>2024-07-12T09:06:56.843Z</time>
      </trkpt>
      <trkpt lat="53.2217" lon="7.47842">
        <ele>47.830742</ele>
        <time>2024-07-12T09:06:58.844Z</time>
      </trkpt>
      <trkpt lat="53.22175" lon="7.47863">
        <ele>47.890081</ele>
        <time>2024-07-12T09:07:01.847Z</time>
      </trkpt>
      <trkpt lat="53.22179" lon="7.47878">
        <ele>47.931688</ele>
        <time>2024-07-12T09:07:03.865Z</time>
      </trkpt>
      <trkpt lat="53.22185" lon="7.47897">
        <ele>47.989639</ele>
        <time>2024-07-12T09:07:06.841Z</time>
      </trkpt>
      <trkpt lat="53.2219" lon="7.47918">
        <ele>48.049198</ele>
        <time>2024-07-12T09:07:09.859Z</time>
      </trkpt>
      <trkpt lat="53.22197" lon="7.47936">
        <ele>48.105892</ele>
        <time>2024-07-12T09:07:12.819Z</time>
      </trkpt>
      <trkpt lat="53.22204" lon="7.47955">
        <ele>48.163505</ele>
        <time>2024-07-12T09:07:15.859Z</time>
      </trkpt>
      <trkpt lat="53.2221" lon="7.47973">
        <ele>48.262323</ele>
        <time>2024-07-12T09:07:18.853Z</time>
      </trkpt>
      <trkpt lat="53.22217" lon="7.4799">
        <ele>48.366067</ele>
        <time>2024-07-12T09:07:21.850Z</time>
      </trkpt>
      <trkpt lat="53.22224" lon="7.48009">
        <ele>48.475332</ele>
        <time>2024-07-12T09:07:24.846Z</time>
      </trkpt>
      <trkpt lat="53.2223" lon="7.48026">
        <ele>48.576859</ele>
        <time>2024-07-12T09:07:27.853Z</time>
      </trkpt>
      <trkpt lat="53.22237" lon="7.48044">
        <ele>48.682662</ele>
        <time>2024-07-12T09:07:30.856Z</time>
      </trkpt>
      <trkpt lat="53.22243" lon="7.48061">
        <ele>48.786306</ele>
        <time>2024-07-12T09:07:33.846Z</time>
      </trkpt>
      <trkpt lat="53.22249" lon="7.48078">
        <ele>48.886068</ele>
        <time>2024-07-12T09:07:36.857Z</time>
      </trkpt>
      <trkpt lat="53.22256" lon="7.48095">
        <ele>48.984993</ele>
        <time>2024-07-12T09:07:39.842Z</time>
      </trkpt>
      <trkpt lat="53.22262" lon="7.48111">
        <ele>49.082591</ele>
        <time>2024-07-12T09:07:42.836Z</time>
      </trkpt>
      <trkpt lat="53.22268" lon="7.48127">
        <ele>49.179443</ele>
        <time>2024-07-12T09:07:45.844Z</time>
      </trkpt>
      <trkpt lat="53.22273" lon="7.48144">
        <ele>49.273423</ele>
        <time>2024-07-12T09:07:48.845Z</time>
      </trkpt>
      <trkpt lat="53.22279" lon="7.48159">
        <ele>49.363107</ele>
        <time>2024-07-12T09:07:51.846Z</time>
      </trkpt>
      <trkpt lat="53.22285" lon="7.48173">
        <ele>49.451229</ele>
        <time>2024-07-12T09:07:54.835Z</time>
      </trkpt>
      <trkpt lat="53.2229" lon="7.48189">
        <ele>49.542825</ele>
        <time>2024-07-12T09:07:57.852Z</time>
      </trkpt>
      <trkpt lat="53.22296" lon="7.48201">
        <ele>49.620364</ele>
        <time>2024-07-12T09:08:00.854Z</time>
      </trkpt>
      <trkpt lat="53.22304" lon="7.48211">
        <ele>49.721081</ele>
        <time>2024-07-12T09:08:04.835Z</time>
      </trkpt>
      <trkpt lat="53.22296" lon="7.48223">
        <ele>49.873296</ele>
        <time>2024-07-12T09:08:09.838Z</time>
      </trkpt>
      <trkpt lat="53.22285" lon="7.48228">
        <ele>50.041651</ele>
        <time>2024-07-12T09:08:13.843Z</time>
      </trkpt>
      <trkpt lat="53.22276" lon="7.48233">
        <ele>50.183391</ele>
        <time>2024-07-12T09:08:16.845Z</time>
      </trkpt>
      <trkpt lat="53.22266" lon="7.48238">
        <ele>50.334334</ele>
        <time>2024-07-12T09:08:19.843Z</time>
      </trkpt>
      <trkpt lat="53.22256" lon="7.48245">
        <ele>50.497845</ele>
        <time>2024-07-12T09:08:22.828Z</time>
      </trkpt>
      <trkpt lat="53.22244" lon="7.48251">
        <ele>50.678325</ele>
        <time>2024-07-12T09:08:25.857Z</time>
      </trkpt>
      <trkpt lat="53.22232" lon="7.48259">
        <ele>50.866574</ele>
        <time>2024-07-12T09:08:28.843Z</time>
      </trkpt>
      <trkpt lat="53.22219" lon="7.48264">
        <ele>51.052233</ele>
        <time>2024-07-12T09:08:31.837Z</time>
      </trkpt>
      <trkpt lat="53.2221" lon="7.48267">
        <ele>51.185609</ele>
        <time>2024-07-12T09:08:33.821Z</time>
      </trkpt>
      <trkpt lat="53.22198" lon="7.48274">
        <ele>51.372624</ele>
        <time>2024-07-12T09:08:36.853Z</time>
      </trkpt>
      <trkpt lat="53.22186" lon="7.4828">
        <ele>51.555399</ele>
        <time>2024-07-12T09:08:39.862Z</time>
      </trkpt>
      <trkpt lat="53.22175" lon="7.48286">
        <ele>51.725336</ele>
        <time>2024-07-12T09:08:42.840Z</time>
      </trkpt>
      <trkpt lat="53.22163" lon="7.48293">
        <ele>51.900804</ele>
        <time>2024-07-12T09:08:45.853Z</time>
      </trkpt>
      <trkpt lat="53.2215" lon="7.48298">
        <ele>52.094495</ele>
        <time>2024-07-12T09:08:48.858Z</time>
      </trkpt>
      <trkpt lat="53.22138" lon="7.48305">
        <ele>52.289781</ele>
        <time>2024-07-12T09:08:51.855Z</time>
      </trkpt>
      <trkpt lat="53.22126" lon="7.4831">
        <ele>52.389516</ele>
        <time>2024-07-12T09:08:54.839Z</time>
      </trkpt>
      <trkpt lat="53.22114" lon="7.48315">
        <ele>52.482491</ele>
        <time>2024-07-12T09:08:57.856Z</time>
      </trkpt>
      <trkpt lat="53.22103" lon="7.48321">
        <ele>52.572829</ele>
        <time>2024-07-12T09:09:00.851Z</time>
      </trkpt>
      <trkpt lat="53.22092" lon="7.48327">
        <ele>52.664333</ele>
        <time>2024-07-12T09:09:03.837Z</time>
      </trkpt>
      <trkpt lat="53.22081" lon="7.48331">
        <ele>52.75562</ele>
        <time>2024-07-12T09:09:06.841Z</time>
      </trkpt>
      <trkpt lat="53.2207" lon="7.48336">
        <ele>52.842317</ele>
        <time>2024-07-12T09:09:09.888Z</time>
      </trkpt>
      <trkpt lat="53.22059" lon="7.4834">
        <ele>52.929014</ele>
        <time>2024-07-12T09:09:12.841Z</time>
      </trkpt>
      <trkpt lat="53.22049" lon="7.48345">
        <ele>53.013657</ele>
        <time>2024-07-12T09:09:15.849Z</time>
      </trkpt>
      <trkpt lat="53.22037" lon="7.4835">
        <ele>53.109671</ele>
        <time>2024-07-12T09:09:18.855Z</time>
      </trkpt>
      <trkpt lat="53.22026" lon="7.48354">
        <ele>53.198009</ele>
        <time>2024-07-12T09:09:21.841Z</time>
      </trkpt>
      <trkpt lat="53.22016" lon="7.48359">
        <ele>53.285583</ele>
        <time>2024-07-12T09:09:24.845Z</time>
      </trkpt>
      <trkpt lat="53.22003" lon="7.48364">
        <ele>53.383538</ele>
        <time>2024-07-12T09:09:27.860Z</time>
      </trkpt>
      <trkpt lat="53.21992" lon="7.48368">
        <ele>53.47923</ele>
        <time>2024-07-12T09:09:30.845Z</time>
      </trkpt>
      <trkpt lat="53.2198" lon="7.48372">
        <ele>53.573585</ele>
        <time>2024-07-12T09:09:33.864Z</time>
      </trkpt>
      <trkpt lat="53.2197" lon="7.48376">
        <ele>53.653504</ele>
        <time>2024-07-12T09:09:36.849Z</time>
      </trkpt>
      <trkpt lat="53.2196" lon="7.48379">
        <ele>53.661386</ele>
        <time>2024-07-12T09:09:40.851Z</time>
      </trkpt>
      <trkpt lat="53.21962" lon="7.48398">
        <ele>53.455592</ele>
        <time>2024-07-12T09:10:43.838Z</time>
      </trkpt>
      <trkpt lat="53.21965" lon="7.48414">
        <ele>53.270991</ele>
        <time>2024-07-12T09:10:46.840Z</time>
      </trkpt>
      <trkpt lat="53.21969" lon="7.48434">
        <ele>53.054298</ele>
        <time>2024-07-12T09:10:49.826Z</time>
      </trkpt>
      <trkpt lat="53.21972" lon="7.48448">
        <ele>52.891237</ele>
        <time>2024-07-12T09:10:51.860Z</time>
      </trkpt>
      <trkpt lat="53.21975" lon="7.48463">
        <ele>52.726249</ele>
        <time>2024-07-12T09:10:53.842Z</time>
      </trkpt>
      <trkpt lat="53.21979" lon="7.48479">
        <ele>52.537212</ele>
        <time>2024-07-12T09:10:55.840Z</time>
      </trkpt>
      <trkpt lat="53.21982" lon="7.48496">
        <ele>52.34648</ele>
        <time>2024-07-12T09:10:57.854Z</time>
      </trkpt>
      <trkpt lat="53.21987" lon="7.48513">
        <ele>52.153494</ele>
        <time>2024-07-12T09:10:59.840Z</time>
      </trkpt>
      <trkpt lat="53.21991" lon="7.48531">
        <ele>51.951018</ele>
        <time>2024-07-12T09:11:01.849Z</time>
      </trkpt>
      <trkpt lat="53.21996" lon="7.48549">
        <ele>51.744617</ele>
        <time>2024-07-12T09:11:03.846Z</time>
      </trkpt>
      <trkpt lat="53.21999" lon="7.48566">
        <ele>51.544999</ele>
        <time>2024-07-12T09:11:05.851Z</time>
      </trkpt>
      <trkpt lat="53.22003" lon="7.48584">
        <ele>51.343614</ele>
        <time>2024-07-12T09:11:07.843Z</time>
      </trkpt>
      <trkpt lat="53.22006" lon="7.48602">
        <ele>51.14559</ele>
        <time>2024-07-12T09:11:09.842Z</time>
      </trkpt>
      <trkpt lat="53.22009" lon="7.48622">
        <ele>50.926613</ele>
        <time>2024-07-12T09:11:11.843Z</time>
      </trkpt>
      <trkpt lat="53.22012" lon="7.48642">
        <ele>50.715566</ele>
        <time>2024-07-12T09:11:13.816Z</time>
      </trkpt>
      <trkpt lat="53.22014" lon="7.48661">
        <ele>50.510231</ele>
        <time>2024-07-12T09:11:15.823Z</time>
      </trkpt>
      <trkpt lat="53.22017" lon="7.48678">
        <ele>50.332076</ele>
        <time>2024-07-12T09:11:17.841Z</time>
      </trkpt>
      <trkpt lat="53.22018" lon="7.48696">
        <ele>50.15421</ele>
        <time>2024-07-12T09:11:19.855Z</time>
      </trkpt>
      <trkpt lat="53.2202" lon="7.48714">
        <ele>49.972699</ele>
        <time>2024-07-12T09:11:21.817Z</time>
      </trkpt>
      <trkpt lat="53.22022" lon="7.48732">
        <ele>49.799843</ele>
        <time>2024-07-12T09:11:23.845Z</time>
      </trkpt>
      <trkpt lat="53.22024" lon="7.48749">
        <ele>49.629749</ele>
        <time>2024-07-12T09:11:25.831Z</time>
      </trkpt>
      <trkpt lat="53.22025" lon="7.48766">
        <ele>49.459157</ele>
        <time>2024-07-12T09:11:27.842Z</time>
      </trkpt>
      <trkpt lat="53.22027" lon="7.48783">
        <ele>49.288092</ele>
        <time>2024-07-12T09:11:29.823Z</time>
      </trkpt>
      <trkpt lat="53.22029" lon="7.488">
        <ele>49.117396</ele>
        <time>2024-07-12T09:11:31.842Z</time>
      </trkpt>
      <trkpt lat="53.22031" lon="7.48817">
        <ele>48.951185</ele>
        <time>2024-07-12T09:11:33.830Z</time>
      </trkpt>
      <trkpt lat="53.22033" lon="7.48833">
        <ele>48.785648</ele>
        <time>2024-07-12T09:11:35.853Z</time>
      </trkpt>
      <trkpt lat="53.22035" lon="7.48849">
        <ele>48.622981</ele>
        <time>2024-07-12T09:11:37.842Z</time>
      </trkpt>
      <trkpt lat="53.22037" lon="7.48865">
        <ele>48.466467</ele>
        <time>2024-07-12T09:11:39.852Z</time>
      </trkpt>
      <trkpt lat="53.22039" lon="7.48881">
        <ele>48.303214</ele>
        <time>2024-07-12T09:11:41.838Z</time>
      </trkpt>
      <trkpt lat="53.22041" lon="7.48897">
        <ele>48.144504</ele>
        <time>2024-07-12T09:11:43.862Z</time>
      </trkpt>
      <trkpt lat="53.22044" lon="7.48913">
        <ele>47.978188</ele>
        <time>2024-07-12T09:11:45.827Z</time>
      </trkpt>
      <trkpt lat="53.22045" lon="7.48929">
        <ele>47.817521</ele>
        <time>2024-07-12T09:11:47.837Z</time>
      </trkpt>
      <trkpt lat="53.22047" lon="7.48947">
        <ele>47.644514</ele>
        <time>2024-07-12T09:11:49.816Z</time>
      </trkpt>
      <trkpt lat="53.22049" lon="7.48963">
        <ele>47.545221</ele>
        <time>2024-07-12T09:11:51.843Z</time>
      </trkpt>
      <trkpt lat="53.22051" lon="7.4898">
        <ele>47.502011</ele>
        <time>2024-07-12T09:11:53.861Z</time>
      </trkpt>
      <trkpt lat="53.22052" lon="7.48997">
        <ele>47.458082</ele>
        <time>2024-07-12T09:11:55.855Z</time>
      </trkpt>
      <trkpt lat="53.22052" lon="7.49014">
        <ele>47.415076</ele>
        <time>2024-07-12T09:11:57.832Z</time>
      </trkpt>
      <trkpt lat="53.22052" lon="7.4903">
        <ele>47.374148</ele>
        <time>2024-07-12T09:11:59.841Z</time>
      </trkpt>
      <trkpt lat="53.22051" lon="7.49046">
        <ele>47.333131</ele>
        <time>2024-07-12T09:12:01.843Z</time>
      </trkpt>
      <trkpt lat="53.2205" lon="7.49068">
        <ele>47.274867</ele>
        <time>2024-07-12T09:12:04.857Z</time>
      </trkpt>
      <trkpt lat="53.2205" lon="7.49084">
        <ele>47.234924</ele>
        <time>2024-07-12T09:12:06.855Z</time>
      </trkpt>
      <trkpt lat="53.22051" lon="7.49105">
        <ele>47.180138</ele>
        <time>2024-07-12T09:12:09.845Z</time>
      </trkpt>
      <trkpt lat="53.22056" lon="7.49125">
        <ele>47.124968</ele>
        <time>2024-07-12T09:12:12.837Z</time>
      </trkpt>
      <trkpt lat="53.22061" lon="7.49138">
        <ele>47.085231</ele>
        <time>2024-07-12T09:12:14.846Z</time>
      </trkpt>
      <trkpt lat="53.22068" lon="7.49157">
        <ele>47.029221</ele>
        <time>2024-07-12T09:12:17.849Z</time>
      </trkpt>
      <trkpt lat="53.22073" lon="7.49171">
        <ele>46.987691</ele>
        <time>2024-07-12T09:12:19.849Z</time>
      </trkpt>
      <trkpt lat="53.22078" lon="7.49192">
        <ele>46.930131</ele>
        <time>2024-07-12T09:12:22.842Z</time>
      </trkpt>
      <trkpt lat="53.22081" lon="7.49206">
        <ele>46.890181</ele>
        <time>2024-07-12T09:12:24.839Z</time>
      </trkpt>
      <trkpt lat="53.22083" lon="7.49222">
        <ele>46.849981</ele>
        <time>2024-07-12T09:12:26.846Z</time>
      </trkpt>
      <trkpt lat="53.22084" lon="7.49237">
        <ele>46.809911</ele>
        <time>2024-07-12T09:12:28.844Z</time>
      </trkpt>
      <trkpt lat="53.22084" lon="7.49253">
        <ele>46.806805</ele>
        <time>2024-07-12T09:12:30.838Z</time>
      </trkpt>
      <trkpt lat="53.22084" lon="7.49275">
        <ele>46.820025</ele>
        <time>2024-07-12T09:12:33.852Z</time>
      </trkpt>
      <trkpt lat="53.22084" lon="7.4929">
        <ele>46.829106</ele>
        <time>2024-07-12T09:12:35.856Z</time>
      </trkpt>
      <trkpt lat="53.22087" lon="7.49312">
        <ele>46.842017</ele>
        <time>2024-07-12T09:12:38.841Z</time>
      </trkpt>
      <trkpt lat="53.2209" lon="7.49333">
        <ele>46.855218</ele>
        <time>2024-07-12T09:12:41.841Z</time>
      </trkpt>
      <trkpt lat="53.22093" lon="7.49348">
        <ele>46.864079</ele>
        <time>2024-07-12T09:12:43.843Z</time>
      </trkpt>
      <trkpt lat="53.22097" lon="7.49369">
        <ele>46.877565</ele>
        <time>2024-07-12T09:12:46.862Z</time>
      </trkpt>
      <trkpt lat="53.22102" lon="7.4939">
        <ele>46.890848</ele>
        <time>2024-07-12T09:12:49.847Z</time>
      </trkpt>
      <trkpt lat="53.22107" lon="7.4941">
        <ele>46.903693</ele>
        <time>2024-07-12T09:12:52.844Z</time>
      </trkpt>
      <trkpt lat="53.22112" lon="7.49431">
        <ele>46.916997</ele>
        <time>2024-07-12T09:12:55.853Z</time>
      </trkpt>
      <trkpt lat="53.22119" lon="7.49449">
        <ele>46.929914</ele>
        <time>2024-07-12T09:12:58.829Z</time>
      </trkpt>
      <trkpt lat="53.22125" lon="7.49467">
        <ele>46.942118</ele>
        <time>2024-07-12T09:13:01.847Z</time>
      </trkpt>
      <trkpt lat="53.22132" lon="7.49485">
        <ele>46.954576</ele>
        <time>2024-07-12T09:13:04.851Z</time>
      </trkpt>
      <trkpt lat="53.22137" lon="7.49502">
        <ele>46.965696</ele>
        <time>2024-07-12T09:13:07.832Z</time>
      </trkpt>
      <trkpt lat="53.22141" lon="7.4952">
        <ele>46.977276</ele>
        <time>2024-07-12T09:13:10.841Z</time>
      </trkpt>
      <trkpt lat="53.22143" lon="7.4954">
        <ele>46.926257</ele>
        <time>2024-07-12T09:13:13.856Z</time>
      </trkpt>
      <trkpt lat="53.22146" lon="7.4956">
        <ele>46.867211</ele>
        <time>2024-07-12T09:13:16.863Z</time>
      </trkpt>
      <trkpt lat="53.22147" lon="7.49575">
        <ele>46.824759</ele>
        <time>2024-07-12T09:13:18.858Z</time>
      </trkpt>
      <trkpt lat="53.22148" lon="7.49591">
        <ele>46.780585</ele>
        <time>2024-07-12T09:13:20.860Z</time>
      </trkpt>
      <trkpt lat="53.22151" lon="7.49613">
        <ele>46.716851</ele>
        <time>2024-07-12T09:13:23.860Z</time>
      </trkpt>
      <trkpt lat="53.22154" lon="7.49633">
        <ele>46.660103</ele>
        <time>2024-07-12T09:13:26.844Z</time>
      </trkpt>
      <trkpt lat="53.22159" lon="7.49651">
        <ele>46.604696</ele>
        <time>2024-07-12T09:13:29.840Z</time>
      </trkpt>
      <trkpt lat="53.22164" lon="7.4967">
        <ele>46.546099</ele>
        <time>2024-07-12T09:13:32.865Z</time>
      </trkpt>
      <trkpt lat="53.22171" lon="7.49686">
        <ele>46.489374</ele>
        <time>2024-07-12T09:13:35.856Z</time>
      </trkpt>
      <trkpt lat="53.2218" lon="7.497">
        <ele>46.433639</ele>
        <time>2024-07-12T09:13:38.834Z</time>
      </trkpt>
      <trkpt lat="53.2219" lon="7.4971">
        <ele>46.377596</ele>
        <time>2024-07-12T09:13:41.854Z</time>
      </trkpt>
      <trkpt lat="53.22202" lon="7.4972">
        <ele>46.317533</ele>
        <time>2024-07-12T09:13:44.859Z</time>
      </trkpt>
      <trkpt lat="53.22213" lon="7.49729">
        <ele>46.256561</ele>
        <time>2024-07-12T09:13:47.826Z</time>
      </trkpt>
      <trkpt lat="53.22224" lon="7.49738">
        <ele>46.201776</ele>
        <time>2024-07-12T09:13:50.854Z</time>
      </trkpt>
      <trkpt lat="53.22233" lon="7.49749">
        <ele>46.148726</ele>
        <time>2024-07-12T09:13:53.848Z</time>
      </trkpt>
      <trkpt lat="53.22242" lon="7.49761">
        <ele>46.099571</ele>
        <time>2024-07-12T09:13:56.852Z</time>
      </trkpt>
      <trkpt lat="53.22251" lon="7.49776">
        <ele>46.048778</ele>
        <time>2024-07-12T09:13:59.849Z</time>
      </trkpt>
      <trkpt lat="53.22258" lon="7.49794">
        <ele>45.995577</ele>
        <time>2024-07-12T09:14:02.828Z</time>
      </trkpt>
      <trkpt lat="53.22268" lon="7.4981">
        <ele>45.940404</ele>
        <time>2024-07-12T09:14:05.847Z</time>
      </trkpt>
      <trkpt lat="53.22275" lon="7.4982">
        <ele>45.903594</ele>
        <time>2024-07-12T09:14:07.846Z</time>
      </trkpt>
      <trkpt lat="53.22283" lon="7.49827">
        <ele>45.866754</ele>
        <time>2024-07-12T09:14:09.857Z</time>
      </trkpt>
      <trkpt lat="53.22294" lon="7.49837">
        <ele>45.814583</ele>
        <time>2024-07-12T09:14:12.851Z</time>
      </trkpt>
      <trkpt lat="53.22302" lon="7.49845">
        <ele>45.775242</ele>
        <time>2024-07-12T09:14:14.846Z</time>
      </trkpt>
      <trkpt lat="53.2231" lon="7.49854">
        <ele>45.736601</ele>
        <time>2024-07-12T09:14:16.857Z</time>
      </trkpt>
      <trkpt lat="53.22318" lon="7.49862">
        <ele>45.698263</ele>
        <time>2024-07-12T09:14:18.860Z</time>
      </trkpt>
      <trkpt lat="53.22329" lon="7.49875">
        <ele>45.645468</ele>
        <time>2024-07-12T09:14:21.840Z</time>
      </trkpt>
      <trkpt lat="53.22339" lon="7.49889">
        <ele>45.592079</ele>
        <time>2024-07-12T09:14:24.846Z</time>
      </trkpt>
      <trkpt lat="53.22349" lon="7.49901">
        <ele>45.539002</ele>
        <time>2024-07-12T09:14:27.846Z</time>
      </trkpt>
      <trkpt lat="53.22357" lon="7.49909">
        <ele>45.502353</ele>
        <time>2024-07-12T09:14:29.865Z</time>
      </trkpt>
      <trkpt lat="53.22365" lon="7.49916">
        <ele>45.464784</ele>
        <time>2024-07-12T09:14:31.848Z</time>
      </trkpt>
      <trkpt lat="53.22377" lon="7.49926">
        <ele>45.410328</ele>
        <time>2024-07-12T09:14:34.862Z</time>
      </trkpt>
      <trkpt lat="53.22385" lon="7.49933">
        <ele>45.424386</ele>
        <time>2024-07-12T09:14:36.849Z</time>
      </trkpt>
      <trkpt lat="53.22394" lon="7.49938">
        <ele>45.450725</ele>
        <time>2024-07-12T09:14:38.823Z</time>
      </trkpt>
      <trkpt lat="53.22402" lon="7.49943">
        <ele>45.477452</ele>
        <time>2024-07-12T09:14:40.860Z</time>
      </trkpt>
      <trkpt lat="53.22414" lon="7.49952">
        <ele>45.516133</ele>
        <time>2024-07-12T09:14:43.845Z</time>
      </trkpt>
      <trkpt lat="53.22423" lon="7.49959">
        <ele>45.543454</ele>
        <time>2024-07-12T09:14:45.847Z</time>
      </trkpt>
      <trkpt lat="53.22434" lon="7.4997">
        <ele>45.582263</ele>
        <time>2024-07-12T09:14:48.863Z</time>
      </trkpt>
      <trkpt lat="53.22445" lon="7.49982">
        <ele>45.620287</ele>
        <time>2024-07-12T09:14:51.858Z</time>
      </trkpt>
      <trkpt lat="53.22455" lon="7.49995">
        <ele>45.657232</ele>
        <time>2024-07-12T09:14:54.849Z</time>
      </trkpt>
      <trkpt lat="53.22464" lon="7.50008">
        <ele>45.691703</ele>
        <time>2024-07-12T09:14:57.851Z</time>
      </trkpt>
      <trkpt lat="53.22473" lon="7.50021">
        <ele>45.728883</ele>
        <time>2024-07-12T09:15:00.861Z</time>
      </trkpt>
      <trkpt lat="53.22484" lon="7.50033">
        <ele>45.766722</ele>
        <time>2024-07-12T09:15:03.840Z</time>
      </trkpt>
      <trkpt lat="53.22495" lon="7.50044">
        <ele>45.804468</ele>
        <time>2024-07-12T09:15:06.850Z</time>
      </trkpt>
      <trkpt lat="53.22505" lon="7.50055">
        <ele>45.839914</ele>
        <time>2024-07-12T09:15:09.840Z</time>
      </trkpt>
      <trkpt lat="53.22515" lon="7.50066">
        <ele>45.87535</ele>
        <time>2024-07-12T09:15:12.848Z</time>
      </trkpt>
      <trkpt lat="53.22526" lon="7.50077">
        <ele>45.910453</ele>
        <time>2024-07-12T09:15:15.861Z</time>
      </trkpt>
      <trkpt lat="53.22536" lon="7.50088">
        <ele>45.955142</ele>
        <time>2024-07-12T09:15:18.852Z</time>
      </trkpt>
      <trkpt lat="53.22547" lon="7.50099">
        <ele>46.008699</ele>
        <time>2024-07-12T09:15:21.852Z</time>
      </trkpt>
      <trkpt lat="53.22557" lon="7.5011">
        <ele>46.062003</ele>
        <time>2024-07-12T09:15:24.841Z</time>
      </trkpt>
      <trkpt lat="53.22566" lon="7.50122">
        <ele>46.113734</ele>
        <time>2024-07-12T09:15:27.857Z</time>
      </trkpt>
      <trkpt lat="53.22575" lon="7.50135">
        <ele>46.165084</ele>
        <time>2024-07-12T09:15:30.841Z</time>
      </trkpt>
      <trkpt lat="53.22583" lon="7.50152">
        <ele>46.219818</ele>
        <time>2024-07-12T09:15:33.844Z</time>
      </trkpt>
      <trkpt lat="53.2259" lon="7.50169">
        <ele>46.274216</ele>
        <time>2024-07-12T09:15:36.826Z</time>
      </trkpt>
      <trkpt lat="53.22597" lon="7.50185">
        <ele>46.325119</ele>
        <time>2024-07-12T09:15:39.860Z</time>
      </trkpt>
      <trkpt lat="53.22602" lon="7.50204">
        <ele>46.378672</ele>
        <time>2024-07-12T09:15:42.833Z</time>
      </trkpt>
      <trkpt lat="53.22606" lon="7.50223">
        <ele>46.431167</ele>
        <time>2024-07-12T09:15:45.842Z</time>
      </trkpt>
      <trkpt lat="53.22611" lon="7.50242">
        <ele>46.485371</ele>
        <time>2024-07-12T09:15:48.853Z</time>
      </trkpt>
      <trkpt lat="53.22616" lon="7.50264">
        <ele>46.545034</ele>
        <time>2024-07-12T09:15:51.841Z</time>
      </trkpt>
      <trkpt lat="53.22619" lon="7.50279">
        <ele>46.586787</ele>
        <time>2024-07-12T09:15:53.843Z</time>
      </trkpt>
      <trkpt lat="53.22622" lon="7.50293">
        <ele>46.626537</ele>
        <time>2024-07-12T09:15:55.856Z</time>
      </trkpt>
      <trkpt lat="53.22625" lon="7.50315">
        <ele>46.68422</ele>
        <time>2024-07-12T09:15:58.861Z</time>
      </trkpt>
      <trkpt lat="53.22629" lon="7.50336">
        <ele>46.734855</ele>
        <time>2024-07-12T09:16:01.842Z</time>
      </trkpt>
      <trkpt lat="53.22632" lon="7.50356">
        <ele>46.779334</ele>
        <time>2024-07-12T09:16:04.851Z</time>
      </trkpt>
      <trkpt lat="53.22634" lon="7.50378">
        <ele>46.824744</ele>
        <time>2024-07-12T09:16:07.857Z</time>
      </trkpt>
      <trkpt lat="53.22636" lon="7.50399">
        <ele>46.870232</ele>
        <time>2024-07-12T09:16:10.861Z</time>
      </trkpt>
      <trkpt lat="53.22638" lon="7.5042">
        <ele>46.913747</ele>
        <time>2024-07-12T09:16:13.842Z</time>
      </trkpt>
      <trkpt lat="53.2264" lon="7.50435">
        <ele>46.945069</ele>
        <time>2024-07-12T09:16:15.857Z</time>
      </trkpt>
      <trkpt lat="53.22641" lon="7.50456">
        <ele>46.989944</ele>
        <time>2024-07-12T09:16:18.840Z</time>
      </trkpt>
      <trkpt lat="53.22643" lon="7.50477">
        <ele>47.034286</ele>
        <time>2024-07-12T09:16:21.828Z</time>
      </trkpt>
      <trkpt lat="53.22645" lon="7.50499">
        <ele>47.080273</ele>
        <time>2024-07-12T09:16:24.838Z</time>
      </trkpt>
      <trkpt lat="53.22647" lon="7.50514">
        <ele>47.112045</ele>
        <time>2024-07-12T09:16:26.853Z</time>
      </trkpt>
      <trkpt lat="53.22648" lon="7.50529">
        <ele>47.144099</ele>
        <time>2024-07-12T09:16:28.870Z</time>
      </trkpt>
      <trkpt lat="53.22649" lon="7.50546">
        <ele>47.179021</ele>
        <time>2024-07-12T09:16:30.841Z</time>
      </trkpt>
      <trkpt lat="53.2265" lon="7.50562">
        <ele>47.212237</ele>
        <time>2024-07-12T09:16:32.842Z</time>
      </trkpt>
      <trkpt lat="53.22651" lon="7.50577">
        <ele>47.244266</ele>
        <time>2024-07-12T09:16:34.853Z</time>
      </trkpt>
      <trkpt lat="53.22654" lon="7.50599">
        <ele>47.291516</ele>
        <time>2024-07-12T09:16:37.828Z</time>
      </trkpt>
      <trkpt lat="53.22656" lon="7.50615">
        <ele>47.324012</ele>
        <time>2024-07-12T09:16:39.861Z</time>
      </trkpt>
      <trkpt lat="53.22657" lon="7.5063">
        <ele>47.328287</ele>
        <time>2024-07-12T09:16:41.844Z</time>
      </trkpt>
      <trkpt lat="53.22658" lon="7.50652">
        <ele>47.30328</ele>
        <time>2024-07-12T09:16:44.850Z</time>
      </trkpt>
      <trkpt lat="53.2266" lon="7.50674">
        <ele>47.278373</ele>
        <time>2024-07-12T09:16:47.862Z</time>
      </trkpt>
      <trkpt lat="53.22662" lon="7.50689">
        <ele>47.261385</ele>
        <time>2024-07-12T09:16:49.846Z</time>
      </trkpt>
      <trkpt lat="53.22664" lon="7.50703">
        <ele>47.244327</ele>
        <time>2024-07-12T09:16:51.848Z</time>
      </trkpt>
      <trkpt lat="53.22665" lon="7.50718">
        <ele>47.227283</ele>
        <time>2024-07-12T09:16:53.857Z</time>
      </trkpt>
      <trkpt lat="53.22666" lon="7.50734">
        <ele>47.209176</ele>
        <time>2024-07-12T09:16:55.859Z</time>
      </trkpt>
      <trkpt lat="53.22667" lon="7.5075">
        <ele>47.191962</ele>
        <time>2024-07-12T09:16:57.841Z</time>
      </trkpt>
      <trkpt lat="53.22667" lon="7.50765">
        <ele>47.174306</ele>
        <time>2024-07-12T09:16:59.862Z</time>
      </trkpt>
      <trkpt lat="53.22668" lon="7.50781">
        <ele>47.156238</ele>
        <time>2024-07-12T09:17:01.859Z</time>
      </trkpt>
      <trkpt lat="53.22669" lon="7.50797">
        <ele>47.138393</ele>
        <time>2024-07-12T09:17:03.848Z</time>
      </trkpt>
      <trkpt lat="53.2267" lon="7.50813">
        <ele>47.120977</ele>
        <time>2024-07-12T09:17:05.855Z</time>
      </trkpt>
      <trkpt lat="53.22671" lon="7.50829">
        <ele>47.10228</ele>
        <time>2024-07-12T09:17:07.863Z</time>
      </trkpt>
      <trkpt lat="53.22671" lon="7.50846">
        <ele>47.083794</ele>
        <time>2024-07-12T09:17:09.853Z</time>
      </trkpt>
      <trkpt lat="53.22673" lon="7.50862">
        <ele>47.064808</ele>
        <time>2024-07-12T09:17:11.863Z</time>
      </trkpt>
      <trkpt lat="53.22674" lon="7.50878">
        <ele>47.046933</ele>
        <time>2024-07-12T09:17:13.843Z</time>
      </trkpt>
      <trkpt lat="53.22677" lon="7.50893">
        <ele>47.029523</ele>
        <time>2024-07-12T09:17:15.854Z</time>
      </trkpt>
      <trkpt lat="53.22678" lon="7.50909">
        <ele>47.010632</ele>
        <time>2024-07-12T09:17:17.837Z</time>
      </trkpt>
      <trkpt lat="53.2268" lon="7.50925">
        <ele>46.981804</ele>
        <time>2024-07-12T09:17:19.844Z</time>
      </trkpt>
      <trkpt lat="53.22682" lon="7.5094">
        <ele>46.939376</ele>
        <time>2024-07-12T09:17:21.861Z</time>
      </trkpt>
      <trkpt lat="53.22684" lon="7.50955">
        <ele>46.896654</ele>
        <time>2024-07-12T09:17:23.847Z</time>
      </trkpt>
      <trkpt lat="53.22686" lon="7.50971">
        <ele>46.852745</ele>
        <time>2024-07-12T09:17:25.852Z</time>
      </trkpt>
      <trkpt lat="53.22688" lon="7.50985">
        <ele>46.811133</ele>
        <time>2024-07-12T09:17:27.865Z</time>
      </trkpt>
      <trkpt lat="53.22691" lon="7.51007">
        <ele>46.748883</ele>
        <time>2024-07-12T09:17:30.843Z</time>
      </trkpt>
      <trkpt lat="53.22695" lon="7.51029">
        <ele>46.686742</ele>
        <time>2024-07-12T09:17:33.856Z</time>
      </trkpt>
      <trkpt lat="53.22697" lon="7.51044">
        <ele>46.644829</ele>
        <time>2024-07-12T09:17:35.848Z</time>
      </trkpt>
      <trkpt lat="53.22698" lon="7.51058">
        <ele>46.6032</ele>
        <time>2024-07-12T09:17:37.844Z</time>
      </trkpt>
      <trkpt lat="53.227" lon="7.51073">
        <ele>46.561222</ele>
        <time>2024-07-12T09:17:39.860Z</time>
      </trkpt>
      <trkpt lat="53.22702" lon="7.51089">
        <ele>46.517874</ele>
        <time>2024-07-12T09:17:41.861Z</time>
      </trkpt>
      <trkpt lat="53.22701" lon="7.5111">
        <ele>46.457302</ele>
        <time>2024-07-12T09:17:44.837Z</time>
      </trkpt>
      <trkpt lat="53.22698" lon="7.51126">
        <ele>46.412266</ele>
        <time>2024-07-12T09:17:46.831Z</time>
      </trkpt>
      <trkpt lat="53.22694" lon="7.5114">
        <ele>46.368793</ele>
        <time>2024-07-12T09:17:48.833Z</time>
      </trkpt>
      <trkpt lat="53.22685" lon="7.51156">
        <ele>46.309364</ele>
        <time>2024-07-12T09:17:51.861Z</time>
      </trkpt>
      <trkpt lat="53.22677" lon="7.51165">
        <ele>46.264836</ele>
        <time>2024-07-12T09:17:53.848Z</time>
      </trkpt>
      <trkpt lat="53.22665" lon="7.51174">
        <ele>46.202627</ele>
        <time>2024-07-12T09:17:56.838Z</time>
      </trkpt>
      <trkpt lat="53.22657" lon="7.5118">
        <ele>46.164898</ele>
        <time>2024-07-12T09:17:58.844Z</time>
      </trkpt>
      <trkpt lat="53.22645" lon="7.5119">
        <ele>46.147731</ele>
        <time>2024-07-12T09:18:01.848Z</time>
      </trkpt>
      <trkpt lat="53.22636" lon="7.51195">
        <ele>46.136108</ele>
        <time>2024-07-12T09:18:03.854Z</time>
      </trkpt>
      <trkpt lat="53.22624" lon="7.51205">
        <ele>46.118755</ele>
        <time>2024-07-12T09:18:06.860Z</time>
      </trkpt>
      <trkpt lat="53.22615" lon="7.51211">
        <ele>46.106629</ele>
        <time>2024-07-12T09:18:08.856Z</time>
      </trkpt>
      <trkpt lat="53.22607" lon="7.51218">
        <ele>46.094764</ele>
        <time>2024-07-12T09:18:10.857Z</time>
      </trkpt>
      <trkpt lat="53.22599" lon="7.51225">
        <ele>46.082684</ele>
        <time>2024-07-12T09:18:12.840Z</time>
      </trkpt>
      <trkpt lat="53.22587" lon="7.51234">
        <ele>46.065766</ele>
        <time>2024-07-12T09:18:15.849Z</time>
      </trkpt>
      <trkpt lat="53.22578" lon="7.5124">
        <ele>46.053846</ele>
        <time>2024-07-12T09:18:17.842Z</time>
      </trkpt>
      <trkpt lat="53.22566" lon="7.51249">
        <ele>46.036264</ele>
        <time>2024-07-12T09:18:20.847Z</time>
      </trkpt>
      <trkpt lat="53.22558" lon="7.51256">
        <ele>46.024763</ele>
        <time>2024-07-12T09:18:22.859Z</time>
      </trkpt>
      <trkpt lat="53.22549" lon="7.51263">
        <ele>46.012707</ele>
        <time>2024-07-12T09:18:24.840Z</time>
      </trkpt>
      <trkpt lat="53.22541" lon="7.51269">
        <ele>46.000756</ele>
        <time>2024-07-12T09:18:26.861Z</time>
      </trkpt>
      <trkpt lat="53.22529" lon="7.51278">
        <ele>45.983796</ele>
        <time>2024-07-12T09:18:29.839Z</time>
      </trkpt>
      <trkpt lat="53.2252" lon="7.51283">
        <ele>45.971841</ele>
        <time>2024-07-12T09:18:31.833Z</time>
      </trkpt>
      <trkpt lat="53.22512" lon="7.51289">
        <ele>45.960159</ele>
        <time>2024-07-12T09:18:33.831Z</time>
      </trkpt>
      <trkpt lat="53.22499" lon="7.51298">
        <ele>45.942807</ele>
        <time>2024-07-12T09:18:36.827Z</time>
      </trkpt>
      <trkpt lat="53.2249" lon="7.51305">
        <ele>45.920244</ele>
        <time>2024-07-12T09:18:38.834Z</time>
      </trkpt>
      <trkpt lat="53.22482" lon="7.51312">
        <ele>45.884454</ele>
        <time>2024-07-12T09:18:40.834Z</time>
      </trkpt>
      <trkpt lat="53.22473" lon="7.51319">
        <ele>45.847543</ele>
        <time>2024-07-12T09:18:42.833Z</time>
      </trkpt>
      <trkpt lat="53.22464" lon="7.51326">
        <ele>45.810135</ele>
        <time>2024-07-12T09:18:44.826Z</time>
      </trkpt>
      <trkpt lat="53.22456" lon="7.51332">
        <ele>45.774294</ele>
        <time>2024-07-12T09:18:46.824Z</time>
      </trkpt>
      <trkpt lat="53.22447" lon="7.51338">
        <ele>45.739607</ele>
        <time>2024-07-12T09:18:48.837Z</time>
      </trkpt>
      <trkpt lat="53.22438" lon="7.51345">
        <ele>45.703574</ele>
        <time>2024-07-12T09:18:50.854Z</time>
      </trkpt>
      <trkpt lat="53.2243" lon="7.51352">
        <ele>45.66695</ele>
        <time>2024-07-12T09:18:52.842Z</time>
      </trkpt>
      <trkpt lat="53.22421" lon="7.51357">
        <ele>45.632076</ele>
        <time>2024-07-12T09:18:54.853Z</time>
      </trkpt>
      <trkpt lat="53.22412" lon="7.51364">
        <ele>45.594627</ele>
        <time>2024-07-12T09:18:56.820Z</time>
      </trkpt>
      <trkpt lat="53.22403" lon="7.51371">
        <ele>45.557146</ele>
        <time>2024-07-12T09:18:58.839Z</time>
      </trkpt>
      <trkpt lat="53.22394" lon="7.51377">
        <ele>45.521502</ele>
        <time>2024-07-12T09:19:00.860Z</time>
      </trkpt>
      <trkpt lat="53.22385" lon="7.51384">
        <ele>45.483513</ele>
        <time>2024-07-12T09:19:02.838Z</time>
      </trkpt>
      <trkpt lat="53.22377" lon="7.51391">
        <ele>45.447284</ele>
        <time>2024-07-12T09:19:04.844Z</time>
      </trkpt>
      <trkpt lat="53.22368" lon="7.51398">
        <ele>45.412472</ele>
        <time>2024-07-12T09:19:06.850Z</time>
      </trkpt>
      <trkpt lat="53.2236" lon="7.51405">
        <ele>45.375185</ele>
        <time>2024-07-12T09:19:08.844Z</time>
      </trkpt>
      <trkpt lat="53.22351" lon="7.51413">
        <ele>45.337907</ele>
        <time>2024-07-12T09:19:10.852Z</time>
      </trkpt>
      <trkpt lat="53.22342" lon="7.51421">
        <ele>45.300514</ele>
        <time>2024-07-12T09:19:12.838Z</time>
      </trkpt>
      <trkpt lat="53.22334" lon="7.5143">
        <ele>45.262458</ele>
        <time>2024-07-12T09:19:14.843Z</time>
      </trkpt>
      <trkpt lat="53.22325" lon="7.51438">
        <ele>45.286382</ele>
        <time>2024-07-12T09:19:16.851Z</time>
      </trkpt>
      <trkpt lat="53.22318" lon="7.51446">
        <ele>45.32375</ele>
        <time>2024-07-12T09:19:18.849Z</time>
      </trkpt>
      <trkpt lat="53.22309" lon="7.51455">
        <ele>45.365148</ele>
        <time>2024-07-12T09:19:20.847Z</time>
      </trkpt>
      <trkpt lat="53.22301" lon="7.51464">
        <ele>45.406565</ele>
        <time>2024-07-12T09:19:22.834Z</time>
      </trkpt>
      <trkpt lat="53.22293" lon="7.51473">
        <ele>45.445377</ele>
        <time>2024-07-12T09:19:24.853Z</time>
      </trkpt>
      <trkpt lat="53.22285" lon="7.51481">
        <ele>45.485812</ele>
        <time>2024-07-12T09:19:26.849Z</time>
      </trkpt>
      <trkpt lat="53.22277" lon="7.5149">
        <ele>45.525649</ele>
        <time>2024-07-12T09:19:28.857Z</time>
      </trkpt>
      <trkpt lat="53.22269" lon="7.51499">
        <ele>45.564808</ele>
        <time>2024-07-12T09:19:30.844Z</time>
      </trkpt>
      <trkpt lat="53.22261" lon="7.51508">
        <ele>45.603094</ele>
        <time>2024-07-12T09:19:32.856Z</time>
      </trkpt>
      <trkpt lat="53.22253" lon="7.51516">
        <ele>45.642254</ele>
        <time>2024-07-12T09:19:34.850Z</time>
      </trkpt>
      <trkpt lat="53.22245" lon="7.51526">
        <ele>45.683193</ele>
        <time>2024-07-12T09:19:36.851Z</time>
      </trkpt>
      <trkpt lat="53.22237" lon="7.51535">
        <ele>45.722207</ele>
        <time>2024-07-12T09:19:38.835Z</time>
      </trkpt>
      <trkpt lat="53.2223" lon="7.51544">
        <ele>45.760121</ele>
        <time>2024-07-12T09:19:40.870Z</time>
      </trkpt>
      <trkpt lat="53.22222" lon="7.51553">
        <ele>45.798378</ele>
        <time>2024-07-12T09:19:42.841Z</time>
      </trkpt>
      <trkpt lat="53.22215" lon="7.51561">
        <ele>45.836376</ele>
        <time>2024-07-12T09:19:44.856Z</time>
      </trkpt>
      <trkpt lat="53.22207" lon="7.51571">
        <ele>45.876688</ele>
        <time>2024-07-12T09:19:46.853Z</time>
      </trkpt>
      <trkpt lat="53.22199" lon="7.51581">
        <ele>45.915746</ele>
        <time>2024-07-12T09:19:48.866Z</time>
      </trkpt>
      <trkpt lat="53.22191" lon="7.51589">
        <ele>45.954828</ele>
        <time>2024-07-12T09:19:50.844Z</time>
      </trkpt>
      <trkpt lat="53.22184" lon="7.51599">
        <ele>45.994482</ele>
        <time>2024-07-12T09:19:52.848Z</time>
      </trkpt>
      <trkpt lat="53.22176" lon="7.51608">
        <ele>45.997424</ele>
        <time>2024-07-12T09:19:54.846Z</time>
      </trkpt>
      <trkpt lat="53.22168" lon="7.51616">
        <ele>45.997562</ele>
        <time>2024-07-12T09:19:56.846Z</time>
      </trkpt>
      <trkpt lat="53.22158" lon="7.5163">
        <ele>45.997762</ele>
        <time>2024-07-12T09:19:59.846Z</time>
      </trkpt>
      <trkpt lat="53.22151" lon="7.51639">
        <ele>45.997901</ele>
        <time>2024-07-12T09:20:01.851Z</time>
      </trkpt>
      <trkpt lat="53.22143" lon="7.51649">
        <ele>45.99804</ele>
        <time>2024-07-12T09:20:03.852Z</time>
      </trkpt>
      <trkpt lat="53.22133" lon="7.51663">
        <ele>45.998243</ele>
        <time>2024-07-12T09:20:06.871Z</time>
      </trkpt>
      <trkpt lat="53.22125" lon="7.51673">
        <ele>45.998388</ele>
        <time>2024-07-12T09:20:08.847Z</time>
      </trkpt>
      <trkpt lat="53.22117" lon="7.51682">
        <ele>45.998532</ele>
        <time>2024-07-12T09:20:10.861Z</time>
      </trkpt>
      <trkpt lat="53.2211" lon="7.51691">
        <ele>45.99867</ele>
        <time>2024-07-12T09:20:12.823Z</time>
      </trkpt>
      <trkpt lat="53.22102" lon="7.51701">
        <ele>45.998813</ele>
        <time>2024-07-12T09:20:14.861Z</time>
      </trkpt>
      <trkpt lat="53.22095" lon="7.5171">
        <ele>45.998953</ele>
        <time>2024-07-12T09:20:16.849Z</time>
      </trkpt>
      <trkpt lat="53.22088" lon="7.5172">
        <ele>45.999091</ele>
        <time>2024-07-12T09:20:18.859Z</time>
      </trkpt>
      <trkpt lat="53.22077" lon="7.51734">
        <ele>45.999297</ele>
        <time>2024-07-12T09:20:21.853Z</time>
      </trkpt>
      <trkpt lat="53.22066" lon="7.51747">
        <ele>45.999496</ele>
        <time>2024-07-12T09:20:24.847Z</time>
      </trkpt>
      <trkpt lat="53.2206" lon="7.51757">
        <ele>45.999634</ele>
        <time>2024-07-12T09:20:26.869Z</time>
      </trkpt>
      <trkpt lat="53.2205" lon="7.51771">
        <ele>45.999824</ele>
        <time>2024-07-12T09:20:29.841Z</time>
      </trkpt>
      <trkpt lat="53.22039" lon="7.51783">
        <ele>45.997845</ele>
        <time>2024-07-12T09:20:32.840Z</time>
      </trkpt>
      <trkpt lat="53.22029" lon="7.51796">
        <ele>45.976887</ele>
        <time>2024-07-12T09:20:35.852Z</time>
      </trkpt>
      <trkpt lat="53.22019" lon="7.51807">
        <ele>45.955436</ele>
        <time>2024-07-12T09:20:38.860Z</time>
      </trkpt>
      <trkpt lat="53.22007" lon="7.51818">
        <ele>45.932897</ele>
        <time>2024-07-12T09:20:41.868Z</time>
      </trkpt>
      <trkpt lat="53.21996" lon="7.51828">
        <ele>45.91104</ele>
        <time>2024-07-12T09:20:44.842Z</time>
      </trkpt>
      <trkpt lat="53.21984" lon="7.51839">
        <ele>45.887605</ele>
        <time>2024-07-12T09:20:47.845Z</time>
      </trkpt>
      <trkpt lat="53.21975" lon="7.51846">
        <ele>45.871369</ele>
        <time>2024-07-12T09:20:49.827Z</time>
      </trkpt>
      <trkpt lat="53.21967" lon="7.51853">
        <ele>45.855741</ele>
        <time>2024-07-12T09:20:51.847Z</time>
      </trkpt>
      <trkpt lat="53.2196" lon="7.51861">
        <ele>45.839886</ele>
        <time>2024-07-12T09:20:53.847Z</time>
      </trkpt>
      <trkpt lat="53.21952" lon="7.51871">
        <ele>45.82379</ele>
        <time>2024-07-12T09:20:55.840Z</time>
      </trkpt>
      <trkpt lat="53.21944" lon="7.5188">
        <ele>45.80719</ele>
        <time>2024-07-12T09:20:57.830Z</time>
      </trkpt>
      <trkpt lat="53.21937" lon="7.51891">
        <ele>45.790077</ele>
        <time>2024-07-12T09:20:59.848Z</time>
      </trkpt>
      <trkpt lat="53.2193" lon="7.51902">
        <ele>45.774072</ele>
        <time>2024-07-12T09:21:01.844Z</time>
      </trkpt>
      <trkpt lat="53.21923" lon="7.51912">
        <ele>45.758525</ele>
        <time>2024-07-12T09:21:03.848Z</time>
      </trkpt>
      <trkpt lat="53.21916" lon="7.51923">
        <ele>45.74254</ele>
        <time>2024-07-12T09:21:05.834Z</time>
      </trkpt>
      <trkpt lat="53.21907" lon="7.51938">
        <ele>45.720647</ele>
        <time>2024-07-12T09:21:08.844Z</time>
      </trkpt>
      <trkpt lat="53.21898" lon="7.51953">
        <ele>45.698577</ele>
        <time>2024-07-12T09:21:11.843Z</time>
      </trkpt>
      <trkpt lat="53.21889" lon="7.51969">
        <ele>45.702597</ele>
        <time>2024-07-12T09:21:14.858Z</time>
      </trkpt>
      <trkpt lat="53.21881" lon="7.51984">
        <ele>45.715569</ele>
        <time>2024-07-12T09:21:17.842Z</time>
      </trkpt>
      <trkpt lat="53.21875" lon="7.51996">
        <ele>45.725066</ele>
        <time>2024-07-12T09:21:19.847Z</time>
      </trkpt>
      <trkpt lat="53.21868" lon="7.52012">
        <ele>45.738279</ele>
        <time>2024-07-12T09:21:22.825Z</time>
      </trkpt>
      <trkpt lat="53.21861" lon="7.52023">
        <ele>45.747935</ele>
        <time>2024-07-12T09:21:24.851Z</time>
      </trkpt>
      <trkpt lat="53.21855" lon="7.52036">
        <ele>45.758652</ele>
        <time>2024-07-12T09:21:26.848Z</time>
      </trkpt>
      <trkpt lat="53.21848" lon="7.52049">
        <ele>45.769205</ele>
        <time>2024-07-12T09:21:28.869Z</time>
      </trkpt>
      <trkpt lat="53.21842" lon="7.52062">
        <ele>45.780155</ele>
        <time>2024-07-12T09:21:30.862Z</time>
      </trkpt>
      <trkpt lat="53.21835" lon="7.52075">
        <ele>45.791017</ele>
        <time>2024-07-12T09:21:32.859Z</time>
      </trkpt>
      <trkpt lat="53.21828" lon="7.52089">
        <ele>45.802372</ele>
        <time>2024-07-12T09:21:34.856Z</time>
      </trkpt>
      <trkpt lat="53.21821" lon="7.52102">
        <ele>45.813368</ele>
        <time>2024-07-12T09:21:36.850Z</time>
      </trkpt>
      <trkpt lat="53.21814" lon="7.52116">
        <ele>45.824695</ele>
        <time>2024-07-12T09:21:38.838Z</time>
      </trkpt>
      <trkpt lat="53.21807" lon="7.52129">
        <ele>45.836067</ele>
        <time>2024-07-12T09:21:40.836Z</time>
      </trkpt>
      <trkpt lat="53.21799" lon="7.52143">
        <ele>45.848183</ele>
        <time>2024-07-12T09:21:42.843Z</time>
      </trkpt>
      <trkpt lat="53.2179" lon="7.52154">
        <ele>45.859681</ele>
        <time>2024-07-12T09:21:44.830Z</time>
      </trkpt>
      <trkpt lat="53.21782" lon="7.52166">
        <ele>45.871016</ele>
        <time>2024-07-12T09:21:46.848Z</time>
      </trkpt>
      <trkpt lat="53.21774" lon="7.52175">
        <ele>45.88151</ele>
        <time>2024-07-12T09:21:48.834Z</time>
      </trkpt>
      <trkpt lat="53.21765" lon="7.52184">
        <ele>45.883385</ele>
        <time>2024-07-12T09:21:50.840Z</time>
      </trkpt>
      <trkpt lat="53.21757" lon="7.52194">
        <ele>45.884431</ele>
        <time>2024-07-12T09:21:52.842Z</time>
      </trkpt>
      <trkpt lat="53.21748" lon="7.52203">
        <ele>45.885446</ele>
        <time>2024-07-12T09:21:54.848Z</time>
      </trkpt>
      <trkpt lat="53.2174" lon="7.52211">
        <ele>45.886468</ele>
        <time>2024-07-12T09:21:56.850Z</time>
      </trkpt>
      <trkpt lat="53.21731" lon="7.52219">
        <ele>45.887464</ele>
        <time>2024-07-12T09:21:58.844Z</time>
      </trkpt>
      <trkpt lat="53.21722" lon="7.52227">
        <ele>45.888471</ele>
        <time>2024-07-12T09:22:00.858Z</time>
      </trkpt>
      <trkpt lat="53.21713" lon="7.52235">
        <ele>45.889535</ele>
        <time>2024-07-12T09:22:02.847Z</time>
      </trkpt>
      <trkpt lat="53.21704" lon="7.52243">
        <ele>45.890574</ele>
        <time>2024-07-12T09:22:04.839Z</time>
      </trkpt>
      <trkpt lat="53.21694" lon="7.52249">
        <ele>45.891631</ele>
        <time>2024-07-12T09:22:06.847Z</time>
      </trkpt>
      <trkpt lat="53.21685" lon="7.52255">
        <ele>45.892662</ele>
        <time>2024-07-12T09:22:08.858Z</time>
      </trkpt>
      <trkpt lat="53.21675" lon="7.5226">
        <ele>45.893705</ele>
        <time>2024-07-12T09:22:10.852Z</time>
      </trkpt>
      <trkpt lat="53.21665" lon="7.52264">
        <ele>45.894763</ele>
        <time>2024-07-12T09:22:12.839Z</time>
      </trkpt>
      <trkpt lat="53.21654" lon="7.52267">
        <ele>45.895816</ele>
        <time>2024-07-12T09:22:14.856Z</time>
      </trkpt>
      <trkpt lat="53.21644" lon="7.5227">
        <ele>45.896878</ele>
        <time>2024-07-12T09:22:16.855Z</time>
      </trkpt>
      <trkpt lat="53.21634" lon="7.52273">
        <ele>45.897918</ele>
        <time>2024-07-12T09:22:18.861Z</time>
      </trkpt>
      <trkpt lat="53.21624" lon="7.52276">
        <ele>45.898968</ele>
        <time>2024-07-12T09:22:20.850Z</time>
      </trkpt>
      <trkpt lat="53.21614" lon="7.52279">
        <ele>45.900027</ele>
        <time>2024-07-12T09:22:22.858Z</time>
      </trkpt>
      <trkpt lat="53.21603" lon="7.52282">
        <ele>45.906629</ele>
        <time>2024-07-12T09:22:24.856Z</time>
      </trkpt>
      <trkpt lat="53.21593" lon="7.52283">
        <ele>45.924128</ele>
        <time>2024-07-12T09:22:26.848Z</time>
      </trkpt>
      <trkpt lat="53.21582" lon="7.52286">
        <ele>45.941394</ele>
        <time>2024-07-12T09:22:28.863Z</time>
      </trkpt>
      <trkpt lat="53.21572" lon="7.52289">
        <ele>45.958628</ele>
        <time>2024-07-12T09:22:30.846Z</time>
      </trkpt>
      <trkpt lat="53.21562" lon="7.52293">
        <ele>45.975846</ele>
        <time>2024-07-12T09:22:32.857Z</time>
      </trkpt>
      <trkpt lat="53.21552" lon="7.52298">
        <ele>45.993207</ele>
        <time>2024-07-12T09:22:34.828Z</time>
      </trkpt>
      <trkpt lat="53.21542" lon="7.52304">
        <ele>46.010002</ele>
        <time>2024-07-12T09:22:36.838Z</time>
      </trkpt>
      <trkpt lat="53.21533" lon="7.52313">
        <ele>46.026753</ele>
        <time>2024-07-12T09:22:38.831Z</time>
      </trkpt>
      <trkpt lat="53.21524" lon="7.52321">
        <ele>46.043792</ele>
        <time>2024-07-12T09:22:40.861Z</time>
      </trkpt>
      <trkpt lat="53.21516" lon="7.52329">
        <ele>46.059923</ele>
        <time>2024-07-12T09:22:42.837Z</time>
      </trkpt>
      <trkpt lat="53.21508" lon="7.52337">
        <ele>46.075105</ele>
        <time>2024-07-12T09:22:44.873Z</time>
      </trkpt>
      <trkpt lat="53.215" lon="7.52347">
        <ele>46.090705</ele>
        <time>2024-07-12T09:22:46.871Z</time>
      </trkpt>
      <trkpt lat="53.21493" lon="7.52355">
        <ele>46.105442</ele>
        <time>2024-07-12T09:22:48.859Z</time>
      </trkpt>
      <trkpt lat="53.21483" lon="7.52368">
        <ele>46.12591</ele>
        <time>2024-07-12T09:22:51.864Z</time>
      </trkpt>
      <trkpt lat="53.21475" lon="7.52379">
        <ele>46.143695</ele>
        <time>2024-07-12T09:22:54.851Z</time>
      </trkpt>
      <trkpt lat="53.21466" lon="7.52393">
        <ele>46.163533</ele>
        <time>2024-07-12T09:22:57.850Z</time>
      </trkpt>
      <trkpt lat="53.21457" lon="7.52409">
        <ele>46.184849</ele>
        <time>2024-07-12T09:23:00.864Z</time>
      </trkpt>
      <trkpt lat="53.21449" lon="7.52426">
        <ele>46.25299</ele>
        <time>2024-07-12T09:23:03.836Z</time>
      </trkpt>
      <trkpt lat="53.21441" lon="7.52443">
        <ele>46.371166</ele>
        <time>2024-07-12T09:23:06.859Z</time>
      </trkpt>
      <trkpt lat="53.21435" lon="7.52457">
        <ele>46.456864</ele>
        <time>2024-07-12T09:23:08.871Z</time>
      </trkpt>
      <trkpt lat="53.21431" lon="7.5247">
        <ele>46.54014</ele>
        <time>2024-07-12T09:23:10.846Z</time>
      </trkpt>
      <trkpt lat="53.21426" lon="7.52484">
        <ele>46.629899</ele>
        <time>2024-07-12T09:23:12.852Z</time>
      </trkpt>
      <trkpt lat="53.21421" lon="7.52499">
        <ele>46.71965</ele>
        <time>2024-07-12T09:23:14.851Z</time>
      </trkpt>
      <trkpt lat="53.21416" lon="7.52513">
        <ele>46.807612</ele>
        <time>2024-07-12T09:23:16.849Z</time>
      </trkpt>
      <trkpt lat="53.21411" lon="7.52527">
        <ele>46.893768</ele>
        <time>2024-07-12T09:23:18.860Z</time>
      </trkpt>
      <trkpt lat="53.21407" lon="7.52542">
        <ele>46.981597</ele>
        <time>2024-07-12T09:23:20.850Z</time>
      </trkpt>
      <trkpt lat="53.21404" lon="7.52556">
        <ele>47.063916</ele>
        <time>2024-07-12T09:23:22.844Z</time>
      </trkpt>
      <trkpt lat="53.21402" lon="7.52571">
        <ele>47.148526</ele>
        <time>2024-07-12T09:23:24.823Z</time>
      </trkpt>
      <trkpt lat="53.21401" lon="7.52588">
        <ele>47.236882</ele>
        <time>2024-07-12T09:23:26.851Z</time>
      </trkpt>
      <trkpt lat="53.214" lon="7.52604">
        <ele>47.324799</ele>
        <time>2024-07-12T09:23:28.855Z</time>
      </trkpt>
      <trkpt lat="53.21399" lon="7.5262">
        <ele>47.411595</ele>
        <time>2024-07-12T09:23:30.872Z</time>
      </trkpt>
      <trkpt lat="53.21397" lon="7.52642">
        <ele>47.534124</ele>
        <time>2024-07-12T09:23:33.844Z</time>
      </trkpt>
      <trkpt lat="53.21394" lon="7.52664">
        <ele>47.654743</ele>
        <time>2024-07-12T09:23:36.870Z</time>
      </trkpt>
      <trkpt lat="53.21391" lon="7.52679">
        <ele>47.737411</ele>
        <time>2024-07-12T09:23:38.851Z</time>
      </trkpt>
      <trkpt lat="53.21388" lon="7.52694">
        <ele>47.818812</ele>
        <time>2024-07-12T09:23:40.857Z</time>
      </trkpt>
      <trkpt lat="53.21382" lon="7.52713">
        <ele>47.878897</ele>
        <time>2024-07-12T09:23:43.861Z</time>
      </trkpt>
      <trkpt lat="53.21375" lon="7.52732">
        <ele>47.940153</ele>
        <time>2024-07-12T09:23:46.849Z</time>
      </trkpt>
      <trkpt lat="53.21366" lon="7.52748">
        <ele>47.998808</ele>
        <time>2024-07-12T09:23:49.853Z</time>
      </trkpt>
      <trkpt lat="53.21357" lon="7.52763">
        <ele>48.057116</ele>
        <time>2024-07-12T09:23:52.830Z</time>
      </trkpt>
      <trkpt lat="53.21348" lon="7.52777">
        <ele>48.115202</ele>
        <time>2024-07-12T09:23:55.850Z</time>
      </trkpt>
      <trkpt lat="53.21338" lon="7.52792">
        <ele>48.176928</ele>
        <time>2024-07-12T09:23:58.844Z</time>
      </trkpt>
      <trkpt lat="53.2133" lon="7.52802">
        <ele>48.219356</ele>
        <time>2024-07-12T09:24:00.851Z</time>
      </trkpt>
      <trkpt lat="53.21324" lon="7.52813">
        <ele>48.26185</ele>
        <time>2024-07-12T09:24:02.846Z</time>
      </trkpt>
      <trkpt lat="53.21314" lon="7.52828">
        <ele>48.323805</ele>
        <time>2024-07-12T09:24:05.840Z</time>
      </trkpt>
      <trkpt lat="53.21307" lon="7.52838">
        <ele>48.366112</ele>
        <time>2024-07-12T09:24:07.858Z</time>
      </trkpt>
      <trkpt lat="53.21301" lon="7.5285">
        <ele>48.409562</ele>
        <time>2024-07-12T09:24:09.858Z</time>
      </trkpt>
      <trkpt lat="53.21301" lon="7.52873">
        <ele>48.471172</ele>
        <time>2024-07-12T09:24:12.851Z</time>
      </trkpt>
      <trkpt lat="53.21308" lon="7.52887">
        <ele>48.5227</ele>
        <time>2024-07-12T09:24:15.837Z</time>
      </trkpt>
      <trkpt lat="53.21315" lon="7.52899">
        <ele>48.567498</ele>
        <time>2024-07-12T09:24:18.848Z</time>
      </trkpt>
      <trkpt lat="53.2132" lon="7.52912">
        <ele>48.6091</ele>
        <time>2024-07-12T09:24:21.856Z</time>
      </trkpt>
      <trkpt lat="53.21326" lon="7.52923">
        <ele>48.639223</ele>
        <time>2024-07-12T09:24:24.866Z</time>
      </trkpt>
      <trkpt lat="53.21334" lon="7.52938">
        <ele>48.645473</ele>
        <time>2024-07-12T09:24:28.863Z</time>
      </trkpt>
      <trkpt lat="53.2134" lon="7.52951">
        <ele>48.651123</ele>
        <time>2024-07-12T09:24:32.843Z</time>
      </trkpt>
      <trkpt lat="53.21347" lon="7.52965">
        <ele>48.657119</ele>
        <time>2024-07-12T09:24:37.836Z</time>
      </trkpt>
      <trkpt lat="53.21353" lon="7.52977">
        <ele>48.662186</ele>
        <time>2024-07-12T09:24:41.848Z</time>
      </trkpt>
      <trkpt lat="53.21359" lon="7.52991">
        <ele>48.667786</ele>
        <time>2024-07-12T09:24:44.827Z</time>
      </trkpt>
      <trkpt lat="53.21364" lon="7.53008">
        <ele>48.674092</ele>
        <time>2024-07-12T09:24:46.865Z</time>
      </trkpt>
      <trkpt lat="53.21366" lon="7.53028">
        <ele>48.681045</ele>
        <time>2024-07-12T09:24:48.843Z</time>
      </trkpt>
      <trkpt lat="53.21368" lon="7.53049">
        <ele>48.687731</ele>
        <time>2024-07-12T09:24:50.841Z</time>
      </trkpt>
      <trkpt lat="53.21368" lon="7.53066">
        <ele>48.693532</ele>
        <time>2024-07-12T09:24:52.850Z</time>
      </trkpt>
      <trkpt lat="53.21367" lon="7.53082">
        <ele>48.698778</ele>
        <time>2024-07-12T09:24:56.842Z</time>
      </trkpt>
      <trkpt lat="53.21367" lon="7.531">
        <ele>48.704678</ele>
        <time>2024-07-12T09:28:00.829Z</time>
      </trkpt>
      <trkpt lat="53.21368" lon="7.53118">
        <ele>48.710517</ele>
        <time>2024-07-12T09:28:04.845Z</time>
      </trkpt>
      <trkpt lat="53.21368" lon="7.53133">
        <ele>48.715626</ele>
        <time>2024-07-12T09:28:07.843Z</time>
      </trkpt>
      <trkpt lat="53.21369" lon="7.5315">
        <ele>48.72121</ele>
        <time>2024-07-12T09:28:10.847Z</time>
      </trkpt>
      <trkpt lat="53.2137" lon="7.53166">
        <ele>48.726573</ele>
        <time>2024-07-12T09:28:13.831Z</time>
      </trkpt>
      <trkpt lat="53.21371" lon="7.53185">
        <ele>48.732897</ele>
        <time>2024-07-12T09:28:17.865Z</time>
      </trkpt>
      <trkpt lat="53.21372" lon="7.53201">
        <ele>48.714256</ele>
        <time>2024-07-12T09:28:20.853Z</time>
      </trkpt>
      <trkpt lat="53.21373" lon="7.53219">
        <ele>48.631815</ele>
        <time>2024-07-12T09:28:23.847Z</time>
      </trkpt>
      <trkpt lat="53.21372" lon="7.5324">
        <ele>48.536529</ele>
        <time>2024-07-12T09:28:26.847Z</time>
      </trkpt>
      <trkpt lat="53.21373" lon="7.53261">
        <ele>48.438489</ele>
        <time>2024-07-12T09:28:29.847Z</time>
      </trkpt>
      <trkpt lat="53.21374" lon="7.53281">
        <ele>48.346367</ele>
        <time>2024-07-12T09:28:32.830Z</time>
      </trkpt>
      <trkpt lat="53.21374" lon="7.53301">
        <ele>48.253068</ele>
        <time>2024-07-12T09:28:35.855Z</time>
      </trkpt>
      <trkpt lat="53.21375" lon="7.53319">
        <ele>48.169072</ele>
        <time>2024-07-12T09:28:38.835Z</time>
      </trkpt>
      <trkpt lat="53.21376" lon="7.53336">
        <ele>48.091095</ele>
        <time>2024-07-12T09:28:41.858Z</time>
      </trkpt>
      <trkpt lat="53.21377" lon="7.53354">
        <ele>48.010523</ele>
        <time>2024-07-12T09:28:44.861Z</time>
      </trkpt>
      <trkpt lat="53.21378" lon="7.5337">
        <ele>47.936734</ele>
        <time>2024-07-12T09:28:47.873Z</time>
      </trkpt>
      <trkpt lat="53.21379" lon="7.53385">
        <ele>47.864973</ele>
        <time>2024-07-12T09:28:50.862Z</time>
      </trkpt>
      <trkpt lat="53.21379" lon="7.53401">
        <ele>47.793733</ele>
        <time>2024-07-12T09:28:53.836Z</time>
      </trkpt>
      <trkpt lat="53.21379" lon="7.53416">
        <ele>47.723378</ele>
        <time>2024-07-12T09:28:56.861Z</time>
      </trkpt>
      <trkpt lat="53.2138" lon="7.53435">
        <ele>47.635192</ele>
        <time>2024-07-12T09:29:00.856Z</time>
      </trkpt>
      <trkpt lat="53.21376" lon="7.5345">
        <ele>47.560416</ele>
        <time>2024-07-12T09:29:03.836Z</time>
      </trkpt>
      <trkpt lat="53.21368" lon="7.53466">
        <ele>47.465596</ele>
        <time>2024-07-12T09:29:06.852Z</time>
      </trkpt>
      <trkpt lat="53.21362" lon="7.53483">
        <ele>47.373298</ele>
        <time>2024-07-12T09:29:09.824Z</time>
      </trkpt>
      <trkpt lat="53.21357" lon="7.53497">
        <ele>47.344069</ele>
        <time>2024-07-12T09:29:11.847Z</time>
      </trkpt>
      <trkpt lat="53.21351" lon="7.53515">
        <ele>47.322576</ele>
        <time>2024-07-12T09:29:14.839Z</time>
      </trkpt>
      <trkpt lat="53.21349" lon="7.53537">
        <ele>47.300277</ele>
        <time>2024-07-12T09:29:17.847Z</time>
      </trkpt>
      <trkpt lat="53.21347" lon="7.53552">
        <ele>47.284795</ele>
        <time>2024-07-12T09:29:19.833Z</time>
      </trkpt>
      <trkpt lat="53.21345" lon="7.53566">
        <ele>47.269436</ele>
        <time>2024-07-12T09:29:21.846Z</time>
      </trkpt>
      <trkpt lat="53.21342" lon="7.53588">
        <ele>47.246741</ele>
        <time>2024-07-12T09:29:24.848Z</time>
      </trkpt>
      <trkpt lat="53.2134" lon="7.53604">
        <ele>47.230662</ele>
        <time>2024-07-12T09:29:26.846Z</time>
      </trkpt>
      <trkpt lat="53.21337" lon="7.53625">
        <ele>47.20837</ele>
        <time>2024-07-12T09:29:29.820Z</time>
      </trkpt>
      <trkpt lat="53.21335" lon="7.53646">
        <ele>47.186674</ele>
        <time>2024-07-12T09:29:32.835Z</time>
      </trkpt>
      <trkpt lat="53.21333" lon="7.53668">
        <ele>47.164611</ele>
        <time>2024-07-12T09:29:35.827Z</time>
      </trkpt>
      <trkpt lat="53.21332" lon="7.53689">
        <ele>47.142526</ele>
        <time>2024-07-12T09:29:38.845Z</time>
      </trkpt>
      <trkpt lat="53.21332" lon="7.53705">
        <ele>47.127156</ele>
        <time>2024-07-12T09:29:40.845Z</time>
      </trkpt>
      <trkpt lat="53.21331" lon="7.53727">
        <ele>47.104745</ele>
        <time>2024-07-12T09:29:43.849Z</time>
      </trkpt>
      <trkpt lat="53.21331" lon="7.53742">
        <ele>47.089391</ele>
        <time>2024-07-12T09:29:45.865Z</time>
      </trkpt>
      <trkpt lat="53.2133" lon="7.53763">
        <ele>47.06793</ele>
        <time>2024-07-12T09:29:48.842Z</time>
      </trkpt>
      <trkpt lat="53.2133" lon="7.53778">
        <ele>47.052662</ele>
        <time>2024-07-12T09:29:50.842Z</time>
      </trkpt>
      <trkpt lat="53.21329" lon="7.538">
        <ele>47.147836</ele>
        <time>2024-07-12T09:29:53.843Z</time>
      </trkpt>
      <trkpt lat="53.21328" lon="7.53822">
        <ele>47.253931</ele>
        <time>2024-07-12T09:29:56.845Z</time>
      </trkpt>
      <trkpt lat="53.21328" lon="7.53844">
        <ele>47.357111</ele>
        <time>2024-07-12T09:29:59.860Z</time>
      </trkpt>
      <trkpt lat="53.21329" lon="7.53859">
        <ele>47.429655</ele>
        <time>2024-07-12T09:30:01.840Z</time>
      </trkpt>
      <trkpt lat="53.21331" lon="7.53881">
        <ele>47.536635</ele>
        <time>2024-07-12T09:30:04.853Z</time>
      </trkpt>
      <trkpt lat="53.21335" lon="7.53895">
        <ele>47.608763</ele>
        <time>2024-07-12T09:30:06.820Z</time>
      </trkpt>
      <trkpt lat="53.21339" lon="7.53916">
        <ele>47.714986</ele>
        <time>2024-07-12T09:30:09.842Z</time>
      </trkpt>
      <trkpt lat="53.21345" lon="7.53936">
        <ele>47.818577</ele>
        <time>2024-07-12T09:30:12.835Z</time>
      </trkpt>
      <trkpt lat="53.21351" lon="7.53955">
        <ele>47.923829</ele>
        <time>2024-07-12T09:30:15.850Z</time>
      </trkpt>
      <trkpt lat="53.21359" lon="7.53973">
        <ele>48.026302</ele>
        <time>2024-07-12T09:30:18.850Z</time>
      </trkpt>
      <trkpt lat="53.21367" lon="7.5399">
        <ele>48.134374</ele>
        <time>2024-07-12T09:30:21.848Z</time>
      </trkpt>
      <trkpt lat="53.21374" lon="7.54002">
        <ele>48.207429</ele>
        <time>2024-07-12T09:30:23.869Z</time>
      </trkpt>
      <trkpt lat="53.21383" lon="7.54016">
        <ele>48.30975</ele>
        <time>2024-07-12T09:30:26.842Z</time>
      </trkpt>
      <trkpt lat="53.21393" lon="7.54028">
        <ele>48.408917</ele>
        <time>2024-07-12T09:30:29.844Z</time>
      </trkpt>
      <trkpt lat="53.21403" lon="7.54041">
        <ele>48.458514</ele>
        <time>2024-07-12T09:30:32.845Z</time>
      </trkpt>
      <trkpt lat="53.21412" lon="7.54056">
        <ele>48.392101</ele>
        <time>2024-07-12T09:30:35.842Z</time>
      </trkpt>
      <trkpt lat="53.2142" lon="7.54073">
        <ele>48.322839</ele>
        <time>2024-07-12T09:30:38.857Z</time>
      </trkpt>
      <trkpt lat="53.21429" lon="7.5409">
        <ele>48.251673</ele>
        <time>2024-07-12T09:30:41.849Z</time>
      </trkpt>
      <trkpt lat="53.21437" lon="7.54107">
        <ele>48.181761</ele>
        <time>2024-07-12T09:30:44.844Z</time>
      </trkpt>
      <trkpt lat="53.21445" lon="7.54124">
        <ele>48.113936</ele>
        <time>2024-07-12T09:30:47.857Z</time>
      </trkpt>
      <trkpt lat="53.21453" lon="7.54141">
        <ele>48.04543</ele>
        <time>2024-07-12T09:30:50.851Z</time>
      </trkpt>
      <trkpt lat="53.21459" lon="7.54153">
        <ele>47.996439</ele>
        <time>2024-07-12T09:30:52.841Z</time>
      </trkpt>
      <trkpt lat="53.21467" lon="7.5417">
        <ele>47.927178</ele>
        <time>2024-07-12T09:30:55.840Z</time>
      </trkpt>
      <trkpt lat="53.21475" lon="7.54187">
        <ele>47.857443</ele>
        <time>2024-07-12T09:30:58.845Z</time>
      </trkpt>
      <trkpt lat="53.21482" lon="7.54205">
        <ele>47.789635</ele>
        <time>2024-07-12T09:31:01.858Z</time>
      </trkpt>
      <trkpt lat="53.21487" lon="7.54225">
        <ele>47.722033</ele>
        <time>2024-07-12T09:31:04.841Z</time>
      </trkpt>
      <trkpt lat="53.21487" lon="7.54246">
        <ele>47.652845</ele>
        <time>2024-07-12T09:31:07.835Z</time>
      </trkpt>
      <trkpt lat="53.21486" lon="7.54267">
        <ele>47.586739</ele>
        <time>2024-07-12T09:31:10.841Z</time>
      </trkpt>
      <trkpt lat="53.21485" lon="7.54288">
        <ele>47.522781</ele>
        <time>2024-07-12T09:31:13.850Z</time>
      </trkpt>
      <trkpt lat="53.21484" lon="7.54309">
        <ele>47.565865</ele>
        <time>2024-07-12T09:31:16.847Z</time>
      </trkpt>
      <trkpt lat="53.21484" lon="7.54328">
        <ele>47.607097</ele>
        <time>2024-07-12T09:31:19.846Z</time>
      </trkpt>
      <trkpt lat="53.21487" lon="7.54349">
        <ele>47.65125</ele>
        <time>2024-07-12T09:31:22.841Z</time>
      </trkpt>
      <trkpt lat="53.2149" lon="7.54363">
        <ele>47.682871</ele>
        <time>2024-07-12T09:31:24.850Z</time>
      </trkpt>
      <trkpt lat="53.21497" lon="7.54382">
        <ele>47.727486</ele>
        <time>2024-07-12T09:31:27.840Z</time>
      </trkpt>
      <trkpt lat="53.21505" lon="7.54399">
        <ele>47.772115</ele>
        <time>2024-07-12T09:31:30.829Z</time>
      </trkpt>
      <trkpt lat="53.21513" lon="7.54416">
        <ele>47.816855</ele>
        <time>2024-07-12T09:31:33.849Z</time>
      </trkpt>
      <trkpt lat="53.21521" lon="7.54433">
        <ele>47.861598</ele>
        <time>2024-07-12T09:31:36.852Z</time>
      </trkpt>
      <trkpt lat="53.21527" lon="7.54445">
        <ele>47.893668</ele>
        <time>2024-07-12T09:31:38.840Z</time>
      </trkpt>
      <trkpt lat="53.21532" lon="7.54457">
        <ele>47.926101</ele>
        <time>2024-07-12T09:31:40.855Z</time>
      </trkpt>
      <trkpt lat="53.21538" lon="7.54469">
        <ele>47.957903</ele>
        <time>2024-07-12T09:31:42.854Z</time>
      </trkpt>
      <trkpt lat="53.21543" lon="7.54481">
        <ele>47.989296</ele>
        <time>2024-07-12T09:31:44.847Z</time>
      </trkpt>
      <trkpt lat="53.21549" lon="7.54493">
        <ele>48.020922</ele>
        <time>2024-07-12T09:31:46.859Z</time>
      </trkpt>
      <trkpt lat="53.21558" lon="7.54511">
        <ele>48.068361</ele>
        <time>2024-07-12T09:31:49.855Z</time>
      </trkpt>
      <trkpt lat="53.21564" lon="7.54523">
        <ele>48.100747</ele>
        <time>2024-07-12T09:31:51.855Z</time>
      </trkpt>
      <trkpt lat="53.21572" lon="7.54541">
        <ele>48.145156</ele>
        <time>2024-07-12T09:31:54.845Z</time>
      </trkpt>
      <trkpt lat="53.21578" lon="7.54553">
        <ele>48.158493</ele>
        <time>2024-07-12T09:31:56.845Z</time>
      </trkpt>
      <trkpt lat="53.21586" lon="7.5457">
        <ele>48.17687</ele>
        <time>2024-07-12T09:31:59.840Z</time>
      </trkpt>
      <trkpt lat="53.21595" lon="7.54587">
        <ele>48.196369</ele>
        <time>2024-07-12T09:32:02.841Z</time>
      </trkpt>
      <trkpt lat="53.216" lon="7.54599">
        <ele>48.209483</ele>
        <time>2024-07-12T09:32:04.853Z</time>
      </trkpt>
      <trkpt lat="53.21606" lon="7.54611">
        <ele>48.22261</ele>
        <time>2024-07-12T09:32:06.850Z</time>
      </trkpt>
      <trkpt lat="53.21611" lon="7.54624">
        <ele>48.23577</ele>
        <time>2024-07-12T09:32:08.855Z</time>
      </trkpt>
      <trkpt lat="53.2162" lon="7.54642">
        <ele>48.255647</ele>
        <time>2024-07-12T09:32:11.844Z</time>
      </trkpt>
      <trkpt lat="53.21628" lon="7.5466">
        <ele>48.274939</ele>
        <time>2024-07-12T09:32:14.841Z</time>
      </trkpt>
      <trkpt lat="53.21636" lon="7.54677">
        <ele>48.294254</ele>
        <time>2024-07-12T09:32:17.842Z</time>
      </trkpt>
      <trkpt lat="53.21642" lon="7.54689">
        <ele>48.307258</ele>
        <time>2024-07-12T09:32:19.839Z</time>
      </trkpt>
      <trkpt lat="53.21648" lon="7.54701">
        <ele>48.320288</ele>
        <time>2024-07-12T09:32:21.844Z</time>
      </trkpt>
      <trkpt lat="53.21657" lon="7.54718">
        <ele>48.339224</ele>
        <time>2024-07-12T09:32:24.853Z</time>
      </trkpt>
      <trkpt lat="53.21662" lon="7.5473">
        <ele>48.352453</ele>
        <time>2024-07-12T09:32:26.862Z</time>
      </trkpt>
      <trkpt lat="53.21668" lon="7.54742">
        <ele>48.365789</ele>
        <time>2024-07-12T09:32:28.845Z</time>
      </trkpt>
      <trkpt lat="53.21674" lon="7.54754">
        <ele>48.379174</ele>
        <time>2024-07-12T09:32:30.855Z</time>
      </trkpt>
      <trkpt lat="53.2168" lon="7.54766">
        <ele>48.392064</ele>
        <time>2024-07-12T09:32:32.835Z</time>
      </trkpt>
      <trkpt lat="53.21687" lon="7.54782">
        <ele>48.377778</ele>
        <time>2024-07-12T09:32:35.844Z</time>
      </trkpt>
      <trkpt lat="53.21696" lon="7.548">
        <ele>48.328664</ele>
        <time>2024-07-12T09:32:38.845Z</time>
      </trkpt>
      <trkpt lat="53.21704" lon="7.54818">
        <ele>48.278201</ele>
        <time>2024-07-12T09:32:41.850Z</time>
      </trkpt>
      <trkpt lat="53.21712" lon="7.54835">
        <ele>48.229026</ele>
        <time>2024-07-12T09:32:44.849Z</time>
      </trkpt>
      <trkpt lat="53.2172" lon="7.54852">
        <ele>48.180784</ele>
        <time>2024-07-12T09:32:47.840Z</time>
      </trkpt>
      <trkpt lat="53.21728" lon="7.54869">
        <ele>48.131433</ele>
        <time>2024-07-12T09:32:50.843Z</time>
      </trkpt>
      <trkpt lat="53.21736" lon="7.54887">
        <ele>48.082871</ele>
        <time>2024-07-12T09:32:53.856Z</time>
      </trkpt>
      <trkpt lat="53.2174" lon="7.54901">
        <ele>48.047811</ele>
        <time>2024-07-12T09:32:55.858Z</time>
      </trkpt>
      <trkpt lat="53.21746" lon="7.54921">
        <ele>47.998099</ele>
        <time>2024-07-12T09:32:58.845Z</time>
      </trkpt>
      <trkpt lat="53.21749" lon="7.54935">
        <ele>47.964377</ele>
        <time>2024-07-12T09:33:00.840Z</time>
      </trkpt>
      <trkpt lat="53.21753" lon="7.54957">
        <ele>47.914762</ele>
        <time>2024-07-12T09:33:03.843Z</time>
      </trkpt>
      <trkpt lat="53.21755" lon="7.54978">
        <ele>47.86684</ele>
        <time>2024-07-12T09:33:06.841Z</time>
      </trkpt>
      <trkpt lat="53.21758" lon="7.54999">
        <ele>47.818263</ele>
        <time>2024-07-12T09:33:09.844Z</time>
      </trkpt>
      <trkpt lat="53.21761" lon="7.5502">
        <ele>47.769467</ele>
        <time>2024-07-12T09:33:12.827Z</time>
      </trkpt>
      <trkpt lat="53.21763" lon="7.55042">
        <ele>47.733127</ele>
        <time>2024-07-12T09:33:15.844Z</time>
      </trkpt>
      <trkpt lat="53.21766" lon="7.55064">
        <ele>47.743148</ele>
        <time>2024-07-12T09:33:18.848Z</time>
      </trkpt>
      <trkpt lat="53.21769" lon="7.55083">
        <ele>47.752116</ele>
        <time>2024-07-12T09:33:21.837Z</time>
      </trkpt>
      <trkpt lat="53.21772" lon="7.55101">
        <ele>47.76084</ele>
        <time>2024-07-12T09:33:24.838Z</time>
      </trkpt>
      <trkpt lat="53.21776" lon="7.55118">
        <ele>47.768935</ele>
        <time>2024-07-12T09:33:27.841Z</time>
      </trkpt>
      <trkpt lat="53.21779" lon="7.55134">
        <ele>47.776962</ele>
        <time>2024-07-12T09:33:30.842Z</time>
      </trkpt>
      <trkpt lat="53.21785" lon="7.55151">
        <ele>47.785751</ele>
        <time>2024-07-12T09:33:33.839Z</time>
      </trkpt>
      <trkpt lat="53.2179" lon="7.55168">
        <ele>47.794439</ele>
        <time>2024-07-12T09:33:36.836Z</time>
      </trkpt>
      <trkpt lat="53.21796" lon="7.55185">
        <ele>47.803518</ele>
        <time>2024-07-12T09:33:39.839Z</time>
      </trkpt>
      <trkpt lat="53.21802" lon="7.55203">
        <ele>47.812918</ele>
        <time>2024-07-12T09:33:42.832Z</time>
      </trkpt>
      <trkpt lat="53.21806" lon="7.55221">
        <ele>47.821517</ele>
        <time>2024-07-12T09:33:45.843Z</time>
      </trkpt>
      <trkpt lat="53.21809" lon="7.55239">
        <ele>47.829931</ele>
        <time>2024-07-12T09:33:48.825Z</time>
      </trkpt>
      <trkpt lat="53.21812" lon="7.55258">
        <ele>47.83882</ele>
        <time>2024-07-12T09:33:51.847Z</time>
      </trkpt>
      <trkpt lat="53.21815" lon="7.55277">
        <ele>47.847887</ele>
        <time>2024-07-12T09:33:54.850Z</time>
      </trkpt>
      <trkpt lat="53.21817" lon="7.55297">
        <ele>47.857177</ele>
        <time>2024-07-12T09:33:57.853Z</time>
      </trkpt>
      <trkpt lat="53.2182" lon="7.55315">
        <ele>47.865578</ele>
        <time>2024-07-12T09:34:00.848Z</time>
      </trkpt>
      <trkpt lat="53.21823" lon="7.55334">
        <ele>47.884234</ele>
        <time>2024-07-12T09:34:03.844Z</time>
      </trkpt>
      <trkpt lat="53.21826" lon="7.55354">
        <ele>47.905836</ele>
        <time>2024-07-12T09:34:06.840Z</time>
      </trkpt>
      <trkpt lat="53.21828" lon="7.55373">
        <ele>47.927375</ele>
        <time>2024-07-12T09:34:09.837Z</time>
      </trkpt>
      <trkpt lat="53.21831" lon="7.55393">
        <ele>47.949457</ele>
        <time>2024-07-12T09:34:12.829Z</time>
      </trkpt>
      <trkpt lat="53.21834" lon="7.55413">
        <ele>47.971477</ele>
        <time>2024-07-12T09:34:15.857Z</time>
      </trkpt>
      <trkpt lat="53.21837" lon="7.55433">
        <ele>47.993611</ele>
        <time>2024-07-12T09:34:18.846Z</time>
      </trkpt>
      <trkpt lat="53.2184" lon="7.55452">
        <ele>48.014484</ele>
        <time>2024-07-12T09:34:21.854Z</time>
      </trkpt>
      <trkpt lat="53.21843" lon="7.55471">
        <ele>48.036132</ele>
        <time>2024-07-12T09:34:24.847Z</time>
      </trkpt>
      <trkpt lat="53.21845" lon="7.5549">
        <ele>48.056475</ele>
        <time>2024-07-12T09:34:27.843Z</time>
      </trkpt>
      <trkpt lat="53.21848" lon="7.55508">
        <ele>48.076875</ele>
        <time>2024-07-12T09:34:30.837Z</time>
      </trkpt>
      <trkpt lat="53.21851" lon="7.55528">
        <ele>48.098656</ele>
        <time>2024-07-12T09:34:33.840Z</time>
      </trkpt>
      <trkpt lat="53.21853" lon="7.55545">
        <ele>48.118453</ele>
        <time>2024-07-12T09:34:36.825Z</time>
      </trkpt>
      <trkpt lat="53.21856" lon="7.55563">
        <ele>48.13848</ele>
        <time>2024-07-12T09:34:39.833Z</time>
      </trkpt>
      <trkpt lat="53.21858" lon="7.55583">
        <ele>48.159803</ele>
        <time>2024-07-12T09:34:42.844Z</time>
      </trkpt>
      <trkpt lat="53.2186" lon="7.55602">
        <ele>48.180862</ele>
        <time>2024-07-12T09:34:45.847Z</time>
      </trkpt>
      <trkpt lat="53.21861" lon="7.5562">
        <ele>48.193382</ele>
        <time>2024-07-12T09:34:48.836Z</time>
      </trkpt>
      <trkpt lat="53.21861" lon="7.55638">
        <ele>48.197034</ele>
        <time>2024-07-12T09:34:51.841Z</time>
      </trkpt>
      <trkpt lat="53.2186" lon="7.55656">
        <ele>48.200793</ele>
        <time>2024-07-12T09:34:54.818Z</time>
      </trkpt>
      <trkpt lat="53.21858" lon="7.55676">
        <ele>48.204758</ele>
        <time>2024-07-12T09:34:57.837Z</time>
      </trkpt>
      <trkpt lat="53.21855" lon="7.55694">
        <ele>48.208736</ele>
        <time>2024-07-12T09:35:00.842Z</time>
      </trkpt>
      <trkpt lat="53.21852" lon="7.55712">
        <ele>48.212414</ele>
        <time>2024-07-12T09:35:03.843Z</time>
      </trkpt>
      <trkpt lat="53.21849" lon="7.55731">
        <ele>48.216489</ele>
        <time>2024-07-12T09:35:06.844Z</time>
      </trkpt>
      <trkpt lat="53.21845" lon="7.5575">
        <ele>48.220486</ele>
        <time>2024-07-12T09:35:09.856Z</time>
      </trkpt>
      <trkpt lat="53.21842" lon="7.55769">
        <ele>48.224464</ele>
        <time>2024-07-12T09:35:12.836Z</time>
      </trkpt>
      <trkpt lat="53.21841" lon="7.55789">
        <ele>48.228596</ele>
        <time>2024-07-12T09:35:15.839Z</time>
      </trkpt>
      <trkpt lat="53.21841" lon="7.55808">
        <ele>48.232534</ele>
        <time>2024-07-12T09:35:18.829Z</time>
      </trkpt>
      <trkpt lat="53.21842" lon="7.55827">
        <ele>48.236461</ele>
        <time>2024-07-12T09:35:21.853Z</time>
      </trkpt>
      <trkpt lat="53.21842" lon="7.55846">
        <ele>48.240361</ele>
        <time>2024-07-12T09:35:24.844Z</time>
      </trkpt>
      <trkpt lat="53.21843" lon="7.55866">
        <ele>48.244401</ele>
        <time>2024-07-12T09:35:27.826Z</time>
      </trkpt>
      <trkpt lat="53.21843" lon="7.55885">
        <ele>48.248237</ele>
        <time>2024-07-12T09:35:30.842Z</time>
      </trkpt>
      <trkpt lat="53.21843" lon="7.55904">
        <ele>48.252116</ele>
        <time>2024-07-12T09:35:33.857Z</time>
      </trkpt>
      <trkpt lat="53.21844" lon="7.55923">
        <ele>48.155811</ele>
        <time>2024-07-12T09:35:36.843Z</time>
      </trkpt>
      <trkpt lat="53.21845" lon="7.55941">
        <ele>48.031989</ele>
        <time>2024-07-12T09:35:39.853Z</time>
      </trkpt>
      <trkpt lat="53.21846" lon="7.5596">
        <ele>47.906675</ele>
        <time>2024-07-12T09:35:42.841Z</time>
      </trkpt>
      <trkpt lat="53.21846" lon="7.55979">
        <ele>47.777635</ele>
        <time>2024-07-12T09:35:45.841Z</time>
      </trkpt>
      <trkpt lat="53.21847" lon="7.55997">
        <ele>47.656402</ele>
        <time>2024-07-12T09:35:48.865Z</time>
      </trkpt>
      <trkpt lat="53.21848" lon="7.56016">
        <ele>47.530518</ele>
        <time>2024-07-12T09:35:51.837Z</time>
      </trkpt>
      <trkpt lat="53.21852" lon="7.56033">
        <ele>47.409806</ele>
        <time>2024-07-12T09:35:54.837Z</time>
      </trkpt>
      <trkpt lat="53.21855" lon="7.56049">
        <ele>47.300359</ele>
        <time>2024-07-12T09:35:57.853Z</time>
      </trkpt>
      <trkpt lat="53.21851" lon="7.56065">
        <ele>47.186203</ele>
        <time>2024-07-12T09:36:00.828Z</time>
      </trkpt>
      <trkpt lat="53.21842" lon="7.5607">
        <ele>47.083514</ele>
        <time>2024-07-12T09:36:08.831Z</time>
      </trkpt>
      <trkpt lat="53.21834" lon="7.56078">
        <ele>46.977594</ele>
        <time>2024-07-12T09:36:13.827Z</time>
      </trkpt>
      <trkpt lat="53.21825" lon="7.56086">
        <ele>46.862189</ele>
        <time>2024-07-12T09:36:17.822Z</time>
      </trkpt>
      <trkpt lat="53.21814" lon="7.56095">
        <ele>46.730526</ele>
        <time>2024-07-12T09:36:21.816Z</time>
      </trkpt>
      <trkpt lat="53.21804" lon="7.56102">
        <ele>46.606172</ele>
        <time>2024-07-12T09:36:25.858Z</time>
      </trkpt>
      <trkpt lat="53.21795" lon="7.5611">
        <ele>46.494398</ele>
        <time>2024-07-12T09:36:29.832Z</time>
      </trkpt>
      <trkpt lat="53.21786" lon="7.56117">
        <ele>46.381054</ele>
        <time>2024-07-12T09:36:33.855Z</time>
      </trkpt>
      <trkpt lat="53.21778" lon="7.56124">
        <ele>46.277206</ele>
        <time>2024-07-12T09:36:36.853Z</time>
      </trkpt>
      <trkpt lat="53.21769" lon="7.5613">
        <ele>46.252892</ele>
        <time>2024-07-12T09:36:39.853Z</time>
      </trkpt>
      <trkpt lat="53.2176" lon="7.56138">
        <ele>46.261757</ele>
        <time>2024-07-12T09:36:42.820Z</time>
      </trkpt>
      <trkpt lat="53.21751" lon="7.56145">
        <ele>46.270922</ele>
        <time>2024-07-12T09:36:45.854Z</time>
      </trkpt>
      <trkpt lat="53.21741" lon="7.56153">
        <ele>46.280961</ele>
        <time>2024-07-12T09:36:48.854Z</time>
      </trkpt>
      <trkpt lat="53.21731" lon="7.56161">
        <ele>46.291106</ele>
        <time>2024-07-12T09:36:51.841Z</time>
      </trkpt>
      <trkpt lat="53.2172" lon="7.5617">
        <ele>46.302181</ele>
        <time>2024-07-12T09:36:54.843Z</time>
      </trkpt>
      <trkpt lat="53.21709" lon="7.56181">
        <ele>46.314235</ele>
        <time>2024-07-12T09:36:57.845Z</time>
      </trkpt>
      <trkpt lat="53.217" lon="7.56187">
        <ele>46.322835</ele>
        <time>2024-07-12T09:36:59.838Z</time>
      </trkpt>
      <trkpt lat="53.21692" lon="7.56193">
        <ele>46.331341</ele>
        <time>2024-07-12T09:37:01.840Z</time>
      </trkpt>
      <trkpt lat="53.21683" lon="7.562">
        <ele>46.339588</ele>
        <time>2024-07-12T09:37:03.826Z</time>
      </trkpt>
      <trkpt lat="53.21675" lon="7.56206">
        <ele>46.348209</ele>
        <time>2024-07-12T09:37:05.847Z</time>
      </trkpt>
      <trkpt lat="53.21666" lon="7.56213">
        <ele>46.356892</ele>
        <time>2024-07-12T09:37:07.847Z</time>
      </trkpt>
      <trkpt lat="53.21657" lon="7.5622">
        <ele>46.365846</ele>
        <time>2024-07-12T09:37:09.841Z</time>
      </trkpt>
      <trkpt lat="53.21649" lon="7.56227">
        <ele>46.374269</ele>
        <time>2024-07-12T09:37:11.825Z</time>
      </trkpt>
      <trkpt lat="53.21641" lon="7.56233">
        <ele>46.382644</ele>
        <time>2024-07-12T09:37:13.841Z</time>
      </trkpt>
      <trkpt lat="53.21632" lon="7.5624">
        <ele>46.391209</ele>
        <time>2024-07-12T09:37:15.845Z</time>
      </trkpt>
      <trkpt lat="53.21624" lon="7.56246">
        <ele>46.399751</ele>
        <time>2024-07-12T09:37:17.837Z</time>
      </trkpt>
      <trkpt lat="53.21615" lon="7.56254">
        <ele>46.408704</ele>
        <time>2024-07-12T09:37:19.842Z</time>
      </trkpt>
      <trkpt lat="53.21606" lon="7.56261">
        <ele>46.433644</ele>
        <time>2024-07-12T09:37:21.868Z</time>
      </trkpt>
      <trkpt lat="53.21597" lon="7.56267">
        <ele>46.462451</ele>
        <time>2024-07-12T09:37:23.860Z</time>
      </trkpt>
      <trkpt lat="53.21588" lon="7.56273">
        <ele>46.492011</ele>
        <time>2024-07-12T09:37:25.851Z</time>
      </trkpt>
      <trkpt lat="53.21579" lon="7.56281">
        <ele>46.521322</ele>
        <time>2024-07-12T09:37:27.838Z</time>
      </trkpt>
      <trkpt lat="53.21572" lon="7.56292">
        <ele>46.551221</ele>
        <time>2024-07-12T09:37:29.834Z</time>
      </trkpt>
      <trkpt lat="53.21568" lon="7.56307">
        <ele>46.580137</ele>
        <time>2024-07-12T09:37:31.846Z</time>
      </trkpt>
      <trkpt lat="53.21565" lon="7.56321">
        <ele>46.607504</ele>
        <time>2024-07-12T09:37:33.846Z</time>
      </trkpt>
      <trkpt lat="53.21562" lon="7.56337">
        <ele>46.637671</ele>
        <time>2024-07-12T09:37:35.851Z</time>
      </trkpt>
      <trkpt lat="53.21559" lon="7.56353">
        <ele>46.666953</ele>
        <time>2024-07-12T09:37:37.861Z</time>
      </trkpt>
      <trkpt lat="53.21556" lon="7.56368">
        <ele>46.696078</ele>
        <time>2024-07-12T09:37:39.841Z</time>
      </trkpt>
      <trkpt lat="53.21552" lon="7.56383">
        <ele>46.725048</ele>
        <time>2024-07-12T09:37:41.855Z</time>
      </trkpt>
      <trkpt lat="53.21549" lon="7.56398">
        <ele>46.752719</ele>
        <time>2024-07-12T09:37:43.845Z</time>
      </trkpt>
      <trkpt lat="53.21546" lon="7.56413">
        <ele>46.781264</ele>
        <time>2024-07-12T09:37:45.836Z</time>
      </trkpt>
      <trkpt lat="53.21543" lon="7.56428">
        <ele>46.810961</ele>
        <time>2024-07-12T09:37:47.843Z</time>
      </trkpt>
      <trkpt lat="53.2154" lon="7.56443">
        <ele>46.838124</ele>
        <time>2024-07-12T09:37:49.858Z</time>
      </trkpt>
      <trkpt lat="53.21536" lon="7.56457">
        <ele>46.865491</ele>
        <time>2024-07-12T09:37:51.829Z</time>
      </trkpt>
      <trkpt lat="53.21533" lon="7.56471">
        <ele>46.892754</ele>
        <time>2024-07-12T09:37:53.837Z</time>
      </trkpt>
      <trkpt lat="53.2153" lon="7.56486">
        <ele>46.920086</ele>
        <time>2024-07-12T09:37:55.837Z</time>
      </trkpt>
      <trkpt lat="53.21527" lon="7.565">
        <ele>46.94708</ele>
        <time>2024-07-12T09:37:57.849Z</time>
      </trkpt>
      <trkpt lat="53.21524" lon="7.56515">
        <ele>46.984764</ele>
        <time>2024-07-12T09:37:59.843Z</time>
      </trkpt>
      <trkpt lat="53.21521" lon="7.56529">
        <ele>47.023131</ele>
        <time>2024-07-12T09:38:01.824Z</time>
      </trkpt>
      <trkpt lat="53.21518" lon="7.56544">
        <ele>47.061544</ele>
        <time>2024-07-12T09:38:03.854Z</time>
      </trkpt>
      <trkpt lat="53.21515" lon="7.56559">
        <ele>47.099574</ele>
        <time>2024-07-12T09:38:05.827Z</time>
      </trkpt>
      <trkpt lat="53.21511" lon="7.56579">
        <ele>47.154043</ele>
        <time>2024-07-12T09:38:08.848Z</time>
      </trkpt>
      <trkpt lat="53.21508" lon="7.56594">
        <ele>47.192456</ele>
        <time>2024-07-12T09:38:10.826Z</time>
      </trkpt>
      <trkpt lat="53.21505" lon="7.56608">
        <ele>47.229839</ele>
        <time>2024-07-12T09:38:12.816Z</time>
      </trkpt>
      <trkpt lat="53.21502" lon="7.56622">
        <ele>47.267135</ele>
        <time>2024-07-12T09:38:14.850Z</time>
      </trkpt>
      <trkpt lat="53.21497" lon="7.56644">
        <ele>47.3232</ele>
        <time>2024-07-12T09:38:17.838Z</time>
      </trkpt>
      <trkpt lat="53.21494" lon="7.56658">
        <ele>47.360584</ele>
        <time>2024-07-12T09:38:19.835Z</time>
      </trkpt>
      <trkpt lat="53.2149" lon="7.56673">
        <ele>47.400024</ele>
        <time>2024-07-12T09:38:21.857Z</time>
      </trkpt>
      <trkpt lat="53.21487" lon="7.56687">
        <ele>47.437873</ele>
        <time>2024-07-12T09:38:23.848Z</time>
      </trkpt>
      <trkpt lat="53.21484" lon="7.56701">
        <ele>47.475024</ele>
        <time>2024-07-12T09:38:25.849Z</time>
      </trkpt>
      <trkpt lat="53.21481" lon="7.56716">
        <ele>47.514039</ele>
        <time>2024-07-12T09:38:27.843Z</time>
      </trkpt>
      <trkpt lat="53.21478" lon="7.56731">
        <ele>47.552354</ele>
        <time>2024-07-12T09:38:29.855Z</time>
      </trkpt>
      <trkpt lat="53.21475" lon="7.56745">
        <ele>47.590065</ele>
        <time>2024-07-12T09:38:31.847Z</time>
      </trkpt>
      <trkpt lat="53.21472" lon="7.56759">
        <ele>47.627309</ele>
        <time>2024-07-12T09:38:33.849Z</time>
      </trkpt>
      <trkpt lat="53.21468" lon="7.56779">
        <ele>47.679965</ele>
        <time>2024-07-12T09:38:36.841Z</time>
      </trkpt>
      <trkpt lat="53.21463" lon="7.568">
        <ele>47.565216</ele>
        <time>2024-07-12T09:38:39.838Z</time>
      </trkpt>
      <trkpt lat="53.2146" lon="7.56814">
        <ele>47.453867</ele>
        <time>2024-07-12T09:38:41.836Z</time>
      </trkpt>
      <trkpt lat="53.21457" lon="7.56829">
        <ele>47.343207</ele>
        <time>2024-07-12T09:38:43.836Z</time>
      </trkpt>
      <trkpt lat="53.21454" lon="7.56844">
        <ele>47.227802</ele>
        <time>2024-07-12T09:38:45.839Z</time>
      </trkpt>
      <trkpt lat="53.21451" lon="7.56858">
        <ele>47.117262</ele>
        <time>2024-07-12T09:38:47.841Z</time>
      </trkpt>
      <trkpt lat="53.21446" lon="7.56878">
        <ele>46.957228</ele>
        <time>2024-07-12T09:38:50.858Z</time>
      </trkpt>
      <trkpt lat="53.21442" lon="7.56899">
        <ele>46.792654</ele>
        <time>2024-07-12T09:38:53.839Z</time>
      </trkpt>
      <trkpt lat="53.21437" lon="7.5692">
        <ele>46.630365</ele>
        <time>2024-07-12T09:38:56.845Z</time>
      </trkpt>
      <trkpt lat="53.21432" lon="7.5694">
        <ele>46.476675</ele>
        <time>2024-07-12T09:38:59.846Z</time>
      </trkpt>
      <trkpt lat="53.21427" lon="7.5696">
        <ele>46.314151</ele>
        <time>2024-07-12T09:39:02.841Z</time>
      </trkpt>
      <trkpt lat="53.21423" lon="7.56981">
        <ele>46.154823</ele>
        <time>2024-07-12T09:39:05.856Z</time>
      </trkpt>
      <trkpt lat="53.21418" lon="7.57002">
        <ele>45.991172</ele>
        <time>2024-07-12T09:39:08.847Z</time>
      </trkpt>
      <trkpt lat="53.21414" lon="7.57022">
        <ele>45.829247</ele>
        <time>2024-07-12T09:39:11.853Z</time>
      </trkpt>
      <trkpt lat="53.21409" lon="7.57043">
        <ele>45.669647</ele>
        <time>2024-07-12T09:39:14.832Z</time>
      </trkpt>
      <trkpt lat="53.21406" lon="7.57058">
        <ele>45.553465</ele>
        <time>2024-07-12T09:39:16.841Z</time>
      </trkpt>
      <trkpt lat="53.21403" lon="7.57073">
        <ele>45.500955</ele>
        <time>2024-07-12T09:39:18.849Z</time>
      </trkpt>
      <trkpt lat="53.214" lon="7.57087">
        <ele>45.517341</ele>
        <time>2024-07-12T09:39:20.846Z</time>
      </trkpt>
      <trkpt lat="53.21395" lon="7.57109">
        <ele>45.541584</ele>
        <time>2024-07-12T09:39:23.846Z</time>
      </trkpt>
      <trkpt lat="53.21392" lon="7.57123">
        <ele>45.557784</ele>
        <time>2024-07-12T09:39:25.838Z</time>
      </trkpt>
      <trkpt lat="53.21389" lon="7.57138">
        <ele>45.574807</ele>
        <time>2024-07-12T09:39:27.843Z</time>
      </trkpt>
      <trkpt lat="53.21386" lon="7.57153">
        <ele>45.59197</ele>
        <time>2024-07-12T09:39:29.852Z</time>
      </trkpt>
      <trkpt lat="53.21383" lon="7.57168">
        <ele>45.609176</ele>
        <time>2024-07-12T09:39:31.838Z</time>
      </trkpt>
      <trkpt lat="53.2138" lon="7.57183">
        <ele>45.625477</ele>
        <time>2024-07-12T09:39:33.857Z</time>
      </trkpt>
      <trkpt lat="53.21376" lon="7.57197">
        <ele>45.642038</ele>
        <time>2024-07-12T09:39:35.844Z</time>
      </trkpt>
      <trkpt lat="53.21373" lon="7.57211">
        <ele>45.658065</ele>
        <time>2024-07-12T09:39:37.852Z</time>
      </trkpt>
      <trkpt lat="53.2137" lon="7.57226">
        <ele>45.674451</ele>
        <time>2024-07-12T09:39:39.838Z</time>
      </trkpt>
      <trkpt lat="53.21366" lon="7.57247">
        <ele>45.698251</ele>
        <time>2024-07-12T09:39:42.835Z</time>
      </trkpt>
      <trkpt lat="53.21362" lon="7.57261">
        <ele>45.714641</ele>
        <time>2024-07-12T09:39:44.846Z</time>
      </trkpt>
      <trkpt lat="53.21358" lon="7.57283">
        <ele>45.738501</ele>
        <time>2024-07-12T09:39:47.842Z</time>
      </trkpt>
      <trkpt lat="53.21353" lon="7.57304">
        <ele>45.762521</ele>
        <time>2024-07-12T09:39:50.860Z</time>
      </trkpt>
      <trkpt lat="53.21349" lon="7.57325">
        <ele>45.786802</ele>
        <time>2024-07-12T09:39:53.839Z</time>
      </trkpt>
      <trkpt lat="53.21346" lon="7.5734">
        <ele>45.803593</ele>
        <time>2024-07-12T09:39:55.822Z</time>
      </trkpt>
      <trkpt lat="53.21343" lon="7.57355">
        <ele>45.826046</ele>
        <time>2024-07-12T09:39:57.839Z</time>
      </trkpt>
      <trkpt lat="53.21339" lon="7.57369">
        <ele>45.855667</ele>
        <time>2024-07-12T09:39:59.850Z</time>
      </trkpt>
      <trkpt lat="53.21336" lon="7.57384">
        <ele>45.885722</ele>
        <time>2024-07-12T09:40:01.839Z</time>
      </trkpt>
      <trkpt lat="53.21333" lon="7.57398">
        <ele>45.914804</ele>
        <time>2024-07-12T09:40:03.848Z</time>
      </trkpt>
      <trkpt lat="53.21329" lon="7.5742">
        <ele>45.958357</ele>
        <time>2024-07-12T09:40:06.849Z</time>
      </trkpt>
      <trkpt lat="53.21326" lon="7.57434">
        <ele>45.987039</ele>
        <time>2024-07-12T09:40:08.821Z</time>
      </trkpt>
      <trkpt lat="53.21321" lon="7.57456">
        <ele>46.030671</ele>
        <time>2024-07-12T09:40:11.846Z</time>
      </trkpt>
      <trkpt lat="53.21318" lon="7.5747">
        <ele>46.060106</ele>
        <time>2024-07-12T09:40:13.867Z</time>
      </trkpt>
      <trkpt lat="53.21315" lon="7.57484">
        <ele>46.08915</ele>
        <time>2024-07-12T09:40:15.842Z</time>
      </trkpt>
      <trkpt lat="53.2131" lon="7.57506">
        <ele>46.132702</ele>
        <time>2024-07-12T09:40:18.842Z</time>
      </trkpt>
      <trkpt lat="53.21306" lon="7.57527">
        <ele>46.175636</ele>
        <time>2024-07-12T09:40:21.844Z</time>
      </trkpt>
      <trkpt lat="53.21303" lon="7.57541">
        <ele>46.204608</ele>
        <time>2024-07-12T09:40:23.846Z</time>
      </trkpt>
      <trkpt lat="53.21298" lon="7.57563">
        <ele>46.24884</ele>
        <time>2024-07-12T09:40:26.865Z</time>
      </trkpt>
      <trkpt lat="53.21295" lon="7.57578">
        <ele>46.279472</ele>
        <time>2024-07-12T09:40:28.853Z</time>
      </trkpt>
      <trkpt lat="53.21292" lon="7.57592">
        <ele>46.309241</ele>
        <time>2024-07-12T09:40:30.841Z</time>
      </trkpt>
      <trkpt lat="53.21289" lon="7.57607">
        <ele>46.339513</ele>
        <time>2024-07-12T09:40:32.837Z</time>
      </trkpt>
      <trkpt lat="53.21284" lon="7.57628">
        <ele>46.382087</ele>
        <time>2024-07-12T09:40:35.838Z</time>
      </trkpt>
      <trkpt lat="53.2128" lon="7.57649">
        <ele>46.351067</ele>
        <time>2024-07-12T09:40:38.843Z</time>
      </trkpt>
      <trkpt lat="53.21275" lon="7.57671">
        <ele>46.305279</ele>
        <time>2024-07-12T09:40:41.840Z</time>
      </trkpt>
      <trkpt lat="53.21272" lon="7.57685">
        <ele>46.275236</ele>
        <time>2024-07-12T09:40:43.841Z</time>
      </trkpt>
      <trkpt lat="53.21268" lon="7.57706">
        <ele>46.230859</ele>
        <time>2024-07-12T09:40:46.865Z</time>
      </trkpt>
      <trkpt lat="53.21267" lon="7.57721">
        <ele>46.200115</ele>
        <time>2024-07-12T09:40:48.853Z</time>
      </trkpt>
      <trkpt lat="53.21265" lon="7.57737">
        <ele>46.169619</ele>
        <time>2024-07-12T09:40:50.828Z</time>
      </trkpt>
      <trkpt lat="53.21264" lon="7.57752">
        <ele>46.139417</ele>
        <time>2024-07-12T09:40:52.826Z</time>
      </trkpt>
      <trkpt lat="53.21264" lon="7.57767">
        <ele>46.109579</ele>
        <time>2024-07-12T09:40:54.839Z</time>
      </trkpt>
      <trkpt lat="53.21263" lon="7.57782">
        <ele>46.078036</ele>
        <time>2024-07-12T09:40:56.853Z</time>
      </trkpt>
      <trkpt lat="53.21262" lon="7.57797">
        <ele>46.048125</ele>
        <time>2024-07-12T09:40:58.855Z</time>
      </trkpt>
      <trkpt lat="53.2126" lon="7.5782">
        <ele>46.003139</ele>
        <time>2024-07-12T09:41:01.857Z</time>
      </trkpt>
      <trkpt lat="53.2126" lon="7.57835">
        <ele>45.972391</ele>
        <time>2024-07-12T09:41:03.849Z</time>
      </trkpt>
      <trkpt lat="53.21258" lon="7.57851">
        <ele>45.94101</ele>
        <time>2024-07-12T09:41:05.854Z</time>
      </trkpt>
      <trkpt lat="53.21257" lon="7.57866">
        <ele>45.910182</ele>
        <time>2024-07-12T09:41:07.841Z</time>
      </trkpt>
      <trkpt lat="53.21256" lon="7.57889">
        <ele>45.865145</ele>
        <time>2024-07-12T09:41:10.858Z</time>
      </trkpt>
      <trkpt lat="53.21255" lon="7.57911">
        <ele>45.820306</ele>
        <time>2024-07-12T09:41:13.844Z</time>
      </trkpt>
      <trkpt lat="53.21254" lon="7.57926">
        <ele>45.789291</ele>
        <time>2024-07-12T09:41:15.862Z</time>
      </trkpt>
      <trkpt lat="53.21252" lon="7.57943">
        <ele>45.760289</ele>
        <time>2024-07-12T09:41:17.840Z</time>
      </trkpt>
      <trkpt lat="53.21251" lon="7.57958">
        <ele>45.732932</ele>
        <time>2024-07-12T09:41:19.864Z</time>
      </trkpt>
      <trkpt lat="53.2125" lon="7.57974">
        <ele>45.704247</ele>
        <time>2024-07-12T09:41:21.821Z</time>
      </trkpt>
      <trkpt lat="53.21249" lon="7.5799">
        <ele>45.675915</ele>
        <time>2024-07-12T09:41:23.855Z</time>
      </trkpt>
      <trkpt lat="53.21248" lon="7.58005">
        <ele>45.648183</ele>
        <time>2024-07-12T09:41:25.834Z</time>
      </trkpt>
      <trkpt lat="53.21246" lon="7.58021">
        <ele>45.619675</ele>
        <time>2024-07-12T09:41:27.845Z</time>
      </trkpt>
      <trkpt lat="53.21245" lon="7.58037">
        <ele>45.591909</ele>
        <time>2024-07-12T09:41:29.842Z</time>
      </trkpt>
      <trkpt lat="53.21244" lon="7.58052">
        <ele>45.56446</ele>
        <time>2024-07-12T09:41:31.833Z</time>
      </trkpt>
      <trkpt lat="53.21243" lon="7.58068">
        <ele>45.535518</ele>
        <time>2024-07-12T09:41:33.850Z</time>
      </trkpt>
      <trkpt lat="53.21242" lon="7.58084">
        <ele>45.507255</ele>
        <time>2024-07-12T09:41:35.845Z</time>
      </trkpt>
      <trkpt lat="53.21241" lon="7.581">
        <ele>45.478461</ele>
        <time>2024-07-12T09:41:37.842Z</time>
      </trkpt>
      <trkpt lat="53.21241" lon="7.58116">
        <ele>45.449213</ele>
        <time>2024-07-12T09:41:39.843Z</time>
      </trkpt>
      <trkpt lat="53.21239" lon="7.58132">
        <ele>45.420801</ele>
        <time>2024-07-12T09:41:41.856Z</time>
      </trkpt>
      <trkpt lat="53.21238" lon="7.58149">
        <ele>45.391445</ele>
        <time>2024-07-12T09:41:43.841Z</time>
      </trkpt>
      <trkpt lat="53.21237" lon="7.58165">
        <ele>45.362374</ele>
        <time>2024-07-12T09:41:45.844Z</time>
      </trkpt>
      <trkpt lat="53.21236" lon="7.58181">
        <ele>45.334255</ele>
        <time>2024-07-12T09:41:47.852Z</time>
      </trkpt>
      <trkpt lat="53.21235" lon="7.58197">
        <ele>45.305606</ele>
        <time>2024-07-12T09:41:49.847Z</time>
      </trkpt>
      <trkpt lat="53.21234" lon="7.58213">
        <ele>45.276001</ele>
        <time>2024-07-12T09:41:51.849Z</time>
      </trkpt>
      <trkpt lat="53.21233" lon="7.58229">
        <ele>45.268264</ele>
        <time>2024-07-12T09:41:53.844Z</time>
      </trkpt>
      <trkpt lat="53.21232" lon="7.58244">
        <ele>45.312505</ele>
        <time>2024-07-12T09:41:55.842Z</time>
      </trkpt>
      <trkpt lat="53.21231" lon="7.5826">
        <ele>45.358536</ele>
        <time>2024-07-12T09:41:57.860Z</time>
      </trkpt>
      <trkpt lat="53.2123" lon="7.58276">
        <ele>45.40311</ele>
        <time>2024-07-12T09:41:59.846Z</time>
      </trkpt>
      <trkpt lat="53.21229" lon="7.58292">
        <ele>45.446981</ele>
        <time>2024-07-12T09:42:01.844Z</time>
      </trkpt>
      <trkpt lat="53.21228" lon="7.58307">
        <ele>45.491555</ele>
        <time>2024-07-12T09:42:03.853Z</time>
      </trkpt>
      <trkpt lat="53.21227" lon="7.58323">
        <ele>45.534907</ele>
        <time>2024-07-12T09:42:05.855Z</time>
      </trkpt>
      <trkpt lat="53.21226" lon="7.58338">
        <ele>45.57943</ele>
        <time>2024-07-12T09:42:07.861Z</time>
      </trkpt>
      <trkpt lat="53.21225" lon="7.58354">
        <ele>45.624046</ele>
        <time>2024-07-12T09:42:09.843Z</time>
      </trkpt>
      <trkpt lat="53.21224" lon="7.58369">
        <ele>45.666886</ele>
        <time>2024-07-12T09:42:11.844Z</time>
      </trkpt>
      <trkpt lat="53.21223" lon="7.58384">
        <ele>45.709727</ele>
        <time>2024-07-12T09:42:13.846Z</time>
      </trkpt>
      <trkpt lat="53.21223" lon="7.58407">
        <ele>45.774364</ele>
        <time>2024-07-12T09:42:16.849Z</time>
      </trkpt>
      <trkpt lat="53.21222" lon="7.58422">
        <ele>45.817573</ele>
        <time>2024-07-12T09:42:18.838Z</time>
      </trkpt>
      <trkpt lat="53.21221" lon="7.58438">
        <ele>45.860467</ele>
        <time>2024-07-12T09:42:20.851Z</time>
      </trkpt>
      <trkpt lat="53.2122" lon="7.5846">
        <ele>45.923649</ele>
        <time>2024-07-12T09:42:23.837Z</time>
      </trkpt>
      <trkpt lat="53.2122" lon="7.58475">
        <ele>45.96624</ele>
        <time>2024-07-12T09:42:25.841Z</time>
      </trkpt>
      <trkpt lat="53.21219" lon="7.5849">
        <ele>46.009031</ele>
        <time>2024-07-12T09:42:27.839Z</time>
      </trkpt>
      <trkpt lat="53.21218" lon="7.58505">
        <ele>46.052712</ele>
        <time>2024-07-12T09:42:29.847Z</time>
      </trkpt>
      <trkpt lat="53.21217" lon="7.58521">
        <ele>46.096263</ele>
        <time>2024-07-12T09:42:31.844Z</time>
      </trkpt>
      <trkpt lat="53.21217" lon="7.58536">
        <ele>46.150568</ele>
        <time>2024-07-12T09:42:33.847Z</time>
      </trkpt>
      <trkpt lat="53.21215" lon="7.58558">
        <ele>46.233516</ele>
        <time>2024-07-12T09:42:36.864Z</time>
      </trkpt>
      <trkpt lat="53.21215" lon="7.58573">
        <ele>46.28988</ele>
        <time>2024-07-12T09:42:38.826Z</time>
      </trkpt>
      <trkpt lat="53.21213" lon="7.58589">
        <ele>46.346335</ele>
        <time>2024-07-12T09:42:40.848Z</time>
      </trkpt>
      <trkpt lat="53.21213" lon="7.58604">
        <ele>46.402422</ele>
        <time>2024-07-12T09:42:42.845Z</time>
      </trkpt>
      <trkpt lat="53.21212" lon="7.58619">
        <ele>46.460062</ele>
        <time>2024-07-12T09:42:44.849Z</time>
      </trkpt>
      <trkpt lat="53.21211" lon="7.58634">
        <ele>46.516302</ele>
        <time>2024-07-12T09:42:46.853Z</time>
      </trkpt>
      <trkpt lat="53.2121" lon="7.5865">
        <ele>46.573542</ele>
        <time>2024-07-12T09:42:48.848Z</time>
      </trkpt>
      <trkpt lat="53.21209" lon="7.58671">
        <ele>46.655106</ele>
        <time>2024-07-12T09:42:51.856Z</time>
      </trkpt>
      <trkpt lat="53.21207" lon="7.58693">
        <ele>46.736873</ele>
        <time>2024-07-12T09:42:54.857Z</time>
      </trkpt>
      <trkpt lat="53.21205" lon="7.58714">
        <ele>46.813389</ele>
        <time>2024-07-12T09:42:57.859Z</time>
      </trkpt>
      <trkpt lat="53.21203" lon="7.58735">
        <ele>46.892743</ele>
        <time>2024-07-12T09:43:00.867Z</time>
      </trkpt>
      <trkpt lat="53.212" lon="7.58755">
        <ele>46.969318</ele>
        <time>2024-07-12T09:43:03.868Z</time>
      </trkpt>
      <trkpt lat="53.21198" lon="7.58776">
        <ele>47.046933</ele>
        <time>2024-07-12T09:43:06.871Z</time>
      </trkpt>
      <trkpt lat="53.21195" lon="7.58796">
        <ele>47.124577</ele>
        <time>2024-07-12T09:43:09.878Z</time>
      </trkpt>
      <trkpt lat="53.21193" lon="7.58816">
        <ele>47.201876</ele>
        <time>2024-07-12T09:43:12.875Z</time>
      </trkpt>
      <trkpt lat="53.2119" lon="7.58837">
        <ele>47.228816</ele>
        <time>2024-07-12T09:43:15.886Z</time>
      </trkpt>
      <trkpt lat="53.21187" lon="7.58858">
        <ele>47.244959</ele>
        <time>2024-07-12T09:43:18.892Z</time>
      </trkpt>
      <trkpt lat="53.21183" lon="7.58878">
        <ele>47.260945</ele>
        <time>2024-07-12T09:43:21.846Z</time>
      </trkpt>
      <trkpt lat="53.2118" lon="7.58899">
        <ele>47.277293</ele>
        <time>2024-07-12T09:43:24.856Z</time>
      </trkpt>
      <trkpt lat="53.21177" lon="7.58921">
        <ele>47.293453</ele>
        <time>2024-07-12T09:43:27.831Z</time>
      </trkpt>
      <trkpt lat="53.21174" lon="7.58941">
        <ele>47.309534</ele>
        <time>2024-07-12T09:43:30.831Z</time>
      </trkpt>
      <trkpt lat="53.2117" lon="7.58962">
        <ele>47.325547</ele>
        <time>2024-07-12T09:43:33.858Z</time>
      </trkpt>
      <trkpt lat="53.21168" lon="7.58976">
        <ele>47.336804</ele>
        <time>2024-07-12T09:43:35.850Z</time>
      </trkpt>
      <trkpt lat="53.21164" lon="7.58997">
        <ele>47.35285</ele>
        <time>2024-07-12T09:43:38.857Z</time>
      </trkpt>
      <trkpt lat="53.2116" lon="7.59017">
        <ele>47.368682</ele>
        <time>2024-07-12T09:43:41.844Z</time>
      </trkpt>
      <trkpt lat="53.21156" lon="7.59037">
        <ele>47.384657</ele>
        <time>2024-07-12T09:43:44.858Z</time>
      </trkpt>
      <trkpt lat="53.21154" lon="7.59052">
        <ele>47.396103</ele>
        <time>2024-07-12T09:43:46.844Z</time>
      </trkpt>
      <trkpt lat="53.21151" lon="7.59066">
        <ele>47.407322</ele>
        <time>2024-07-12T09:43:48.838Z</time>
      </trkpt>
      <trkpt lat="53.21147" lon="7.59088">
        <ele>47.424085</ele>
        <time>2024-07-12T09:43:51.854Z</time>
      </trkpt>
      <trkpt lat="53.21143" lon="7.59109">
        <ele>47.440468</ele>
        <time>2024-07-12T09:43:54.860Z</time>
      </trkpt>
      <trkpt lat="53.2114" lon="7.59123">
        <ele>47.419016</ele>
        <time>2024-07-12T09:43:56.849Z</time>
      </trkpt>
      <trkpt lat="53.2114" lon="7.59139">
        <ele>47.395976</ele>
        <time>2024-07-12T09:43:58.831Z</time>
      </trkpt>
      <trkpt lat="53.21142" lon="7.59154">
        <ele>47.373624</ele>
        <time>2024-07-12T09:44:00.842Z</time>
      </trkpt>
      <trkpt lat="53.21144" lon="7.59169">
        <ele>47.350448</ele>
        <time>2024-07-12T09:44:02.845Z</time>
      </trkpt>
      <trkpt lat="53.21147" lon="7.5919">
        <ele>47.318185</ele>
        <time>2024-07-12T09:44:05.850Z</time>
      </trkpt>
      <trkpt lat="53.21151" lon="7.59211">
        <ele>47.286622</ele>
        <time>2024-07-12T09:44:08.834Z</time>
      </trkpt>
      <trkpt lat="53.21155" lon="7.59231">
        <ele>47.256326</ele>
        <time>2024-07-12T09:44:11.849Z</time>
      </trkpt>
      <trkpt lat="53.21159" lon="7.59251">
        <ele>47.224889</ele>
        <time>2024-07-12T09:44:14.860Z</time>
      </trkpt>
      <trkpt lat="53.21162" lon="7.59271">
        <ele>47.194148</ele>
        <time>2024-07-12T09:44:17.846Z</time>
      </trkpt>
      <trkpt lat="53.21166" lon="7.59291">
        <ele>47.163841</ele>
        <time>2024-07-12T09:44:20.832Z</time>
      </trkpt>
      <trkpt lat="53.2117" lon="7.59311">
        <ele>47.133266</ele>
        <time>2024-07-12T09:44:23.854Z</time>
      </trkpt>
      <trkpt lat="53.21173" lon="7.59332">
        <ele>47.101003</ele>
        <time>2024-07-12T09:44:26.848Z</time>
      </trkpt>
      <trkpt lat="53.21176" lon="7.59353">
        <ele>47.069392</ele>
        <time>2024-07-12T09:44:29.845Z</time>
      </trkpt>
      <trkpt lat="53.21179" lon="7.59374">
        <ele>47.03814</ele>
        <time>2024-07-12T09:44:32.867Z</time>
      </trkpt>
      <trkpt lat="53.21182" lon="7.59395">
        <ele>47.005774</ele>
        <time>2024-07-12T09:44:35.829Z</time>
      </trkpt>
      <trkpt lat="53.21185" lon="7.59417">
        <ele>46.98682</ele>
        <time>2024-07-12T09:44:38.839Z</time>
      </trkpt>
      <trkpt lat="53.21188" lon="7.59431">
        <ele>46.976089</ele>
        <time>2024-07-12T09:44:40.855Z</time>
      </trkpt>
      <trkpt lat="53.2119" lon="7.59447">
        <ele>46.964951</ele>
        <time>2024-07-12T09:44:42.839Z</time>
      </trkpt>
      <trkpt lat="53.21193" lon="7.59469">
        <ele>46.94886</ele>
        <time>2024-07-12T09:44:45.847Z</time>
      </trkpt>
      <trkpt lat="53.21195" lon="7.59483">
        <ele>46.937986</ele>
        <time>2024-07-12T09:44:47.857Z</time>
      </trkpt>
      <trkpt lat="53.21198" lon="7.59504">
        <ele>46.922631</ele>
        <time>2024-07-12T09:44:50.845Z</time>
      </trkpt>
      <trkpt lat="53.21201" lon="7.59526">
        <ele>46.906818</ele>
        <time>2024-07-12T09:44:53.843Z</time>
      </trkpt>
      <trkpt lat="53.21204" lon="7.59547">
        <ele>46.891334</ele>
        <time>2024-07-12T09:44:56.850Z</time>
      </trkpt>
      <trkpt lat="53.21206" lon="7.59569">
        <ele>46.876066</ele>
        <time>2024-07-12T09:44:59.848Z</time>
      </trkpt>
      <trkpt lat="53.21207" lon="7.59584">
        <ele>46.865344</ele>
        <time>2024-07-12T09:45:01.857Z</time>
      </trkpt>
      <trkpt lat="53.21208" lon="7.59605">
        <ele>46.849763</ele>
        <time>2024-07-12T09:45:04.854Z</time>
      </trkpt>
      <trkpt lat="53.2121" lon="7.59627">
        <ele>46.83416</ele>
        <time>2024-07-12T09:45:07.847Z</time>
      </trkpt>
      <trkpt lat="53.21213" lon="7.59648">
        <ele>46.818954</ele>
        <time>2024-07-12T09:45:10.849Z</time>
      </trkpt>
      <trkpt lat="53.21216" lon="7.59662">
        <ele>46.80829</ele>
        <time>2024-07-12T09:45:12.841Z</time>
      </trkpt>
      <trkpt lat="53.2122" lon="7.59683">
        <ele>46.792678</ele>
        <time>2024-07-12T09:45:15.847Z</time>
      </trkpt>
      <trkpt lat="53.21224" lon="7.59703">
        <ele>46.739622</ele>
        <time>2024-07-12T09:45:18.821Z</time>
      </trkpt>
      <trkpt lat="53.2123" lon="7.59723">
        <ele>46.656626</ele>
        <time>2024-07-12T09:45:21.848Z</time>
      </trkpt>
      <trkpt lat="53.21237" lon="7.59741">
        <ele>46.576115</ele>
        <time>2024-07-12T09:45:24.833Z</time>
      </trkpt>
      <trkpt lat="53.21245" lon="7.59755">
        <ele>46.500116</ele>
        <time>2024-07-12T09:45:27.820Z</time>
      </trkpt>
      <trkpt lat="53.21254" lon="7.5977">
        <ele>46.41994</ele>
        <time>2024-07-12T09:45:30.856Z</time>
      </trkpt>
      <trkpt lat="53.21262" lon="7.59784">
        <ele>46.345857</ele>
        <time>2024-07-12T09:45:33.821Z</time>
      </trkpt>
      <trkpt lat="53.2127" lon="7.59799">
        <ele>46.269304</ele>
        <time>2024-07-12T09:45:36.822Z</time>
      </trkpt>
      <trkpt lat="53.21278" lon="7.59814">
        <ele>46.192895</ele>
        <time>2024-07-12T09:45:39.858Z</time>
      </trkpt>
      <trkpt lat="53.21286" lon="7.5983">
        <ele>46.11564</ele>
        <time>2024-07-12T09:45:42.817Z</time>
      </trkpt>
      <trkpt lat="53.21294" lon="7.59845">
        <ele>46.040058</ele>
        <time>2024-07-12T09:45:45.855Z</time>
      </trkpt>
      <trkpt lat="53.21302" lon="7.59861">
        <ele>45.961816</ele>
        <time>2024-07-12T09:45:48.845Z</time>
      </trkpt>
      <trkpt lat="53.21309" lon="7.59878">
        <ele>45.88421</ele>
        <time>2024-07-12T09:45:51.852Z</time>
      </trkpt>
      <trkpt lat="53.21317" lon="7.59895">
        <ele>45.803576</ele>
        <time>2024-07-12T09:45:54.846Z</time>
      </trkpt>
      <trkpt lat="53.21324" lon="7.59911">
        <ele>45.724645</ele>
        <time>2024-07-12T09:45:57.838Z</time>
      </trkpt>
      <trkpt lat="53.21332" lon="7.59927">
        <ele>45.652425</ele>
        <time>2024-07-12T09:46:00.849Z</time>
      </trkpt>
      <trkpt lat="53.21339" lon="7.59944">
        <ele>45.709863</ele>
        <time>2024-07-12T09:46:03.839Z</time>
      </trkpt>
      <trkpt lat="53.21346" lon="7.59961">
        <ele>45.766849</ele>
        <time>2024-07-12T09:46:06.849Z</time>
      </trkpt>
      <trkpt lat="53.21354" lon="7.59976">
        <ele>45.822471</ele>
        <time>2024-07-12T09:46:09.842Z</time>
      </trkpt>
      <trkpt lat="53.21362" lon="7.59993">
        <ele>45.881522</ele>
        <time>2024-07-12T09:46:12.847Z</time>
      </trkpt>
      <trkpt lat="53.2137" lon="7.6001">
        <ele>45.941433</ele>
        <time>2024-07-12T09:46:15.864Z</time>
      </trkpt>
      <trkpt lat="53.21377" lon="7.60026">
        <ele>45.99998</ele>
        <time>2024-07-12T09:46:18.854Z</time>
      </trkpt>
      <trkpt lat="53.21384" lon="7.60043">
        <ele>46.057916</ele>
        <time>2024-07-12T09:46:21.817Z</time>
      </trkpt>
      <trkpt lat="53.21392" lon="7.60059">
        <ele>46.113839</ele>
        <time>2024-07-12T09:46:24.854Z</time>
      </trkpt>
      <trkpt lat="53.21399" lon="7.60075">
        <ele>46.171061</ele>
        <time>2024-07-12T09:46:27.841Z</time>
      </trkpt>
      <trkpt lat="53.21408" lon="7.60091">
        <ele>46.230358</ele>
        <time>2024-07-12T09:46:30.850Z</time>
      </trkpt>
      <trkpt lat="53.21415" lon="7.60108">
        <ele>46.289126</ele>
        <time>2024-07-12T09:46:33.856Z</time>
      </trkpt>
      <trkpt lat="53.21423" lon="7.60126">
        <ele>46.350862</ele>
        <time>2024-07-12T09:46:36.853Z</time>
      </trkpt>
      <trkpt lat="53.21431" lon="7.60142">
        <ele>46.407847</ele>
        <time>2024-07-12T09:46:39.868Z</time>
      </trkpt>
      <trkpt lat="53.21439" lon="7.60159">
        <ele>46.468266</ele>
        <time>2024-07-12T09:46:42.837Z</time>
      </trkpt>
      <trkpt lat="53.21446" lon="7.60177">
        <ele>46.512623</ele>
        <time>2024-07-12T09:46:45.854Z</time>
      </trkpt>
      <trkpt lat="53.21452" lon="7.60194">
        <ele>46.546817</ele>
        <time>2024-07-12T09:46:48.841Z</time>
      </trkpt>
      <trkpt lat="53.21458" lon="7.60211">
        <ele>46.580925</ele>
        <time>2024-07-12T09:46:51.836Z</time>
      </trkpt>
      <trkpt lat="53.21463" lon="7.6023">
        <ele>46.616463</ele>
        <time>2024-07-12T09:46:54.844Z</time>
      </trkpt>
      <trkpt lat="53.21469" lon="7.60249">
        <ele>46.651969</ele>
        <time>2024-07-12T09:46:57.858Z</time>
      </trkpt>
      <trkpt lat="53.21472" lon="7.60263">
        <ele>46.677833</ele>
        <time>2024-07-12T09:46:59.846Z</time>
      </trkpt>
      <trkpt lat="53.21478" lon="7.60282">
        <ele>46.714712</ele>
        <time>2024-07-12T09:47:02.827Z</time>
      </trkpt>
      <trkpt lat="53.21484" lon="7.60301">
        <ele>46.75013</ele>
        <time>2024-07-12T09:47:05.840Z</time>
      </trkpt>
      <trkpt lat="53.21489" lon="7.60319">
        <ele>46.784383</ele>
        <time>2024-07-12T09:47:08.835Z</time>
      </trkpt>
      <trkpt lat="53.21494" lon="7.60337">
        <ele>46.81848</ele>
        <time>2024-07-12T09:47:11.823Z</time>
      </trkpt>
      <trkpt lat="53.21499" lon="7.60355">
        <ele>46.852891</ele>
        <time>2024-07-12T09:47:14.827Z</time>
      </trkpt>
      <trkpt lat="53.21504" lon="7.60374">
        <ele>46.88809</ele>
        <time>2024-07-12T09:47:17.840Z</time>
      </trkpt>
      <trkpt lat="53.2151" lon="7.60392">
        <ele>46.922933</ele>
        <time>2024-07-12T09:47:20.854Z</time>
      </trkpt>
      <trkpt lat="53.21515" lon="7.60411">
        <ele>46.957548</ele>
        <time>2024-07-12T09:47:23.847Z</time>
      </trkpt>
      <trkpt lat="53.2152" lon="7.60429">
        <ele>46.991101</ele>
        <time>2024-07-12T09:47:26.840Z</time>
      </trkpt>
      <trkpt lat="53.21525" lon="7.60445">
        <ele>46.991897</ele>
        <time>2024-07-12T09:47:29.844Z</time>
      </trkpt>
      <trkpt lat="53.21529" lon="7.60462">
        <ele>46.980277</ele>
        <time>2024-07-12T09:47:32.827Z</time>
      </trkpt>
      <trkpt lat="53.21534" lon="7.6048">
        <ele>46.968317</ele>
        <time>2024-07-12T09:47:35.841Z</time>
      </trkpt>
      <trkpt lat="53.2154" lon="7.60497">
        <ele>46.956385</ele>
        <time>2024-07-12T09:47:38.831Z</time>
      </trkpt>
      <trkpt lat="53.21544" lon="7.60514">
        <ele>46.944891</ele>
        <time>2024-07-12T09:47:41.845Z</time>
      </trkpt>
      <trkpt lat="53.21549" lon="7.6053">
        <ele>46.933875</ele>
        <time>2024-07-12T09:47:44.841Z</time>
      </trkpt>
      <trkpt lat="53.21553" lon="7.60545">
        <ele>46.923405</ele>
        <time>2024-07-12T09:47:47.841Z</time>
      </trkpt>
      <trkpt lat="53.21558" lon="7.60562">
        <ele>46.912362</ele>
        <time>2024-07-12T09:47:50.863Z</time>
      </trkpt>
      <trkpt lat="53.21562" lon="7.60577">
        <ele>46.902203</ele>
        <time>2024-07-12T09:47:53.845Z</time>
      </trkpt>
      <trkpt lat="53.21566" lon="7.6059">
        <ele>46.892831</ele>
        <time>2024-07-12T09:47:56.857Z</time>
      </trkpt>
      <trkpt lat="53.21571" lon="7.60605">
        <ele>46.88238</ele>
        <time>2024-07-12T09:47:59.859Z</time>
      </trkpt>
      <trkpt lat="53.21575" lon="7.60621">
        <ele>46.871562</ele>
        <time>2024-07-12T09:48:02.847Z</time>
      </trkpt>
      <trkpt lat="53.2158" lon="7.60637">
        <ele>46.860947</ele>
        <time>2024-07-12T09:48:05.851Z</time>
      </trkpt>
      <trkpt lat="53.21584" lon="7.60653">
        <ele>46.850098</ele>
        <time>2024-07-12T09:48:08.861Z</time>
      </trkpt>
      <trkpt lat="53.21588" lon="7.60669">
        <ele>46.838925</ele>
        <time>2024-07-12T09:48:11.841Z</time>
      </trkpt>
      <trkpt lat="53.21593" lon="7.60685">
        <ele>46.828059</ele>
        <time>2024-07-12T09:48:14.848Z</time>
      </trkpt>
      <trkpt lat="53.21598" lon="7.60701">
        <ele>46.817121</ele>
        <time>2024-07-12T09:48:17.839Z</time>
      </trkpt>
      <trkpt lat="53.21602" lon="7.60718">
        <ele>46.785986</ele>
        <time>2024-07-12T09:48:20.844Z</time>
      </trkpt>
      <trkpt lat="53.21607" lon="7.60734">
        <ele>46.748522</ele>
        <time>2024-07-12T09:48:23.845Z</time>
      </trkpt>
      <trkpt lat="53.21612" lon="7.60752">
        <ele>46.707932</ele>
        <time>2024-07-12T09:48:26.839Z</time>
      </trkpt>
      <trkpt lat="53.21617" lon="7.60768">
        <ele>46.670866</ele>
        <time>2024-07-12T09:48:29.835Z</time>
      </trkpt>
      <trkpt lat="53.21621" lon="7.60784">
        <ele>46.634797</ele>
        <time>2024-07-12T09:48:32.846Z</time>
      </trkpt>
      <trkpt lat="53.21626" lon="7.608">
        <ele>46.599301</ele>
        <time>2024-07-12T09:48:35.851Z</time>
      </trkpt>
      <trkpt lat="53.21631" lon="7.60816">
        <ele>46.561654</ele>
        <time>2024-07-12T09:48:38.845Z</time>
      </trkpt>
      <trkpt lat="53.21636" lon="7.60833">
        <ele>46.523751</ele>
        <time>2024-07-12T09:48:41.854Z</time>
      </trkpt>
      <trkpt lat="53.21641" lon="7.60851">
        <ele>46.484085</ele>
        <time>2024-07-12T09:48:44.841Z</time>
      </trkpt>
      <trkpt lat="53.21646" lon="7.60869">
        <ele>46.444012</ele>
        <time>2024-07-12T09:48:47.849Z</time>
      </trkpt>
      <trkpt lat="53.21651" lon="7.60886">
        <ele>46.404488</ele>
        <time>2024-07-12T09:48:50.864Z</time>
      </trkpt>
      <trkpt lat="53.21656" lon="7.60903">
        <ele>46.365004</ele>
        <time>2024-07-12T09:48:53.860Z</time>
      </trkpt>
      <trkpt lat="53.21661" lon="7.60921">
        <ele>46.325294</ele>
        <time>2024-07-12T09:48:56.825Z</time>
      </trkpt>
      <trkpt lat="53.21666" lon="7.6094">
        <ele>46.28479</ele>
        <time>2024-07-12T09:48:59.849Z</time>
      </trkpt>
      <trkpt lat="53.21671" lon="7.60957">
        <ele>46.246264</ele>
        <time>2024-07-12T09:49:02.846Z</time>
      </trkpt>
      <trkpt lat="53.21676" lon="7.60974">
        <ele>46.205856</ele>
        <time>2024-07-12T09:49:05.849Z</time>
      </trkpt>
      <trkpt lat="53.21681" lon="7.60992">
        <ele>46.229171</ele>
        <time>2024-07-12T09:49:08.844Z</time>
      </trkpt>
      <trkpt lat="53.21687" lon="7.6101">
        <ele>46.256316</ele>
        <time>2024-07-12T09:49:11.848Z</time>
      </trkpt>
      <trkpt lat="53.21691" lon="7.61027">
        <ele>46.282631</ele>
        <time>2024-07-12T09:49:14.845Z</time>
      </trkpt>
      <trkpt lat="53.21697" lon="7.61044">
        <ele>46.308941</ele>
        <time>2024-07-12T09:49:17.838Z</time>
      </trkpt>
      <trkpt lat="53.21702" lon="7.61063">
        <ele>46.336576</ele>
        <time>2024-07-12T09:49:20.849Z</time>
      </trkpt>
      <trkpt lat="53.21707" lon="7.61081">
        <ele>46.364541</ele>
        <time>2024-07-12T09:49:23.851Z</time>
      </trkpt>
      <trkpt lat="53.21712" lon="7.611">
        <ele>46.3927</ele>
        <time>2024-07-12T09:49:26.858Z</time>
      </trkpt>
      <trkpt lat="53.21715" lon="7.61119">
        <ele>46.419333</ele>
        <time>2024-07-12T09:49:29.858Z</time>
      </trkpt>
      <trkpt lat="53.21719" lon="7.61138">
        <ele>46.446155</ele>
        <time>2024-07-12T09:49:32.839Z</time>
      </trkpt>
      <trkpt lat="53.21722" lon="7.61157">
        <ele>46.473632</ele>
        <time>2024-07-12T09:49:35.843Z</time>
      </trkpt>
      <trkpt lat="53.21725" lon="7.61175">
        <ele>46.498573</ele>
        <time>2024-07-12T09:49:38.863Z</time>
      </trkpt>
      <trkpt lat="53.21728" lon="7.61192">
        <ele>46.523514</ele>
        <time>2024-07-12T09:49:41.848Z</time>
      </trkpt>
      <trkpt lat="53.21731" lon="7.61211">
        <ele>46.549808</ele>
        <time>2024-07-12T09:49:44.857Z</time>
      </trkpt>
      <trkpt lat="53.21735" lon="7.6123">
        <ele>46.57728</ele>
        <time>2024-07-12T09:49:47.843Z</time>
      </trkpt>
      <trkpt lat="53.21738" lon="7.61251">
        <ele>46.60652</ele>
        <time>2024-07-12T09:49:50.854Z</time>
      </trkpt>
      <trkpt lat="53.21741" lon="7.6127">
        <ele>46.618931</ele>
        <time>2024-07-12T09:49:53.846Z</time>
      </trkpt>
      <trkpt lat="53.21745" lon="7.61291">
        <ele>46.626415</ele>
        <time>2024-07-12T09:49:56.853Z</time>
      </trkpt>
      <trkpt lat="53.21748" lon="7.61311">
        <ele>46.633638</ele>
        <time>2024-07-12T09:49:59.842Z</time>
      </trkpt>
      <trkpt lat="53.21752" lon="7.61331">
        <ele>46.640991</ele>
        <time>2024-07-12T09:50:02.830Z</time>
      </trkpt>
      <trkpt lat="53.21756" lon="7.61353">
        <ele>46.648622</ele>
        <time>2024-07-12T09:50:05.845Z</time>
      </trkpt>
      <trkpt lat="53.21759" lon="7.61373">
        <ele>46.655944</ele>
        <time>2024-07-12T09:50:08.848Z</time>
      </trkpt>
      <trkpt lat="53.21762" lon="7.61394">
        <ele>46.663138</ele>
        <time>2024-07-12T09:50:11.844Z</time>
      </trkpt>
      <trkpt lat="53.21765" lon="7.61408">
        <ele>46.668396</ele>
        <time>2024-07-12T09:50:13.841Z</time>
      </trkpt>
      <trkpt lat="53.21768" lon="7.61429">
        <ele>46.675994</ele>
        <time>2024-07-12T09:50:16.848Z</time>
      </trkpt>
      <trkpt lat="53.21772" lon="7.6145">
        <ele>46.683395</ele>
        <time>2024-07-12T09:50:19.842Z</time>
      </trkpt>
      <trkpt lat="53.21775" lon="7.61465">
        <ele>46.688619</ele>
        <time>2024-07-12T09:50:21.838Z</time>
      </trkpt>
      <trkpt lat="53.21779" lon="7.61484">
        <ele>46.695698</ele>
        <time>2024-07-12T09:50:24.840Z</time>
      </trkpt>
      <trkpt lat="53.21783" lon="7.61504">
        <ele>46.7029</ele>
        <time>2024-07-12T09:50:27.812Z</time>
      </trkpt>
      <trkpt lat="53.21786" lon="7.61524">
        <ele>46.710053</ele>
        <time>2024-07-12T09:50:30.825Z</time>
      </trkpt>
      <trkpt lat="53.21789" lon="7.61544">
        <ele>46.71742</ele>
        <time>2024-07-12T09:50:33.842Z</time>
      </trkpt>
      <trkpt lat="53.21793" lon="7.61565">
        <ele>46.727113</ele>
        <time>2024-07-12T09:50:36.821Z</time>
      </trkpt>
      <trkpt lat="53.21796" lon="7.61586">
        <ele>46.73709</ele>
        <time>2024-07-12T09:50:39.841Z</time>
      </trkpt>
      <trkpt lat="53.218" lon="7.61606">
        <ele>46.747046</ele>
        <time>2024-07-12T09:50:42.840Z</time>
      </trkpt>
      <trkpt lat="53.21803" lon="7.61625">
        <ele>46.755987</ele>
        <time>2024-07-12T09:50:45.845Z</time>
      </trkpt>
      <trkpt lat="53.21807" lon="7.61643">
        <ele>46.764749</ele>
        <time>2024-07-12T09:50:48.842Z</time>
      </trkpt>
      <trkpt lat="53.21811" lon="7.61664">
        <ele>46.774685</ele>
        <time>2024-07-12T09:50:51.838Z</time>
      </trkpt>
      <trkpt lat="53.21814" lon="7.61684">
        <ele>46.784487</ele>
        <time>2024-07-12T09:50:54.847Z</time>
      </trkpt>
      <trkpt lat="53.21817" lon="7.61705">
        <ele>46.794532</ele>
        <time>2024-07-12T09:50:57.862Z</time>
      </trkpt>
      <trkpt lat="53.21821" lon="7.61725">
        <ele>46.804113</ele>
        <time>2024-07-12T09:51:00.852Z</time>
      </trkpt>
      <trkpt lat="53.21825" lon="7.61745">
        <ele>46.813805</ele>
        <time>2024-07-12T09:51:03.839Z</time>
      </trkpt>
      <trkpt lat="53.21828" lon="7.61766">
        <ele>46.823765</ele>
        <time>2024-07-12T09:51:06.817Z</time>
      </trkpt>
      <trkpt lat="53.21831" lon="7.61784">
        <ele>46.832285</ele>
        <time>2024-07-12T09:51:09.848Z</time>
      </trkpt>
      <trkpt lat="53.21834" lon="7.61802">
        <ele>46.84094</ele>
        <time>2024-07-12T09:51:12.837Z</time>
      </trkpt>
      <trkpt lat="53.21838" lon="7.61822">
        <ele>46.850806</ele>
        <time>2024-07-12T09:51:15.855Z</time>
      </trkpt>
      <trkpt lat="53.21841" lon="7.61842">
        <ele>46.844822</ele>
        <time>2024-07-12T09:51:18.850Z</time>
      </trkpt>
      <trkpt lat="53.21845" lon="7.61863">
        <ele>46.82153</ele>
        <time>2024-07-12T09:51:21.820Z</time>
      </trkpt>
      <trkpt lat="53.21848" lon="7.61883">
        <ele>46.798668</ele>
        <time>2024-07-12T09:51:24.840Z</time>
      </trkpt>
      <trkpt lat="53.21852" lon="7.61904">
        <ele>46.775499</ele>
        <time>2024-07-12T09:51:27.859Z</time>
      </trkpt>
      <trkpt lat="53.21856" lon="7.61924">
        <ele>46.752793</ele>
        <time>2024-07-12T09:51:30.850Z</time>
      </trkpt>
      <trkpt lat="53.21859" lon="7.61946">
        <ele>46.728844</ele>
        <time>2024-07-12T09:51:33.862Z</time>
      </trkpt>
      <trkpt lat="53.21863" lon="7.61967">
        <ele>46.705314</ele>
        <time>2024-07-12T09:51:36.857Z</time>
      </trkpt>
      <trkpt lat="53.21867" lon="7.61988">
        <ele>46.681769</ele>
        <time>2024-07-12T09:51:39.857Z</time>
      </trkpt>
      <trkpt lat="53.2187" lon="7.62009">
        <ele>46.658235</ele>
        <time>2024-07-12T09:51:42.839Z</time>
      </trkpt>
      <trkpt lat="53.21874" lon="7.6203">
        <ele>46.63491</ele>
        <time>2024-07-12T09:51:45.857Z</time>
      </trkpt>
      <trkpt lat="53.21877" lon="7.62051">
        <ele>46.61168</ele>
        <time>2024-07-12T09:51:48.853Z</time>
      </trkpt>
      <trkpt lat="53.21878" lon="7.62071">
        <ele>46.589929</ele>
        <time>2024-07-12T09:51:51.835Z</time>
      </trkpt>
      <trkpt lat="53.21878" lon="7.62092">
        <ele>46.56682</ele>
        <time>2024-07-12T09:51:54.854Z</time>
      </trkpt>
      <trkpt lat="53.21876" lon="7.62114">
        <ele>46.542572</ele>
        <time>2024-07-12T09:51:57.831Z</time>
      </trkpt>
      <trkpt lat="53.21873" lon="7.62129">
        <ele>46.56169</ele>
        <time>2024-07-12T09:51:59.846Z</time>
      </trkpt>
      <trkpt lat="53.21868" lon="7.62148">
        <ele>46.663728</ele>
        <time>2024-07-12T09:52:02.836Z</time>
      </trkpt>
      <trkpt lat="53.21863" lon="7.62167">
        <ele>46.765098</ele>
        <time>2024-07-12T09:52:05.843Z</time>
      </trkpt>
      <trkpt lat="53.21857" lon="7.62186">
        <ele>46.868097</ele>
        <time>2024-07-12T09:52:08.853Z</time>
      </trkpt>
      <trkpt lat="53.21852" lon="7.62205">
        <ele>46.974613</ele>
        <time>2024-07-12T09:52:11.851Z</time>
      </trkpt>
      <trkpt lat="53.21846" lon="7.62226">
        <ele>47.083951</ele>
        <time>2024-07-12T09:52:14.859Z</time>
      </trkpt>
      <trkpt lat="53.2184" lon="7.62245">
        <ele>47.192778</ele>
        <time>2024-07-12T09:52:17.866Z</time>
      </trkpt>
      <trkpt lat="53.21834" lon="7.62264">
        <ele>47.29534</ele>
        <time>2024-07-12T09:52:20.847Z</time>
      </trkpt>
      <trkpt lat="53.21828" lon="7.62284">
        <ele>47.402928</ele>
        <time>2024-07-12T09:52:23.859Z</time>
      </trkpt>
      <trkpt lat="53.21823" lon="7.62303">
        <ele>47.508404</ele>
        <time>2024-07-12T09:52:26.858Z</time>
      </trkpt>
      <trkpt lat="53.21817" lon="7.62323">
        <ele>47.613956</ele>
        <time>2024-07-12T09:52:29.838Z</time>
      </trkpt>
      <trkpt lat="53.21811" lon="7.62342">
        <ele>47.716242</ele>
        <time>2024-07-12T09:52:32.840Z</time>
      </trkpt>
      <trkpt lat="53.21805" lon="7.6236">
        <ele>47.818545</ele>
        <time>2024-07-12T09:52:35.858Z</time>
      </trkpt>
      <trkpt lat="53.218" lon="7.62379">
        <ele>47.919696</ele>
        <time>2024-07-12T09:52:38.859Z</time>
      </trkpt>
      <trkpt lat="53.21795" lon="7.62397">
        <ele>48.000727</ele>
        <time>2024-07-12T09:52:41.857Z</time>
      </trkpt>
      <trkpt lat="53.21789" lon="7.62417">
        <ele>48.004196</ele>
        <time>2024-07-12T09:52:44.831Z</time>
      </trkpt>
      <trkpt lat="53.21782" lon="7.62437">
        <ele>48.007819</ele>
        <time>2024-07-12T09:52:47.861Z</time>
      </trkpt>
      <trkpt lat="53.21777" lon="7.62457">
        <ele>48.011269</ele>
        <time>2024-07-12T09:52:50.858Z</time>
      </trkpt>
      <trkpt lat="53.21771" lon="7.62476">
        <ele>48.014742</ele>
        <time>2024-07-12T09:52:53.858Z</time>
      </trkpt>
      <trkpt lat="53.21766" lon="7.62496">
        <ele>48.018261</ele>
        <time>2024-07-12T09:52:56.852Z</time>
      </trkpt>
      <trkpt lat="53.21762" lon="7.6251">
        <ele>48.020787</ele>
        <time>2024-07-12T09:52:58.850Z</time>
      </trkpt>
      <trkpt lat="53.21757" lon="7.62524">
        <ele>48.023253</ele>
        <time>2024-07-12T09:53:00.851Z</time>
      </trkpt>
      <trkpt lat="53.21751" lon="7.62544">
        <ele>48.026862</ele>
        <time>2024-07-12T09:53:03.830Z</time>
      </trkpt>
      <trkpt lat="53.21746" lon="7.62564">
        <ele>48.030376</ele>
        <time>2024-07-12T09:53:06.849Z</time>
      </trkpt>
      <trkpt lat="53.2174" lon="7.62583">
        <ele>48.033736</ele>
        <time>2024-07-12T09:53:09.852Z</time>
      </trkpt>
      <trkpt lat="53.21734" lon="7.62603">
        <ele>48.037305</ele>
        <time>2024-07-12T09:53:12.827Z</time>
      </trkpt>
      <trkpt lat="53.21732" lon="7.62618">
        <ele>48.039768</ele>
        <time>2024-07-12T09:53:14.848Z</time>
      </trkpt>
      <trkpt lat="53.21734" lon="7.62633">
        <ele>48.042189</ele>
        <time>2024-07-12T09:53:16.845Z</time>
      </trkpt>
      <trkpt lat="53.21742" lon="7.6265">
        <ele>48.045605</ele>
        <time>2024-07-12T09:53:19.837Z</time>
      </trkpt>
      <trkpt lat="53.21752" lon="7.62664">
        <ele>48.039664</ele>
        <time>2024-07-12T09:53:22.836Z</time>
      </trkpt>
      <trkpt lat="53.21762" lon="7.62676">
        <ele>48.0156</ele>
        <time>2024-07-12T09:53:25.850Z</time>
      </trkpt>
      <trkpt lat="53.21773" lon="7.62689">
        <ele>47.99045</ele>
        <time>2024-07-12T09:53:28.848Z</time>
      </trkpt>
      <trkpt lat="53.21783" lon="7.62702">
        <ele>47.96583</ele>
        <time>2024-07-12T09:53:31.858Z</time>
      </trkpt>
      <trkpt lat="53.21793" lon="7.62714">
        <ele>47.9416</ele>
        <time>2024-07-12T09:53:34.852Z</time>
      </trkpt>
      <trkpt lat="53.21803" lon="7.62725">
        <ele>47.918237</ele>
        <time>2024-07-12T09:53:37.859Z</time>
      </trkpt>
      <trkpt lat="53.21813" lon="7.62736">
        <ele>47.89606</ele>
        <time>2024-07-12T09:53:40.841Z</time>
      </trkpt>
      <trkpt lat="53.21822" lon="7.62747">
        <ele>47.874532</ele>
        <time>2024-07-12T09:53:43.859Z</time>
      </trkpt>
      <trkpt lat="53.21831" lon="7.62759">
        <ele>47.852809</ele>
        <time>2024-07-12T09:53:46.854Z</time>
      </trkpt>
      <trkpt lat="53.2184" lon="7.62769">
        <ele>47.831239</ele>
        <time>2024-07-12T09:53:49.859Z</time>
      </trkpt>
      <trkpt lat="53.21849" lon="7.62781">
        <ele>47.809823</ele>
        <time>2024-07-12T09:53:52.843Z</time>
      </trkpt>
      <trkpt lat="53.21858" lon="7.62792">
        <ele>47.788251</ele>
        <time>2024-07-12T09:53:55.855Z</time>
      </trkpt>
      <trkpt lat="53.21867" lon="7.62803">
        <ele>47.76581</ele>
        <time>2024-07-12T09:53:58.862Z</time>
      </trkpt>
      <trkpt lat="53.21877" lon="7.62815">
        <ele>47.742224</ele>
        <time>2024-07-12T09:54:01.853Z</time>
      </trkpt>
      <trkpt lat="53.21887" lon="7.62827">
        <ele>47.719094</ele>
        <time>2024-07-12T09:54:04.849Z</time>
      </trkpt>
      <trkpt lat="53.21897" lon="7.62839">
        <ele>47.728267</ele>
        <time>2024-07-12T09:54:07.841Z</time>
      </trkpt>
      <trkpt lat="53.21906" lon="7.6285">
        <ele>47.818033</ele>
        <time>2024-07-12T09:54:10.845Z</time>
      </trkpt>
      <trkpt lat="53.21916" lon="7.62862">
        <ele>47.913853</ele>
        <time>2024-07-12T09:54:13.845Z</time>
      </trkpt>
      <trkpt lat="53.21926" lon="7.62873">
        <ele>48.008901</ele>
        <time>2024-07-12T09:54:16.850Z</time>
      </trkpt>
      <trkpt lat="53.21935" lon="7.62884">
        <ele>48.101394</ele>
        <time>2024-07-12T09:54:19.855Z</time>
      </trkpt>
      <trkpt lat="53.21945" lon="7.62896">
        <ele>48.194451</ele>
        <time>2024-07-12T09:54:22.855Z</time>
      </trkpt>
      <trkpt lat="53.21954" lon="7.62908">
        <ele>48.287377</ele>
        <time>2024-07-12T09:54:25.858Z</time>
      </trkpt>
      <trkpt lat="53.21964" lon="7.62918">
        <ele>48.381262</ele>
        <time>2024-07-12T09:54:28.856Z</time>
      </trkpt>
      <trkpt lat="53.21973" lon="7.62931">
        <ele>48.475104</ele>
        <time>2024-07-12T09:54:31.837Z</time>
      </trkpt>
      <trkpt lat="53.21982" lon="7.62943">
        <ele>48.568101</ele>
        <time>2024-07-12T09:54:34.843Z</time>
      </trkpt>
      <trkpt lat="53.21991" lon="7.62953">
        <ele>48.654051</ele>
        <time>2024-07-12T09:54:37.842Z</time>
      </trkpt>
      <trkpt lat="53.22" lon="7.62964">
        <ele>48.741301</ele>
        <time>2024-07-12T09:54:40.847Z</time>
      </trkpt>
      <trkpt lat="53.2201" lon="7.62975">
        <ele>48.8345</ele>
        <time>2024-07-12T09:54:43.859Z</time>
      </trkpt>
      <trkpt lat="53.2202" lon="7.62985">
        <ele>48.926378</ele>
        <time>2024-07-12T09:54:46.841Z</time>
      </trkpt>
      <trkpt lat="53.2203" lon="7.62995">
        <ele>49.017465</ele>
        <time>2024-07-12T09:54:49.850Z</time>
      </trkpt>
      <trkpt lat="53.22039" lon="7.63006">
        <ele>49.110692</ele>
        <time>2024-07-12T09:54:52.829Z</time>
      </trkpt>
      <trkpt lat="53.2205" lon="7.63015">
        <ele>49.135832</ele>
        <time>2024-07-12T09:54:55.841Z</time>
      </trkpt>
      <trkpt lat="53.22059" lon="7.63025">
        <ele>49.143613</ele>
        <time>2024-07-12T09:54:58.841Z</time>
      </trkpt>
      <trkpt lat="53.22069" lon="7.63033">
        <ele>49.151226</ele>
        <time>2024-07-12T09:55:01.853Z</time>
      </trkpt>
      <trkpt lat="53.22079" lon="7.63043">
        <ele>49.159037</ele>
        <time>2024-07-12T09:55:04.858Z</time>
      </trkpt>
      <trkpt lat="53.22089" lon="7.63053">
        <ele>49.166726</ele>
        <time>2024-07-12T09:55:07.846Z</time>
      </trkpt>
      <trkpt lat="53.22099" lon="7.63062">
        <ele>49.174574</ele>
        <time>2024-07-12T09:55:10.863Z</time>
      </trkpt>
      <trkpt lat="53.22109" lon="7.63071">
        <ele>49.18191</ele>
        <time>2024-07-12T09:55:13.844Z</time>
      </trkpt>
      <trkpt lat="53.22118" lon="7.6308">
        <ele>49.189441</ele>
        <time>2024-07-12T09:55:16.853Z</time>
      </trkpt>
      <trkpt lat="53.22129" lon="7.6309">
        <ele>49.197661</ele>
        <time>2024-07-12T09:55:19.845Z</time>
      </trkpt>
      <trkpt lat="53.22137" lon="7.63097">
        <ele>49.203774</ele>
        <time>2024-07-12T09:55:21.833Z</time>
      </trkpt>
      <trkpt lat="53.22147" lon="7.63108">
        <ele>49.212075</ele>
        <time>2024-07-12T09:55:24.846Z</time>
      </trkpt>
      <trkpt lat="53.22158" lon="7.63117">
        <ele>49.219981</ele>
        <time>2024-07-12T09:55:27.842Z</time>
      </trkpt>
      <trkpt lat="53.22168" lon="7.63126">
        <ele>49.227611</ele>
        <time>2024-07-12T09:55:30.848Z</time>
      </trkpt>
      <trkpt lat="53.22177" lon="7.63135">
        <ele>49.235142</ele>
        <time>2024-07-12T09:55:33.858Z</time>
      </trkpt>
      <trkpt lat="53.22187" lon="7.63144">
        <ele>49.24297</ele>
        <time>2024-07-12T09:55:36.848Z</time>
      </trkpt>
      <trkpt lat="53.22197" lon="7.63154">
        <ele>49.250759</ele>
        <time>2024-07-12T09:55:39.841Z</time>
      </trkpt>
      <trkpt lat="53.22207" lon="7.63162">
        <ele>49.338184</ele>
        <time>2024-07-12T09:55:42.837Z</time>
      </trkpt>
      <trkpt lat="53.22214" lon="7.63174">
        <ele>49.422205</ele>
        <time>2024-07-12T09:55:45.837Z</time>
      </trkpt>
      <trkpt lat="53.22215" lon="7.63189">
        <ele>49.500719</ele>
        <time>2024-07-12T09:55:48.839Z</time>
      </trkpt>
      <trkpt lat="53.22212" lon="7.63207">
        <ele>49.59465</ele>
        <time>2024-07-12T09:55:52.857Z</time>
      </trkpt>
      <trkpt lat="53.22211" lon="7.63225">
        <ele>49.684592</ele>
        <time>2024-07-12T09:56:04.833Z</time>
      </trkpt>
      <trkpt lat="53.2221" lon="7.63243">
        <ele>49.777432</ele>
        <time>2024-07-12T09:56:09.833Z</time>
      </trkpt>
      <trkpt lat="53.22209" lon="7.63258">
        <ele>49.855226</ele>
        <time>2024-07-12T09:56:12.819Z</time>
      </trkpt>
      <trkpt lat="53.22208" lon="7.63274">
        <ele>49.936074</ele>
        <time>2024-07-12T09:56:15.838Z</time>
      </trkpt>
      <trkpt lat="53.22207" lon="7.63291">
        <ele>50.024746</ele>
        <time>2024-07-12T09:56:18.852Z</time>
      </trkpt>
      <trkpt lat="53.22206" lon="7.6331">
        <ele>50.120964</ele>
        <time>2024-07-12T09:56:21.818Z</time>
      </trkpt>
      <trkpt lat="53.22204" lon="7.63328">
        <ele>50.218201</ele>
        <time>2024-07-12T09:56:24.847Z</time>
      </trkpt>
      <trkpt lat="53.22202" lon="7.63349">
        <ele>50.326215</ele>
        <time>2024-07-12T09:56:27.844Z</time>
      </trkpt>
      <trkpt lat="53.222" lon="7.63369">
        <ele>50.429495</ele>
        <time>2024-07-12T09:56:30.862Z</time>
      </trkpt>
      <trkpt lat="53.22196" lon="7.63388">
        <ele>50.532514</ele>
        <time>2024-07-12T09:56:33.832Z</time>
      </trkpt>
      <trkpt lat="53.22192" lon="7.63407">
        <ele>50.635578</ele>
        <time>2024-07-12T09:56:36.825Z</time>
      </trkpt>
      <trkpt lat="53.22188" lon="7.63427">
        <ele>50.739678</ele>
        <time>2024-07-12T09:56:39.832Z</time>
      </trkpt>
      <trkpt lat="53.22185" lon="7.63447">
        <ele>50.770973</ele>
        <time>2024-07-12T09:56:42.821Z</time>
      </trkpt>
      <trkpt lat="53.22181" lon="7.63468">
        <ele>50.736428</ele>
        <time>2024-07-12T09:56:45.845Z</time>
      </trkpt>
      <trkpt lat="53.22177" lon="7.63487">
        <ele>50.703032</ele>
        <time>2024-07-12T09:56:48.862Z</time>
      </trkpt>
      <trkpt lat="53.22174" lon="7.63508">
        <ele>50.668748</ele>
        <time>2024-07-12T09:56:51.837Z</time>
      </trkpt>
      <trkpt lat="53.2217" lon="7.63529">
        <ele>50.633241</ele>
        <time>2024-07-12T09:56:54.863Z</time>
      </trkpt>
      <trkpt lat="53.22167" lon="7.6355">
        <ele>50.597847</ele>
        <time>2024-07-12T09:56:57.857Z</time>
      </trkpt>
      <trkpt lat="53.22163" lon="7.63571">
        <ele>50.562517</ele>
        <time>2024-07-12T09:57:00.844Z</time>
      </trkpt>
      <trkpt lat="53.22161" lon="7.63586">
        <ele>50.537762</ele>
        <time>2024-07-12T09:57:02.831Z</time>
      </trkpt>
      <trkpt lat="53.22158" lon="7.63608">
        <ele>50.501693</ele>
        <time>2024-07-12T09:57:05.853Z</time>
      </trkpt>
      <trkpt lat="53.22154" lon="7.63629">
        <ele>50.465836</ele>
        <time>2024-07-12T09:57:08.861Z</time>
      </trkpt>
      <trkpt lat="53.2215" lon="7.63649">
        <ele>50.431414</ele>
        <time>2024-07-12T09:57:11.841Z</time>
      </trkpt>
      <trkpt lat="53.22144" lon="7.63669">
        <ele>50.396308</ele>
        <time>2024-07-12T09:57:14.823Z</time>
      </trkpt>
      <trkpt lat="53.22136" lon="7.63687">
        <ele>50.359642</ele>
        <time>2024-07-12T09:57:17.839Z</time>
      </trkpt>
      <trkpt lat="53.22129" lon="7.63698">
        <ele>50.335521</ele>
        <time>2024-07-12T09:57:19.833Z</time>
      </trkpt>
      <trkpt lat="53.22122" lon="7.63708">
        <ele>50.308794</ele>
        <time>2024-07-12T09:57:21.824Z</time>
      </trkpt>
      <trkpt lat="53.22114" lon="7.63717">
        <ele>50.335918</ele>
        <time>2024-07-12T09:57:23.818Z</time>
      </trkpt>
      <trkpt lat="53.22106" lon="7.63725">
        <ele>50.36861</ele>
        <time>2024-07-12T09:57:25.841Z</time>
      </trkpt>
      <trkpt lat="53.22098" lon="7.63732">
        <ele>50.402089</ele>
        <time>2024-07-12T09:57:27.851Z</time>
      </trkpt>
      <trkpt lat="53.22089" lon="7.63737">
        <ele>50.436305</ele>
        <time>2024-07-12T09:57:29.839Z</time>
      </trkpt>
      <trkpt lat="53.2208" lon="7.63742">
        <ele>50.469273</ele>
        <time>2024-07-12T09:57:31.862Z</time>
      </trkpt>
      <trkpt lat="53.22071" lon="7.63748">
        <ele>50.504471</ele>
        <time>2024-07-12T09:57:33.840Z</time>
      </trkpt>
      <trkpt lat="53.22062" lon="7.63754">
        <ele>50.539259</ele>
        <time>2024-07-12T09:57:35.852Z</time>
      </trkpt>
      <trkpt lat="53.22052" lon="7.6376">
        <ele>50.575313</ele>
        <time>2024-07-12T09:57:37.852Z</time>
      </trkpt>
      <trkpt lat="53.22043" lon="7.63764">
        <ele>50.610358</ele>
        <time>2024-07-12T09:57:39.855Z</time>
      </trkpt>
      <trkpt lat="53.22033" lon="7.63769">
        <ele>50.646274</ele>
        <time>2024-07-12T09:57:41.844Z</time>
      </trkpt>
      <trkpt lat="53.22023" lon="7.63774">
        <ele>50.682811</ele>
        <time>2024-07-12T09:57:43.846Z</time>
      </trkpt>
      <trkpt lat="53.22013" lon="7.63779">
        <ele>50.719752</ele>
        <time>2024-07-12T09:57:45.856Z</time>
      </trkpt>
      <trkpt lat="53.22004" lon="7.63783">
        <ele>50.755708</ele>
        <time>2024-07-12T09:57:47.847Z</time>
      </trkpt>
      <trkpt lat="53.21994" lon="7.63786">
        <ele>50.791645</ele>
        <time>2024-07-12T09:57:49.826Z</time>
      </trkpt>
      <trkpt lat="53.21983" lon="7.63789">
        <ele>50.831033</ele>
        <time>2024-07-12T09:57:51.843Z</time>
      </trkpt>
      <trkpt lat="53.21972" lon="7.63791">
        <ele>50.868755</ele>
        <time>2024-07-12T09:57:53.843Z</time>
      </trkpt>
      <trkpt lat="53.21962" lon="7.63791">
        <ele>50.906987</ele>
        <time>2024-07-12T09:57:55.833Z</time>
      </trkpt>
      <trkpt lat="53.21951" lon="7.63789">
        <ele>50.945492</ele>
        <time>2024-07-12T09:57:57.857Z</time>
      </trkpt>
      <trkpt lat="53.2194" lon="7.63787">
        <ele>50.990042</ele>
        <time>2024-07-12T09:57:59.842Z</time>
      </trkpt>
      <trkpt lat="53.2193" lon="7.63782">
        <ele>51.036545</ele>
        <time>2024-07-12T09:58:01.850Z</time>
      </trkpt>
      <trkpt lat="53.21919" lon="7.63777">
        <ele>51.083783</ele>
        <time>2024-07-12T09:58:03.852Z</time>
      </trkpt>
      <trkpt lat="53.21909" lon="7.63771">
        <ele>51.130798</ele>
        <time>2024-07-12T09:58:05.875Z</time>
      </trkpt>
      <trkpt lat="53.21898" lon="7.63765">
        <ele>51.178787</ele>
        <time>2024-07-12T09:58:07.882Z</time>
      </trkpt>
      <trkpt lat="53.21888" lon="7.63758">
        <ele>51.22476</ele>
        <time>2024-07-12T09:58:09.842Z</time>
      </trkpt>
      <trkpt lat="53.21878" lon="7.6375">
        <ele>51.272692</ele>
        <time>2024-07-12T09:58:11.844Z</time>
      </trkpt>
      <trkpt lat="53.21868" lon="7.63743">
        <ele>51.31965</ele>
        <time>2024-07-12T09:58:13.878Z</time>
      </trkpt>
      <trkpt lat="53.21857" lon="7.63737">
        <ele>51.367066</ele>
        <time>2024-07-12T09:58:15.877Z</time>
      </trkpt>
      <trkpt lat="53.21847" lon="7.6373">
        <ele>51.415231</ele>
        <time>2024-07-12T09:58:17.850Z</time>
      </trkpt>
      <trkpt lat="53.21836" lon="7.63723">
        <ele>51.465231</ele>
        <time>2024-07-12T09:58:19.838Z</time>
      </trkpt>
      <trkpt lat="53.21825" lon="7.63717">
        <ele>51.513535</ele>
        <time>2024-07-12T09:58:21.843Z</time>
      </trkpt>
      <trkpt lat="53.21814" lon="7.6371">
        <ele>51.565391</ele>
        <time>2024-07-12T09:58:23.823Z</time>
      </trkpt>
      <trkpt lat="53.21802" lon="7.63703">
        <ele>51.615957</ele>
        <time>2024-07-12T09:58:25.857Z</time>
      </trkpt>
      <trkpt lat="53.21791" lon="7.63697">
        <ele>51.667813</ele>
        <time>2024-07-12T09:58:27.824Z</time>
      </trkpt>
      <trkpt lat="53.2178" lon="7.63691">
        <ele>51.710044</ele>
        <time>2024-07-12T09:58:29.843Z</time>
      </trkpt>
      <trkpt lat="53.2177" lon="7.63685">
        <ele>51.598234</ele>
        <time>2024-07-12T09:58:31.825Z</time>
      </trkpt>
      <trkpt lat="53.21759" lon="7.63681">
        <ele>51.488189</ele>
        <time>2024-07-12T09:58:33.839Z</time>
      </trkpt>
      <trkpt lat="53.21749" lon="7.63676">
        <ele>51.383686</ele>
        <time>2024-07-12T09:58:35.851Z</time>
      </trkpt>
      <trkpt lat="53.21739" lon="7.63674">
        <ele>51.282982</ele>
        <time>2024-07-12T09:58:37.834Z</time>
      </trkpt>
      <trkpt lat="53.21728" lon="7.63685">
        <ele>51.154456</ele>
        <time>2024-07-12T09:58:40.858Z</time>
      </trkpt>
      <trkpt lat="53.21726" lon="7.63702">
        <ele>51.052947</ele>
        <time>2024-07-12T09:58:42.845Z</time>
      </trkpt>
      <trkpt lat="53.21726" lon="7.63718">
        <ele>50.955169</ele>
        <time>2024-07-12T09:58:44.845Z</time>
      </trkpt>
      <trkpt lat="53.21723" lon="7.63733">
        <ele>50.862588</ele>
        <time>2024-07-12T09:58:46.858Z</time>
      </trkpt>
      <trkpt lat="53.21721" lon="7.63749">
        <ele>50.760738</ele>
        <time>2024-07-12T09:58:48.843Z</time>
      </trkpt>
      <trkpt lat="53.21719" lon="7.63764">
        <ele>50.665572</ele>
        <time>2024-07-12T09:58:50.850Z</time>
      </trkpt>
      <trkpt lat="53.21715" lon="7.63786">
        <ele>50.533426</ele>
        <time>2024-07-12T09:58:53.865Z</time>
      </trkpt>
      <trkpt lat="53.21712" lon="7.63807">
        <ele>50.39907</ele>
        <time>2024-07-12T09:58:56.839Z</time>
      </trkpt>
      <trkpt lat="53.21711" lon="7.63822">
        <ele>50.308156</ele>
        <time>2024-07-12T09:58:58.842Z</time>
      </trkpt>
      <trkpt lat="53.21709" lon="7.63844">
        <ele>50.172662</ele>
        <time>2024-07-12T09:59:01.830Z</time>
      </trkpt>
      <trkpt lat="53.21709" lon="7.63867">
        <ele>50.037523</ele>
        <time>2024-07-12T09:59:04.842Z</time>
      </trkpt>
      <trkpt lat="53.2171" lon="7.63889">
        <ele>49.890028</ele>
        <time>2024-07-12T09:59:07.842Z</time>
      </trkpt>
      <trkpt lat="53.21711" lon="7.63905">
        <ele>49.420229</ele>
        <time>2024-07-12T09:59:09.849Z</time>
      </trkpt>
      <trkpt lat="53.21712" lon="7.63921">
        <ele>48.91353</ele>
        <time>2024-07-12T09:59:11.834Z</time>
      </trkpt>
      <trkpt lat="53.21714" lon="7.63937">
        <ele>48.423405</ele>
        <time>2024-07-12T09:59:13.856Z</time>
      </trkpt>
      <trkpt lat="53.21715" lon="7.63952">
        <ele>47.932601</ele>
        <time>2024-07-12T09:59:15.851Z</time>
      </trkpt>
      <trkpt lat="53.21715" lon="7.63969">
        <ele>47.422121</ele>
        <time>2024-07-12T09:59:17.843Z</time>
      </trkpt>
      <trkpt lat="53.21714" lon="7.63986">
        <ele>46.901958</ele>
        <time>2024-07-12T09:59:19.855Z</time>
      </trkpt>
      <trkpt lat="53.21713" lon="7.64005">
        <ele>46.288481</ele>
        <time>2024-07-12T09:59:22.842Z</time>
      </trkpt>
      <trkpt lat="53.21711" lon="7.64019">
        <ele>45.839547</ele>
        <time>2024-07-12T09:59:30.065Z</time>
      </trkpt>
      <trkpt lat="53.21713" lon="7.63966">
        <ele>44.172948</ele>
        <time>2024-07-12T10:00:18.191Z</time>
      </trkpt>
      <trkpt lat="53.21706" lon="7.64013">
        <ele>42.654825</ele>
        <time>2024-07-12T10:00:19.861Z</time>
      </trkpt>
      <trkpt lat="53.21707" lon="7.64029">
        <ele>42.160123</ele>
        <time>2024-07-12T10:00:34.828Z</time>
      </trkpt>
      <trkpt lat="53.21704" lon="7.64048">
        <ele>41.557254</ele>
        <time>2024-07-12T10:00:38.855Z</time>
      </trkpt>
      <trkpt lat="53.217" lon="7.64064">
        <ele>41.0162</ele>
        <time>2024-07-12T10:00:41.853Z</time>
      </trkpt>
      <trkpt lat="53.21695" lon="7.64081">
        <ele>40.778848</ele>
        <time>2024-07-12T10:00:44.857Z</time>
      </trkpt>
      <trkpt lat="53.21689" lon="7.64096">
        <ele>41.284132</ele>
        <time>2024-07-12T10:00:47.835Z</time>
      </trkpt>
      <trkpt lat="53.21681" lon="7.64111">
        <ele>41.800749</ele>
        <time>2024-07-12T10:00:50.844Z</time>
      </trkpt>
      <trkpt lat="53.21674" lon="7.64126">
        <ele>42.335811</ele>
        <time>2024-07-12T10:00:53.840Z</time>
      </trkpt>
      <trkpt lat="53.21666" lon="7.64141">
        <ele>42.890313</ele>
        <time>2024-07-12T10:00:56.849Z</time>
      </trkpt>
      <trkpt lat="53.21658" lon="7.64155">
        <ele>43.411258</ele>
        <time>2024-07-12T10:00:59.853Z</time>
      </trkpt>
      <trkpt lat="53.2165" lon="7.6417">
        <ele>43.954587</ele>
        <time>2024-07-12T10:01:02.821Z</time>
      </trkpt>
      <trkpt lat="53.21642" lon="7.64186">
        <ele>44.524184</ele>
        <time>2024-07-12T10:01:05.846Z</time>
      </trkpt>
      <trkpt lat="53.21633" lon="7.642">
        <ele>45.084697</ele>
        <time>2024-07-12T10:01:08.853Z</time>
      </trkpt>
      <trkpt lat="53.21624" lon="7.64214">
        <ele>45.638148</ele>
        <time>2024-07-12T10:01:11.841Z</time>
      </trkpt>
      <trkpt lat="53.21616" lon="7.64229">
        <ele>46.175273</ele>
        <time>2024-07-12T10:01:14.844Z</time>
      </trkpt>
      <trkpt lat="53.21609" lon="7.64242">
        <ele>46.637508</ele>
        <time>2024-07-12T10:01:17.848Z</time>
      </trkpt>
      <trkpt lat="53.21605" lon="7.64259">
        <ele>47.141839</ele>
        <time>2024-07-12T10:01:23.835Z</time>
      </trkpt>
      <trkpt lat="53.21611" lon="7.64275">
        <ele>47.646797</ele>
        <time>2024-07-12T10:01:27.831Z</time>
      </trkpt>
      <trkpt lat="53.21618" lon="7.64286">
        <ele>48.08903</ele>
        <time>2024-07-12T10:01:30.872Z</time>
      </trkpt>
      <trkpt lat="53.21626" lon="7.64297">
        <ele>48.543019</ele>
        <time>2024-07-12T10:01:33.836Z</time>
      </trkpt>
      <trkpt lat="53.21634" lon="7.64309">
        <ele>48.802672</ele>
        <time>2024-07-12T10:01:37.848Z</time>
      </trkpt>
      <trkpt lat="53.21641" lon="7.64319">
        <ele>48.814207</ele>
        <time>2024-07-12T10:01:40.861Z</time>
      </trkpt>
      <trkpt lat="53.21649" lon="7.64327">
        <ele>48.825811</ele>
        <time>2024-07-12T10:01:43.849Z</time>
      </trkpt>
      <trkpt lat="53.21658" lon="7.64339">
        <ele>48.840348</ele>
        <time>2024-07-12T10:01:47.849Z</time>
      </trkpt>
      <trkpt lat="53.21666" lon="7.64349">
        <ele>48.853625</ele>
        <time>2024-07-12T10:01:51.843Z</time>
      </trkpt>
      <trkpt lat="53.21674" lon="7.64357">
        <ele>48.865</ele>
        <time>2024-07-12T10:01:55.846Z</time>
      </trkpt>
      <trkpt lat="53.21687" lon="7.64358">
        <ele>48.881096</ele>
        <time>2024-07-12T10:02:23.840Z</time>
      </trkpt>
      <trkpt lat="53.21692" lon="7.64344">
        <ele>48.892656</ele>
        <time>2024-07-12T10:02:33.825Z</time>
      </trkpt>
      <trkpt lat="53.21689" lon="7.64343">
        <ele>48.895994</ele>
        <time>2024-07-12T10:02:47.514Z</time>
      </trkpt>
      <trkpt lat="53.21701" lon="7.64339">
        <ele>48.911578</ele>
        <time>2024-07-12T10:19:26.822Z</time>
      </trkpt>
      <trkpt lat="53.2168" lon="7.64349">
        <ele>48.939595</ele>
        <time>2024-07-12T10:19:28.786Z</time>
      </trkpt>
      <trkpt lat="53.21691" lon="7.64336">
        <ele>48.956237</ele>
        <time>2024-07-12T10:19:29.807Z</time>
      </trkpt>
      <trkpt lat="53.21691" lon="7.64354">
        <ele>48.969299</ele>
        <time>2024-07-12T10:19:58.853Z</time>
      </trkpt>
      <trkpt lat="53.21688" lon="7.64375">
        <ele>48.985715</ele>
        <time>2024-07-12T10:20:31.843Z</time>
      </trkpt>
      <trkpt lat="53.21687" lon="7.64394">
        <ele>48.999887</ele>
        <time>2024-07-12T10:20:35.821Z</time>
      </trkpt>
      <trkpt lat="53.21686" lon="7.64411">
        <ele>49.013071</ele>
        <time>2024-07-12T10:20:38.829Z</time>
      </trkpt>
      <trkpt lat="53.21684" lon="7.6443">
        <ele>49.023901</ele>
        <time>2024-07-12T10:20:41.843Z</time>
      </trkpt>
      <trkpt lat="53.21682" lon="7.64453">
        <ele>49.029143</ele>
        <time>2024-07-12T10:20:44.834Z</time>
      </trkpt>
      <trkpt lat="53.21681" lon="7.6447">
        <ele>49.032921</ele>
        <time>2024-07-12T10:20:46.855Z</time>
      </trkpt>
      <trkpt lat="53.21679" lon="7.64484">
        <ele>49.036474</ele>
        <time>2024-07-12T10:20:48.833Z</time>
      </trkpt>
      <trkpt lat="53.21676" lon="7.645">
        <ele>49.040196</ele>
        <time>2024-07-12T10:20:50.854Z</time>
      </trkpt>
      <trkpt lat="53.21674" lon="7.64516">
        <ele>49.043863</ele>
        <time>2024-07-12T10:20:52.820Z</time>
      </trkpt>
      <trkpt lat="53.21673" lon="7.64531">
        <ele>49.047358</ele>
        <time>2024-07-12T10:20:54.841Z</time>
      </trkpt>
      <trkpt lat="53.21671" lon="7.64546">
        <ele>49.050871</ele>
        <time>2024-07-12T10:20:56.853Z</time>
      </trkpt>
      <trkpt lat="53.21668" lon="7.64561">
        <ele>49.054427</ele>
        <time>2024-07-12T10:20:58.843Z</time>
      </trkpt>
      <trkpt lat="53.21663" lon="7.64581">
        <ele>49.059421</ele>
        <time>2024-07-12T10:21:01.834Z</time>
      </trkpt>
      <trkpt lat="53.2166" lon="7.64596">
        <ele>49.063072</ele>
        <time>2024-07-12T10:21:03.842Z</time>
      </trkpt>
      <trkpt lat="53.21656" lon="7.6461">
        <ele>49.066588</ele>
        <time>2024-07-12T10:21:05.850Z</time>
      </trkpt>
      <trkpt lat="53.21651" lon="7.64631">
        <ele>49.071664</ele>
        <time>2024-07-12T10:21:08.843Z</time>
      </trkpt>
      <trkpt lat="53.21648" lon="7.64645">
        <ele>49.075116</ele>
        <time>2024-07-12T10:21:10.846Z</time>
      </trkpt>
      <trkpt lat="53.21643" lon="7.64665">
        <ele>49.080158</ele>
        <time>2024-07-12T10:21:13.840Z</time>
      </trkpt>
      <trkpt lat="53.21639" lon="7.64685">
        <ele>49.085055</ele>
        <time>2024-07-12T10:21:16.846Z</time>
      </trkpt>
      <trkpt lat="53.21634" lon="7.64706">
        <ele>49.090089</ele>
        <time>2024-07-12T10:21:19.817Z</time>
      </trkpt>
      <trkpt lat="53.21632" lon="7.64721">
        <ele>49.038353</ele>
        <time>2024-07-12T10:21:21.861Z</time>
      </trkpt>
      <trkpt lat="53.21629" lon="7.64735">
        <ele>48.971437</ele>
        <time>2024-07-12T10:21:23.838Z</time>
      </trkpt>
      <trkpt lat="53.21625" lon="7.64757">
        <ele>48.871482</ele>
        <time>2024-07-12T10:21:26.842Z</time>
      </trkpt>
      <trkpt lat="53.21621" lon="7.64778">
        <ele>48.773236</ele>
        <time>2024-07-12T10:21:29.836Z</time>
      </trkpt>
      <trkpt lat="53.21617" lon="7.64798">
        <ele>48.676418</ele>
        <time>2024-07-12T10:21:32.843Z</time>
      </trkpt>
      <trkpt lat="53.21614" lon="7.64813">
        <ele>48.606829</ele>
        <time>2024-07-12T10:21:34.844Z</time>
      </trkpt>
      <trkpt lat="53.21609" lon="7.64833">
        <ele>48.511749</ele>
        <time>2024-07-12T10:21:37.849Z</time>
      </trkpt>
      <trkpt lat="53.21604" lon="7.64851">
        <ele>48.421851</ele>
        <time>2024-07-12T10:21:40.848Z</time>
      </trkpt>
      <trkpt lat="53.21599" lon="7.64869">
        <ele>48.332046</ele>
        <time>2024-07-12T10:21:43.836Z</time>
      </trkpt>
      <trkpt lat="53.21594" lon="7.64889">
        <ele>48.239003</ele>
        <time>2024-07-12T10:21:46.844Z</time>
      </trkpt>
      <trkpt lat="53.21589" lon="7.64908">
        <ele>48.146259</ele>
        <time>2024-07-12T10:21:49.841Z</time>
      </trkpt>
      <trkpt lat="53.21583" lon="7.64927">
        <ele>48.050978</ele>
        <time>2024-07-12T10:21:52.811Z</time>
      </trkpt>
      <trkpt lat="53.21578" lon="7.64946">
        <ele>47.956601</ele>
        <time>2024-07-12T10:21:55.844Z</time>
      </trkpt>
      <trkpt lat="53.21573" lon="7.64965">
        <ele>47.865832</ele>
        <time>2024-07-12T10:21:58.851Z</time>
      </trkpt>
      <trkpt lat="53.21568" lon="7.64984">
        <ele>47.772173</ele>
        <time>2024-07-12T10:22:01.861Z</time>
      </trkpt>
      <trkpt lat="53.21563" lon="7.65004">
        <ele>47.77791</ele>
        <time>2024-07-12T10:22:04.849Z</time>
      </trkpt>
      <trkpt lat="53.21558" lon="7.65023">
        <ele>47.805168</ele>
        <time>2024-07-12T10:22:07.838Z</time>
      </trkpt>
      <trkpt lat="53.21553" lon="7.65041">
        <ele>47.831575</ele>
        <time>2024-07-12T10:22:10.847Z</time>
      </trkpt>
      <trkpt lat="53.21548" lon="7.65059">
        <ele>47.858305</ele>
        <time>2024-07-12T10:22:13.856Z</time>
      </trkpt>
      <trkpt lat="53.21543" lon="7.65078">
        <ele>47.884868</ele>
        <time>2024-07-12T10:22:16.835Z</time>
      </trkpt>
      <trkpt lat="53.21538" lon="7.65097">
        <ele>47.912269</ele>
        <time>2024-07-12T10:22:19.831Z</time>
      </trkpt>
      <trkpt lat="53.21532" lon="7.65115">
        <ele>47.939496</ele>
        <time>2024-07-12T10:22:22.837Z</time>
      </trkpt>
      <trkpt lat="53.21527" lon="7.65135">
        <ele>47.967899</ele>
        <time>2024-07-12T10:22:25.853Z</time>
      </trkpt>
      <trkpt lat="53.21522" lon="7.65154">
        <ele>47.99509</ele>
        <time>2024-07-12T10:22:28.837Z</time>
      </trkpt>
      <trkpt lat="53.21517" lon="7.65172">
        <ele>48.021292</ele>
        <time>2024-07-12T10:22:31.837Z</time>
      </trkpt>
      <trkpt lat="53.21512" lon="7.6519">
        <ele>48.047351</ele>
        <time>2024-07-12T10:22:34.849Z</time>
      </trkpt>
      <trkpt lat="53.21507" lon="7.65208">
        <ele>48.074653</ele>
        <time>2024-07-12T10:22:37.846Z</time>
      </trkpt>
      <trkpt lat="53.21502" lon="7.65226">
        <ele>48.10115</ele>
        <time>2024-07-12T10:22:40.839Z</time>
      </trkpt>
      <trkpt lat="53.21496" lon="7.65244">
        <ele>48.12761</ele>
        <time>2024-07-12T10:22:43.836Z</time>
      </trkpt>
      <trkpt lat="53.2149" lon="7.65262">
        <ele>48.147553</ele>
        <time>2024-07-12T10:22:46.841Z</time>
      </trkpt>
      <trkpt lat="53.21486" lon="7.65281">
        <ele>48.113064</ele>
        <time>2024-07-12T10:22:49.851Z</time>
      </trkpt>
      <trkpt lat="53.2148" lon="7.65298">
        <ele>48.078862</ele>
        <time>2024-07-12T10:22:52.832Z</time>
      </trkpt>
      <trkpt lat="53.21473" lon="7.65316">
        <ele>48.042616</ele>
        <time>2024-07-12T10:22:55.832Z</time>
      </trkpt>
      <trkpt lat="53.21467" lon="7.65336">
        <ele>48.005314</ele>
        <time>2024-07-12T10:22:58.849Z</time>
      </trkpt>
      <trkpt lat="53.21462" lon="7.65356">
        <ele>47.968057</ele>
        <time>2024-07-12T10:23:01.839Z</time>
      </trkpt>
      <trkpt lat="53.21458" lon="7.6537">
        <ele>47.941736</ele>
        <time>2024-07-12T10:23:03.837Z</time>
      </trkpt>
      <trkpt lat="53.21452" lon="7.65389">
        <ele>47.905566</ele>
        <time>2024-07-12T10:23:06.862Z</time>
      </trkpt>
      <trkpt lat="53.21447" lon="7.65408">
        <ele>47.869491</ele>
        <time>2024-07-12T10:23:09.847Z</time>
      </trkpt>
      <trkpt lat="53.21443" lon="7.65426">
        <ele>47.836465</ele>
        <time>2024-07-12T10:23:12.833Z</time>
      </trkpt>
      <trkpt lat="53.21438" lon="7.65443">
        <ele>47.804325</ele>
        <time>2024-07-12T10:23:15.844Z</time>
      </trkpt>
      <trkpt lat="53.21432" lon="7.65462">
        <ele>47.768375</ele>
        <time>2024-07-12T10:23:18.842Z</time>
      </trkpt>
      <trkpt lat="53.21428" lon="7.65482">
        <ele>47.732717</ele>
        <time>2024-07-12T10:23:21.821Z</time>
      </trkpt>
      <trkpt lat="53.21423" lon="7.655">
        <ele>47.698486</ele>
        <time>2024-07-12T10:23:24.855Z</time>
      </trkpt>
      <trkpt lat="53.21417" lon="7.65518">
        <ele>47.6633</ele>
        <time>2024-07-12T10:23:27.838Z</time>
      </trkpt>
      <trkpt lat="53.21412" lon="7.65536">
        <ele>47.674465</ele>
        <time>2024-07-12T10:23:30.844Z</time>
      </trkpt>
      <trkpt lat="53.21405" lon="7.65554">
        <ele>47.790766</ele>
        <time>2024-07-12T10:23:33.840Z</time>
      </trkpt>
      <trkpt lat="53.214" lon="7.65573">
        <ele>47.907271</ele>
        <time>2024-07-12T10:23:36.839Z</time>
      </trkpt>
      <trkpt lat="53.21395" lon="7.65591">
        <ele>48.020831</ele>
        <time>2024-07-12T10:23:39.840Z</time>
      </trkpt>
      <trkpt lat="53.21389" lon="7.65605">
        <ele>48.115025</ele>
        <time>2024-07-12T10:23:44.849Z</time>
      </trkpt>
      <trkpt lat="53.21386" lon="7.65623">
        <ele>48.218864</ele>
        <time>2024-07-12T10:23:50.847Z</time>
      </trkpt>
      <trkpt lat="53.21382" lon="7.65642">
        <ele>48.332622</ele>
        <time>2024-07-12T10:23:54.835Z</time>
      </trkpt>
      <trkpt lat="53.21377" lon="7.65658">
        <ele>48.434463</ele>
        <time>2024-07-12T10:23:57.843Z</time>
      </trkpt>
      <trkpt lat="53.21371" lon="7.65675">
        <ele>48.543189</ele>
        <time>2024-07-12T10:24:00.856Z</time>
      </trkpt>
      <trkpt lat="53.21366" lon="7.65693">
        <ele>48.655544</ele>
        <time>2024-07-12T10:24:03.823Z</time>
      </trkpt>
      <trkpt lat="53.21359" lon="7.65712">
        <ele>48.779066</ele>
        <time>2024-07-12T10:24:06.838Z</time>
      </trkpt>
      <trkpt lat="53.21354" lon="7.6573">
        <ele>48.892758</ele>
        <time>2024-07-12T10:24:09.846Z</time>
      </trkpt>
      <trkpt lat="53.21349" lon="7.6575">
        <ele>49.013221</ele>
        <time>2024-07-12T10:24:12.836Z</time>
      </trkpt>
      <trkpt lat="53.21342" lon="7.65768">
        <ele>49.13049</ele>
        <time>2024-07-12T10:24:15.843Z</time>
      </trkpt>
      <trkpt lat="53.21337" lon="7.65787">
        <ele>49.249709</ele>
        <time>2024-07-12T10:24:18.850Z</time>
      </trkpt>
      <trkpt lat="53.21331" lon="7.65805">
        <ele>49.337718</ele>
        <time>2024-07-12T10:24:21.835Z</time>
      </trkpt>
      <trkpt lat="53.21325" lon="7.65817">
        <ele>49.369797</ele>
        <time>2024-07-12T10:24:23.854Z</time>
      </trkpt>
      <trkpt lat="53.21318" lon="7.65836">
        <ele>49.415997</ele>
        <time>2024-07-12T10:24:26.849Z</time>
      </trkpt>
      <trkpt lat="53.21312" lon="7.65855">
        <ele>49.461476</ele>
        <time>2024-07-12T10:24:29.849Z</time>
      </trkpt>
      <trkpt lat="53.21306" lon="7.65867">
        <ele>49.49361</ele>
        <time>2024-07-12T10:24:31.858Z</time>
      </trkpt>
      <trkpt lat="53.21298" lon="7.65885">
        <ele>49.53968</ele>
        <time>2024-07-12T10:24:34.841Z</time>
      </trkpt>
      <trkpt lat="53.21292" lon="7.65903">
        <ele>49.584442</ele>
        <time>2024-07-12T10:24:37.854Z</time>
      </trkpt>
      <trkpt lat="53.21285" lon="7.65922">
        <ele>49.629396</ele>
        <time>2024-07-12T10:24:40.848Z</time>
      </trkpt>
      <trkpt lat="53.21278" lon="7.6594">
        <ele>49.674165</ele>
        <time>2024-07-12T10:24:43.853Z</time>
      </trkpt>
      <trkpt lat="53.21272" lon="7.65951">
        <ele>49.705863</ele>
        <time>2024-07-12T10:24:45.834Z</time>
      </trkpt>
      <trkpt lat="53.21265" lon="7.65969">
        <ele>49.749977</ele>
        <time>2024-07-12T10:24:48.851Z</time>
      </trkpt>
      <trkpt lat="53.21258" lon="7.65987">
        <ele>49.794931</ele>
        <time>2024-07-12T10:24:51.844Z</time>
      </trkpt>
      <trkpt lat="53.21252" lon="7.66006">
        <ele>49.840768</ele>
        <time>2024-07-12T10:24:54.844Z</time>
      </trkpt>
      <trkpt lat="53.21243" lon="7.66023">
        <ele>49.886543</ele>
        <time>2024-07-12T10:24:57.838Z</time>
      </trkpt>
      <trkpt lat="53.21236" lon="7.66041">
        <ele>49.930782</ele>
        <time>2024-07-12T10:25:00.842Z</time>
      </trkpt>
      <trkpt lat="53.2123" lon="7.66059">
        <ele>49.880499</ele>
        <time>2024-07-12T10:25:03.835Z</time>
      </trkpt>
      <trkpt lat="53.21222" lon="7.66077">
        <ele>49.760654</ele>
        <time>2024-07-12T10:25:06.856Z</time>
      </trkpt>
      <trkpt lat="53.21216" lon="7.66089">
        <ele>49.678851</ele>
        <time>2024-07-12T10:25:08.842Z</time>
      </trkpt>
      <trkpt lat="53.21209" lon="7.66107">
        <ele>49.565972</ele>
        <time>2024-07-12T10:25:11.834Z</time>
      </trkpt>
      <trkpt lat="53.21202" lon="7.66125">
        <ele>49.447564</ele>
        <time>2024-07-12T10:25:14.853Z</time>
      </trkpt>
      <trkpt lat="53.21197" lon="7.66138">
        <ele>49.365322</ele>
        <time>2024-07-12T10:25:16.847Z</time>
      </trkpt>
      <trkpt lat="53.21193" lon="7.66152">
        <ele>49.281178</ele>
        <time>2024-07-12T10:25:18.845Z</time>
      </trkpt>
      <trkpt lat="53.21186" lon="7.6617">
        <ele>49.16609</ele>
        <time>2024-07-12T10:25:21.855Z</time>
      </trkpt>
      <trkpt lat="53.21181" lon="7.66183">
        <ele>49.079113</ele>
        <time>2024-07-12T10:25:23.841Z</time>
      </trkpt>
      <trkpt lat="53.21176" lon="7.66196">
        <ele>48.998259</ele>
        <time>2024-07-12T10:25:25.838Z</time>
      </trkpt>
      <trkpt lat="53.21169" lon="7.66213">
        <ele>48.885172</ele>
        <time>2024-07-12T10:25:28.851Z</time>
      </trkpt>
      <trkpt lat="53.21164" lon="7.66226">
        <ele>48.80293</ele>
        <time>2024-07-12T10:25:30.835Z</time>
      </trkpt>
      <trkpt lat="53.21159" lon="7.66239">
        <ele>48.721411</ele>
        <time>2024-07-12T10:25:32.818Z</time>
      </trkpt>
      <trkpt lat="53.21152" lon="7.66258">
        <ele>48.604488</ele>
        <time>2024-07-12T10:25:35.848Z</time>
      </trkpt>
      <trkpt lat="53.21145" lon="7.66276">
        <ele>48.486974</ele>
        <time>2024-07-12T10:25:38.841Z</time>
      </trkpt>
      <trkpt lat="53.21138" lon="7.66294">
        <ele>48.370946</ele>
        <time>2024-07-12T10:25:41.840Z</time>
      </trkpt>
      <trkpt lat="53.21131" lon="7.66312">
        <ele>48.287593</ele>
        <time>2024-07-12T10:25:44.839Z</time>
      </trkpt>
      <trkpt lat="53.21126" lon="7.66324">
        <ele>48.239735</ele>
        <time>2024-07-12T10:25:46.838Z</time>
      </trkpt>
      <trkpt lat="53.21118" lon="7.66343">
        <ele>48.170184</ele>
        <time>2024-07-12T10:25:49.831Z</time>
      </trkpt>
      <trkpt lat="53.21113" lon="7.66355">
        <ele>48.12284</ele>
        <time>2024-07-12T10:25:51.837Z</time>
      </trkpt>
      <trkpt lat="53.21107" lon="7.66372">
        <ele>48.059477</ele>
        <time>2024-07-12T10:25:54.848Z</time>
      </trkpt>
      <trkpt lat="53.21099" lon="7.6639">
        <ele>47.992476</ele>
        <time>2024-07-12T10:25:57.843Z</time>
      </trkpt>
      <trkpt lat="53.21091" lon="7.66408">
        <ele>47.922176</ele>
        <time>2024-07-12T10:26:00.844Z</time>
      </trkpt>
      <trkpt lat="53.21087" lon="7.66421">
        <ele>47.874147</ele>
        <time>2024-07-12T10:26:02.825Z</time>
      </trkpt>
      <trkpt lat="53.21079" lon="7.66439">
        <ele>47.805898</ele>
        <time>2024-07-12T10:26:05.840Z</time>
      </trkpt>
      <trkpt lat="53.21074" lon="7.66452">
        <ele>47.757576</ele>
        <time>2024-07-12T10:26:07.839Z</time>
      </trkpt>
      <trkpt lat="53.21069" lon="7.66466">
        <ele>47.707669</ele>
        <time>2024-07-12T10:26:09.837Z</time>
      </trkpt>
      <trkpt lat="53.21064" lon="7.66485">
        <ele>47.64041</ele>
        <time>2024-07-12T10:26:12.822Z</time>
      </trkpt>
      <trkpt lat="53.21059" lon="7.66498">
        <ele>47.593065</ele>
        <time>2024-07-12T10:26:14.845Z</time>
      </trkpt>
      <trkpt lat="53.21052" lon="7.66514">
        <ele>47.531448</ele>
        <time>2024-07-12T10:26:17.842Z</time>
      </trkpt>
      <trkpt lat="53.21046" lon="7.66533">
        <ele>47.464871</ele>
        <time>2024-07-12T10:26:20.840Z</time>
      </trkpt>
      <trkpt lat="53.21039" lon="7.66549">
        <ele>47.402317</ele>
        <time>2024-07-12T10:26:23.835Z</time>
      </trkpt>
      <trkpt lat="53.21031" lon="7.66565">
        <ele>47.348755</ele>
        <time>2024-07-12T10:26:26.839Z</time>
      </trkpt>
      <trkpt lat="53.21026" lon="7.66586">
        <ele>47.291707</ele>
        <time>2024-07-12T10:26:29.845Z</time>
      </trkpt>
      <trkpt lat="53.21025" lon="7.66601">
        <ele>47.252819</ele>
        <time>2024-07-12T10:26:31.836Z</time>
      </trkpt>
      <trkpt lat="53.21023" lon="7.66624">
        <ele>47.193454</ele>
        <time>2024-07-12T10:26:34.842Z</time>
      </trkpt>
      <trkpt lat="53.21024" lon="7.66641">
        <ele>47.152045</ele>
        <time>2024-07-12T10:26:36.839Z</time>
      </trkpt>
      <trkpt lat="53.21023" lon="7.66657">
        <ele>47.11208</ele>
        <time>2024-07-12T10:26:38.834Z</time>
      </trkpt>
      <trkpt lat="53.21023" lon="7.66679">
        <ele>47.05552</ele>
        <time>2024-07-12T10:26:41.838Z</time>
      </trkpt>
      <trkpt lat="53.21023" lon="7.667">
        <ele>47.002506</ele>
        <time>2024-07-12T10:26:44.841Z</time>
      </trkpt>
      <trkpt lat="53.21023" lon="7.66721">
        <ele>46.949719</ele>
        <time>2024-07-12T10:26:47.840Z</time>
      </trkpt>
      <trkpt lat="53.21023" lon="7.66743">
        <ele>46.893424</ele>
        <time>2024-07-12T10:26:50.839Z</time>
      </trkpt>
      <trkpt lat="53.21023" lon="7.66765">
        <ele>46.838882</ele>
        <time>2024-07-12T10:26:53.853Z</time>
      </trkpt>
      <trkpt lat="53.21023" lon="7.66781">
        <ele>46.798709</ele>
        <time>2024-07-12T10:26:55.836Z</time>
      </trkpt>
      <trkpt lat="53.21022" lon="7.66803">
        <ele>46.743547</ele>
        <time>2024-07-12T10:26:58.840Z</time>
      </trkpt>
      <trkpt lat="53.21019" lon="7.66817">
        <ele>46.704388</ele>
        <time>2024-07-12T10:27:00.830Z</time>
      </trkpt>
      <trkpt lat="53.21016" lon="7.66831">
        <ele>46.665423</ele>
        <time>2024-07-12T10:27:02.825Z</time>
      </trkpt>
      <trkpt lat="53.21011" lon="7.66851">
        <ele>46.636279</ele>
        <time>2024-07-12T10:27:05.845Z</time>
      </trkpt>
      <trkpt lat="53.21006" lon="7.66872">
        <ele>46.641147</ele>
        <time>2024-07-12T10:27:08.840Z</time>
      </trkpt>
      <trkpt lat="53.21003" lon="7.66887">
        <ele>46.644577</ele>
        <time>2024-07-12T10:27:10.835Z</time>
      </trkpt>
      <trkpt lat="53.20999" lon="7.66903">
        <ele>46.648355</ele>
        <time>2024-07-12T10:27:12.854Z</time>
      </trkpt>
      <trkpt lat="53.20997" lon="7.66918">
        <ele>46.651839</ele>
        <time>2024-07-12T10:27:14.847Z</time>
      </trkpt>
      <trkpt lat="53.20994" lon="7.66939">
        <ele>46.656477</ele>
        <time>2024-07-12T10:27:17.844Z</time>
      </trkpt>
      <trkpt lat="53.20993" lon="7.66958">
        <ele>46.660781</ele>
        <time>2024-07-12T10:27:20.847Z</time>
      </trkpt>
      <trkpt lat="53.20992" lon="7.66979">
        <ele>46.665348</ele>
        <time>2024-07-12T10:27:23.850Z</time>
      </trkpt>
      <trkpt lat="53.20992" lon="7.66998">
        <ele>46.669669</ele>
        <time>2024-07-12T10:27:26.838Z</time>
      </trkpt>
      <trkpt lat="53.20991" lon="7.67017">
        <ele>46.673717</ele>
        <time>2024-07-12T10:27:29.836Z</time>
      </trkpt>
      <trkpt lat="53.20991" lon="7.67039">
        <ele>46.678697</ele>
        <time>2024-07-12T10:27:32.836Z</time>
      </trkpt>
      <trkpt lat="53.20991" lon="7.6706">
        <ele>46.683178</ele>
        <time>2024-07-12T10:27:35.842Z</time>
      </trkpt>
      <trkpt lat="53.20992" lon="7.67081">
        <ele>46.687844</ele>
        <time>2024-07-12T10:27:38.850Z</time>
      </trkpt>
      <trkpt lat="53.20994" lon="7.67101">
        <ele>46.692377</ele>
        <time>2024-07-12T10:27:41.839Z</time>
      </trkpt>
      <trkpt lat="53.20996" lon="7.67123">
        <ele>46.69726</ele>
        <time>2024-07-12T10:27:44.842Z</time>
      </trkpt>
      <trkpt lat="53.20998" lon="7.67143">
        <ele>46.68958</ele>
        <time>2024-07-12T10:27:47.833Z</time>
      </trkpt>
      <trkpt lat="53.21" lon="7.67165">
        <ele>46.652773</ele>
        <time>2024-07-12T10:27:50.837Z</time>
      </trkpt>
      <trkpt lat="53.21002" lon="7.67187">
        <ele>46.615175</ele>
        <time>2024-07-12T10:27:53.837Z</time>
      </trkpt>
      <trkpt lat="53.21005" lon="7.67208">
        <ele>46.57884</ele>
        <time>2024-07-12T10:27:56.843Z</time>
      </trkpt>
      <trkpt lat="53.21006" lon="7.67229">
        <ele>46.542724</ele>
        <time>2024-07-12T10:27:59.818Z</time>
      </trkpt>
      <trkpt lat="53.21008" lon="7.67251">
        <ele>46.506471</ele>
        <time>2024-07-12T10:28:02.835Z</time>
      </trkpt>
      <trkpt lat="53.2101" lon="7.67271">
        <ele>46.472454</ele>
        <time>2024-07-12T10:28:05.833Z</time>
      </trkpt>
      <trkpt lat="53.21011" lon="7.67289">
        <ele>46.440885</ele>
        <time>2024-07-12T10:28:08.826Z</time>
      </trkpt>
      <trkpt lat="53.21013" lon="7.6731">
        <ele>46.404934</ele>
        <time>2024-07-12T10:28:11.854Z</time>
      </trkpt>
      <trkpt lat="53.21013" lon="7.67331">
        <ele>46.371081</ele>
        <time>2024-07-12T10:28:14.822Z</time>
      </trkpt>
      <trkpt lat="53.21014" lon="7.67349">
        <ele>46.340589</ele>
        <time>2024-07-12T10:28:17.834Z</time>
      </trkpt>
      <trkpt lat="53.21013" lon="7.67367">
        <ele>46.309709</ele>
        <time>2024-07-12T10:28:20.833Z</time>
      </trkpt>
      <trkpt lat="53.21015" lon="7.67384">
        <ele>46.279758</ele>
        <time>2024-07-12T10:28:23.832Z</time>
      </trkpt>
      <trkpt lat="53.21019" lon="7.67404">
        <ele>46.244508</ele>
        <time>2024-07-12T10:28:26.838Z</time>
      </trkpt>
      <trkpt lat="53.21019" lon="7.67425">
        <ele>46.209476</ele>
        <time>2024-07-12T10:28:29.834Z</time>
      </trkpt>
      <trkpt lat="53.21018" lon="7.67446">
        <ele>46.148634</ele>
        <time>2024-07-12T10:28:32.834Z</time>
      </trkpt>
      <trkpt lat="53.2102" lon="7.67464">
        <ele>46.076602</ele>
        <time>2024-07-12T10:28:35.842Z</time>
      </trkpt>
      <trkpt lat="53.21024" lon="7.67482">
        <ele>46.002224</ele>
        <time>2024-07-12T10:28:38.833Z</time>
      </trkpt>
      <trkpt lat="53.21029" lon="7.675">
        <ele>45.924927</ele>
        <time>2024-07-12T10:28:41.833Z</time>
      </trkpt>
      <trkpt lat="53.21033" lon="7.67519">
        <ele>45.848654</ele>
        <time>2024-07-12T10:28:44.847Z</time>
      </trkpt>
      <trkpt lat="53.21037" lon="7.67537">
        <ele>45.77333</ele>
        <time>2024-07-12T10:28:47.850Z</time>
      </trkpt>
      <trkpt lat="53.21039" lon="7.67555">
        <ele>45.700749</ele>
        <time>2024-07-12T10:28:50.841Z</time>
      </trkpt>
      <trkpt lat="53.21041" lon="7.67575">
        <ele>45.62165</ele>
        <time>2024-07-12T10:28:53.849Z</time>
      </trkpt>
      <trkpt lat="53.21043" lon="7.67594">
        <ele>45.547537</ele>
        <time>2024-07-12T10:28:56.854Z</time>
      </trkpt>
      <trkpt lat="53.21043" lon="7.67615">
        <ele>45.468404</ele>
        <time>2024-07-12T10:28:59.857Z</time>
      </trkpt>
      <trkpt lat="53.21044" lon="7.67635">
        <ele>45.388143</ele>
        <time>2024-07-12T10:29:02.829Z</time>
      </trkpt>
      <trkpt lat="53.21046" lon="7.67655">
        <ele>45.310281</ele>
        <time>2024-07-12T10:29:05.854Z</time>
      </trkpt>
      <trkpt lat="53.21047" lon="7.67675">
        <ele>45.23317</ele>
        <time>2024-07-12T10:29:08.839Z</time>
      </trkpt>
      <trkpt lat="53.21048" lon="7.67695">
        <ele>45.154666</ele>
        <time>2024-07-12T10:29:11.843Z</time>
      </trkpt>
      <trkpt lat="53.2105" lon="7.67715">
        <ele>45.076715</ele>
        <time>2024-07-12T10:29:14.836Z</time>
      </trkpt>
      <trkpt lat="53.21052" lon="7.67734">
        <ele>45.081809</ele>
        <time>2024-07-12T10:29:17.839Z</time>
      </trkpt>
      <trkpt lat="53.21054" lon="7.67753">
        <ele>45.222337</ele>
        <time>2024-07-12T10:29:20.842Z</time>
      </trkpt>
      <trkpt lat="53.21055" lon="7.67772">
        <ele>45.359297</ele>
        <time>2024-07-12T10:29:23.855Z</time>
      </trkpt>
      <trkpt lat="53.21058" lon="7.67791">
        <ele>45.501445</ele>
        <time>2024-07-12T10:29:26.822Z</time>
      </trkpt>
      <trkpt lat="53.2106" lon="7.67811">
        <ele>45.644291</ele>
        <time>2024-07-12T10:29:29.830Z</time>
      </trkpt>
      <trkpt lat="53.21062" lon="7.6783">
        <ele>45.789228</ele>
        <time>2024-07-12T10:29:32.840Z</time>
      </trkpt>
      <trkpt lat="53.21064" lon="7.67851">
        <ele>45.936365</ele>
        <time>2024-07-12T10:29:35.832Z</time>
      </trkpt>
      <trkpt lat="53.21065" lon="7.67871">
        <ele>46.082356</ele>
        <time>2024-07-12T10:29:38.853Z</time>
      </trkpt>
      <trkpt lat="53.21067" lon="7.6789">
        <ele>46.225876</ele>
        <time>2024-07-12T10:29:41.834Z</time>
      </trkpt>
      <trkpt lat="53.21069" lon="7.67911">
        <ele>46.374447</ele>
        <time>2024-07-12T10:29:44.836Z</time>
      </trkpt>
      <trkpt lat="53.2107" lon="7.6793">
        <ele>46.516987</ele>
        <time>2024-07-12T10:29:47.849Z</time>
      </trkpt>
      <trkpt lat="53.21072" lon="7.6795">
        <ele>46.659862</ele>
        <time>2024-07-12T10:29:50.845Z</time>
      </trkpt>
      <trkpt lat="53.21071" lon="7.6797">
        <ele>46.806771</ele>
        <time>2024-07-12T10:29:53.834Z</time>
      </trkpt>
      <trkpt lat="53.21072" lon="7.67989">
        <ele>46.940187</ele>
        <time>2024-07-12T10:29:56.839Z</time>
      </trkpt>
      <trkpt lat="53.2107" lon="7.68007">
        <ele>47.077097</ele>
        <time>2024-07-12T10:29:59.840Z</time>
      </trkpt>
      <trkpt lat="53.21066" lon="7.68027">
        <ele>47.187671</ele>
        <time>2024-07-12T10:30:02.827Z</time>
      </trkpt>
      <trkpt lat="53.21065" lon="7.68049">
        <ele>47.115243</ele>
        <time>2024-07-12T10:30:05.836Z</time>
      </trkpt>
      <trkpt lat="53.21062" lon="7.6807">
        <ele>47.045776</ele>
        <time>2024-07-12T10:30:08.851Z</time>
      </trkpt>
      <trkpt lat="53.2106" lon="7.6809">
        <ele>46.978991</ele>
        <time>2024-07-12T10:30:11.837Z</time>
      </trkpt>
      <trkpt lat="53.21058" lon="7.68109">
        <ele>46.914122</ele>
        <time>2024-07-12T10:30:14.840Z</time>
      </trkpt>
      <trkpt lat="53.21055" lon="7.68129">
        <ele>46.847953</ele>
        <time>2024-07-12T10:30:17.836Z</time>
      </trkpt>
      <trkpt lat="53.21053" lon="7.68149">
        <ele>46.783742</ele>
        <time>2024-07-12T10:30:20.835Z</time>
      </trkpt>
      <trkpt lat="53.21051" lon="7.68168">
        <ele>46.720882</ele>
        <time>2024-07-12T10:30:23.822Z</time>
      </trkpt>
      <trkpt lat="53.21049" lon="7.68187">
        <ele>46.657058</ele>
        <time>2024-07-12T10:30:26.825Z</time>
      </trkpt>
      <trkpt lat="53.21049" lon="7.68205">
        <ele>46.599047</ele>
        <time>2024-07-12T10:30:29.849Z</time>
      </trkpt>
      <trkpt lat="53.21049" lon="7.68222">
        <ele>46.542546</ele>
        <time>2024-07-12T10:30:32.823Z</time>
      </trkpt>
      <trkpt lat="53.21048" lon="7.68241">
        <ele>46.481457</ele>
        <time>2024-07-12T10:30:35.834Z</time>
      </trkpt>
      <trkpt lat="53.21048" lon="7.6826">
        <ele>46.418884</ele>
        <time>2024-07-12T10:30:38.854Z</time>
      </trkpt>
      <trkpt lat="53.21047" lon="7.6828">
        <ele>46.353632</ele>
        <time>2024-07-12T10:30:41.836Z</time>
      </trkpt>
      <trkpt lat="53.21047" lon="7.68301">
        <ele>46.285801</ele>
        <time>2024-07-12T10:30:44.851Z</time>
      </trkpt>
      <trkpt lat="53.21046" lon="7.68321">
        <ele>46.219851</ele>
        <time>2024-07-12T10:30:47.839Z</time>
      </trkpt>
      <trkpt lat="53.21046" lon="7.68341">
        <ele>46.135199</ele>
        <time>2024-07-12T10:30:50.847Z</time>
      </trkpt>
      <trkpt lat="53.21045" lon="7.68361">
        <ele>46.048144</ele>
        <time>2024-07-12T10:30:53.831Z</time>
      </trkpt>
      <trkpt lat="53.21044" lon="7.68382">
        <ele>45.962056</ele>
        <time>2024-07-12T10:30:56.837Z</time>
      </trkpt>
      <trkpt lat="53.21044" lon="7.68402">
        <ele>45.874611</ele>
        <time>2024-07-12T10:30:59.838Z</time>
      </trkpt>
      <trkpt lat="53.21043" lon="7.68422">
        <ele>45.792195</ele>
        <time>2024-07-12T10:31:02.822Z</time>
      </trkpt>
      <trkpt lat="53.21043" lon="7.68442">
        <ele>45.706355</ele>
        <time>2024-07-12T10:31:05.852Z</time>
      </trkpt>
      <trkpt lat="53.21042" lon="7.68462">
        <ele>45.620053</ele>
        <time>2024-07-12T10:31:08.818Z</time>
      </trkpt>
      <trkpt lat="53.21042" lon="7.68483">
        <ele>45.529604</ele>
        <time>2024-07-12T10:31:11.828Z</time>
      </trkpt>
      <trkpt lat="53.21041" lon="7.68505">
        <ele>45.437859</ele>
        <time>2024-07-12T10:31:14.838Z</time>
      </trkpt>
      <trkpt lat="53.21041" lon="7.68527">
        <ele>45.345265</ele>
        <time>2024-07-12T10:31:17.834Z</time>
      </trkpt>
      <trkpt lat="53.2104" lon="7.68542">
        <ele>45.280654</ele>
        <time>2024-07-12T10:31:19.835Z</time>
      </trkpt>
      <trkpt lat="53.21039" lon="7.68557">
        <ele>45.216315</ele>
        <time>2024-07-12T10:31:21.838Z</time>
      </trkpt>
      <trkpt lat="53.21039" lon="7.68572">
        <ele>45.150937</ele>
        <time>2024-07-12T10:31:23.845Z</time>
      </trkpt>
      <trkpt lat="53.21039" lon="7.68588">
        <ele>45.086785</ele>
        <time>2024-07-12T10:31:25.831Z</time>
      </trkpt>
      <trkpt lat="53.21039" lon="7.68603">
        <ele>45.021831</ele>
        <time>2024-07-12T10:31:27.851Z</time>
      </trkpt>
      <trkpt lat="53.21039" lon="7.68618">
        <ele>44.95689</ele>
        <time>2024-07-12T10:31:29.834Z</time>
      </trkpt>
      <trkpt lat="53.21038" lon="7.6864">
        <ele>44.941229</ele>
        <time>2024-07-12T10:31:32.840Z</time>
      </trkpt>
      <trkpt lat="53.21037" lon="7.68662">
        <ele>44.936404</ele>
        <time>2024-07-12T10:31:35.847Z</time>
      </trkpt>
      <trkpt lat="53.21037" lon="7.68684">
        <ele>44.93167</ele>
        <time>2024-07-12T10:31:38.855Z</time>
      </trkpt>
      <trkpt lat="53.21037" lon="7.68705">
        <ele>44.927087</ele>
        <time>2024-07-12T10:31:41.836Z</time>
      </trkpt>
      <trkpt lat="53.21036" lon="7.68726">
        <ele>44.922412</ele>
        <time>2024-07-12T10:31:44.859Z</time>
      </trkpt>
      <trkpt lat="53.21036" lon="7.68746">
        <ele>44.917892</ele>
        <time>2024-07-12T10:31:47.822Z</time>
      </trkpt>
      <trkpt lat="53.21035" lon="7.68767">
        <ele>44.913374</ele>
        <time>2024-07-12T10:31:50.845Z</time>
      </trkpt>
      <trkpt lat="53.21034" lon="7.68788">
        <ele>44.908714</ele>
        <time>2024-07-12T10:31:53.835Z</time>
      </trkpt>
      <trkpt lat="53.21033" lon="7.6881">
        <ele>44.903885</ele>
        <time>2024-07-12T10:31:56.838Z</time>
      </trkpt>
      <trkpt lat="53.21033" lon="7.68832">
        <ele>44.899059</ele>
        <time>2024-07-12T10:31:59.851Z</time>
      </trkpt>
      <trkpt lat="53.21033" lon="7.68854">
        <ele>44.894236</ele>
        <time>2024-07-12T10:32:02.831Z</time>
      </trkpt>
      <trkpt lat="53.21032" lon="7.68876">
        <ele>44.889542</ele>
        <time>2024-07-12T10:32:05.836Z</time>
      </trkpt>
      <trkpt lat="53.21032" lon="7.68895">
        <ele>44.885221</ele>
        <time>2024-07-12T10:32:08.856Z</time>
      </trkpt>
      <trkpt lat="53.21031" lon="7.68913">
        <ele>44.881377</ele>
        <time>2024-07-12T10:32:11.840Z</time>
      </trkpt>
      <trkpt lat="53.2103" lon="7.6893">
        <ele>44.893494</ele>
        <time>2024-07-12T10:32:14.836Z</time>
      </trkpt>
      <trkpt lat="53.2103" lon="7.68948">
        <ele>44.919721</ele>
        <time>2024-07-12T10:32:17.838Z</time>
      </trkpt>
      <trkpt lat="53.2103" lon="7.68965">
        <ele>44.943475</ele>
        <time>2024-07-12T10:32:20.838Z</time>
      </trkpt>
      <trkpt lat="53.2103" lon="7.68983">
        <ele>44.970011</ele>
        <time>2024-07-12T10:32:24.851Z</time>
      </trkpt>
      <trkpt lat="53.21029" lon="7.69003">
        <ele>44.999216</ele>
        <time>2024-07-12T10:32:28.846Z</time>
      </trkpt>
      <trkpt lat="53.21028" lon="7.69021">
        <ele>45.026334</ele>
        <time>2024-07-12T10:32:31.837Z</time>
      </trkpt>
      <trkpt lat="53.21027" lon="7.69041">
        <ele>45.05483</ele>
        <time>2024-07-12T10:32:34.838Z</time>
      </trkpt>
      <trkpt lat="53.21026" lon="7.69061">
        <ele>45.083948</ele>
        <time>2024-07-12T10:32:37.833Z</time>
      </trkpt>
      <trkpt lat="53.21027" lon="7.69081">
        <ele>45.112947</ele>
        <time>2024-07-12T10:32:40.839Z</time>
      </trkpt>
      <trkpt lat="53.21027" lon="7.69098">
        <ele>45.137572</ele>
        <time>2024-07-12T10:32:43.822Z</time>
      </trkpt>
      <trkpt lat="53.21026" lon="7.69116">
        <ele>45.164857</ele>
        <time>2024-07-12T10:32:46.839Z</time>
      </trkpt>
      <trkpt lat="53.21025" lon="7.69136">
        <ele>45.193499</ele>
        <time>2024-07-12T10:32:49.835Z</time>
      </trkpt>
      <trkpt lat="53.21024" lon="7.69156">
        <ele>45.222495</ele>
        <time>2024-07-12T10:32:52.825Z</time>
      </trkpt>
      <trkpt lat="53.21023" lon="7.69176">
        <ele>45.251963</ele>
        <time>2024-07-12T10:32:55.818Z</time>
      </trkpt>
      <trkpt lat="53.21023" lon="7.69197">
        <ele>45.282124</ele>
        <time>2024-07-12T10:32:58.837Z</time>
      </trkpt>
      <trkpt lat="53.21023" lon="7.69216">
        <ele>45.309715</ele>
        <time>2024-07-12T10:33:01.848Z</time>
      </trkpt>
      <trkpt lat="53.21022" lon="7.69233">
        <ele>45.286315</ele>
        <time>2024-07-12T10:33:04.842Z</time>
      </trkpt>
      <trkpt lat="53.21022" lon="7.69249">
        <ele>45.246314</ele>
        <time>2024-07-12T10:33:07.843Z</time>
      </trkpt>
      <trkpt lat="53.2102" lon="7.69268">
        <ele>45.197813</ele>
        <time>2024-07-12T10:33:10.831Z</time>
      </trkpt>
      <trkpt lat="53.2102" lon="7.69288">
        <ele>45.147586</ele>
        <time>2024-07-12T10:33:13.855Z</time>
      </trkpt>
      <trkpt lat="53.21019" lon="7.6931">
        <ele>45.093008</ele>
        <time>2024-07-12T10:33:16.838Z</time>
      </trkpt>
      <trkpt lat="53.21019" lon="7.69325">
        <ele>45.055254</ele>
        <time>2024-07-12T10:33:18.838Z</time>
      </trkpt>
      <trkpt lat="53.21019" lon="7.6934">
        <ele>45.017262</ele>
        <time>2024-07-12T10:33:20.833Z</time>
      </trkpt>
      <trkpt lat="53.21018" lon="7.69356">
        <ele>44.978742</ele>
        <time>2024-07-12T10:33:22.828Z</time>
      </trkpt>
      <trkpt lat="53.21018" lon="7.69371">
        <ele>44.9405</ele>
        <time>2024-07-12T10:33:24.845Z</time>
      </trkpt>
      <trkpt lat="53.21018" lon="7.69387">
        <ele>44.901259</ele>
        <time>2024-07-12T10:33:26.825Z</time>
      </trkpt>
      <trkpt lat="53.21018" lon="7.69402">
        <ele>44.862241</ele>
        <time>2024-07-12T10:33:28.831Z</time>
      </trkpt>
      <trkpt lat="53.21017" lon="7.69418">
        <ele>44.823701</ele>
        <time>2024-07-12T10:33:30.852Z</time>
      </trkpt>
      <trkpt lat="53.21017" lon="7.69433">
        <ele>44.784887</ele>
        <time>2024-07-12T10:33:32.820Z</time>
      </trkpt>
      <trkpt lat="53.21016" lon="7.69455">
        <ele>44.73006</ele>
        <time>2024-07-12T10:33:35.818Z</time>
      </trkpt>
      <trkpt lat="53.21015" lon="7.69477">
        <ele>44.67582</ele>
        <time>2024-07-12T10:33:38.840Z</time>
      </trkpt>
      <trkpt lat="53.21015" lon="7.69492">
        <ele>44.6378</ele>
        <time>2024-07-12T10:33:40.846Z</time>
      </trkpt>
      <trkpt lat="53.21015" lon="7.69514">
        <ele>44.583568</ele>
        <time>2024-07-12T10:33:43.850Z</time>
      </trkpt>
      <trkpt lat="53.21014" lon="7.69535">
        <ele>44.594873</ele>
        <time>2024-07-12T10:33:46.844Z</time>
      </trkpt>
      <trkpt lat="53.21013" lon="7.69557">
        <ele>44.635244</ele>
        <time>2024-07-12T10:33:49.834Z</time>
      </trkpt>
      <trkpt lat="53.21012" lon="7.69578">
        <ele>44.67643</ele>
        <time>2024-07-12T10:33:52.847Z</time>
      </trkpt>
      <trkpt lat="53.21011" lon="7.696">
        <ele>44.718252</ele>
        <time>2024-07-12T10:33:55.823Z</time>
      </trkpt>
      <trkpt lat="53.21011" lon="7.69615">
        <ele>44.746669</ele>
        <time>2024-07-12T10:33:57.842Z</time>
      </trkpt>
      <trkpt lat="53.21011" lon="7.69638">
        <ele>44.788744</ele>
        <time>2024-07-12T10:34:00.836Z</time>
      </trkpt>
      <trkpt lat="53.2101" lon="7.69659">
        <ele>44.829139</ele>
        <time>2024-07-12T10:34:03.833Z</time>
      </trkpt>
      <trkpt lat="53.2101" lon="7.6968">
        <ele>44.869879</ele>
        <time>2024-07-12T10:34:06.833Z</time>
      </trkpt>
      <trkpt lat="53.21009" lon="7.69702">
        <ele>44.910732</ele>
        <time>2024-07-12T10:34:09.832Z</time>
      </trkpt>
      <trkpt lat="53.21008" lon="7.69723">
        <ele>44.950972</ele>
        <time>2024-07-12T10:34:12.821Z</time>
      </trkpt>
      <trkpt lat="53.21008" lon="7.69744">
        <ele>44.991334</ele>
        <time>2024-07-12T10:34:15.837Z</time>
      </trkpt>
      <trkpt lat="53.21007" lon="7.69765">
        <ele>45.031197</ele>
        <time>2024-07-12T10:34:18.843Z</time>
      </trkpt>
      <trkpt lat="53.21006" lon="7.69786">
        <ele>45.071294</ele>
        <time>2024-07-12T10:34:21.841Z</time>
      </trkpt>
      <trkpt lat="53.21005" lon="7.69808">
        <ele>45.111705</ele>
        <time>2024-07-12T10:34:24.836Z</time>
      </trkpt>
      <trkpt lat="53.21005" lon="7.69828">
        <ele>45.153722</ele>
        <time>2024-07-12T10:34:27.848Z</time>
      </trkpt>
      <trkpt lat="53.21005" lon="7.69847">
        <ele>45.197555</ele>
        <time>2024-07-12T10:34:30.843Z</time>
      </trkpt>
      <trkpt lat="53.21004" lon="7.69867">
        <ele>45.243232</ele>
        <time>2024-07-12T10:34:33.838Z</time>
      </trkpt>
      <trkpt lat="53.21004" lon="7.69887">
        <ele>45.28941</ele>
        <time>2024-07-12T10:34:36.841Z</time>
      </trkpt>
      <trkpt lat="53.21003" lon="7.69909">
        <ele>45.338359</ele>
        <time>2024-07-12T10:34:39.857Z</time>
      </trkpt>
      <trkpt lat="53.21002" lon="7.6993">
        <ele>45.387155</ele>
        <time>2024-07-12T10:34:42.846Z</time>
      </trkpt>
      <trkpt lat="53.21002" lon="7.69951">
        <ele>45.436272</ele>
        <time>2024-07-12T10:34:45.840Z</time>
      </trkpt>
      <trkpt lat="53.21001" lon="7.69972">
        <ele>45.483666</ele>
        <time>2024-07-12T10:34:48.845Z</time>
      </trkpt>
      <trkpt lat="53.21001" lon="7.69992">
        <ele>45.530707</ele>
        <time>2024-07-12T10:34:51.842Z</time>
      </trkpt>
      <trkpt lat="53.21001" lon="7.70012">
        <ele>45.575681</ele>
        <time>2024-07-12T10:34:54.843Z</time>
      </trkpt>
      <trkpt lat="53.21" lon="7.70033">
        <ele>45.623049</ele>
        <time>2024-07-12T10:34:57.850Z</time>
      </trkpt>
      <trkpt lat="53.20999" lon="7.70054">
        <ele>45.671358</ele>
        <time>2024-07-12T10:35:00.849Z</time>
      </trkpt>
      <trkpt lat="53.20998" lon="7.70073">
        <ele>45.716895</ele>
        <time>2024-07-12T10:35:03.842Z</time>
      </trkpt>
      <trkpt lat="53.20997" lon="7.70094">
        <ele>45.763373</ele>
        <time>2024-07-12T10:35:06.854Z</time>
      </trkpt>
      <trkpt lat="53.20997" lon="7.70113">
        <ele>45.809076</ele>
        <time>2024-07-12T10:35:09.849Z</time>
      </trkpt>
      <trkpt lat="53.20996" lon="7.70133">
        <ele>45.769599</ele>
        <time>2024-07-12T10:35:12.826Z</time>
      </trkpt>
      <trkpt lat="53.20996" lon="7.70153">
        <ele>45.684691</ele>
        <time>2024-07-12T10:35:15.842Z</time>
      </trkpt>
      <trkpt lat="53.20996" lon="7.70173">
        <ele>45.598947</ele>
        <time>2024-07-12T10:35:18.829Z</time>
      </trkpt>
      <trkpt lat="53.20995" lon="7.70193">
        <ele>45.5118</ele>
        <time>2024-07-12T10:35:21.838Z</time>
      </trkpt>
      <trkpt lat="53.20995" lon="7.70214">
        <ele>45.420937</ele>
        <time>2024-07-12T10:35:24.818Z</time>
      </trkpt>
      <trkpt lat="53.20995" lon="7.70235">
        <ele>45.331789</ele>
        <time>2024-07-12T10:35:27.844Z</time>
      </trkpt>
      <trkpt lat="53.20997" lon="7.70256">
        <ele>45.242082</ele>
        <time>2024-07-12T10:35:30.839Z</time>
      </trkpt>
      <trkpt lat="53.20998" lon="7.70277">
        <ele>45.151367</ele>
        <time>2024-07-12T10:35:33.840Z</time>
      </trkpt>
      <trkpt lat="53.20999" lon="7.70292">
        <ele>45.085767</ele>
        <time>2024-07-12T10:35:35.853Z</time>
      </trkpt>
      <trkpt lat="53.21003" lon="7.70313">
        <ele>44.992481</ele>
        <time>2024-07-12T10:35:38.837Z</time>
      </trkpt>
      <trkpt lat="53.21007" lon="7.70334">
        <ele>44.89926</ele>
        <time>2024-07-12T10:35:41.847Z</time>
      </trkpt>
      <trkpt lat="53.21011" lon="7.70355">
        <ele>44.80541</ele>
        <time>2024-07-12T10:35:44.831Z</time>
      </trkpt>
      <trkpt lat="53.21014" lon="7.70369">
        <ele>44.73918</ele>
        <time>2024-07-12T10:35:46.828Z</time>
      </trkpt>
      <trkpt lat="53.21018" lon="7.70385">
        <ele>44.668463</ele>
        <time>2024-07-12T10:35:48.837Z</time>
      </trkpt>
      <trkpt lat="53.21022" lon="7.704">
        <ele>44.597406</ele>
        <time>2024-07-12T10:35:50.831Z</time>
      </trkpt>
      <trkpt lat="53.21026" lon="7.70415">
        <ele>44.545943</ele>
        <time>2024-07-12T10:35:52.827Z</time>
      </trkpt>
      <trkpt lat="53.21031" lon="7.7043">
        <ele>44.601948</ele>
        <time>2024-07-12T10:35:54.821Z</time>
      </trkpt>
      <trkpt lat="53.21035" lon="7.70445">
        <ele>44.655369</ele>
        <time>2024-07-12T10:35:56.839Z</time>
      </trkpt>
      <trkpt lat="53.21039" lon="7.7046">
        <ele>44.71148</ele>
        <time>2024-07-12T10:35:58.843Z</time>
      </trkpt>
      <trkpt lat="53.21043" lon="7.70476">
        <ele>44.766917</ele>
        <time>2024-07-12T10:36:00.846Z</time>
      </trkpt>
      <trkpt lat="53.21046" lon="7.70491">
        <ele>44.819045</ele>
        <time>2024-07-12T10:36:02.849Z</time>
      </trkpt>
      <trkpt lat="53.2105" lon="7.70505">
        <ele>44.871799</ele>
        <time>2024-07-12T10:36:04.853Z</time>
      </trkpt>
      <trkpt lat="53.21054" lon="7.7052">
        <ele>44.925457</ele>
        <time>2024-07-12T10:36:06.836Z</time>
      </trkpt>
      <trkpt lat="53.21058" lon="7.70534">
        <ele>44.976511</ele>
        <time>2024-07-12T10:36:08.840Z</time>
      </trkpt>
      <trkpt lat="53.21062" lon="7.70549">
        <ele>45.026943</ele>
        <time>2024-07-12T10:36:10.820Z</time>
      </trkpt>
      <trkpt lat="53.21066" lon="7.70563">
        <ele>45.079178</ele>
        <time>2024-07-12T10:36:12.827Z</time>
      </trkpt>
      <trkpt lat="53.2107" lon="7.70577">
        <ele>45.130298</ele>
        <time>2024-07-12T10:36:14.839Z</time>
      </trkpt>
      <trkpt lat="53.21074" lon="7.70591">
        <ele>45.181888</ele>
        <time>2024-07-12T10:36:16.835Z</time>
      </trkpt>
      <trkpt lat="53.21081" lon="7.70611">
        <ele>45.256094</ele>
        <time>2024-07-12T10:36:19.834Z</time>
      </trkpt>
      <trkpt lat="53.21086" lon="7.70631">
        <ele>45.328642</ele>
        <time>2024-07-12T10:36:22.825Z</time>
      </trkpt>
      <trkpt lat="53.21091" lon="7.70651">
        <ele>45.399489</ele>
        <time>2024-07-12T10:36:25.860Z</time>
      </trkpt>
      <trkpt lat="53.21096" lon="7.7067">
        <ele>45.468254</ele>
        <time>2024-07-12T10:36:28.844Z</time>
      </trkpt>
      <trkpt lat="53.211" lon="7.70684">
        <ele>45.518609</ele>
        <time>2024-07-12T10:36:30.837Z</time>
      </trkpt>
      <trkpt lat="53.21106" lon="7.70704">
        <ele>45.498958</ele>
        <time>2024-07-12T10:36:33.828Z</time>
      </trkpt>
      <trkpt lat="53.2111" lon="7.70718">
        <ele>45.483175</ele>
        <time>2024-07-12T10:36:35.837Z</time>
      </trkpt>
      <trkpt lat="53.21114" lon="7.70732">
        <ele>45.466969</ele>
        <time>2024-07-12T10:36:37.853Z</time>
      </trkpt>
      <trkpt lat="53.21119" lon="7.70753">
        <ele>45.443517</ele>
        <time>2024-07-12T10:36:40.839Z</time>
      </trkpt>
      <trkpt lat="53.21125" lon="7.70773">
        <ele>45.420619</ele>
        <time>2024-07-12T10:36:43.842Z</time>
      </trkpt>
      <trkpt lat="53.2113" lon="7.70793">
        <ele>45.396932</ele>
        <time>2024-07-12T10:36:46.835Z</time>
      </trkpt>
      <trkpt lat="53.21135" lon="7.70814">
        <ele>45.373643</ele>
        <time>2024-07-12T10:36:49.852Z</time>
      </trkpt>
      <trkpt lat="53.21138" lon="7.70828">
        <ele>45.357517</ele>
        <time>2024-07-12T10:36:51.834Z</time>
      </trkpt>
      <trkpt lat="53.21142" lon="7.70843">
        <ele>45.34154</ele>
        <time>2024-07-12T10:36:53.831Z</time>
      </trkpt>
      <trkpt lat="53.21145" lon="7.70857">
        <ele>45.325668</ele>
        <time>2024-07-12T10:36:55.839Z</time>
      </trkpt>
      <trkpt lat="53.21148" lon="7.70871">
        <ele>45.309696</ele>
        <time>2024-07-12T10:36:57.834Z</time>
      </trkpt>
      <trkpt lat="53.21151" lon="7.70886">
        <ele>45.293328</ele>
        <time>2024-07-12T10:36:59.841Z</time>
      </trkpt>
      <trkpt lat="53.21153" lon="7.70901">
        <ele>45.27741</ele>
        <time>2024-07-12T10:37:01.841Z</time>
      </trkpt>
      <trkpt lat="53.21156" lon="7.70922">
        <ele>45.254729</ele>
        <time>2024-07-12T10:37:04.839Z</time>
      </trkpt>
      <trkpt lat="53.21157" lon="7.70944">
        <ele>45.231769</ele>
        <time>2024-07-12T10:37:07.827Z</time>
      </trkpt>
      <trkpt lat="53.21158" lon="7.7096">
        <ele>45.215417</ele>
        <time>2024-07-12T10:37:09.823Z</time>
      </trkpt>
      <trkpt lat="53.2116" lon="7.70982">
        <ele>45.278223</ele>
        <time>2024-07-12T10:37:12.850Z</time>
      </trkpt>
      <trkpt lat="53.21161" lon="7.70997">
        <ele>45.34931</ele>
        <time>2024-07-12T10:37:14.834Z</time>
      </trkpt>
      <trkpt lat="53.21163" lon="7.71019">
        <ele>45.451103</ele>
        <time>2024-07-12T10:37:17.841Z</time>
      </trkpt>
      <trkpt lat="53.21164" lon="7.71041">
        <ele>45.552959</ele>
        <time>2024-07-12T10:37:20.827Z</time>
      </trkpt>
      <trkpt lat="53.21166" lon="7.71056">
        <ele>45.622118</ele>
        <time>2024-07-12T10:37:22.833Z</time>
      </trkpt>
      <trkpt lat="53.21167" lon="7.71071">
        <ele>45.693393</ele>
        <time>2024-07-12T10:37:24.838Z</time>
      </trkpt>
      <trkpt lat="53.21169" lon="7.71087">
        <ele>45.764217</ele>
        <time>2024-07-12T10:37:26.857Z</time>
      </trkpt>
      <trkpt lat="53.21171" lon="7.71102">
        <ele>45.83496</ele>
        <time>2024-07-12T10:37:28.835Z</time>
      </trkpt>
      <trkpt lat="53.21172" lon="7.71117">
        <ele>45.907054</ele>
        <time>2024-07-12T10:37:30.846Z</time>
      </trkpt>
      <trkpt lat="53.21172" lon="7.71133">
        <ele>45.980063</ele>
        <time>2024-07-12T10:37:32.831Z</time>
      </trkpt>
      <trkpt lat="53.21174" lon="7.71148">
        <ele>46.050037</ele>
        <time>2024-07-12T10:37:34.840Z</time>
      </trkpt>
      <trkpt lat="53.21175" lon="7.71165">
        <ele>46.126282</ele>
        <time>2024-07-12T10:37:36.849Z</time>
      </trkpt>
      <trkpt lat="53.21176" lon="7.7118">
        <ele>46.199368</ele>
        <time>2024-07-12T10:37:38.857Z</time>
      </trkpt>
      <trkpt lat="53.21177" lon="7.71196">
        <ele>46.273293</ele>
        <time>2024-07-12T10:37:40.851Z</time>
      </trkpt>
      <trkpt lat="53.21179" lon="7.71212">
        <ele>46.345401</ele>
        <time>2024-07-12T10:37:42.838Z</time>
      </trkpt>
      <trkpt lat="53.2118" lon="7.71228">
        <ele>46.418873</ele>
        <time>2024-07-12T10:37:44.843Z</time>
      </trkpt>
      <trkpt lat="53.21181" lon="7.71243">
        <ele>46.491224</ele>
        <time>2024-07-12T10:37:46.836Z</time>
      </trkpt>
      <trkpt lat="53.21182" lon="7.71259">
        <ele>46.564852</ele>
        <time>2024-07-12T10:37:48.839Z</time>
      </trkpt>
      <trkpt lat="53.21184" lon="7.71276">
        <ele>46.561075</ele>
        <time>2024-07-12T10:37:50.840Z</time>
      </trkpt>
      <trkpt lat="53.21185" lon="7.71291">
        <ele>46.523171</ele>
        <time>2024-07-12T10:37:52.833Z</time>
      </trkpt>
      <trkpt lat="53.21185" lon="7.71308">
        <ele>46.482759</ele>
        <time>2024-07-12T10:37:54.842Z</time>
      </trkpt>
      <trkpt lat="53.21186" lon="7.71325">
        <ele>46.442268</ele>
        <time>2024-07-12T10:37:56.834Z</time>
      </trkpt>
      <trkpt lat="53.21186" lon="7.71341">
        <ele>46.402629</ele>
        <time>2024-07-12T10:37:58.839Z</time>
      </trkpt>
      <trkpt lat="53.21186" lon="7.71357">
        <ele>46.363475</ele>
        <time>2024-07-12T10:38:00.858Z</time>
      </trkpt>
      <trkpt lat="53.21187" lon="7.71373">
        <ele>46.32447</ele>
        <time>2024-07-12T10:38:02.831Z</time>
      </trkpt>
      <trkpt lat="53.21186" lon="7.71389">
        <ele>46.285792</ele>
        <time>2024-07-12T10:38:04.841Z</time>
      </trkpt>
      <trkpt lat="53.21187" lon="7.71405">
        <ele>46.247368</ele>
        <time>2024-07-12T10:38:06.852Z</time>
      </trkpt>
      <trkpt lat="53.21188" lon="7.7142">
        <ele>46.210715</ele>
        <time>2024-07-12T10:38:08.847Z</time>
      </trkpt>
      <trkpt lat="53.21188" lon="7.71436">
        <ele>46.172004</ele>
        <time>2024-07-12T10:38:10.838Z</time>
      </trkpt>
      <trkpt lat="53.21189" lon="7.71451">
        <ele>46.134695</ele>
        <time>2024-07-12T10:38:12.842Z</time>
      </trkpt>
      <trkpt lat="53.2119" lon="7.71473">
        <ele>46.081146</ele>
        <time>2024-07-12T10:38:15.840Z</time>
      </trkpt>
      <trkpt lat="53.21191" lon="7.71488">
        <ele>46.043648</ele>
        <time>2024-07-12T10:38:17.845Z</time>
      </trkpt>
      <trkpt lat="53.21191" lon="7.71509">
        <ele>45.99307</ele>
        <time>2024-07-12T10:38:20.852Z</time>
      </trkpt>
      <trkpt lat="53.21192" lon="7.71529">
        <ele>45.945088</ele>
        <time>2024-07-12T10:38:23.845Z</time>
      </trkpt>
      <trkpt lat="53.21192" lon="7.71547">
        <ele>45.899857</ele>
        <time>2024-07-12T10:38:26.841Z</time>
      </trkpt>
      <trkpt lat="53.21192" lon="7.71564">
        <ele>45.858142</ele>
        <time>2024-07-12T10:38:29.837Z</time>
      </trkpt>
      <trkpt lat="53.21193" lon="7.71581">
        <ele>45.800043</ele>
        <time>2024-07-12T10:38:32.850Z</time>
      </trkpt>
      <trkpt lat="53.21194" lon="7.716">
        <ele>45.733682</ele>
        <time>2024-07-12T10:38:36.840Z</time>
      </trkpt>
      <trkpt lat="53.21194" lon="7.71616">
        <ele>45.681429</ele>
        <time>2024-07-12T10:38:39.834Z</time>
      </trkpt>
      <trkpt lat="53.21194" lon="7.71633">
        <ele>45.622302</ele>
        <time>2024-07-12T10:38:42.825Z</time>
      </trkpt>
      <trkpt lat="53.21194" lon="7.71651">
        <ele>45.560421</ele>
        <time>2024-07-12T10:38:45.841Z</time>
      </trkpt>
      <trkpt lat="53.21194" lon="7.71671">
        <ele>45.49266</ele>
        <time>2024-07-12T10:38:48.852Z</time>
      </trkpt>
      <trkpt lat="53.21195" lon="7.71692">
        <ele>45.42009</ele>
        <time>2024-07-12T10:38:51.838Z</time>
      </trkpt>
      <trkpt lat="53.21195" lon="7.71712">
        <ele>45.350296</ele>
        <time>2024-07-12T10:38:54.823Z</time>
      </trkpt>
      <trkpt lat="53.21196" lon="7.71733">
        <ele>45.279366</ele>
        <time>2024-07-12T10:38:57.824Z</time>
      </trkpt>
      <trkpt lat="53.21196" lon="7.71753">
        <ele>45.210231</ele>
        <time>2024-07-12T10:39:00.828Z</time>
      </trkpt>
      <trkpt lat="53.21196" lon="7.71774">
        <ele>45.135942</ele>
        <time>2024-07-12T10:39:03.837Z</time>
      </trkpt>
      <trkpt lat="53.21197" lon="7.71795">
        <ele>45.065967</ele>
        <time>2024-07-12T10:39:06.845Z</time>
      </trkpt>
      <trkpt lat="53.21198" lon="7.71815">
        <ele>44.995897</ele>
        <time>2024-07-12T10:39:09.846Z</time>
      </trkpt>
      <trkpt lat="53.212" lon="7.71836">
        <ele>44.923818</ele>
        <time>2024-07-12T10:39:12.836Z</time>
      </trkpt>
      <trkpt lat="53.21204" lon="7.71856">
        <ele>44.84966</ele>
        <time>2024-07-12T10:39:15.839Z</time>
      </trkpt>
      <trkpt lat="53.21205" lon="7.71872">
        <ele>44.878842</ele>
        <time>2024-07-12T10:39:17.839Z</time>
      </trkpt>
      <trkpt lat="53.21207" lon="7.71887">
        <ele>44.969744</ele>
        <time>2024-07-12T10:39:19.831Z</time>
      </trkpt>
      <trkpt lat="53.21209" lon="7.71903">
        <ele>45.061131</ele>
        <time>2024-07-12T10:39:21.832Z</time>
      </trkpt>
      <trkpt lat="53.21211" lon="7.71919">
        <ele>45.157767</ele>
        <time>2024-07-12T10:39:23.835Z</time>
      </trkpt>
      <trkpt lat="53.21213" lon="7.71934">
        <ele>45.248897</ele>
        <time>2024-07-12T10:39:25.839Z</time>
      </trkpt>
      <trkpt lat="53.21214" lon="7.7195">
        <ele>45.340248</ele>
        <time>2024-07-12T10:39:27.841Z</time>
      </trkpt>
      <trkpt lat="53.21216" lon="7.71966">
        <ele>45.435027</ele>
        <time>2024-07-12T10:39:29.845Z</time>
      </trkpt>
      <trkpt lat="53.21219" lon="7.71982">
        <ele>45.529806</ele>
        <time>2024-07-12T10:39:31.835Z</time>
      </trkpt>
      <trkpt lat="53.21221" lon="7.71997">
        <ele>45.620971</ele>
        <time>2024-07-12T10:39:33.841Z</time>
      </trkpt>
      <trkpt lat="53.21224" lon="7.72012">
        <ele>45.71167</ele>
        <time>2024-07-12T10:39:35.815Z</time>
      </trkpt>
      <trkpt lat="53.21226" lon="7.72028">
        <ele>45.806235</ele>
        <time>2024-07-12T10:39:37.850Z</time>
      </trkpt>
      <trkpt lat="53.21229" lon="7.72049">
        <ele>45.931525</ele>
        <time>2024-07-12T10:39:40.839Z</time>
      </trkpt>
      <trkpt lat="53.2123" lon="7.72064">
        <ele>46.021731</ele>
        <time>2024-07-12T10:39:42.832Z</time>
      </trkpt>
      <trkpt lat="53.21233" lon="7.7208">
        <ele>46.119558</ele>
        <time>2024-07-12T10:39:44.838Z</time>
      </trkpt>
      <trkpt lat="53.21236" lon="7.72097">
        <ele>46.219708</ele>
        <time>2024-07-12T10:39:46.836Z</time>
      </trkpt>
      <trkpt lat="53.21238" lon="7.72113">
        <ele>46.317432</ele>
        <time>2024-07-12T10:39:48.851Z</time>
      </trkpt>
      <trkpt lat="53.21241" lon="7.7213">
        <ele>46.417305</ele>
        <time>2024-07-12T10:39:50.839Z</time>
      </trkpt>
      <trkpt lat="53.21244" lon="7.72145">
        <ele>46.511352</ele>
        <time>2024-07-12T10:39:52.818Z</time>
      </trkpt>
      <trkpt lat="53.21246" lon="7.72162">
        <ele>46.601259</ele>
        <time>2024-07-12T10:39:54.819Z</time>
      </trkpt>
      <trkpt lat="53.21249" lon="7.72177">
        <ele>46.67323</ele>
        <time>2024-07-12T10:39:56.862Z</time>
      </trkpt>
      <trkpt lat="53.21251" lon="7.722">
        <ele>46.775377</ele>
        <time>2024-07-12T10:39:59.826Z</time>
      </trkpt>
      <trkpt lat="53.21254" lon="7.72216">
        <ele>46.849375</ele>
        <time>2024-07-12T10:40:01.850Z</time>
      </trkpt>
      <trkpt lat="53.21256" lon="7.72233">
        <ele>46.923806</ele>
        <time>2024-07-12T10:40:03.840Z</time>
      </trkpt>
      <trkpt lat="53.21257" lon="7.72248">
        <ele>46.991948</ele>
        <time>2024-07-12T10:40:05.854Z</time>
      </trkpt>
      <trkpt lat="53.2126" lon="7.72269">
        <ele>47.08851</ele>
        <time>2024-07-12T10:40:08.845Z</time>
      </trkpt>
      <trkpt lat="53.21263" lon="7.72284">
        <ele>47.157721</ele>
        <time>2024-07-12T10:40:10.835Z</time>
      </trkpt>
      <trkpt lat="53.21265" lon="7.72299">
        <ele>47.22611</ele>
        <time>2024-07-12T10:40:12.819Z</time>
      </trkpt>
      <trkpt lat="53.21269" lon="7.72314">
        <ele>47.298489</ele>
        <time>2024-07-12T10:40:14.839Z</time>
      </trkpt>
      <trkpt lat="53.21272" lon="7.72328">
        <ele>47.366616</ele>
        <time>2024-07-12T10:40:16.851Z</time>
      </trkpt>
      <trkpt lat="53.21278" lon="7.72347">
        <ele>47.461692</ele>
        <time>2024-07-12T10:40:19.831Z</time>
      </trkpt>
      <trkpt lat="53.21283" lon="7.72366">
        <ele>47.556502</ele>
        <time>2024-07-12T10:40:22.836Z</time>
      </trkpt>
      <trkpt lat="53.21287" lon="7.7238">
        <ele>47.62352</ele>
        <time>2024-07-12T10:40:24.813Z</time>
      </trkpt>
      <trkpt lat="53.21292" lon="7.724">
        <ele>47.720219</ele>
        <time>2024-07-12T10:40:27.851Z</time>
      </trkpt>
      <trkpt lat="53.21297" lon="7.72421">
        <ele>47.819169</ele>
        <time>2024-07-12T10:40:30.837Z</time>
      </trkpt>
      <trkpt lat="53.21303" lon="7.72441">
        <ele>47.903059</ele>
        <time>2024-07-12T10:40:33.834Z</time>
      </trkpt>
      <trkpt lat="53.21307" lon="7.72456">
        <ele>47.887581</ele>
        <time>2024-07-12T10:40:35.837Z</time>
      </trkpt>
      <trkpt lat="53.21311" lon="7.7247">
        <ele>47.872461</ele>
        <time>2024-07-12T10:40:37.834Z</time>
      </trkpt>
      <trkpt lat="53.21316" lon="7.72485">
        <ele>47.85631</ele>
        <time>2024-07-12T10:40:39.855Z</time>
      </trkpt>
      <trkpt lat="53.21319" lon="7.725">
        <ele>47.84072</ele>
        <time>2024-07-12T10:40:41.849Z</time>
      </trkpt>
      <trkpt lat="53.21326" lon="7.72519">
        <ele>47.81956</ele>
        <time>2024-07-12T10:40:44.833Z</time>
      </trkpt>
      <trkpt lat="53.21331" lon="7.72538">
        <ele>47.79947</ele>
        <time>2024-07-12T10:40:47.824Z</time>
      </trkpt>
      <trkpt lat="53.21336" lon="7.72556">
        <ele>47.779831</ele>
        <time>2024-07-12T10:40:50.836Z</time>
      </trkpt>
      <trkpt lat="53.21342" lon="7.72575">
        <ele>47.759631</ele>
        <time>2024-07-12T10:40:53.831Z</time>
      </trkpt>
      <trkpt lat="53.21346" lon="7.72589">
        <ele>47.744592</ele>
        <time>2024-07-12T10:40:55.824Z</time>
      </trkpt>
      <trkpt lat="53.21352" lon="7.72609">
        <ele>47.723687</ele>
        <time>2024-07-12T10:40:58.836Z</time>
      </trkpt>
      <trkpt lat="53.21357" lon="7.72629">
        <ele>47.70215</ele>
        <time>2024-07-12T10:41:01.825Z</time>
      </trkpt>
      <trkpt lat="53.21362" lon="7.72643">
        <ele>47.686954</ele>
        <time>2024-07-12T10:41:03.843Z</time>
      </trkpt>
      <trkpt lat="53.21367" lon="7.72663">
        <ele>47.665522</ele>
        <time>2024-07-12T10:41:06.842Z</time>
      </trkpt>
      <trkpt lat="53.21371" lon="7.72677">
        <ele>47.650396</ele>
        <time>2024-07-12T10:41:08.833Z</time>
      </trkpt>
      <trkpt lat="53.21375" lon="7.72692">
        <ele>47.635511</ele>
        <time>2024-07-12T10:41:10.840Z</time>
      </trkpt>
      <trkpt lat="53.21379" lon="7.72706">
        <ele>47.620006</ele>
        <time>2024-07-12T10:41:12.843Z</time>
      </trkpt>
      <trkpt lat="53.21383" lon="7.72721">
        <ele>47.579579</ele>
        <time>2024-07-12T10:41:14.839Z</time>
      </trkpt>
      <trkpt lat="53.21388" lon="7.72735">
        <ele>47.532182</ele>
        <time>2024-07-12T10:41:16.836Z</time>
      </trkpt>
      <trkpt lat="53.21393" lon="7.72755">
        <ele>47.468075</ele>
        <time>2024-07-12T10:41:19.821Z</time>
      </trkpt>
      <trkpt lat="53.21399" lon="7.72775">
        <ele>47.403933</ele>
        <time>2024-07-12T10:41:22.855Z</time>
      </trkpt>
      <trkpt lat="53.21403" lon="7.72789">
        <ele>47.358367</ele>
        <time>2024-07-12T10:41:24.849Z</time>
      </trkpt>
      <trkpt lat="53.21407" lon="7.72804">
        <ele>47.311757</ele>
        <time>2024-07-12T10:41:26.850Z</time>
      </trkpt>
      <trkpt lat="53.21411" lon="7.72818">
        <ele>47.265621</ele>
        <time>2024-07-12T10:41:28.837Z</time>
      </trkpt>
      <trkpt lat="53.21415" lon="7.72833">
        <ele>47.21837</ele>
        <time>2024-07-12T10:41:30.839Z</time>
      </trkpt>
      <trkpt lat="53.21419" lon="7.72847">
        <ele>47.171885</ele>
        <time>2024-07-12T10:41:32.826Z</time>
      </trkpt>
      <trkpt lat="53.21423" lon="7.72861">
        <ele>47.127317</ele>
        <time>2024-07-12T10:41:34.844Z</time>
      </trkpt>
      <trkpt lat="53.21427" lon="7.72876">
        <ele>47.080596</ele>
        <time>2024-07-12T10:41:36.858Z</time>
      </trkpt>
      <trkpt lat="53.21431" lon="7.7289">
        <ele>47.033809</ele>
        <time>2024-07-12T10:41:38.853Z</time>
      </trkpt>
      <trkpt lat="53.21434" lon="7.72905">
        <ele>46.988132</ele>
        <time>2024-07-12T10:41:40.852Z</time>
      </trkpt>
      <trkpt lat="53.21439" lon="7.72919">
        <ele>46.941047</ele>
        <time>2024-07-12T10:41:42.826Z</time>
      </trkpt>
      <trkpt lat="53.21443" lon="7.72934">
        <ele>46.894911</ele>
        <time>2024-07-12T10:41:44.854Z</time>
      </trkpt>
      <trkpt lat="53.21447" lon="7.72948">
        <ele>46.850114</ele>
        <time>2024-07-12T10:41:46.840Z</time>
      </trkpt>
      <trkpt lat="53.2145" lon="7.72962">
        <ele>46.804783</ele>
        <time>2024-07-12T10:41:48.843Z</time>
      </trkpt>
      <trkpt lat="53.21456" lon="7.72983">
        <ele>46.74369</ele>
        <time>2024-07-12T10:41:51.844Z</time>
      </trkpt>
      <trkpt lat="53.21461" lon="7.72997">
        <ele>46.757509</ele>
        <time>2024-07-12T10:41:53.840Z</time>
      </trkpt>
      <trkpt lat="53.21465" lon="7.73012">
        <ele>46.770847</ele>
        <time>2024-07-12T10:41:55.834Z</time>
      </trkpt>
      <trkpt lat="53.21469" lon="7.73027">
        <ele>46.78432</ele>
        <time>2024-07-12T10:41:57.837Z</time>
      </trkpt>
      <trkpt lat="53.21473" lon="7.73041">
        <ele>46.79738</ele>
        <time>2024-07-12T10:41:59.853Z</time>
      </trkpt>
      <trkpt lat="53.21476" lon="7.73056">
        <ele>46.810433</ele>
        <time>2024-07-12T10:42:01.841Z</time>
      </trkpt>
      <trkpt lat="53.2148" lon="7.73071">
        <ele>46.823625</ele>
        <time>2024-07-12T10:42:03.838Z</time>
      </trkpt>
      <trkpt lat="53.21485" lon="7.73084">
        <ele>46.836417</ele>
        <time>2024-07-12T10:42:05.839Z</time>
      </trkpt>
      <trkpt lat="53.21489" lon="7.73098">
        <ele>46.849344</ele>
        <time>2024-07-12T10:42:07.839Z</time>
      </trkpt>
      <trkpt lat="53.21493" lon="7.73113">
        <ele>46.862295</ele>
        <time>2024-07-12T10:42:09.847Z</time>
      </trkpt>
      <trkpt lat="53.21497" lon="7.73127">
        <ele>46.875026</ele>
        <time>2024-07-12T10:42:11.844Z</time>
      </trkpt>
      <trkpt lat="53.21501" lon="7.73141">
        <ele>46.88826</ele>
        <time>2024-07-12T10:42:13.861Z</time>
      </trkpt>
      <trkpt lat="53.21506" lon="7.73155">
        <ele>46.901309</ele>
        <time>2024-07-12T10:42:15.836Z</time>
      </trkpt>
      <trkpt lat="53.2151" lon="7.7317">
        <ele>46.914276</ele>
        <time>2024-07-12T10:42:17.856Z</time>
      </trkpt>
      <trkpt lat="53.21513" lon="7.73184">
        <ele>46.927262</ele>
        <time>2024-07-12T10:42:19.854Z</time>
      </trkpt>
      <trkpt lat="53.21517" lon="7.73199">
        <ele>46.940515</ele>
        <time>2024-07-12T10:42:21.836Z</time>
      </trkpt>
      <trkpt lat="53.21521" lon="7.73214">
        <ele>46.954031</ele>
        <time>2024-07-12T10:42:23.835Z</time>
      </trkpt>
      <trkpt lat="53.21525" lon="7.73228">
        <ele>46.967166</ele>
        <time>2024-07-12T10:42:25.850Z</time>
      </trkpt>
      <trkpt lat="53.21529" lon="7.73244">
        <ele>46.981055</ele>
        <time>2024-07-12T10:42:27.837Z</time>
      </trkpt>
      <trkpt lat="53.21532" lon="7.73259">
        <ele>47.00933</ele>
        <time>2024-07-12T10:42:29.834Z</time>
      </trkpt>
      <trkpt lat="53.21535" lon="7.73275">
        <ele>47.063838</ele>
        <time>2024-07-12T10:42:31.850Z</time>
      </trkpt>
      <trkpt lat="53.21538" lon="7.7329">
        <ele>47.116579</ele>
        <time>2024-07-12T10:42:33.839Z</time>
      </trkpt>
      <trkpt lat="53.2154" lon="7.73312">
        <ele>47.191973</ele>
        <time>2024-07-12T10:42:36.835Z</time>
      </trkpt>
      <trkpt lat="53.21542" lon="7.73327">
        <ele>47.244095</ele>
        <time>2024-07-12T10:42:38.836Z</time>
      </trkpt>
      <trkpt lat="53.21543" lon="7.73343">
        <ele>47.296368</ele>
        <time>2024-07-12T10:42:40.855Z</time>
      </trkpt>
      <trkpt lat="53.21543" lon="7.73358">
        <ele>47.348171</ele>
        <time>2024-07-12T10:42:42.837Z</time>
      </trkpt>
      <trkpt lat="53.21544" lon="7.73374">
        <ele>47.400682</ele>
        <time>2024-07-12T10:42:44.842Z</time>
      </trkpt>
      <trkpt lat="53.21545" lon="7.73396">
        <ele>47.475948</ele>
        <time>2024-07-12T10:42:47.826Z</time>
      </trkpt>
      <trkpt lat="53.21545" lon="7.73412">
        <ele>47.527309</ele>
        <time>2024-07-12T10:42:49.835Z</time>
      </trkpt>
      <trkpt lat="53.21546" lon="7.73433">
        <ele>47.59999</ele>
        <time>2024-07-12T10:42:52.814Z</time>
      </trkpt>
      <trkpt lat="53.21546" lon="7.73455">
        <ele>47.67351</ele>
        <time>2024-07-12T10:42:55.840Z</time>
      </trkpt>
      <trkpt lat="53.21546" lon="7.73476">
        <ele>47.745353</ele>
        <time>2024-07-12T10:42:58.851Z</time>
      </trkpt>
      <trkpt lat="53.21545" lon="7.73497">
        <ele>47.815397</ele>
        <time>2024-07-12T10:43:01.858Z</time>
      </trkpt>
      <trkpt lat="53.21545" lon="7.7352">
        <ele>47.89059</ele>
        <time>2024-07-12T10:43:04.845Z</time>
      </trkpt>
      <trkpt lat="53.21545" lon="7.7354">
        <ele>47.95946</ele>
        <time>2024-07-12T10:43:07.850Z</time>
      </trkpt>
      <trkpt lat="53.21545" lon="7.73562">
        <ele>47.981459</ele>
        <time>2024-07-12T10:43:10.835Z</time>
      </trkpt>
      <trkpt lat="53.21547" lon="7.73584">
        <ele>47.947032</ele>
        <time>2024-07-12T10:43:13.839Z</time>
      </trkpt>
      <trkpt lat="53.21551" lon="7.73605">
        <ele>47.913009</ele>
        <time>2024-07-12T10:43:16.832Z</time>
      </trkpt>
      <trkpt lat="53.21555" lon="7.73625">
        <ele>47.880335</ele>
        <time>2024-07-12T10:43:19.835Z</time>
      </trkpt>
      <trkpt lat="53.21559" lon="7.73644">
        <ele>47.849138</ele>
        <time>2024-07-12T10:43:22.830Z</time>
      </trkpt>
      <trkpt lat="53.21562" lon="7.73664">
        <ele>47.816756</ele>
        <time>2024-07-12T10:43:25.844Z</time>
      </trkpt>
      <trkpt lat="53.21566" lon="7.73683">
        <ele>47.785267</ele>
        <time>2024-07-12T10:43:28.838Z</time>
      </trkpt>
      <trkpt lat="53.21569" lon="7.73703">
        <ele>47.752667</ele>
        <time>2024-07-12T10:43:31.835Z</time>
      </trkpt>
      <trkpt lat="53.21572" lon="7.73723">
        <ele>47.721312</ele>
        <time>2024-07-12T10:43:34.852Z</time>
      </trkpt>
      <trkpt lat="53.21575" lon="7.73742">
        <ele>47.690041</ele>
        <time>2024-07-12T10:43:37.841Z</time>
      </trkpt>
      <trkpt lat="53.21577" lon="7.73761">
        <ele>47.660764</ele>
        <time>2024-07-12T10:43:40.839Z</time>
      </trkpt>
      <trkpt lat="53.2158" lon="7.7378">
        <ele>47.630316</ele>
        <time>2024-07-12T10:43:43.843Z</time>
      </trkpt>
      <trkpt lat="53.21582" lon="7.73798">
        <ele>47.600569</ele>
        <time>2024-07-12T10:43:46.859Z</time>
      </trkpt>
      <trkpt lat="53.21585" lon="7.73818">
        <ele>47.568848</ele>
        <time>2024-07-12T10:43:49.846Z</time>
      </trkpt>
      <trkpt lat="53.21588" lon="7.73839">
        <ele>47.535398</ele>
        <time>2024-07-12T10:43:52.836Z</time>
      </trkpt>
      <trkpt lat="53.21592" lon="7.73859">
        <ele>47.446627</ele>
        <time>2024-07-12T10:43:55.835Z</time>
      </trkpt>
      <trkpt lat="53.21596" lon="7.73877">
        <ele>47.354796</ele>
        <time>2024-07-12T10:43:58.847Z</time>
      </trkpt>
      <trkpt lat="53.21599" lon="7.73897">
        <ele>47.25817</ele>
        <time>2024-07-12T10:44:01.838Z</time>
      </trkpt>
      <trkpt lat="53.21603" lon="7.73917">
        <ele>47.157262</ele>
        <time>2024-07-12T10:44:04.848Z</time>
      </trkpt>
      <trkpt lat="53.21605" lon="7.73938">
        <ele>47.05486</ele>
        <time>2024-07-12T10:44:07.837Z</time>
      </trkpt>
      <trkpt lat="53.21609" lon="7.73958">
        <ele>46.956724</ele>
        <time>2024-07-12T10:44:10.825Z</time>
      </trkpt>
      <trkpt lat="53.21612" lon="7.73978">
        <ele>46.8577</ele>
        <time>2024-07-12T10:44:13.844Z</time>
      </trkpt>
      <trkpt lat="53.21613" lon="7.73998">
        <ele>46.761784</ele>
        <time>2024-07-12T10:44:16.839Z</time>
      </trkpt>
      <trkpt lat="53.21615" lon="7.74018">
        <ele>46.666442</ele>
        <time>2024-07-12T10:44:19.841Z</time>
      </trkpt>
      <trkpt lat="53.21616" lon="7.74038">
        <ele>46.571829</ele>
        <time>2024-07-12T10:44:22.836Z</time>
      </trkpt>
      <trkpt lat="53.21618" lon="7.74058">
        <ele>46.474222</ele>
        <time>2024-07-12T10:44:25.852Z</time>
      </trkpt>
      <trkpt lat="53.21618" lon="7.74081">
        <ele>46.367668</ele>
        <time>2024-07-12T10:44:28.841Z</time>
      </trkpt>
      <trkpt lat="53.21618" lon="7.74102">
        <ele>46.267815</ele>
        <time>2024-07-12T10:44:31.837Z</time>
      </trkpt>
      <trkpt lat="53.21617" lon="7.74117">
        <ele>46.196353</ele>
        <time>2024-07-12T10:44:33.834Z</time>
      </trkpt>
      <trkpt lat="53.21616" lon="7.74139">
        <ele>46.105228</ele>
        <time>2024-07-12T10:44:36.838Z</time>
      </trkpt>
      <trkpt lat="53.21614" lon="7.74161">
        <ele>46.133182</ele>
        <time>2024-07-12T10:44:39.835Z</time>
      </trkpt>
      <trkpt lat="53.21613" lon="7.74176">
        <ele>46.152417</ele>
        <time>2024-07-12T10:44:41.848Z</time>
      </trkpt>
      <trkpt lat="53.21613" lon="7.74191">
        <ele>46.172472</ele>
        <time>2024-07-12T10:44:43.841Z</time>
      </trkpt>
      <trkpt lat="53.21611" lon="7.74206">
        <ele>46.191959</ele>
        <time>2024-07-12T10:44:45.839Z</time>
      </trkpt>
      <trkpt lat="53.21609" lon="7.74228">
        <ele>46.220297</ele>
        <time>2024-07-12T10:44:48.839Z</time>
      </trkpt>
      <trkpt lat="53.21606" lon="7.7425">
        <ele>46.248008</ele>
        <time>2024-07-12T10:44:51.869Z</time>
      </trkpt>
      <trkpt lat="53.21604" lon="7.74271">
        <ele>46.27622</ele>
        <time>2024-07-12T10:44:54.828Z</time>
      </trkpt>
      <trkpt lat="53.21601" lon="7.74292">
        <ele>46.30308</ele>
        <time>2024-07-12T10:44:57.839Z</time>
      </trkpt>
      <trkpt lat="53.21598" lon="7.74311">
        <ele>46.328325</ele>
        <time>2024-07-12T10:45:00.844Z</time>
      </trkpt>
      <trkpt lat="53.21595" lon="7.74329">
        <ele>46.352467</ele>
        <time>2024-07-12T10:45:03.837Z</time>
      </trkpt>
      <trkpt lat="53.21592" lon="7.74347">
        <ele>46.376234</ele>
        <time>2024-07-12T10:45:06.837Z</time>
      </trkpt>
      <trkpt lat="53.21588" lon="7.74365">
        <ele>46.399923</ele>
        <time>2024-07-12T10:45:09.840Z</time>
      </trkpt>
      <trkpt lat="53.21585" lon="7.74382">
        <ele>46.423101</ele>
        <time>2024-07-12T10:45:12.836Z</time>
      </trkpt>
      <trkpt lat="53.21584" lon="7.744">
        <ele>46.445798</ele>
        <time>2024-07-12T10:45:15.833Z</time>
      </trkpt>
      <trkpt lat="53.21582" lon="7.74416">
        <ele>46.466722</ele>
        <time>2024-07-12T10:45:18.830Z</time>
      </trkpt>
      <trkpt lat="53.2158" lon="7.74433">
        <ele>46.472643</ele>
        <time>2024-07-12T10:45:21.852Z</time>
      </trkpt>
      <trkpt lat="53.21579" lon="7.74451">
        <ele>46.403071</ele>
        <time>2024-07-12T10:45:24.831Z</time>
      </trkpt>
      <trkpt lat="53.21578" lon="7.74469">
        <ele>46.333425</ele>
        <time>2024-07-12T10:45:27.839Z</time>
      </trkpt>
      <trkpt lat="53.21578" lon="7.74486">
        <ele>46.268092</ele>
        <time>2024-07-12T10:45:30.823Z</time>
      </trkpt>
      <trkpt lat="53.21579" lon="7.74504">
        <ele>46.20047</ele>
        <time>2024-07-12T10:45:33.842Z</time>
      </trkpt>
      <trkpt lat="53.21581" lon="7.74522">
        <ele>46.129576</ele>
        <time>2024-07-12T10:45:36.848Z</time>
      </trkpt>
      <trkpt lat="53.21583" lon="7.74542">
        <ele>46.051108</ele>
        <time>2024-07-12T10:45:39.842Z</time>
      </trkpt>
      <trkpt lat="53.21583" lon="7.74561">
        <ele>45.977604</ele>
        <time>2024-07-12T10:45:42.822Z</time>
      </trkpt>
      <trkpt lat="53.21584" lon="7.74583">
        <ele>45.895379</ele>
        <time>2024-07-12T10:45:45.855Z</time>
      </trkpt>
      <trkpt lat="53.21585" lon="7.74605">
        <ele>45.808259</ele>
        <time>2024-07-12T10:45:48.845Z</time>
      </trkpt>
      <trkpt lat="53.21586" lon="7.74627">
        <ele>45.724179</ele>
        <time>2024-07-12T10:45:51.839Z</time>
      </trkpt>
      <trkpt lat="53.21589" lon="7.74648">
        <ele>45.64107</ele>
        <time>2024-07-12T10:45:54.857Z</time>
      </trkpt>
      <trkpt lat="53.21593" lon="7.7467">
        <ele>45.553762</ele>
        <time>2024-07-12T10:45:57.861Z</time>
      </trkpt>
      <trkpt lat="53.21595" lon="7.74686">
        <ele>45.492926</ele>
        <time>2024-07-12T10:45:59.853Z</time>
      </trkpt>
      <trkpt lat="53.21597" lon="7.74701">
        <ele>45.431844</ele>
        <time>2024-07-12T10:46:01.837Z</time>
      </trkpt>
      <trkpt lat="53.21601" lon="7.74722">
        <ele>45.347854</ele>
        <time>2024-07-12T10:46:04.852Z</time>
      </trkpt>
      <trkpt lat="53.21603" lon="7.74737">
        <ele>45.342735</ele>
        <time>2024-07-12T10:46:06.840Z</time>
      </trkpt>
      <trkpt lat="53.21606" lon="7.74759">
        <ele>45.357884</ele>
        <time>2024-07-12T10:46:09.835Z</time>
      </trkpt>
      <trkpt lat="53.21609" lon="7.74773">
        <ele>45.368243</ele>
        <time>2024-07-12T10:46:11.827Z</time>
      </trkpt>
      <trkpt lat="53.21611" lon="7.74795">
        <ele>45.383319</ele>
        <time>2024-07-12T10:46:14.833Z</time>
      </trkpt>
      <trkpt lat="53.21614" lon="7.74816">
        <ele>45.39796</ele>
        <time>2024-07-12T10:46:17.843Z</time>
      </trkpt>
      <trkpt lat="53.21617" lon="7.74837">
        <ele>45.41265</ele>
        <time>2024-07-12T10:46:20.844Z</time>
      </trkpt>
      <trkpt lat="53.2162" lon="7.74857">
        <ele>45.426866</ele>
        <time>2024-07-12T10:46:23.844Z</time>
      </trkpt>
      <trkpt lat="53.21622" lon="7.74877">
        <ele>45.440669</ele>
        <time>2024-07-12T10:46:26.836Z</time>
      </trkpt>
      <trkpt lat="53.21625" lon="7.74897">
        <ele>45.454858</ele>
        <time>2024-07-12T10:46:29.834Z</time>
      </trkpt>
      <trkpt lat="53.21628" lon="7.74917">
        <ele>45.469065</ele>
        <time>2024-07-12T10:46:32.841Z</time>
      </trkpt>
      <trkpt lat="53.21631" lon="7.74937">
        <ele>45.48343</ele>
        <time>2024-07-12T10:46:35.855Z</time>
      </trkpt>
      <trkpt lat="53.21634" lon="7.74958">
        <ele>45.497873</ele>
        <time>2024-07-12T10:46:38.842Z</time>
      </trkpt>
      <trkpt lat="53.21636" lon="7.74976">
        <ele>45.510292</ele>
        <time>2024-07-12T10:46:41.819Z</time>
      </trkpt>
      <trkpt lat="53.21639" lon="7.74993">
        <ele>45.522632</ele>
        <time>2024-07-12T10:46:44.835Z</time>
      </trkpt>
      <trkpt lat="53.21641" lon="7.75011">
        <ele>45.535227</ele>
        <time>2024-07-12T10:46:47.836Z</time>
      </trkpt>
      <trkpt lat="53.21645" lon="7.7503">
        <ele>45.57934</ele>
        <time>2024-07-12T10:46:50.839Z</time>
      </trkpt>
      <trkpt lat="53.21647" lon="7.75048">
        <ele>45.639662</ele>
        <time>2024-07-12T10:46:53.837Z</time>
      </trkpt>
      <trkpt lat="53.21649" lon="7.75068">
        <ele>45.70386</ele>
        <time>2024-07-12T10:46:56.835Z</time>
      </trkpt>
      <trkpt lat="53.21651" lon="7.75088">
        <ele>45.766619</ele>
        <time>2024-07-12T10:46:59.852Z</time>
      </trkpt>
      <trkpt lat="53.21652" lon="7.75108">
        <ele>45.830969</ele>
        <time>2024-07-12T10:47:02.837Z</time>
      </trkpt>
      <trkpt lat="53.21653" lon="7.75127">
        <ele>45.894686</ele>
        <time>2024-07-12T10:47:05.845Z</time>
      </trkpt>
      <trkpt lat="53.21654" lon="7.75147">
        <ele>45.956999</ele>
        <time>2024-07-12T10:47:08.848Z</time>
      </trkpt>
      <trkpt lat="53.21653" lon="7.75167">
        <ele>46.020871</ele>
        <time>2024-07-12T10:47:11.836Z</time>
      </trkpt>
      <trkpt lat="53.21653" lon="7.75188">
        <ele>46.087354</ele>
        <time>2024-07-12T10:47:14.846Z</time>
      </trkpt>
      <trkpt lat="53.21653" lon="7.75208">
        <ele>46.150895</ele>
        <time>2024-07-12T10:47:17.839Z</time>
      </trkpt>
      <trkpt lat="53.21654" lon="7.75227">
        <ele>46.212526</ele>
        <time>2024-07-12T10:47:20.854Z</time>
      </trkpt>
      <trkpt lat="53.21654" lon="7.75246">
        <ele>46.273525</ele>
        <time>2024-07-12T10:47:23.839Z</time>
      </trkpt>
      <trkpt lat="53.21653" lon="7.75263">
        <ele>46.327841</ele>
        <time>2024-07-12T10:47:26.851Z</time>
      </trkpt>
      <trkpt lat="53.21654" lon="7.75279">
        <ele>46.379605</ele>
        <time>2024-07-12T10:47:29.838Z</time>
      </trkpt>
      <trkpt lat="53.21654" lon="7.75297">
        <ele>46.435486</ele>
        <time>2024-07-12T10:47:32.831Z</time>
      </trkpt>
      <trkpt lat="53.21654" lon="7.75315">
        <ele>46.493272</ele>
        <time>2024-07-12T10:47:35.837Z</time>
      </trkpt>
      <trkpt lat="53.21654" lon="7.75334">
        <ele>46.553037</ele>
        <time>2024-07-12T10:47:38.854Z</time>
      </trkpt>
      <trkpt lat="53.21655" lon="7.75353">
        <ele>46.613599</ele>
        <time>2024-07-12T10:47:41.838Z</time>
      </trkpt>
      <trkpt lat="53.21655" lon="7.75371">
        <ele>46.67036</ele>
        <time>2024-07-12T10:47:44.848Z</time>
      </trkpt>
      <trkpt lat="53.21656" lon="7.75389">
        <ele>46.726225</ele>
        <time>2024-07-12T10:47:47.835Z</time>
      </trkpt>
      <trkpt lat="53.21656" lon="7.75408">
        <ele>46.785157</ele>
        <time>2024-07-12T10:47:50.851Z</time>
      </trkpt>
      <trkpt lat="53.21657" lon="7.75426">
        <ele>46.841983</ele>
        <time>2024-07-12T10:47:53.848Z</time>
      </trkpt>
      <trkpt lat="53.21657" lon="7.75445">
        <ele>46.900302</ele>
        <time>2024-07-12T10:47:56.855Z</time>
      </trkpt>
      <trkpt lat="53.21657" lon="7.75464">
        <ele>46.96048</ele>
        <time>2024-07-12T10:47:59.826Z</time>
      </trkpt>
      <trkpt lat="53.21657" lon="7.75484">
        <ele>47.020649</ele>
        <time>2024-07-12T10:48:02.817Z</time>
      </trkpt>
      <trkpt lat="53.21658" lon="7.75504">
        <ele>47.085485</ele>
        <time>2024-07-12T10:48:05.841Z</time>
      </trkpt>
      <trkpt lat="53.21658" lon="7.75525">
        <ele>47.148825</ele>
        <time>2024-07-12T10:48:08.846Z</time>
      </trkpt>
      <trkpt lat="53.21658" lon="7.75545">
        <ele>47.213367</ele>
        <time>2024-07-12T10:48:11.839Z</time>
      </trkpt>
      <trkpt lat="53.21658" lon="7.75563">
        <ele>47.268899</ele>
        <time>2024-07-12T10:48:14.842Z</time>
      </trkpt>
      <trkpt lat="53.21658" lon="7.75581">
        <ele>47.32409</ele>
        <time>2024-07-12T10:48:17.836Z</time>
      </trkpt>
      <trkpt lat="53.21659" lon="7.75601">
        <ele>47.385614</ele>
        <time>2024-07-12T10:48:20.845Z</time>
      </trkpt>
      <trkpt lat="53.2166" lon="7.7562">
        <ele>47.419418</ele>
        <time>2024-07-12T10:48:23.838Z</time>
      </trkpt>
      <trkpt lat="53.21661" lon="7.75639">
        <ele>47.319731</ele>
        <time>2024-07-12T10:48:26.845Z</time>
      </trkpt>
      <trkpt lat="53.21661" lon="7.75659">
        <ele>47.219196</ele>
        <time>2024-07-12T10:48:29.833Z</time>
      </trkpt>
      <trkpt lat="53.21661" lon="7.75681">
        <ele>47.110563</ele>
        <time>2024-07-12T10:48:32.820Z</time>
      </trkpt>
      <trkpt lat="53.21662" lon="7.75701">
        <ele>47.006492</ele>
        <time>2024-07-12T10:48:35.839Z</time>
      </trkpt>
      <trkpt lat="53.21662" lon="7.7572">
        <ele>46.910888</ele>
        <time>2024-07-12T10:48:38.837Z</time>
      </trkpt>
      <trkpt lat="53.21662" lon="7.7574">
        <ele>46.812877</ele>
        <time>2024-07-12T10:48:41.837Z</time>
      </trkpt>
      <trkpt lat="53.21662" lon="7.75759">
        <ele>46.714344</ele>
        <time>2024-07-12T10:48:44.840Z</time>
      </trkpt>
      <trkpt lat="53.21663" lon="7.75778">
        <ele>46.618132</ele>
        <time>2024-07-12T10:48:47.848Z</time>
      </trkpt>
      <trkpt lat="53.21664" lon="7.75797">
        <ele>46.521709</ele>
        <time>2024-07-12T10:48:50.851Z</time>
      </trkpt>
      <trkpt lat="53.21665" lon="7.75817">
        <ele>46.423854</ele>
        <time>2024-07-12T10:48:53.833Z</time>
      </trkpt>
      <trkpt lat="53.21666" lon="7.75833">
        <ele>46.338337</ele>
        <time>2024-07-12T10:48:56.852Z</time>
      </trkpt>
      <trkpt lat="53.21666" lon="7.75852">
        <ele>46.242833</ele>
        <time>2024-07-12T10:49:00.835Z</time>
      </trkpt>
      <trkpt lat="53.21663" lon="7.75867">
        <ele>46.165647</ele>
        <time>2024-07-12T10:49:07.824Z</time>
      </trkpt>
      <trkpt lat="53.21661" lon="7.7587">
        <ele>46.14683</ele>
        <time>2024-07-12T10:49:21.462Z</time>
      </trkpt>
      <trkpt lat="53.21666" lon="7.75884">
        <ele>46.063166</ele>
        <time>2024-07-12T11:02:09.820Z</time>
      </trkpt>
      <trkpt lat="53.21666" lon="7.75904">
        <ele>45.965544</ele>
        <time>2024-07-12T11:02:14.840Z</time>
      </trkpt>
      <trkpt lat="53.21665" lon="7.75923">
        <ele>45.867582</ele>
        <time>2024-07-12T11:02:18.832Z</time>
      </trkpt>
      <trkpt lat="53.21666" lon="7.75938">
        <ele>45.790054</ele>
        <time>2024-07-12T11:02:21.832Z</time>
      </trkpt>
      <trkpt lat="53.21667" lon="7.75953">
        <ele>45.712465</ele>
        <time>2024-07-12T11:02:24.835Z</time>
      </trkpt>
      <trkpt lat="53.21667" lon="7.75969">
        <ele>45.630524</ele>
        <time>2024-07-12T11:02:27.847Z</time>
      </trkpt>
      <trkpt lat="53.21667" lon="7.75987">
        <ele>45.542472</ele>
        <time>2024-07-12T11:02:30.835Z</time>
      </trkpt>
      <trkpt lat="53.21667" lon="7.76005">
        <ele>45.448071</ele>
        <time>2024-07-12T11:02:33.836Z</time>
      </trkpt>
      <trkpt lat="53.21668" lon="7.76023">
        <ele>45.354836</ele>
        <time>2024-07-12T11:02:36.836Z</time>
      </trkpt>
      <trkpt lat="53.21668" lon="7.76043">
        <ele>45.257612</ele>
        <time>2024-07-12T11:02:39.822Z</time>
      </trkpt>
      <trkpt lat="53.21667" lon="7.76061">
        <ele>45.164929</ele>
        <time>2024-07-12T11:02:42.820Z</time>
      </trkpt>
      <trkpt lat="53.21665" lon="7.76079">
        <ele>45.070402</ele>
        <time>2024-07-12T11:02:45.831Z</time>
      </trkpt>
      <trkpt lat="53.21663" lon="7.76098">
        <ele>44.973001</ele>
        <time>2024-07-12T11:02:48.849Z</time>
      </trkpt>
      <trkpt lat="53.21661" lon="7.76116">
        <ele>44.881481</ele>
        <time>2024-07-12T11:02:51.843Z</time>
      </trkpt>
      <trkpt lat="53.21659" lon="7.76132">
        <ele>44.797735</ele>
        <time>2024-07-12T11:02:54.844Z</time>
      </trkpt>
      <trkpt lat="53.21657" lon="7.76149">
        <ele>44.707257</ele>
        <time>2024-07-12T11:02:57.833Z</time>
      </trkpt>
      <trkpt lat="53.21657" lon="7.76165">
        <ele>44.625157</ele>
        <time>2024-07-12T11:03:00.831Z</time>
      </trkpt>
      <trkpt lat="53.21655" lon="7.76181">
        <ele>44.545799</ele>
        <time>2024-07-12T11:03:03.828Z</time>
      </trkpt>
      <trkpt lat="53.21652" lon="7.76215">
        <ele>44.393417</ele>
        <time>2024-07-12T11:03:39.826Z</time>
      </trkpt>
      <trkpt lat="53.2165" lon="7.76232">
        <ele>44.412938</ele>
        <time>2024-07-12T11:03:43.855Z</time>
      </trkpt>
      <trkpt lat="53.21648" lon="7.76249">
        <ele>44.431929</ele>
        <time>2024-07-12T11:03:46.831Z</time>
      </trkpt>
      <trkpt lat="53.21645" lon="7.76268">
        <ele>44.452739</ele>
        <time>2024-07-12T11:03:49.837Z</time>
      </trkpt>
      <trkpt lat="53.21642" lon="7.76288">
        <ele>44.474871</ele>
        <time>2024-07-12T11:03:52.837Z</time>
      </trkpt>
      <trkpt lat="53.21639" lon="7.76308">
        <ele>44.497374</ele>
        <time>2024-07-12T11:03:55.854Z</time>
      </trkpt>
      <trkpt lat="53.21637" lon="7.76329">
        <ele>44.520415</ele>
        <time>2024-07-12T11:03:58.835Z</time>
      </trkpt>
      <trkpt lat="53.21634" lon="7.7635">
        <ele>44.543603</ele>
        <time>2024-07-12T11:04:01.843Z</time>
      </trkpt>
      <trkpt lat="53.21632" lon="7.76364">
        <ele>44.559932</ele>
        <time>2024-07-12T11:04:03.849Z</time>
      </trkpt>
      <trkpt lat="53.21631" lon="7.7638">
        <ele>44.576966</ele>
        <time>2024-07-12T11:04:05.829Z</time>
      </trkpt>
      <trkpt lat="53.21629" lon="7.76396">
        <ele>44.595245</ele>
        <time>2024-07-12T11:04:07.863Z</time>
      </trkpt>
      <trkpt lat="53.21627" lon="7.76412">
        <ele>44.61278</ele>
        <time>2024-07-12T11:04:09.822Z</time>
      </trkpt>
      <trkpt lat="53.21626" lon="7.76429">
        <ele>44.631089</ele>
        <time>2024-07-12T11:04:11.848Z</time>
      </trkpt>
      <trkpt lat="53.21624" lon="7.76445">
        <ele>44.649155</ele>
        <time>2024-07-12T11:04:13.841Z</time>
      </trkpt>
      <trkpt lat="53.21622" lon="7.76461">
        <ele>44.666583</ele>
        <time>2024-07-12T11:04:15.837Z</time>
      </trkpt>
      <trkpt lat="53.2162" lon="7.76477">
        <ele>44.684153</ele>
        <time>2024-07-12T11:04:17.831Z</time>
      </trkpt>
      <trkpt lat="53.21618" lon="7.76492">
        <ele>44.701156</ele>
        <time>2024-07-12T11:04:19.824Z</time>
      </trkpt>
      <trkpt lat="53.21617" lon="7.76507">
        <ele>44.710916</ele>
        <time>2024-07-12T11:04:21.826Z</time>
      </trkpt>
      <trkpt lat="53.21615" lon="7.76523">
        <ele>44.670866</ele>
        <time>2024-07-12T11:04:23.829Z</time>
      </trkpt>
      <trkpt lat="53.21613" lon="7.76538">
        <ele>44.631026</ele>
        <time>2024-07-12T11:04:25.840Z</time>
      </trkpt>
      <trkpt lat="53.21611" lon="7.76554">
        <ele>44.590791</ele>
        <time>2024-07-12T11:04:27.824Z</time>
      </trkpt>
      <trkpt lat="53.2161" lon="7.76569">
        <ele>44.552686</ele>
        <time>2024-07-12T11:04:29.835Z</time>
      </trkpt>
      <trkpt lat="53.21608" lon="7.76592">
        <ele>44.496148</ele>
        <time>2024-07-12T11:04:32.824Z</time>
      </trkpt>
      <trkpt lat="53.21606" lon="7.76607">
        <ele>44.456971</ele>
        <time>2024-07-12T11:04:34.826Z</time>
      </trkpt>
      <trkpt lat="53.21604" lon="7.76623">
        <ele>44.416148</ele>
        <time>2024-07-12T11:04:36.833Z</time>
      </trkpt>
      <trkpt lat="53.21602" lon="7.76638">
        <ele>44.378437</ele>
        <time>2024-07-12T11:04:38.845Z</time>
      </trkpt>
      <trkpt lat="53.216" lon="7.76659">
        <ele>44.323447</ele>
        <time>2024-07-12T11:04:41.828Z</time>
      </trkpt>
      <trkpt lat="53.21598" lon="7.76674">
        <ele>44.285337</ele>
        <time>2024-07-12T11:04:43.830Z</time>
      </trkpt>
      <trkpt lat="53.21595" lon="7.76689">
        <ele>44.247462</ele>
        <time>2024-07-12T11:04:45.809Z</time>
      </trkpt>
      <trkpt lat="53.21593" lon="7.76709">
        <ele>44.195187</ele>
        <time>2024-07-12T11:04:48.824Z</time>
      </trkpt>
      <trkpt lat="53.21591" lon="7.76731">
        <ele>44.14082</ele>
        <time>2024-07-12T11:04:51.828Z</time>
      </trkpt>
      <trkpt lat="53.21588" lon="7.76752">
        <ele>44.085106</ele>
        <time>2024-07-12T11:04:54.834Z</time>
      </trkpt>
      <trkpt lat="53.21586" lon="7.76768">
        <ele>44.044593</ele>
        <time>2024-07-12T11:04:56.838Z</time>
      </trkpt>
      <trkpt lat="53.21584" lon="7.76783">
        <ele>44.005993</ele>
        <time>2024-07-12T11:04:58.840Z</time>
      </trkpt>
      <trkpt lat="53.21581" lon="7.76804">
        <ele>43.970175</ele>
        <time>2024-07-12T11:05:01.843Z</time>
      </trkpt>
      <trkpt lat="53.21579" lon="7.76819">
        <ele>43.989105</ele>
        <time>2024-07-12T11:05:03.843Z</time>
      </trkpt>
      <trkpt lat="53.21577" lon="7.76835">
        <ele>44.008476</ele>
        <time>2024-07-12T11:05:05.823Z</time>
      </trkpt>
      <trkpt lat="53.21575" lon="7.7685">
        <ele>44.027569</ele>
        <time>2024-07-12T11:05:07.845Z</time>
      </trkpt>
      <trkpt lat="53.21574" lon="7.76872">
        <ele>44.054346</ele>
        <time>2024-07-12T11:05:10.835Z</time>
      </trkpt>
      <trkpt lat="53.21572" lon="7.76893">
        <ele>44.081102</ele>
        <time>2024-07-12T11:05:13.853Z</time>
      </trkpt>
      <trkpt lat="53.21569" lon="7.76916">
        <ele>44.109298</ele>
        <time>2024-07-12T11:05:16.827Z</time>
      </trkpt>
      <trkpt lat="53.21568" lon="7.76932">
        <ele>44.129156</ele>
        <time>2024-07-12T11:05:18.838Z</time>
      </trkpt>
      <trkpt lat="53.21567" lon="7.76947">
        <ele>44.148267</ele>
        <time>2024-07-12T11:05:20.837Z</time>
      </trkpt>
      <trkpt lat="53.21567" lon="7.76963">
        <ele>44.167661</ele>
        <time>2024-07-12T11:05:22.838Z</time>
      </trkpt>
      <trkpt lat="53.21566" lon="7.76979">
        <ele>44.18687</ele>
        <time>2024-07-12T11:05:24.850Z</time>
      </trkpt>
      <trkpt lat="53.21566" lon="7.76994">
        <ele>44.205397</ele>
        <time>2024-07-12T11:05:26.827Z</time>
      </trkpt>
      <trkpt lat="53.21565" lon="7.77009">
        <ele>44.224117</ele>
        <time>2024-07-12T11:05:28.832Z</time>
      </trkpt>
      <trkpt lat="53.21565" lon="7.77025">
        <ele>44.244002</ele>
        <time>2024-07-12T11:05:30.827Z</time>
      </trkpt>
      <trkpt lat="53.21566" lon="7.7704">
        <ele>44.262668</ele>
        <time>2024-07-12T11:05:32.804Z</time>
      </trkpt>
      <trkpt lat="53.21566" lon="7.77057">
        <ele>44.282912</ele>
        <time>2024-07-12T11:05:34.835Z</time>
      </trkpt>
      <trkpt lat="53.21566" lon="7.77074">
        <ele>44.304146</ele>
        <time>2024-07-12T11:05:36.851Z</time>
      </trkpt>
      <trkpt lat="53.21567" lon="7.77091">
        <ele>44.325206</ele>
        <time>2024-07-12T11:05:38.832Z</time>
      </trkpt>
      <trkpt lat="53.21567" lon="7.77109">
        <ele>44.351067</ele>
        <time>2024-07-12T11:05:40.837Z</time>
      </trkpt>
      <trkpt lat="53.21567" lon="7.77124">
        <ele>44.37684</ele>
        <time>2024-07-12T11:05:42.842Z</time>
      </trkpt>
      <trkpt lat="53.21567" lon="7.7714">
        <ele>44.402114</ele>
        <time>2024-07-12T11:05:44.846Z</time>
      </trkpt>
      <trkpt lat="53.21568" lon="7.77156">
        <ele>44.428808</ele>
        <time>2024-07-12T11:05:46.846Z</time>
      </trkpt>
      <trkpt lat="53.21569" lon="7.77172">
        <ele>44.454803</ele>
        <time>2024-07-12T11:05:48.834Z</time>
      </trkpt>
      <trkpt lat="53.21569" lon="7.77188">
        <ele>44.481091</ele>
        <time>2024-07-12T11:05:50.842Z</time>
      </trkpt>
      <trkpt lat="53.21569" lon="7.77204">
        <ele>44.508333</ele>
        <time>2024-07-12T11:05:52.820Z</time>
      </trkpt>
      <trkpt lat="53.21569" lon="7.7722">
        <ele>44.534621</ele>
        <time>2024-07-12T11:05:54.851Z</time>
      </trkpt>
      <trkpt lat="53.2157" lon="7.77236">
        <ele>44.560989</ele>
        <time>2024-07-12T11:05:56.846Z</time>
      </trkpt>
      <trkpt lat="53.2157" lon="7.77253">
        <ele>44.588068</ele>
        <time>2024-07-12T11:05:58.843Z</time>
      </trkpt>
      <trkpt lat="53.21571" lon="7.77269">
        <ele>44.614063</ele>
        <time>2024-07-12T11:06:00.829Z</time>
      </trkpt>
      <trkpt lat="53.21572" lon="7.77285">
        <ele>44.641039</ele>
        <time>2024-07-12T11:06:02.837Z</time>
      </trkpt>
      <trkpt lat="53.21572" lon="7.77302">
        <ele>44.668298</ele>
        <time>2024-07-12T11:06:04.849Z</time>
      </trkpt>
      <trkpt lat="53.21573" lon="7.77317">
        <ele>44.693661</ele>
        <time>2024-07-12T11:06:06.856Z</time>
      </trkpt>
      <trkpt lat="53.21574" lon="7.77332">
        <ele>44.718533</ele>
        <time>2024-07-12T11:06:08.826Z</time>
      </trkpt>
      <trkpt lat="53.21575" lon="7.77347">
        <ele>44.743594</ele>
        <time>2024-07-12T11:06:10.846Z</time>
      </trkpt>
      <trkpt lat="53.21577" lon="7.7737">
        <ele>44.780658</ele>
        <time>2024-07-12T11:06:13.825Z</time>
      </trkpt>
      <trkpt lat="53.2158" lon="7.77386">
        <ele>44.808167</ele>
        <time>2024-07-12T11:06:15.850Z</time>
      </trkpt>
      <trkpt lat="53.21584" lon="7.77401">
        <ele>44.802291</ele>
        <time>2024-07-12T11:06:17.828Z</time>
      </trkpt>
      <trkpt lat="53.21588" lon="7.77416">
        <ele>44.737971</ele>
        <time>2024-07-12T11:06:19.832Z</time>
      </trkpt>
      <trkpt lat="53.21593" lon="7.7743">
        <ele>44.675554</ele>
        <time>2024-07-12T11:06:21.823Z</time>
      </trkpt>
      <trkpt lat="53.21599" lon="7.77442">
        <ele>44.613389</ele>
        <time>2024-07-12T11:06:23.830Z</time>
      </trkpt>
      <trkpt lat="53.21606" lon="7.77454">
        <ele>44.553346</ele>
        <time>2024-07-12T11:06:25.861Z</time>
      </trkpt>
      <trkpt lat="53.21612" lon="7.77465">
        <ele>44.494154</ele>
        <time>2024-07-12T11:06:27.831Z</time>
      </trkpt>
      <trkpt lat="53.2162" lon="7.77483">
        <ele>44.407901</ele>
        <time>2024-07-12T11:06:30.842Z</time>
      </trkpt>
      <trkpt lat="53.21624" lon="7.77497">
        <ele>44.34693</ele>
        <time>2024-07-12T11:06:32.829Z</time>
      </trkpt>
      <trkpt lat="53.21628" lon="7.77512">
        <ele>44.286201</ele>
        <time>2024-07-12T11:06:34.830Z</time>
      </trkpt>
      <trkpt lat="53.21633" lon="7.77525">
        <ele>44.225886</ele>
        <time>2024-07-12T11:06:36.850Z</time>
      </trkpt>
      <trkpt lat="53.21638" lon="7.77539">
        <ele>44.159605</ele>
        <time>2024-07-12T11:06:38.846Z</time>
      </trkpt>
      <trkpt lat="53.21644" lon="7.77553">
        <ele>44.095869</ele>
        <time>2024-07-12T11:06:40.850Z</time>
      </trkpt>
      <trkpt lat="53.2165" lon="7.77567">
        <ele>44.029322</ele>
        <time>2024-07-12T11:06:42.826Z</time>
      </trkpt>
      <trkpt lat="53.21656" lon="7.77581">
        <ele>43.963843</ele>
        <time>2024-07-12T11:06:44.841Z</time>
      </trkpt>
      <trkpt lat="53.21661" lon="7.77594">
        <ele>43.901151</ele>
        <time>2024-07-12T11:06:46.829Z</time>
      </trkpt>
      <trkpt lat="53.21666" lon="7.77608">
        <ele>43.838841</ele>
        <time>2024-07-12T11:06:48.840Z</time>
      </trkpt>
      <trkpt lat="53.21671" lon="7.77621">
        <ele>43.777215</ele>
        <time>2024-07-12T11:06:50.829Z</time>
      </trkpt>
      <trkpt lat="53.21676" lon="7.77634">
        <ele>43.718244</ele>
        <time>2024-07-12T11:06:52.820Z</time>
      </trkpt>
      <trkpt lat="53.21683" lon="7.77654">
        <ele>43.688485</ele>
        <time>2024-07-12T11:06:55.830Z</time>
      </trkpt>
      <trkpt lat="53.21686" lon="7.77669">
        <ele>43.727771</ele>
        <time>2024-07-12T11:06:57.838Z</time>
      </trkpt>
      <trkpt lat="53.21691" lon="7.77689">
        <ele>43.7854</ele>
        <time>2024-07-12T11:07:00.857Z</time>
      </trkpt>
      <trkpt lat="53.21694" lon="7.77704">
        <ele>43.826381</ele>
        <time>2024-07-12T11:07:02.814Z</time>
      </trkpt>
      <trkpt lat="53.21696" lon="7.77721">
        <ele>43.868873</ele>
        <time>2024-07-12T11:07:04.840Z</time>
      </trkpt>
      <trkpt lat="53.21698" lon="7.77737">
        <ele>43.91092</ele>
        <time>2024-07-12T11:07:06.848Z</time>
      </trkpt>
      <trkpt lat="53.217" lon="7.77753">
        <ele>43.952972</ele>
        <time>2024-07-12T11:07:08.830Z</time>
      </trkpt>
      <trkpt lat="53.21702" lon="7.77769">
        <ele>43.996534</ele>
        <time>2024-07-12T11:07:10.833Z</time>
      </trkpt>
      <trkpt lat="53.21703" lon="7.77786">
        <ele>44.040842</ele>
        <time>2024-07-12T11:07:12.851Z</time>
      </trkpt>
      <trkpt lat="53.21704" lon="7.77802">
        <ele>44.081259</ele>
        <time>2024-07-12T11:07:14.842Z</time>
      </trkpt>
      <trkpt lat="53.21705" lon="7.77818">
        <ele>44.122516</ele>
        <time>2024-07-12T11:07:16.854Z</time>
      </trkpt>
      <trkpt lat="53.21706" lon="7.77835">
        <ele>44.165494</ele>
        <time>2024-07-12T11:07:18.866Z</time>
      </trkpt>
      <trkpt lat="53.21706" lon="7.77852">
        <ele>44.20994</ele>
        <time>2024-07-12T11:07:20.838Z</time>
      </trkpt>
      <trkpt lat="53.21707" lon="7.77869">
        <ele>44.252817</ele>
        <time>2024-07-12T11:07:22.829Z</time>
      </trkpt>
      <trkpt lat="53.21708" lon="7.77885">
        <ele>44.293973</ele>
        <time>2024-07-12T11:07:24.838Z</time>
      </trkpt>
      <trkpt lat="53.21708" lon="7.77901">
        <ele>44.336667</ele>
        <time>2024-07-12T11:07:26.832Z</time>
      </trkpt>
      <trkpt lat="53.21709" lon="7.77917">
        <ele>44.377503</ele>
        <time>2024-07-12T11:07:28.850Z</time>
      </trkpt>
      <trkpt lat="53.21711" lon="7.77933">
        <ele>44.418761</ele>
        <time>2024-07-12T11:07:30.835Z</time>
      </trkpt>
      <trkpt lat="53.21713" lon="7.77949">
        <ele>44.442426</ele>
        <time>2024-07-12T11:07:32.830Z</time>
      </trkpt>
      <trkpt lat="53.21716" lon="7.77965">
        <ele>44.452013</ele>
        <time>2024-07-12T11:07:34.849Z</time>
      </trkpt>
      <trkpt lat="53.21718" lon="7.77981">
        <ele>44.461498</ele>
        <time>2024-07-12T11:07:36.834Z</time>
      </trkpt>
      <trkpt lat="53.2172" lon="7.77998">
        <ele>44.471397</ele>
        <time>2024-07-12T11:07:38.861Z</time>
      </trkpt>
      <trkpt lat="53.21722" lon="7.78015">
        <ele>44.481221</ele>
        <time>2024-07-12T11:07:40.830Z</time>
      </trkpt>
      <trkpt lat="53.21724" lon="7.78031">
        <ele>44.490959</ele>
        <time>2024-07-12T11:07:42.829Z</time>
      </trkpt>
      <trkpt lat="53.21726" lon="7.78047">
        <ele>44.500843</ele>
        <time>2024-07-12T11:07:44.841Z</time>
      </trkpt>
      <trkpt lat="53.21729" lon="7.78063">
        <ele>44.5103</ele>
        <time>2024-07-12T11:07:46.831Z</time>
      </trkpt>
      <trkpt lat="53.21731" lon="7.78079">
        <ele>44.519535</ele>
        <time>2024-07-12T11:07:48.819Z</time>
      </trkpt>
      <trkpt lat="53.21733" lon="7.78095">
        <ele>44.528847</ele>
        <time>2024-07-12T11:07:50.845Z</time>
      </trkpt>
      <trkpt lat="53.21735" lon="7.7811">
        <ele>44.538026</ele>
        <time>2024-07-12T11:07:52.819Z</time>
      </trkpt>
      <trkpt lat="53.21737" lon="7.78126">
        <ele>44.547528</ele>
        <time>2024-07-12T11:07:54.848Z</time>
      </trkpt>
      <trkpt lat="53.21739" lon="7.78142">
        <ele>44.557018</ele>
        <time>2024-07-12T11:07:56.838Z</time>
      </trkpt>
      <trkpt lat="53.21742" lon="7.78158">
        <ele>44.566442</ele>
        <time>2024-07-12T11:07:58.833Z</time>
      </trkpt>
      <trkpt lat="53.21744" lon="7.78173">
        <ele>44.575584</ele>
        <time>2024-07-12T11:08:00.841Z</time>
      </trkpt>
      <trkpt lat="53.21745" lon="7.78188">
        <ele>44.584578</ele>
        <time>2024-07-12T11:08:02.828Z</time>
      </trkpt>
      <trkpt lat="53.21748" lon="7.78211">
        <ele>44.597838</ele>
        <time>2024-07-12T11:08:05.833Z</time>
      </trkpt>
      <trkpt lat="53.2175" lon="7.78226">
        <ele>44.606922</ele>
        <time>2024-07-12T11:08:07.810Z</time>
      </trkpt>
      <trkpt lat="53.21752" lon="7.78241">
        <ele>44.637593</ele>
        <time>2024-07-12T11:08:09.830Z</time>
      </trkpt>
      <trkpt lat="53.21755" lon="7.78257">
        <ele>44.689602</ele>
        <time>2024-07-12T11:08:11.830Z</time>
      </trkpt>
      <trkpt lat="53.21758" lon="7.78273">
        <ele>44.743009</ele>
        <time>2024-07-12T11:08:13.828Z</time>
      </trkpt>
      <trkpt lat="53.2176" lon="7.7829">
        <ele>44.795859</ele>
        <time>2024-07-12T11:08:15.825Z</time>
      </trkpt>
      <trkpt lat="53.21761" lon="7.78306">
        <ele>44.847363</ele>
        <time>2024-07-12T11:08:17.831Z</time>
      </trkpt>
      <trkpt lat="53.21764" lon="7.78321">
        <ele>44.896285</ele>
        <time>2024-07-12T11:08:19.823Z</time>
      </trkpt>
      <trkpt lat="53.21765" lon="7.78337">
        <ele>44.948253</ele>
        <time>2024-07-12T11:08:21.830Z</time>
      </trkpt>
      <trkpt lat="53.21767" lon="7.78353">
        <ele>44.9987</ele>
        <time>2024-07-12T11:08:23.828Z</time>
      </trkpt>
      <trkpt lat="53.21769" lon="7.78368">
        <ele>45.048588</ele>
        <time>2024-07-12T11:08:25.837Z</time>
      </trkpt>
      <trkpt lat="53.21771" lon="7.78385">
        <ele>45.102132</ele>
        <time>2024-07-12T11:08:27.837Z</time>
      </trkpt>
      <trkpt lat="53.21774" lon="7.784">
        <ele>45.152284</ele>
        <time>2024-07-12T11:08:29.831Z</time>
      </trkpt>
      <trkpt lat="53.21775" lon="7.78416">
        <ele>45.203452</ele>
        <time>2024-07-12T11:08:31.837Z</time>
      </trkpt>
      <trkpt lat="53.21777" lon="7.78432">
        <ele>45.253899</ele>
        <time>2024-07-12T11:08:33.839Z</time>
      </trkpt>
      <trkpt lat="53.2178" lon="7.78447">
        <ele>45.303787</ele>
        <time>2024-07-12T11:08:35.838Z</time>
      </trkpt>
      <trkpt lat="53.21782" lon="7.78462">
        <ele>45.353826</ele>
        <time>2024-07-12T11:08:37.830Z</time>
      </trkpt>
      <trkpt lat="53.21784" lon="7.78478">
        <ele>45.402829</ele>
        <time>2024-07-12T11:08:39.835Z</time>
      </trkpt>
      <trkpt lat="53.21787" lon="7.78499">
        <ele>45.47219</ele>
        <time>2024-07-12T11:08:42.812Z</time>
      </trkpt>
      <trkpt lat="53.21789" lon="7.78514">
        <ele>45.520498</ele>
        <time>2024-07-12T11:08:44.823Z</time>
      </trkpt>
      <trkpt lat="53.21792" lon="7.78529">
        <ele>45.557622</ele>
        <time>2024-07-12T11:08:46.828Z</time>
      </trkpt>
      <trkpt lat="53.21794" lon="7.78543">
        <ele>45.551102</ele>
        <time>2024-07-12T11:08:48.824Z</time>
      </trkpt>
      <trkpt lat="53.21796" lon="7.78558">
        <ele>45.544355</ele>
        <time>2024-07-12T11:08:50.815Z</time>
      </trkpt>
      <trkpt lat="53.21799" lon="7.78573">
        <ele>45.537876</ele>
        <time>2024-07-12T11:08:52.827Z</time>
      </trkpt>
      <trkpt lat="53.218" lon="7.78588">
        <ele>45.531277</ele>
        <time>2024-07-12T11:08:54.836Z</time>
      </trkpt>
      <trkpt lat="53.21804" lon="7.78609">
        <ele>45.521851</ele>
        <time>2024-07-12T11:08:57.834Z</time>
      </trkpt>
      <trkpt lat="53.21805" lon="7.78624">
        <ele>45.515337</ele>
        <time>2024-07-12T11:08:59.841Z</time>
      </trkpt>
      <trkpt lat="53.21809" lon="7.78646">
        <ele>45.505737</ele>
        <time>2024-07-12T11:09:02.802Z</time>
      </trkpt>
      <trkpt lat="53.2181" lon="7.78661">
        <ele>45.498949</ele>
        <time>2024-07-12T11:09:04.843Z</time>
      </trkpt>
      <trkpt lat="53.21812" lon="7.78677">
        <ele>45.492014</ele>
        <time>2024-07-12T11:09:06.832Z</time>
      </trkpt>
      <trkpt lat="53.21814" lon="7.78693">
        <ele>45.485121</ele>
        <time>2024-07-12T11:09:08.830Z</time>
      </trkpt>
      <trkpt lat="53.21816" lon="7.78708">
        <ele>45.478315</ele>
        <time>2024-07-12T11:09:10.823Z</time>
      </trkpt>
      <trkpt lat="53.21818" lon="7.78725">
        <ele>45.470886</ele>
        <time>2024-07-12T11:09:12.810Z</time>
      </trkpt>
      <trkpt lat="53.2182" lon="7.78741">
        <ele>45.464105</ele>
        <time>2024-07-12T11:09:14.831Z</time>
      </trkpt>
      <trkpt lat="53.21822" lon="7.78756">
        <ele>45.457434</ele>
        <time>2024-07-12T11:09:16.830Z</time>
      </trkpt>
      <trkpt lat="53.21824" lon="7.7877">
        <ele>45.450955</ele>
        <time>2024-07-12T11:09:18.822Z</time>
      </trkpt>
      <trkpt lat="53.21826" lon="7.78793">
        <ele>45.441295</ele>
        <time>2024-07-12T11:09:21.826Z</time>
      </trkpt>
      <trkpt lat="53.21828" lon="7.78809">
        <ele>45.434283</ele>
        <time>2024-07-12T11:09:23.841Z</time>
      </trkpt>
      <trkpt lat="53.2183" lon="7.78823">
        <ele>45.415359</ele>
        <time>2024-07-12T11:09:25.830Z</time>
      </trkpt>
      <trkpt lat="53.21833" lon="7.78838">
        <ele>45.367856</ele>
        <time>2024-07-12T11:09:27.835Z</time>
      </trkpt>
      <trkpt lat="53.21834" lon="7.78853">
        <ele>45.319919</ele>
        <time>2024-07-12T11:09:29.843Z</time>
      </trkpt>
      <trkpt lat="53.21836" lon="7.78868">
        <ele>45.272992</ele>
        <time>2024-07-12T11:09:31.838Z</time>
      </trkpt>
      <trkpt lat="53.21839" lon="7.7889">
        <ele>45.203749</ele>
        <time>2024-07-12T11:09:34.848Z</time>
      </trkpt>
      <trkpt lat="53.21841" lon="7.78905">
        <ele>45.15727</ele>
        <time>2024-07-12T11:09:36.848Z</time>
      </trkpt>
      <trkpt lat="53.21843" lon="7.7892">
        <ele>45.108015</ele>
        <time>2024-07-12T11:09:38.842Z</time>
      </trkpt>
      <trkpt lat="53.21844" lon="7.78936">
        <ele>45.058234</ele>
        <time>2024-07-12T11:09:40.834Z</time>
      </trkpt>
      <trkpt lat="53.21845" lon="7.78952">
        <ele>45.009434</ele>
        <time>2024-07-12T11:09:42.821Z</time>
      </trkpt>
      <trkpt lat="53.21846" lon="7.78968">
        <ele>44.960635</ele>
        <time>2024-07-12T11:09:44.838Z</time>
      </trkpt>
      <trkpt lat="53.21847" lon="7.78984">
        <ele>44.911524</ele>
        <time>2024-07-12T11:09:46.830Z</time>
      </trkpt>
      <trkpt lat="53.21847" lon="7.78999">
        <ele>44.864836</ele>
        <time>2024-07-12T11:09:48.845Z</time>
      </trkpt>
      <trkpt lat="53.21848" lon="7.79014">
        <ele>44.817375</ele>
        <time>2024-07-12T11:09:50.834Z</time>
      </trkpt>
      <trkpt lat="53.21849" lon="7.7903">
        <ele>44.767147</ele>
        <time>2024-07-12T11:09:52.839Z</time>
      </trkpt>
      <trkpt lat="53.2185" lon="7.79052">
        <ele>44.698846</ele>
        <time>2024-07-12T11:09:55.840Z</time>
      </trkpt>
      <trkpt lat="53.21851" lon="7.79067">
        <ele>44.652252</ele>
        <time>2024-07-12T11:09:57.813Z</time>
      </trkpt>
      <trkpt lat="53.21852" lon="7.7909">
        <ele>44.582328</ele>
        <time>2024-07-12T11:10:00.839Z</time>
      </trkpt>
      <trkpt lat="53.21853" lon="7.79106">
        <ele>44.532305</ele>
        <time>2024-07-12T11:10:02.819Z</time>
      </trkpt>
      <trkpt lat="53.21852" lon="7.79121">
        <ele>44.497407</ele>
        <time>2024-07-12T11:10:04.835Z</time>
      </trkpt>
      <trkpt lat="53.21851" lon="7.79137">
        <ele>44.483257</ele>
        <time>2024-07-12T11:10:06.836Z</time>
      </trkpt>
      <trkpt lat="53.2185" lon="7.79152">
        <ele>44.469197</ele>
        <time>2024-07-12T11:10:08.823Z</time>
      </trkpt>
      <trkpt lat="53.21849" lon="7.79168">
        <ele>44.454995</ele>
        <time>2024-07-12T11:10:10.829Z</time>
      </trkpt>
      <trkpt lat="53.21848" lon="7.79183">
        <ele>44.440818</ele>
        <time>2024-07-12T11:10:12.814Z</time>
      </trkpt>
      <trkpt lat="53.21846" lon="7.79198">
        <ele>44.427032</ele>
        <time>2024-07-12T11:10:14.838Z</time>
      </trkpt>
      <trkpt lat="53.21844" lon="7.79213">
        <ele>44.412979</ele>
        <time>2024-07-12T11:10:16.839Z</time>
      </trkpt>
      <trkpt lat="53.21841" lon="7.79228">
        <ele>44.398223</ele>
        <time>2024-07-12T11:10:18.833Z</time>
      </trkpt>
      <trkpt lat="53.21837" lon="7.7925">
        <ele>44.378202</ele>
        <time>2024-07-12T11:10:21.852Z</time>
      </trkpt>
      <trkpt lat="53.21834" lon="7.79265">
        <ele>44.363665</ele>
        <time>2024-07-12T11:10:23.834Z</time>
      </trkpt>
      <trkpt lat="53.2183" lon="7.79285">
        <ele>44.344033</ele>
        <time>2024-07-12T11:10:26.835Z</time>
      </trkpt>
      <trkpt lat="53.21825" lon="7.79306">
        <ele>44.323525</ele>
        <time>2024-07-12T11:10:29.829Z</time>
      </trkpt>
      <trkpt lat="53.21821" lon="7.7932">
        <ele>44.309348</ele>
        <time>2024-07-12T11:10:31.831Z</time>
      </trkpt>
      <trkpt lat="53.21818" lon="7.79335">
        <ele>44.294832</ele>
        <time>2024-07-12T11:10:33.848Z</time>
      </trkpt>
      <trkpt lat="53.21815" lon="7.7935">
        <ele>44.280462</ele>
        <time>2024-07-12T11:10:35.832Z</time>
      </trkpt>
      <trkpt lat="53.21812" lon="7.79365">
        <ele>44.266621</ele>
        <time>2024-07-12T11:10:37.852Z</time>
      </trkpt>
      <trkpt lat="53.21808" lon="7.79383">
        <ele>44.249067</ele>
        <time>2024-07-12T11:10:40.850Z</time>
      </trkpt>
      <trkpt lat="53.21802" lon="7.79402">
        <ele>44.229838</ele>
        <time>2024-07-12T11:10:43.847Z</time>
      </trkpt>
      <trkpt lat="53.21798" lon="7.79415">
        <ele>44.201586</ele>
        <time>2024-07-12T11:10:45.827Z</time>
      </trkpt>
      <trkpt lat="53.21794" lon="7.7943">
        <ele>44.170026</ele>
        <time>2024-07-12T11:10:47.844Z</time>
      </trkpt>
      <trkpt lat="53.2179" lon="7.79445">
        <ele>44.139374</ele>
        <time>2024-07-12T11:10:49.846Z</time>
      </trkpt>
      <trkpt lat="53.21786" lon="7.79461">
        <ele>44.107493</ele>
        <time>2024-07-12T11:10:51.842Z</time>
      </trkpt>
      <trkpt lat="53.21782" lon="7.79477">
        <ele>44.072937</ele>
        <time>2024-07-12T11:10:53.833Z</time>
      </trkpt>
      <trkpt lat="53.21778" lon="7.79493">
        <ele>44.040593</ele>
        <time>2024-07-12T11:10:55.845Z</time>
      </trkpt>
      <trkpt lat="53.21774" lon="7.79508">
        <ele>44.009239</ele>
        <time>2024-07-12T11:10:57.842Z</time>
      </trkpt>
      <trkpt lat="53.21771" lon="7.79524">
        <ele>43.976598</ele>
        <time>2024-07-12T11:10:59.831Z</time>
      </trkpt>
      <trkpt lat="53.21766" lon="7.79538">
        <ele>43.94667</ele>
        <time>2024-07-12T11:11:01.830Z</time>
      </trkpt>
      <trkpt lat="53.21763" lon="7.79553">
        <ele>43.916492</ele>
        <time>2024-07-12T11:11:03.840Z</time>
      </trkpt>
      <trkpt lat="53.21759" lon="7.79567">
        <ele>43.886673</ele>
        <time>2024-07-12T11:11:05.854Z</time>
      </trkpt>
      <trkpt lat="53.21756" lon="7.79582">
        <ele>43.856266</ele>
        <time>2024-07-12T11:11:07.837Z</time>
      </trkpt>
      <trkpt lat="53.21752" lon="7.79596">
        <ele>43.826962</ele>
        <time>2024-07-12T11:11:09.833Z</time>
      </trkpt>
      <trkpt lat="53.21748" lon="7.7961">
        <ele>43.798049</ele>
        <time>2024-07-12T11:11:11.850Z</time>
      </trkpt>
      <trkpt lat="53.21744" lon="7.79625">
        <ele>43.76526</ele>
        <time>2024-07-12T11:11:13.830Z</time>
      </trkpt>
      <trkpt lat="53.2174" lon="7.79641">
        <ele>43.734083</ele>
        <time>2024-07-12T11:11:15.860Z</time>
      </trkpt>
      <trkpt lat="53.21736" lon="7.79655">
        <ele>43.703423</ele>
        <time>2024-07-12T11:11:17.847Z</time>
      </trkpt>
      <trkpt lat="53.21733" lon="7.79671">
        <ele>43.670926</ele>
        <time>2024-07-12T11:11:19.831Z</time>
      </trkpt>
      <trkpt lat="53.21729" lon="7.79687">
        <ele>43.691502</ele>
        <time>2024-07-12T11:11:21.835Z</time>
      </trkpt>
      <trkpt lat="53.21726" lon="7.79704">
        <ele>43.748664</ele>
        <time>2024-07-12T11:11:23.847Z</time>
      </trkpt>
      <trkpt lat="53.21723" lon="7.79718">
        <ele>43.798779</ele>
        <time>2024-07-12T11:11:25.840Z</time>
      </trkpt>
      <trkpt lat="53.21718" lon="7.79733">
        <ele>43.858612</ele>
        <time>2024-07-12T11:11:29.847Z</time>
      </trkpt>
      <trkpt lat="53.21714" lon="7.79752">
        <ele>43.925762</ele>
        <time>2024-07-12T11:12:07.834Z</time>
      </trkpt>
      <trkpt lat="53.21712" lon="7.79767">
        <ele>43.977602</ele>
        <time>2024-07-12T11:12:11.838Z</time>
      </trkpt>
      <trkpt lat="53.21725" lon="7.79777">
        <ele>44.053752</ele>
        <time>2024-07-12T11:12:39.840Z</time>
      </trkpt>
      <trkpt lat="53.21735" lon="7.79789">
        <ele>44.124417</ele>
        <time>2024-07-12T11:12:43.824Z</time>
      </trkpt>
      <trkpt lat="53.2174" lon="7.79807">
        <ele>44.190563</ele>
        <time>2024-07-12T11:12:46.831Z</time>
      </trkpt>
      <trkpt lat="53.21742" lon="7.79822">
        <ele>44.24327</ele>
        <time>2024-07-12T11:12:51.849Z</time>
      </trkpt>
      <trkpt lat="53.21739" lon="7.79806">
        <ele>44.299428</ele>
        <time>2024-07-12T11:12:59.835Z</time>
      </trkpt>
      <trkpt lat="53.21735" lon="7.79792">
        <ele>44.350593</ele>
        <time>2024-07-12T11:13:02.821Z</time>
      </trkpt>
      <trkpt lat="53.21726" lon="7.79786">
        <ele>44.406648</ele>
        <time>2024-07-12T11:13:05.829Z</time>
      </trkpt>
      <trkpt lat="53.2172" lon="7.798">
        <ele>44.46344</ele>
        <time>2024-07-12T11:13:08.832Z</time>
      </trkpt>
      <trkpt lat="53.21716" lon="7.79815">
        <ele>44.521163</ele>
        <time>2024-07-12T11:13:11.818Z</time>
      </trkpt>
      <trkpt lat="53.21712" lon="7.79834">
        <ele>44.585733</ele>
        <time>2024-07-12T11:13:14.835Z</time>
      </trkpt>
      <trkpt lat="53.21707" lon="7.79854">
        <ele>44.658971</ele>
        <time>2024-07-12T11:13:17.817Z</time>
      </trkpt>
      <trkpt lat="53.21701" lon="7.79873">
        <ele>44.644503</ele>
        <time>2024-07-12T11:13:20.850Z</time>
      </trkpt>
      <trkpt lat="53.21696" lon="7.79894">
        <ele>44.622707</ele>
        <time>2024-07-12T11:13:23.825Z</time>
      </trkpt>
      <trkpt lat="53.21693" lon="7.79909">
        <ele>44.606987</ele>
        <time>2024-07-12T11:13:25.843Z</time>
      </trkpt>
      <trkpt lat="53.21689" lon="7.79923">
        <ele>44.591422</ele>
        <time>2024-07-12T11:13:27.850Z</time>
      </trkpt>
      <trkpt lat="53.21686" lon="7.79939">
        <ele>44.575191</ele>
        <time>2024-07-12T11:13:29.850Z</time>
      </trkpt>
      <trkpt lat="53.21682" lon="7.79954">
        <ele>44.559202</ele>
        <time>2024-07-12T11:13:31.833Z</time>
      </trkpt>
      <trkpt lat="53.21678" lon="7.79969">
        <ele>44.54292</ele>
        <time>2024-07-12T11:13:33.831Z</time>
      </trkpt>
      <trkpt lat="53.21674" lon="7.79984">
        <ele>44.526681</ele>
        <time>2024-07-12T11:13:35.844Z</time>
      </trkpt>
      <trkpt lat="53.21671" lon="7.8">
        <ele>44.509928</ele>
        <time>2024-07-12T11:13:37.845Z</time>
      </trkpt>
      <trkpt lat="53.21667" lon="7.80016">
        <ele>44.492895</ele>
        <time>2024-07-12T11:13:39.841Z</time>
      </trkpt>
      <trkpt lat="53.21664" lon="7.80032">
        <ele>44.475956</ele>
        <time>2024-07-12T11:13:41.830Z</time>
      </trkpt>
      <trkpt lat="53.2166" lon="7.80048">
        <ele>44.458341</ele>
        <time>2024-07-12T11:13:43.839Z</time>
      </trkpt>
      <trkpt lat="53.21656" lon="7.80064">
        <ele>44.441465</ele>
        <time>2024-07-12T11:13:45.828Z</time>
      </trkpt>
      <trkpt lat="53.21652" lon="7.80081">
        <ele>44.42352</ele>
        <time>2024-07-12T11:13:47.851Z</time>
      </trkpt>
      <trkpt lat="53.21648" lon="7.80097">
        <ele>44.406735</ele>
        <time>2024-07-12T11:13:49.843Z</time>
      </trkpt>
      <trkpt lat="53.21644" lon="7.80114">
        <ele>44.388974</ele>
        <time>2024-07-12T11:13:51.833Z</time>
      </trkpt>
      <trkpt lat="53.2164" lon="7.80129">
        <ele>44.372343</ele>
        <time>2024-07-12T11:13:53.813Z</time>
      </trkpt>
      <trkpt lat="53.21636" lon="7.80146">
        <ele>44.39393</ele>
        <time>2024-07-12T11:13:55.831Z</time>
      </trkpt>
      <trkpt lat="53.21632" lon="7.80162">
        <ele>44.427564</ele>
        <time>2024-07-12T11:13:57.842Z</time>
      </trkpt>
      <trkpt lat="53.21628" lon="7.80178">
        <ele>44.460016</ele>
        <time>2024-07-12T11:13:59.833Z</time>
      </trkpt>
      <trkpt lat="53.21624" lon="7.80193">
        <ele>44.491294</ele>
        <time>2024-07-12T11:14:01.858Z</time>
      </trkpt>
      <trkpt lat="53.21621" lon="7.8021">
        <ele>44.524155</ele>
        <time>2024-07-12T11:14:03.831Z</time>
      </trkpt>
      <trkpt lat="53.21617" lon="7.80225">
        <ele>44.556081</ele>
        <time>2024-07-12T11:14:05.843Z</time>
      </trkpt>
      <trkpt lat="53.21613" lon="7.8024">
        <ele>44.587832</ele>
        <time>2024-07-12T11:14:07.831Z</time>
      </trkpt>
      <trkpt lat="53.21608" lon="7.80256">
        <ele>44.621115</ele>
        <time>2024-07-12T11:14:09.841Z</time>
      </trkpt>
      <trkpt lat="53.21605" lon="7.8027">
        <ele>44.650282</ele>
        <time>2024-07-12T11:14:11.843Z</time>
      </trkpt>
      <trkpt lat="53.21601" lon="7.80286">
        <ele>44.681559</ele>
        <time>2024-07-12T11:14:13.828Z</time>
      </trkpt>
      <trkpt lat="53.21597" lon="7.803">
        <ele>44.712264</ele>
        <time>2024-07-12T11:14:15.839Z</time>
      </trkpt>
      <trkpt lat="53.21595" lon="7.80316">
        <ele>44.74348</ele>
        <time>2024-07-12T11:14:17.829Z</time>
      </trkpt>
      <trkpt lat="53.21592" lon="7.80331">
        <ele>44.772963</ele>
        <time>2024-07-12T11:14:19.843Z</time>
      </trkpt>
      <trkpt lat="53.21588" lon="7.80346">
        <ele>44.803148</ele>
        <time>2024-07-12T11:14:21.842Z</time>
      </trkpt>
      <trkpt lat="53.21584" lon="7.8036">
        <ele>44.832401</ele>
        <time>2024-07-12T11:14:23.835Z</time>
      </trkpt>
      <trkpt lat="53.2158" lon="7.80374">
        <ele>44.862239</ele>
        <time>2024-07-12T11:14:25.830Z</time>
      </trkpt>
      <trkpt lat="53.21574" lon="7.80393">
        <ele>44.903481</ele>
        <time>2024-07-12T11:14:28.854Z</time>
      </trkpt>
      <trkpt lat="53.21569" lon="7.80407">
        <ele>44.933654</ele>
        <time>2024-07-12T11:14:30.822Z</time>
      </trkpt>
      <trkpt lat="53.21564" lon="7.80427">
        <ele>44.988043</ele>
        <time>2024-07-12T11:14:33.835Z</time>
      </trkpt>
      <trkpt lat="53.2156" lon="7.80441">
        <ele>45.02701</ele>
        <time>2024-07-12T11:14:35.844Z</time>
      </trkpt>
      <trkpt lat="53.21555" lon="7.80461">
        <ele>45.0827</ele>
        <time>2024-07-12T11:14:38.830Z</time>
      </trkpt>
      <trkpt lat="53.2155" lon="7.80475">
        <ele>45.122394</ele>
        <time>2024-07-12T11:14:40.845Z</time>
      </trkpt>
      <trkpt lat="53.21546" lon="7.80489">
        <ele>45.161412</ele>
        <time>2024-07-12T11:14:42.824Z</time>
      </trkpt>
      <trkpt lat="53.2154" lon="7.80506">
        <ele>45.211235</ele>
        <time>2024-07-12T11:14:45.838Z</time>
      </trkpt>
      <trkpt lat="53.21535" lon="7.80522">
        <ele>45.256229</ele>
        <time>2024-07-12T11:14:48.838Z</time>
      </trkpt>
      <trkpt lat="53.21529" lon="7.8054">
        <ele>45.306052</ele>
        <time>2024-07-12T11:14:51.827Z</time>
      </trkpt>
      <trkpt lat="53.21523" lon="7.80557">
        <ele>45.356297</ele>
        <time>2024-07-12T11:14:54.837Z</time>
      </trkpt>
      <trkpt lat="53.21516" lon="7.80574">
        <ele>45.407862</ele>
        <time>2024-07-12T11:14:57.832Z</time>
      </trkpt>
      <trkpt lat="53.2151" lon="7.80591">
        <ele>45.459156</ele>
        <time>2024-07-12T11:15:00.858Z</time>
      </trkpt>
      <trkpt lat="53.21503" lon="7.80605">
        <ele>45.504511</ele>
        <time>2024-07-12T11:15:03.856Z</time>
      </trkpt>
      <trkpt lat="53.21497" lon="7.8062">
        <ele>45.550536</ele>
        <time>2024-07-12T11:15:06.834Z</time>
      </trkpt>
      <trkpt lat="53.2149" lon="7.80636">
        <ele>45.598966</ele>
        <time>2024-07-12T11:15:09.842Z</time>
      </trkpt>
      <trkpt lat="53.21484" lon="7.80653">
        <ele>45.647674</ele>
        <time>2024-07-12T11:15:12.837Z</time>
      </trkpt>
      <trkpt lat="53.21478" lon="7.80669">
        <ele>45.685975</ele>
        <time>2024-07-12T11:15:15.831Z</time>
      </trkpt>
      <trkpt lat="53.21471" lon="7.80684">
        <ele>45.592926</ele>
        <time>2024-07-12T11:15:18.836Z</time>
      </trkpt>
      <trkpt lat="53.21464" lon="7.80698">
        <ele>45.499391</ele>
        <time>2024-07-12T11:15:21.839Z</time>
      </trkpt>
      <trkpt lat="53.21457" lon="7.80714">
        <ele>45.404141</ele>
        <time>2024-07-12T11:15:24.840Z</time>
      </trkpt>
      <trkpt lat="53.2145" lon="7.80729">
        <ele>45.306794</ele>
        <time>2024-07-12T11:15:27.843Z</time>
      </trkpt>
      <trkpt lat="53.21442" lon="7.80745">
        <ele>45.20607</ele>
        <time>2024-07-12T11:15:30.841Z</time>
      </trkpt>
      <trkpt lat="53.21434" lon="7.8076">
        <ele>45.103505</ele>
        <time>2024-07-12T11:15:33.834Z</time>
      </trkpt>
      <trkpt lat="53.21426" lon="7.80775">
        <ele>44.999848</ele>
        <time>2024-07-12T11:15:36.844Z</time>
      </trkpt>
      <trkpt lat="53.21417" lon="7.80791">
        <ele>44.893036</ele>
        <time>2024-07-12T11:15:39.834Z</time>
      </trkpt>
      <trkpt lat="53.2141" lon="7.8081">
        <ele>44.782814</ele>
        <time>2024-07-12T11:15:42.827Z</time>
      </trkpt>
      <trkpt lat="53.21405" lon="7.80824">
        <ele>44.703967</ele>
        <time>2024-07-12T11:15:44.843Z</time>
      </trkpt>
      <trkpt lat="53.214" lon="7.80836">
        <ele>44.626102</ele>
        <time>2024-07-12T11:15:46.838Z</time>
      </trkpt>
      <trkpt lat="53.21394" lon="7.80848">
        <ele>44.545855</ele>
        <time>2024-07-12T11:15:48.848Z</time>
      </trkpt>
      <trkpt lat="53.21388" lon="7.8086">
        <ele>44.468169</ele>
        <time>2024-07-12T11:15:50.835Z</time>
      </trkpt>
      <trkpt lat="53.21381" lon="7.80872">
        <ele>44.388849</ele>
        <time>2024-07-12T11:15:52.833Z</time>
      </trkpt>
      <trkpt lat="53.21375" lon="7.80883">
        <ele>44.312383</ele>
        <time>2024-07-12T11:15:54.847Z</time>
      </trkpt>
      <trkpt lat="53.21368" lon="7.80895">
        <ele>44.230834</ele>
        <time>2024-07-12T11:15:56.836Z</time>
      </trkpt>
      <trkpt lat="53.21362" lon="7.80907">
        <ele>44.235742</ele>
        <time>2024-07-12T11:15:58.849Z</time>
      </trkpt>
      <trkpt lat="53.21355" lon="7.80919">
        <ele>44.316834</ele>
        <time>2024-07-12T11:16:00.848Z</time>
      </trkpt>
      <trkpt lat="53.21349" lon="7.8093">
        <ele>44.391598</ele>
        <time>2024-07-12T11:16:02.821Z</time>
      </trkpt>
      <trkpt lat="53.21343" lon="7.80942">
        <ele>44.464714</ele>
        <time>2024-07-12T11:16:04.835Z</time>
      </trkpt>
      <trkpt lat="53.21336" lon="7.80952">
        <ele>44.538641</ele>
        <time>2024-07-12T11:16:06.841Z</time>
      </trkpt>
      <trkpt lat="53.21328" lon="7.8097">
        <ele>44.646877</ele>
        <time>2024-07-12T11:16:09.828Z</time>
      </trkpt>
      <trkpt lat="53.21319" lon="7.80986">
        <ele>44.75221</ele>
        <time>2024-07-12T11:16:12.858Z</time>
      </trkpt>
      <trkpt lat="53.21309" lon="7.81001">
        <ele>44.860551</ele>
        <time>2024-07-12T11:16:15.818Z</time>
      </trkpt>
      <trkpt lat="53.213" lon="7.81018">
        <ele>44.969503</ele>
        <time>2024-07-12T11:16:18.848Z</time>
      </trkpt>
      <trkpt lat="53.21292" lon="7.81034">
        <ele>45.074837</ele>
        <time>2024-07-12T11:16:21.844Z</time>
      </trkpt>
      <trkpt lat="53.21283" lon="7.81052">
        <ele>45.187814</ele>
        <time>2024-07-12T11:16:24.825Z</time>
      </trkpt>
      <trkpt lat="53.21277" lon="7.81064">
        <ele>45.265518</ele>
        <time>2024-07-12T11:16:26.817Z</time>
      </trkpt>
      <trkpt lat="53.21268" lon="7.81081">
        <ele>45.373216</ele>
        <time>2024-07-12T11:16:29.838Z</time>
      </trkpt>
      <trkpt lat="53.21259" lon="7.81098">
        <ele>45.481866</ele>
        <time>2024-07-12T11:16:32.835Z</time>
      </trkpt>
      <trkpt lat="53.21253" lon="7.8111">
        <ele>45.558246</ele>
        <time>2024-07-12T11:16:34.832Z</time>
      </trkpt>
      <trkpt lat="53.21245" lon="7.81127">
        <ele>45.653234</ele>
        <time>2024-07-12T11:16:37.855Z</time>
      </trkpt>
      <trkpt lat="53.21238" lon="7.81138">
        <ele>45.647089</ele>
        <time>2024-07-12T11:16:39.833Z</time>
      </trkpt>
      <trkpt lat="53.21232" lon="7.8115">
        <ele>45.641001</ele>
        <time>2024-07-12T11:16:41.832Z</time>
      </trkpt>
      <trkpt lat="53.21224" lon="7.81167">
        <ele>45.632156</ele>
        <time>2024-07-12T11:16:44.847Z</time>
      </trkpt>
      <trkpt lat="53.21215" lon="7.81184">
        <ele>45.623155</ele>
        <time>2024-07-12T11:16:47.846Z</time>
      </trkpt>
      <trkpt lat="53.21209" lon="7.81195">
        <ele>45.617127</ele>
        <time>2024-07-12T11:16:49.835Z</time>
      </trkpt>
      <trkpt lat="53.21202" lon="7.81207">
        <ele>45.610816</ele>
        <time>2024-07-12T11:16:51.835Z</time>
      </trkpt>
      <trkpt lat="53.21194" lon="7.81223">
        <ele>45.60252</ele>
        <time>2024-07-12T11:16:54.831Z</time>
      </trkpt>
      <trkpt lat="53.21186" lon="7.81238">
        <ele>45.594511</ele>
        <time>2024-07-12T11:16:57.834Z</time>
      </trkpt>
      <trkpt lat="53.21178" lon="7.81254">
        <ele>45.585967</ele>
        <time>2024-07-12T11:17:00.843Z</time>
      </trkpt>
      <trkpt lat="53.21172" lon="7.81266">
        <ele>45.57997</ele>
        <time>2024-07-12T11:17:02.827Z</time>
      </trkpt>
      <trkpt lat="53.21166" lon="7.8128">
        <ele>45.572775</ele>
        <time>2024-07-12T11:17:05.830Z</time>
      </trkpt>
      <trkpt lat="53.21159" lon="7.81292">
        <ele>45.566542</ele>
        <time>2024-07-12T11:17:09.821Z</time>
      </trkpt>
      <trkpt lat="53.21152" lon="7.81303">
        <ele>45.559729</ele>
        <time>2024-07-12T11:17:12.856Z</time>
      </trkpt>
      <trkpt lat="53.21143" lon="7.81319">
        <ele>45.551008</ele>
        <time>2024-07-12T11:17:15.838Z</time>
      </trkpt>
      <trkpt lat="53.21137" lon="7.81332">
        <ele>45.544673</ele>
        <time>2024-07-12T11:17:17.830Z</time>
      </trkpt>
      <trkpt lat="53.21131" lon="7.81344">
        <ele>45.538078</ele>
        <time>2024-07-12T11:17:19.835Z</time>
      </trkpt>
      <trkpt lat="53.21124" lon="7.81357">
        <ele>45.499644</ele>
        <time>2024-07-12T11:17:21.829Z</time>
      </trkpt>
      <trkpt lat="53.21118" lon="7.81371">
        <ele>45.43038</ele>
        <time>2024-07-12T11:17:23.859Z</time>
      </trkpt>
      <trkpt lat="53.2111" lon="7.81384">
        <ele>45.358817</ele>
        <time>2024-07-12T11:17:25.827Z</time>
      </trkpt>
      <trkpt lat="53.21104" lon="7.81397">
        <ele>45.292598</ele>
        <time>2024-07-12T11:17:27.836Z</time>
      </trkpt>
      <trkpt lat="53.21097" lon="7.81411">
        <ele>45.218359</ele>
        <time>2024-07-12T11:17:29.834Z</time>
      </trkpt>
      <trkpt lat="53.2109" lon="7.81425">
        <ele>45.148121</ele>
        <time>2024-07-12T11:17:31.836Z</time>
      </trkpt>
      <trkpt lat="53.21083" lon="7.81438">
        <ele>45.077827</ele>
        <time>2024-07-12T11:17:33.846Z</time>
      </trkpt>
      <trkpt lat="53.21077" lon="7.81453">
        <ele>45.005927</ele>
        <time>2024-07-12T11:17:35.845Z</time>
      </trkpt>
      <trkpt lat="53.2107" lon="7.81467">
        <ele>44.934585</ele>
        <time>2024-07-12T11:17:37.854Z</time>
      </trkpt>
      <trkpt lat="53.21064" lon="7.81482">
        <ele>44.861249</ele>
        <time>2024-07-12T11:17:39.848Z</time>
      </trkpt>
      <trkpt lat="53.21058" lon="7.81496">
        <ele>44.789579</ele>
        <time>2024-07-12T11:17:41.839Z</time>
      </trkpt>
      <trkpt lat="53.21052" lon="7.8151">
        <ele>44.721628</ele>
        <time>2024-07-12T11:17:43.836Z</time>
      </trkpt>
      <trkpt lat="53.21047" lon="7.81525">
        <ele>44.655146</ele>
        <time>2024-07-12T11:17:45.830Z</time>
      </trkpt>
      <trkpt lat="53.21041" lon="7.81541">
        <ele>44.581498</ele>
        <time>2024-07-12T11:17:47.853Z</time>
      </trkpt>
      <trkpt lat="53.21035" lon="7.81554">
        <ele>44.514393</ele>
        <time>2024-07-12T11:17:49.848Z</time>
      </trkpt>
      <trkpt lat="53.2103" lon="7.81567">
        <ele>44.451509</ele>
        <time>2024-07-12T11:17:51.834Z</time>
      </trkpt>
      <trkpt lat="53.21024" lon="7.81581">
        <ele>44.383044</ele>
        <time>2024-07-12T11:17:53.849Z</time>
      </trkpt>
      <trkpt lat="53.21019" lon="7.81595">
        <ele>44.323929</ele>
        <time>2024-07-12T11:17:55.836Z</time>
      </trkpt>
      <trkpt lat="53.21014" lon="7.81609">
        <ele>44.277962</ele>
        <time>2024-07-12T11:17:57.831Z</time>
      </trkpt>
      <trkpt lat="53.21009" lon="7.81623">
        <ele>44.23315</ele>
        <time>2024-07-12T11:17:59.831Z</time>
      </trkpt>
      <trkpt lat="53.21003" lon="7.81637">
        <ele>44.187172</ele>
        <time>2024-07-12T11:18:01.848Z</time>
      </trkpt>
      <trkpt lat="53.20998" lon="7.81651">
        <ele>44.139777</ele>
        <time>2024-07-12T11:18:03.839Z</time>
      </trkpt>
      <trkpt lat="53.20992" lon="7.81665">
        <ele>44.093011</ele>
        <time>2024-07-12T11:18:05.831Z</time>
      </trkpt>
      <trkpt lat="53.20987" lon="7.8168">
        <ele>44.044658</ele>
        <time>2024-07-12T11:18:07.848Z</time>
      </trkpt>
      <trkpt lat="53.20982" lon="7.81694">
        <ele>43.998216</ele>
        <time>2024-07-12T11:18:09.838Z</time>
      </trkpt>
      <trkpt lat="53.20977" lon="7.81709">
        <ele>43.953752</ele>
        <time>2024-07-12T11:18:11.836Z</time>
      </trkpt>
      <trkpt lat="53.20974" lon="7.81724">
        <ele>43.907257</ele>
        <time>2024-07-12T11:18:13.830Z</time>
      </trkpt>
      <trkpt lat="53.20971" lon="7.81741">
        <ele>43.859311</ele>
        <time>2024-07-12T11:18:15.807Z</time>
      </trkpt>
      <trkpt lat="53.20967" lon="7.81757">
        <ele>43.810087</ele>
        <time>2024-07-12T11:18:17.834Z</time>
      </trkpt>
      <trkpt lat="53.20962" lon="7.81772">
        <ele>43.761945</ele>
        <time>2024-07-12T11:18:19.829Z</time>
      </trkpt>
      <trkpt lat="53.20956" lon="7.81787">
        <ele>43.714071</ele>
        <time>2024-07-12T11:18:21.833Z</time>
      </trkpt>
      <trkpt lat="53.20951" lon="7.81801">
        <ele>43.66882</ele>
        <time>2024-07-12T11:18:23.846Z</time>
      </trkpt>
      <trkpt lat="53.20946" lon="7.81814">
        <ele>43.623494</ele>
        <time>2024-07-12T11:18:25.832Z</time>
      </trkpt>
      <trkpt lat="53.20941" lon="7.81828">
        <ele>43.579629</ele>
        <time>2024-07-12T11:18:27.848Z</time>
      </trkpt>
      <trkpt lat="53.20938" lon="7.81844">
        <ele>43.533383</ele>
        <time>2024-07-12T11:18:29.845Z</time>
      </trkpt>
      <trkpt lat="53.20933" lon="7.81858">
        <ele>43.507184</ele>
        <time>2024-07-12T11:18:31.848Z</time>
      </trkpt>
      <trkpt lat="53.20928" lon="7.81873">
        <ele>43.521884</ele>
        <time>2024-07-12T11:18:33.836Z</time>
      </trkpt>
      <trkpt lat="53.20923" lon="7.81888">
        <ele>43.53763</ele>
        <time>2024-07-12T11:18:35.819Z</time>
      </trkpt>
      <trkpt lat="53.20918" lon="7.81902">
        <ele>43.552913</ele>
        <time>2024-07-12T11:18:37.829Z</time>
      </trkpt>
      <trkpt lat="53.20912" lon="7.81916">
        <ele>43.568119</ele>
        <time>2024-07-12T11:18:39.837Z</time>
      </trkpt>
      <trkpt lat="53.20907" lon="7.8193">
        <ele>43.583251</ele>
        <time>2024-07-12T11:18:41.829Z</time>
      </trkpt>
      <trkpt lat="53.20902" lon="7.81945">
        <ele>43.598685</ele>
        <time>2024-07-12T11:18:43.845Z</time>
      </trkpt>
      <trkpt lat="53.20897" lon="7.8196">
        <ele>43.613965</ele>
        <time>2024-07-12T11:18:45.828Z</time>
      </trkpt>
      <trkpt lat="53.20892" lon="7.81974">
        <ele>43.629167</ele>
        <time>2024-07-12T11:18:47.848Z</time>
      </trkpt>
      <trkpt lat="53.20887" lon="7.81988">
        <ele>43.644447</ele>
        <time>2024-07-12T11:18:49.828Z</time>
      </trkpt>
      <trkpt lat="53.20881" lon="7.82002">
        <ele>43.659649</ele>
        <time>2024-07-12T11:18:51.851Z</time>
      </trkpt>
      <trkpt lat="53.20877" lon="7.82017">
        <ele>43.674543</ele>
        <time>2024-07-12T11:18:53.833Z</time>
      </trkpt>
      <trkpt lat="53.20872" lon="7.8203">
        <ele>43.689119</ele>
        <time>2024-07-12T11:18:55.832Z</time>
      </trkpt>
      <trkpt lat="53.20867" lon="7.82045">
        <ele>43.70378</ele>
        <time>2024-07-12T11:18:57.829Z</time>
      </trkpt>
      <trkpt lat="53.20862" lon="7.82058">
        <ele>43.718129</ele>
        <time>2024-07-12T11:18:59.844Z</time>
      </trkpt>
      <trkpt lat="53.20855" lon="7.82077">
        <ele>43.738007</ele>
        <time>2024-07-12T11:19:02.806Z</time>
      </trkpt>
      <trkpt lat="53.20851" lon="7.82091">
        <ele>43.752141</ele>
        <time>2024-07-12T11:19:04.835Z</time>
      </trkpt>
      <trkpt lat="53.20846" lon="7.82105">
        <ele>43.766956</ele>
        <time>2024-07-12T11:19:06.843Z</time>
      </trkpt>
      <trkpt lat="53.20841" lon="7.82119">
        <ele>43.79403</ele>
        <time>2024-07-12T11:19:08.811Z</time>
      </trkpt>
      <trkpt lat="53.20835" lon="7.82132">
        <ele>43.83666</ele>
        <time>2024-07-12T11:19:10.837Z</time>
      </trkpt>
      <trkpt lat="53.20831" lon="7.82146">
        <ele>43.877196</ele>
        <time>2024-07-12T11:19:12.812Z</time>
      </trkpt>
      <trkpt lat="53.20826" lon="7.8216">
        <ele>43.918385</ele>
        <time>2024-07-12T11:19:14.846Z</time>
      </trkpt>
      <trkpt lat="53.20819" lon="7.8218">
        <ele>43.976039</ele>
        <time>2024-07-12T11:19:17.835Z</time>
      </trkpt>
      <trkpt lat="53.20814" lon="7.82193">
        <ele>44.01547</ele>
        <time>2024-07-12T11:19:19.830Z</time>
      </trkpt>
      <trkpt lat="53.2081" lon="7.82206">
        <ele>44.054462</ele>
        <time>2024-07-12T11:19:21.830Z</time>
      </trkpt>
      <trkpt lat="53.20805" lon="7.8222">
        <ele>44.095236</ele>
        <time>2024-07-12T11:19:23.849Z</time>
      </trkpt>
      <trkpt lat="53.20799" lon="7.82234">
        <ele>44.13961</ele>
        <time>2024-07-12T11:19:25.835Z</time>
      </trkpt>
      <trkpt lat="53.20793" lon="7.82249">
        <ele>44.184772</ele>
        <time>2024-07-12T11:19:27.837Z</time>
      </trkpt>
      <trkpt lat="53.20787" lon="7.82261">
        <ele>44.225136</ele>
        <time>2024-07-12T11:19:29.842Z</time>
      </trkpt>
      <trkpt lat="53.20777" lon="7.82277">
        <ele>44.282548</ele>
        <time>2024-07-12T11:19:32.826Z</time>
      </trkpt>
      <trkpt lat="53.2077" lon="7.82295">
        <ele>44.336708</ele>
        <time>2024-07-12T11:19:35.852Z</time>
      </trkpt>
      <trkpt lat="53.20763" lon="7.82313">
        <ele>44.393491</ele>
        <time>2024-07-12T11:19:38.848Z</time>
      </trkpt>
      <trkpt lat="53.20759" lon="7.82327">
        <ele>44.433389</ele>
        <time>2024-07-12T11:19:40.835Z</time>
      </trkpt>
      <trkpt lat="53.20754" lon="7.82341">
        <ele>44.473287</ele>
        <time>2024-07-12T11:19:42.833Z</time>
      </trkpt>
      <trkpt lat="53.2075" lon="7.82354">
        <ele>44.513391</ele>
        <time>2024-07-12T11:19:44.835Z</time>
      </trkpt>
      <trkpt lat="53.20745" lon="7.82368">
        <ele>44.534408</ele>
        <time>2024-07-12T11:19:46.837Z</time>
      </trkpt>
      <trkpt lat="53.2074" lon="7.82381">
        <ele>44.506749</ele>
        <time>2024-07-12T11:19:48.842Z</time>
      </trkpt>
      <trkpt lat="53.20734" lon="7.824">
        <ele>44.467536</ele>
        <time>2024-07-12T11:19:51.835Z</time>
      </trkpt>
      <trkpt lat="53.2073" lon="7.82415">
        <ele>44.439501</ele>
        <time>2024-07-12T11:19:53.829Z</time>
      </trkpt>
      <trkpt lat="53.20726" lon="7.82428">
        <ele>44.412663</ele>
        <time>2024-07-12T11:19:55.827Z</time>
      </trkpt>
      <trkpt lat="53.20719" lon="7.82448">
        <ele>44.372694</ele>
        <time>2024-07-12T11:19:58.820Z</time>
      </trkpt>
      <trkpt lat="53.20714" lon="7.82461">
        <ele>44.34559</ele>
        <time>2024-07-12T11:20:00.853Z</time>
      </trkpt>
      <trkpt lat="53.20707" lon="7.82481">
        <ele>44.304864</ele>
        <time>2024-07-12T11:20:03.849Z</time>
      </trkpt>
      <trkpt lat="53.20703" lon="7.82495">
        <ele>44.276897</ele>
        <time>2024-07-12T11:20:05.859Z</time>
      </trkpt>
      <trkpt lat="53.20698" lon="7.82508">
        <ele>44.249989</ele>
        <time>2024-07-12T11:20:07.851Z</time>
      </trkpt>
      <trkpt lat="53.20693" lon="7.82521">
        <ele>44.221248</ele>
        <time>2024-07-12T11:20:09.833Z</time>
      </trkpt>
      <trkpt lat="53.20688" lon="7.82536">
        <ele>44.191912</ele>
        <time>2024-07-12T11:20:11.836Z</time>
      </trkpt>
      <trkpt lat="53.20683" lon="7.8255">
        <ele>44.162565</ele>
        <time>2024-07-12T11:20:13.857Z</time>
      </trkpt>
      <trkpt lat="53.20678" lon="7.82563">
        <ele>44.135358</ele>
        <time>2024-07-12T11:20:15.837Z</time>
      </trkpt>
      <trkpt lat="53.20673" lon="7.82577">
        <ele>44.106785</ele>
        <time>2024-07-12T11:20:17.844Z</time>
      </trkpt>
      <trkpt lat="53.20668" lon="7.82591">
        <ele>44.078655</ele>
        <time>2024-07-12T11:20:19.832Z</time>
      </trkpt>
      <trkpt lat="53.20664" lon="7.82604">
        <ele>44.051453</ele>
        <time>2024-07-12T11:20:21.840Z</time>
      </trkpt>
      <trkpt lat="53.20655" lon="7.82621">
        <ele>44.012417</ele>
        <time>2024-07-12T11:20:24.826Z</time>
      </trkpt>
      <trkpt lat="53.20648" lon="7.8264">
        <ele>44.073454</ele>
        <time>2024-07-12T11:20:27.839Z</time>
      </trkpt>
      <trkpt lat="53.20641" lon="7.82659">
        <ele>44.141676</ele>
        <time>2024-07-12T11:20:30.821Z</time>
      </trkpt>
      <trkpt lat="53.20637" lon="7.82672">
        <ele>44.188593</ele>
        <time>2024-07-12T11:20:32.826Z</time>
      </trkpt>
      <trkpt lat="53.20632" lon="7.82686">
        <ele>44.234693</ele>
        <time>2024-07-12T11:20:34.845Z</time>
      </trkpt>
      <trkpt lat="53.20625" lon="7.82704">
        <ele>44.302189</ele>
        <time>2024-07-12T11:20:37.850Z</time>
      </trkpt>
      <trkpt lat="53.20621" lon="7.82719">
        <ele>44.350093</ele>
        <time>2024-07-12T11:20:39.838Z</time>
      </trkpt>
      <trkpt lat="53.20615" lon="7.82739">
        <ele>44.418987</ele>
        <time>2024-07-12T11:20:42.826Z</time>
      </trkpt>
      <trkpt lat="53.20611" lon="7.82753">
        <ele>44.465576</ele>
        <time>2024-07-12T11:20:44.853Z</time>
      </trkpt>
      <trkpt lat="53.20607" lon="7.82767">
        <ele>44.513136</ele>
        <time>2024-07-12T11:20:46.848Z</time>
      </trkpt>
      <trkpt lat="53.20603" lon="7.82781">
        <ele>44.559789</ele>
        <time>2024-07-12T11:20:48.847Z</time>
      </trkpt>
      <trkpt lat="53.20599" lon="7.82795">
        <ele>44.608403</ele>
        <time>2024-07-12T11:20:50.854Z</time>
      </trkpt>
      <trkpt lat="53.20595" lon="7.8281">
        <ele>44.655684</ele>
        <time>2024-07-12T11:20:52.835Z</time>
      </trkpt>
      <trkpt lat="53.2059" lon="7.82831">
        <ele>44.724293</ele>
        <time>2024-07-12T11:20:55.834Z</time>
      </trkpt>
      <trkpt lat="53.20585" lon="7.82851">
        <ele>44.792322</ele>
        <time>2024-07-12T11:20:58.823Z</time>
      </trkpt>
      <trkpt lat="53.20581" lon="7.82872">
        <ele>44.85911</ele>
        <time>2024-07-12T11:21:01.851Z</time>
      </trkpt>
      <trkpt lat="53.20577" lon="7.82893">
        <ele>44.918517</ele>
        <time>2024-07-12T11:21:04.848Z</time>
      </trkpt>
      <trkpt lat="53.20574" lon="7.82913">
        <ele>44.856686</ele>
        <time>2024-07-12T11:21:07.838Z</time>
      </trkpt>
      <trkpt lat="53.2057" lon="7.82931">
        <ele>44.798427</ele>
        <time>2024-07-12T11:21:10.836Z</time>
      </trkpt>
      <trkpt lat="53.20568" lon="7.82951">
        <ele>44.738977</ele>
        <time>2024-07-12T11:21:13.837Z</time>
      </trkpt>
      <trkpt lat="53.20565" lon="7.82971">
        <ele>44.678617</ele>
        <time>2024-07-12T11:21:16.847Z</time>
      </trkpt>
      <trkpt lat="53.20562" lon="7.8299">
        <ele>44.620165</ele>
        <time>2024-07-12T11:21:19.842Z</time>
      </trkpt>
      <trkpt lat="53.2056" lon="7.83007">
        <ele>44.566063</ele>
        <time>2024-07-12T11:21:22.815Z</time>
      </trkpt>
      <trkpt lat="53.20557" lon="7.83025">
        <ele>44.511379</ele>
        <time>2024-07-12T11:21:25.847Z</time>
      </trkpt>
      <trkpt lat="53.20554" lon="7.83043">
        <ele>44.456659</ele>
        <time>2024-07-12T11:21:28.845Z</time>
      </trkpt>
      <trkpt lat="53.2055" lon="7.83062">
        <ele>44.396399</ele>
        <time>2024-07-12T11:21:31.847Z</time>
      </trkpt>
      <trkpt lat="53.20547" lon="7.83083">
        <ele>44.330972</ele>
        <time>2024-07-12T11:21:34.843Z</time>
      </trkpt>
      <trkpt lat="53.20544" lon="7.83098">
        <ele>44.28527</ele>
        <time>2024-07-12T11:21:36.840Z</time>
      </trkpt>
      <trkpt lat="53.20541" lon="7.83119">
        <ele>44.219225</ele>
        <time>2024-07-12T11:21:39.847Z</time>
      </trkpt>
      <trkpt lat="53.20537" lon="7.8314">
        <ele>44.154539</ele>
        <time>2024-07-12T11:21:42.816Z</time>
      </trkpt>
      <trkpt lat="53.20535" lon="7.83156">
        <ele>44.105776</ele>
        <time>2024-07-12T11:21:44.843Z</time>
      </trkpt>
      <trkpt lat="53.20532" lon="7.83171">
        <ele>44.05765</ele>
        <time>2024-07-12T11:21:46.826Z</time>
      </trkpt>
      <trkpt lat="53.20529" lon="7.83186">
        <ele>44.029583</ele>
        <time>2024-07-12T11:21:48.833Z</time>
      </trkpt>
      <trkpt lat="53.20526" lon="7.83201">
        <ele>44.039894</ele>
        <time>2024-07-12T11:21:50.831Z</time>
      </trkpt>
      <trkpt lat="53.20522" lon="7.83216">
        <ele>44.050068</ele>
        <time>2024-07-12T11:21:52.832Z</time>
      </trkpt>
      <trkpt lat="53.20519" lon="7.83232">
        <ele>44.060569</ele>
        <time>2024-07-12T11:21:54.830Z</time>
      </trkpt>
      <trkpt lat="53.20516" lon="7.83246">
        <ele>44.07052</ele>
        <time>2024-07-12T11:21:56.842Z</time>
      </trkpt>
      <trkpt lat="53.20512" lon="7.8326">
        <ele>44.080592</ele>
        <time>2024-07-12T11:21:58.851Z</time>
      </trkpt>
      <trkpt lat="53.20508" lon="7.83274">
        <ele>44.090247</ele>
        <time>2024-07-12T11:22:00.839Z</time>
      </trkpt>
      <trkpt lat="53.20505" lon="7.83288">
        <ele>44.10024</ele>
        <time>2024-07-12T11:22:02.823Z</time>
      </trkpt>
      <trkpt lat="53.20498" lon="7.83307">
        <ele>44.11434</ele>
        <time>2024-07-12T11:22:05.821Z</time>
      </trkpt>
      <trkpt lat="53.20492" lon="7.83327">
        <ele>44.128423</ele>
        <time>2024-07-12T11:22:08.813Z</time>
      </trkpt>
      <trkpt lat="53.20488" lon="7.83341">
        <ele>44.138559</ele>
        <time>2024-07-12T11:22:10.837Z</time>
      </trkpt>
      <trkpt lat="53.20483" lon="7.83353">
        <ele>44.148364</ele>
        <time>2024-07-12T11:22:12.840Z</time>
      </trkpt>
      <trkpt lat="53.20478" lon="7.83367">
        <ele>44.158148</ele>
        <time>2024-07-12T11:22:14.830Z</time>
      </trkpt>
      <trkpt lat="53.20472" lon="7.83386">
        <ele>44.172248</ele>
        <time>2024-07-12T11:22:17.844Z</time>
      </trkpt>
      <trkpt lat="53.20465" lon="7.83405">
        <ele>44.186617</ele>
        <time>2024-07-12T11:22:20.842Z</time>
      </trkpt>
      <trkpt lat="53.2046" lon="7.83417">
        <ele>44.196484</ele>
        <time>2024-07-12T11:22:22.840Z</time>
      </trkpt>
      <trkpt lat="53.20453" lon="7.83436">
        <ele>44.211134</ele>
        <time>2024-07-12T11:22:25.835Z</time>
      </trkpt>
      <trkpt lat="53.20446" lon="7.83455">
        <ele>44.228953</ele>
        <time>2024-07-12T11:22:28.845Z</time>
      </trkpt>
      <trkpt lat="53.20441" lon="7.83473">
        <ele>44.250743</ele>
        <time>2024-07-12T11:22:31.833Z</time>
      </trkpt>
      <trkpt lat="53.20435" lon="7.83491">
        <ele>44.273032</ele>
        <time>2024-07-12T11:22:34.843Z</time>
      </trkpt>
      <trkpt lat="53.20428" lon="7.83509">
        <ele>44.29593</ele>
        <time>2024-07-12T11:22:37.818Z</time>
      </trkpt>
      <trkpt lat="53.20422" lon="7.83526">
        <ele>44.318289</ele>
        <time>2024-07-12T11:22:40.828Z</time>
      </trkpt>
      <trkpt lat="53.20415" lon="7.83542">
        <ele>44.339483</ele>
        <time>2024-07-12T11:22:43.833Z</time>
      </trkpt>
      <trkpt lat="53.20407" lon="7.83561">
        <ele>44.363981</ele>
        <time>2024-07-12T11:22:46.850Z</time>
      </trkpt>
      <trkpt lat="53.20404" lon="7.83576">
        <ele>44.381315</ele>
        <time>2024-07-12T11:22:48.801Z</time>
      </trkpt>
      <trkpt lat="53.20397" lon="7.83595">
        <ele>44.405804</ele>
        <time>2024-07-12T11:22:51.846Z</time>
      </trkpt>
      <trkpt lat="53.20391" lon="7.83614">
        <ele>44.428904</ele>
        <time>2024-07-12T11:22:54.828Z</time>
      </trkpt>
      <trkpt lat="53.20387" lon="7.83627">
        <ele>44.445266</ele>
        <time>2024-07-12T11:22:56.846Z</time>
      </trkpt>
      <trkpt lat="53.20382" lon="7.8364">
        <ele>44.462103</ele>
        <time>2024-07-12T11:22:58.833Z</time>
      </trkpt>
      <trkpt lat="53.20377" lon="7.83653">
        <ele>44.47902</ele>
        <time>2024-07-12T11:23:00.843Z</time>
      </trkpt>
      <trkpt lat="53.20372" lon="7.83667">
        <ele>44.497057</ele>
        <time>2024-07-12T11:23:02.816Z</time>
      </trkpt>
      <trkpt lat="53.20367" lon="7.83681">
        <ele>44.514067</ele>
        <time>2024-07-12T11:23:04.835Z</time>
      </trkpt>
      <trkpt lat="53.20362" lon="7.83695">
        <ele>44.532123</ele>
        <time>2024-07-12T11:23:06.836Z</time>
      </trkpt>
      <trkpt lat="53.20356" lon="7.83715">
        <ele>44.549072</ele>
        <time>2024-07-12T11:23:09.824Z</time>
      </trkpt>
      <trkpt lat="53.20351" lon="7.83729">
        <ele>44.553072</ele>
        <time>2024-07-12T11:23:11.830Z</time>
      </trkpt>
      <trkpt lat="53.20346" lon="7.83742">
        <ele>44.556882</ele>
        <time>2024-07-12T11:23:13.849Z</time>
      </trkpt>
      <trkpt lat="53.2034" lon="7.83762">
        <ele>44.562403</ele>
        <time>2024-07-12T11:23:16.854Z</time>
      </trkpt>
      <trkpt lat="53.20335" lon="7.83775">
        <ele>44.566295</ele>
        <time>2024-07-12T11:23:18.837Z</time>
      </trkpt>
      <trkpt lat="53.20332" lon="7.83789">
        <ele>44.570076</ele>
        <time>2024-07-12T11:23:20.848Z</time>
      </trkpt>
      <trkpt lat="53.20328" lon="7.83804">
        <ele>44.574082</ele>
        <time>2024-07-12T11:23:22.829Z</time>
      </trkpt>
      <trkpt lat="53.20324" lon="7.83819">
        <ele>44.578111</ele>
        <time>2024-07-12T11:23:24.833Z</time>
      </trkpt>
      <trkpt lat="53.20321" lon="7.83834">
        <ele>44.5821</ele>
        <time>2024-07-12T11:23:26.833Z</time>
      </trkpt>
      <trkpt lat="53.20317" lon="7.83848">
        <ele>44.585995</ele>
        <time>2024-07-12T11:23:28.829Z</time>
      </trkpt>
      <trkpt lat="53.20314" lon="7.83863">
        <ele>44.590068</ele>
        <time>2024-07-12T11:23:30.840Z</time>
      </trkpt>
      <trkpt lat="53.2031" lon="7.83878">
        <ele>44.594195</ele>
        <time>2024-07-12T11:23:32.816Z</time>
      </trkpt>
      <trkpt lat="53.20306" lon="7.83893">
        <ele>44.59809</ele>
        <time>2024-07-12T11:23:34.845Z</time>
      </trkpt>
      <trkpt lat="53.20303" lon="7.83907">
        <ele>44.601848</ele>
        <time>2024-07-12T11:23:36.846Z</time>
      </trkpt>
      <trkpt lat="53.20298" lon="7.83927">
        <ele>44.607333</ele>
        <time>2024-07-12T11:23:39.846Z</time>
      </trkpt>
      <trkpt lat="53.20292" lon="7.83947">
        <ele>44.612805</ele>
        <time>2024-07-12T11:23:42.849Z</time>
      </trkpt>
      <trkpt lat="53.20288" lon="7.83969">
        <ele>44.618468</ele>
        <time>2024-07-12T11:23:45.829Z</time>
      </trkpt>
      <trkpt lat="53.20282" lon="7.83989">
        <ele>44.578564</ele>
        <time>2024-07-12T11:23:48.848Z</time>
      </trkpt>
      <trkpt lat="53.20276" lon="7.8401">
        <ele>44.474223</ele>
        <time>2024-07-12T11:23:51.825Z</time>
      </trkpt>
      <trkpt lat="53.20273" lon="7.84024">
        <ele>44.405307</ele>
        <time>2024-07-12T11:23:53.828Z</time>
      </trkpt>
      <trkpt lat="53.20269" lon="7.84038">
        <ele>44.33606</ele>
        <time>2024-07-12T11:23:55.835Z</time>
      </trkpt>
      <trkpt lat="53.20264" lon="7.84058">
        <ele>44.236699</ele>
        <time>2024-07-12T11:23:58.824Z</time>
      </trkpt>
      <trkpt lat="53.20259" lon="7.84076">
        <ele>44.143419</ele>
        <time>2024-07-12T11:24:01.849Z</time>
      </trkpt>
      <trkpt lat="53.20254" lon="7.84095">
        <ele>44.048108</ele>
        <time>2024-07-12T11:24:04.833Z</time>
      </trkpt>
      <trkpt lat="53.20248" lon="7.84114">
        <ele>43.954567</ele>
        <time>2024-07-12T11:24:07.833Z</time>
      </trkpt>
      <trkpt lat="53.20242" lon="7.84133">
        <ele>43.854765</ele>
        <time>2024-07-12T11:24:10.839Z</time>
      </trkpt>
      <trkpt lat="53.20237" lon="7.84147">
        <ele>43.780945</ele>
        <time>2024-07-12T11:24:12.844Z</time>
      </trkpt>
      <trkpt lat="53.20232" lon="7.84162">
        <ele>43.702438</ele>
        <time>2024-07-12T11:24:14.843Z</time>
      </trkpt>
      <trkpt lat="53.20229" lon="7.8418">
        <ele>43.61957</ele>
        <time>2024-07-12T11:24:16.818Z</time>
      </trkpt>
      <trkpt lat="53.20226" lon="7.84195">
        <ele>43.544502</ele>
        <time>2024-07-12T11:24:18.868Z</time>
      </trkpt>
      <trkpt lat="53.20222" lon="7.8421">
        <ele>43.472556</ele>
        <time>2024-07-12T11:24:20.843Z</time>
      </trkpt>
      <trkpt lat="53.20217" lon="7.84226">
        <ele>43.390747</ele>
        <time>2024-07-12T11:24:22.816Z</time>
      </trkpt>
      <trkpt lat="53.20213" lon="7.84241">
        <ele>43.312154</ele>
        <time>2024-07-12T11:24:24.832Z</time>
      </trkpt>
      <trkpt lat="53.20208" lon="7.84258">
        <ele>43.272392</ele>
        <time>2024-07-12T11:24:26.836Z</time>
      </trkpt>
      <trkpt lat="53.20204" lon="7.84275">
        <ele>43.324192</ele>
        <time>2024-07-12T11:24:28.847Z</time>
      </trkpt>
      <trkpt lat="53.202" lon="7.84291">
        <ele>43.375697</ele>
        <time>2024-07-12T11:24:30.805Z</time>
      </trkpt>
      <trkpt lat="53.20195" lon="7.84306">
        <ele>43.424132</ele>
        <time>2024-07-12T11:24:32.806Z</time>
      </trkpt>
      <trkpt lat="53.20192" lon="7.84322">
        <ele>43.472511</ele>
        <time>2024-07-12T11:24:34.828Z</time>
      </trkpt>
      <trkpt lat="53.20188" lon="7.84337">
        <ele>43.52108</ele>
        <time>2024-07-12T11:24:36.827Z</time>
      </trkpt>
      <trkpt lat="53.20183" lon="7.84352">
        <ele>43.569667</ele>
        <time>2024-07-12T11:24:38.833Z</time>
      </trkpt>
      <trkpt lat="53.20179" lon="7.84367">
        <ele>43.617784</ele>
        <time>2024-07-12T11:24:40.812Z</time>
      </trkpt>
      <trkpt lat="53.20175" lon="7.84382">
        <ele>43.665229</ele>
        <time>2024-07-12T11:24:42.813Z</time>
      </trkpt>
      <trkpt lat="53.20171" lon="7.84397">
        <ele>43.713402</ele>
        <time>2024-07-12T11:24:44.823Z</time>
      </trkpt>
      <trkpt lat="53.20166" lon="7.84413">
        <ele>43.763757</ele>
        <time>2024-07-12T11:24:46.829Z</time>
      </trkpt>
      <trkpt lat="53.20162" lon="7.84429">
        <ele>43.81252</ele>
        <time>2024-07-12T11:24:48.837Z</time>
      </trkpt>
      <trkpt lat="53.20158" lon="7.84444">
        <ele>43.860101</ele>
        <time>2024-07-12T11:24:50.819Z</time>
      </trkpt>
      <trkpt lat="53.20155" lon="7.84458">
        <ele>43.905566</ele>
        <time>2024-07-12T11:24:52.811Z</time>
      </trkpt>
      <trkpt lat="53.2015" lon="7.84473">
        <ele>43.954527</ele>
        <time>2024-07-12T11:24:54.837Z</time>
      </trkpt>
      <trkpt lat="53.20146" lon="7.84489">
        <ele>44.003489</ele>
        <time>2024-07-12T11:24:56.849Z</time>
      </trkpt>
      <trkpt lat="53.20141" lon="7.84504">
        <ele>44.052215</ele>
        <time>2024-07-12T11:24:58.830Z</time>
      </trkpt>
      <trkpt lat="53.20137" lon="7.84519">
        <ele>44.09999</ele>
        <time>2024-07-12T11:25:00.847Z</time>
      </trkpt>
      <trkpt lat="53.20134" lon="7.84534">
        <ele>44.124159</ele>
        <time>2024-07-12T11:25:02.816Z</time>
      </trkpt>
      <trkpt lat="53.2013" lon="7.84549">
        <ele>44.125525</ele>
        <time>2024-07-12T11:25:04.848Z</time>
      </trkpt>
      <trkpt lat="53.20127" lon="7.84564">
        <ele>44.126919</ele>
        <time>2024-07-12T11:25:06.829Z</time>
      </trkpt>
      <trkpt lat="53.20124" lon="7.8458">
        <ele>44.128358</ele>
        <time>2024-07-12T11:25:08.829Z</time>
      </trkpt>
      <trkpt lat="53.20122" lon="7.84596">
        <ele>44.12978</ele>
        <time>2024-07-12T11:25:10.824Z</time>
      </trkpt>
      <trkpt lat="53.20119" lon="7.84612">
        <ele>44.131155</ele>
        <time>2024-07-12T11:25:12.827Z</time>
      </trkpt>
      <trkpt lat="53.20117" lon="7.84627">
        <ele>44.132469</ele>
        <time>2024-07-12T11:25:14.830Z</time>
      </trkpt>
      <trkpt lat="53.20116" lon="7.84642">
        <ele>44.133792</ele>
        <time>2024-07-12T11:25:16.845Z</time>
      </trkpt>
      <trkpt lat="53.20114" lon="7.84657">
        <ele>44.135083</ele>
        <time>2024-07-12T11:25:18.844Z</time>
      </trkpt>
      <trkpt lat="53.20113" lon="7.84672">
        <ele>44.136373</ele>
        <time>2024-07-12T11:25:20.836Z</time>
      </trkpt>
      <trkpt lat="53.20113" lon="7.84688">
        <ele>44.137718</ele>
        <time>2024-07-12T11:25:22.832Z</time>
      </trkpt>
      <trkpt lat="53.20112" lon="7.84704">
        <ele>44.13909</ele>
        <time>2024-07-12T11:25:24.830Z</time>
      </trkpt>
      <trkpt lat="53.20111" lon="7.84719">
        <ele>44.140407</ele>
        <time>2024-07-12T11:25:26.821Z</time>
      </trkpt>
      <trkpt lat="53.20111" lon="7.84735">
        <ele>44.141765</ele>
        <time>2024-07-12T11:25:28.835Z</time>
      </trkpt>
      <trkpt lat="53.20111" lon="7.8475">
        <ele>44.143054</ele>
        <time>2024-07-12T11:25:30.846Z</time>
      </trkpt>
      <trkpt lat="53.20111" lon="7.84765">
        <ele>44.144344</ele>
        <time>2024-07-12T11:25:32.817Z</time>
      </trkpt>
      <trkpt lat="53.20111" lon="7.84781">
        <ele>44.145659</ele>
        <time>2024-07-12T11:25:34.832Z</time>
      </trkpt>
      <trkpt lat="53.20112" lon="7.84797">
        <ele>44.147031</ele>
        <time>2024-07-12T11:25:36.833Z</time>
      </trkpt>
      <trkpt lat="53.20114" lon="7.84812">
        <ele>44.148361</ele>
        <time>2024-07-12T11:25:38.828Z</time>
      </trkpt>
      <trkpt lat="53.20115" lon="7.84828">
        <ele>44.138482</ele>
        <time>2024-07-12T11:25:40.833Z</time>
      </trkpt>
      <trkpt lat="53.20117" lon="7.84843">
        <ele>44.115159</ele>
        <time>2024-07-12T11:25:42.826Z</time>
      </trkpt>
      <trkpt lat="53.20119" lon="7.84858">
        <ele>44.092041</ele>
        <time>2024-07-12T11:25:44.835Z</time>
      </trkpt>
      <trkpt lat="53.20121" lon="7.84872">
        <ele>44.068487</ele>
        <time>2024-07-12T11:25:46.827Z</time>
      </trkpt>
      <trkpt lat="53.20124" lon="7.84888">
        <ele>44.044364</ele>
        <time>2024-07-12T11:25:48.834Z</time>
      </trkpt>
      <trkpt lat="53.20126" lon="7.84903">
        <ele>44.020166</ele>
        <time>2024-07-12T11:25:50.837Z</time>
      </trkpt>
      <trkpt lat="53.20129" lon="7.84918">
        <ele>43.995527</ele>
        <time>2024-07-12T11:25:52.818Z</time>
      </trkpt>
      <trkpt lat="53.2013" lon="7.8494">
        <ele>43.961298</ele>
        <time>2024-07-12T11:25:55.826Z</time>
      </trkpt>
      <trkpt lat="53.20133" lon="7.84956">
        <ele>43.937021</ele>
        <time>2024-07-12T11:25:57.832Z</time>
      </trkpt>
      <trkpt lat="53.20136" lon="7.8497">
        <ele>43.913366</ele>
        <time>2024-07-12T11:25:59.831Z</time>
      </trkpt>
      <trkpt lat="53.2014" lon="7.84985">
        <ele>43.889719</ele>
        <time>2024-07-12T11:26:01.843Z</time>
      </trkpt>
      <trkpt lat="53.20143" lon="7.84999">
        <ele>43.866116</ele>
        <time>2024-07-12T11:26:03.834Z</time>
      </trkpt>
      <trkpt lat="53.20147" lon="7.85013">
        <ele>43.842752</ele>
        <time>2024-07-12T11:26:05.832Z</time>
      </trkpt>
      <trkpt lat="53.2015" lon="7.85027">
        <ele>43.81957</ele>
        <time>2024-07-12T11:26:07.825Z</time>
      </trkpt>
      <trkpt lat="53.20155" lon="7.85047">
        <ele>43.785592</ele>
        <time>2024-07-12T11:26:10.816Z</time>
      </trkpt>
      <trkpt lat="53.20158" lon="7.85062">
        <ele>43.762569</ele>
        <time>2024-07-12T11:26:12.830Z</time>
      </trkpt>
      <trkpt lat="53.20163" lon="7.85082">
        <ele>43.728184</ele>
        <time>2024-07-12T11:26:15.825Z</time>
      </trkpt>
      <trkpt lat="53.20168" lon="7.85103">
        <ele>43.694634</ele>
        <time>2024-07-12T11:26:18.827Z</time>
      </trkpt>
      <trkpt lat="53.20173" lon="7.85124">
        <ele>43.649896</ele>
        <time>2024-07-12T11:26:21.833Z</time>
      </trkpt>
      <trkpt lat="53.20176" lon="7.85138">
        <ele>43.618123</ele>
        <time>2024-07-12T11:26:23.825Z</time>
      </trkpt>
      <trkpt lat="53.20179" lon="7.85152">
        <ele>43.586833</ele>
        <time>2024-07-12T11:26:25.814Z</time>
      </trkpt>
      <trkpt lat="53.20182" lon="7.85167">
        <ele>43.555655</ele>
        <time>2024-07-12T11:26:27.833Z</time>
      </trkpt>
      <trkpt lat="53.20186" lon="7.85181">
        <ele>43.523497</ele>
        <time>2024-07-12T11:26:29.831Z</time>
      </trkpt>
      <trkpt lat="53.20189" lon="7.85196">
        <ele>43.490892</ele>
        <time>2024-07-12T11:26:31.821Z</time>
      </trkpt>
      <trkpt lat="53.20193" lon="7.85211">
        <ele>43.457384</ele>
        <time>2024-07-12T11:26:33.825Z</time>
      </trkpt>
      <trkpt lat="53.20196" lon="7.85226">
        <ele>43.424717</ele>
        <time>2024-07-12T11:26:35.834Z</time>
      </trkpt>
      <trkpt lat="53.202" lon="7.8524">
        <ele>43.392049</ele>
        <time>2024-07-12T11:26:37.818Z</time>
      </trkpt>
      <trkpt lat="53.20203" lon="7.85255">
        <ele>43.359436</ele>
        <time>2024-07-12T11:26:39.816Z</time>
      </trkpt>
      <trkpt lat="53.20206" lon="7.8527">
        <ele>43.326894</ele>
        <time>2024-07-12T11:26:41.819Z</time>
      </trkpt>
      <trkpt lat="53.20209" lon="7.85285">
        <ele>43.294206</ele>
        <time>2024-07-12T11:26:43.829Z</time>
      </trkpt>
      <trkpt lat="53.20213" lon="7.853">
        <ele>43.259682</ele>
        <time>2024-07-12T11:26:45.834Z</time>
      </trkpt>
      <trkpt lat="53.20217" lon="7.85314">
        <ele>43.228353</ele>
        <time>2024-07-12T11:26:47.839Z</time>
      </trkpt>
      <trkpt lat="53.2022" lon="7.85329">
        <ele>43.196635</ele>
        <time>2024-07-12T11:26:49.824Z</time>
      </trkpt>
      <trkpt lat="53.20223" lon="7.85343">
        <ele>43.164411</ele>
        <time>2024-07-12T11:26:51.835Z</time>
      </trkpt>
      <trkpt lat="53.20227" lon="7.85358">
        <ele>43.131359</ele>
        <time>2024-07-12T11:26:53.841Z</time>
      </trkpt>
      <trkpt lat="53.2023" lon="7.85373">
        <ele>43.098505</ele>
        <time>2024-07-12T11:26:55.833Z</time>
      </trkpt>
      <trkpt lat="53.20233" lon="7.85388">
        <ele>43.073532</ele>
        <time>2024-07-12T11:26:57.827Z</time>
      </trkpt>
      <trkpt lat="53.20236" lon="7.85404">
        <ele>43.116026</ele>
        <time>2024-07-12T11:26:59.850Z</time>
      </trkpt>
      <trkpt lat="53.20239" lon="7.85419">
        <ele>43.153648</ele>
        <time>2024-07-12T11:27:01.836Z</time>
      </trkpt>
      <trkpt lat="53.20242" lon="7.85433">
        <ele>43.192112</ele>
        <time>2024-07-12T11:27:03.846Z</time>
      </trkpt>
      <trkpt lat="53.20246" lon="7.85454">
        <ele>43.247789</ele>
        <time>2024-07-12T11:27:06.833Z</time>
      </trkpt>
      <trkpt lat="53.20251" lon="7.85475">
        <ele>43.303197</ele>
        <time>2024-07-12T11:27:09.826Z</time>
      </trkpt>
      <trkpt lat="53.20254" lon="7.85497">
        <ele>43.358264</ele>
        <time>2024-07-12T11:27:12.816Z</time>
      </trkpt>
      <trkpt lat="53.20256" lon="7.85512">
        <ele>43.396506</ele>
        <time>2024-07-12T11:27:14.817Z</time>
      </trkpt>
      <trkpt lat="53.20258" lon="7.85527">
        <ele>43.435387</ele>
        <time>2024-07-12T11:27:16.801Z</time>
      </trkpt>
      <trkpt lat="53.2026" lon="7.85543">
        <ele>43.475474</ele>
        <time>2024-07-12T11:27:18.825Z</time>
      </trkpt>
      <trkpt lat="53.20263" lon="7.85565">
        <ele>43.532233</ele>
        <time>2024-07-12T11:27:21.828Z</time>
      </trkpt>
      <trkpt lat="53.20265" lon="7.8558">
        <ele>43.57062</ele>
        <time>2024-07-12T11:27:23.821Z</time>
      </trkpt>
      <trkpt lat="53.20267" lon="7.85595">
        <ele>43.609569</ele>
        <time>2024-07-12T11:27:25.832Z</time>
      </trkpt>
      <trkpt lat="53.20268" lon="7.85611">
        <ele>43.648942</ele>
        <time>2024-07-12T11:27:27.816Z</time>
      </trkpt>
      <trkpt lat="53.2027" lon="7.85627">
        <ele>43.689236</ele>
        <time>2024-07-12T11:27:29.822Z</time>
      </trkpt>
      <trkpt lat="53.20271" lon="7.85643">
        <ele>43.729101</ele>
        <time>2024-07-12T11:27:31.828Z</time>
      </trkpt>
      <trkpt lat="53.20272" lon="7.85659">
        <ele>43.770573</ele>
        <time>2024-07-12T11:27:33.818Z</time>
      </trkpt>
      <trkpt lat="53.20274" lon="7.85675">
        <ele>43.811056</ele>
        <time>2024-07-12T11:27:35.833Z</time>
      </trkpt>
      <trkpt lat="53.20277" lon="7.85697">
        <ele>43.783807</ele>
        <time>2024-07-12T11:27:38.839Z</time>
      </trkpt>
      <trkpt lat="53.20279" lon="7.85713">
        <ele>43.756818</ele>
        <time>2024-07-12T11:27:40.846Z</time>
      </trkpt>
      <trkpt lat="53.2028" lon="7.85728">
        <ele>43.730429</ele>
        <time>2024-07-12T11:27:42.807Z</time>
      </trkpt>
      <trkpt lat="53.20283" lon="7.85751">
        <ele>43.691425</ele>
        <time>2024-07-12T11:27:45.833Z</time>
      </trkpt>
      <trkpt lat="53.20284" lon="7.85766">
        <ele>43.664485</ele>
        <time>2024-07-12T11:27:47.861Z</time>
      </trkpt>
      <trkpt lat="53.20286" lon="7.85782">
        <ele>43.636497</ele>
        <time>2024-07-12T11:27:49.831Z</time>
      </trkpt>
      <trkpt lat="53.20288" lon="7.85799">
        <ele>43.607785</ele>
        <time>2024-07-12T11:27:51.829Z</time>
      </trkpt>
      <trkpt lat="53.2029" lon="7.85814">
        <ele>43.581854</ele>
        <time>2024-07-12T11:27:53.846Z</time>
      </trkpt>
      <trkpt lat="53.20292" lon="7.85829">
        <ele>43.555969</ele>
        <time>2024-07-12T11:27:55.829Z</time>
      </trkpt>
      <trkpt lat="53.20294" lon="7.85844">
        <ele>43.529094</ele>
        <time>2024-07-12T11:27:57.829Z</time>
      </trkpt>
      <trkpt lat="53.20295" lon="7.85861">
        <ele>43.500547</ele>
        <time>2024-07-12T11:27:59.815Z</time>
      </trkpt>
      <trkpt lat="53.20297" lon="7.85877">
        <ele>43.4731</ele>
        <time>2024-07-12T11:28:01.842Z</time>
      </trkpt>
      <trkpt lat="53.20299" lon="7.85893">
        <ele>43.445158</ele>
        <time>2024-07-12T11:28:03.829Z</time>
      </trkpt>
      <trkpt lat="53.20301" lon="7.85909">
        <ele>43.417393</ele>
        <time>2024-07-12T11:28:05.835Z</time>
      </trkpt>
      <trkpt lat="53.20303" lon="7.85925">
        <ele>43.389406</ele>
        <time>2024-07-12T11:28:07.826Z</time>
      </trkpt>
      <trkpt lat="53.20305" lon="7.85947">
        <ele>43.350847</ele>
        <time>2024-07-12T11:28:10.842Z</time>
      </trkpt>
      <trkpt lat="53.20307" lon="7.85964">
        <ele>43.321373</ele>
        <time>2024-07-12T11:28:12.828Z</time>
      </trkpt>
      <trkpt lat="53.20309" lon="7.8598">
        <ele>43.324351</ele>
        <time>2024-07-12T11:28:14.834Z</time>
      </trkpt>
      <trkpt lat="53.20311" lon="7.86002">
        <ele>43.37874</ele>
        <time>2024-07-12T11:28:17.850Z</time>
      </trkpt>
      <trkpt lat="53.20312" lon="7.86023">
        <ele>43.429089</ele>
        <time>2024-07-12T11:28:20.838Z</time>
      </trkpt>
      <trkpt lat="53.20314" lon="7.86045">
        <ele>43.483994</ele>
        <time>2024-07-12T11:28:23.828Z</time>
      </trkpt>
      <trkpt lat="53.20316" lon="7.8606">
        <ele>43.521022</ele>
        <time>2024-07-12T11:28:25.846Z</time>
      </trkpt>
      <trkpt lat="53.20318" lon="7.86081">
        <ele>43.57165</ele>
        <time>2024-07-12T11:28:28.849Z</time>
      </trkpt>
      <trkpt lat="53.20322" lon="7.86095">
        <ele>43.608879</ele>
        <time>2024-07-12T11:28:30.841Z</time>
      </trkpt>
      <trkpt lat="53.20324" lon="7.86111">
        <ele>43.648941</ele>
        <time>2024-07-12T11:28:32.824Z</time>
      </trkpt>
      <trkpt lat="53.20326" lon="7.86127">
        <ele>43.687331</ele>
        <time>2024-07-12T11:28:34.846Z</time>
      </trkpt>
      <trkpt lat="53.20327" lon="7.86145">
        <ele>43.73014</ele>
        <time>2024-07-12T11:28:36.817Z</time>
      </trkpt>
      <trkpt lat="53.20329" lon="7.86161">
        <ele>43.77166</ele>
        <time>2024-07-12T11:28:38.844Z</time>
      </trkpt>
      <trkpt lat="53.20331" lon="7.86178">
        <ele>43.812436</ele>
        <time>2024-07-12T11:28:40.834Z</time>
      </trkpt>
      <trkpt lat="53.20333" lon="7.86195">
        <ele>43.853719</ele>
        <time>2024-07-12T11:28:42.815Z</time>
      </trkpt>
      <trkpt lat="53.20334" lon="7.86211">
        <ele>43.893741</ele>
        <time>2024-07-12T11:28:44.837Z</time>
      </trkpt>
      <trkpt lat="53.20336" lon="7.86227">
        <ele>43.932969</ele>
        <time>2024-07-12T11:28:46.854Z</time>
      </trkpt>
      <trkpt lat="53.20337" lon="7.86244">
        <ele>43.972551</ele>
        <time>2024-07-12T11:28:48.850Z</time>
      </trkpt>
      <trkpt lat="53.20338" lon="7.8626">
        <ele>44.011967</ele>
        <time>2024-07-12T11:28:50.837Z</time>
      </trkpt>
      <trkpt lat="53.2034" lon="7.86275">
        <ele>44.043345</ele>
        <time>2024-07-12T11:28:52.837Z</time>
      </trkpt>
      <trkpt lat="53.20341" lon="7.86291">
        <ele>44.070173</ele>
        <time>2024-07-12T11:28:54.857Z</time>
      </trkpt>
      <trkpt lat="53.20342" lon="7.86306">
        <ele>44.096339</ele>
        <time>2024-07-12T11:28:56.849Z</time>
      </trkpt>
      <trkpt lat="53.20343" lon="7.86322">
        <ele>44.12168</ele>
        <time>2024-07-12T11:28:58.847Z</time>
      </trkpt>
      <trkpt lat="53.20344" lon="7.86337">
        <ele>44.147268</ele>
        <time>2024-07-12T11:29:00.847Z</time>
      </trkpt>
      <trkpt lat="53.20344" lon="7.86352">
        <ele>44.172524</ele>
        <time>2024-07-12T11:29:02.809Z</time>
      </trkpt>
      <trkpt lat="53.20345" lon="7.86368">
        <ele>44.197962</ele>
        <time>2024-07-12T11:29:04.847Z</time>
      </trkpt>
      <trkpt lat="53.20345" lon="7.86383">
        <ele>44.222855</ele>
        <time>2024-07-12T11:29:06.848Z</time>
      </trkpt>
      <trkpt lat="53.20345" lon="7.86404">
        <ele>44.258535</ele>
        <time>2024-07-12T11:29:09.837Z</time>
      </trkpt>
      <trkpt lat="53.20345" lon="7.86425">
        <ele>44.293712</ele>
        <time>2024-07-12T11:29:12.815Z</time>
      </trkpt>
      <trkpt lat="53.20345" lon="7.86446">
        <ele>44.328884</ele>
        <time>2024-07-12T11:29:15.828Z</time>
      </trkpt>
      <trkpt lat="53.20345" lon="7.86467">
        <ele>44.36273</ele>
        <time>2024-07-12T11:29:18.851Z</time>
      </trkpt>
      <trkpt lat="53.20345" lon="7.86482">
        <ele>44.388617</ele>
        <time>2024-07-12T11:29:20.846Z</time>
      </trkpt>
      <trkpt lat="53.20344" lon="7.86498">
        <ele>44.414454</ele>
        <time>2024-07-12T11:29:22.832Z</time>
      </trkpt>
      <trkpt lat="53.20344" lon="7.86513">
        <ele>44.440028</ele>
        <time>2024-07-12T11:29:24.829Z</time>
      </trkpt>
      <trkpt lat="53.20343" lon="7.8653">
        <ele>44.46702</ele>
        <time>2024-07-12T11:29:26.845Z</time>
      </trkpt>
      <trkpt lat="53.20342" lon="7.86545">
        <ele>44.492857</ele>
        <time>2024-07-12T11:29:28.833Z</time>
      </trkpt>
      <trkpt lat="53.20342" lon="7.8656">
        <ele>44.518254</ele>
        <time>2024-07-12T11:29:30.841Z</time>
      </trkpt>
      <trkpt lat="53.20341" lon="7.86576">
        <ele>44.571201</ele>
        <time>2024-07-12T11:29:32.839Z</time>
      </trkpt>
      <trkpt lat="53.20339" lon="7.86598">
        <ele>44.678885</ele>
        <time>2024-07-12T11:29:35.830Z</time>
      </trkpt>
      <trkpt lat="53.20337" lon="7.86618">
        <ele>44.781264</ele>
        <time>2024-07-12T11:29:38.835Z</time>
      </trkpt>
      <trkpt lat="53.20333" lon="7.86638">
        <ele>44.88139</ele>
        <time>2024-07-12T11:29:41.822Z</time>
      </trkpt>
      <trkpt lat="53.2033" lon="7.86658">
        <ele>44.982423</ele>
        <time>2024-07-12T11:29:44.823Z</time>
      </trkpt>
      <trkpt lat="53.20327" lon="7.86678">
        <ele>45.087362</ele>
        <time>2024-07-12T11:29:47.823Z</time>
      </trkpt>
      <trkpt lat="53.20324" lon="7.86693">
        <ele>45.161975</ele>
        <time>2024-07-12T11:29:49.834Z</time>
      </trkpt>
      <trkpt lat="53.20322" lon="7.86708">
        <ele>45.235484</ele>
        <time>2024-07-12T11:29:51.822Z</time>
      </trkpt>
      <trkpt lat="53.2032" lon="7.86722">
        <ele>45.309669</ele>
        <time>2024-07-12T11:29:53.829Z</time>
      </trkpt>
      <trkpt lat="53.20316" lon="7.86744">
        <ele>45.418245</ele>
        <time>2024-07-12T11:29:56.835Z</time>
      </trkpt>
      <trkpt lat="53.20313" lon="7.86765">
        <ele>45.527032</ele>
        <time>2024-07-12T11:29:59.816Z</time>
      </trkpt>
      <trkpt lat="53.20309" lon="7.86786">
        <ele>45.63401</ele>
        <time>2024-07-12T11:30:02.819Z</time>
      </trkpt>
      <trkpt lat="53.20304" lon="7.86807">
        <ele>45.739879</ele>
        <time>2024-07-12T11:30:05.830Z</time>
      </trkpt>
      <trkpt lat="53.203" lon="7.86828">
        <ele>45.848166</ele>
        <time>2024-07-12T11:30:08.842Z</time>
      </trkpt>
      <trkpt lat="53.20296" lon="7.86848">
        <ele>45.952769</ele>
        <time>2024-07-12T11:30:11.830Z</time>
      </trkpt>
      <trkpt lat="53.20293" lon="7.86868">
        <ele>45.957557</ele>
        <time>2024-07-12T11:30:14.834Z</time>
      </trkpt>
      <trkpt lat="53.20288" lon="7.86887">
        <ele>45.891301</ele>
        <time>2024-07-12T11:30:17.841Z</time>
      </trkpt>
      <trkpt lat="53.20283" lon="7.86905">
        <ele>45.824386</ele>
        <time>2024-07-12T11:30:20.829Z</time>
      </trkpt>
      <trkpt lat="53.20278" lon="7.86924">
        <ele>45.754203</ele>
        <time>2024-07-12T11:30:23.835Z</time>
      </trkpt>
      <trkpt lat="53.20272" lon="7.86944">
        <ele>45.683187</ele>
        <time>2024-07-12T11:30:26.825Z</time>
      </trkpt>
      <trkpt lat="53.20267" lon="7.86958">
        <ele>45.630745</ele>
        <time>2024-07-12T11:30:28.844Z</time>
      </trkpt>
      <trkpt lat="53.20263" lon="7.86972">
        <ele>45.576733</ele>
        <time>2024-07-12T11:30:30.857Z</time>
      </trkpt>
      <trkpt lat="53.20258" lon="7.86986">
        <ele>45.525279</ele>
        <time>2024-07-12T11:30:32.809Z</time>
      </trkpt>
      <trkpt lat="53.20252" lon="7.87001">
        <ele>45.467076</ele>
        <time>2024-07-12T11:30:34.845Z</time>
      </trkpt>
      <trkpt lat="53.20247" lon="7.87017">
        <ele>45.40885</ele>
        <time>2024-07-12T11:30:36.829Z</time>
      </trkpt>
      <trkpt lat="53.20242" lon="7.87031">
        <ele>45.355125</ele>
        <time>2024-07-12T11:30:38.850Z</time>
      </trkpt>
      <trkpt lat="53.20238" lon="7.87046">
        <ele>45.300512</ele>
        <time>2024-07-12T11:30:40.837Z</time>
      </trkpt>
      <trkpt lat="53.20233" lon="7.87061">
        <ele>45.245351</ele>
        <time>2024-07-12T11:30:42.815Z</time>
      </trkpt>
      <trkpt lat="53.20228" lon="7.87076">
        <ele>45.189324</ele>
        <time>2024-07-12T11:30:44.851Z</time>
      </trkpt>
      <trkpt lat="53.20223" lon="7.87091">
        <ele>45.131402</ele>
        <time>2024-07-12T11:30:46.834Z</time>
      </trkpt>
      <trkpt lat="53.20218" lon="7.87106">
        <ele>45.075084</ele>
        <time>2024-07-12T11:30:48.831Z</time>
      </trkpt>
      <trkpt lat="53.20212" lon="7.87121">
        <ele>45.017445</ele>
        <time>2024-07-12T11:30:50.840Z</time>
      </trkpt>
      <trkpt lat="53.20207" lon="7.87136">
        <ele>45.057982</ele>
        <time>2024-07-12T11:30:52.816Z</time>
      </trkpt>
      <trkpt lat="53.20202" lon="7.87151">
        <ele>45.107057</ele>
        <time>2024-07-12T11:30:54.832Z</time>
      </trkpt>
      <trkpt lat="53.20197" lon="7.87165">
        <ele>45.156406</ele>
        <time>2024-07-12T11:30:56.837Z</time>
      </trkpt>
      <trkpt lat="53.20192" lon="7.87179">
        <ele>45.204985</ele>
        <time>2024-07-12T11:30:58.846Z</time>
      </trkpt>
      <trkpt lat="53.20187" lon="7.87193">
        <ele>45.253308</ele>
        <time>2024-07-12T11:31:00.842Z</time>
      </trkpt>
      <trkpt lat="53.20182" lon="7.87207">
        <ele>45.300622</ele>
        <time>2024-07-12T11:31:02.824Z</time>
      </trkpt>
      <trkpt lat="53.20177" lon="7.8722">
        <ele>45.346666</ele>
        <time>2024-07-12T11:31:04.844Z</time>
      </trkpt>
      <trkpt lat="53.20173" lon="7.87234">
        <ele>45.392222</ele>
        <time>2024-07-12T11:31:06.848Z</time>
      </trkpt>
      <trkpt lat="53.20168" lon="7.87248">
        <ele>45.440792</ele>
        <time>2024-07-12T11:31:08.828Z</time>
      </trkpt>
      <trkpt lat="53.2016" lon="7.87267">
        <ele>45.507153</ele>
        <time>2024-07-12T11:31:11.830Z</time>
      </trkpt>
      <trkpt lat="53.20155" lon="7.8728">
        <ele>45.553494</ele>
        <time>2024-07-12T11:31:13.828Z</time>
      </trkpt>
      <trkpt lat="53.20151" lon="7.87293">
        <ele>45.598917</ele>
        <time>2024-07-12T11:31:15.836Z</time>
      </trkpt>
      <trkpt lat="53.20148" lon="7.87308">
        <ele>45.644208</ele>
        <time>2024-07-12T11:31:17.817Z</time>
      </trkpt>
      <trkpt lat="53.20143" lon="7.87321">
        <ele>45.691262</ele>
        <time>2024-07-12T11:31:19.841Z</time>
      </trkpt>
      <trkpt lat="53.20138" lon="7.87335">
        <ele>45.736323</ele>
        <time>2024-07-12T11:31:21.838Z</time>
      </trkpt>
      <trkpt lat="53.20132" lon="7.87354">
        <ele>45.800443</ele>
        <time>2024-07-12T11:31:24.816Z</time>
      </trkpt>
      <trkpt lat="53.20126" lon="7.87371">
        <ele>45.85914</ele>
        <time>2024-07-12T11:31:27.826Z</time>
      </trkpt>
      <trkpt lat="53.20119" lon="7.87388">
        <ele>45.913066</ele>
        <time>2024-07-12T11:31:30.833Z</time>
      </trkpt>
      <trkpt lat="53.20113" lon="7.87405">
        <ele>45.957665</ele>
        <time>2024-07-12T11:31:33.838Z</time>
      </trkpt>
      <trkpt lat="53.20107" lon="7.87423">
        <ele>46.004277</ele>
        <time>2024-07-12T11:31:36.831Z</time>
      </trkpt>
      <trkpt lat="53.20101" lon="7.87442">
        <ele>46.051392</ele>
        <time>2024-07-12T11:31:39.835Z</time>
      </trkpt>
      <trkpt lat="53.20095" lon="7.87461">
        <ele>46.098546</ele>
        <time>2024-07-12T11:31:42.810Z</time>
      </trkpt>
      <trkpt lat="53.20089" lon="7.87479">
        <ele>46.144894</ele>
        <time>2024-07-12T11:31:45.838Z</time>
      </trkpt>
      <trkpt lat="53.20083" lon="7.87494">
        <ele>46.185922</ele>
        <time>2024-07-12T11:31:48.840Z</time>
      </trkpt>
      <trkpt lat="53.20075" lon="7.87509">
        <ele>46.230564</ele>
        <time>2024-07-12T11:31:51.850Z</time>
      </trkpt>
      <trkpt lat="53.20069" lon="7.87525">
        <ele>46.273439</ele>
        <time>2024-07-12T11:31:54.836Z</time>
      </trkpt>
      <trkpt lat="53.20064" lon="7.87546">
        <ele>46.32264</ele>
        <time>2024-07-12T11:31:57.846Z</time>
      </trkpt>
      <trkpt lat="53.20058" lon="7.87563">
        <ele>46.366677</ele>
        <time>2024-07-12T11:32:00.853Z</time>
      </trkpt>
      <trkpt lat="53.20054" lon="7.8758">
        <ele>46.408702</ele>
        <time>2024-07-12T11:32:03.837Z</time>
      </trkpt>
      <trkpt lat="53.20047" lon="7.87595">
        <ele>46.45014</ele>
        <time>2024-07-12T11:32:06.821Z</time>
      </trkpt>
      <trkpt lat="53.20041" lon="7.87611">
        <ele>46.492089</ele>
        <time>2024-07-12T11:32:09.831Z</time>
      </trkpt>
      <trkpt lat="53.20035" lon="7.87628">
        <ele>46.537273</ele>
        <time>2024-07-12T11:32:12.837Z</time>
      </trkpt>
      <trkpt lat="53.2003" lon="7.87645">
        <ele>46.554956</ele>
        <time>2024-07-12T11:32:15.833Z</time>
      </trkpt>
      <trkpt lat="53.20024" lon="7.87662">
        <ele>46.512709</ele>
        <time>2024-07-12T11:32:18.835Z</time>
      </trkpt>
      <trkpt lat="53.20018" lon="7.87679">
        <ele>46.469334</ele>
        <time>2024-07-12T11:32:21.845Z</time>
      </trkpt>
      <trkpt lat="53.20014" lon="7.87692">
        <ele>46.436092</ele>
        <time>2024-07-12T11:32:23.845Z</time>
      </trkpt>
      <trkpt lat="53.20007" lon="7.87711">
        <ele>46.388151</ele>
        <time>2024-07-12T11:32:26.837Z</time>
      </trkpt>
      <trkpt lat="53.20001" lon="7.87724">
        <ele>46.353379</ele>
        <time>2024-07-12T11:32:28.836Z</time>
      </trkpt>
      <trkpt lat="53.19992" lon="7.87739">
        <ele>46.30426</ele>
        <time>2024-07-12T11:32:31.824Z</time>
      </trkpt>
      <trkpt lat="53.19985" lon="7.87749">
        <ele>46.270454</ele>
        <time>2024-07-12T11:32:33.831Z</time>
      </trkpt>
      <trkpt lat="53.19978" lon="7.87759">
        <ele>46.235939</ele>
        <time>2024-07-12T11:32:35.846Z</time>
      </trkpt>
      <trkpt lat="53.19971" lon="7.87769">
        <ele>46.201989</ele>
        <time>2024-07-12T11:32:37.839Z</time>
      </trkpt>
      <trkpt lat="53.19963" lon="7.87779">
        <ele>46.167869</ele>
        <time>2024-07-12T11:32:39.849Z</time>
      </trkpt>
      <trkpt lat="53.19956" lon="7.87788">
        <ele>46.133718</ele>
        <time>2024-07-12T11:32:41.849Z</time>
      </trkpt>
      <trkpt lat="53.19948" lon="7.87797">
        <ele>46.100419</ele>
        <time>2024-07-12T11:32:43.838Z</time>
      </trkpt>
      <trkpt lat="53.19937" lon="7.8781">
        <ele>46.051136</ele>
        <time>2024-07-12T11:32:46.834Z</time>
      </trkpt>
      <trkpt lat="53.19929" lon="7.87819">
        <ele>46.015406</ele>
        <time>2024-07-12T11:32:48.844Z</time>
      </trkpt>
      <trkpt lat="53.19917" lon="7.8783">
        <ele>45.966242</ele>
        <time>2024-07-12T11:32:51.840Z</time>
      </trkpt>
      <trkpt lat="53.19906" lon="7.87841">
        <ele>45.916643</ele>
        <time>2024-07-12T11:32:54.834Z</time>
      </trkpt>
      <trkpt lat="53.19894" lon="7.87851">
        <ele>45.883365</ele>
        <time>2024-07-12T11:32:57.851Z</time>
      </trkpt>
      <trkpt lat="53.19882" lon="7.87863">
        <ele>45.853387</ele>
        <time>2024-07-12T11:33:00.833Z</time>
      </trkpt>
      <trkpt lat="53.19874" lon="7.8787">
        <ele>45.833244</ele>
        <time>2024-07-12T11:33:02.826Z</time>
      </trkpt>
      <trkpt lat="53.19866" lon="7.87877">
        <ele>45.812335</ele>
        <time>2024-07-12T11:33:04.842Z</time>
      </trkpt>
      <trkpt lat="53.19855" lon="7.87889">
        <ele>45.784443</ele>
        <time>2024-07-12T11:33:07.835Z</time>
      </trkpt>
      <trkpt lat="53.19845" lon="7.879">
        <ele>45.757592</ele>
        <time>2024-07-12T11:33:10.822Z</time>
      </trkpt>
      <trkpt lat="53.19837" lon="7.87911">
        <ele>45.734442</ele>
        <time>2024-07-12T11:33:13.829Z</time>
      </trkpt>
      <trkpt lat="53.19833" lon="7.87924">
        <ele>45.714418</ele>
        <time>2024-07-12T11:33:16.844Z</time>
      </trkpt>
      <trkpt lat="53.19825" lon="7.87936">
        <ele>45.691688</ele>
        <time>2024-07-12T11:33:20.834Z</time>
      </trkpt>
      <trkpt lat="53.19813" lon="7.87935">
        <ele>45.666021</ele>
        <time>2024-07-12T11:33:25.829Z</time>
      </trkpt>
      <trkpt lat="53.19802" lon="7.87937">
        <ele>45.639899</ele>
        <time>2024-07-12T11:33:29.825Z</time>
      </trkpt>
      <trkpt lat="53.19793" lon="7.87947">
        <ele>45.617154</ele>
        <time>2024-07-12T11:33:32.834Z</time>
      </trkpt>
      <trkpt lat="53.19784" lon="7.87957">
        <ele>45.592608</ele>
        <time>2024-07-12T11:33:35.836Z</time>
      </trkpt>
      <trkpt lat="53.19776" lon="7.87968">
        <ele>45.569713</ele>
        <time>2024-07-12T11:33:38.840Z</time>
      </trkpt>
      <trkpt lat="53.19769" lon="7.87982">
        <ele>45.546624</ele>
        <time>2024-07-12T11:33:41.826Z</time>
      </trkpt>
      <trkpt lat="53.19764" lon="7.87997">
        <ele>45.523127</ele>
        <time>2024-07-12T11:33:44.840Z</time>
      </trkpt>
      <trkpt lat="53.19759" lon="7.88016">
        <ele>45.521355</ele>
        <time>2024-07-12T11:33:47.850Z</time>
      </trkpt>
      <trkpt lat="53.19753" lon="7.88033">
        <ele>45.542684</ele>
        <time>2024-07-12T11:33:50.843Z</time>
      </trkpt>
      <trkpt lat="53.19748" lon="7.88053">
        <ele>45.564982</ele>
        <time>2024-07-12T11:33:53.853Z</time>
      </trkpt>
      <trkpt lat="53.19744" lon="7.88073">
        <ele>45.58791</ele>
        <time>2024-07-12T11:33:56.839Z</time>
      </trkpt>
      <trkpt lat="53.19739" lon="7.88093">
        <ele>45.610452</ele>
        <time>2024-07-12T11:33:59.825Z</time>
      </trkpt>
      <trkpt lat="53.19737" lon="7.88113">
        <ele>45.632689</ele>
        <time>2024-07-12T11:34:02.796Z</time>
      </trkpt>
      <trkpt lat="53.19734" lon="7.88135">
        <ele>45.656112</ele>
        <time>2024-07-12T11:34:05.831Z</time>
      </trkpt>
      <trkpt lat="53.19733" lon="7.88151">
        <ele>45.673474</ele>
        <time>2024-07-12T11:34:07.843Z</time>
      </trkpt>
      <trkpt lat="53.1973" lon="7.88165">
        <ele>45.68991</ele>
        <time>2024-07-12T11:34:09.834Z</time>
      </trkpt>
      <trkpt lat="53.19727" lon="7.8818">
        <ele>45.706517</ele>
        <time>2024-07-12T11:34:11.831Z</time>
      </trkpt>
      <trkpt lat="53.19726" lon="7.88195">
        <ele>45.722616</ele>
        <time>2024-07-12T11:34:13.840Z</time>
      </trkpt>
      <trkpt lat="53.19722" lon="7.88215">
        <ele>45.745179</ele>
        <time>2024-07-12T11:34:16.839Z</time>
      </trkpt>
      <trkpt lat="53.19719" lon="7.88236">
        <ele>45.768154</ele>
        <time>2024-07-12T11:34:19.848Z</time>
      </trkpt>
      <trkpt lat="53.19714" lon="7.88256">
        <ele>45.790896</ele>
        <time>2024-07-12T11:34:22.814Z</time>
      </trkpt>
      <trkpt lat="53.19711" lon="7.88275">
        <ele>45.81172</ele>
        <time>2024-07-12T11:34:25.831Z</time>
      </trkpt>
      <trkpt lat="53.19707" lon="7.88294">
        <ele>45.819607</ele>
        <time>2024-07-12T11:34:28.838Z</time>
      </trkpt>
      <trkpt lat="53.19702" lon="7.88314">
        <ele>45.752787</ele>
        <time>2024-07-12T11:34:31.841Z</time>
      </trkpt>
      <trkpt lat="53.19698" lon="7.88333">
        <ele>45.686201</ele>
        <time>2024-07-12T11:34:34.829Z</time>
      </trkpt>
      <trkpt lat="53.19695" lon="7.88353">
        <ele>45.618871</ele>
        <time>2024-07-12T11:34:37.825Z</time>
      </trkpt>
      <trkpt lat="53.19693" lon="7.88374">
        <ele>45.552163</ele>
        <time>2024-07-12T11:34:40.837Z</time>
      </trkpt>
      <trkpt lat="53.19692" lon="7.88394">
        <ele>45.487257</ele>
        <time>2024-07-12T11:34:43.830Z</time>
      </trkpt>
      <trkpt lat="53.19691" lon="7.88414">
        <ele>45.42198</ele>
        <time>2024-07-12T11:34:46.843Z</time>
      </trkpt>
      <trkpt lat="53.19691" lon="7.88434">
        <ele>45.357335</ele>
        <time>2024-07-12T11:34:49.826Z</time>
      </trkpt>
      <trkpt lat="53.19691" lon="7.88454">
        <ele>45.295233</ele>
        <time>2024-07-12T11:34:52.817Z</time>
      </trkpt>
      <trkpt lat="53.1969" lon="7.88472">
        <ele>45.234304</ele>
        <time>2024-07-12T11:34:55.834Z</time>
      </trkpt>
      <trkpt lat="53.19689" lon="7.88491">
        <ele>45.175656</ele>
        <time>2024-07-12T11:34:58.833Z</time>
      </trkpt>
      <trkpt lat="53.1969" lon="7.88509">
        <ele>45.1155</ele>
        <time>2024-07-12T11:35:01.843Z</time>
      </trkpt>
      <trkpt lat="53.19689" lon="7.88529">
        <ele>45.050808</ele>
        <time>2024-07-12T11:35:04.849Z</time>
      </trkpt>
      <trkpt lat="53.1969" lon="7.8855">
        <ele>44.983782</ele>
        <time>2024-07-12T11:35:07.828Z</time>
      </trkpt>
      <trkpt lat="53.1969" lon="7.8857">
        <ele>44.920751</ele>
        <time>2024-07-12T11:35:10.825Z</time>
      </trkpt>
      <trkpt lat="53.1969" lon="7.8859">
        <ele>44.864143</ele>
        <time>2024-07-12T11:35:13.832Z</time>
      </trkpt>
      <trkpt lat="53.1969" lon="7.88611">
        <ele>44.862149</ele>
        <time>2024-07-12T11:35:16.830Z</time>
      </trkpt>
      <trkpt lat="53.1969" lon="7.88632">
        <ele>44.860039</ele>
        <time>2024-07-12T11:35:19.832Z</time>
      </trkpt>
      <trkpt lat="53.1969" lon="7.88653">
        <ele>44.857986</ele>
        <time>2024-07-12T11:35:22.831Z</time>
      </trkpt>
      <trkpt lat="53.1969" lon="7.88674">
        <ele>44.855922</ele>
        <time>2024-07-12T11:35:25.825Z</time>
      </trkpt>
      <trkpt lat="53.19691" lon="7.88695">
        <ele>44.853938</ele>
        <time>2024-07-12T11:35:28.838Z</time>
      </trkpt>
      <trkpt lat="53.1969" lon="7.88716">
        <ele>44.851835</ele>
        <time>2024-07-12T11:35:31.841Z</time>
      </trkpt>
      <trkpt lat="53.1969" lon="7.88738">
        <ele>44.849734</ele>
        <time>2024-07-12T11:35:34.843Z</time>
      </trkpt>
      <trkpt lat="53.1969" lon="7.88759">
        <ele>44.847642</ele>
        <time>2024-07-12T11:35:37.847Z</time>
      </trkpt>
      <trkpt lat="53.1969" lon="7.8878">
        <ele>44.845649</ele>
        <time>2024-07-12T11:35:40.834Z</time>
      </trkpt>
      <trkpt lat="53.1969" lon="7.888">
        <ele>44.843605</ele>
        <time>2024-07-12T11:35:43.852Z</time>
      </trkpt>
      <trkpt lat="53.19689" lon="7.88822">
        <ele>44.841518</ele>
        <time>2024-07-12T11:35:46.831Z</time>
      </trkpt>
      <trkpt lat="53.19688" lon="7.8884">
        <ele>44.839721</ele>
        <time>2024-07-12T11:35:49.841Z</time>
      </trkpt>
      <trkpt lat="53.19689" lon="7.88856">
        <ele>44.838158</ele>
        <time>2024-07-12T11:35:53.821Z</time>
      </trkpt>
      <trkpt lat="53.19686" lon="7.88871">
        <ele>44.836604</ele>
        <time>2024-07-12T11:35:57.847Z</time>
      </trkpt>
      <trkpt lat="53.19684" lon="7.88886">
        <ele>44.836801</ele>
        <time>2024-07-12T11:36:01.839Z</time>
      </trkpt>
      <trkpt lat="53.19681" lon="7.88906">
        <ele>44.877153</ele>
        <time>2024-07-12T11:36:05.830Z</time>
      </trkpt>
      <trkpt lat="53.19677" lon="7.88922">
        <ele>44.913301</ele>
        <time>2024-07-12T11:36:08.842Z</time>
      </trkpt>
      <trkpt lat="53.19673" lon="7.88939">
        <ele>44.949825</ele>
        <time>2024-07-12T11:36:11.829Z</time>
      </trkpt>
      <trkpt lat="53.19672" lon="7.88957">
        <ele>44.987363</ele>
        <time>2024-07-12T11:36:14.829Z</time>
      </trkpt>
      <trkpt lat="53.19667" lon="7.88977">
        <ele>45.0304</ele>
        <time>2024-07-12T11:36:17.823Z</time>
      </trkpt>
      <trkpt lat="53.19664" lon="7.88997">
        <ele>45.071711</ele>
        <time>2024-07-12T11:36:20.839Z</time>
      </trkpt>
      <trkpt lat="53.1966" lon="7.89016">
        <ele>45.113306</ele>
        <time>2024-07-12T11:36:23.844Z</time>
      </trkpt>
      <trkpt lat="53.19657" lon="7.89035">
        <ele>45.152547</ele>
        <time>2024-07-12T11:36:26.853Z</time>
      </trkpt>
      <trkpt lat="53.19655" lon="7.89055">
        <ele>45.194874</ele>
        <time>2024-07-12T11:36:29.831Z</time>
      </trkpt>
      <trkpt lat="53.19651" lon="7.89075">
        <ele>45.236559</ele>
        <time>2024-07-12T11:36:32.840Z</time>
      </trkpt>
      <trkpt lat="53.19648" lon="7.89094">
        <ele>45.278647</ele>
        <time>2024-07-12T11:36:35.842Z</time>
      </trkpt>
      <trkpt lat="53.19645" lon="7.89113">
        <ele>45.31869</ele>
        <time>2024-07-12T11:36:38.839Z</time>
      </trkpt>
      <trkpt lat="53.19641" lon="7.89134">
        <ele>45.361382</ele>
        <time>2024-07-12T11:36:41.842Z</time>
      </trkpt>
      <trkpt lat="53.19637" lon="7.89153">
        <ele>45.402729</ele>
        <time>2024-07-12T11:36:44.856Z</time>
      </trkpt>
      <trkpt lat="53.19633" lon="7.89172">
        <ele>45.44366</ele>
        <time>2024-07-12T11:36:47.846Z</time>
      </trkpt>
      <trkpt lat="53.19631" lon="7.89192">
        <ele>45.393692</ele>
        <time>2024-07-12T11:36:50.847Z</time>
      </trkpt>
      <trkpt lat="53.19629" lon="7.89206">
        <ele>45.350423</ele>
        <time>2024-07-12T11:36:52.827Z</time>
      </trkpt>
      <trkpt lat="53.19625" lon="7.89227">
        <ele>45.288097</ele>
        <time>2024-07-12T11:36:55.829Z</time>
      </trkpt>
      <trkpt lat="53.19621" lon="7.89248">
        <ele>45.225892</ele>
        <time>2024-07-12T11:36:58.837Z</time>
      </trkpt>
      <trkpt lat="53.19617" lon="7.89269">
        <ele>45.164931</ele>
        <time>2024-07-12T11:37:01.836Z</time>
      </trkpt>
      <trkpt lat="53.19615" lon="7.89284">
        <ele>45.1211</ele>
        <time>2024-07-12T11:37:03.850Z</time>
      </trkpt>
      <trkpt lat="53.19612" lon="7.89298">
        <ele>45.078638</ele>
        <time>2024-07-12T11:37:05.826Z</time>
      </trkpt>
      <trkpt lat="53.1961" lon="7.89313">
        <ele>45.035902</ele>
        <time>2024-07-12T11:37:07.829Z</time>
      </trkpt>
      <trkpt lat="53.19607" lon="7.89334">
        <ele>44.974331</ele>
        <time>2024-07-12T11:37:10.834Z</time>
      </trkpt>
      <trkpt lat="53.19605" lon="7.89355">
        <ele>44.913924</ele>
        <time>2024-07-12T11:37:13.828Z</time>
      </trkpt>
      <trkpt lat="53.19603" lon="7.89376">
        <ele>44.853027</ele>
        <time>2024-07-12T11:37:16.840Z</time>
      </trkpt>
      <trkpt lat="53.19602" lon="7.89396">
        <ele>44.794861</ele>
        <time>2024-07-12T11:37:19.821Z</time>
      </trkpt>
      <trkpt lat="53.19601" lon="7.89417">
        <ele>44.734976</ele>
        <time>2024-07-12T11:37:22.813Z</time>
      </trkpt>
      <trkpt lat="53.19601" lon="7.89439">
        <ele>44.674152</ele>
        <time>2024-07-12T11:37:25.830Z</time>
      </trkpt>
      <trkpt lat="53.19601" lon="7.89459">
        <ele>44.616759</ele>
        <time>2024-07-12T11:37:28.846Z</time>
      </trkpt>
      <trkpt lat="53.19602" lon="7.8948">
        <ele>44.520336</ele>
        <time>2024-07-12T11:37:31.829Z</time>
      </trkpt>
      <trkpt lat="53.19603" lon="7.89501">
        <ele>44.408323</ele>
        <time>2024-07-12T11:37:34.816Z</time>
      </trkpt>
      <trkpt lat="53.19604" lon="7.89521">
        <ele>44.29701</ele>
        <time>2024-07-12T11:37:37.857Z</time>
      </trkpt>
      <trkpt lat="53.19607" lon="7.8954">
        <ele>44.187966</ele>
        <time>2024-07-12T11:37:40.848Z</time>
      </trkpt>
      <trkpt lat="53.19609" lon="7.8956">
        <ele>44.0773</ele>
        <time>2024-07-12T11:37:43.848Z</time>
      </trkpt>
      <trkpt lat="53.19612" lon="7.8958">
        <ele>43.961994</ele>
        <time>2024-07-12T11:37:46.836Z</time>
      </trkpt>
      <trkpt lat="53.19615" lon="7.896">
        <ele>43.848233</ele>
        <time>2024-07-12T11:37:49.829Z</time>
      </trkpt>
      <trkpt lat="53.19619" lon="7.89619">
        <ele>43.73942</ele>
        <time>2024-07-12T11:37:52.830Z</time>
      </trkpt>
      <trkpt lat="53.19622" lon="7.89636">
        <ele>43.639803</ele>
        <time>2024-07-12T11:37:55.839Z</time>
      </trkpt>
      <trkpt lat="53.19625" lon="7.89654">
        <ele>43.537894</ele>
        <time>2024-07-12T11:37:58.824Z</time>
      </trkpt>
      <trkpt lat="53.19629" lon="7.89671">
        <ele>43.441779</ele>
        <time>2024-07-12T11:38:01.840Z</time>
      </trkpt>
      <trkpt lat="53.19631" lon="7.89687">
        <ele>43.347253</ele>
        <time>2024-07-12T11:38:04.850Z</time>
      </trkpt>
      <trkpt lat="53.19635" lon="7.89707">
        <ele>43.236674</ele>
        <time>2024-07-12T11:38:08.834Z</time>
      </trkpt>
      <trkpt lat="53.19638" lon="7.89724">
        <ele>43.13847</ele>
        <time>2024-07-12T11:38:12.829Z</time>
      </trkpt>
      <trkpt lat="53.19629" lon="7.89731">
        <ele>43.048453</ele>
        <time>2024-07-12T11:38:18.838Z</time>
      </trkpt>
      <trkpt lat="53.19629" lon="7.89746">
        <ele>42.964918</ele>
        <time>2024-07-12T11:38:24.828Z</time>
      </trkpt>
      <trkpt lat="53.19632" lon="7.89761">
        <ele>42.918844</ele>
        <time>2024-07-12T11:38:27.834Z</time>
      </trkpt>
      <trkpt lat="53.19634" lon="7.89777">
        <ele>42.887456</ele>
        <time>2024-07-12T11:38:30.831Z</time>
      </trkpt>
      <trkpt lat="53.19636" lon="7.89792">
        <ele>42.856231</ele>
        <time>2024-07-12T11:38:33.832Z</time>
      </trkpt>
      <trkpt lat="53.1964" lon="7.89809">
        <ele>42.820633</ele>
        <time>2024-07-12T11:38:37.832Z</time>
      </trkpt>
      <trkpt lat="53.19644" lon="7.89823">
        <ele>42.788977</ele>
        <time>2024-07-12T11:38:40.855Z</time>
      </trkpt>
      <trkpt lat="53.19649" lon="7.89841">
        <ele>42.749501</ele>
        <time>2024-07-12T11:38:43.836Z</time>
      </trkpt>
      <trkpt lat="53.19653" lon="7.89859">
        <ele>42.710881</ele>
        <time>2024-07-12T11:38:46.845Z</time>
      </trkpt>
      <trkpt lat="53.19658" lon="7.89877">
        <ele>42.672646</ele>
        <time>2024-07-12T11:38:49.849Z</time>
      </trkpt>
      <trkpt lat="53.19662" lon="7.89898">
        <ele>42.629772</ele>
        <time>2024-07-12T11:38:52.829Z</time>
      </trkpt>
      <trkpt lat="53.19666" lon="7.89918">
        <ele>42.586755</ele>
        <time>2024-07-12T11:38:55.843Z</time>
      </trkpt>
      <trkpt lat="53.19669" lon="7.89938">
        <ele>42.546014</ele>
        <time>2024-07-12T11:38:58.843Z</time>
      </trkpt>
      <trkpt lat="53.19673" lon="7.89958">
        <ele>42.505467</ele>
        <time>2024-07-12T11:39:01.831Z</time>
      </trkpt>
      <trkpt lat="53.19677" lon="7.89977">
        <ele>42.46471</ele>
        <time>2024-07-12T11:39:04.848Z</time>
      </trkpt>
      <trkpt lat="53.19681" lon="7.89997">
        <ele>42.422132</ele>
        <time>2024-07-12T11:39:07.843Z</time>
      </trkpt>
      <trkpt lat="53.19686" lon="7.90018">
        <ele>42.379219</ele>
        <time>2024-07-12T11:39:10.853Z</time>
      </trkpt>
      <trkpt lat="53.19689" lon="7.90038">
        <ele>42.349552</ele>
        <time>2024-07-12T11:39:13.834Z</time>
      </trkpt>
      <trkpt lat="53.19692" lon="7.90059">
        <ele>42.352086</ele>
        <time>2024-07-12T11:39:16.843Z</time>
      </trkpt>
      <trkpt lat="53.19696" lon="7.9008">
        <ele>42.354751</ele>
        <time>2024-07-12T11:39:19.841Z</time>
      </trkpt>
      <trkpt lat="53.197" lon="7.90095">
        <ele>42.356568</ele>
        <time>2024-07-12T11:39:21.843Z</time>
      </trkpt>
      <trkpt lat="53.19705" lon="7.90116">
        <ele>42.35923</ele>
        <time>2024-07-12T11:39:24.843Z</time>
      </trkpt>
      <trkpt lat="53.19707" lon="7.90131">
        <ele>42.361108</ele>
        <time>2024-07-12T11:39:26.841Z</time>
      </trkpt>
      <trkpt lat="53.1971" lon="7.90146">
        <ele>42.362987</ele>
        <time>2024-07-12T11:39:28.854Z</time>
      </trkpt>
      <trkpt lat="53.19713" lon="7.90161">
        <ele>42.364809</ele>
        <time>2024-07-12T11:39:30.849Z</time>
      </trkpt>
      <trkpt lat="53.19718" lon="7.90182">
        <ele>42.367532</ele>
        <time>2024-07-12T11:39:33.834Z</time>
      </trkpt>
      <trkpt lat="53.19721" lon="7.90198">
        <ele>42.36954</ele>
        <time>2024-07-12T11:39:35.857Z</time>
      </trkpt>
      <trkpt lat="53.19724" lon="7.90213">
        <ele>42.371432</ele>
        <time>2024-07-12T11:39:37.840Z</time>
      </trkpt>
      <trkpt lat="53.19727" lon="7.90228">
        <ele>42.373226</ele>
        <time>2024-07-12T11:39:39.844Z</time>
      </trkpt>
      <trkpt lat="53.19729" lon="7.90244">
        <ele>42.375149</ele>
        <time>2024-07-12T11:39:41.833Z</time>
      </trkpt>
      <trkpt lat="53.19732" lon="7.90258">
        <ele>42.376977</ele>
        <time>2024-07-12T11:39:43.849Z</time>
      </trkpt>
      <trkpt lat="53.19736" lon="7.90278">
        <ele>42.379425</ele>
        <time>2024-07-12T11:39:46.855Z</time>
      </trkpt>
      <trkpt lat="53.19741" lon="7.90299">
        <ele>42.382078</ele>
        <time>2024-07-12T11:39:49.861Z</time>
      </trkpt>
      <trkpt lat="53.19743" lon="7.90315">
        <ele>42.383925</ele>
        <time>2024-07-12T11:39:51.835Z</time>
      </trkpt>
      <trkpt lat="53.19747" lon="7.90335">
        <ele>42.490683</ele>
        <time>2024-07-12T11:39:54.837Z</time>
      </trkpt>
      <trkpt lat="53.1975" lon="7.9035">
        <ele>42.581872</ele>
        <time>2024-07-12T11:39:56.831Z</time>
      </trkpt>
      <trkpt lat="53.19754" lon="7.90365">
        <ele>42.673149</ele>
        <time>2024-07-12T11:39:58.831Z</time>
      </trkpt>
      <trkpt lat="53.19757" lon="7.90386">
        <ele>42.798983</ele>
        <time>2024-07-12T11:40:01.826Z</time>
      </trkpt>
      <trkpt lat="53.19761" lon="7.90406">
        <ele>42.922775</ele>
        <time>2024-07-12T11:40:04.848Z</time>
      </trkpt>
      <trkpt lat="53.19763" lon="7.90428">
        <ele>43.050276</ele>
        <time>2024-07-12T11:40:07.846Z</time>
      </trkpt>
      <trkpt lat="53.19765" lon="7.90443">
        <ele>43.137312</ele>
        <time>2024-07-12T11:40:09.833Z</time>
      </trkpt>
      <trkpt lat="53.19766" lon="7.90458">
        <ele>43.22622</ele>
        <time>2024-07-12T11:40:11.851Z</time>
      </trkpt>
      <trkpt lat="53.19767" lon="7.90474">
        <ele>43.320476</ele>
        <time>2024-07-12T11:40:13.837Z</time>
      </trkpt>
      <trkpt lat="53.19768" lon="7.9049">
        <ele>43.414535</ele>
        <time>2024-07-12T11:40:15.845Z</time>
      </trkpt>
      <trkpt lat="53.1977" lon="7.90513">
        <ele>43.545195</ele>
        <time>2024-07-12T11:40:18.849Z</time>
      </trkpt>
      <trkpt lat="53.19771" lon="7.90529">
        <ele>43.639348</ele>
        <time>2024-07-12T11:40:20.835Z</time>
      </trkpt>
      <trkpt lat="53.19771" lon="7.90551">
        <ele>43.767172</ele>
        <time>2024-07-12T11:40:23.853Z</time>
      </trkpt>
      <trkpt lat="53.19771" lon="7.90567">
        <ele>43.857984</ele>
        <time>2024-07-12T11:40:25.835Z</time>
      </trkpt>
      <trkpt lat="53.19768" lon="7.90587">
        <ele>43.981017</ele>
        <time>2024-07-12T11:40:28.825Z</time>
      </trkpt>
      <trkpt lat="53.19765" lon="7.90609">
        <ele>44.106524</ele>
        <time>2024-07-12T11:40:31.853Z</time>
      </trkpt>
      <trkpt lat="53.19764" lon="7.90631">
        <ele>44.182304</ele>
        <time>2024-07-12T11:40:34.839Z</time>
      </trkpt>
      <trkpt lat="53.1976" lon="7.90653">
        <ele>44.25121</ele>
        <time>2024-07-12T11:40:37.845Z</time>
      </trkpt>
      <trkpt lat="53.19759" lon="7.90669">
        <ele>44.29826</ele>
        <time>2024-07-12T11:40:39.843Z</time>
      </trkpt>
      <trkpt lat="53.19758" lon="7.90685">
        <ele>44.34628</ele>
        <time>2024-07-12T11:40:41.854Z</time>
      </trkpt>
      <trkpt lat="53.19756" lon="7.907">
        <ele>44.392288</ele>
        <time>2024-07-12T11:40:43.841Z</time>
      </trkpt>
      <trkpt lat="53.19755" lon="7.90722">
        <ele>44.461797</ele>
        <time>2024-07-12T11:40:46.854Z</time>
      </trkpt>
      <trkpt lat="53.19753" lon="7.90737">
        <ele>44.507507</ele>
        <time>2024-07-12T11:40:48.851Z</time>
      </trkpt>
      <trkpt lat="53.19752" lon="7.9076">
        <ele>44.578</ele>
        <time>2024-07-12T11:40:51.842Z</time>
      </trkpt>
      <trkpt lat="53.1975" lon="7.90781">
        <ele>44.642044</ele>
        <time>2024-07-12T11:40:54.834Z</time>
      </trkpt>
      <trkpt lat="53.19749" lon="7.90804">
        <ele>44.709178</ele>
        <time>2024-07-12T11:40:57.838Z</time>
      </trkpt>
      <trkpt lat="53.19747" lon="7.90826">
        <ele>44.776465</ele>
        <time>2024-07-12T11:41:00.836Z</time>
      </trkpt>
      <trkpt lat="53.19746" lon="7.90848">
        <ele>44.845374</ele>
        <time>2024-07-12T11:41:03.826Z</time>
      </trkpt>
      <trkpt lat="53.19746" lon="7.90864">
        <ele>44.894387</ele>
        <time>2024-07-12T11:41:05.840Z</time>
      </trkpt>
      <trkpt lat="53.19745" lon="7.9088">
        <ele>44.940416</ele>
        <time>2024-07-12T11:41:07.833Z</time>
      </trkpt>
      <trkpt lat="53.19746" lon="7.90895">
        <ele>44.98611</ele>
        <time>2024-07-12T11:41:09.833Z</time>
      </trkpt>
      <trkpt lat="53.19745" lon="7.90917">
        <ele>45.060871</ele>
        <time>2024-07-12T11:41:12.811Z</time>
      </trkpt>
      <trkpt lat="53.19745" lon="7.90932">
        <ele>45.119674</ele>
        <time>2024-07-12T11:41:14.846Z</time>
      </trkpt>
      <trkpt lat="53.19744" lon="7.90955">
        <ele>45.205597</ele>
        <time>2024-07-12T11:41:17.833Z</time>
      </trkpt>
      <trkpt lat="53.19742" lon="7.90969">
        <ele>45.263772</ele>
        <time>2024-07-12T11:41:19.821Z</time>
      </trkpt>
      <trkpt lat="53.19741" lon="7.90991">
        <ele>45.349043</ele>
        <time>2024-07-12T11:41:22.812Z</time>
      </trkpt>
      <trkpt lat="53.1974" lon="7.91013">
        <ele>45.433869</ele>
        <time>2024-07-12T11:41:25.824Z</time>
      </trkpt>
      <trkpt lat="53.19739" lon="7.91035">
        <ele>45.51689</ele>
        <time>2024-07-12T11:41:28.837Z</time>
      </trkpt>
      <trkpt lat="53.19738" lon="7.91056">
        <ele>45.598788</ele>
        <time>2024-07-12T11:41:31.825Z</time>
      </trkpt>
      <trkpt lat="53.19737" lon="7.91071">
        <ele>45.657447</ele>
        <time>2024-07-12T11:41:33.834Z</time>
      </trkpt>
      <trkpt lat="53.19735" lon="7.91086">
        <ele>45.716332</ele>
        <time>2024-07-12T11:41:35.832Z</time>
      </trkpt>
      <trkpt lat="53.19733" lon="7.91107">
        <ele>45.798668</ele>
        <time>2024-07-12T11:41:38.827Z</time>
      </trkpt>
      <trkpt lat="53.19729" lon="7.91127">
        <ele>45.879973</ele>
        <time>2024-07-12T11:41:41.828Z</time>
      </trkpt>
      <trkpt lat="53.19724" lon="7.91148">
        <ele>45.96595</ele>
        <time>2024-07-12T11:41:44.826Z</time>
      </trkpt>
      <trkpt lat="53.19719" lon="7.91168">
        <ele>46.049954</ele>
        <time>2024-07-12T11:41:47.826Z</time>
      </trkpt>
      <trkpt lat="53.19714" lon="7.91188">
        <ele>46.132836</ele>
        <time>2024-07-12T11:41:50.824Z</time>
      </trkpt>
      <trkpt lat="53.1971" lon="7.91201">
        <ele>46.179088</ele>
        <time>2024-07-12T11:41:52.821Z</time>
      </trkpt>
      <trkpt lat="53.19704" lon="7.91222">
        <ele>46.057985</ele>
        <time>2024-07-12T11:41:55.818Z</time>
      </trkpt>
      <trkpt lat="53.19698" lon="7.9124">
        <ele>45.9434</ele>
        <time>2024-07-12T11:41:58.823Z</time>
      </trkpt>
      <trkpt lat="53.19693" lon="7.91253">
        <ele>45.862494</ele>
        <time>2024-07-12T11:42:00.840Z</time>
      </trkpt>
      <trkpt lat="53.19686" lon="7.91271">
        <ele>45.749508</ele>
        <time>2024-07-12T11:42:03.838Z</time>
      </trkpt>
      <trkpt lat="53.19678" lon="7.91288">
        <ele>45.630657</ele>
        <time>2024-07-12T11:42:06.856Z</time>
      </trkpt>
      <trkpt lat="53.19671" lon="7.91304">
        <ele>45.521503</ele>
        <time>2024-07-12T11:42:09.835Z</time>
      </trkpt>
      <trkpt lat="53.19665" lon="7.91317">
        <ele>45.435254</ele>
        <time>2024-07-12T11:42:12.829Z</time>
      </trkpt>
      <trkpt lat="53.19657" lon="7.91326">
        <ele>45.350634</ele>
        <time>2024-07-12T11:42:17.848Z</time>
      </trkpt>
      <trkpt lat="53.19651" lon="7.91313">
        <ele>45.262384</ele>
        <time>2024-07-12T11:42:26.844Z</time>
      </trkpt>
      <trkpt lat="53.19657" lon="7.91327">
        <ele>45.166603</ele>
        <time>2024-07-12T11:45:10.832Z</time>
      </trkpt>
      <trkpt lat="53.19652" lon="7.91344">
        <ele>45.065424</ele>
        <time>2024-07-12T11:45:14.814Z</time>
      </trkpt>
      <trkpt lat="53.19645" lon="7.91354">
        <ele>44.979747</ele>
        <time>2024-07-12T11:45:17.824Z</time>
      </trkpt>
      <trkpt lat="53.19637" lon="7.91367">
        <ele>44.884599</ele>
        <time>2024-07-12T11:45:20.844Z</time>
      </trkpt>
      <trkpt lat="53.19629" lon="7.91379">
        <ele>44.784871</ele>
        <time>2024-07-12T11:45:23.845Z</time>
      </trkpt>
      <trkpt lat="53.1962" lon="7.91389">
        <ele>44.689101</ele>
        <time>2024-07-12T11:45:26.835Z</time>
      </trkpt>
      <trkpt lat="53.19612" lon="7.91399">
        <ele>44.60141</ele>
        <time>2024-07-12T11:45:29.834Z</time>
      </trkpt>
      <trkpt lat="53.19605" lon="7.91409">
        <ele>44.55843</ele>
        <time>2024-07-12T11:45:32.837Z</time>
      </trkpt>
      <trkpt lat="53.19597" lon="7.91417">
        <ele>44.541043</ele>
        <time>2024-07-12T11:45:35.852Z</time>
      </trkpt>
      <trkpt lat="53.19589" lon="7.91428">
        <ele>44.520295</ele>
        <time>2024-07-12T11:45:38.835Z</time>
      </trkpt>
      <trkpt lat="53.1958" lon="7.91439">
        <ele>44.498813</ele>
        <time>2024-07-12T11:45:41.837Z</time>
      </trkpt>
      <trkpt lat="53.1957" lon="7.91451">
        <ele>44.476818</ele>
        <time>2024-07-12T11:45:44.841Z</time>
      </trkpt>
      <trkpt lat="53.19561" lon="7.91463">
        <ele>44.45402</ele>
        <time>2024-07-12T11:45:47.853Z</time>
      </trkpt>
      <trkpt lat="53.1955" lon="7.91476">
        <ele>44.428781</ele>
        <time>2024-07-12T11:45:50.848Z</time>
      </trkpt>
      <trkpt lat="53.19539" lon="7.91488">
        <ele>44.403445</ele>
        <time>2024-07-12T11:45:53.840Z</time>
      </trkpt>
      <trkpt lat="53.19532" lon="7.91498">
        <ele>44.38581</ele>
        <time>2024-07-12T11:45:55.849Z</time>
      </trkpt>
      <trkpt lat="53.19525" lon="7.91506">
        <ele>44.368654</ele>
        <time>2024-07-12T11:45:57.853Z</time>
      </trkpt>
      <trkpt lat="53.19514" lon="7.9152">
        <ele>44.342594</ele>
        <time>2024-07-12T11:46:00.860Z</time>
      </trkpt>
      <trkpt lat="53.19503" lon="7.91531">
        <ele>44.318307</ele>
        <time>2024-07-12T11:46:03.835Z</time>
      </trkpt>
      <trkpt lat="53.19492" lon="7.91546">
        <ele>44.291697</ele>
        <time>2024-07-12T11:46:06.822Z</time>
      </trkpt>
      <trkpt lat="53.19482" lon="7.91559">
        <ele>44.266695</ele>
        <time>2024-07-12T11:46:09.832Z</time>
      </trkpt>
      <trkpt lat="53.19471" lon="7.91573">
        <ele>44.240749</ele>
        <time>2024-07-12T11:46:12.848Z</time>
      </trkpt>
      <trkpt lat="53.19464" lon="7.91582">
        <ele>44.230451</ele>
        <time>2024-07-12T11:46:14.836Z</time>
      </trkpt>
      <trkpt lat="53.19456" lon="7.91592">
        <ele>44.261786</ele>
        <time>2024-07-12T11:46:16.852Z</time>
      </trkpt>
      <trkpt lat="53.19448" lon="7.91601">
        <ele>44.293474</ele>
        <time>2024-07-12T11:46:18.833Z</time>
      </trkpt>
      <trkpt lat="53.1944" lon="7.91611">
        <ele>44.325211</ele>
        <time>2024-07-12T11:46:20.833Z</time>
      </trkpt>
      <trkpt lat="53.19433" lon="7.9162">
        <ele>44.355716</ele>
        <time>2024-07-12T11:46:22.841Z</time>
      </trkpt>
      <trkpt lat="53.19425" lon="7.91629">
        <ele>44.387072</ele>
        <time>2024-07-12T11:46:24.857Z</time>
      </trkpt>
      <trkpt lat="53.19414" lon="7.91643">
        <ele>44.431799</ele>
        <time>2024-07-12T11:46:27.845Z</time>
      </trkpt>
      <trkpt lat="53.19407" lon="7.91652">
        <ele>44.463515</ele>
        <time>2024-07-12T11:46:29.838Z</time>
      </trkpt>
      <trkpt lat="53.19399" lon="7.91662">
        <ele>44.494715</ele>
        <time>2024-07-12T11:46:31.834Z</time>
      </trkpt>
      <trkpt lat="53.19392" lon="7.91671">
        <ele>44.525754</ele>
        <time>2024-07-12T11:46:33.834Z</time>
      </trkpt>
      <trkpt lat="53.19384" lon="7.9168">
        <ele>44.555915</ele>
        <time>2024-07-12T11:46:35.838Z</time>
      </trkpt>
      <trkpt lat="53.19374" lon="7.91692">
        <ele>44.597734</ele>
        <time>2024-07-12T11:46:38.843Z</time>
      </trkpt>
      <trkpt lat="53.19365" lon="7.91705">
        <ele>44.637137</ele>
        <time>2024-07-12T11:46:41.840Z</time>
      </trkpt>
      <trkpt lat="53.19354" lon="7.91718">
        <ele>44.680295</ele>
        <time>2024-07-12T11:46:44.827Z</time>
      </trkpt>
      <trkpt lat="53.19343" lon="7.9173">
        <ele>44.722815</ele>
        <time>2024-07-12T11:46:47.834Z</time>
      </trkpt>
      <trkpt lat="53.19335" lon="7.91738">
        <ele>44.752912</ele>
        <time>2024-07-12T11:46:49.835Z</time>
      </trkpt>
      <trkpt lat="53.19324" lon="7.91751">
        <ele>44.796914</ele>
        <time>2024-07-12T11:46:52.840Z</time>
      </trkpt>
      <trkpt lat="53.19314" lon="7.91764">
        <ele>44.88322</ele>
        <time>2024-07-12T11:46:55.844Z</time>
      </trkpt>
      <trkpt lat="53.19306" lon="7.91773">
        <ele>44.972475</ele>
        <time>2024-07-12T11:46:57.842Z</time>
      </trkpt>
      <trkpt lat="53.19298" lon="7.91781">
        <ele>45.062659</ele>
        <time>2024-07-12T11:46:59.829Z</time>
      </trkpt>
      <trkpt lat="53.19287" lon="7.91793">
        <ele>45.186851</ele>
        <time>2024-07-12T11:47:02.827Z</time>
      </trkpt>
      <trkpt lat="53.19279" lon="7.91803">
        <ele>45.276591</ele>
        <time>2024-07-12T11:47:04.850Z</time>
      </trkpt>
      <trkpt lat="53.19271" lon="7.91812">
        <ele>45.365087</ele>
        <time>2024-07-12T11:47:06.843Z</time>
      </trkpt>
      <trkpt lat="53.19264" lon="7.91821">
        <ele>45.453584</ele>
        <time>2024-07-12T11:47:08.832Z</time>
      </trkpt>
      <trkpt lat="53.19256" lon="7.9183">
        <ele>45.539046</ele>
        <time>2024-07-12T11:47:10.837Z</time>
      </trkpt>
      <trkpt lat="53.19249" lon="7.91838">
        <ele>45.623931</ele>
        <time>2024-07-12T11:47:12.821Z</time>
      </trkpt>
      <trkpt lat="53.19241" lon="7.91847">
        <ele>45.710692</ele>
        <time>2024-07-12T11:47:14.823Z</time>
      </trkpt>
      <trkpt lat="53.19233" lon="7.91856">
        <ele>45.802439</ele>
        <time>2024-07-12T11:47:16.823Z</time>
      </trkpt>
      <trkpt lat="53.19225" lon="7.91866">
        <ele>45.897553</ele>
        <time>2024-07-12T11:47:18.832Z</time>
      </trkpt>
      <trkpt lat="53.19213" lon="7.91879">
        <ele>46.026741</ele>
        <time>2024-07-12T11:47:21.828Z</time>
      </trkpt>
      <trkpt lat="53.19206" lon="7.91889">
        <ele>46.116328</ele>
        <time>2024-07-12T11:47:23.821Z</time>
      </trkpt>
      <trkpt lat="53.19198" lon="7.91899">
        <ele>46.20962</ele>
        <time>2024-07-12T11:47:25.825Z</time>
      </trkpt>
      <trkpt lat="53.19191" lon="7.91908">
        <ele>46.295083</ele>
        <time>2024-07-12T11:47:27.830Z</time>
      </trkpt>
      <trkpt lat="53.1918" lon="7.9192">
        <ele>46.419276</ele>
        <time>2024-07-12T11:47:30.840Z</time>
      </trkpt>
      <trkpt lat="53.19172" lon="7.91929">
        <ele>46.505621</ele>
        <time>2024-07-12T11:47:32.825Z</time>
      </trkpt>
      <trkpt lat="53.19161" lon="7.91942">
        <ele>46.58442</ele>
        <time>2024-07-12T11:47:35.828Z</time>
      </trkpt>
      <trkpt lat="53.1915" lon="7.91955">
        <ele>46.663393</ele>
        <time>2024-07-12T11:47:38.826Z</time>
      </trkpt>
      <trkpt lat="53.19142" lon="7.91963">
        <ele>46.720237</ele>
        <time>2024-07-12T11:47:40.838Z</time>
      </trkpt>
      <trkpt lat="53.19134" lon="7.91973">
        <ele>46.776505</ele>
        <time>2024-07-12T11:47:42.816Z</time>
      </trkpt>
      <trkpt lat="53.19127" lon="7.91981">
        <ele>46.830507</ele>
        <time>2024-07-12T11:47:44.830Z</time>
      </trkpt>
      <trkpt lat="53.19119" lon="7.9199">
        <ele>46.887059</ele>
        <time>2024-07-12T11:47:46.829Z</time>
      </trkpt>
      <trkpt lat="53.19111" lon="7.91999">
        <ele>46.941882</ele>
        <time>2024-07-12T11:47:48.839Z</time>
      </trkpt>
      <trkpt lat="53.191" lon="7.92012">
        <ele>47.021092</ele>
        <time>2024-07-12T11:47:51.823Z</time>
      </trkpt>
      <trkpt lat="53.19092" lon="7.92022">
        <ele>47.079021</ele>
        <time>2024-07-12T11:47:53.833Z</time>
      </trkpt>
      <trkpt lat="53.19084" lon="7.92029">
        <ele>47.134135</ele>
        <time>2024-07-12T11:47:55.828Z</time>
      </trkpt>
      <trkpt lat="53.19073" lon="7.92041">
        <ele>47.21007</ele>
        <time>2024-07-12T11:47:58.826Z</time>
      </trkpt>
      <trkpt lat="53.19067" lon="7.92051">
        <ele>47.26341</ele>
        <time>2024-07-12T11:48:00.823Z</time>
      </trkpt>
      <trkpt lat="53.19059" lon="7.92061">
        <ele>47.319478</ele>
        <time>2024-07-12T11:48:02.819Z</time>
      </trkpt>
      <trkpt lat="53.19052" lon="7.9207">
        <ele>47.374461</ele>
        <time>2024-07-12T11:48:04.834Z</time>
      </trkpt>
      <trkpt lat="53.19041" lon="7.92084">
        <ele>47.453945</ele>
        <time>2024-07-12T11:48:07.849Z</time>
      </trkpt>
      <trkpt lat="53.19034" lon="7.92093">
        <ele>47.50973</ele>
        <time>2024-07-12T11:48:09.836Z</time>
      </trkpt>
      <trkpt lat="53.19026" lon="7.92101">
        <ele>47.563981</ele>
        <time>2024-07-12T11:48:11.861Z</time>
      </trkpt>
      <trkpt lat="53.19018" lon="7.92109">
        <ele>47.451832</ele>
        <time>2024-07-12T11:48:13.825Z</time>
      </trkpt>
      <trkpt lat="53.19009" lon="7.92118">
        <ele>47.320468</ele>
        <time>2024-07-12T11:48:15.828Z</time>
      </trkpt>
      <trkpt lat="53.19001" lon="7.92127">
        <ele>47.193524</ele>
        <time>2024-07-12T11:48:17.857Z</time>
      </trkpt>
      <trkpt lat="53.18994" lon="7.92136">
        <ele>47.062801</ele>
        <time>2024-07-12T11:48:19.847Z</time>
      </trkpt>
      <trkpt lat="53.18985" lon="7.92146">
        <ele>46.926707</ele>
        <time>2024-07-12T11:48:21.824Z</time>
      </trkpt>
      <trkpt lat="53.18977" lon="7.92156">
        <ele>46.789527</ele>
        <time>2024-07-12T11:48:23.833Z</time>
      </trkpt>
      <trkpt lat="53.18969" lon="7.92166">
        <ele>46.652346</ele>
        <time>2024-07-12T11:48:25.838Z</time>
      </trkpt>
      <trkpt lat="53.1896" lon="7.92176">
        <ele>46.517335</ele>
        <time>2024-07-12T11:48:27.852Z</time>
      </trkpt>
      <trkpt lat="53.18952" lon="7.92187">
        <ele>46.375189</ele>
        <time>2024-07-12T11:48:29.840Z</time>
      </trkpt>
      <trkpt lat="53.18944" lon="7.92197">
        <ele>46.236334</ele>
        <time>2024-07-12T11:48:31.822Z</time>
      </trkpt>
      <trkpt lat="53.18935" lon="7.92207">
        <ele>46.100703</ele>
        <time>2024-07-12T11:48:33.826Z</time>
      </trkpt>
      <trkpt lat="53.18927" lon="7.92217">
        <ele>45.961178</ele>
        <time>2024-07-12T11:48:35.826Z</time>
      </trkpt>
      <trkpt lat="53.18918" lon="7.92228">
        <ele>45.816242</ele>
        <time>2024-07-12T11:48:37.829Z</time>
      </trkpt>
      <trkpt lat="53.18909" lon="7.92237">
        <ele>45.677548</ele>
        <time>2024-07-12T11:48:39.826Z</time>
      </trkpt>
      <trkpt lat="53.189" lon="7.92247">
        <ele>45.534866</ele>
        <time>2024-07-12T11:48:41.822Z</time>
      </trkpt>
      <trkpt lat="53.18891" lon="7.92258">
        <ele>45.387283</ele>
        <time>2024-07-12T11:48:43.838Z</time>
      </trkpt>
      <trkpt lat="53.18883" lon="7.92269">
        <ele>45.241195</ele>
        <time>2024-07-12T11:48:45.822Z</time>
      </trkpt>
      <trkpt lat="53.18873" lon="7.92279">
        <ele>45.161648</ele>
        <time>2024-07-12T11:48:47.836Z</time>
      </trkpt>
      <trkpt lat="53.18864" lon="7.92289">
        <ele>45.147757</ele>
        <time>2024-07-12T11:48:49.815Z</time>
      </trkpt>
      <trkpt lat="53.18856" lon="7.92299">
        <ele>45.134673</ele>
        <time>2024-07-12T11:48:51.823Z</time>
      </trkpt>
      <trkpt lat="53.18847" lon="7.92309">
        <ele>45.121569</ele>
        <time>2024-07-12T11:48:53.827Z</time>
      </trkpt>
      <trkpt lat="53.18839" lon="7.92319">
        <ele>45.10831</ele>
        <time>2024-07-12T11:48:55.824Z</time>
      </trkpt>
      <trkpt lat="53.1883" lon="7.92329">
        <ele>45.094917</ele>
        <time>2024-07-12T11:48:57.830Z</time>
      </trkpt>
      <trkpt lat="53.18822" lon="7.92339">
        <ele>45.081997</ele>
        <time>2024-07-12T11:48:59.834Z</time>
      </trkpt>
      <trkpt lat="53.18814" lon="7.92349">
        <ele>45.069281</ele>
        <time>2024-07-12T11:49:01.832Z</time>
      </trkpt>
      <trkpt lat="53.18805" lon="7.92359">
        <ele>45.055919</ele>
        <time>2024-07-12T11:49:03.820Z</time>
      </trkpt>
      <trkpt lat="53.18797" lon="7.9237">
        <ele>45.042557</ele>
        <time>2024-07-12T11:49:05.808Z</time>
      </trkpt>
      <trkpt lat="53.18788" lon="7.9238">
        <ele>45.029343</ele>
        <time>2024-07-12T11:49:07.827Z</time>
      </trkpt>
      <trkpt lat="53.1878" lon="7.9239">
        <ele>45.015994</ele>
        <time>2024-07-12T11:49:09.820Z</time>
      </trkpt>
      <trkpt lat="53.18771" lon="7.924">
        <ele>45.002548</ele>
        <time>2024-07-12T11:49:11.824Z</time>
      </trkpt>
      <trkpt lat="53.18762" lon="7.92409">
        <ele>44.989127</ele>
        <time>2024-07-12T11:49:13.827Z</time>
      </trkpt>
      <trkpt lat="53.18753" lon="7.9242">
        <ele>44.97544</ele>
        <time>2024-07-12T11:49:15.839Z</time>
      </trkpt>
      <trkpt lat="53.18745" lon="7.9243">
        <ele>44.962148</ele>
        <time>2024-07-12T11:49:17.833Z</time>
      </trkpt>
      <trkpt lat="53.18736" lon="7.92441">
        <ele>44.948857</ele>
        <time>2024-07-12T11:49:19.835Z</time>
      </trkpt>
      <trkpt lat="53.18727" lon="7.92451">
        <ele>44.944904</ele>
        <time>2024-07-12T11:49:21.833Z</time>
      </trkpt>
      <trkpt lat="53.18719" lon="7.92459">
        <ele>44.953998</ele>
        <time>2024-07-12T11:49:23.849Z</time>
      </trkpt>
      <trkpt lat="53.18711" lon="7.92469">
        <ele>44.963437</ele>
        <time>2024-07-12T11:49:25.840Z</time>
      </trkpt>
      <trkpt lat="53.18703" lon="7.92479">
        <ele>44.972887</ele>
        <time>2024-07-12T11:49:27.835Z</time>
      </trkpt>
      <trkpt lat="53.18694" lon="7.92488">
        <ele>44.982243</ele>
        <time>2024-07-12T11:49:29.833Z</time>
      </trkpt>
      <trkpt lat="53.18686" lon="7.92497">
        <ele>44.991381</ele>
        <time>2024-07-12T11:49:31.829Z</time>
      </trkpt>
      <trkpt lat="53.18678" lon="7.92507">
        <ele>45.000712</ele>
        <time>2024-07-12T11:49:33.828Z</time>
      </trkpt>
      <trkpt lat="53.1867" lon="7.92517">
        <ele>45.010271</ele>
        <time>2024-07-12T11:49:35.858Z</time>
      </trkpt>
      <trkpt lat="53.18662" lon="7.92526">
        <ele>45.019483</ele>
        <time>2024-07-12T11:49:37.847Z</time>
      </trkpt>
      <trkpt lat="53.18654" lon="7.92536">
        <ele>45.02889</ele>
        <time>2024-07-12T11:49:39.833Z</time>
      </trkpt>
      <trkpt lat="53.18646" lon="7.92546">
        <ele>45.038144</ele>
        <time>2024-07-12T11:49:41.831Z</time>
      </trkpt>
      <trkpt lat="53.18638" lon="7.92556">
        <ele>45.047418</ele>
        <time>2024-07-12T11:49:43.847Z</time>
      </trkpt>
      <trkpt lat="53.1863" lon="7.92566">
        <ele>45.056966</ele>
        <time>2024-07-12T11:49:45.854Z</time>
      </trkpt>
      <trkpt lat="53.18621" lon="7.92575">
        <ele>45.066617</ele>
        <time>2024-07-12T11:49:47.854Z</time>
      </trkpt>
      <trkpt lat="53.18613" lon="7.92585">
        <ele>45.076133</ele>
        <time>2024-07-12T11:49:49.830Z</time>
      </trkpt>
      <trkpt lat="53.18605" lon="7.92594">
        <ele>45.085148</ele>
        <time>2024-07-12T11:49:51.824Z</time>
      </trkpt>
      <trkpt lat="53.18597" lon="7.92604">
        <ele>45.094305</ele>
        <time>2024-07-12T11:49:53.828Z</time>
      </trkpt>
      <trkpt lat="53.18589" lon="7.92613">
        <ele>45.103461</ele>
        <time>2024-07-12T11:49:55.825Z</time>
      </trkpt>
      <trkpt lat="53.1858" lon="7.92622">
        <ele>45.100172</ele>
        <time>2024-07-12T11:49:57.833Z</time>
      </trkpt>
      <trkpt lat="53.18572" lon="7.92632">
        <ele>45.077253</ele>
        <time>2024-07-12T11:49:59.856Z</time>
      </trkpt>
      <trkpt lat="53.18565" lon="7.92642">
        <ele>45.05475</ele>
        <time>2024-07-12T11:50:01.830Z</time>
      </trkpt>
      <trkpt lat="53.18556" lon="7.92651">
        <ele>45.031684</ele>
        <time>2024-07-12T11:50:03.852Z</time>
      </trkpt>
      <trkpt lat="53.18548" lon="7.92661">
        <ele>45.007498</ele>
        <time>2024-07-12T11:50:05.836Z</time>
      </trkpt>
      <trkpt lat="53.1854" lon="7.92671">
        <ele>44.98409</ele>
        <time>2024-07-12T11:50:07.825Z</time>
      </trkpt>
      <trkpt lat="53.18531" lon="7.9268">
        <ele>44.961216</ele>
        <time>2024-07-12T11:50:09.826Z</time>
      </trkpt>
      <trkpt lat="53.18523" lon="7.9269">
        <ele>44.937867</ele>
        <time>2024-07-12T11:50:11.820Z</time>
      </trkpt>
      <trkpt lat="53.18515" lon="7.92699">
        <ele>44.914953</ele>
        <time>2024-07-12T11:50:13.823Z</time>
      </trkpt>
      <trkpt lat="53.18506" lon="7.92709">
        <ele>44.890797</ele>
        <time>2024-07-12T11:50:15.844Z</time>
      </trkpt>
      <trkpt lat="53.18498" lon="7.92719">
        <ele>44.867905</ele>
        <time>2024-07-12T11:50:17.829Z</time>
      </trkpt>
      <trkpt lat="53.1849" lon="7.92728">
        <ele>44.844985</ele>
        <time>2024-07-12T11:50:19.838Z</time>
      </trkpt>
      <trkpt lat="53.18482" lon="7.92737">
        <ele>44.821262</ele>
        <time>2024-07-12T11:50:21.827Z</time>
      </trkpt>
      <trkpt lat="53.18474" lon="7.92747">
        <ele>44.799011</ele>
        <time>2024-07-12T11:50:23.834Z</time>
      </trkpt>
      <trkpt lat="53.18466" lon="7.92756">
        <ele>44.777168</ele>
        <time>2024-07-12T11:50:25.833Z</time>
      </trkpt>
      <trkpt lat="53.18459" lon="7.92766">
        <ele>44.755454</ele>
        <time>2024-07-12T11:50:27.827Z</time>
      </trkpt>
      <trkpt lat="53.18452" lon="7.92775">
        <ele>44.734461</ele>
        <time>2024-07-12T11:50:29.825Z</time>
      </trkpt>
      <trkpt lat="53.18444" lon="7.92784">
        <ele>44.712807</ele>
        <time>2024-07-12T11:50:31.828Z</time>
      </trkpt>
      <trkpt lat="53.18436" lon="7.92793">
        <ele>44.704129</ele>
        <time>2024-07-12T11:50:33.835Z</time>
      </trkpt>
      <trkpt lat="53.18428" lon="7.92803">
        <ele>44.818007</ele>
        <time>2024-07-12T11:50:35.837Z</time>
      </trkpt>
      <trkpt lat="53.1842" lon="7.92812">
        <ele>44.933499</ele>
        <time>2024-07-12T11:50:37.833Z</time>
      </trkpt>
      <trkpt lat="53.18411" lon="7.92821">
        <ele>45.048283</ele>
        <time>2024-07-12T11:50:39.820Z</time>
      </trkpt>
      <trkpt lat="53.18403" lon="7.92831">
        <ele>45.164312</ele>
        <time>2024-07-12T11:50:41.825Z</time>
      </trkpt>
      <trkpt lat="53.18395" lon="7.92841">
        <ele>45.27619</ele>
        <time>2024-07-12T11:50:43.820Z</time>
      </trkpt>
      <trkpt lat="53.18387" lon="7.9285">
        <ele>45.391528</ele>
        <time>2024-07-12T11:50:45.832Z</time>
      </trkpt>
      <trkpt lat="53.18379" lon="7.92859">
        <ele>45.506076</ele>
        <time>2024-07-12T11:50:47.845Z</time>
      </trkpt>
      <trkpt lat="53.18371" lon="7.92869">
        <ele>45.619955</ele>
        <time>2024-07-12T11:50:49.847Z</time>
      </trkpt>
      <trkpt lat="53.18364" lon="7.9288">
        <ele>45.727502</ele>
        <time>2024-07-12T11:50:51.831Z</time>
      </trkpt>
      <trkpt lat="53.18353" lon="7.92892">
        <ele>45.876841</ele>
        <time>2024-07-12T11:50:54.829Z</time>
      </trkpt>
      <trkpt lat="53.18342" lon="7.92906">
        <ele>46.033349</ele>
        <time>2024-07-12T11:50:57.847Z</time>
      </trkpt>
      <trkpt lat="53.18335" lon="7.92916">
        <ele>46.139533</ele>
        <time>2024-07-12T11:50:59.824Z</time>
      </trkpt>
      <trkpt lat="53.18326" lon="7.92931">
        <ele>46.282285</ele>
        <time>2024-07-12T11:51:02.819Z</time>
      </trkpt>
      <trkpt lat="53.18318" lon="7.92947">
        <ele>46.434175</ele>
        <time>2024-07-12T11:51:05.825Z</time>
      </trkpt>
      <trkpt lat="53.18312" lon="7.92959">
        <ele>46.539852</ele>
        <time>2024-07-12T11:51:07.831Z</time>
      </trkpt>
      <trkpt lat="53.18306" lon="7.92971">
        <ele>46.647768</ele>
        <time>2024-07-12T11:51:09.853Z</time>
      </trkpt>
      <trkpt lat="53.18298" lon="7.92989">
        <ele>46.761804</ele>
        <time>2024-07-12T11:51:12.840Z</time>
      </trkpt>
      <trkpt lat="53.18291" lon="7.93008">
        <ele>46.779493</ele>
        <time>2024-07-12T11:51:15.837Z</time>
      </trkpt>
      <trkpt lat="53.18285" lon="7.93027">
        <ele>46.797274</ele>
        <time>2024-07-12T11:51:18.835Z</time>
      </trkpt>
      <trkpt lat="53.18278" lon="7.93046">
        <ele>46.815034</ele>
        <time>2024-07-12T11:51:21.820Z</time>
      </trkpt>
      <trkpt lat="53.18272" lon="7.93066">
        <ele>46.83267</ele>
        <time>2024-07-12T11:51:24.820Z</time>
      </trkpt>
      <trkpt lat="53.18268" lon="7.93085">
        <ele>46.848906</ele>
        <time>2024-07-12T11:51:27.832Z</time>
      </trkpt>
      <trkpt lat="53.18264" lon="7.93099">
        <ele>46.86114</ele>
        <time>2024-07-12T11:51:29.822Z</time>
      </trkpt>
      <trkpt lat="53.18262" lon="7.93114">
        <ele>46.873912</ele>
        <time>2024-07-12T11:51:31.839Z</time>
      </trkpt>
      <trkpt lat="53.18258" lon="7.93133">
        <ele>46.890425</ele>
        <time>2024-07-12T11:51:34.842Z</time>
      </trkpt>
      <trkpt lat="53.18255" lon="7.93152">
        <ele>46.906329</ele>
        <time>2024-07-12T11:51:37.845Z</time>
      </trkpt>
      <trkpt lat="53.18252" lon="7.93172">
        <ele>46.922814</ele>
        <time>2024-07-12T11:51:40.838Z</time>
      </trkpt>
      <trkpt lat="53.1825" lon="7.93195">
        <ele>46.940918</ele>
        <time>2024-07-12T11:51:43.822Z</time>
      </trkpt>
      <trkpt lat="53.18249" lon="7.93217">
        <ele>46.95868</ele>
        <time>2024-07-12T11:51:46.831Z</time>
      </trkpt>
      <trkpt lat="53.18249" lon="7.93232">
        <ele>46.97089</ele>
        <time>2024-07-12T11:51:48.829Z</time>
      </trkpt>
      <trkpt lat="53.18248" lon="7.93253">
        <ele>46.987806</ele>
        <time>2024-07-12T11:51:51.825Z</time>
      </trkpt>
      <trkpt lat="53.18249" lon="7.93275">
        <ele>46.988255</ele>
        <time>2024-07-12T11:51:54.818Z</time>
      </trkpt>
      <trkpt lat="53.1825" lon="7.93291">
        <ele>46.969356</ele>
        <time>2024-07-12T11:51:56.828Z</time>
      </trkpt>
      <trkpt lat="53.1825" lon="7.93306">
        <ele>46.951497</ele>
        <time>2024-07-12T11:51:58.841Z</time>
      </trkpt>
      <trkpt lat="53.18252" lon="7.93327">
        <ele>46.926079</ele>
        <time>2024-07-12T11:52:01.845Z</time>
      </trkpt>
      <trkpt lat="53.18253" lon="7.93342">
        <ele>46.908353</ele>
        <time>2024-07-12T11:52:03.846Z</time>
      </trkpt>
      <trkpt lat="53.18256" lon="7.93364">
        <ele>46.882383</ele>
        <time>2024-07-12T11:52:06.814Z</time>
      </trkpt>
      <trkpt lat="53.18258" lon="7.9338">
        <ele>46.862889</ele>
        <time>2024-07-12T11:52:08.835Z</time>
      </trkpt>
      <trkpt lat="53.1826" lon="7.93396">
        <ele>46.844172</ele>
        <time>2024-07-12T11:52:10.851Z</time>
      </trkpt>
      <trkpt lat="53.18263" lon="7.93416">
        <ele>46.819432</ele>
        <time>2024-07-12T11:52:13.854Z</time>
      </trkpt>
      <trkpt lat="53.18266" lon="7.93437">
        <ele>46.794058</ele>
        <time>2024-07-12T11:52:16.826Z</time>
      </trkpt>
      <trkpt lat="53.18269" lon="7.93459">
        <ele>46.767745</ele>
        <time>2024-07-12T11:52:19.847Z</time>
      </trkpt>
      <trkpt lat="53.18271" lon="7.93482">
        <ele>46.74067</ele>
        <time>2024-07-12T11:52:22.834Z</time>
      </trkpt>
      <trkpt lat="53.18273" lon="7.93497">
        <ele>46.72287</ele>
        <time>2024-07-12T11:52:24.832Z</time>
      </trkpt>
      <trkpt lat="53.18275" lon="7.93512">
        <ele>46.704729</ele>
        <time>2024-07-12T11:52:26.842Z</time>
      </trkpt>
      <trkpt lat="53.18277" lon="7.93527">
        <ele>46.687011</ele>
        <time>2024-07-12T11:52:28.831Z</time>
      </trkpt>
      <trkpt lat="53.1828" lon="7.93549">
        <ele>46.66051</ele>
        <time>2024-07-12T11:52:31.825Z</time>
      </trkpt>
      <trkpt lat="53.18283" lon="7.93571">
        <ele>46.656804</ele>
        <time>2024-07-12T11:52:34.833Z</time>
      </trkpt>
      <trkpt lat="53.18285" lon="7.93586">
        <ele>46.6722</ele>
        <time>2024-07-12T11:52:36.835Z</time>
      </trkpt>
      <trkpt lat="53.18288" lon="7.93607">
        <ele>46.694502</ele>
        <time>2024-07-12T11:52:39.826Z</time>
      </trkpt>
      <trkpt lat="53.1829" lon="7.93628">
        <ele>46.716262</ele>
        <time>2024-07-12T11:52:42.833Z</time>
      </trkpt>
      <trkpt lat="53.18293" lon="7.9365">
        <ele>46.739415</ele>
        <time>2024-07-12T11:52:45.831Z</time>
      </trkpt>
      <trkpt lat="53.18295" lon="7.93672">
        <ele>46.761639</ele>
        <time>2024-07-12T11:52:48.835Z</time>
      </trkpt>
      <trkpt lat="53.18299" lon="7.93693">
        <ele>46.783473</ele>
        <time>2024-07-12T11:52:51.833Z</time>
      </trkpt>
      <trkpt lat="53.18302" lon="7.93714">
        <ele>46.805983</ele>
        <time>2024-07-12T11:52:54.837Z</time>
      </trkpt>
      <trkpt lat="53.18304" lon="7.93729">
        <ele>46.821873</ele>
        <time>2024-07-12T11:52:56.839Z</time>
      </trkpt>
      <trkpt lat="53.18306" lon="7.93745">
        <ele>46.837664</ele>
        <time>2024-07-12T11:52:58.848Z</time>
      </trkpt>
      <trkpt lat="53.18308" lon="7.9376">
        <ele>46.853987</ele>
        <time>2024-07-12T11:53:00.836Z</time>
      </trkpt>
      <trkpt lat="53.18309" lon="7.93776">
        <ele>46.870208</ele>
        <time>2024-07-12T11:53:02.843Z</time>
      </trkpt>
      <trkpt lat="53.18311" lon="7.93791">
        <ele>46.88564</ele>
        <time>2024-07-12T11:53:04.833Z</time>
      </trkpt>
      <trkpt lat="53.18313" lon="7.93806">
        <ele>46.901271</ele>
        <time>2024-07-12T11:53:06.860Z</time>
      </trkpt>
      <trkpt lat="53.18315" lon="7.93821">
        <ele>46.916602</ele>
        <time>2024-07-12T11:53:08.827Z</time>
      </trkpt>
      <trkpt lat="53.18317" lon="7.93836">
        <ele>46.931937</ele>
        <time>2024-07-12T11:53:10.832Z</time>
      </trkpt>
      <trkpt lat="53.18319" lon="7.93851">
        <ele>46.947793</ele>
        <time>2024-07-12T11:53:12.847Z</time>
      </trkpt>
      <trkpt lat="53.1832" lon="7.93866">
        <ele>46.942274</ele>
        <time>2024-07-12T11:53:14.830Z</time>
      </trkpt>
      <trkpt lat="53.18323" lon="7.93888">
        <ele>46.927134</ele>
        <time>2024-07-12T11:53:17.834Z</time>
      </trkpt>
      <trkpt lat="53.18325" lon="7.93903">
        <ele>46.916104</ele>
        <time>2024-07-12T11:53:19.835Z</time>
      </trkpt>
      <trkpt lat="53.18327" lon="7.93918">
        <ele>46.905434</ele>
        <time>2024-07-12T11:53:21.809Z</time>
      </trkpt>
      <trkpt lat="53.18328" lon="7.93934">
        <ele>46.894869</ele>
        <time>2024-07-12T11:53:23.843Z</time>
      </trkpt>
      <trkpt lat="53.1833" lon="7.93954">
        <ele>46.88041</ele>
        <time>2024-07-12T11:53:26.828Z</time>
      </trkpt>
      <trkpt lat="53.18332" lon="7.93969">
        <ele>46.870057</ele>
        <time>2024-07-12T11:53:28.854Z</time>
      </trkpt>
      <trkpt lat="53.18334" lon="7.93984">
        <ele>46.859521</ele>
        <time>2024-07-12T11:53:30.840Z</time>
      </trkpt>
      <trkpt lat="53.18336" lon="7.94">
        <ele>46.848175</ele>
        <time>2024-07-12T11:53:32.834Z</time>
      </trkpt>
      <trkpt lat="53.18339" lon="7.94015">
        <ele>46.8373</ele>
        <time>2024-07-12T11:53:34.835Z</time>
      </trkpt>
      <trkpt lat="53.18341" lon="7.9403">
        <ele>46.826696</ele>
        <time>2024-07-12T11:53:36.846Z</time>
      </trkpt>
      <trkpt lat="53.18344" lon="7.94045">
        <ele>46.81585</ele>
        <time>2024-07-12T11:53:38.814Z</time>
      </trkpt>
      <trkpt lat="53.18345" lon="7.94061">
        <ele>46.804753</ele>
        <time>2024-07-12T11:53:40.841Z</time>
      </trkpt>
      <trkpt lat="53.18348" lon="7.94077">
        <ele>46.793425</ele>
        <time>2024-07-12T11:53:42.830Z</time>
      </trkpt>
      <trkpt lat="53.1835" lon="7.94093">
        <ele>46.781945</ele>
        <time>2024-07-12T11:53:44.826Z</time>
      </trkpt>
      <trkpt lat="53.18351" lon="7.94109">
        <ele>46.77069</ele>
        <time>2024-07-12T11:53:46.857Z</time>
      </trkpt>
      <trkpt lat="53.18353" lon="7.94125">
        <ele>46.759638</ele>
        <time>2024-07-12T11:53:48.841Z</time>
      </trkpt>
      <trkpt lat="53.18356" lon="7.94141">
        <ele>46.748465</ele>
        <time>2024-07-12T11:53:50.836Z</time>
      </trkpt>
      <trkpt lat="53.18358" lon="7.94156">
        <ele>46.73378</ele>
        <time>2024-07-12T11:53:52.813Z</time>
      </trkpt>
      <trkpt lat="53.18361" lon="7.94171">
        <ele>46.717464</ele>
        <time>2024-07-12T11:53:54.809Z</time>
      </trkpt>
      <trkpt lat="53.18363" lon="7.94187">
        <ele>46.700677</ele>
        <time>2024-07-12T11:53:56.836Z</time>
      </trkpt>
      <trkpt lat="53.18364" lon="7.94203">
        <ele>46.684107</ele>
        <time>2024-07-12T11:53:58.839Z</time>
      </trkpt>
      <trkpt lat="53.18366" lon="7.94218">
        <ele>46.66812</ele>
        <time>2024-07-12T11:54:00.824Z</time>
      </trkpt>
      <trkpt lat="53.18368" lon="7.94233">
        <ele>46.652149</ele>
        <time>2024-07-12T11:54:02.825Z</time>
      </trkpt>
      <trkpt lat="53.1837" lon="7.94248">
        <ele>46.636278</ele>
        <time>2024-07-12T11:54:04.827Z</time>
      </trkpt>
      <trkpt lat="53.18372" lon="7.94263">
        <ele>46.620204</ele>
        <time>2024-07-12T11:54:06.827Z</time>
      </trkpt>
      <trkpt lat="53.18373" lon="7.94279">
        <ele>46.603143</ele>
        <time>2024-07-12T11:54:08.838Z</time>
      </trkpt>
      <trkpt lat="53.18375" lon="7.94295">
        <ele>46.586254</ele>
        <time>2024-07-12T11:54:10.829Z</time>
      </trkpt>
      <trkpt lat="53.18377" lon="7.94311">
        <ele>46.569589</ele>
        <time>2024-07-12T11:54:12.832Z</time>
      </trkpt>
      <trkpt lat="53.18379" lon="7.94326">
        <ele>46.553542</ele>
        <time>2024-07-12T11:54:14.840Z</time>
      </trkpt>
      <trkpt lat="53.18381" lon="7.94341">
        <ele>46.537299</ele>
        <time>2024-07-12T11:54:16.832Z</time>
      </trkpt>
      <trkpt lat="53.18383" lon="7.94357">
        <ele>46.520199</ele>
        <time>2024-07-12T11:54:18.835Z</time>
      </trkpt>
      <trkpt lat="53.18385" lon="7.94372">
        <ele>46.503766</ele>
        <time>2024-07-12T11:54:20.836Z</time>
      </trkpt>
      <trkpt lat="53.18387" lon="7.94389">
        <ele>46.4865</ele>
        <time>2024-07-12T11:54:22.815Z</time>
      </trkpt>
      <trkpt lat="53.18389" lon="7.94405">
        <ele>46.469336</ele>
        <time>2024-07-12T11:54:24.821Z</time>
      </trkpt>
      <trkpt lat="53.18391" lon="7.9442">
        <ele>46.452921</ele>
        <time>2024-07-12T11:54:26.831Z</time>
      </trkpt>
      <trkpt lat="53.18393" lon="7.94436">
        <ele>46.435929</ele>
        <time>2024-07-12T11:54:28.825Z</time>
      </trkpt>
      <trkpt lat="53.18395" lon="7.94453">
        <ele>46.393878</ele>
        <time>2024-07-12T11:54:30.837Z</time>
      </trkpt>
      <trkpt lat="53.18397" lon="7.94469">
        <ele>46.343055</ele>
        <time>2024-07-12T11:54:32.811Z</time>
      </trkpt>
      <trkpt lat="53.184" lon="7.94484">
        <ele>46.29205</ele>
        <time>2024-07-12T11:54:34.838Z</time>
      </trkpt>
      <trkpt lat="53.18402" lon="7.945">
        <ele>46.24244</ele>
        <time>2024-07-12T11:54:36.847Z</time>
      </trkpt>
      <trkpt lat="53.18404" lon="7.94516">
        <ele>46.191118</ele>
        <time>2024-07-12T11:54:38.836Z</time>
      </trkpt>
      <trkpt lat="53.18405" lon="7.94532">
        <ele>46.142788</ele>
        <time>2024-07-12T11:54:40.852Z</time>
      </trkpt>
      <trkpt lat="53.18407" lon="7.94547">
        <ele>46.094506</ele>
        <time>2024-07-12T11:54:42.819Z</time>
      </trkpt>
      <trkpt lat="53.18409" lon="7.94563">
        <ele>46.044357</ele>
        <time>2024-07-12T11:54:44.824Z</time>
      </trkpt>
      <trkpt lat="53.18411" lon="7.94578">
        <ele>45.99463</ele>
        <time>2024-07-12T11:54:46.834Z</time>
      </trkpt>
      <trkpt lat="53.18413" lon="7.94594">
        <ele>45.944118</ele>
        <time>2024-07-12T11:54:48.810Z</time>
      </trkpt>
      <trkpt lat="53.18415" lon="7.9461">
        <ele>45.892993</ele>
        <time>2024-07-12T11:54:50.842Z</time>
      </trkpt>
      <trkpt lat="53.18418" lon="7.94627">
        <ele>45.840786</ele>
        <time>2024-07-12T11:54:52.830Z</time>
      </trkpt>
      <trkpt lat="53.1842" lon="7.94642">
        <ele>45.792569</ele>
        <time>2024-07-12T11:54:54.840Z</time>
      </trkpt>
      <trkpt lat="53.18422" lon="7.94658">
        <ele>45.742159</ele>
        <time>2024-07-12T11:54:56.828Z</time>
      </trkpt>
      <trkpt lat="53.18424" lon="7.94674">
        <ele>45.691034</ele>
        <time>2024-07-12T11:54:58.822Z</time>
      </trkpt>
      <trkpt lat="53.18426" lon="7.94689">
        <ele>45.642029</ele>
        <time>2024-07-12T11:55:00.826Z</time>
      </trkpt>
      <trkpt lat="53.18428" lon="7.94704">
        <ele>45.593327</ele>
        <time>2024-07-12T11:55:02.821Z</time>
      </trkpt>
      <trkpt lat="53.1843" lon="7.9472">
        <ele>45.54469</ele>
        <time>2024-07-12T11:55:04.809Z</time>
      </trkpt>
      <trkpt lat="53.18432" lon="7.94735">
        <ele>45.503446</ele>
        <time>2024-07-12T11:55:06.829Z</time>
      </trkpt>
      <trkpt lat="53.18434" lon="7.9475">
        <ele>45.551618</ele>
        <time>2024-07-12T11:55:08.832Z</time>
      </trkpt>
      <trkpt lat="53.18435" lon="7.94765">
        <ele>45.599583</ele>
        <time>2024-07-12T11:55:10.819Z</time>
      </trkpt>
      <trkpt lat="53.18437" lon="7.9478">
        <ele>45.649233</ele>
        <time>2024-07-12T11:55:12.806Z</time>
      </trkpt>
      <trkpt lat="53.18438" lon="7.94796">
        <ele>45.699195</ele>
        <time>2024-07-12T11:55:14.833Z</time>
      </trkpt>
      <trkpt lat="53.1844" lon="7.94812">
        <ele>45.749334</ele>
        <time>2024-07-12T11:55:16.830Z</time>
      </trkpt>
      <trkpt lat="53.18444" lon="7.94834">
        <ele>45.822099</ele>
        <time>2024-07-12T11:55:19.838Z</time>
      </trkpt>
      <trkpt lat="53.18445" lon="7.9485">
        <ele>45.874249</ele>
        <time>2024-07-12T11:55:21.843Z</time>
      </trkpt>
      <trkpt lat="53.18447" lon="7.94866">
        <ele>45.925011</ele>
        <time>2024-07-12T11:55:23.830Z</time>
      </trkpt>
      <trkpt lat="53.18448" lon="7.94881">
        <ele>45.974055</ele>
        <time>2024-07-12T11:55:25.834Z</time>
      </trkpt>
      <trkpt lat="53.18449" lon="7.94897">
        <ele>46.025114</ele>
        <time>2024-07-12T11:55:27.839Z</time>
      </trkpt>
      <trkpt lat="53.18452" lon="7.94914">
        <ele>46.077885</ele>
        <time>2024-07-12T11:55:29.834Z</time>
      </trkpt>
      <trkpt lat="53.18454" lon="7.9493">
        <ele>46.12927</ele>
        <time>2024-07-12T11:55:31.850Z</time>
      </trkpt>
      <trkpt lat="53.18455" lon="7.94946">
        <ele>46.180656</ele>
        <time>2024-07-12T11:55:33.851Z</time>
      </trkpt>
      <trkpt lat="53.18457" lon="7.94962">
        <ele>46.232447</ele>
        <time>2024-07-12T11:55:35.834Z</time>
      </trkpt>
      <trkpt lat="53.18459" lon="7.94977">
        <ele>46.281102</ele>
        <time>2024-07-12T11:55:37.844Z</time>
      </trkpt>
      <trkpt lat="53.18461" lon="7.94992">
        <ele>46.331442</ele>
        <time>2024-07-12T11:55:39.834Z</time>
      </trkpt>
      <trkpt lat="53.18463" lon="7.95007">
        <ele>46.380338</ele>
        <time>2024-07-12T11:55:41.848Z</time>
      </trkpt>
      <trkpt lat="53.18465" lon="7.95023">
        <ele>46.430786</ele>
        <time>2024-07-12T11:55:43.843Z</time>
      </trkpt>
      <trkpt lat="53.18466" lon="7.95038">
        <ele>46.455481</ele>
        <time>2024-07-12T11:55:45.848Z</time>
      </trkpt>
      <trkpt lat="53.18469" lon="7.95054">
        <ele>46.466467</ele>
        <time>2024-07-12T11:55:47.825Z</time>
      </trkpt>
      <trkpt lat="53.18471" lon="7.95069">
        <ele>46.477354</ele>
        <time>2024-07-12T11:55:49.847Z</time>
      </trkpt>
      <trkpt lat="53.18472" lon="7.95085">
        <ele>46.488353</ele>
        <time>2024-07-12T11:55:51.830Z</time>
      </trkpt>
      <trkpt lat="53.18475" lon="7.951">
        <ele>46.498887</ele>
        <time>2024-07-12T11:55:53.840Z</time>
      </trkpt>
      <trkpt lat="53.18477" lon="7.95116">
        <ele>46.509864</ele>
        <time>2024-07-12T11:55:55.851Z</time>
      </trkpt>
      <trkpt lat="53.18478" lon="7.95131">
        <ele>46.520485</ele>
        <time>2024-07-12T11:55:57.821Z</time>
      </trkpt>
      <trkpt lat="53.18481" lon="7.95147">
        <ele>46.531433</ele>
        <time>2024-07-12T11:55:59.819Z</time>
      </trkpt>
      <trkpt lat="53.18482" lon="7.95161">
        <ele>46.541739</ele>
        <time>2024-07-12T11:56:01.828Z</time>
      </trkpt>
      <trkpt lat="53.18484" lon="7.95177">
        <ele>46.552239</ele>
        <time>2024-07-12T11:56:03.833Z</time>
      </trkpt>
      <trkpt lat="53.18486" lon="7.95192">
        <ele>46.562881</ele>
        <time>2024-07-12T11:56:05.832Z</time>
      </trkpt>
      <trkpt lat="53.18487" lon="7.95207">
        <ele>46.573634</ele>
        <time>2024-07-12T11:56:07.840Z</time>
      </trkpt>
      <trkpt lat="53.18489" lon="7.95222">
        <ele>46.584208</ele>
        <time>2024-07-12T11:56:09.828Z</time>
      </trkpt>
      <trkpt lat="53.1849" lon="7.95238">
        <ele>46.595236</ele>
        <time>2024-07-12T11:56:11.821Z</time>
      </trkpt>
      <trkpt lat="53.18492" lon="7.95254">
        <ele>46.605753</ele>
        <time>2024-07-12T11:56:13.843Z</time>
      </trkpt>
      <trkpt lat="53.18493" lon="7.95269">
        <ele>46.616663</ele>
        <time>2024-07-12T11:56:15.841Z</time>
      </trkpt>
      <trkpt lat="53.18495" lon="7.95285">
        <ele>46.627573</ele>
        <time>2024-07-12T11:56:17.833Z</time>
      </trkpt>
      <trkpt lat="53.18497" lon="7.953">
        <ele>46.638058</ele>
        <time>2024-07-12T11:56:19.849Z</time>
      </trkpt>
      <trkpt lat="53.18499" lon="7.95315">
        <ele>46.648881</ele>
        <time>2024-07-12T11:56:21.846Z</time>
      </trkpt>
      <trkpt lat="53.18501" lon="7.9533">
        <ele>46.642912</ele>
        <time>2024-07-12T11:56:23.826Z</time>
      </trkpt>
      <trkpt lat="53.18503" lon="7.95346">
        <ele>46.617781</ele>
        <time>2024-07-12T11:56:25.805Z</time>
      </trkpt>
      <trkpt lat="53.18504" lon="7.95362">
        <ele>46.593182</ele>
        <time>2024-07-12T11:56:27.831Z</time>
      </trkpt>
      <trkpt lat="53.18506" lon="7.95377">
        <ele>46.569123</ele>
        <time>2024-07-12T11:56:29.825Z</time>
      </trkpt>
      <trkpt lat="53.18508" lon="7.95393">
        <ele>46.544404</ele>
        <time>2024-07-12T11:56:31.836Z</time>
      </trkpt>
      <trkpt lat="53.1851" lon="7.95408">
        <ele>46.520204</ele>
        <time>2024-07-12T11:56:33.826Z</time>
      </trkpt>
      <trkpt lat="53.18511" lon="7.95423">
        <ele>46.497016</ele>
        <time>2024-07-12T11:56:35.822Z</time>
      </trkpt>
      <trkpt lat="53.18513" lon="7.95445">
        <ele>46.463222</ele>
        <time>2024-07-12T11:56:38.828Z</time>
      </trkpt>
      <trkpt lat="53.18516" lon="7.95467">
        <ele>46.428478</ele>
        <time>2024-07-12T11:56:41.827Z</time>
      </trkpt>
      <trkpt lat="53.18518" lon="7.95482">
        <ele>46.404378</ele>
        <time>2024-07-12T11:56:43.827Z</time>
      </trkpt>
      <trkpt lat="53.1852" lon="7.95497">
        <ele>46.380832</ele>
        <time>2024-07-12T11:56:45.828Z</time>
      </trkpt>
      <trkpt lat="53.18521" lon="7.95512">
        <ele>46.357033</ele>
        <time>2024-07-12T11:56:47.822Z</time>
      </trkpt>
      <trkpt lat="53.18522" lon="7.95534">
        <ele>46.323772</ele>
        <time>2024-07-12T11:56:50.833Z</time>
      </trkpt>
      <trkpt lat="53.18525" lon="7.95554">
        <ele>46.292243</ele>
        <time>2024-07-12T11:56:53.832Z</time>
      </trkpt>
      <trkpt lat="53.18528" lon="7.95574">
        <ele>46.260055</ele>
        <time>2024-07-12T11:56:56.833Z</time>
      </trkpt>
      <trkpt lat="53.18531" lon="7.95593">
        <ele>46.229914</ele>
        <time>2024-07-12T11:56:59.834Z</time>
      </trkpt>
      <trkpt lat="53.18526" lon="7.95608">
        <ele>46.202516</ele>
        <time>2024-07-12T11:57:02.831Z</time>
      </trkpt>
      <trkpt lat="53.18519" lon="7.95618">
        <ele>46.186205</ele>
        <time>2024-07-12T11:57:04.840Z</time>
      </trkpt>
      <trkpt lat="53.18516" lon="7.9564">
        <ele>46.172109</ele>
        <time>2024-07-12T11:57:07.838Z</time>
      </trkpt>
      <trkpt lat="53.18514" lon="7.95661">
        <ele>46.158699</ele>
        <time>2024-07-12T11:57:10.840Z</time>
      </trkpt>
      <trkpt lat="53.18512" lon="7.95682">
        <ele>46.14528</ele>
        <time>2024-07-12T11:57:13.821Z</time>
      </trkpt>
      <trkpt lat="53.1851" lon="7.95703">
        <ele>46.131986</ele>
        <time>2024-07-12T11:57:16.859Z</time>
      </trkpt>
      <trkpt lat="53.18508" lon="7.95717">
        <ele>46.122451</ele>
        <time>2024-07-12T11:57:18.828Z</time>
      </trkpt>
      <trkpt lat="53.18505" lon="7.95739">
        <ele>46.108036</ele>
        <time>2024-07-12T11:57:21.826Z</time>
      </trkpt>
      <trkpt lat="53.18501" lon="7.9576">
        <ele>46.094395</ele>
        <time>2024-07-12T11:57:24.843Z</time>
      </trkpt>
      <trkpt lat="53.18497" lon="7.95773">
        <ele>46.084619</ele>
        <time>2024-07-12T11:57:26.850Z</time>
      </trkpt>
      <trkpt lat="53.18493" lon="7.95787">
        <ele>46.074785</ele>
        <time>2024-07-12T11:57:28.838Z</time>
      </trkpt>
      <trkpt lat="53.18488" lon="7.95801">
        <ele>46.064915</ele>
        <time>2024-07-12T11:57:30.829Z</time>
      </trkpt>
      <trkpt lat="53.18484" lon="7.95816">
        <ele>46.054357</ele>
        <time>2024-07-12T11:57:32.822Z</time>
      </trkpt>
      <trkpt lat="53.1848" lon="7.95831">
        <ele>46.044005</ele>
        <time>2024-07-12T11:57:34.836Z</time>
      </trkpt>
      <trkpt lat="53.18474" lon="7.95852">
        <ele>46.02958</ele>
        <time>2024-07-12T11:57:37.835Z</time>
      </trkpt>
      <trkpt lat="53.1847" lon="7.95866">
        <ele>46.019725</ele>
        <time>2024-07-12T11:57:39.842Z</time>
      </trkpt>
      <trkpt lat="53.18466" lon="7.9588">
        <ele>46.009445</ele>
        <time>2024-07-12T11:57:41.832Z</time>
      </trkpt>
      <trkpt lat="53.18462" lon="7.95895">
        <ele>46.001597</ele>
        <time>2024-07-12T11:57:43.841Z</time>
      </trkpt>
      <trkpt lat="53.18456" lon="7.95914">
        <ele>46.007154</ele>
        <time>2024-07-12T11:57:46.841Z</time>
      </trkpt>
      <trkpt lat="53.1845" lon="7.95933">
        <ele>46.012884</ele>
        <time>2024-07-12T11:57:49.828Z</time>
      </trkpt>
      <trkpt lat="53.18445" lon="7.95954">
        <ele>46.018583</ele>
        <time>2024-07-12T11:57:52.836Z</time>
      </trkpt>
      <trkpt lat="53.18441" lon="7.95969">
        <ele>46.022872</ele>
        <time>2024-07-12T11:57:54.825Z</time>
      </trkpt>
      <trkpt lat="53.18437" lon="7.95983">
        <ele>46.026792</ele>
        <time>2024-07-12T11:57:56.822Z</time>
      </trkpt>
      <trkpt lat="53.18434" lon="7.95997">
        <ele>46.030736</ele>
        <time>2024-07-12T11:57:58.832Z</time>
      </trkpt>
      <trkpt lat="53.18431" lon="7.96012">
        <ele>46.034825</ele>
        <time>2024-07-12T11:58:00.805Z</time>
      </trkpt>
      <trkpt lat="53.18428" lon="7.96027">
        <ele>46.038831</ele>
        <time>2024-07-12T11:58:02.815Z</time>
      </trkpt>
      <trkpt lat="53.18428" lon="7.96042">
        <ele>46.042872</ele>
        <time>2024-07-12T11:58:04.835Z</time>
      </trkpt>
      <trkpt lat="53.18427" lon="7.96059">
        <ele>46.047077</ele>
        <time>2024-07-12T11:58:06.836Z</time>
      </trkpt>
      <trkpt lat="53.18427" lon="7.96074">
        <ele>46.051169</ele>
        <time>2024-07-12T11:58:08.835Z</time>
      </trkpt>
      <trkpt lat="53.18428" lon="7.96097">
        <ele>46.056941</ele>
        <time>2024-07-12T11:58:11.849Z</time>
      </trkpt>
      <trkpt lat="53.18429" lon="7.96119">
        <ele>46.06276</ele>
        <time>2024-07-12T11:58:14.860Z</time>
      </trkpt>
      <trkpt lat="53.18431" lon="7.96141">
        <ele>46.068524</ele>
        <time>2024-07-12T11:58:17.855Z</time>
      </trkpt>
      <trkpt lat="53.18432" lon="7.96157">
        <ele>46.072582</ele>
        <time>2024-07-12T11:58:19.822Z</time>
      </trkpt>
      <trkpt lat="53.18433" lon="7.96173">
        <ele>46.076846</ele>
        <time>2024-07-12T11:58:21.817Z</time>
      </trkpt>
      <trkpt lat="53.18435" lon="7.96188">
        <ele>46.081627</ele>
        <time>2024-07-12T11:58:23.819Z</time>
      </trkpt>
      <trkpt lat="53.18435" lon="7.96209">
        <ele>46.089086</ele>
        <time>2024-07-12T11:58:26.824Z</time>
      </trkpt>
      <trkpt lat="53.18431" lon="7.9623">
        <ele>46.096851</ele>
        <time>2024-07-12T11:58:29.818Z</time>
      </trkpt>
      <trkpt lat="53.18425" lon="7.96249">
        <ele>46.104523</ele>
        <time>2024-07-12T11:58:32.830Z</time>
      </trkpt>
      <trkpt lat="53.18423" lon="7.96264">
        <ele>46.109898</ele>
        <time>2024-07-12T11:58:34.851Z</time>
      </trkpt>
      <trkpt lat="53.1842" lon="7.96284">
        <ele>46.117288</ele>
        <time>2024-07-12T11:58:37.832Z</time>
      </trkpt>
      <trkpt lat="53.18417" lon="7.96299">
        <ele>46.1229</ele>
        <time>2024-07-12T11:58:39.838Z</time>
      </trkpt>
      <trkpt lat="53.18416" lon="7.96315">
        <ele>46.12851</ele>
        <time>2024-07-12T11:58:41.826Z</time>
      </trkpt>
      <trkpt lat="53.18416" lon="7.96332">
        <ele>46.134547</ele>
        <time>2024-07-12T11:58:43.823Z</time>
      </trkpt>
      <trkpt lat="53.18414" lon="7.9635">
        <ele>46.140943</ele>
        <time>2024-07-12T11:58:45.816Z</time>
      </trkpt>
      <trkpt lat="53.18414" lon="7.96366">
        <ele>46.146839</ele>
        <time>2024-07-12T11:58:47.850Z</time>
      </trkpt>
      <trkpt lat="53.18413" lon="7.96383">
        <ele>46.152854</ele>
        <time>2024-07-12T11:58:49.834Z</time>
      </trkpt>
      <trkpt lat="53.18413" lon="7.964">
        <ele>46.158969</ele>
        <time>2024-07-12T11:58:51.830Z</time>
      </trkpt>
      <trkpt lat="53.18413" lon="7.96416">
        <ele>46.164511</ele>
        <time>2024-07-12T11:58:53.842Z</time>
      </trkpt>
      <trkpt lat="53.18412" lon="7.96431">
        <ele>46.169888</ele>
        <time>2024-07-12T11:58:55.823Z</time>
      </trkpt>
      <trkpt lat="53.18411" lon="7.96453">
        <ele>46.177675</ele>
        <time>2024-07-12T11:58:58.847Z</time>
      </trkpt>
      <trkpt lat="53.1841" lon="7.96468">
        <ele>46.183041</ele>
        <time>2024-07-12T11:59:00.839Z</time>
      </trkpt>
      <trkpt lat="53.18408" lon="7.9649">
        <ele>46.267473</ele>
        <time>2024-07-12T11:59:03.825Z</time>
      </trkpt>
      <trkpt lat="53.18403" lon="7.96511">
        <ele>46.377727</ele>
        <time>2024-07-12T11:59:06.844Z</time>
      </trkpt>
      <trkpt lat="53.18397" lon="7.96524">
        <ele>46.460961</ele>
        <time>2024-07-12T11:59:08.818Z</time>
      </trkpt>
      <trkpt lat="53.1839" lon="7.96536">
        <ele>46.540434</ele>
        <time>2024-07-12T11:59:10.827Z</time>
      </trkpt>
      <trkpt lat="53.18384" lon="7.96549">
        <ele>46.6205</ele>
        <time>2024-07-12T11:59:12.818Z</time>
      </trkpt>
      <trkpt lat="53.18379" lon="7.96561">
        <ele>46.697533</ele>
        <time>2024-07-12T11:59:14.826Z</time>
      </trkpt>
      <trkpt lat="53.18371" lon="7.96578">
        <ele>46.803401</ele>
        <time>2024-07-12T11:59:17.836Z</time>
      </trkpt>
      <trkpt lat="53.18363" lon="7.96594">
        <ele>46.904985</ele>
        <time>2024-07-12T11:59:20.851Z</time>
      </trkpt>
      <trkpt lat="53.18355" lon="7.96612">
        <ele>47.017022</ele>
        <time>2024-07-12T11:59:23.847Z</time>
      </trkpt>
      <trkpt lat="53.1835" lon="7.96625">
        <ele>47.096079</ele>
        <time>2024-07-12T11:59:25.856Z</time>
      </trkpt>
      <trkpt lat="53.18345" lon="7.96638">
        <ele>47.176417</ele>
        <time>2024-07-12T11:59:27.830Z</time>
      </trkpt>
      <trkpt lat="53.18336" lon="7.96656">
        <ele>47.291673</ele>
        <time>2024-07-12T11:59:30.860Z</time>
      </trkpt>
      <trkpt lat="53.18328" lon="7.96673">
        <ele>47.400529</ele>
        <time>2024-07-12T11:59:33.837Z</time>
      </trkpt>
      <trkpt lat="53.18322" lon="7.96686">
        <ele>47.477151</ele>
        <time>2024-07-12T11:59:35.832Z</time>
      </trkpt>
      <trkpt lat="53.18315" lon="7.96705">
        <ele>47.592158</ele>
        <time>2024-07-12T11:59:38.838Z</time>
      </trkpt>
      <trkpt lat="53.18309" lon="7.96717">
        <ele>47.667924</ele>
        <time>2024-07-12T11:59:40.841Z</time>
      </trkpt>
      <trkpt lat="53.18301" lon="7.96736">
        <ele>47.603857</ele>
        <time>2024-07-12T11:59:43.839Z</time>
      </trkpt>
      <trkpt lat="53.18295" lon="7.96749">
        <ele>47.541052</ele>
        <time>2024-07-12T11:59:45.820Z</time>
      </trkpt>
      <trkpt lat="53.18288" lon="7.9676">
        <ele>47.477003</ele>
        <time>2024-07-12T11:59:47.847Z</time>
      </trkpt>
      <trkpt lat="53.1828" lon="7.96771">
        <ele>47.414645</ele>
        <time>2024-07-12T11:59:49.851Z</time>
      </trkpt>
      <trkpt lat="53.18278" lon="7.96788">
        <ele>47.349122</ele>
        <time>2024-07-12T11:59:51.837Z</time>
      </trkpt>
      <trkpt lat="53.18274" lon="7.96803">
        <ele>47.286496</ele>
        <time>2024-07-12T11:59:53.840Z</time>
      </trkpt>
      <trkpt lat="53.18271" lon="7.96818">
        <ele>47.229184</ele>
        <time>2024-07-12T11:59:55.847Z</time>
      </trkpt>
      <trkpt lat="53.18268" lon="7.96832">
        <ele>47.171258</ele>
        <time>2024-07-12T11:59:57.825Z</time>
      </trkpt>
      <trkpt lat="53.18264" lon="7.96846">
        <ele>47.111206</ele>
        <time>2024-07-12T11:59:59.819Z</time>
      </trkpt>
      <trkpt lat="53.1826" lon="7.96861">
        <ele>47.049266</ele>
        <time>2024-07-12T12:00:01.842Z</time>
      </trkpt>
      <trkpt lat="53.18257" lon="7.96877">
        <ele>46.987416</ele>
        <time>2024-07-12T12:00:03.823Z</time>
      </trkpt>
      <trkpt lat="53.18253" lon="7.96892">
        <ele>46.926917</ele>
        <time>2024-07-12T12:00:05.834Z</time>
      </trkpt>
      <trkpt lat="53.18249" lon="7.96906">
        <ele>46.867451</ele>
        <time>2024-07-12T12:00:07.838Z</time>
      </trkpt>
      <trkpt lat="53.18244" lon="7.96921">
        <ele>46.805221</ele>
        <time>2024-07-12T12:00:09.832Z</time>
      </trkpt>
      <trkpt lat="53.1824" lon="7.96935">
        <ele>46.74402</ele>
        <time>2024-07-12T12:00:11.850Z</time>
      </trkpt>
      <trkpt lat="53.18236" lon="7.9695">
        <ele>46.682359</ele>
        <time>2024-07-12T12:00:13.833Z</time>
      </trkpt>
      <trkpt lat="53.18232" lon="7.96964">
        <ele>46.623942</ele>
        <time>2024-07-12T12:00:15.855Z</time>
      </trkpt>
      <trkpt lat="53.18229" lon="7.9698">
        <ele>46.561936</ele>
        <time>2024-07-12T12:00:17.849Z</time>
      </trkpt>
      <trkpt lat="53.18226" lon="7.96995">
        <ele>46.515622</ele>
        <time>2024-07-12T12:00:19.828Z</time>
      </trkpt>
      <trkpt lat="53.18223" lon="7.9701">
        <ele>46.473476</ele>
        <time>2024-07-12T12:00:21.820Z</time>
      </trkpt>
      <trkpt lat="53.18219" lon="7.97025">
        <ele>46.430933</ele>
        <time>2024-07-12T12:00:23.821Z</time>
      </trkpt>
      <trkpt lat="53.18215" lon="7.9704">
        <ele>46.389921</ele>
        <time>2024-07-12T12:00:25.827Z</time>
      </trkpt>
      <trkpt lat="53.18212" lon="7.97055">
        <ele>46.347435</ele>
        <time>2024-07-12T12:00:27.833Z</time>
      </trkpt>
      <trkpt lat="53.18209" lon="7.9707">
        <ele>46.308112</ele>
        <time>2024-07-12T12:00:29.847Z</time>
      </trkpt>
      <trkpt lat="53.18205" lon="7.97085">
        <ele>46.264354</ele>
        <time>2024-07-12T12:00:31.828Z</time>
      </trkpt>
      <trkpt lat="53.18201" lon="7.97101">
        <ele>46.219983</ele>
        <time>2024-07-12T12:00:33.827Z</time>
      </trkpt>
      <trkpt lat="53.18196" lon="7.97116">
        <ele>46.176496</ele>
        <time>2024-07-12T12:00:35.837Z</time>
      </trkpt>
      <trkpt lat="53.1819" lon="7.97129">
        <ele>46.132518</ele>
        <time>2024-07-12T12:00:37.846Z</time>
      </trkpt>
      <trkpt lat="53.18184" lon="7.97142">
        <ele>46.087531</ele>
        <time>2024-07-12T12:00:39.842Z</time>
      </trkpt>
      <trkpt lat="53.18177" lon="7.97156">
        <ele>46.043423</ele>
        <time>2024-07-12T12:00:41.824Z</time>
      </trkpt>
      <trkpt lat="53.18171" lon="7.9717">
        <ele>45.998158</ele>
        <time>2024-07-12T12:00:43.851Z</time>
      </trkpt>
      <trkpt lat="53.18167" lon="7.97185">
        <ele>45.95467</ele>
        <time>2024-07-12T12:00:45.833Z</time>
      </trkpt>
      <trkpt lat="53.18162" lon="7.972">
        <ele>45.91124</ele>
        <time>2024-07-12T12:00:47.832Z</time>
      </trkpt>
      <trkpt lat="53.18158" lon="7.97216">
        <ele>45.865841</ele>
        <time>2024-07-12T12:00:49.832Z</time>
      </trkpt>
      <trkpt lat="53.18153" lon="7.97231">
        <ele>45.820546</ele>
        <time>2024-07-12T12:00:51.833Z</time>
      </trkpt>
      <trkpt lat="53.18148" lon="7.97246">
        <ele>45.77571</ele>
        <time>2024-07-12T12:00:53.849Z</time>
      </trkpt>
      <trkpt lat="53.18142" lon="7.9726">
        <ele>45.741463</ele>
        <time>2024-07-12T12:00:55.825Z</time>
      </trkpt>
      <trkpt lat="53.18137" lon="7.97275">
        <ele>45.709465</ele>
        <time>2024-07-12T12:00:57.825Z</time>
      </trkpt>
      <trkpt lat="53.18133" lon="7.9729">
        <ele>45.67819</ele>
        <time>2024-07-12T12:00:59.836Z</time>
      </trkpt>
      <trkpt lat="53.18128" lon="7.97304">
        <ele>45.647369</ele>
        <time>2024-07-12T12:01:01.826Z</time>
      </trkpt>
      <trkpt lat="53.18122" lon="7.97318">
        <ele>45.614296</ele>
        <time>2024-07-12T12:01:03.822Z</time>
      </trkpt>
      <trkpt lat="53.18116" lon="7.97331">
        <ele>45.584019</ele>
        <time>2024-07-12T12:01:05.829Z</time>
      </trkpt>
      <trkpt lat="53.18111" lon="7.97345">
        <ele>45.552055</ele>
        <time>2024-07-12T12:01:07.831Z</time>
      </trkpt>
      <trkpt lat="53.18105" lon="7.9736">
        <ele>45.519418</ele>
        <time>2024-07-12T12:01:09.828Z</time>
      </trkpt>
      <trkpt lat="53.181" lon="7.97374">
        <ele>45.486954</ele>
        <time>2024-07-12T12:01:11.824Z</time>
      </trkpt>
      <trkpt lat="53.18094" lon="7.97389">
        <ele>45.454669</ele>
        <time>2024-07-12T12:01:13.824Z</time>
      </trkpt>
      <trkpt lat="53.18088" lon="7.97404">
        <ele>45.421239</ele>
        <time>2024-07-12T12:01:15.834Z</time>
      </trkpt>
      <trkpt lat="53.18083" lon="7.97417">
        <ele>45.389517</ele>
        <time>2024-07-12T12:01:17.839Z</time>
      </trkpt>
      <trkpt lat="53.18075" lon="7.97428">
        <ele>45.357412</ele>
        <time>2024-07-12T12:01:19.824Z</time>
      </trkpt>
      <trkpt lat="53.18062" lon="7.97436">
        <ele>45.31579</ele>
        <time>2024-07-12T12:01:22.820Z</time>
      </trkpt>
      <trkpt lat="53.18053" lon="7.97441">
        <ele>45.285014</ele>
        <time>2024-07-12T12:01:24.849Z</time>
      </trkpt>
      <trkpt lat="53.18044" lon="7.97447">
        <ele>45.253777</ele>
        <time>2024-07-12T12:01:26.826Z</time>
      </trkpt>
      <trkpt lat="53.18035" lon="7.97454">
        <ele>45.221006</ele>
        <time>2024-07-12T12:01:28.846Z</time>
      </trkpt>
      <trkpt lat="53.18026" lon="7.97461">
        <ele>45.176449</ele>
        <time>2024-07-12T12:01:30.833Z</time>
      </trkpt>
      <trkpt lat="53.18018" lon="7.97472">
        <ele>45.103256</ele>
        <time>2024-07-12T12:01:32.826Z</time>
      </trkpt>
      <trkpt lat="53.18011" lon="7.97485">
        <ele>45.030129</ele>
        <time>2024-07-12T12:01:34.820Z</time>
      </trkpt>
      <trkpt lat="53.18007" lon="7.97499">
        <ele>44.959573</ele>
        <time>2024-07-12T12:01:36.826Z</time>
      </trkpt>
      <trkpt lat="53.18002" lon="7.97515">
        <ele>44.884844</ele>
        <time>2024-07-12T12:01:38.833Z</time>
      </trkpt>
      <trkpt lat="53.17998" lon="7.9753">
        <ele>44.814521</ele>
        <time>2024-07-12T12:01:40.835Z</time>
      </trkpt>
      <trkpt lat="53.17994" lon="7.97545">
        <ele>44.74265</ele>
        <time>2024-07-12T12:01:42.816Z</time>
      </trkpt>
      <trkpt lat="53.17991" lon="7.9756">
        <ele>44.676191</ele>
        <time>2024-07-12T12:01:44.830Z</time>
      </trkpt>
      <trkpt lat="53.17988" lon="7.97574">
        <ele>44.610085</ele>
        <time>2024-07-12T12:01:46.835Z</time>
      </trkpt>
      <trkpt lat="53.17984" lon="7.97588">
        <ele>44.544182</ele>
        <time>2024-07-12T12:01:48.838Z</time>
      </trkpt>
      <trkpt lat="53.17979" lon="7.97602">
        <ele>44.476344</ele>
        <time>2024-07-12T12:01:50.851Z</time>
      </trkpt>
      <trkpt lat="53.17973" lon="7.97622">
        <ele>44.380798</ele>
        <time>2024-07-12T12:01:53.834Z</time>
      </trkpt>
      <trkpt lat="53.1797" lon="7.97636">
        <ele>44.315383</ele>
        <time>2024-07-12T12:01:55.822Z</time>
      </trkpt>
      <trkpt lat="53.17966" lon="7.97657">
        <ele>44.220181</ele>
        <time>2024-07-12T12:01:58.826Z</time>
      </trkpt>
      <trkpt lat="53.17959" lon="7.97676">
        <ele>44.126188</ele>
        <time>2024-07-12T12:02:01.858Z</time>
      </trkpt>
      <trkpt lat="53.17954" lon="7.97696">
        <ele>44.034246</ele>
        <time>2024-07-12T12:02:04.825Z</time>
      </trkpt>
      <trkpt lat="53.17949" lon="7.97712">
        <ele>43.95447</ele>
        <time>2024-07-12T12:02:07.827Z</time>
      </trkpt>
      <trkpt lat="53.17944" lon="7.97728">
        <ele>43.866068</ele>
        <time>2024-07-12T12:02:10.801Z</time>
      </trkpt>
      <trkpt lat="53.17939" lon="7.97742">
        <ele>43.778111</ele>
        <time>2024-07-12T12:02:13.816Z</time>
      </trkpt>
      <trkpt lat="53.17933" lon="7.97757">
        <ele>43.679441</ele>
        <time>2024-07-12T12:02:17.846Z</time>
      </trkpt>
      <trkpt lat="53.17924" lon="7.97775">
        <ele>43.548826</ele>
        <time>2024-07-12T12:02:34.839Z</time>
      </trkpt>
      <trkpt lat="53.17927" lon="7.97793">
        <ele>43.443703</ele>
        <time>2024-07-12T12:02:39.830Z</time>
      </trkpt>
      <trkpt lat="53.17936" lon="7.97803">
        <ele>43.344413</ele>
        <time>2024-07-12T12:02:42.827Z</time>
      </trkpt>
      <trkpt lat="53.17946" lon="7.97812">
        <ele>43.23956</ele>
        <time>2024-07-12T12:02:45.833Z</time>
      </trkpt>
      <trkpt lat="53.17939" lon="7.97803">
        <ele>43.153908</ele>
        <time>2024-07-12T12:03:00.835Z</time>
      </trkpt>
      <trkpt lat="53.17931" lon="7.97794">
        <ele>43.068125</ele>
        <time>2024-07-12T12:03:03.828Z</time>
      </trkpt>
      <trkpt lat="53.17924" lon="7.97805">
        <ele>42.978491</ele>
        <time>2024-07-12T12:03:08.830Z</time>
      </trkpt>
      <trkpt lat="53.17924" lon="7.9782">
        <ele>42.893307</ele>
        <time>2024-07-12T12:03:11.821Z</time>
      </trkpt>
      <trkpt lat="53.17926" lon="7.97835">
        <ele>42.805917</ele>
        <time>2024-07-12T12:03:14.822Z</time>
      </trkpt>
      <trkpt lat="53.1793" lon="7.97853">
        <ele>42.706072</ele>
        <time>2024-07-12T12:03:17.821Z</time>
      </trkpt>
      <trkpt lat="53.17934" lon="7.97868">
        <ele>42.609953</ele>
        <time>2024-07-12T12:03:19.849Z</time>
      </trkpt>
      <trkpt lat="53.17936" lon="7.97885">
        <ele>42.517064</ele>
        <time>2024-07-12T12:03:21.844Z</time>
      </trkpt>
      <trkpt lat="53.17938" lon="7.97901">
        <ele>42.425432</ele>
        <time>2024-07-12T12:03:23.827Z</time>
      </trkpt>
      <trkpt lat="53.1794" lon="7.97916">
        <ele>42.342095</ele>
        <time>2024-07-12T12:03:25.827Z</time>
      </trkpt>
      <trkpt lat="53.17941" lon="7.97932">
        <ele>42.256862</ele>
        <time>2024-07-12T12:03:27.827Z</time>
      </trkpt>
      <trkpt lat="53.17943" lon="7.97949">
        <ele>42.350888</ele>
        <time>2024-07-12T12:03:29.832Z</time>
      </trkpt>
      <trkpt lat="53.17945" lon="7.97966">
        <ele>42.444129</ele>
        <time>2024-07-12T12:03:31.829Z</time>
      </trkpt>
      <trkpt lat="53.17947" lon="7.97982">
        <ele>42.535493</ele>
        <time>2024-07-12T12:03:33.834Z</time>
      </trkpt>
      <trkpt lat="53.17948" lon="7.97999">
        <ele>42.629416</ele>
        <time>2024-07-12T12:03:35.834Z</time>
      </trkpt>
      <trkpt lat="53.17949" lon="7.98015">
        <ele>42.714121</ele>
        <time>2024-07-12T12:03:37.834Z</time>
      </trkpt>
      <trkpt lat="53.17951" lon="7.98038">
        <ele>42.841451</ele>
        <time>2024-07-12T12:03:40.837Z</time>
      </trkpt>
      <trkpt lat="53.17953" lon="7.98055">
        <ele>42.938494</ele>
        <time>2024-07-12T12:03:42.816Z</time>
      </trkpt>
      <trkpt lat="53.17954" lon="7.98072">
        <ele>43.030825</ele>
        <time>2024-07-12T12:03:44.850Z</time>
      </trkpt>
      <trkpt lat="53.17957" lon="7.98088">
        <ele>43.122325</ele>
        <time>2024-07-12T12:03:46.844Z</time>
      </trkpt>
      <trkpt lat="53.17959" lon="7.98103">
        <ele>43.209711</ele>
        <time>2024-07-12T12:03:48.822Z</time>
      </trkpt>
      <trkpt lat="53.1796" lon="7.98119">
        <ele>43.297382</ele>
        <time>2024-07-12T12:03:50.830Z</time>
      </trkpt>
      <trkpt lat="53.1796" lon="7.98136">
        <ele>43.389623</ele>
        <time>2024-07-12T12:03:52.817Z</time>
      </trkpt>
      <trkpt lat="53.17961" lon="7.98153">
        <ele>43.480213</ele>
        <time>2024-07-12T12:03:54.832Z</time>
      </trkpt>
      <trkpt lat="53.17963" lon="7.98169">
        <ele>43.573952</ele>
        <time>2024-07-12T12:03:56.834Z</time>
      </trkpt>
      <trkpt lat="53.17966" lon="7.98185">
        <ele>43.664398</ele>
        <time>2024-07-12T12:03:58.835Z</time>
      </trkpt>
      <trkpt lat="53.17969" lon="7.98202">
        <ele>43.761708</ele>
        <time>2024-07-12T12:04:00.835Z</time>
      </trkpt>
      <trkpt lat="53.1797" lon="7.98219">
        <ele>43.855241</ele>
        <time>2024-07-12T12:04:02.820Z</time>
      </trkpt>
      <trkpt lat="53.17971" lon="7.98235">
        <ele>43.846898</ele>
        <time>2024-07-12T12:04:04.860Z</time>
      </trkpt>
      <trkpt lat="53.17973" lon="7.98251">
        <ele>43.741945</ele>
        <time>2024-07-12T12:04:06.841Z</time>
      </trkpt>
      <trkpt lat="53.17974" lon="7.98267">
        <ele>43.635747</ele>
        <time>2024-07-12T12:04:08.836Z</time>
      </trkpt>
      <trkpt lat="53.17975" lon="7.98283">
        <ele>43.527193</ele>
        <time>2024-07-12T12:04:10.834Z</time>
      </trkpt>
      <trkpt lat="53.17977" lon="7.983">
        <ele>43.415547</ele>
        <time>2024-07-12T12:04:12.850Z</time>
      </trkpt>
      <trkpt lat="53.17978" lon="7.98315">
        <ele>43.312508</ele>
        <time>2024-07-12T12:04:14.837Z</time>
      </trkpt>
      <trkpt lat="53.1798" lon="7.98331">
        <ele>43.205236</ele>
        <time>2024-07-12T12:04:16.836Z</time>
      </trkpt>
      <trkpt lat="53.17981" lon="7.98347">
        <ele>43.101756</ele>
        <time>2024-07-12T12:04:18.847Z</time>
      </trkpt>
      <trkpt lat="53.17983" lon="7.98363">
        <ele>42.995973</ele>
        <time>2024-07-12T12:04:20.840Z</time>
      </trkpt>
      <trkpt lat="53.17984" lon="7.98379">
        <ele>42.887922</ele>
        <time>2024-07-12T12:04:22.834Z</time>
      </trkpt>
      <trkpt lat="53.17985" lon="7.98395">
        <ele>42.780676</ele>
        <time>2024-07-12T12:04:24.837Z</time>
      </trkpt>
      <trkpt lat="53.17987" lon="7.9841">
        <ele>42.678344</ele>
        <time>2024-07-12T12:04:26.841Z</time>
      </trkpt>
      <trkpt lat="53.17989" lon="7.98425">
        <ele>42.577637</ele>
        <time>2024-07-12T12:04:28.838Z</time>
      </trkpt>
      <trkpt lat="53.1799" lon="7.98445">
        <ele>42.447052</ele>
        <time>2024-07-12T12:04:31.820Z</time>
      </trkpt>
      <trkpt lat="53.17993" lon="7.98466">
        <ele>42.303741</ele>
        <time>2024-07-12T12:04:34.824Z</time>
      </trkpt>
      <trkpt lat="53.17996" lon="7.98487">
        <ele>42.163151</ele>
        <time>2024-07-12T12:04:37.822Z</time>
      </trkpt>
      <trkpt lat="53.17998" lon="7.98501">
        <ele>42.064103</ele>
        <time>2024-07-12T12:04:39.824Z</time>
      </trkpt>
      <trkpt lat="53.17999" lon="7.9852">
        <ele>41.940718</ele>
        <time>2024-07-12T12:04:42.829Z</time>
      </trkpt>
      <trkpt lat="53.18002" lon="7.98537">
        <ele>41.980686</ele>
        <time>2024-07-12T12:04:45.823Z</time>
      </trkpt>
      <trkpt lat="53.18005" lon="7.98557">
        <ele>42.067417</ele>
        <time>2024-07-12T12:04:48.840Z</time>
      </trkpt>
      <trkpt lat="53.18005" lon="7.98573">
        <ele>42.138404</ele>
        <time>2024-07-12T12:04:50.827Z</time>
      </trkpt>
      <trkpt lat="53.18005" lon="7.98595">
        <ele>42.230754</ele>
        <time>2024-07-12T12:04:53.821Z</time>
      </trkpt>
      <trkpt lat="53.18003" lon="7.9861">
        <ele>42.297558</ele>
        <time>2024-07-12T12:04:55.844Z</time>
      </trkpt>
      <trkpt lat="53.18002" lon="7.98626">
        <ele>42.366167</ele>
        <time>2024-07-12T12:04:57.847Z</time>
      </trkpt>
      <trkpt lat="53.18001" lon="7.98648">
        <ele>42.460873</ele>
        <time>2024-07-12T12:05:00.833Z</time>
      </trkpt>
      <trkpt lat="53.17999" lon="7.98664">
        <ele>42.528515</ele>
        <time>2024-07-12T12:05:02.842Z</time>
      </trkpt>
      <trkpt lat="53.17997" lon="7.98679">
        <ele>42.593784</ele>
        <time>2024-07-12T12:05:04.849Z</time>
      </trkpt>
      <trkpt lat="53.17995" lon="7.98694">
        <ele>42.660892</ele>
        <time>2024-07-12T12:05:06.841Z</time>
      </trkpt>
      <trkpt lat="53.17993" lon="7.9871">
        <ele>42.730166</ele>
        <time>2024-07-12T12:05:08.837Z</time>
      </trkpt>
      <trkpt lat="53.1799" lon="7.98725">
        <ele>42.796364</ele>
        <time>2024-07-12T12:05:10.857Z</time>
      </trkpt>
      <trkpt lat="53.17988" lon="7.98746">
        <ele>42.890708</ele>
        <time>2024-07-12T12:05:13.830Z</time>
      </trkpt>
      <trkpt lat="53.17985" lon="7.98768">
        <ele>42.985254</ele>
        <time>2024-07-12T12:05:16.846Z</time>
      </trkpt>
      <trkpt lat="53.17983" lon="7.98783">
        <ele>43.049967</ele>
        <time>2024-07-12T12:05:18.840Z</time>
      </trkpt>
      <trkpt lat="53.17983" lon="7.98798">
        <ele>43.11758</ele>
        <time>2024-07-12T12:05:20.824Z</time>
      </trkpt>
      <trkpt lat="53.17982" lon="7.98814">
        <ele>43.182708</ele>
        <time>2024-07-12T12:05:22.816Z</time>
      </trkpt>
      <trkpt lat="53.17982" lon="7.98835">
        <ele>43.305603</ele>
        <time>2024-07-12T12:05:25.848Z</time>
      </trkpt>
      <trkpt lat="53.17981" lon="7.98857">
        <ele>43.435511</ele>
        <time>2024-07-12T12:05:28.847Z</time>
      </trkpt>
      <trkpt lat="53.17982" lon="7.98877">
        <ele>43.558583</ele>
        <time>2024-07-12T12:05:31.833Z</time>
      </trkpt>
      <trkpt lat="53.17984" lon="7.98898">
        <ele>43.683141</ele>
        <time>2024-07-12T12:05:34.835Z</time>
      </trkpt>
      <trkpt lat="53.17986" lon="7.98919">
        <ele>43.815178</ele>
        <time>2024-07-12T12:05:37.829Z</time>
      </trkpt>
      <trkpt lat="53.1799" lon="7.98937">
        <ele>43.931736</ele>
        <time>2024-07-12T12:05:40.844Z</time>
      </trkpt>
      <trkpt lat="53.17997" lon="7.98955">
        <ele>44.056996</ele>
        <time>2024-07-12T12:05:43.820Z</time>
      </trkpt>
      <trkpt lat="53.18001" lon="7.98973">
        <ele>44.175861</ele>
        <time>2024-07-12T12:05:46.830Z</time>
      </trkpt>
      <trkpt lat="53.18006" lon="7.9899">
        <ele>44.290114</ele>
        <time>2024-07-12T12:05:49.833Z</time>
      </trkpt>
      <trkpt lat="53.18011" lon="7.99008">
        <ele>44.405006</ele>
        <time>2024-07-12T12:05:52.851Z</time>
      </trkpt>
      <trkpt lat="53.18016" lon="7.99026">
        <ele>44.524178</ele>
        <time>2024-07-12T12:05:55.819Z</time>
      </trkpt>
      <trkpt lat="53.1802" lon="7.99044">
        <ele>44.645385</ele>
        <time>2024-07-12T12:05:58.835Z</time>
      </trkpt>
      <trkpt lat="53.18025" lon="7.99062">
        <ele>44.762891</ele>
        <time>2024-07-12T12:06:01.854Z</time>
      </trkpt>
      <trkpt lat="53.1803" lon="7.99079">
        <ele>44.877378</ele>
        <time>2024-07-12T12:06:04.850Z</time>
      </trkpt>
      <trkpt lat="53.18035" lon="7.99098">
        <ele>45.004139</ele>
        <time>2024-07-12T12:06:07.849Z</time>
      </trkpt>
      <trkpt lat="53.1804" lon="7.99117">
        <ele>45.074427</ele>
        <time>2024-07-12T12:06:10.829Z</time>
      </trkpt>
      <trkpt lat="53.18044" lon="7.99135">
        <ele>45.13798</ele>
        <time>2024-07-12T12:06:13.818Z</time>
      </trkpt>
      <trkpt lat="53.18048" lon="7.99152">
        <ele>45.197019</ele>
        <time>2024-07-12T12:06:16.810Z</time>
      </trkpt>
      <trkpt lat="53.18054" lon="7.99171">
        <ele>45.265289</ele>
        <time>2024-07-12T12:06:19.805Z</time>
      </trkpt>
      <trkpt lat="53.18057" lon="7.99191">
        <ele>45.329791</ele>
        <time>2024-07-12T12:06:22.835Z</time>
      </trkpt>
      <trkpt lat="53.18063" lon="7.99209">
        <ele>45.395624</ele>
        <time>2024-07-12T12:06:25.830Z</time>
      </trkpt>
      <trkpt lat="53.18068" lon="7.99227">
        <ele>45.458317</ele>
        <time>2024-07-12T12:06:28.838Z</time>
      </trkpt>
      <trkpt lat="53.18073" lon="7.99245">
        <ele>45.522985</ele>
        <time>2024-07-12T12:06:31.832Z</time>
      </trkpt>
      <trkpt lat="53.18077" lon="7.99263">
        <ele>45.584617</ele>
        <time>2024-07-12T12:06:34.848Z</time>
      </trkpt>
      <trkpt lat="53.18082" lon="7.9928">
        <ele>45.645081</ele>
        <time>2024-07-12T12:06:37.847Z</time>
      </trkpt>
      <trkpt lat="53.18086" lon="7.99298">
        <ele>45.708189</ele>
        <time>2024-07-12T12:06:40.838Z</time>
      </trkpt>
      <trkpt lat="53.18091" lon="7.99317">
        <ele>45.776039</ele>
        <time>2024-07-12T12:06:43.841Z</time>
      </trkpt>
      <trkpt lat="53.18095" lon="7.99335">
        <ele>45.836798</ele>
        <time>2024-07-12T12:06:46.834Z</time>
      </trkpt>
      <trkpt lat="53.18099" lon="7.99353">
        <ele>45.897979</ele>
        <time>2024-07-12T12:06:49.830Z</time>
      </trkpt>
      <trkpt lat="53.18105" lon="7.99371">
        <ele>45.965089</ele>
        <time>2024-07-12T12:06:52.816Z</time>
      </trkpt>
      <trkpt lat="53.18108" lon="7.99391">
        <ele>45.950433</ele>
        <time>2024-07-12T12:06:55.824Z</time>
      </trkpt>
      <trkpt lat="53.18112" lon="7.99408">
        <ele>45.915907</ele>
        <time>2024-07-12T12:06:58.846Z</time>
      </trkpt>
      <trkpt lat="53.18116" lon="7.99423">
        <ele>45.884918</ele>
        <time>2024-07-12T12:07:01.835Z</time>
      </trkpt>
      <trkpt lat="53.18122" lon="7.99442">
        <ele>45.845288</ele>
        <time>2024-07-12T12:07:04.855Z</time>
      </trkpt>
      <trkpt lat="53.18125" lon="7.99461">
        <ele>45.808174</ele>
        <time>2024-07-12T12:07:07.839Z</time>
      </trkpt>
      <trkpt lat="53.1813" lon="7.9948">
        <ele>45.769685</ele>
        <time>2024-07-12T12:07:10.845Z</time>
      </trkpt>
      <trkpt lat="53.18134" lon="7.99493">
        <ele>45.741481</ele>
        <time>2024-07-12T12:07:12.827Z</time>
      </trkpt>
      <trkpt lat="53.18139" lon="7.99511">
        <ele>45.704121</ele>
        <time>2024-07-12T12:07:15.854Z</time>
      </trkpt>
      <trkpt lat="53.18142" lon="7.99528">
        <ele>45.66991</ele>
        <time>2024-07-12T12:07:18.846Z</time>
      </trkpt>
      <trkpt lat="53.18146" lon="7.99547">
        <ele>45.63312</ele>
        <time>2024-07-12T12:07:21.843Z</time>
      </trkpt>
      <trkpt lat="53.1815" lon="7.99564">
        <ele>45.597564</ele>
        <time>2024-07-12T12:07:24.844Z</time>
      </trkpt>
      <trkpt lat="53.18154" lon="7.99583">
        <ele>45.560597</ele>
        <time>2024-07-12T12:07:27.838Z</time>
      </trkpt>
      <trkpt lat="53.18158" lon="7.996">
        <ele>45.525279</ele>
        <time>2024-07-12T12:07:30.841Z</time>
      </trkpt>
      <trkpt lat="53.18161" lon="7.99618">
        <ele>45.491068</ele>
        <time>2024-07-12T12:07:34.841Z</time>
      </trkpt>
      <trkpt lat="53.18165" lon="7.99633">
        <ele>45.460631</ele>
        <time>2024-07-12T12:07:38.828Z</time>
      </trkpt>
      <trkpt lat="53.18168" lon="7.99652">
        <ele>45.422965</ele>
        <time>2024-07-12T12:07:42.835Z</time>
      </trkpt>
      <trkpt lat="53.1817" lon="7.99667">
        <ele>45.498231</ele>
        <time>2024-07-12T12:07:45.844Z</time>
      </trkpt>
      <trkpt lat="53.18173" lon="7.99683">
        <ele>45.615109</ele>
        <time>2024-07-12T12:07:49.822Z</time>
      </trkpt>
      <trkpt lat="53.18177" lon="7.99698">
        <ele>45.731769</ele>
        <time>2024-07-12T12:07:53.828Z</time>
      </trkpt>
      <trkpt lat="53.18179" lon="7.99714">
        <ele>45.853093</ele>
        <time>2024-07-12T12:07:57.816Z</time>
      </trkpt>
      <trkpt lat="53.18175" lon="7.99743">
        <ele>46.06494</ele>
        <time>2024-07-12T12:08:43.830Z</time>
      </trkpt>
      <trkpt lat="53.18183" lon="7.9975">
        <ele>46.172504</ele>
        <time>2024-07-12T12:08:48.835Z</time>
      </trkpt>
      <trkpt lat="53.18196" lon="7.99753">
        <ele>46.333933</ele>
        <time>2024-07-12T12:09:14.828Z</time>
      </trkpt>
      <trkpt lat="53.18205" lon="7.99756">
        <ele>46.442425</ele>
        <time>2024-07-12T12:09:17.833Z</time>
      </trkpt>
      <trkpt lat="53.18216" lon="7.99759">
        <ele>46.576966</ele>
        <time>2024-07-12T12:09:21.838Z</time>
      </trkpt>
      <trkpt lat="53.18225" lon="7.99762">
        <ele>46.691445</ele>
        <time>2024-07-12T12:09:24.848Z</time>
      </trkpt>
      <trkpt lat="53.18235" lon="7.99766">
        <ele>46.806372</ele>
        <time>2024-07-12T12:09:27.830Z</time>
      </trkpt>
      <trkpt lat="53.18247" lon="7.99771">
        <ele>46.955652</ele>
        <time>2024-07-12T12:09:30.843Z</time>
      </trkpt>
      <trkpt lat="53.18256" lon="7.99774">
        <ele>47.069854</ele>
        <time>2024-07-12T12:09:33.842Z</time>
      </trkpt>
      <trkpt lat="53.18268" lon="7.99779">
        <ele>47.213974</ele>
        <time>2024-07-12T12:09:36.828Z</time>
      </trkpt>
      <trkpt lat="53.18278" lon="7.99783">
        <ele>47.331545</ele>
        <time>2024-07-12T12:09:39.835Z</time>
      </trkpt>
      <trkpt lat="53.1829" lon="7.99789">
        <ele>47.481029</ele>
        <time>2024-07-12T12:09:42.817Z</time>
      </trkpt>
      <trkpt lat="53.18301" lon="7.99795">
        <ele>47.553771</ele>
        <time>2024-07-12T12:09:45.844Z</time>
      </trkpt>
      <trkpt lat="53.18311" lon="7.99802">
        <ele>47.533837</ele>
        <time>2024-07-12T12:09:48.852Z</time>
      </trkpt>
      <trkpt lat="53.18322" lon="7.99805">
        <ele>47.515323</ele>
        <time>2024-07-12T12:09:51.842Z</time>
      </trkpt>
      <trkpt lat="53.18332" lon="7.99809">
        <ele>47.496594</ele>
        <time>2024-07-12T12:09:55.831Z</time>
      </trkpt>
      <trkpt lat="53.18343" lon="7.99814">
        <ele>47.477312</ele>
        <time>2024-07-12T12:10:00.827Z</time>
      </trkpt>
      <trkpt lat="53.18343" lon="7.99829">
        <ele>47.460784</ele>
        <time>2024-07-12T12:10:06.816Z</time>
      </trkpt>
      <trkpt lat="53.1834" lon="7.99849">
        <ele>47.439493</ele>
        <time>2024-07-12T12:10:10.846Z</time>
      </trkpt>
      <trkpt lat="53.18337" lon="7.99865">
        <ele>47.422359</ele>
        <time>2024-07-12T12:10:13.832Z</time>
      </trkpt>
      <trkpt lat="53.18334" lon="7.99881">
        <ele>47.404827</ele>
        <time>2024-07-12T12:10:16.840Z</time>
      </trkpt>
      <trkpt lat="53.18332" lon="7.99897">
        <ele>47.387494</ele>
        <time>2024-07-12T12:10:19.832Z</time>
      </trkpt>
      <trkpt lat="53.18328" lon="7.99915">
        <ele>47.366644</ele>
        <time>2024-07-12T12:10:23.825Z</time>
      </trkpt>
      <trkpt lat="53.18326" lon="7.99935">
        <ele>47.345773</ele>
        <time>2024-07-12T12:10:27.853Z</time>
      </trkpt>
      <trkpt lat="53.18325" lon="7.99952">
        <ele>47.32762</ele>
        <time>2024-07-12T12:10:30.842Z</time>
      </trkpt>
      <trkpt lat="53.18324" lon="7.99973">
        <ele>47.306436</ele>
        <time>2024-07-12T12:10:33.829Z</time>
      </trkpt>
      <trkpt lat="53.18322" lon="7.99991">
        <ele>47.287394</ele>
        <time>2024-07-12T12:10:36.847Z</time>
      </trkpt>
      <trkpt lat="53.1832" lon="8.0001">
        <ele>47.266836</ele>
        <time>2024-07-12T12:10:39.845Z</time>
      </trkpt>
      <trkpt lat="53.18318" lon="8.0003">
        <ele>47.255704</ele>
        <time>2024-07-12T12:10:42.830Z</time>
      </trkpt>
      <trkpt lat="53.18316" lon="8.00049">
        <ele>47.317474</ele>
        <time>2024-07-12T12:10:45.834Z</time>
      </trkpt>
      <trkpt lat="53.18314" lon="8.00068">
        <ele>47.377598</ele>
        <time>2024-07-12T12:10:48.841Z</time>
      </trkpt>
      <trkpt lat="53.18314" lon="8.00088">
        <ele>47.443612</ele>
        <time>2024-07-12T12:10:51.831Z</time>
      </trkpt>
      <trkpt lat="53.18314" lon="8.00108">
        <ele>47.50607</ele>
        <time>2024-07-12T12:10:54.844Z</time>
      </trkpt>
      <trkpt lat="53.18313" lon="8.00127">
        <ele>47.565425</ele>
        <time>2024-07-12T12:10:57.859Z</time>
      </trkpt>
      <trkpt lat="53.18312" lon="8.00146">
        <ele>47.626886</ele>
        <time>2024-07-12T12:11:00.824Z</time>
      </trkpt>
      <trkpt lat="53.1831" lon="8.00164">
        <ele>47.686161</ele>
        <time>2024-07-12T12:11:03.842Z</time>
      </trkpt>
      <trkpt lat="53.18309" lon="8.0018">
        <ele>47.73674</ele>
        <time>2024-07-12T12:11:06.830Z</time>
      </trkpt>
      <trkpt lat="53.18304" lon="8.00197">
        <ele>47.796627</ele>
        <time>2024-07-12T12:11:09.828Z</time>
      </trkpt>
      <trkpt lat="53.18303" lon="8.00213">
        <ele>47.846891</ele>
        <time>2024-07-12T12:11:12.827Z</time>
      </trkpt>
      <trkpt lat="53.18301" lon="8.00229">
        <ele>47.901183</ele>
        <time>2024-07-12T12:11:15.836Z</time>
      </trkpt>
      <trkpt lat="53.18298" lon="8.00248">
        <ele>47.962664</ele>
        <time>2024-07-12T12:11:18.835Z</time>
      </trkpt>
      <trkpt lat="53.18295" lon="8.00267">
        <ele>48.023735</ele>
        <time>2024-07-12T12:11:21.831Z</time>
      </trkpt>
      <trkpt lat="53.18293" lon="8.00285">
        <ele>48.084048</ele>
        <time>2024-07-12T12:11:24.865Z</time>
      </trkpt>
      <trkpt lat="53.18291" lon="8.00301">
        <ele>48.135307</ele>
        <time>2024-07-12T12:11:28.839Z</time>
      </trkpt>
      <trkpt lat="53.18293" lon="8.00317">
        <ele>48.188613</ele>
        <time>2024-07-12T12:11:33.839Z</time>
      </trkpt>
      <trkpt lat="53.18303" lon="8.00322">
        <ele>48.204636</ele>
        <time>2024-07-12T12:11:39.825Z</time>
      </trkpt>
      <trkpt lat="53.18295" lon="8.00332">
        <ele>48.204636</ele>
        <time>2024-07-12T12:11:48.823Z</time>
      </trkpt>
      <trkpt lat="53.18291" lon="8.00347">
        <ele>48.204636</ele>
        <time>2024-07-12T12:11:54.828Z</time>
      </trkpt>
      <trkpt lat="53.18286" lon="8.0036">
        <ele>48.204636</ele>
        <time>2024-07-12T12:12:02.827Z</time>
      </trkpt>
      <trkpt lat="53.1828" lon="8.00373">
        <ele>48.204636</ele>
        <time>2024-07-12T12:12:06.842Z</time>
      </trkpt>
      <trkpt lat="53.18283" lon="8.00389">
        <ele>48.204636</ele>
        <time>2024-07-12T12:12:10.850Z</time>
      </trkpt>
      <trkpt lat="53.18289" lon="8.00401">
        <ele>48.204636</ele>
        <time>2024-07-12T12:12:14.832Z</time>
      </trkpt>
      <trkpt lat="53.18285" lon="8.00417">
        <ele>48.204636</ele>
        <time>2024-07-12T12:12:18.826Z</time>
      </trkpt>
      <trkpt lat="53.18279" lon="8.00432">
        <ele>48.204636</ele>
        <time>2024-07-12T12:12:22.841Z</time>
      </trkpt>
      <trkpt lat="53.18279" lon="8.00449">
        <ele>48.204636</ele>
        <time>2024-07-12T12:12:26.834Z</time>
      </trkpt>
      <trkpt lat="53.18284" lon="8.00464">
        <ele>48.204636</ele>
        <time>2024-07-12T12:12:30.837Z</time>
      </trkpt>
      <trkpt lat="53.18294" lon="8.00474">
        <ele>48.204636</ele>
        <time>2024-07-12T12:12:34.832Z</time>
      </trkpt>
      <trkpt lat="53.18302" lon="8.00484">
        <ele>48.204636</ele>
        <time>2024-07-12T12:12:37.837Z</time>
      </trkpt>
      <trkpt lat="53.1831" lon="8.00494">
        <ele>48.204636</ele>
        <time>2024-07-12T12:12:41.825Z</time>
      </trkpt>
      <trkpt lat="53.1832" lon="8.00503">
        <ele>48.204636</ele>
        <time>2024-07-12T12:12:45.819Z</time>
      </trkpt>
      <trkpt lat="53.18329" lon="8.00512">
        <ele>48.204636</ele>
        <time>2024-07-12T12:12:48.806Z</time>
      </trkpt>
      <trkpt lat="53.18336" lon="8.00525">
        <ele>48.204636</ele>
        <time>2024-07-12T12:12:52.847Z</time>
      </trkpt>
      <trkpt lat="53.18333" lon="8.00539">
        <ele>48.204636</ele>
        <time>2024-07-12T12:12:56.849Z</time>
      </trkpt>
      <trkpt lat="53.18323" lon="8.00551">
        <ele>48.204636</ele>
        <time>2024-07-12T12:13:00.838Z</time>
      </trkpt>
      <trkpt lat="53.18316" lon="8.00564">
        <ele>48.204636</ele>
        <time>2024-07-12T12:13:04.816Z</time>
      </trkpt>
      <trkpt lat="53.18311" lon="8.00576">
        <ele>48.204636</ele>
        <time>2024-07-12T12:13:08.826Z</time>
      </trkpt>
      <trkpt lat="53.18307" lon="8.0059">
        <ele>48.204636</ele>
        <time>2024-07-12T12:13:12.826Z</time>
      </trkpt>
      <trkpt lat="53.18307" lon="8.0059">
        <ele>48.204636</ele>
        <time>2024-07-12T12:13:13.065Z</time>
      </trkpt>
    </trkseg>
  </trk>
</gpx>